<?xml version="1.0"?>
<gpx
 version="1.1"
 creator="Satmap Active 20"
 xmlns:xsi="http://www.w3.org/2001/XMLSchema-instance"
 xmlns="http://www.topografix.com/GPX/1/1"
 xmlns:satmap="http://www.satmap.com/updates/xmlschemas/GpxExtensions/v2/GpxExtensions_v2.xsd"
 xsi:schemaLocation="http://www.topografix.com/GPX/1/1 http://www.topografix.com/GPX/1/1/gpx.xsd">
<metadata>
<time>2021-02-17T10:20:09Z</time>
<extensions>
<satmap:platform>43</satmap:platform>
<satmap:software version="3.13.037">SM15.exe</satmap:software>
<satmap:username>pieter metz</satmap:username>
<satmap:network_ids>
<satmap:network_id type="wifi">00-23-A7-CA-E3-5C</satmap:network_id>
<satmap:network_id type="bluetooth">80-BB-EB-78-4F-29</satmap:network_id>
</satmap:network_ids>
<satmap:snap_type>simple</satmap:snap_type>
</extensions>
</metadata>
<trk>
<name>2021-02-17_1020</name>
<desc>Track 1</desc>
<number>1</number>
<trkseg>
<trkpt lat="53.438375" lon="05.639973"><ele>10.1</ele><time>2021-02-17T10:20:09Z</time><name>PT1</name></trkpt>
<trkpt lat="53.438375" lon="05.639969"><ele>9.3</ele><time>2021-02-17T10:20:15Z</time><name>PT2</name></trkpt>
<trkpt lat="53.438371" lon="05.639957"><ele>9.6</ele><time>2021-02-17T10:20:16Z</time><name>PT3</name></trkpt>
<trkpt lat="53.438374" lon="05.639932"><ele>9.3</ele><time>2021-02-17T10:20:18Z</time><name>PT4</name></trkpt>
<trkpt lat="53.438375" lon="05.639919"><ele>9.3</ele><time>2021-02-17T10:20:18Z</time><name>PT5</name></trkpt>
<trkpt lat="53.438373" lon="05.639921"><ele>9.4</ele><time>2021-02-17T10:20:19Z</time><name>PT6</name></trkpt>
<trkpt lat="53.438369" lon="05.639924"><ele>9.6</ele><time>2021-02-17T10:20:21Z</time><name>PT7</name></trkpt>
<trkpt lat="53.438369" lon="05.639931"><ele>9.6</ele><time>2021-02-17T10:20:21Z</time><name>PT8</name></trkpt>
<trkpt lat="53.438366" lon="05.639939"><ele>9.7</ele><time>2021-02-17T10:20:22Z</time><name>PT9</name></trkpt>
<trkpt lat="53.438365" lon="05.639945"><ele>9.7</ele><time>2021-02-17T10:20:24Z</time><name>PT10</name></trkpt>
<trkpt lat="53.438367" lon="05.639949"><ele>9.6</ele><time>2021-02-17T10:20:24Z</time><name>PT11</name></trkpt>
<trkpt lat="53.438370" lon="05.639949"><ele>9.6</ele><time>2021-02-17T10:20:25Z</time><name>PT12</name></trkpt>
<trkpt lat="53.438369" lon="05.639941"><ele>9.6</ele><time>2021-02-17T10:20:27Z</time><name>PT13</name></trkpt>
<trkpt lat="53.438368" lon="05.639939"><ele>9.5</ele><time>2021-02-17T10:20:27Z</time><name>PT14</name></trkpt>
<trkpt lat="53.438367" lon="05.639940"><ele>9.5</ele><time>2021-02-17T10:20:28Z</time><name>PT15</name></trkpt>
<trkpt lat="53.438368" lon="05.639939"><ele>9.4</ele><time>2021-02-17T10:20:30Z</time><name>PT16</name></trkpt>
<trkpt lat="53.438367" lon="05.639935"><ele>10.2</ele><time>2021-02-17T10:21:06Z</time><name>PT17</name></trkpt>
<trkpt lat="53.438368" lon="05.639934"><ele>10.2</ele><time>2021-02-17T10:21:06Z</time><name>PT18</name></trkpt>
<trkpt lat="53.438368" lon="05.639934"><ele>10.2</ele><time>2021-02-17T10:21:07Z</time><name>PT19</name></trkpt>
<trkpt lat="53.438370" lon="05.639933"><ele>10.6</ele><time>2021-02-17T10:21:18Z</time><name>PT20</name></trkpt>
<trkpt lat="53.438370" lon="05.639929"><ele>10.4</ele><time>2021-02-17T10:21:18Z</time><name>PT21</name></trkpt>
<trkpt lat="53.438371" lon="05.639924"><ele>10.2</ele><time>2021-02-17T10:21:19Z</time><name>PT22</name></trkpt>
<trkpt lat="53.438370" lon="05.639920"><ele>10.2</ele><time>2021-02-17T10:21:21Z</time><name>PT23</name></trkpt>
<trkpt lat="53.438370" lon="05.639919"><ele>10.2</ele><time>2021-02-17T10:21:21Z</time><name>PT24</name></trkpt>
<trkpt lat="53.438373" lon="05.639922"><ele>10.2</ele><time>2021-02-17T10:21:22Z</time><name>PT25</name></trkpt>
<trkpt lat="53.438372" lon="05.639922"><ele>10.2</ele><time>2021-02-17T10:21:24Z</time><name>PT26</name></trkpt>
<trkpt lat="53.438372" lon="05.639915"><ele>10.2</ele><time>2021-02-17T10:21:24Z</time><name>PT27</name></trkpt>
<trkpt lat="53.438371" lon="05.639906"><ele>10.2</ele><time>2021-02-17T10:21:25Z</time><name>PT28</name></trkpt>
<trkpt lat="53.438371" lon="05.639895"><ele>10.2</ele><time>2021-02-17T10:21:27Z</time><name>PT29</name></trkpt>
<trkpt lat="53.438372" lon="05.639888"><ele>10.2</ele><time>2021-02-17T10:21:27Z</time><name>PT30</name></trkpt>
<trkpt lat="53.438374" lon="05.639878"><ele>10.3</ele><time>2021-02-17T10:21:28Z</time><name>PT31</name></trkpt>
<trkpt lat="53.438376" lon="05.639867"><ele>10.3</ele><time>2021-02-17T10:21:30Z</time><name>PT32</name></trkpt>
<trkpt lat="53.438380" lon="05.639852"><ele>10.3</ele><time>2021-02-17T10:21:30Z</time><name>PT33</name></trkpt>
<trkpt lat="53.438383" lon="05.639834"><ele>10.4</ele><time>2021-02-17T10:21:31Z</time><name>PT34</name></trkpt>
<trkpt lat="53.438384" lon="05.639816"><ele>10.4</ele><time>2021-02-17T10:21:33Z</time><name>PT35</name></trkpt>
<trkpt lat="53.438386" lon="05.639799"><ele>10.5</ele><time>2021-02-17T10:21:33Z</time><name>PT36</name></trkpt>
<trkpt lat="53.438388" lon="05.639783"><ele>10.7</ele><time>2021-02-17T10:21:34Z</time><name>PT37</name></trkpt>
<trkpt lat="53.438394" lon="05.639768"><ele>10.8</ele><time>2021-02-17T10:21:36Z</time><name>PT38</name></trkpt>
<trkpt lat="53.438402" lon="05.639756"><ele>10.8</ele><time>2021-02-17T10:21:36Z</time><name>PT39</name></trkpt>
<trkpt lat="53.438407" lon="05.639744"><ele>10.9</ele><time>2021-02-17T10:21:37Z</time><name>PT40</name></trkpt>
<trkpt lat="53.438415" lon="05.639733"><ele>10.8</ele><time>2021-02-17T10:21:39Z</time><name>PT41</name></trkpt>
<trkpt lat="53.438422" lon="05.639721"><ele>10.8</ele><time>2021-02-17T10:21:39Z</time><name>PT42</name></trkpt>
<trkpt lat="53.438431" lon="05.639709"><ele>10.8</ele><time>2021-02-17T10:21:40Z</time><name>PT43</name></trkpt>
<trkpt lat="53.438441" lon="05.639696"><ele>10.9</ele><time>2021-02-17T10:21:42Z</time><name>PT44</name></trkpt>
<trkpt lat="53.438450" lon="05.639682"><ele>10.9</ele><time>2021-02-17T10:21:42Z</time><name>PT45</name></trkpt>
<trkpt lat="53.438457" lon="05.639669"><ele>11</ele><time>2021-02-17T10:21:43Z</time><name>PT46</name></trkpt>
<trkpt lat="53.438463" lon="05.639656"><ele>10.7</ele><time>2021-02-17T10:21:45Z</time><name>PT47</name></trkpt>
<trkpt lat="53.438469" lon="05.639645"><ele>10.2</ele><time>2021-02-17T10:21:45Z</time><name>PT48</name></trkpt>
<trkpt lat="53.438474" lon="05.639635"><ele>10.6</ele><time>2021-02-17T10:21:46Z</time><name>PT49</name></trkpt>
<trkpt lat="53.438482" lon="05.639623"><ele>10.6</ele><time>2021-02-17T10:21:48Z</time><name>PT50</name></trkpt>
<trkpt lat="53.438490" lon="05.639612"><ele>10.2</ele><time>2021-02-17T10:21:48Z</time><name>PT51</name></trkpt>
<trkpt lat="53.438498" lon="05.639599"><ele>11.5</ele><time>2021-02-17T10:21:49Z</time><name>PT52</name></trkpt>
<trkpt lat="53.438506" lon="05.639588"><ele>10.8</ele><time>2021-02-17T10:21:51Z</time><name>PT53</name></trkpt>
<trkpt lat="53.438514" lon="05.639577"><ele>10.9</ele><time>2021-02-17T10:21:51Z</time><name>PT54</name></trkpt>
<trkpt lat="53.438524" lon="05.639566"><ele>11.4</ele><time>2021-02-17T10:21:52Z</time><name>PT55</name></trkpt>
<trkpt lat="53.438532" lon="05.639555"><ele>11.6</ele><time>2021-02-17T10:21:54Z</time><name>PT56</name></trkpt>
<trkpt lat="53.438541" lon="05.639544"><ele>11.7</ele><time>2021-02-17T10:21:54Z</time><name>PT57</name></trkpt>
<trkpt lat="53.438547" lon="05.639535"><ele>11.9</ele><time>2021-02-17T10:21:55Z</time><name>PT58</name></trkpt>
<trkpt lat="53.438556" lon="05.639526"><ele>11.8</ele><time>2021-02-17T10:21:57Z</time><name>PT59</name></trkpt>
<trkpt lat="53.438564" lon="05.639517"><ele>11.5</ele><time>2021-02-17T10:21:57Z</time><name>PT60</name></trkpt>
<trkpt lat="53.438572" lon="05.639509"><ele>11.2</ele><time>2021-02-17T10:21:58Z</time><name>PT61</name></trkpt>
<trkpt lat="53.438578" lon="05.639499"><ele>11</ele><time>2021-02-17T10:22:00Z</time><name>PT62</name></trkpt>
<trkpt lat="53.438585" lon="05.639487"><ele>10.8</ele><time>2021-02-17T10:22:00Z</time><name>PT63</name></trkpt>
<trkpt lat="53.438592" lon="05.639476"><ele>10.9</ele><time>2021-02-17T10:22:01Z</time><name>PT64</name></trkpt>
<trkpt lat="53.438592" lon="05.639466"><ele>11</ele><time>2021-02-17T10:22:03Z</time><name>PT65</name></trkpt>
<trkpt lat="53.438598" lon="05.639450"><ele>10.8</ele><time>2021-02-17T10:22:03Z</time><name>PT66</name></trkpt>
<trkpt lat="53.438604" lon="05.639438"><ele>10.7</ele><time>2021-02-17T10:22:04Z</time><name>PT67</name></trkpt>
<trkpt lat="53.438611" lon="05.639423"><ele>10.8</ele><time>2021-02-17T10:22:06Z</time><name>PT68</name></trkpt>
<trkpt lat="53.438617" lon="05.639410"><ele>10.7</ele><time>2021-02-17T10:22:06Z</time><name>PT69</name></trkpt>
<trkpt lat="53.438629" lon="05.639394"><ele>10.6</ele><time>2021-02-17T10:22:07Z</time><name>PT70</name></trkpt>
<trkpt lat="53.438635" lon="05.639384"><ele>10.6</ele><time>2021-02-17T10:22:09Z</time><name>PT71</name></trkpt>
<trkpt lat="53.438643" lon="05.639375"><ele>10.4</ele><time>2021-02-17T10:22:09Z</time><name>PT72</name></trkpt>
<trkpt lat="53.438646" lon="05.639377"><ele>10.3</ele><time>2021-02-17T10:22:10Z</time><name>PT73</name></trkpt>
<trkpt lat="53.438647" lon="05.639376"><ele>10.5</ele><time>2021-02-17T10:22:12Z</time><name>PT74</name></trkpt>
<trkpt lat="53.438648" lon="05.639374"><ele>10.7</ele><time>2021-02-17T10:22:12Z</time><name>PT75</name></trkpt>
<trkpt lat="53.438647" lon="05.639374"><ele>10.7</ele><time>2021-02-17T10:22:13Z</time><name>PT76</name></trkpt>
<trkpt lat="53.438651" lon="05.639362"><ele>11.1</ele><time>2021-02-17T10:22:19Z</time><name>PT77</name></trkpt>
<trkpt lat="53.438658" lon="05.639343"><ele>10.9</ele><time>2021-02-17T10:22:21Z</time><name>PT78</name></trkpt>
<trkpt lat="53.438664" lon="05.639329"><ele>10.9</ele><time>2021-02-17T10:22:21Z</time><name>PT79</name></trkpt>
<trkpt lat="53.438671" lon="05.639314"><ele>10.8</ele><time>2021-02-17T10:22:22Z</time><name>PT80</name></trkpt>
<trkpt lat="53.438678" lon="05.639297"><ele>10.8</ele><time>2021-02-17T10:22:24Z</time><name>PT81</name></trkpt>
<trkpt lat="53.438681" lon="05.639281"><ele>10.8</ele><time>2021-02-17T10:22:24Z</time><name>PT82</name></trkpt>
<trkpt lat="53.438689" lon="05.639254"><ele>10.7</ele><time>2021-02-17T10:22:25Z</time><name>PT83</name></trkpt>
<trkpt lat="53.438696" lon="05.639237"><ele>10.7</ele><time>2021-02-17T10:22:27Z</time><name>PT84</name></trkpt>
<trkpt lat="53.438704" lon="05.639220"><ele>10.7</ele><time>2021-02-17T10:22:27Z</time><name>PT85</name></trkpt>
<trkpt lat="53.438712" lon="05.639205"><ele>10.5</ele><time>2021-02-17T10:22:28Z</time><name>PT86</name></trkpt>
<trkpt lat="53.438717" lon="05.639189"><ele>10.5</ele><time>2021-02-17T10:22:30Z</time><name>PT87</name></trkpt>
<trkpt lat="53.438721" lon="05.639170"><ele>10.4</ele><time>2021-02-17T10:22:30Z</time><name>PT88</name></trkpt>
<trkpt lat="53.438728" lon="05.639156"><ele>10.2</ele><time>2021-02-17T10:22:31Z</time><name>PT89</name></trkpt>
<trkpt lat="53.438729" lon="05.639136"><ele>10.3</ele><time>2021-02-17T10:22:33Z</time><name>PT90</name></trkpt>
<trkpt lat="53.438732" lon="05.639116"><ele>10.3</ele><time>2021-02-17T10:22:33Z</time><name>PT91</name></trkpt>
<trkpt lat="53.438736" lon="05.639097"><ele>10.3</ele><time>2021-02-17T10:22:34Z</time><name>PT92</name></trkpt>
<trkpt lat="53.438740" lon="05.639076"><ele>10.6</ele><time>2021-02-17T10:22:36Z</time><name>PT93</name></trkpt>
<trkpt lat="53.438745" lon="05.639059"><ele>10.7</ele><time>2021-02-17T10:22:36Z</time><name>PT94</name></trkpt>
<trkpt lat="53.438749" lon="05.639041"><ele>10.6</ele><time>2021-02-17T10:22:37Z</time><name>PT95</name></trkpt>
<trkpt lat="53.438753" lon="05.639022"><ele>10.7</ele><time>2021-02-17T10:22:39Z</time><name>PT96</name></trkpt>
<trkpt lat="53.438757" lon="05.638999"><ele>10.7</ele><time>2021-02-17T10:22:39Z</time><name>PT97</name></trkpt>
<trkpt lat="53.438761" lon="05.638981"><ele>10.7</ele><time>2021-02-17T10:22:40Z</time><name>PT98</name></trkpt>
<trkpt lat="53.438763" lon="05.638966"><ele>11</ele><time>2021-02-17T10:22:42Z</time><name>PT99</name></trkpt>
<trkpt lat="53.438766" lon="05.638952"><ele>10.9</ele><time>2021-02-17T10:22:42Z</time><name>PT100</name></trkpt>
<trkpt lat="53.438768" lon="05.638935"><ele>10.7</ele><time>2021-02-17T10:22:43Z</time><name>PT101</name></trkpt>
<trkpt lat="53.438773" lon="05.638920"><ele>10.7</ele><time>2021-02-17T10:22:45Z</time><name>PT102</name></trkpt>
<trkpt lat="53.438778" lon="05.638905"><ele>10.6</ele><time>2021-02-17T10:22:45Z</time><name>PT103</name></trkpt>
<trkpt lat="53.438782" lon="05.638891"><ele>10.4</ele><time>2021-02-17T10:22:46Z</time><name>PT104</name></trkpt>
<trkpt lat="53.438789" lon="05.638878"><ele>10.4</ele><time>2021-02-17T10:22:48Z</time><name>PT105</name></trkpt>
<trkpt lat="53.438793" lon="05.638862"><ele>10.4</ele><time>2021-02-17T10:22:48Z</time><name>PT106</name></trkpt>
<trkpt lat="53.438798" lon="05.638845"><ele>10.4</ele><time>2021-02-17T10:22:49Z</time><name>PT107</name></trkpt>
<trkpt lat="53.438803" lon="05.638831"><ele>10.4</ele><time>2021-02-17T10:22:51Z</time><name>PT108</name></trkpt>
<trkpt lat="53.438808" lon="05.638818"><ele>10.4</ele><time>2021-02-17T10:22:51Z</time><name>PT109</name></trkpt>
<trkpt lat="53.438811" lon="05.638801"><ele>10.3</ele><time>2021-02-17T10:22:52Z</time><name>PT110</name></trkpt>
<trkpt lat="53.438814" lon="05.638783"><ele>10.3</ele><time>2021-02-17T10:22:54Z</time><name>PT111</name></trkpt>
<trkpt lat="53.438819" lon="05.638766"><ele>10.2</ele><time>2021-02-17T10:22:54Z</time><name>PT112</name></trkpt>
<trkpt lat="53.438824" lon="05.638752"><ele>10.1</ele><time>2021-02-17T10:22:55Z</time><name>PT113</name></trkpt>
<trkpt lat="53.438829" lon="05.638739"><ele>10.2</ele><time>2021-02-17T10:22:57Z</time><name>PT114</name></trkpt>
<trkpt lat="53.438834" lon="05.638723"><ele>10.3</ele><time>2021-02-17T10:22:57Z</time><name>PT115</name></trkpt>
<trkpt lat="53.438838" lon="05.638709"><ele>10.3</ele><time>2021-02-17T10:22:58Z</time><name>PT116</name></trkpt>
<trkpt lat="53.438840" lon="05.638691"><ele>10.4</ele><time>2021-02-17T10:23:00Z</time><name>PT117</name></trkpt>
<trkpt lat="53.438846" lon="05.638674"><ele>10.3</ele><time>2021-02-17T10:23:00Z</time><name>PT118</name></trkpt>
<trkpt lat="53.438851" lon="05.638656"><ele>10.3</ele><time>2021-02-17T10:23:01Z</time><name>PT119</name></trkpt>
<trkpt lat="53.438853" lon="05.638639"><ele>10.3</ele><time>2021-02-17T10:23:03Z</time><name>PT120</name></trkpt>
<trkpt lat="53.438857" lon="05.638626"><ele>10.4</ele><time>2021-02-17T10:23:03Z</time><name>PT121</name></trkpt>
<trkpt lat="53.438861" lon="05.638611"><ele>10.3</ele><time>2021-02-17T10:23:04Z</time><name>PT122</name></trkpt>
<trkpt lat="53.438863" lon="05.638598"><ele>10.2</ele><time>2021-02-17T10:23:06Z</time><name>PT123</name></trkpt>
<trkpt lat="53.438866" lon="05.638583"><ele>10.2</ele><time>2021-02-17T10:23:06Z</time><name>PT124</name></trkpt>
<trkpt lat="53.438869" lon="05.638571"><ele>10</ele><time>2021-02-17T10:23:07Z</time><name>PT125</name></trkpt>
<trkpt lat="53.438873" lon="05.638560"><ele>10</ele><time>2021-02-17T10:23:09Z</time><name>PT126</name></trkpt>
<trkpt lat="53.438879" lon="05.638541"><ele>9.9</ele><time>2021-02-17T10:23:09Z</time><name>PT127</name></trkpt>
<trkpt lat="53.438884" lon="05.638526"><ele>10</ele><time>2021-02-17T10:23:10Z</time><name>PT128</name></trkpt>
<trkpt lat="53.438887" lon="05.638511"><ele>10.2</ele><time>2021-02-17T10:23:12Z</time><name>PT129</name></trkpt>
<trkpt lat="53.438887" lon="05.638495"><ele>10.1</ele><time>2021-02-17T10:23:12Z</time><name>PT130</name></trkpt>
<trkpt lat="53.438890" lon="05.638481"><ele>10.1</ele><time>2021-02-17T10:23:13Z</time><name>PT131</name></trkpt>
<trkpt lat="53.438895" lon="05.638466"><ele>10</ele><time>2021-02-17T10:23:15Z</time><name>PT132</name></trkpt>
<trkpt lat="53.438901" lon="05.638451"><ele>10</ele><time>2021-02-17T10:23:15Z</time><name>PT133</name></trkpt>
<trkpt lat="53.438906" lon="05.638437"><ele>10</ele><time>2021-02-17T10:23:16Z</time><name>PT134</name></trkpt>
<trkpt lat="53.438918" lon="05.638423"><ele>10.2</ele><time>2021-02-17T10:23:18Z</time><name>PT135</name></trkpt>
<trkpt lat="53.438924" lon="05.638410"><ele>10.1</ele><time>2021-02-17T10:23:18Z</time><name>PT136</name></trkpt>
<trkpt lat="53.438931" lon="05.638394"><ele>9.9</ele><time>2021-02-17T10:23:19Z</time><name>PT137</name></trkpt>
<trkpt lat="53.438936" lon="05.638377"><ele>10</ele><time>2021-02-17T10:23:21Z</time><name>PT138</name></trkpt>
<trkpt lat="53.438943" lon="05.638361"><ele>10</ele><time>2021-02-17T10:23:21Z</time><name>PT139</name></trkpt>
<trkpt lat="53.438946" lon="05.638347"><ele>9.9</ele><time>2021-02-17T10:23:22Z</time><name>PT140</name></trkpt>
<trkpt lat="53.438951" lon="05.638329"><ele>10.1</ele><time>2021-02-17T10:23:24Z</time><name>PT141</name></trkpt>
<trkpt lat="53.438956" lon="05.638315"><ele>10.2</ele><time>2021-02-17T10:23:24Z</time><name>PT142</name></trkpt>
<trkpt lat="53.438959" lon="05.638292"><ele>10.2</ele><time>2021-02-17T10:23:25Z</time><name>PT143</name></trkpt>
<trkpt lat="53.438961" lon="05.638272"><ele>10.4</ele><time>2021-02-17T10:23:27Z</time><name>PT144</name></trkpt>
<trkpt lat="53.438966" lon="05.638254"><ele>10.6</ele><time>2021-02-17T10:23:27Z</time><name>PT145</name></trkpt>
<trkpt lat="53.438972" lon="05.638235"><ele>10.8</ele><time>2021-02-17T10:23:28Z</time><name>PT146</name></trkpt>
<trkpt lat="53.438978" lon="05.638210"><ele>10.9</ele><time>2021-02-17T10:23:30Z</time><name>PT147</name></trkpt>
<trkpt lat="53.438984" lon="05.638179"><ele>11.1</ele><time>2021-02-17T10:23:30Z</time><name>PT148</name></trkpt>
<trkpt lat="53.438987" lon="05.638154"><ele>11</ele><time>2021-02-17T10:23:31Z</time><name>PT149</name></trkpt>
<trkpt lat="53.438991" lon="05.638134"><ele>11</ele><time>2021-02-17T10:23:33Z</time><name>PT150</name></trkpt>
<trkpt lat="53.438997" lon="05.638113"><ele>11.1</ele><time>2021-02-17T10:23:33Z</time><name>PT151</name></trkpt>
<trkpt lat="53.439003" lon="05.638092"><ele>11</ele><time>2021-02-17T10:23:34Z</time><name>PT152</name></trkpt>
<trkpt lat="53.439007" lon="05.638069"><ele>10.9</ele><time>2021-02-17T10:23:36Z</time><name>PT153</name></trkpt>
<trkpt lat="53.439012" lon="05.638050"><ele>10.8</ele><time>2021-02-17T10:23:36Z</time><name>PT154</name></trkpt>
<trkpt lat="53.439018" lon="05.638034"><ele>10.5</ele><time>2021-02-17T10:23:37Z</time><name>PT155</name></trkpt>
<trkpt lat="53.439021" lon="05.638011"><ele>10.4</ele><time>2021-02-17T10:23:39Z</time><name>PT156</name></trkpt>
<trkpt lat="53.439026" lon="05.637991"><ele>10.4</ele><time>2021-02-17T10:23:39Z</time><name>PT157</name></trkpt>
<trkpt lat="53.439033" lon="05.637974"><ele>10.2</ele><time>2021-02-17T10:23:40Z</time><name>PT158</name></trkpt>
<trkpt lat="53.439039" lon="05.637955"><ele>10.2</ele><time>2021-02-17T10:23:42Z</time><name>PT159</name></trkpt>
<trkpt lat="53.439042" lon="05.637933"><ele>10.2</ele><time>2021-02-17T10:23:42Z</time><name>PT160</name></trkpt>
<trkpt lat="53.439047" lon="05.637912"><ele>10.2</ele><time>2021-02-17T10:23:43Z</time><name>PT161</name></trkpt>
<trkpt lat="53.439051" lon="05.637891"><ele>10.2</ele><time>2021-02-17T10:23:45Z</time><name>PT162</name></trkpt>
<trkpt lat="53.439053" lon="05.637870"><ele>10.2</ele><time>2021-02-17T10:23:45Z</time><name>PT163</name></trkpt>
<trkpt lat="53.439055" lon="05.637849"><ele>10.2</ele><time>2021-02-17T10:23:46Z</time><name>PT164</name></trkpt>
<trkpt lat="53.439059" lon="05.637828"><ele>10.3</ele><time>2021-02-17T10:23:48Z</time><name>PT165</name></trkpt>
<trkpt lat="53.439063" lon="05.637809"><ele>10.3</ele><time>2021-02-17T10:23:48Z</time><name>PT166</name></trkpt>
<trkpt lat="53.439068" lon="05.637789"><ele>10.2</ele><time>2021-02-17T10:23:49Z</time><name>PT167</name></trkpt>
<trkpt lat="53.439071" lon="05.637771"><ele>10.2</ele><time>2021-02-17T10:23:51Z</time><name>PT168</name></trkpt>
<trkpt lat="53.439074" lon="05.637748"><ele>10.2</ele><time>2021-02-17T10:23:51Z</time><name>PT169</name></trkpt>
<trkpt lat="53.439079" lon="05.637727"><ele>10.4</ele><time>2021-02-17T10:23:52Z</time><name>PT170</name></trkpt>
<trkpt lat="53.439082" lon="05.637710"><ele>10.7</ele><time>2021-02-17T10:23:54Z</time><name>PT171</name></trkpt>
<trkpt lat="53.439086" lon="05.637694"><ele>10.8</ele><time>2021-02-17T10:23:54Z</time><name>PT172</name></trkpt>
<trkpt lat="53.439089" lon="05.637675"><ele>10.8</ele><time>2021-02-17T10:23:55Z</time><name>PT173</name></trkpt>
<trkpt lat="53.439093" lon="05.637655"><ele>10.7</ele><time>2021-02-17T10:23:57Z</time><name>PT174</name></trkpt>
<trkpt lat="53.439096" lon="05.637637"><ele>10.7</ele><time>2021-02-17T10:23:57Z</time><name>PT175</name></trkpt>
<trkpt lat="53.439102" lon="05.637618"><ele>10.5</ele><time>2021-02-17T10:23:58Z</time><name>PT176</name></trkpt>
<trkpt lat="53.439106" lon="05.637600"><ele>10.5</ele><time>2021-02-17T10:24:00Z</time><name>PT177</name></trkpt>
<trkpt lat="53.439109" lon="05.637582"><ele>10.6</ele><time>2021-02-17T10:24:00Z</time><name>PT178</name></trkpt>
<trkpt lat="53.439111" lon="05.637566"><ele>10.4</ele><time>2021-02-17T10:24:01Z</time><name>PT179</name></trkpt>
<trkpt lat="53.439116" lon="05.637550"><ele>10.4</ele><time>2021-02-17T10:24:03Z</time><name>PT180</name></trkpt>
<trkpt lat="53.439119" lon="05.637528"><ele>10.4</ele><time>2021-02-17T10:24:03Z</time><name>PT181</name></trkpt>
<trkpt lat="53.439123" lon="05.637507"><ele>10.3</ele><time>2021-02-17T10:24:04Z</time><name>PT182</name></trkpt>
<trkpt lat="53.439128" lon="05.637485"><ele>10.2</ele><time>2021-02-17T10:24:06Z</time><name>PT183</name></trkpt>
<trkpt lat="53.439134" lon="05.637465"><ele>10.3</ele><time>2021-02-17T10:24:06Z</time><name>PT184</name></trkpt>
<trkpt lat="53.439138" lon="05.637445"><ele>10.2</ele><time>2021-02-17T10:24:07Z</time><name>PT185</name></trkpt>
<trkpt lat="53.439140" lon="05.637423"><ele>10.2</ele><time>2021-02-17T10:24:09Z</time><name>PT186</name></trkpt>
<trkpt lat="53.439141" lon="05.637400"><ele>10.3</ele><time>2021-02-17T10:24:09Z</time><name>PT187</name></trkpt>
<trkpt lat="53.439145" lon="05.637378"><ele>10.4</ele><time>2021-02-17T10:24:10Z</time><name>PT188</name></trkpt>
<trkpt lat="53.439149" lon="05.637357"><ele>10.6</ele><time>2021-02-17T10:24:12Z</time><name>PT189</name></trkpt>
<trkpt lat="53.439151" lon="05.637331"><ele>10.6</ele><time>2021-02-17T10:24:12Z</time><name>PT190</name></trkpt>
<trkpt lat="53.439156" lon="05.637307"><ele>10.7</ele><time>2021-02-17T10:24:13Z</time><name>PT191</name></trkpt>
<trkpt lat="53.439161" lon="05.637278"><ele>10.7</ele><time>2021-02-17T10:24:15Z</time><name>PT192</name></trkpt>
<trkpt lat="53.439163" lon="05.637257"><ele>10.5</ele><time>2021-02-17T10:24:15Z</time><name>PT193</name></trkpt>
<trkpt lat="53.439166" lon="05.637236"><ele>10.4</ele><time>2021-02-17T10:24:16Z</time><name>PT194</name></trkpt>
<trkpt lat="53.439169" lon="05.637213"><ele>10.5</ele><time>2021-02-17T10:24:18Z</time><name>PT195</name></trkpt>
<trkpt lat="53.439172" lon="05.637197"><ele>10.6</ele><time>2021-02-17T10:24:18Z</time><name>PT196</name></trkpt>
<trkpt lat="53.439174" lon="05.637174"><ele>10.5</ele><time>2021-02-17T10:24:19Z</time><name>PT197</name></trkpt>
<trkpt lat="53.439177" lon="05.637154"><ele>10.7</ele><time>2021-02-17T10:24:21Z</time><name>PT198</name></trkpt>
<trkpt lat="53.439180" lon="05.637133"><ele>10.7</ele><time>2021-02-17T10:24:21Z</time><name>PT199</name></trkpt>
<trkpt lat="53.439182" lon="05.637115"><ele>10.7</ele><time>2021-02-17T10:24:22Z</time><name>PT200</name></trkpt>
<trkpt lat="53.439185" lon="05.637096"><ele>10.6</ele><time>2021-02-17T10:24:24Z</time><name>PT201</name></trkpt>
<trkpt lat="53.439187" lon="05.637073"><ele>10.4</ele><time>2021-02-17T10:24:24Z</time><name>PT202</name></trkpt>
<trkpt lat="53.439189" lon="05.637048"><ele>10</ele><time>2021-02-17T10:24:25Z</time><name>PT203</name></trkpt>
<trkpt lat="53.439191" lon="05.637025"><ele>9.9</ele><time>2021-02-17T10:24:27Z</time><name>PT204</name></trkpt>
<trkpt lat="53.439194" lon="05.637002"><ele>9.9</ele><time>2021-02-17T10:24:27Z</time><name>PT205</name></trkpt>
<trkpt lat="53.439198" lon="05.636981"><ele>10</ele><time>2021-02-17T10:24:28Z</time><name>PT206</name></trkpt>
<trkpt lat="53.439199" lon="05.636960"><ele>10.3</ele><time>2021-02-17T10:24:30Z</time><name>PT207</name></trkpt>
<trkpt lat="53.439201" lon="05.636938"><ele>10.5</ele><time>2021-02-17T10:24:30Z</time><name>PT208</name></trkpt>
<trkpt lat="53.439203" lon="05.636917"><ele>10.6</ele><time>2021-02-17T10:24:31Z</time><name>PT209</name></trkpt>
<trkpt lat="53.439206" lon="05.636896"><ele>10.5</ele><time>2021-02-17T10:24:33Z</time><name>PT210</name></trkpt>
<trkpt lat="53.439208" lon="05.636877"><ele>10.4</ele><time>2021-02-17T10:24:33Z</time><name>PT211</name></trkpt>
<trkpt lat="53.439212" lon="05.636857"><ele>10.3</ele><time>2021-02-17T10:24:34Z</time><name>PT212</name></trkpt>
<trkpt lat="53.439216" lon="05.636836"><ele>10.2</ele><time>2021-02-17T10:24:36Z</time><name>PT213</name></trkpt>
<trkpt lat="53.439219" lon="05.636818"><ele>10.2</ele><time>2021-02-17T10:24:36Z</time><name>PT214</name></trkpt>
<trkpt lat="53.439221" lon="05.636801"><ele>10.2</ele><time>2021-02-17T10:24:37Z</time><name>PT215</name></trkpt>
<trkpt lat="53.439224" lon="05.636782"><ele>10.2</ele><time>2021-02-17T10:24:39Z</time><name>PT216</name></trkpt>
<trkpt lat="53.439225" lon="05.636765"><ele>10.1</ele><time>2021-02-17T10:24:39Z</time><name>PT217</name></trkpt>
<trkpt lat="53.439227" lon="05.636743"><ele>10.1</ele><time>2021-02-17T10:24:40Z</time><name>PT218</name></trkpt>
<trkpt lat="53.439230" lon="05.636720"><ele>10</ele><time>2021-02-17T10:24:42Z</time><name>PT219</name></trkpt>
<trkpt lat="53.439233" lon="05.636698"><ele>10.1</ele><time>2021-02-17T10:24:42Z</time><name>PT220</name></trkpt>
<trkpt lat="53.439237" lon="05.636680"><ele>9.9</ele><time>2021-02-17T10:24:43Z</time><name>PT221</name></trkpt>
<trkpt lat="53.439238" lon="05.636660"><ele>9.9</ele><time>2021-02-17T10:24:45Z</time><name>PT222</name></trkpt>
<trkpt lat="53.439243" lon="05.636633"><ele>9.9</ele><time>2021-02-17T10:24:45Z</time><name>PT223</name></trkpt>
<trkpt lat="53.439247" lon="05.636613"><ele>9.9</ele><time>2021-02-17T10:24:46Z</time><name>PT224</name></trkpt>
<trkpt lat="53.439252" lon="05.636594"><ele>9.9</ele><time>2021-02-17T10:24:48Z</time><name>PT225</name></trkpt>
<trkpt lat="53.439257" lon="05.636570"><ele>10.1</ele><time>2021-02-17T10:24:48Z</time><name>PT226</name></trkpt>
<trkpt lat="53.439262" lon="05.636549"><ele>10.2</ele><time>2021-02-17T10:24:49Z</time><name>PT227</name></trkpt>
<trkpt lat="53.439262" lon="05.636528"><ele>10.2</ele><time>2021-02-17T10:24:51Z</time><name>PT228</name></trkpt>
<trkpt lat="53.439261" lon="05.636506"><ele>10.2</ele><time>2021-02-17T10:24:51Z</time><name>PT229</name></trkpt>
<trkpt lat="53.439260" lon="05.636483"><ele>10</ele><time>2021-02-17T10:24:52Z</time><name>PT230</name></trkpt>
<trkpt lat="53.439260" lon="05.636461"><ele>9.7</ele><time>2021-02-17T10:24:54Z</time><name>PT231</name></trkpt>
<trkpt lat="53.439260" lon="05.636436"><ele>9.7</ele><time>2021-02-17T10:24:54Z</time><name>PT232</name></trkpt>
<trkpt lat="53.439265" lon="05.636417"><ele>9.6</ele><time>2021-02-17T10:24:55Z</time><name>PT233</name></trkpt>
<trkpt lat="53.439267" lon="05.636398"><ele>9.4</ele><time>2021-02-17T10:24:57Z</time><name>PT234</name></trkpt>
<trkpt lat="53.439269" lon="05.636377"><ele>9.3</ele><time>2021-02-17T10:24:57Z</time><name>PT235</name></trkpt>
<trkpt lat="53.439270" lon="05.636356"><ele>9.3</ele><time>2021-02-17T10:24:58Z</time><name>PT236</name></trkpt>
<trkpt lat="53.439270" lon="05.636336"><ele>9.3</ele><time>2021-02-17T10:25:00Z</time><name>PT237</name></trkpt>
<trkpt lat="53.439269" lon="05.636322"><ele>9.1</ele><time>2021-02-17T10:25:00Z</time><name>PT238</name></trkpt>
<trkpt lat="53.439271" lon="05.636303"><ele>9.2</ele><time>2021-02-17T10:25:01Z</time><name>PT239</name></trkpt>
<trkpt lat="53.439275" lon="05.636291"><ele>9</ele><time>2021-02-17T10:25:03Z</time><name>PT240</name></trkpt>
<trkpt lat="53.439279" lon="05.636279"><ele>9.2</ele><time>2021-02-17T10:25:03Z</time><name>PT241</name></trkpt>
<trkpt lat="53.439280" lon="05.636266"><ele>9.2</ele><time>2021-02-17T10:25:04Z</time><name>PT242</name></trkpt>
<trkpt lat="53.439280" lon="05.636250"><ele>9.2</ele><time>2021-02-17T10:25:06Z</time><name>PT243</name></trkpt>
<trkpt lat="53.439283" lon="05.636235"><ele>9.2</ele><time>2021-02-17T10:25:06Z</time><name>PT244</name></trkpt>
<trkpt lat="53.439284" lon="05.636216"><ele>9.2</ele><time>2021-02-17T10:25:07Z</time><name>PT245</name></trkpt>
<trkpt lat="53.439288" lon="05.636196"><ele>9.2</ele><time>2021-02-17T10:25:09Z</time><name>PT246</name></trkpt>
<trkpt lat="53.439289" lon="05.636183"><ele>9.2</ele><time>2021-02-17T10:25:09Z</time><name>PT247</name></trkpt>
<trkpt lat="53.439290" lon="05.636162"><ele>9.3</ele><time>2021-02-17T10:25:10Z</time><name>PT248</name></trkpt>
<trkpt lat="53.439292" lon="05.636141"><ele>9.3</ele><time>2021-02-17T10:25:12Z</time><name>PT249</name></trkpt>
<trkpt lat="53.439291" lon="05.636124"><ele>9.3</ele><time>2021-02-17T10:25:12Z</time><name>PT250</name></trkpt>
<trkpt lat="53.439291" lon="05.636109"><ele>9.3</ele><time>2021-02-17T10:25:13Z</time><name>PT251</name></trkpt>
<trkpt lat="53.439292" lon="05.636092"><ele>9.4</ele><time>2021-02-17T10:25:15Z</time><name>PT252</name></trkpt>
<trkpt lat="53.439295" lon="05.636075"><ele>9.3</ele><time>2021-02-17T10:25:15Z</time><name>PT253</name></trkpt>
<trkpt lat="53.439295" lon="05.636053"><ele>9.3</ele><time>2021-02-17T10:25:16Z</time><name>PT254</name></trkpt>
<trkpt lat="53.439297" lon="05.636036"><ele>9.3</ele><time>2021-02-17T10:25:18Z</time><name>PT255</name></trkpt>
<trkpt lat="53.439301" lon="05.636018"><ele>9.4</ele><time>2021-02-17T10:25:18Z</time><name>PT256</name></trkpt>
<trkpt lat="53.439302" lon="05.636001"><ele>9.5</ele><time>2021-02-17T10:25:19Z</time><name>PT257</name></trkpt>
<trkpt lat="53.439303" lon="05.635980"><ele>9.6</ele><time>2021-02-17T10:25:21Z</time><name>PT258</name></trkpt>
<trkpt lat="53.439307" lon="05.635956"><ele>9.5</ele><time>2021-02-17T10:25:21Z</time><name>PT259</name></trkpt>
<trkpt lat="53.439310" lon="05.635930"><ele>9.7</ele><time>2021-02-17T10:25:22Z</time><name>PT260</name></trkpt>
<trkpt lat="53.439311" lon="05.635908"><ele>9.4</ele><time>2021-02-17T10:25:24Z</time><name>PT261</name></trkpt>
<trkpt lat="53.439312" lon="05.635885"><ele>9.4</ele><time>2021-02-17T10:25:24Z</time><name>PT262</name></trkpt>
<trkpt lat="53.439314" lon="05.635865"><ele>9.4</ele><time>2021-02-17T10:25:25Z</time><name>PT263</name></trkpt>
<trkpt lat="53.439315" lon="05.635845"><ele>9.1</ele><time>2021-02-17T10:25:27Z</time><name>PT264</name></trkpt>
<trkpt lat="53.439317" lon="05.635826"><ele>9.2</ele><time>2021-02-17T10:25:27Z</time><name>PT265</name></trkpt>
<trkpt lat="53.439317" lon="05.635806"><ele>8.9</ele><time>2021-02-17T10:25:28Z</time><name>PT266</name></trkpt>
<trkpt lat="53.439319" lon="05.635788"><ele>9</ele><time>2021-02-17T10:25:30Z</time><name>PT267</name></trkpt>
<trkpt lat="53.439321" lon="05.635768"><ele>9</ele><time>2021-02-17T10:25:30Z</time><name>PT268</name></trkpt>
<trkpt lat="53.439324" lon="05.635749"><ele>9.1</ele><time>2021-02-17T10:25:31Z</time><name>PT269</name></trkpt>
<trkpt lat="53.439329" lon="05.635731"><ele>9.3</ele><time>2021-02-17T10:25:33Z</time><name>PT270</name></trkpt>
<trkpt lat="53.439331" lon="05.635710"><ele>9.3</ele><time>2021-02-17T10:25:33Z</time><name>PT271</name></trkpt>
<trkpt lat="53.439333" lon="05.635691"><ele>9.3</ele><time>2021-02-17T10:25:34Z</time><name>PT272</name></trkpt>
<trkpt lat="53.439335" lon="05.635671"><ele>9.3</ele><time>2021-02-17T10:25:36Z</time><name>PT273</name></trkpt>
<trkpt lat="53.439338" lon="05.635645"><ele>9.3</ele><time>2021-02-17T10:25:36Z</time><name>PT274</name></trkpt>
<trkpt lat="53.439339" lon="05.635624"><ele>9.2</ele><time>2021-02-17T10:25:37Z</time><name>PT275</name></trkpt>
<trkpt lat="53.439340" lon="05.635598"><ele>9.2</ele><time>2021-02-17T10:25:39Z</time><name>PT276</name></trkpt>
<trkpt lat="53.439342" lon="05.635576"><ele>9.3</ele><time>2021-02-17T10:25:39Z</time><name>PT277</name></trkpt>
<trkpt lat="53.439344" lon="05.635554"><ele>9.3</ele><time>2021-02-17T10:25:40Z</time><name>PT278</name></trkpt>
<trkpt lat="53.439346" lon="05.635532"><ele>9.3</ele><time>2021-02-17T10:25:42Z</time><name>PT279</name></trkpt>
<trkpt lat="53.439348" lon="05.635507"><ele>9.3</ele><time>2021-02-17T10:25:42Z</time><name>PT280</name></trkpt>
<trkpt lat="53.439352" lon="05.635483"><ele>9.1</ele><time>2021-02-17T10:25:43Z</time><name>PT281</name></trkpt>
<trkpt lat="53.439356" lon="05.635459"><ele>9.1</ele><time>2021-02-17T10:25:45Z</time><name>PT282</name></trkpt>
<trkpt lat="53.439358" lon="05.635434"><ele>9.2</ele><time>2021-02-17T10:25:45Z</time><name>PT283</name></trkpt>
<trkpt lat="53.439361" lon="05.635409"><ele>9.1</ele><time>2021-02-17T10:25:46Z</time><name>PT284</name></trkpt>
<trkpt lat="53.439363" lon="05.635384"><ele>9.3</ele><time>2021-02-17T10:25:48Z</time><name>PT285</name></trkpt>
<trkpt lat="53.439367" lon="05.635360"><ele>9.3</ele><time>2021-02-17T10:25:48Z</time><name>PT286</name></trkpt>
<trkpt lat="53.439369" lon="05.635340"><ele>9.2</ele><time>2021-02-17T10:25:49Z</time><name>PT287</name></trkpt>
<trkpt lat="53.439370" lon="05.635319"><ele>9.1</ele><time>2021-02-17T10:25:51Z</time><name>PT288</name></trkpt>
<trkpt lat="53.439375" lon="05.635296"><ele>9</ele><time>2021-02-17T10:25:51Z</time><name>PT289</name></trkpt>
<trkpt lat="53.439376" lon="05.635276"><ele>9</ele><time>2021-02-17T10:25:52Z</time><name>PT290</name></trkpt>
<trkpt lat="53.439378" lon="05.635261"><ele>8.9</ele><time>2021-02-17T10:25:54Z</time><name>PT291</name></trkpt>
<trkpt lat="53.439379" lon="05.635239"><ele>8.9</ele><time>2021-02-17T10:25:54Z</time><name>PT292</name></trkpt>
<trkpt lat="53.439380" lon="05.635219"><ele>8.9</ele><time>2021-02-17T10:25:55Z</time><name>PT293</name></trkpt>
<trkpt lat="53.439382" lon="05.635200"><ele>8.9</ele><time>2021-02-17T10:25:57Z</time><name>PT294</name></trkpt>
<trkpt lat="53.439384" lon="05.635175"><ele>9</ele><time>2021-02-17T10:25:57Z</time><name>PT295</name></trkpt>
<trkpt lat="53.439387" lon="05.635156"><ele>9.1</ele><time>2021-02-17T10:25:58Z</time><name>PT296</name></trkpt>
<trkpt lat="53.439390" lon="05.635139"><ele>9.2</ele><time>2021-02-17T10:26:00Z</time><name>PT297</name></trkpt>
<trkpt lat="53.439392" lon="05.635117"><ele>9.1</ele><time>2021-02-17T10:26:00Z</time><name>PT298</name></trkpt>
<trkpt lat="53.439394" lon="05.635094"><ele>9.3</ele><time>2021-02-17T10:26:01Z</time><name>PT299</name></trkpt>
<trkpt lat="53.439399" lon="05.635071"><ele>9.2</ele><time>2021-02-17T10:26:03Z</time><name>PT300</name></trkpt>
<trkpt lat="53.439403" lon="05.635053"><ele>9.1</ele><time>2021-02-17T10:26:03Z</time><name>PT301</name></trkpt>
<trkpt lat="53.439406" lon="05.635031"><ele>9.2</ele><time>2021-02-17T10:26:04Z</time><name>PT302</name></trkpt>
<trkpt lat="53.439409" lon="05.635013"><ele>9.2</ele><time>2021-02-17T10:26:06Z</time><name>PT303</name></trkpt>
<trkpt lat="53.439412" lon="05.634996"><ele>9.2</ele><time>2021-02-17T10:26:06Z</time><name>PT304</name></trkpt>
<trkpt lat="53.439415" lon="05.634976"><ele>9.3</ele><time>2021-02-17T10:26:07Z</time><name>PT305</name></trkpt>
<trkpt lat="53.439420" lon="05.634950"><ele>9.2</ele><time>2021-02-17T10:26:09Z</time><name>PT306</name></trkpt>
<trkpt lat="53.439423" lon="05.634930"><ele>9.2</ele><time>2021-02-17T10:26:09Z</time><name>PT307</name></trkpt>
<trkpt lat="53.439425" lon="05.634914"><ele>9</ele><time>2021-02-17T10:26:10Z</time><name>PT308</name></trkpt>
<trkpt lat="53.439430" lon="05.634890"><ele>8.8</ele><time>2021-02-17T10:26:12Z</time><name>PT309</name></trkpt>
<trkpt lat="53.439435" lon="05.634870"><ele>8.6</ele><time>2021-02-17T10:26:12Z</time><name>PT310</name></trkpt>
<trkpt lat="53.439440" lon="05.634855"><ele>8.5</ele><time>2021-02-17T10:26:13Z</time><name>PT311</name></trkpt>
<trkpt lat="53.439446" lon="05.634840"><ele>8.5</ele><time>2021-02-17T10:26:15Z</time><name>PT312</name></trkpt>
<trkpt lat="53.439450" lon="05.634822"><ele>8.4</ele><time>2021-02-17T10:26:15Z</time><name>PT313</name></trkpt>
<trkpt lat="53.439454" lon="05.634800"><ele>8.6</ele><time>2021-02-17T10:26:16Z</time><name>PT314</name></trkpt>
<trkpt lat="53.439456" lon="05.634782"><ele>8.5</ele><time>2021-02-17T10:26:18Z</time><name>PT315</name></trkpt>
<trkpt lat="53.439461" lon="05.634765"><ele>8.5</ele><time>2021-02-17T10:26:18Z</time><name>PT316</name></trkpt>
<trkpt lat="53.439466" lon="05.634744"><ele>8.6</ele><time>2021-02-17T10:26:19Z</time><name>PT317</name></trkpt>
<trkpt lat="53.439464" lon="05.634738"><ele>8.8</ele><time>2021-02-17T10:26:21Z</time><name>PT318</name></trkpt>
<trkpt lat="53.439467" lon="05.634727"><ele>8.8</ele><time>2021-02-17T10:26:21Z</time><name>PT319</name></trkpt>
<trkpt lat="53.439472" lon="05.634711"><ele>8.8</ele><time>2021-02-17T10:26:22Z</time><name>PT320</name></trkpt>
<trkpt lat="53.439478" lon="05.634691"><ele>8.9</ele><time>2021-02-17T10:26:24Z</time><name>PT321</name></trkpt>
<trkpt lat="53.439483" lon="05.634680"><ele>8.7</ele><time>2021-02-17T10:26:24Z</time><name>PT322</name></trkpt>
<trkpt lat="53.439489" lon="05.634664"><ele>8.7</ele><time>2021-02-17T10:26:25Z</time><name>PT323</name></trkpt>
<trkpt lat="53.439493" lon="05.634647"><ele>8.8</ele><time>2021-02-17T10:26:27Z</time><name>PT324</name></trkpt>
<trkpt lat="53.439497" lon="05.634631"><ele>8.7</ele><time>2021-02-17T10:26:27Z</time><name>PT325</name></trkpt>
<trkpt lat="53.439502" lon="05.634617"><ele>8.6</ele><time>2021-02-17T10:26:28Z</time><name>PT326</name></trkpt>
<trkpt lat="53.439504" lon="05.634601"><ele>8.7</ele><time>2021-02-17T10:26:30Z</time><name>PT327</name></trkpt>
<trkpt lat="53.439508" lon="05.634585"><ele>8.5</ele><time>2021-02-17T10:26:30Z</time><name>PT328</name></trkpt>
<trkpt lat="53.439512" lon="05.634565"><ele>8.3</ele><time>2021-02-17T10:26:31Z</time><name>PT329</name></trkpt>
<trkpt lat="53.439517" lon="05.634545"><ele>8.5</ele><time>2021-02-17T10:26:33Z</time><name>PT330</name></trkpt>
<trkpt lat="53.439520" lon="05.634524"><ele>8.5</ele><time>2021-02-17T10:26:33Z</time><name>PT331</name></trkpt>
<trkpt lat="53.439522" lon="05.634498"><ele>8.5</ele><time>2021-02-17T10:26:34Z</time><name>PT332</name></trkpt>
<trkpt lat="53.439529" lon="05.634474"><ele>8.6</ele><time>2021-02-17T10:26:36Z</time><name>PT333</name></trkpt>
<trkpt lat="53.439534" lon="05.634446"><ele>8.5</ele><time>2021-02-17T10:26:36Z</time><name>PT334</name></trkpt>
<trkpt lat="53.439536" lon="05.634428"><ele>8.8</ele><time>2021-02-17T10:26:37Z</time><name>PT335</name></trkpt>
<trkpt lat="53.439541" lon="05.634408"><ele>8.5</ele><time>2021-02-17T10:26:39Z</time><name>PT336</name></trkpt>
<trkpt lat="53.439545" lon="05.634391"><ele>8.4</ele><time>2021-02-17T10:26:39Z</time><name>PT337</name></trkpt>
<trkpt lat="53.439549" lon="05.634374"><ele>8.4</ele><time>2021-02-17T10:26:40Z</time><name>PT338</name></trkpt>
<trkpt lat="53.439551" lon="05.634355"><ele>8.3</ele><time>2021-02-17T10:26:42Z</time><name>PT339</name></trkpt>
<trkpt lat="53.439557" lon="05.634336"><ele>8.3</ele><time>2021-02-17T10:26:42Z</time><name>PT340</name></trkpt>
<trkpt lat="53.439561" lon="05.634314"><ele>8.3</ele><time>2021-02-17T10:26:43Z</time><name>PT341</name></trkpt>
<trkpt lat="53.439564" lon="05.634290"><ele>8.3</ele><time>2021-02-17T10:26:45Z</time><name>PT342</name></trkpt>
<trkpt lat="53.439566" lon="05.634269"><ele>8.3</ele><time>2021-02-17T10:26:45Z</time><name>PT343</name></trkpt>
<trkpt lat="53.439568" lon="05.634250"><ele>8.5</ele><time>2021-02-17T10:26:46Z</time><name>PT344</name></trkpt>
<trkpt lat="53.439572" lon="05.634231"><ele>8.7</ele><time>2021-02-17T10:26:48Z</time><name>PT345</name></trkpt>
<trkpt lat="53.439576" lon="05.634214"><ele>8.8</ele><time>2021-02-17T10:26:48Z</time><name>PT346</name></trkpt>
<trkpt lat="53.439579" lon="05.634192"><ele>8.7</ele><time>2021-02-17T10:26:49Z</time><name>PT347</name></trkpt>
<trkpt lat="53.439583" lon="05.634170"><ele>8.7</ele><time>2021-02-17T10:26:51Z</time><name>PT348</name></trkpt>
<trkpt lat="53.439586" lon="05.634151"><ele>8.7</ele><time>2021-02-17T10:26:51Z</time><name>PT349</name></trkpt>
<trkpt lat="53.439590" lon="05.634135"><ele>8.7</ele><time>2021-02-17T10:26:52Z</time><name>PT350</name></trkpt>
<trkpt lat="53.439592" lon="05.634115"><ele>8.8</ele><time>2021-02-17T10:26:54Z</time><name>PT351</name></trkpt>
<trkpt lat="53.439596" lon="05.634093"><ele>8.8</ele><time>2021-02-17T10:26:54Z</time><name>PT352</name></trkpt>
<trkpt lat="53.439597" lon="05.634069"><ele>8.9</ele><time>2021-02-17T10:26:55Z</time><name>PT353</name></trkpt>
<trkpt lat="53.439601" lon="05.634050"><ele>9</ele><time>2021-02-17T10:26:57Z</time><name>PT354</name></trkpt>
<trkpt lat="53.439604" lon="05.634028"><ele>9.1</ele><time>2021-02-17T10:26:57Z</time><name>PT355</name></trkpt>
<trkpt lat="53.439609" lon="05.634002"><ele>9.1</ele><time>2021-02-17T10:26:58Z</time><name>PT356</name></trkpt>
<trkpt lat="53.439611" lon="05.633976"><ele>9.1</ele><time>2021-02-17T10:27:00Z</time><name>PT357</name></trkpt>
<trkpt lat="53.439616" lon="05.633952"><ele>9.1</ele><time>2021-02-17T10:27:00Z</time><name>PT358</name></trkpt>
<trkpt lat="53.439620" lon="05.633932"><ele>9.3</ele><time>2021-02-17T10:27:01Z</time><name>PT359</name></trkpt>
<trkpt lat="53.439624" lon="05.633909"><ele>9.2</ele><time>2021-02-17T10:27:03Z</time><name>PT360</name></trkpt>
<trkpt lat="53.439628" lon="05.633887"><ele>9.1</ele><time>2021-02-17T10:27:03Z</time><name>PT361</name></trkpt>
<trkpt lat="53.439631" lon="05.633857"><ele>9.2</ele><time>2021-02-17T10:27:04Z</time><name>PT362</name></trkpt>
<trkpt lat="53.439635" lon="05.633833"><ele>9.1</ele><time>2021-02-17T10:27:06Z</time><name>PT363</name></trkpt>
<trkpt lat="53.439638" lon="05.633810"><ele>9.2</ele><time>2021-02-17T10:27:06Z</time><name>PT364</name></trkpt>
<trkpt lat="53.439638" lon="05.633787"><ele>9.1</ele><time>2021-02-17T10:27:07Z</time><name>PT365</name></trkpt>
<trkpt lat="53.439640" lon="05.633765"><ele>9.1</ele><time>2021-02-17T10:27:09Z</time><name>PT366</name></trkpt>
<trkpt lat="53.439640" lon="05.633740"><ele>8.9</ele><time>2021-02-17T10:27:09Z</time><name>PT367</name></trkpt>
<trkpt lat="53.439641" lon="05.633718"><ele>8.8</ele><time>2021-02-17T10:27:10Z</time><name>PT368</name></trkpt>
<trkpt lat="53.439642" lon="05.633694"><ele>8.7</ele><time>2021-02-17T10:27:12Z</time><name>PT369</name></trkpt>
<trkpt lat="53.439640" lon="05.633670"><ele>8.7</ele><time>2021-02-17T10:27:12Z</time><name>PT370</name></trkpt>
<trkpt lat="53.439638" lon="05.633648"><ele>8.8</ele><time>2021-02-17T10:27:13Z</time><name>PT371</name></trkpt>
<trkpt lat="53.439638" lon="05.633625"><ele>8.8</ele><time>2021-02-17T10:27:15Z</time><name>PT372</name></trkpt>
<trkpt lat="53.439637" lon="05.633602"><ele>8.7</ele><time>2021-02-17T10:27:15Z</time><name>PT373</name></trkpt>
<trkpt lat="53.439638" lon="05.633580"><ele>8.7</ele><time>2021-02-17T10:27:16Z</time><name>PT374</name></trkpt>
<trkpt lat="53.439639" lon="05.633562"><ele>8.5</ele><time>2021-02-17T10:27:18Z</time><name>PT375</name></trkpt>
<trkpt lat="53.439642" lon="05.633542"><ele>8.7</ele><time>2021-02-17T10:27:18Z</time><name>PT376</name></trkpt>
<trkpt lat="53.439643" lon="05.633523"><ele>8.7</ele><time>2021-02-17T10:27:19Z</time><name>PT377</name></trkpt>
<trkpt lat="53.439644" lon="05.633504"><ele>8.6</ele><time>2021-02-17T10:27:21Z</time><name>PT378</name></trkpt>
<trkpt lat="53.439647" lon="05.633480"><ele>8.6</ele><time>2021-02-17T10:27:21Z</time><name>PT379</name></trkpt>
<trkpt lat="53.439655" lon="05.633463"><ele>8.7</ele><time>2021-02-17T10:27:22Z</time><name>PT380</name></trkpt>
<trkpt lat="53.439659" lon="05.633443"><ele>8.5</ele><time>2021-02-17T10:27:24Z</time><name>PT381</name></trkpt>
<trkpt lat="53.439661" lon="05.633419"><ele>8.7</ele><time>2021-02-17T10:27:24Z</time><name>PT382</name></trkpt>
<trkpt lat="53.439663" lon="05.633395"><ele>8.8</ele><time>2021-02-17T10:27:25Z</time><name>PT383</name></trkpt>
<trkpt lat="53.439667" lon="05.633370"><ele>8.9</ele><time>2021-02-17T10:27:27Z</time><name>PT384</name></trkpt>
<trkpt lat="53.439669" lon="05.633346"><ele>9</ele><time>2021-02-17T10:27:27Z</time><name>PT385</name></trkpt>
<trkpt lat="53.439669" lon="05.633326"><ele>9</ele><time>2021-02-17T10:27:28Z</time><name>PT386</name></trkpt>
<trkpt lat="53.439671" lon="05.633304"><ele>9</ele><time>2021-02-17T10:27:30Z</time><name>PT387</name></trkpt>
<trkpt lat="53.439672" lon="05.633283"><ele>8.9</ele><time>2021-02-17T10:27:30Z</time><name>PT388</name></trkpt>
<trkpt lat="53.439671" lon="05.633262"><ele>8.8</ele><time>2021-02-17T10:27:31Z</time><name>PT389</name></trkpt>
<trkpt lat="53.439671" lon="05.633243"><ele>8.8</ele><time>2021-02-17T10:27:33Z</time><name>PT390</name></trkpt>
<trkpt lat="53.439672" lon="05.633222"><ele>8.8</ele><time>2021-02-17T10:27:33Z</time><name>PT391</name></trkpt>
<trkpt lat="53.439672" lon="05.633198"><ele>8.8</ele><time>2021-02-17T10:27:34Z</time><name>PT392</name></trkpt>
<trkpt lat="53.439673" lon="05.633176"><ele>8.8</ele><time>2021-02-17T10:27:36Z</time><name>PT393</name></trkpt>
<trkpt lat="53.439674" lon="05.633155"><ele>8.8</ele><time>2021-02-17T10:27:36Z</time><name>PT394</name></trkpt>
<trkpt lat="53.439674" lon="05.633132"><ele>8.7</ele><time>2021-02-17T10:27:37Z</time><name>PT395</name></trkpt>
<trkpt lat="53.439676" lon="05.633108"><ele>8.5</ele><time>2021-02-17T10:27:39Z</time><name>PT396</name></trkpt>
<trkpt lat="53.439677" lon="05.633088"><ele>8.5</ele><time>2021-02-17T10:27:39Z</time><name>PT397</name></trkpt>
<trkpt lat="53.439676" lon="05.633069"><ele>8.6</ele><time>2021-02-17T10:27:40Z</time><name>PT398</name></trkpt>
<trkpt lat="53.439678" lon="05.633051"><ele>8.7</ele><time>2021-02-17T10:27:42Z</time><name>PT399</name></trkpt>
<trkpt lat="53.439681" lon="05.633033"><ele>8.8</ele><time>2021-02-17T10:27:42Z</time><name>PT400</name></trkpt>
<trkpt lat="53.439683" lon="05.633015"><ele>8.8</ele><time>2021-02-17T10:27:43Z</time><name>PT401</name></trkpt>
<trkpt lat="53.439685" lon="05.632995"><ele>8.7</ele><time>2021-02-17T10:27:45Z</time><name>PT402</name></trkpt>
<trkpt lat="53.439688" lon="05.632977"><ele>8.8</ele><time>2021-02-17T10:27:45Z</time><name>PT403</name></trkpt>
<trkpt lat="53.439691" lon="05.632963"><ele>8.8</ele><time>2021-02-17T10:27:46Z</time><name>PT404</name></trkpt>
<trkpt lat="53.439694" lon="05.632953"><ele>8.8</ele><time>2021-02-17T10:27:48Z</time><name>PT405</name></trkpt>
<trkpt lat="53.439695" lon="05.632943"><ele>9</ele><time>2021-02-17T10:27:48Z</time><name>PT406</name></trkpt>
<trkpt lat="53.439697" lon="05.632936"><ele>9.2</ele><time>2021-02-17T10:27:49Z</time><name>PT407</name></trkpt>
<trkpt lat="53.439698" lon="05.632927"><ele>9.4</ele><time>2021-02-17T10:27:51Z</time><name>PT408</name></trkpt>
<trkpt lat="53.439699" lon="05.632912"><ele>9.5</ele><time>2021-02-17T10:27:51Z</time><name>PT409</name></trkpt>
<trkpt lat="53.439701" lon="05.632893"><ele>9.6</ele><time>2021-02-17T10:27:52Z</time><name>PT410</name></trkpt>
<trkpt lat="53.439702" lon="05.632875"><ele>9.6</ele><time>2021-02-17T10:27:54Z</time><name>PT411</name></trkpt>
<trkpt lat="53.439704" lon="05.632856"><ele>9.5</ele><time>2021-02-17T10:27:54Z</time><name>PT412</name></trkpt>
<trkpt lat="53.439706" lon="05.632836"><ele>9.6</ele><time>2021-02-17T10:27:55Z</time><name>PT413</name></trkpt>
<trkpt lat="53.439708" lon="05.632818"><ele>9.4</ele><time>2021-02-17T10:27:57Z</time><name>PT414</name></trkpt>
<trkpt lat="53.439709" lon="05.632800"><ele>9.5</ele><time>2021-02-17T10:27:57Z</time><name>PT415</name></trkpt>
<trkpt lat="53.439709" lon="05.632779"><ele>9.3</ele><time>2021-02-17T10:27:58Z</time><name>PT416</name></trkpt>
<trkpt lat="53.439709" lon="05.632758"><ele>9.1</ele><time>2021-02-17T10:28:00Z</time><name>PT417</name></trkpt>
<trkpt lat="53.439706" lon="05.632744"><ele>8.9</ele><time>2021-02-17T10:28:00Z</time><name>PT418</name></trkpt>
<trkpt lat="53.439702" lon="05.632740"><ele>8.9</ele><time>2021-02-17T10:28:01Z</time><name>PT419</name></trkpt>
<trkpt lat="53.439701" lon="05.632729"><ele>8.8</ele><time>2021-02-17T10:28:03Z</time><name>PT420</name></trkpt>
<trkpt lat="53.439700" lon="05.632720"><ele>8.8</ele><time>2021-02-17T10:28:03Z</time><name>PT421</name></trkpt>
<trkpt lat="53.439699" lon="05.632710"><ele>8.8</ele><time>2021-02-17T10:28:04Z</time><name>PT422</name></trkpt>
<trkpt lat="53.439701" lon="05.632696"><ele>8.8</ele><time>2021-02-17T10:28:06Z</time><name>PT423</name></trkpt>
<trkpt lat="53.439702" lon="05.632682"><ele>8.8</ele><time>2021-02-17T10:28:06Z</time><name>PT424</name></trkpt>
<trkpt lat="53.439704" lon="05.632665"><ele>8.8</ele><time>2021-02-17T10:28:07Z</time><name>PT425</name></trkpt>
<trkpt lat="53.439706" lon="05.632648"><ele>8.8</ele><time>2021-02-17T10:28:09Z</time><name>PT426</name></trkpt>
<trkpt lat="53.439712" lon="05.632631"><ele>8.8</ele><time>2021-02-17T10:28:09Z</time><name>PT427</name></trkpt>
<trkpt lat="53.439716" lon="05.632617"><ele>8.8</ele><time>2021-02-17T10:28:10Z</time><name>PT428</name></trkpt>
<trkpt lat="53.439723" lon="05.632601"><ele>8.8</ele><time>2021-02-17T10:28:12Z</time><name>PT429</name></trkpt>
<trkpt lat="53.439726" lon="05.632582"><ele>8.8</ele><time>2021-02-17T10:28:12Z</time><name>PT430</name></trkpt>
<trkpt lat="53.439727" lon="05.632563"><ele>8.8</ele><time>2021-02-17T10:28:13Z</time><name>PT431</name></trkpt>
<trkpt lat="53.439728" lon="05.632543"><ele>8.9</ele><time>2021-02-17T10:28:15Z</time><name>PT432</name></trkpt>
<trkpt lat="53.439728" lon="05.632524"><ele>8.8</ele><time>2021-02-17T10:28:15Z</time><name>PT433</name></trkpt>
<trkpt lat="53.439728" lon="05.632504"><ele>8.8</ele><time>2021-02-17T10:28:16Z</time><name>PT434</name></trkpt>
<trkpt lat="53.439730" lon="05.632485"><ele>8.6</ele><time>2021-02-17T10:28:18Z</time><name>PT435</name></trkpt>
<trkpt lat="53.439733" lon="05.632467"><ele>8.5</ele><time>2021-02-17T10:28:18Z</time><name>PT436</name></trkpt>
<trkpt lat="53.439737" lon="05.632447"><ele>8.4</ele><time>2021-02-17T10:28:19Z</time><name>PT437</name></trkpt>
<trkpt lat="53.439739" lon="05.632428"><ele>8.5</ele><time>2021-02-17T10:28:21Z</time><name>PT438</name></trkpt>
<trkpt lat="53.439742" lon="05.632405"><ele>8.6</ele><time>2021-02-17T10:28:21Z</time><name>PT439</name></trkpt>
<trkpt lat="53.439743" lon="05.632382"><ele>8.8</ele><time>2021-02-17T10:28:22Z</time><name>PT440</name></trkpt>
<trkpt lat="53.439746" lon="05.632361"><ele>8.8</ele><time>2021-02-17T10:28:24Z</time><name>PT441</name></trkpt>
<trkpt lat="53.439748" lon="05.632339"><ele>8.8</ele><time>2021-02-17T10:28:24Z</time><name>PT442</name></trkpt>
<trkpt lat="53.439751" lon="05.632316"><ele>8.6</ele><time>2021-02-17T10:28:25Z</time><name>PT443</name></trkpt>
<trkpt lat="53.439754" lon="05.632294"><ele>8.5</ele><time>2021-02-17T10:28:27Z</time><name>PT444</name></trkpt>
<trkpt lat="53.439757" lon="05.632273"><ele>8.7</ele><time>2021-02-17T10:28:27Z</time><name>PT445</name></trkpt>
<trkpt lat="53.439760" lon="05.632253"><ele>8.7</ele><time>2021-02-17T10:28:28Z</time><name>PT446</name></trkpt>
<trkpt lat="53.439762" lon="05.632233"><ele>8.8</ele><time>2021-02-17T10:28:30Z</time><name>PT447</name></trkpt>
<trkpt lat="53.439763" lon="05.632212"><ele>8.8</ele><time>2021-02-17T10:28:30Z</time><name>PT448</name></trkpt>
<trkpt lat="53.439764" lon="05.632191"><ele>8.8</ele><time>2021-02-17T10:28:31Z</time><name>PT449</name></trkpt>
<trkpt lat="53.439764" lon="05.632170"><ele>8.7</ele><time>2021-02-17T10:28:33Z</time><name>PT450</name></trkpt>
<trkpt lat="53.439763" lon="05.632146"><ele>8.6</ele><time>2021-02-17T10:28:33Z</time><name>PT451</name></trkpt>
<trkpt lat="53.439763" lon="05.632126"><ele>8.5</ele><time>2021-02-17T10:28:34Z</time><name>PT452</name></trkpt>
<trkpt lat="53.439765" lon="05.632104"><ele>8.5</ele><time>2021-02-17T10:28:36Z</time><name>PT453</name></trkpt>
<trkpt lat="53.439765" lon="05.632084"><ele>8.5</ele><time>2021-02-17T10:28:36Z</time><name>PT454</name></trkpt>
<trkpt lat="53.439764" lon="05.632066"><ele>8.4</ele><time>2021-02-17T10:28:37Z</time><name>PT455</name></trkpt>
<trkpt lat="53.439768" lon="05.632046"><ele>8.5</ele><time>2021-02-17T10:28:39Z</time><name>PT456</name></trkpt>
<trkpt lat="53.439773" lon="05.632027"><ele>8.7</ele><time>2021-02-17T10:28:39Z</time><name>PT457</name></trkpt>
<trkpt lat="53.439775" lon="05.632007"><ele>8.6</ele><time>2021-02-17T10:28:40Z</time><name>PT458</name></trkpt>
<trkpt lat="53.439778" lon="05.631987"><ele>8.7</ele><time>2021-02-17T10:28:42Z</time><name>PT459</name></trkpt>
<trkpt lat="53.439780" lon="05.631969"><ele>8.7</ele><time>2021-02-17T10:28:42Z</time><name>PT460</name></trkpt>
<trkpt lat="53.439784" lon="05.631952"><ele>8.6</ele><time>2021-02-17T10:28:43Z</time><name>PT461</name></trkpt>
<trkpt lat="53.439786" lon="05.631932"><ele>8.7</ele><time>2021-02-17T10:28:45Z</time><name>PT462</name></trkpt>
<trkpt lat="53.439786" lon="05.631911"><ele>8.8</ele><time>2021-02-17T10:28:45Z</time><name>PT463</name></trkpt>
<trkpt lat="53.439788" lon="05.631890"><ele>9</ele><time>2021-02-17T10:28:46Z</time><name>PT464</name></trkpt>
<trkpt lat="53.439789" lon="05.631871"><ele>9.3</ele><time>2021-02-17T10:28:48Z</time><name>PT465</name></trkpt>
<trkpt lat="53.439790" lon="05.631854"><ele>9.4</ele><time>2021-02-17T10:28:48Z</time><name>PT466</name></trkpt>
<trkpt lat="53.439792" lon="05.631836"><ele>9.3</ele><time>2021-02-17T10:28:49Z</time><name>PT467</name></trkpt>
<trkpt lat="53.439795" lon="05.631819"><ele>9.3</ele><time>2021-02-17T10:28:51Z</time><name>PT468</name></trkpt>
<trkpt lat="53.439799" lon="05.631800"><ele>9.3</ele><time>2021-02-17T10:28:51Z</time><name>PT469</name></trkpt>
<trkpt lat="53.439804" lon="05.631780"><ele>9.1</ele><time>2021-02-17T10:28:52Z</time><name>PT470</name></trkpt>
<trkpt lat="53.439806" lon="05.631758"><ele>9.1</ele><time>2021-02-17T10:28:54Z</time><name>PT471</name></trkpt>
<trkpt lat="53.439808" lon="05.631738"><ele>9.1</ele><time>2021-02-17T10:28:54Z</time><name>PT472</name></trkpt>
<trkpt lat="53.439809" lon="05.631718"><ele>9</ele><time>2021-02-17T10:28:55Z</time><name>PT473</name></trkpt>
<trkpt lat="53.439811" lon="05.631695"><ele>8.9</ele><time>2021-02-17T10:28:57Z</time><name>PT474</name></trkpt>
<trkpt lat="53.439813" lon="05.631676"><ele>9.1</ele><time>2021-02-17T10:28:57Z</time><name>PT475</name></trkpt>
<trkpt lat="53.439814" lon="05.631656"><ele>9.1</ele><time>2021-02-17T10:28:58Z</time><name>PT476</name></trkpt>
<trkpt lat="53.439815" lon="05.631636"><ele>9.3</ele><time>2021-02-17T10:29:00Z</time><name>PT477</name></trkpt>
<trkpt lat="53.439817" lon="05.631615"><ele>9.3</ele><time>2021-02-17T10:29:00Z</time><name>PT478</name></trkpt>
<trkpt lat="53.439819" lon="05.631594"><ele>9.3</ele><time>2021-02-17T10:29:01Z</time><name>PT479</name></trkpt>
<trkpt lat="53.439821" lon="05.631575"><ele>9.3</ele><time>2021-02-17T10:29:03Z</time><name>PT480</name></trkpt>
<trkpt lat="53.439821" lon="05.631558"><ele>9.3</ele><time>2021-02-17T10:29:03Z</time><name>PT481</name></trkpt>
<trkpt lat="53.439821" lon="05.631541"><ele>9.3</ele><time>2021-02-17T10:29:04Z</time><name>PT482</name></trkpt>
<trkpt lat="53.439823" lon="05.631522"><ele>9.3</ele><time>2021-02-17T10:29:06Z</time><name>PT483</name></trkpt>
<trkpt lat="53.439825" lon="05.631502"><ele>9.1</ele><time>2021-02-17T10:29:06Z</time><name>PT484</name></trkpt>
<trkpt lat="53.439828" lon="05.631481"><ele>9.1</ele><time>2021-02-17T10:29:07Z</time><name>PT485</name></trkpt>
<trkpt lat="53.439831" lon="05.631460"><ele>9.1</ele><time>2021-02-17T10:29:09Z</time><name>PT486</name></trkpt>
<trkpt lat="53.439833" lon="05.631439"><ele>8.9</ele><time>2021-02-17T10:29:09Z</time><name>PT487</name></trkpt>
<trkpt lat="53.439836" lon="05.631421"><ele>8.9</ele><time>2021-02-17T10:29:10Z</time><name>PT488</name></trkpt>
<trkpt lat="53.439837" lon="05.631402"><ele>8.9</ele><time>2021-02-17T10:29:12Z</time><name>PT489</name></trkpt>
<trkpt lat="53.439839" lon="05.631380"><ele>8.8</ele><time>2021-02-17T10:29:12Z</time><name>PT490</name></trkpt>
<trkpt lat="53.439838" lon="05.631359"><ele>8.8</ele><time>2021-02-17T10:29:13Z</time><name>PT491</name></trkpt>
<trkpt lat="53.439840" lon="05.631337"><ele>9</ele><time>2021-02-17T10:29:15Z</time><name>PT492</name></trkpt>
<trkpt lat="53.439843" lon="05.631318"><ele>9.2</ele><time>2021-02-17T10:29:15Z</time><name>PT493</name></trkpt>
<trkpt lat="53.439846" lon="05.631301"><ele>9.3</ele><time>2021-02-17T10:29:16Z</time><name>PT494</name></trkpt>
<trkpt lat="53.439851" lon="05.631282"><ele>9.3</ele><time>2021-02-17T10:29:18Z</time><name>PT495</name></trkpt>
<trkpt lat="53.439853" lon="05.631258"><ele>9.3</ele><time>2021-02-17T10:29:18Z</time><name>PT496</name></trkpt>
<trkpt lat="53.439854" lon="05.631239"><ele>9.4</ele><time>2021-02-17T10:29:19Z</time><name>PT497</name></trkpt>
<trkpt lat="53.439858" lon="05.631217"><ele>9.4</ele><time>2021-02-17T10:29:21Z</time><name>PT498</name></trkpt>
<trkpt lat="53.439859" lon="05.631193"><ele>9.3</ele><time>2021-02-17T10:29:21Z</time><name>PT499</name></trkpt>
<trkpt lat="53.439866" lon="05.631171"><ele>9.4</ele><time>2021-02-17T10:29:22Z</time><name>PT500</name></trkpt>
<trkpt lat="53.439870" lon="05.631150"><ele>9.3</ele><time>2021-02-17T10:29:24Z</time><name>PT501</name></trkpt>
<trkpt lat="53.439872" lon="05.631129"><ele>9.3</ele><time>2021-02-17T10:29:24Z</time><name>PT502</name></trkpt>
<trkpt lat="53.439875" lon="05.631107"><ele>9.1</ele><time>2021-02-17T10:29:25Z</time><name>PT503</name></trkpt>
<trkpt lat="53.439879" lon="05.631087"><ele>9</ele><time>2021-02-17T10:29:27Z</time><name>PT504</name></trkpt>
<trkpt lat="53.439883" lon="05.631066"><ele>9.1</ele><time>2021-02-17T10:29:27Z</time><name>PT505</name></trkpt>
<trkpt lat="53.439887" lon="05.631045"><ele>8.9</ele><time>2021-02-17T10:29:28Z</time><name>PT506</name></trkpt>
<trkpt lat="53.439889" lon="05.631023"><ele>8.8</ele><time>2021-02-17T10:29:30Z</time><name>PT507</name></trkpt>
<trkpt lat="53.439892" lon="05.631002"><ele>8.9</ele><time>2021-02-17T10:29:30Z</time><name>PT508</name></trkpt>
<trkpt lat="53.439893" lon="05.630983"><ele>8.9</ele><time>2021-02-17T10:29:31Z</time><name>PT509</name></trkpt>
<trkpt lat="53.439894" lon="05.630965"><ele>9.1</ele><time>2021-02-17T10:29:33Z</time><name>PT510</name></trkpt>
<trkpt lat="53.439899" lon="05.630948"><ele>9</ele><time>2021-02-17T10:29:33Z</time><name>PT511</name></trkpt>
<trkpt lat="53.439903" lon="05.630930"><ele>9.1</ele><time>2021-02-17T10:29:34Z</time><name>PT512</name></trkpt>
<trkpt lat="53.439906" lon="05.630912"><ele>9.1</ele><time>2021-02-17T10:29:36Z</time><name>PT513</name></trkpt>
<trkpt lat="53.439908" lon="05.630893"><ele>8.9</ele><time>2021-02-17T10:29:36Z</time><name>PT514</name></trkpt>
<trkpt lat="53.439912" lon="05.630875"><ele>8.8</ele><time>2021-02-17T10:29:37Z</time><name>PT515</name></trkpt>
<trkpt lat="53.439915" lon="05.630856"><ele>8.6</ele><time>2021-02-17T10:29:39Z</time><name>PT516</name></trkpt>
<trkpt lat="53.439917" lon="05.630829"><ele>8.7</ele><time>2021-02-17T10:29:39Z</time><name>PT517</name></trkpt>
<trkpt lat="53.439919" lon="05.630807"><ele>8.8</ele><time>2021-02-17T10:29:40Z</time><name>PT518</name></trkpt>
<trkpt lat="53.439921" lon="05.630791"><ele>8.6</ele><time>2021-02-17T10:29:42Z</time><name>PT519</name></trkpt>
<trkpt lat="53.439927" lon="05.630774"><ele>8.6</ele><time>2021-02-17T10:29:42Z</time><name>PT520</name></trkpt>
<trkpt lat="53.439934" lon="05.630760"><ele>8.7</ele><time>2021-02-17T10:29:43Z</time><name>PT521</name></trkpt>
<trkpt lat="53.439938" lon="05.630742"><ele>8.5</ele><time>2021-02-17T10:29:45Z</time><name>PT522</name></trkpt>
<trkpt lat="53.439942" lon="05.630720"><ele>8.7</ele><time>2021-02-17T10:29:45Z</time><name>PT523</name></trkpt>
<trkpt lat="53.439946" lon="05.630698"><ele>8.7</ele><time>2021-02-17T10:29:46Z</time><name>PT524</name></trkpt>
<trkpt lat="53.439950" lon="05.630678"><ele>8.7</ele><time>2021-02-17T10:29:48Z</time><name>PT525</name></trkpt>
<trkpt lat="53.439952" lon="05.630659"><ele>8.8</ele><time>2021-02-17T10:29:48Z</time><name>PT526</name></trkpt>
<trkpt lat="53.439955" lon="05.630638"><ele>8.8</ele><time>2021-02-17T10:29:49Z</time><name>PT527</name></trkpt>
<trkpt lat="53.439958" lon="05.630616"><ele>8.8</ele><time>2021-02-17T10:29:51Z</time><name>PT528</name></trkpt>
<trkpt lat="53.439960" lon="05.630597"><ele>8.9</ele><time>2021-02-17T10:29:51Z</time><name>PT529</name></trkpt>
<trkpt lat="53.439963" lon="05.630581"><ele>9</ele><time>2021-02-17T10:29:52Z</time><name>PT530</name></trkpt>
<trkpt lat="53.439965" lon="05.630563"><ele>8.9</ele><time>2021-02-17T10:29:54Z</time><name>PT531</name></trkpt>
<trkpt lat="53.439968" lon="05.630544"><ele>8.9</ele><time>2021-02-17T10:29:54Z</time><name>PT532</name></trkpt>
<trkpt lat="53.439972" lon="05.630525"><ele>8.9</ele><time>2021-02-17T10:29:55Z</time><name>PT533</name></trkpt>
<trkpt lat="53.439976" lon="05.630507"><ele>8.7</ele><time>2021-02-17T10:29:57Z</time><name>PT534</name></trkpt>
<trkpt lat="53.439980" lon="05.630487"><ele>8.6</ele><time>2021-02-17T10:29:57Z</time><name>PT535</name></trkpt>
<trkpt lat="53.439984" lon="05.630467"><ele>8.7</ele><time>2021-02-17T10:29:58Z</time><name>PT536</name></trkpt>
<trkpt lat="53.439988" lon="05.630447"><ele>8.8</ele><time>2021-02-17T10:30:00Z</time><name>PT537</name></trkpt>
<trkpt lat="53.439993" lon="05.630427"><ele>8.8</ele><time>2021-02-17T10:30:00Z</time><name>PT538</name></trkpt>
<trkpt lat="53.439997" lon="05.630405"><ele>9</ele><time>2021-02-17T10:30:01Z</time><name>PT539</name></trkpt>
<trkpt lat="53.439999" lon="05.630385"><ele>9.1</ele><time>2021-02-17T10:30:03Z</time><name>PT540</name></trkpt>
<trkpt lat="53.440003" lon="05.630366"><ele>9</ele><time>2021-02-17T10:30:03Z</time><name>PT541</name></trkpt>
<trkpt lat="53.440006" lon="05.630345"><ele>8.8</ele><time>2021-02-17T10:30:04Z</time><name>PT542</name></trkpt>
<trkpt lat="53.440008" lon="05.630327"><ele>8.8</ele><time>2021-02-17T10:30:06Z</time><name>PT543</name></trkpt>
<trkpt lat="53.440013" lon="05.630312"><ele>8.6</ele><time>2021-02-17T10:30:06Z</time><name>PT544</name></trkpt>
<trkpt lat="53.440017" lon="05.630294"><ele>8.7</ele><time>2021-02-17T10:30:07Z</time><name>PT545</name></trkpt>
<trkpt lat="53.440020" lon="05.630277"><ele>8.8</ele><time>2021-02-17T10:30:09Z</time><name>PT546</name></trkpt>
<trkpt lat="53.440025" lon="05.630259"><ele>8.8</ele><time>2021-02-17T10:30:09Z</time><name>PT547</name></trkpt>
<trkpt lat="53.440031" lon="05.630243"><ele>8.8</ele><time>2021-02-17T10:30:10Z</time><name>PT548</name></trkpt>
<trkpt lat="53.440035" lon="05.630224"><ele>9</ele><time>2021-02-17T10:30:12Z</time><name>PT549</name></trkpt>
<trkpt lat="53.440038" lon="05.630203"><ele>9</ele><time>2021-02-17T10:30:12Z</time><name>PT550</name></trkpt>
<trkpt lat="53.440041" lon="05.630185"><ele>9.1</ele><time>2021-02-17T10:30:13Z</time><name>PT551</name></trkpt>
<trkpt lat="53.440043" lon="05.630168"><ele>9.2</ele><time>2021-02-17T10:30:15Z</time><name>PT552</name></trkpt>
<trkpt lat="53.440045" lon="05.630146"><ele>9.1</ele><time>2021-02-17T10:30:15Z</time><name>PT553</name></trkpt>
<trkpt lat="53.440048" lon="05.630119"><ele>8.8</ele><time>2021-02-17T10:30:16Z</time><name>PT554</name></trkpt>
<trkpt lat="53.440049" lon="05.630098"><ele>8.5</ele><time>2021-02-17T10:30:18Z</time><name>PT555</name></trkpt>
<trkpt lat="53.440051" lon="05.630076"><ele>8.3</ele><time>2021-02-17T10:30:18Z</time><name>PT556</name></trkpt>
<trkpt lat="53.440054" lon="05.630055"><ele>8.1</ele><time>2021-02-17T10:30:19Z</time><name>PT557</name></trkpt>
<trkpt lat="53.440058" lon="05.630036"><ele>8.1</ele><time>2021-02-17T10:30:21Z</time><name>PT558</name></trkpt>
<trkpt lat="53.440061" lon="05.630018"><ele>8.1</ele><time>2021-02-17T10:30:21Z</time><name>PT559</name></trkpt>
<trkpt lat="53.440064" lon="05.629999"><ele>8.2</ele><time>2021-02-17T10:30:22Z</time><name>PT560</name></trkpt>
<trkpt lat="53.440068" lon="05.629985"><ele>8.3</ele><time>2021-02-17T10:30:24Z</time><name>PT561</name></trkpt>
<trkpt lat="53.440072" lon="05.629970"><ele>8.3</ele><time>2021-02-17T10:30:24Z</time><name>PT562</name></trkpt>
<trkpt lat="53.440076" lon="05.629954"><ele>8.6</ele><time>2021-02-17T10:30:25Z</time><name>PT563</name></trkpt>
<trkpt lat="53.440082" lon="05.629936"><ele>8.8</ele><time>2021-02-17T10:30:27Z</time><name>PT564</name></trkpt>
<trkpt lat="53.440086" lon="05.629917"><ele>8.8</ele><time>2021-02-17T10:30:27Z</time><name>PT565</name></trkpt>
<trkpt lat="53.440090" lon="05.629897"><ele>8.8</ele><time>2021-02-17T10:30:28Z</time><name>PT566</name></trkpt>
<trkpt lat="53.440093" lon="05.629879"><ele>8.7</ele><time>2021-02-17T10:30:30Z</time><name>PT567</name></trkpt>
<trkpt lat="53.440095" lon="05.629859"><ele>8.7</ele><time>2021-02-17T10:30:30Z</time><name>PT568</name></trkpt>
<trkpt lat="53.440097" lon="05.629840"><ele>8.5</ele><time>2021-02-17T10:30:31Z</time><name>PT569</name></trkpt>
<trkpt lat="53.440100" lon="05.629823"><ele>8.4</ele><time>2021-02-17T10:30:33Z</time><name>PT570</name></trkpt>
<trkpt lat="53.440103" lon="05.629804"><ele>8.3</ele><time>2021-02-17T10:30:33Z</time><name>PT571</name></trkpt>
<trkpt lat="53.440106" lon="05.629784"><ele>8.1</ele><time>2021-02-17T10:30:34Z</time><name>PT572</name></trkpt>
<trkpt lat="53.440110" lon="05.629767"><ele>8.2</ele><time>2021-02-17T10:30:36Z</time><name>PT573</name></trkpt>
<trkpt lat="53.440114" lon="05.629749"><ele>8.1</ele><time>2021-02-17T10:30:36Z</time><name>PT574</name></trkpt>
<trkpt lat="53.440117" lon="05.629730"><ele>8.1</ele><time>2021-02-17T10:30:37Z</time><name>PT575</name></trkpt>
<trkpt lat="53.440123" lon="05.629713"><ele>8.3</ele><time>2021-02-17T10:30:39Z</time><name>PT576</name></trkpt>
<trkpt lat="53.440125" lon="05.629696"><ele>8.3</ele><time>2021-02-17T10:30:39Z</time><name>PT577</name></trkpt>
<trkpt lat="53.440127" lon="05.629674"><ele>8.3</ele><time>2021-02-17T10:30:40Z</time><name>PT578</name></trkpt>
<trkpt lat="53.440131" lon="05.629653"><ele>8.4</ele><time>2021-02-17T10:30:42Z</time><name>PT579</name></trkpt>
<trkpt lat="53.440135" lon="05.629635"><ele>8.4</ele><time>2021-02-17T10:30:42Z</time><name>PT580</name></trkpt>
<trkpt lat="53.440139" lon="05.629613"><ele>8.6</ele><time>2021-02-17T10:30:43Z</time><name>PT581</name></trkpt>
<trkpt lat="53.440142" lon="05.629594"><ele>8.5</ele><time>2021-02-17T10:30:45Z</time><name>PT582</name></trkpt>
<trkpt lat="53.440146" lon="05.629572"><ele>8.5</ele><time>2021-02-17T10:30:45Z</time><name>PT583</name></trkpt>
<trkpt lat="53.440150" lon="05.629553"><ele>8.5</ele><time>2021-02-17T10:30:46Z</time><name>PT584</name></trkpt>
<trkpt lat="53.440151" lon="05.629531"><ele>8.4</ele><time>2021-02-17T10:30:48Z</time><name>PT585</name></trkpt>
<trkpt lat="53.440153" lon="05.629513"><ele>8.3</ele><time>2021-02-17T10:30:48Z</time><name>PT586</name></trkpt>
<trkpt lat="53.440157" lon="05.629494"><ele>8.4</ele><time>2021-02-17T10:30:49Z</time><name>PT587</name></trkpt>
<trkpt lat="53.440160" lon="05.629478"><ele>8.5</ele><time>2021-02-17T10:30:51Z</time><name>PT588</name></trkpt>
<trkpt lat="53.440165" lon="05.629463"><ele>8.5</ele><time>2021-02-17T10:30:51Z</time><name>PT589</name></trkpt>
<trkpt lat="53.440171" lon="05.629445"><ele>8.6</ele><time>2021-02-17T10:30:52Z</time><name>PT590</name></trkpt>
<trkpt lat="53.440174" lon="05.629425"><ele>8.6</ele><time>2021-02-17T10:30:54Z</time><name>PT591</name></trkpt>
<trkpt lat="53.440176" lon="05.629407"><ele>8.5</ele><time>2021-02-17T10:30:54Z</time><name>PT592</name></trkpt>
<trkpt lat="53.440181" lon="05.629386"><ele>8.5</ele><time>2021-02-17T10:30:55Z</time><name>PT593</name></trkpt>
<trkpt lat="53.440184" lon="05.629363"><ele>8.3</ele><time>2021-02-17T10:30:57Z</time><name>PT594</name></trkpt>
<trkpt lat="53.440184" lon="05.629342"><ele>8.3</ele><time>2021-02-17T10:30:57Z</time><name>PT595</name></trkpt>
<trkpt lat="53.440188" lon="05.629322"><ele>8.2</ele><time>2021-02-17T10:30:58Z</time><name>PT596</name></trkpt>
<trkpt lat="53.440191" lon="05.629304"><ele>8.1</ele><time>2021-02-17T10:31:00Z</time><name>PT597</name></trkpt>
<trkpt lat="53.440193" lon="05.629284"><ele>8.1</ele><time>2021-02-17T10:31:00Z</time><name>PT598</name></trkpt>
<trkpt lat="53.440196" lon="05.629263"><ele>7.9</ele><time>2021-02-17T10:31:01Z</time><name>PT599</name></trkpt>
<trkpt lat="53.440196" lon="05.629242"><ele>8.1</ele><time>2021-02-17T10:31:03Z</time><name>PT600</name></trkpt>
<trkpt lat="53.440198" lon="05.629221"><ele>8</ele><time>2021-02-17T10:31:03Z</time><name>PT601</name></trkpt>
<trkpt lat="53.440200" lon="05.629204"><ele>8</ele><time>2021-02-17T10:31:04Z</time><name>PT602</name></trkpt>
<trkpt lat="53.440203" lon="05.629189"><ele>7.9</ele><time>2021-02-17T10:31:06Z</time><name>PT603</name></trkpt>
<trkpt lat="53.440205" lon="05.629169"><ele>7.9</ele><time>2021-02-17T10:31:06Z</time><name>PT604</name></trkpt>
<trkpt lat="53.440209" lon="05.629149"><ele>8</ele><time>2021-02-17T10:31:07Z</time><name>PT605</name></trkpt>
<trkpt lat="53.440211" lon="05.629130"><ele>8.2</ele><time>2021-02-17T10:31:09Z</time><name>PT606</name></trkpt>
<trkpt lat="53.440214" lon="05.629110"><ele>8.2</ele><time>2021-02-17T10:31:09Z</time><name>PT607</name></trkpt>
<trkpt lat="53.440218" lon="05.629090"><ele>8.3</ele><time>2021-02-17T10:31:10Z</time><name>PT608</name></trkpt>
<trkpt lat="53.440220" lon="05.629069"><ele>8.2</ele><time>2021-02-17T10:31:12Z</time><name>PT609</name></trkpt>
<trkpt lat="53.440224" lon="05.629050"><ele>8.2</ele><time>2021-02-17T10:31:12Z</time><name>PT610</name></trkpt>
<trkpt lat="53.440227" lon="05.629031"><ele>8</ele><time>2021-02-17T10:31:13Z</time><name>PT611</name></trkpt>
<trkpt lat="53.440230" lon="05.629012"><ele>8.1</ele><time>2021-02-17T10:31:15Z</time><name>PT612</name></trkpt>
<trkpt lat="53.440233" lon="05.628995"><ele>8</ele><time>2021-02-17T10:31:15Z</time><name>PT613</name></trkpt>
<trkpt lat="53.440238" lon="05.628977"><ele>8</ele><time>2021-02-17T10:31:16Z</time><name>PT614</name></trkpt>
<trkpt lat="53.440242" lon="05.628959"><ele>8</ele><time>2021-02-17T10:31:18Z</time><name>PT615</name></trkpt>
<trkpt lat="53.440247" lon="05.628938"><ele>7.9</ele><time>2021-02-17T10:31:18Z</time><name>PT616</name></trkpt>
<trkpt lat="53.440252" lon="05.628914"><ele>8</ele><time>2021-02-17T10:31:19Z</time><name>PT617</name></trkpt>
<trkpt lat="53.440256" lon="05.628891"><ele>8.3</ele><time>2021-02-17T10:31:21Z</time><name>PT618</name></trkpt>
<trkpt lat="53.440260" lon="05.628872"><ele>8.3</ele><time>2021-02-17T10:31:21Z</time><name>PT619</name></trkpt>
<trkpt lat="53.440264" lon="05.628854"><ele>8.3</ele><time>2021-02-17T10:31:22Z</time><name>PT620</name></trkpt>
<trkpt lat="53.440265" lon="05.628837"><ele>8.3</ele><time>2021-02-17T10:31:24Z</time><name>PT621</name></trkpt>
<trkpt lat="53.440267" lon="05.628818"><ele>8.2</ele><time>2021-02-17T10:31:24Z</time><name>PT622</name></trkpt>
<trkpt lat="53.440270" lon="05.628800"><ele>8.3</ele><time>2021-02-17T10:31:25Z</time><name>PT623</name></trkpt>
<trkpt lat="53.440274" lon="05.628781"><ele>8.2</ele><time>2021-02-17T10:31:27Z</time><name>PT624</name></trkpt>
<trkpt lat="53.440276" lon="05.628764"><ele>8.3</ele><time>2021-02-17T10:31:27Z</time><name>PT625</name></trkpt>
<trkpt lat="53.440280" lon="05.628744"><ele>8.3</ele><time>2021-02-17T10:31:28Z</time><name>PT626</name></trkpt>
<trkpt lat="53.440285" lon="05.628724"><ele>8.1</ele><time>2021-02-17T10:31:30Z</time><name>PT627</name></trkpt>
<trkpt lat="53.440289" lon="05.628705"><ele>8.1</ele><time>2021-02-17T10:31:30Z</time><name>PT628</name></trkpt>
<trkpt lat="53.440291" lon="05.628688"><ele>8</ele><time>2021-02-17T10:31:31Z</time><name>PT629</name></trkpt>
<trkpt lat="53.440294" lon="05.628669"><ele>7.9</ele><time>2021-02-17T10:31:33Z</time><name>PT630</name></trkpt>
<trkpt lat="53.440297" lon="05.628650"><ele>8</ele><time>2021-02-17T10:31:33Z</time><name>PT631</name></trkpt>
<trkpt lat="53.440299" lon="05.628630"><ele>8.1</ele><time>2021-02-17T10:31:34Z</time><name>PT632</name></trkpt>
<trkpt lat="53.440304" lon="05.628607"><ele>8.3</ele><time>2021-02-17T10:31:36Z</time><name>PT633</name></trkpt>
<trkpt lat="53.440309" lon="05.628589"><ele>8.6</ele><time>2021-02-17T10:31:36Z</time><name>PT634</name></trkpt>
<trkpt lat="53.440313" lon="05.628570"><ele>8.7</ele><time>2021-02-17T10:31:37Z</time><name>PT635</name></trkpt>
<trkpt lat="53.440315" lon="05.628551"><ele>8.7</ele><time>2021-02-17T10:31:39Z</time><name>PT636</name></trkpt>
<trkpt lat="53.440317" lon="05.628533"><ele>8.6</ele><time>2021-02-17T10:31:39Z</time><name>PT637</name></trkpt>
<trkpt lat="53.440319" lon="05.628515"><ele>8.3</ele><time>2021-02-17T10:31:40Z</time><name>PT638</name></trkpt>
<trkpt lat="53.440324" lon="05.628495"><ele>8.3</ele><time>2021-02-17T10:31:42Z</time><name>PT639</name></trkpt>
<trkpt lat="53.440329" lon="05.628476"><ele>8.3</ele><time>2021-02-17T10:31:42Z</time><name>PT640</name></trkpt>
<trkpt lat="53.440333" lon="05.628458"><ele>8.3</ele><time>2021-02-17T10:31:43Z</time><name>PT641</name></trkpt>
<trkpt lat="53.440336" lon="05.628439"><ele>8.5</ele><time>2021-02-17T10:31:45Z</time><name>PT642</name></trkpt>
<trkpt lat="53.440338" lon="05.628420"><ele>8.5</ele><time>2021-02-17T10:31:45Z</time><name>PT643</name></trkpt>
<trkpt lat="53.440340" lon="05.628400"><ele>8.5</ele><time>2021-02-17T10:31:46Z</time><name>PT644</name></trkpt>
<trkpt lat="53.440341" lon="05.628380"><ele>8.4</ele><time>2021-02-17T10:31:48Z</time><name>PT645</name></trkpt>
<trkpt lat="53.440344" lon="05.628357"><ele>8.5</ele><time>2021-02-17T10:31:48Z</time><name>PT646</name></trkpt>
<trkpt lat="53.440347" lon="05.628337"><ele>8.3</ele><time>2021-02-17T10:31:49Z</time><name>PT647</name></trkpt>
<trkpt lat="53.440349" lon="05.628319"><ele>8.2</ele><time>2021-02-17T10:31:51Z</time><name>PT648</name></trkpt>
<trkpt lat="53.440350" lon="05.628302"><ele>8.2</ele><time>2021-02-17T10:31:51Z</time><name>PT649</name></trkpt>
<trkpt lat="53.440353" lon="05.628285"><ele>8</ele><time>2021-02-17T10:31:52Z</time><name>PT650</name></trkpt>
<trkpt lat="53.440358" lon="05.628265"><ele>8.1</ele><time>2021-02-17T10:31:54Z</time><name>PT651</name></trkpt>
<trkpt lat="53.440360" lon="05.628246"><ele>8.1</ele><time>2021-02-17T10:31:54Z</time><name>PT652</name></trkpt>
<trkpt lat="53.440361" lon="05.628229"><ele>8.1</ele><time>2021-02-17T10:31:55Z</time><name>PT653</name></trkpt>
<trkpt lat="53.440364" lon="05.628211"><ele>8.3</ele><time>2021-02-17T10:31:57Z</time><name>PT654</name></trkpt>
<trkpt lat="53.440369" lon="05.628191"><ele>8.3</ele><time>2021-02-17T10:31:57Z</time><name>PT655</name></trkpt>
<trkpt lat="53.440375" lon="05.628171"><ele>8.3</ele><time>2021-02-17T10:31:58Z</time><name>PT656</name></trkpt>
<trkpt lat="53.440380" lon="05.628150"><ele>8.3</ele><time>2021-02-17T10:32:00Z</time><name>PT657</name></trkpt>
<trkpt lat="53.440384" lon="05.628131"><ele>8.3</ele><time>2021-02-17T10:32:00Z</time><name>PT658</name></trkpt>
<trkpt lat="53.440387" lon="05.628113"><ele>8.3</ele><time>2021-02-17T10:32:01Z</time><name>PT659</name></trkpt>
<trkpt lat="53.440389" lon="05.628092"><ele>8.3</ele><time>2021-02-17T10:32:03Z</time><name>PT660</name></trkpt>
<trkpt lat="53.440392" lon="05.628072"><ele>8.4</ele><time>2021-02-17T10:32:03Z</time><name>PT661</name></trkpt>
<trkpt lat="53.440396" lon="05.628052"><ele>8.3</ele><time>2021-02-17T10:32:04Z</time><name>PT662</name></trkpt>
<trkpt lat="53.440399" lon="05.628031"><ele>8.4</ele><time>2021-02-17T10:32:06Z</time><name>PT663</name></trkpt>
<trkpt lat="53.440402" lon="05.628012"><ele>8.4</ele><time>2021-02-17T10:32:06Z</time><name>PT664</name></trkpt>
<trkpt lat="53.440406" lon="05.627995"><ele>8.4</ele><time>2021-02-17T10:32:07Z</time><name>PT665</name></trkpt>
<trkpt lat="53.440409" lon="05.627975"><ele>8.5</ele><time>2021-02-17T10:32:09Z</time><name>PT666</name></trkpt>
<trkpt lat="53.440411" lon="05.627956"><ele>8.5</ele><time>2021-02-17T10:32:09Z</time><name>PT667</name></trkpt>
<trkpt lat="53.440412" lon="05.627936"><ele>8.3</ele><time>2021-02-17T10:32:10Z</time><name>PT668</name></trkpt>
<trkpt lat="53.440414" lon="05.627915"><ele>8.1</ele><time>2021-02-17T10:32:12Z</time><name>PT669</name></trkpt>
<trkpt lat="53.440418" lon="05.627893"><ele>8</ele><time>2021-02-17T10:32:12Z</time><name>PT670</name></trkpt>
<trkpt lat="53.440421" lon="05.627874"><ele>7.9</ele><time>2021-02-17T10:32:13Z</time><name>PT671</name></trkpt>
<trkpt lat="53.440424" lon="05.627856"><ele>8</ele><time>2021-02-17T10:32:15Z</time><name>PT672</name></trkpt>
<trkpt lat="53.440428" lon="05.627835"><ele>8.2</ele><time>2021-02-17T10:32:15Z</time><name>PT673</name></trkpt>
<trkpt lat="53.440432" lon="05.627817"><ele>8.3</ele><time>2021-02-17T10:32:16Z</time><name>PT674</name></trkpt>
<trkpt lat="53.440437" lon="05.627796"><ele>8.5</ele><time>2021-02-17T10:32:18Z</time><name>PT675</name></trkpt>
<trkpt lat="53.440440" lon="05.627776"><ele>8.5</ele><time>2021-02-17T10:32:18Z</time><name>PT676</name></trkpt>
<trkpt lat="53.440442" lon="05.627758"><ele>8.4</ele><time>2021-02-17T10:32:19Z</time><name>PT677</name></trkpt>
<trkpt lat="53.440446" lon="05.627739"><ele>8.3</ele><time>2021-02-17T10:32:21Z</time><name>PT678</name></trkpt>
<trkpt lat="53.440450" lon="05.627719"><ele>8.3</ele><time>2021-02-17T10:32:21Z</time><name>PT679</name></trkpt>
<trkpt lat="53.440454" lon="05.627698"><ele>8.1</ele><time>2021-02-17T10:32:22Z</time><name>PT680</name></trkpt>
<trkpt lat="53.440457" lon="05.627678"><ele>7.9</ele><time>2021-02-17T10:32:24Z</time><name>PT681</name></trkpt>
<trkpt lat="53.440459" lon="05.627659"><ele>7.8</ele><time>2021-02-17T10:32:24Z</time><name>PT682</name></trkpt>
<trkpt lat="53.440461" lon="05.627637"><ele>7.4</ele><time>2021-02-17T10:32:25Z</time><name>PT683</name></trkpt>
<trkpt lat="53.440465" lon="05.627611"><ele>7.4</ele><time>2021-02-17T10:32:27Z</time><name>PT684</name></trkpt>
<trkpt lat="53.440466" lon="05.627593"><ele>7.4</ele><time>2021-02-17T10:32:27Z</time><name>PT685</name></trkpt>
<trkpt lat="53.440469" lon="05.627571"><ele>7.4</ele><time>2021-02-17T10:32:28Z</time><name>PT686</name></trkpt>
<trkpt lat="53.440473" lon="05.627555"><ele>7.8</ele><time>2021-02-17T10:32:30Z</time><name>PT687</name></trkpt>
<trkpt lat="53.440476" lon="05.627538"><ele>7.9</ele><time>2021-02-17T10:32:30Z</time><name>PT688</name></trkpt>
<trkpt lat="53.440480" lon="05.627520"><ele>8.1</ele><time>2021-02-17T10:32:31Z</time><name>PT689</name></trkpt>
<trkpt lat="53.440485" lon="05.627502"><ele>8.3</ele><time>2021-02-17T10:32:33Z</time><name>PT690</name></trkpt>
<trkpt lat="53.440491" lon="05.627483"><ele>8.3</ele><time>2021-02-17T10:32:33Z</time><name>PT691</name></trkpt>
<trkpt lat="53.440494" lon="05.627464"><ele>8.4</ele><time>2021-02-17T10:32:34Z</time><name>PT692</name></trkpt>
<trkpt lat="53.440498" lon="05.627442"><ele>8.7</ele><time>2021-02-17T10:32:36Z</time><name>PT693</name></trkpt>
<trkpt lat="53.440501" lon="05.627422"><ele>8.8</ele><time>2021-02-17T10:32:36Z</time><name>PT694</name></trkpt>
<trkpt lat="53.440504" lon="05.627404"><ele>8.8</ele><time>2021-02-17T10:32:37Z</time><name>PT695</name></trkpt>
<trkpt lat="53.440506" lon="05.627386"><ele>8.9</ele><time>2021-02-17T10:32:39Z</time><name>PT696</name></trkpt>
<trkpt lat="53.440510" lon="05.627366"><ele>8.9</ele><time>2021-02-17T10:32:39Z</time><name>PT697</name></trkpt>
<trkpt lat="53.440511" lon="05.627346"><ele>8.8</ele><time>2021-02-17T10:32:40Z</time><name>PT698</name></trkpt>
<trkpt lat="53.440514" lon="05.627325"><ele>8.6</ele><time>2021-02-17T10:32:42Z</time><name>PT699</name></trkpt>
<trkpt lat="53.440517" lon="05.627305"><ele>8.2</ele><time>2021-02-17T10:32:42Z</time><name>PT700</name></trkpt>
<trkpt lat="53.440518" lon="05.627284"><ele>7.8</ele><time>2021-02-17T10:32:43Z</time><name>PT701</name></trkpt>
<trkpt lat="53.440520" lon="05.627264"><ele>7.5</ele><time>2021-02-17T10:32:45Z</time><name>PT702</name></trkpt>
<trkpt lat="53.440524" lon="05.627245"><ele>7.4</ele><time>2021-02-17T10:32:45Z</time><name>PT703</name></trkpt>
<trkpt lat="53.440525" lon="05.627226"><ele>7.4</ele><time>2021-02-17T10:32:46Z</time><name>PT704</name></trkpt>
<trkpt lat="53.440527" lon="05.627206"><ele>7.5</ele><time>2021-02-17T10:32:48Z</time><name>PT705</name></trkpt>
<trkpt lat="53.440528" lon="05.627186"><ele>7.5</ele><time>2021-02-17T10:32:48Z</time><name>PT706</name></trkpt>
<trkpt lat="53.440530" lon="05.627165"><ele>7.6</ele><time>2021-02-17T10:32:49Z</time><name>PT707</name></trkpt>
<trkpt lat="53.440530" lon="05.627146"><ele>7.7</ele><time>2021-02-17T10:32:51Z</time><name>PT708</name></trkpt>
<trkpt lat="53.440529" lon="05.627124"><ele>7.7</ele><time>2021-02-17T10:32:51Z</time><name>PT709</name></trkpt>
<trkpt lat="53.440529" lon="05.627103"><ele>7.9</ele><time>2021-02-17T10:32:52Z</time><name>PT710</name></trkpt>
<trkpt lat="53.440529" lon="05.627083"><ele>7.7</ele><time>2021-02-17T10:32:54Z</time><name>PT711</name></trkpt>
<trkpt lat="53.440529" lon="05.627062"><ele>7.7</ele><time>2021-02-17T10:32:54Z</time><name>PT712</name></trkpt>
<trkpt lat="53.440528" lon="05.627041"><ele>7.4</ele><time>2021-02-17T10:32:55Z</time><name>PT713</name></trkpt>
<trkpt lat="53.440528" lon="05.627019"><ele>7.4</ele><time>2021-02-17T10:32:57Z</time><name>PT714</name></trkpt>
<trkpt lat="53.440527" lon="05.626997"><ele>7.5</ele><time>2021-02-17T10:32:57Z</time><name>PT715</name></trkpt>
<trkpt lat="53.440526" lon="05.626975"><ele>7.7</ele><time>2021-02-17T10:32:58Z</time><name>PT716</name></trkpt>
<trkpt lat="53.440524" lon="05.626955"><ele>7.8</ele><time>2021-02-17T10:33:00Z</time><name>PT717</name></trkpt>
<trkpt lat="53.440520" lon="05.626936"><ele>7.8</ele><time>2021-02-17T10:33:00Z</time><name>PT718</name></trkpt>
<trkpt lat="53.440518" lon="05.626916"><ele>7.8</ele><time>2021-02-17T10:33:01Z</time><name>PT719</name></trkpt>
<trkpt lat="53.440517" lon="05.626894"><ele>7.8</ele><time>2021-02-17T10:33:03Z</time><name>PT720</name></trkpt>
<trkpt lat="53.440515" lon="05.626872"><ele>7.8</ele><time>2021-02-17T10:33:03Z</time><name>PT721</name></trkpt>
<trkpt lat="53.440511" lon="05.626851"><ele>7.8</ele><time>2021-02-17T10:33:04Z</time><name>PT722</name></trkpt>
<trkpt lat="53.440507" lon="05.626832"><ele>7.8</ele><time>2021-02-17T10:33:06Z</time><name>PT723</name></trkpt>
<trkpt lat="53.440503" lon="05.626816"><ele>7.7</ele><time>2021-02-17T10:33:06Z</time><name>PT724</name></trkpt>
<trkpt lat="53.440497" lon="05.626801"><ele>7.8</ele><time>2021-02-17T10:33:07Z</time><name>PT725</name></trkpt>
<trkpt lat="53.440494" lon="05.626781"><ele>7.8</ele><time>2021-02-17T10:33:09Z</time><name>PT726</name></trkpt>
<trkpt lat="53.440488" lon="05.626762"><ele>7.9</ele><time>2021-02-17T10:33:09Z</time><name>PT727</name></trkpt>
<trkpt lat="53.440485" lon="05.626744"><ele>8.2</ele><time>2021-02-17T10:33:10Z</time><name>PT728</name></trkpt>
<trkpt lat="53.440481" lon="05.626722"><ele>8.3</ele><time>2021-02-17T10:33:12Z</time><name>PT729</name></trkpt>
<trkpt lat="53.440476" lon="05.626704"><ele>8.3</ele><time>2021-02-17T10:33:12Z</time><name>PT730</name></trkpt>
<trkpt lat="53.440471" lon="05.626687"><ele>8.3</ele><time>2021-02-17T10:33:13Z</time><name>PT731</name></trkpt>
<trkpt lat="53.440467" lon="05.626665"><ele>8.2</ele><time>2021-02-17T10:33:15Z</time><name>PT732</name></trkpt>
<trkpt lat="53.440462" lon="05.626650"><ele>8.2</ele><time>2021-02-17T10:33:15Z</time><name>PT733</name></trkpt>
<trkpt lat="53.440457" lon="05.626631"><ele>8.2</ele><time>2021-02-17T10:33:16Z</time><name>PT734</name></trkpt>
<trkpt lat="53.440452" lon="05.626611"><ele>8.3</ele><time>2021-02-17T10:33:18Z</time><name>PT735</name></trkpt>
<trkpt lat="53.440447" lon="05.626595"><ele>8.4</ele><time>2021-02-17T10:33:18Z</time><name>PT736</name></trkpt>
<trkpt lat="53.440444" lon="05.626576"><ele>8.6</ele><time>2021-02-17T10:33:19Z</time><name>PT737</name></trkpt>
<trkpt lat="53.440439" lon="05.626558"><ele>8.6</ele><time>2021-02-17T10:33:21Z</time><name>PT738</name></trkpt>
<trkpt lat="53.440433" lon="05.626538"><ele>8.5</ele><time>2021-02-17T10:33:21Z</time><name>PT739</name></trkpt>
<trkpt lat="53.440426" lon="05.626521"><ele>8.6</ele><time>2021-02-17T10:33:22Z</time><name>PT740</name></trkpt>
<trkpt lat="53.440419" lon="05.626504"><ele>8.3</ele><time>2021-02-17T10:33:24Z</time><name>PT741</name></trkpt>
<trkpt lat="53.440413" lon="05.626487"><ele>8.3</ele><time>2021-02-17T10:33:24Z</time><name>PT742</name></trkpt>
<trkpt lat="53.440406" lon="05.626468"><ele>8.2</ele><time>2021-02-17T10:33:25Z</time><name>PT743</name></trkpt>
<trkpt lat="53.440399" lon="05.626449"><ele>8.1</ele><time>2021-02-17T10:33:27Z</time><name>PT744</name></trkpt>
<trkpt lat="53.440392" lon="05.626431"><ele>7.8</ele><time>2021-02-17T10:33:27Z</time><name>PT745</name></trkpt>
<trkpt lat="53.440384" lon="05.626414"><ele>7.8</ele><time>2021-02-17T10:33:28Z</time><name>PT746</name></trkpt>
<trkpt lat="53.440376" lon="05.626395"><ele>7.6</ele><time>2021-02-17T10:33:30Z</time><name>PT747</name></trkpt>
<trkpt lat="53.440369" lon="05.626378"><ele>7.5</ele><time>2021-02-17T10:33:30Z</time><name>PT748</name></trkpt>
<trkpt lat="53.440360" lon="05.626361"><ele>7.4</ele><time>2021-02-17T10:33:31Z</time><name>PT749</name></trkpt>
<trkpt lat="53.440352" lon="05.626346"><ele>7.6</ele><time>2021-02-17T10:33:33Z</time><name>PT750</name></trkpt>
<trkpt lat="53.440344" lon="05.626331"><ele>7.6</ele><time>2021-02-17T10:33:33Z</time><name>PT751</name></trkpt>
<trkpt lat="53.440339" lon="05.626317"><ele>7.8</ele><time>2021-02-17T10:33:34Z</time><name>PT752</name></trkpt>
<trkpt lat="53.440333" lon="05.626304"><ele>7.9</ele><time>2021-02-17T10:33:36Z</time><name>PT753</name></trkpt>
<trkpt lat="53.440327" lon="05.626292"><ele>8.1</ele><time>2021-02-17T10:33:36Z</time><name>PT754</name></trkpt>
<trkpt lat="53.440320" lon="05.626276"><ele>7.9</ele><time>2021-02-17T10:33:37Z</time><name>PT755</name></trkpt>
<trkpt lat="53.440313" lon="05.626260"><ele>7.6</ele><time>2021-02-17T10:33:39Z</time><name>PT756</name></trkpt>
<trkpt lat="53.440305" lon="05.626244"><ele>7.5</ele><time>2021-02-17T10:33:39Z</time><name>PT757</name></trkpt>
<trkpt lat="53.440296" lon="05.626229"><ele>7.5</ele><time>2021-02-17T10:33:40Z</time><name>PT758</name></trkpt>
<trkpt lat="53.440289" lon="05.626212"><ele>7.4</ele><time>2021-02-17T10:33:42Z</time><name>PT759</name></trkpt>
<trkpt lat="53.440281" lon="05.626197"><ele>7.5</ele><time>2021-02-17T10:33:42Z</time><name>PT760</name></trkpt>
<trkpt lat="53.440273" lon="05.626178"><ele>7.6</ele><time>2021-02-17T10:33:43Z</time><name>PT761</name></trkpt>
<trkpt lat="53.440262" lon="05.626172"><ele>7.5</ele><time>2021-02-17T10:33:45Z</time><name>PT762</name></trkpt>
<trkpt lat="53.440253" lon="05.626158"><ele>7.7</ele><time>2021-02-17T10:33:45Z</time><name>PT763</name></trkpt>
<trkpt lat="53.440244" lon="05.626145"><ele>7.6</ele><time>2021-02-17T10:33:46Z</time><name>PT764</name></trkpt>
<trkpt lat="53.440236" lon="05.626132"><ele>7.5</ele><time>2021-02-17T10:33:48Z</time><name>PT765</name></trkpt>
<trkpt lat="53.440229" lon="05.626120"><ele>7.5</ele><time>2021-02-17T10:33:48Z</time><name>PT766</name></trkpt>
<trkpt lat="53.440226" lon="05.626113"><ele>7.4</ele><time>2021-02-17T10:33:49Z</time><name>PT767</name></trkpt>
<trkpt lat="53.440225" lon="05.626113"><ele>7.4</ele><time>2021-02-17T10:33:51Z</time><name>PT768</name></trkpt>
<trkpt lat="53.440226" lon="05.626114"><ele>7.6</ele><time>2021-02-17T10:33:51Z</time><name>PT769</name></trkpt>
<trkpt lat="53.440226" lon="05.626111"><ele>7.8</ele><time>2021-02-17T10:33:52Z</time><name>PT770</name></trkpt>
<trkpt lat="53.440224" lon="05.626104"><ele>8.1</ele><time>2021-02-17T10:33:54Z</time><name>PT771</name></trkpt>
<trkpt lat="53.440223" lon="05.626097"><ele>8.1</ele><time>2021-02-17T10:33:54Z</time><name>PT772</name></trkpt>
<trkpt lat="53.440220" lon="05.626095"><ele>7.9</ele><time>2021-02-17T10:33:57Z</time><name>PT773</name></trkpt>
<trkpt lat="53.440215" lon="05.626087"><ele>7.8</ele><time>2021-02-17T10:33:57Z</time><name>PT774</name></trkpt>
<trkpt lat="53.440210" lon="05.626084"><ele>7.7</ele><time>2021-02-17T10:33:58Z</time><name>PT775</name></trkpt>
<trkpt lat="53.440209" lon="05.626088"><ele>8.3</ele><time>2021-02-17T10:34:06Z</time><name>PT776</name></trkpt>
<trkpt lat="53.440210" lon="05.626090"><ele>8.2</ele><time>2021-02-17T10:34:06Z</time><name>PT777</name></trkpt>
<trkpt lat="53.440205" lon="05.626083"><ele>8.2</ele><time>2021-02-17T10:34:07Z</time><name>PT778</name></trkpt>
<trkpt lat="53.440204" lon="05.626075"><ele>8.1</ele><time>2021-02-17T10:34:09Z</time><name>PT779</name></trkpt>
<trkpt lat="53.440198" lon="05.626066"><ele>7.9</ele><time>2021-02-17T10:34:09Z</time><name>PT780</name></trkpt>
<trkpt lat="53.440193" lon="05.626058"><ele>7.9</ele><time>2021-02-17T10:34:10Z</time><name>PT781</name></trkpt>
<trkpt lat="53.440190" lon="05.626045"><ele>7.8</ele><time>2021-02-17T10:34:12Z</time><name>PT782</name></trkpt>
<trkpt lat="53.440186" lon="05.626031"><ele>7.8</ele><time>2021-02-17T10:34:12Z</time><name>PT783</name></trkpt>
<trkpt lat="53.440184" lon="05.626030"><ele>7.6</ele><time>2021-02-17T10:34:13Z</time><name>PT784</name></trkpt>
<trkpt lat="53.440183" lon="05.626031"><ele>7.8</ele><time>2021-02-17T10:34:15Z</time><name>PT785</name></trkpt>
<trkpt lat="53.440183" lon="05.626031"><ele>7.8</ele><time>2021-02-17T10:34:15Z</time><name>PT786</name></trkpt>
<trkpt lat="53.440176" lon="05.626025"><ele>8.6</ele><time>2021-02-17T10:34:22Z</time><name>PT787</name></trkpt>
<trkpt lat="53.440168" lon="05.626012"><ele>8.3</ele><time>2021-02-17T10:34:24Z</time><name>PT788</name></trkpt>
<trkpt lat="53.440162" lon="05.625996"><ele>8.3</ele><time>2021-02-17T10:34:24Z</time><name>PT789</name></trkpt>
<trkpt lat="53.440158" lon="05.625981"><ele>8</ele><time>2021-02-17T10:34:25Z</time><name>PT790</name></trkpt>
<trkpt lat="53.440154" lon="05.625968"><ele>7.9</ele><time>2021-02-17T10:34:27Z</time><name>PT791</name></trkpt>
<trkpt lat="53.440149" lon="05.625951"><ele>7.8</ele><time>2021-02-17T10:34:27Z</time><name>PT792</name></trkpt>
<trkpt lat="53.440143" lon="05.625934"><ele>7.8</ele><time>2021-02-17T10:34:28Z</time><name>PT793</name></trkpt>
<trkpt lat="53.440137" lon="05.625916"><ele>7.4</ele><time>2021-02-17T10:34:30Z</time><name>PT794</name></trkpt>
<trkpt lat="53.440131" lon="05.625899"><ele>7.4</ele><time>2021-02-17T10:34:30Z</time><name>PT795</name></trkpt>
<trkpt lat="53.440124" lon="05.625883"><ele>7.3</ele><time>2021-02-17T10:34:31Z</time><name>PT796</name></trkpt>
<trkpt lat="53.440118" lon="05.625868"><ele>7.3</ele><time>2021-02-17T10:34:33Z</time><name>PT797</name></trkpt>
<trkpt lat="53.440109" lon="05.625852"><ele>7.4</ele><time>2021-02-17T10:34:33Z</time><name>PT798</name></trkpt>
<trkpt lat="53.440101" lon="05.625835"><ele>7.5</ele><time>2021-02-17T10:34:34Z</time><name>PT799</name></trkpt>
<trkpt lat="53.440092" lon="05.625819"><ele>7.4</ele><time>2021-02-17T10:34:36Z</time><name>PT800</name></trkpt>
<trkpt lat="53.440084" lon="05.625803"><ele>7.4</ele><time>2021-02-17T10:34:36Z</time><name>PT801</name></trkpt>
<trkpt lat="53.440077" lon="05.625787"><ele>7.5</ele><time>2021-02-17T10:34:37Z</time><name>PT802</name></trkpt>
<trkpt lat="53.440072" lon="05.625769"><ele>7.3</ele><time>2021-02-17T10:34:39Z</time><name>PT803</name></trkpt>
<trkpt lat="53.440066" lon="05.625752"><ele>7.3</ele><time>2021-02-17T10:34:39Z</time><name>PT804</name></trkpt>
<trkpt lat="53.440060" lon="05.625736"><ele>7.3</ele><time>2021-02-17T10:34:40Z</time><name>PT805</name></trkpt>
<trkpt lat="53.440052" lon="05.625718"><ele>7.2</ele><time>2021-02-17T10:34:42Z</time><name>PT806</name></trkpt>
<trkpt lat="53.440045" lon="05.625701"><ele>7.3</ele><time>2021-02-17T10:34:42Z</time><name>PT807</name></trkpt>
<trkpt lat="53.440037" lon="05.625686"><ele>7.2</ele><time>2021-02-17T10:34:43Z</time><name>PT808</name></trkpt>
<trkpt lat="53.440029" lon="05.625670"><ele>7.3</ele><time>2021-02-17T10:34:45Z</time><name>PT809</name></trkpt>
<trkpt lat="53.440022" lon="05.625656"><ele>7.4</ele><time>2021-02-17T10:34:45Z</time><name>PT810</name></trkpt>
<trkpt lat="53.440014" lon="05.625642"><ele>7.3</ele><time>2021-02-17T10:34:46Z</time><name>PT811</name></trkpt>
<trkpt lat="53.440006" lon="05.625628"><ele>7.4</ele><time>2021-02-17T10:34:48Z</time><name>PT812</name></trkpt>
<trkpt lat="53.440000" lon="05.625615"><ele>7.4</ele><time>2021-02-17T10:34:48Z</time><name>PT813</name></trkpt>
<trkpt lat="53.439995" lon="05.625598"><ele>7.4</ele><time>2021-02-17T10:34:49Z</time><name>PT814</name></trkpt>
<trkpt lat="53.439988" lon="05.625581"><ele>7.5</ele><time>2021-02-17T10:34:51Z</time><name>PT815</name></trkpt>
<trkpt lat="53.439981" lon="05.625564"><ele>7.5</ele><time>2021-02-17T10:34:51Z</time><name>PT816</name></trkpt>
<trkpt lat="53.439973" lon="05.625548"><ele>7.4</ele><time>2021-02-17T10:34:52Z</time><name>PT817</name></trkpt>
<trkpt lat="53.439967" lon="05.625532"><ele>7.3</ele><time>2021-02-17T10:34:54Z</time><name>PT818</name></trkpt>
<trkpt lat="53.439960" lon="05.625518"><ele>7.3</ele><time>2021-02-17T10:34:54Z</time><name>PT819</name></trkpt>
<trkpt lat="53.439954" lon="05.625502"><ele>7.3</ele><time>2021-02-17T10:34:55Z</time><name>PT820</name></trkpt>
<trkpt lat="53.439945" lon="05.625486"><ele>7.3</ele><time>2021-02-17T10:34:57Z</time><name>PT821</name></trkpt>
<trkpt lat="53.439937" lon="05.625472"><ele>7.4</ele><time>2021-02-17T10:34:57Z</time><name>PT822</name></trkpt>
<trkpt lat="53.439930" lon="05.625457"><ele>7.4</ele><time>2021-02-17T10:34:58Z</time><name>PT823</name></trkpt>
<trkpt lat="53.439923" lon="05.625445"><ele>7.5</ele><time>2021-02-17T10:35:00Z</time><name>PT824</name></trkpt>
<trkpt lat="53.439916" lon="05.625431"><ele>7.4</ele><time>2021-02-17T10:35:00Z</time><name>PT825</name></trkpt>
<trkpt lat="53.439914" lon="05.625417"><ele>7.4</ele><time>2021-02-17T10:35:01Z</time><name>PT826</name></trkpt>
<trkpt lat="53.439913" lon="05.625412"><ele>7.4</ele><time>2021-02-17T10:35:03Z</time><name>PT827</name></trkpt>
<trkpt lat="53.439913" lon="05.625413"><ele>7.4</ele><time>2021-02-17T10:35:03Z</time><name>PT828</name></trkpt>
<trkpt lat="53.439912" lon="05.625414"><ele>7.5</ele><time>2021-02-17T10:35:04Z</time><name>PT829</name></trkpt>
<trkpt lat="53.439912" lon="05.625412"><ele>8</ele><time>2021-02-17T10:35:12Z</time><name>PT830</name></trkpt>
<trkpt lat="53.439907" lon="05.625404"><ele>7.9</ele><time>2021-02-17T10:35:12Z</time><name>PT831</name></trkpt>
<trkpt lat="53.439905" lon="05.625399"><ele>7.9</ele><time>2021-02-17T10:35:13Z</time><name>PT832</name></trkpt>
<trkpt lat="53.439904" lon="05.625392"><ele>8</ele><time>2021-02-17T10:35:15Z</time><name>PT833</name></trkpt>
<trkpt lat="53.439902" lon="05.625388"><ele>8.1</ele><time>2021-02-17T10:35:15Z</time><name>PT834</name></trkpt>
<trkpt lat="53.439895" lon="05.625386"><ele>8.2</ele><time>2021-02-17T10:35:16Z</time><name>PT835</name></trkpt>
<trkpt lat="53.439893" lon="05.625386"><ele>8.3</ele><time>2021-02-17T10:35:18Z</time><name>PT836</name></trkpt>
<trkpt lat="53.439892" lon="05.625384"><ele>8.4</ele><time>2021-02-17T10:35:18Z</time><name>PT837</name></trkpt>
<trkpt lat="53.439890" lon="05.625381"><ele>8.5</ele><time>2021-02-17T10:35:19Z</time><name>PT838</name></trkpt>
<trkpt lat="53.439886" lon="05.625377"><ele>8.3</ele><time>2021-02-17T10:35:30Z</time><name>PT839</name></trkpt>
<trkpt lat="53.439882" lon="05.625364"><ele>8.3</ele><time>2021-02-17T10:35:31Z</time><name>PT840</name></trkpt>
<trkpt lat="53.439878" lon="05.625349"><ele>8.2</ele><time>2021-02-17T10:35:33Z</time><name>PT841</name></trkpt>
<trkpt lat="53.439875" lon="05.625336"><ele>8.2</ele><time>2021-02-17T10:35:33Z</time><name>PT842</name></trkpt>
<trkpt lat="53.439871" lon="05.625333"><ele>8.2</ele><time>2021-02-17T10:35:34Z</time><name>PT843</name></trkpt>
<trkpt lat="53.439869" lon="05.625330"><ele>7.8</ele><time>2021-02-17T10:35:36Z</time><name>PT844</name></trkpt>
<trkpt lat="53.439871" lon="05.625326"><ele>7.8</ele><time>2021-02-17T10:35:36Z</time><name>PT845</name></trkpt>
<trkpt lat="53.439867" lon="05.625320"><ele>8.2</ele><time>2021-02-17T10:35:42Z</time><name>PT846</name></trkpt>
<trkpt lat="53.439860" lon="05.625299"><ele>8</ele><time>2021-02-17T10:35:43Z</time><name>PT847</name></trkpt>
<trkpt lat="53.439854" lon="05.625279"><ele>7.8</ele><time>2021-02-17T10:35:45Z</time><name>PT848</name></trkpt>
<trkpt lat="53.439847" lon="05.625260"><ele>7.8</ele><time>2021-02-17T10:35:45Z</time><name>PT849</name></trkpt>
<trkpt lat="53.439840" lon="05.625240"><ele>7.6</ele><time>2021-02-17T10:35:46Z</time><name>PT850</name></trkpt>
<trkpt lat="53.439834" lon="05.625224"><ele>7.6</ele><time>2021-02-17T10:35:48Z</time><name>PT851</name></trkpt>
<trkpt lat="53.439829" lon="05.625206"><ele>7.7</ele><time>2021-02-17T10:35:48Z</time><name>PT852</name></trkpt>
<trkpt lat="53.439822" lon="05.625188"><ele>7.7</ele><time>2021-02-17T10:35:49Z</time><name>PT853</name></trkpt>
<trkpt lat="53.439816" lon="05.625170"><ele>7.8</ele><time>2021-02-17T10:35:51Z</time><name>PT854</name></trkpt>
<trkpt lat="53.439809" lon="05.625151"><ele>7.7</ele><time>2021-02-17T10:35:51Z</time><name>PT855</name></trkpt>
<trkpt lat="53.439803" lon="05.625131"><ele>7.7</ele><time>2021-02-17T10:35:52Z</time><name>PT856</name></trkpt>
<trkpt lat="53.439798" lon="05.625113"><ele>7.6</ele><time>2021-02-17T10:35:54Z</time><name>PT857</name></trkpt>
<trkpt lat="53.439794" lon="05.625094"><ele>7.3</ele><time>2021-02-17T10:35:54Z</time><name>PT858</name></trkpt>
<trkpt lat="53.439790" lon="05.625076"><ele>7.3</ele><time>2021-02-17T10:35:55Z</time><name>PT859</name></trkpt>
<trkpt lat="53.439786" lon="05.625057"><ele>7.3</ele><time>2021-02-17T10:35:57Z</time><name>PT860</name></trkpt>
<trkpt lat="53.439782" lon="05.625037"><ele>7.3</ele><time>2021-02-17T10:35:57Z</time><name>PT861</name></trkpt>
<trkpt lat="53.439777" lon="05.625017"><ele>7.2</ele><time>2021-02-17T10:35:58Z</time><name>PT862</name></trkpt>
<trkpt lat="53.439771" lon="05.624996"><ele>7.1</ele><time>2021-02-17T10:36:00Z</time><name>PT863</name></trkpt>
<trkpt lat="53.439766" lon="05.624978"><ele>7</ele><time>2021-02-17T10:36:00Z</time><name>PT864</name></trkpt>
<trkpt lat="53.439763" lon="05.624960"><ele>6.9</ele><time>2021-02-17T10:36:01Z</time><name>PT865</name></trkpt>
<trkpt lat="53.439758" lon="05.624943"><ele>7.1</ele><time>2021-02-17T10:36:03Z</time><name>PT866</name></trkpt>
<trkpt lat="53.439754" lon="05.624924"><ele>7</ele><time>2021-02-17T10:36:03Z</time><name>PT867</name></trkpt>
<trkpt lat="53.439750" lon="05.624905"><ele>7.2</ele><time>2021-02-17T10:36:04Z</time><name>PT868</name></trkpt>
<trkpt lat="53.439745" lon="05.624886"><ele>7.3</ele><time>2021-02-17T10:36:06Z</time><name>PT869</name></trkpt>
<trkpt lat="53.439743" lon="05.624868"><ele>7.2</ele><time>2021-02-17T10:36:06Z</time><name>PT870</name></trkpt>
<trkpt lat="53.439740" lon="05.624850"><ele>7.3</ele><time>2021-02-17T10:36:07Z</time><name>PT871</name></trkpt>
<trkpt lat="53.439738" lon="05.624830"><ele>7.4</ele><time>2021-02-17T10:36:09Z</time><name>PT872</name></trkpt>
<trkpt lat="53.439736" lon="05.624810"><ele>7.4</ele><time>2021-02-17T10:36:09Z</time><name>PT873</name></trkpt>
<trkpt lat="53.439733" lon="05.624791"><ele>7.6</ele><time>2021-02-17T10:36:10Z</time><name>PT874</name></trkpt>
<trkpt lat="53.439730" lon="05.624771"><ele>7.4</ele><time>2021-02-17T10:36:12Z</time><name>PT875</name></trkpt>
<trkpt lat="53.439727" lon="05.624753"><ele>7.4</ele><time>2021-02-17T10:36:12Z</time><name>PT876</name></trkpt>
<trkpt lat="53.439725" lon="05.624736"><ele>7.4</ele><time>2021-02-17T10:36:13Z</time><name>PT877</name></trkpt>
<trkpt lat="53.439722" lon="05.624720"><ele>7.3</ele><time>2021-02-17T10:36:15Z</time><name>PT878</name></trkpt>
<trkpt lat="53.439720" lon="05.624706"><ele>7.2</ele><time>2021-02-17T10:36:15Z</time><name>PT879</name></trkpt>
<trkpt lat="53.439716" lon="05.624694"><ele>7.1</ele><time>2021-02-17T10:36:16Z</time><name>PT880</name></trkpt>
<trkpt lat="53.439713" lon="05.624684"><ele>7.3</ele><time>2021-02-17T10:36:18Z</time><name>PT881</name></trkpt>
<trkpt lat="53.439712" lon="05.624678"><ele>7.3</ele><time>2021-02-17T10:36:18Z</time><name>PT882</name></trkpt>
<trkpt lat="53.439712" lon="05.624669"><ele>7.4</ele><time>2021-02-17T10:36:19Z</time><name>PT883</name></trkpt>
<trkpt lat="53.439710" lon="05.624653"><ele>7.5</ele><time>2021-02-17T10:36:21Z</time><name>PT884</name></trkpt>
<trkpt lat="53.439707" lon="05.624636"><ele>7.5</ele><time>2021-02-17T10:36:21Z</time><name>PT885</name></trkpt>
<trkpt lat="53.439705" lon="05.624617"><ele>7.5</ele><time>2021-02-17T10:36:22Z</time><name>PT886</name></trkpt>
<trkpt lat="53.439701" lon="05.624597"><ele>7.5</ele><time>2021-02-17T10:36:24Z</time><name>PT887</name></trkpt>
<trkpt lat="53.439696" lon="05.624578"><ele>7.5</ele><time>2021-02-17T10:36:24Z</time><name>PT888</name></trkpt>
<trkpt lat="53.439692" lon="05.624560"><ele>7.4</ele><time>2021-02-17T10:36:25Z</time><name>PT889</name></trkpt>
<trkpt lat="53.439687" lon="05.624541"><ele>7.7</ele><time>2021-02-17T10:36:27Z</time><name>PT890</name></trkpt>
<trkpt lat="53.439684" lon="05.624523"><ele>7.8</ele><time>2021-02-17T10:36:27Z</time><name>PT891</name></trkpt>
<trkpt lat="53.439681" lon="05.624504"><ele>7.8</ele><time>2021-02-17T10:36:28Z</time><name>PT892</name></trkpt>
<trkpt lat="53.439677" lon="05.624484"><ele>8</ele><time>2021-02-17T10:36:30Z</time><name>PT893</name></trkpt>
<trkpt lat="53.439675" lon="05.624464"><ele>7.9</ele><time>2021-02-17T10:36:30Z</time><name>PT894</name></trkpt>
<trkpt lat="53.439671" lon="05.624444"><ele>7.8</ele><time>2021-02-17T10:36:31Z</time><name>PT895</name></trkpt>
<trkpt lat="53.439668" lon="05.624425"><ele>7.8</ele><time>2021-02-17T10:36:33Z</time><name>PT896</name></trkpt>
<trkpt lat="53.439666" lon="05.624404"><ele>7.7</ele><time>2021-02-17T10:36:33Z</time><name>PT897</name></trkpt>
<trkpt lat="53.439662" lon="05.624384"><ele>7.7</ele><time>2021-02-17T10:36:34Z</time><name>PT898</name></trkpt>
<trkpt lat="53.439658" lon="05.624366"><ele>7.8</ele><time>2021-02-17T10:36:36Z</time><name>PT899</name></trkpt>
<trkpt lat="53.439654" lon="05.624347"><ele>7.9</ele><time>2021-02-17T10:36:36Z</time><name>PT900</name></trkpt>
<trkpt lat="53.439649" lon="05.624327"><ele>8</ele><time>2021-02-17T10:36:37Z</time><name>PT901</name></trkpt>
<trkpt lat="53.439646" lon="05.624306"><ele>7.9</ele><time>2021-02-17T10:36:39Z</time><name>PT902</name></trkpt>
<trkpt lat="53.439642" lon="05.624284"><ele>7.8</ele><time>2021-02-17T10:36:39Z</time><name>PT903</name></trkpt>
<trkpt lat="53.439636" lon="05.624263"><ele>7.8</ele><time>2021-02-17T10:36:40Z</time><name>PT904</name></trkpt>
<trkpt lat="53.439631" lon="05.624245"><ele>7.8</ele><time>2021-02-17T10:36:42Z</time><name>PT905</name></trkpt>
<trkpt lat="53.439626" lon="05.624227"><ele>7.8</ele><time>2021-02-17T10:36:42Z</time><name>PT906</name></trkpt>
<trkpt lat="53.439623" lon="05.624210"><ele>7.9</ele><time>2021-02-17T10:36:43Z</time><name>PT907</name></trkpt>
<trkpt lat="53.439620" lon="05.624191"><ele>7.8</ele><time>2021-02-17T10:36:45Z</time><name>PT908</name></trkpt>
<trkpt lat="53.439617" lon="05.624173"><ele>8</ele><time>2021-02-17T10:36:45Z</time><name>PT909</name></trkpt>
<trkpt lat="53.439614" lon="05.624152"><ele>8</ele><time>2021-02-17T10:36:46Z</time><name>PT910</name></trkpt>
<trkpt lat="53.439610" lon="05.624131"><ele>8</ele><time>2021-02-17T10:36:48Z</time><name>PT911</name></trkpt>
<trkpt lat="53.439606" lon="05.624110"><ele>7.9</ele><time>2021-02-17T10:36:48Z</time><name>PT912</name></trkpt>
<trkpt lat="53.439602" lon="05.624089"><ele>8</ele><time>2021-02-17T10:36:49Z</time><name>PT913</name></trkpt>
<trkpt lat="53.439598" lon="05.624070"><ele>8.1</ele><time>2021-02-17T10:36:51Z</time><name>PT914</name></trkpt>
<trkpt lat="53.439592" lon="05.624051"><ele>8.2</ele><time>2021-02-17T10:36:51Z</time><name>PT915</name></trkpt>
<trkpt lat="53.439587" lon="05.624031"><ele>8.6</ele><time>2021-02-17T10:36:52Z</time><name>PT916</name></trkpt>
<trkpt lat="53.439582" lon="05.624013"><ele>8.4</ele><time>2021-02-17T10:36:54Z</time><name>PT917</name></trkpt>
<trkpt lat="53.439578" lon="05.623996"><ele>8.4</ele><time>2021-02-17T10:36:54Z</time><name>PT918</name></trkpt>
<trkpt lat="53.439575" lon="05.623977"><ele>8.4</ele><time>2021-02-17T10:36:55Z</time><name>PT919</name></trkpt>
<trkpt lat="53.439571" lon="05.623957"><ele>8.6</ele><time>2021-02-17T10:36:57Z</time><name>PT920</name></trkpt>
<trkpt lat="53.439568" lon="05.623938"><ele>8.6</ele><time>2021-02-17T10:36:57Z</time><name>PT921</name></trkpt>
<trkpt lat="53.439564" lon="05.623919"><ele>8.7</ele><time>2021-02-17T10:36:58Z</time><name>PT922</name></trkpt>
<trkpt lat="53.439562" lon="05.623901"><ele>8.7</ele><time>2021-02-17T10:37:00Z</time><name>PT923</name></trkpt>
<trkpt lat="53.439561" lon="05.623883"><ele>8.5</ele><time>2021-02-17T10:37:00Z</time><name>PT924</name></trkpt>
<trkpt lat="53.439558" lon="05.623866"><ele>8.5</ele><time>2021-02-17T10:37:01Z</time><name>PT925</name></trkpt>
<trkpt lat="53.439555" lon="05.623848"><ele>8.5</ele><time>2021-02-17T10:37:03Z</time><name>PT926</name></trkpt>
<trkpt lat="53.439550" lon="05.623830"><ele>8.7</ele><time>2021-02-17T10:37:03Z</time><name>PT927</name></trkpt>
<trkpt lat="53.439546" lon="05.623812"><ele>8.7</ele><time>2021-02-17T10:37:04Z</time><name>PT928</name></trkpt>
<trkpt lat="53.439541" lon="05.623796"><ele>8.8</ele><time>2021-02-17T10:37:06Z</time><name>PT929</name></trkpt>
<trkpt lat="53.439536" lon="05.623780"><ele>8.8</ele><time>2021-02-17T10:37:06Z</time><name>PT930</name></trkpt>
<trkpt lat="53.439532" lon="05.623762"><ele>8.8</ele><time>2021-02-17T10:37:07Z</time><name>PT931</name></trkpt>
<trkpt lat="53.439529" lon="05.623744"><ele>8.7</ele><time>2021-02-17T10:37:09Z</time><name>PT932</name></trkpt>
<trkpt lat="53.439526" lon="05.623726"><ele>8.7</ele><time>2021-02-17T10:37:09Z</time><name>PT933</name></trkpt>
<trkpt lat="53.439522" lon="05.623709"><ele>8.7</ele><time>2021-02-17T10:37:10Z</time><name>PT934</name></trkpt>
<trkpt lat="53.439517" lon="05.623694"><ele>8.6</ele><time>2021-02-17T10:37:12Z</time><name>PT935</name></trkpt>
<trkpt lat="53.439513" lon="05.623678"><ele>8.6</ele><time>2021-02-17T10:37:12Z</time><name>PT936</name></trkpt>
<trkpt lat="53.439508" lon="05.623663"><ele>8.4</ele><time>2021-02-17T10:37:13Z</time><name>PT937</name></trkpt>
<trkpt lat="53.439503" lon="05.623647"><ele>8.4</ele><time>2021-02-17T10:37:15Z</time><name>PT938</name></trkpt>
<trkpt lat="53.439499" lon="05.623631"><ele>8.4</ele><time>2021-02-17T10:37:15Z</time><name>PT939</name></trkpt>
<trkpt lat="53.439497" lon="05.623617"><ele>8.4</ele><time>2021-02-17T10:37:16Z</time><name>PT940</name></trkpt>
<trkpt lat="53.439494" lon="05.623603"><ele>8.4</ele><time>2021-02-17T10:37:18Z</time><name>PT941</name></trkpt>
<trkpt lat="53.439493" lon="05.623586"><ele>8.4</ele><time>2021-02-17T10:37:18Z</time><name>PT942</name></trkpt>
<trkpt lat="53.439490" lon="05.623569"><ele>8.3</ele><time>2021-02-17T10:37:19Z</time><name>PT943</name></trkpt>
<trkpt lat="53.439487" lon="05.623551"><ele>8.1</ele><time>2021-02-17T10:37:21Z</time><name>PT944</name></trkpt>
<trkpt lat="53.439484" lon="05.623535"><ele>8</ele><time>2021-02-17T10:37:21Z</time><name>PT945</name></trkpt>
<trkpt lat="53.439482" lon="05.623517"><ele>7.9</ele><time>2021-02-17T10:37:22Z</time><name>PT946</name></trkpt>
<trkpt lat="53.439478" lon="05.623501"><ele>7.9</ele><time>2021-02-17T10:37:24Z</time><name>PT947</name></trkpt>
<trkpt lat="53.439474" lon="05.623485"><ele>8.2</ele><time>2021-02-17T10:37:24Z</time><name>PT948</name></trkpt>
<trkpt lat="53.439471" lon="05.623471"><ele>8.3</ele><time>2021-02-17T10:37:25Z</time><name>PT949</name></trkpt>
<trkpt lat="53.439469" lon="05.623455"><ele>8.3</ele><time>2021-02-17T10:37:27Z</time><name>PT950</name></trkpt>
<trkpt lat="53.439466" lon="05.623438"><ele>8.5</ele><time>2021-02-17T10:37:27Z</time><name>PT951</name></trkpt>
<trkpt lat="53.439464" lon="05.623421"><ele>8.5</ele><time>2021-02-17T10:37:28Z</time><name>PT952</name></trkpt>
<trkpt lat="53.439461" lon="05.623403"><ele>8.6</ele><time>2021-02-17T10:37:30Z</time><name>PT953</name></trkpt>
<trkpt lat="53.439457" lon="05.623387"><ele>8.5</ele><time>2021-02-17T10:37:30Z</time><name>PT954</name></trkpt>
<trkpt lat="53.439453" lon="05.623371"><ele>8.7</ele><time>2021-02-17T10:37:31Z</time><name>PT955</name></trkpt>
<trkpt lat="53.439450" lon="05.623354"><ele>8.8</ele><time>2021-02-17T10:37:33Z</time><name>PT956</name></trkpt>
<trkpt lat="53.439445" lon="05.623338"><ele>8.8</ele><time>2021-02-17T10:37:33Z</time><name>PT957</name></trkpt>
<trkpt lat="53.439440" lon="05.623318"><ele>8.8</ele><time>2021-02-17T10:37:34Z</time><name>PT958</name></trkpt>
<trkpt lat="53.439435" lon="05.623301"><ele>8.8</ele><time>2021-02-17T10:37:36Z</time><name>PT959</name></trkpt>
<trkpt lat="53.439432" lon="05.623286"><ele>8.8</ele><time>2021-02-17T10:37:36Z</time><name>PT960</name></trkpt>
<trkpt lat="53.439430" lon="05.623272"><ele>9</ele><time>2021-02-17T10:37:37Z</time><name>PT961</name></trkpt>
<trkpt lat="53.439427" lon="05.623255"><ele>9.1</ele><time>2021-02-17T10:37:39Z</time><name>PT962</name></trkpt>
<trkpt lat="53.439422" lon="05.623236"><ele>9.2</ele><time>2021-02-17T10:37:39Z</time><name>PT963</name></trkpt>
<trkpt lat="53.439418" lon="05.623218"><ele>9</ele><time>2021-02-17T10:37:40Z</time><name>PT964</name></trkpt>
<trkpt lat="53.439414" lon="05.623199"><ele>8.8</ele><time>2021-02-17T10:37:42Z</time><name>PT965</name></trkpt>
<trkpt lat="53.439410" lon="05.623179"><ele>8.7</ele><time>2021-02-17T10:37:42Z</time><name>PT966</name></trkpt>
<trkpt lat="53.439404" lon="05.623161"><ele>8.7</ele><time>2021-02-17T10:37:43Z</time><name>PT967</name></trkpt>
<trkpt lat="53.439399" lon="05.623142"><ele>8.7</ele><time>2021-02-17T10:37:45Z</time><name>PT968</name></trkpt>
<trkpt lat="53.439397" lon="05.623123"><ele>8.7</ele><time>2021-02-17T10:37:45Z</time><name>PT969</name></trkpt>
<trkpt lat="53.439392" lon="05.623106"><ele>8.6</ele><time>2021-02-17T10:37:46Z</time><name>PT970</name></trkpt>
<trkpt lat="53.439388" lon="05.623090"><ele>8.4</ele><time>2021-02-17T10:37:48Z</time><name>PT971</name></trkpt>
<trkpt lat="53.439386" lon="05.623072"><ele>8.3</ele><time>2021-02-17T10:37:48Z</time><name>PT972</name></trkpt>
<trkpt lat="53.439382" lon="05.623055"><ele>8.3</ele><time>2021-02-17T10:37:49Z</time><name>PT973</name></trkpt>
<trkpt lat="53.439379" lon="05.623036"><ele>8.3</ele><time>2021-02-17T10:37:51Z</time><name>PT974</name></trkpt>
<trkpt lat="53.439375" lon="05.623017"><ele>8.3</ele><time>2021-02-17T10:37:51Z</time><name>PT975</name></trkpt>
<trkpt lat="53.439371" lon="05.622997"><ele>8.5</ele><time>2021-02-17T10:37:52Z</time><name>PT976</name></trkpt>
<trkpt lat="53.439369" lon="05.622980"><ele>8.6</ele><time>2021-02-17T10:37:54Z</time><name>PT977</name></trkpt>
<trkpt lat="53.439365" lon="05.622963"><ele>8.7</ele><time>2021-02-17T10:37:54Z</time><name>PT978</name></trkpt>
<trkpt lat="53.439360" lon="05.622941"><ele>8.8</ele><time>2021-02-17T10:37:55Z</time><name>PT979</name></trkpt>
<trkpt lat="53.439356" lon="05.622922"><ele>8.8</ele><time>2021-02-17T10:37:57Z</time><name>PT980</name></trkpt>
<trkpt lat="53.439353" lon="05.622903"><ele>8.8</ele><time>2021-02-17T10:37:57Z</time><name>PT981</name></trkpt>
<trkpt lat="53.439349" lon="05.622881"><ele>8.9</ele><time>2021-02-17T10:37:58Z</time><name>PT982</name></trkpt>
<trkpt lat="53.439346" lon="05.622860"><ele>9</ele><time>2021-02-17T10:38:00Z</time><name>PT983</name></trkpt>
<trkpt lat="53.439341" lon="05.622841"><ele>8.9</ele><time>2021-02-17T10:38:00Z</time><name>PT984</name></trkpt>
<trkpt lat="53.439337" lon="05.622822"><ele>8.9</ele><time>2021-02-17T10:38:01Z</time><name>PT985</name></trkpt>
<trkpt lat="53.439335" lon="05.622801"><ele>8.9</ele><time>2021-02-17T10:38:03Z</time><name>PT986</name></trkpt>
<trkpt lat="53.439332" lon="05.622783"><ele>8.9</ele><time>2021-02-17T10:38:03Z</time><name>PT987</name></trkpt>
<trkpt lat="53.439329" lon="05.622765"><ele>8.8</ele><time>2021-02-17T10:38:04Z</time><name>PT988</name></trkpt>
<trkpt lat="53.439324" lon="05.622748"><ele>8.9</ele><time>2021-02-17T10:38:06Z</time><name>PT989</name></trkpt>
<trkpt lat="53.439321" lon="05.622734"><ele>8.9</ele><time>2021-02-17T10:38:06Z</time><name>PT990</name></trkpt>
<trkpt lat="53.439317" lon="05.622719"><ele>8.9</ele><time>2021-02-17T10:38:07Z</time><name>PT991</name></trkpt>
<trkpt lat="53.439314" lon="05.622702"><ele>9</ele><time>2021-02-17T10:38:09Z</time><name>PT992</name></trkpt>
<trkpt lat="53.439310" lon="05.622685"><ele>9.1</ele><time>2021-02-17T10:38:09Z</time><name>PT993</name></trkpt>
<trkpt lat="53.439307" lon="05.622670"><ele>8.9</ele><time>2021-02-17T10:38:10Z</time><name>PT994</name></trkpt>
<trkpt lat="53.439305" lon="05.622652"><ele>8.9</ele><time>2021-02-17T10:38:12Z</time><name>PT995</name></trkpt>
<trkpt lat="53.439301" lon="05.622633"><ele>8.9</ele><time>2021-02-17T10:38:12Z</time><name>PT996</name></trkpt>
<trkpt lat="53.439298" lon="05.622616"><ele>8.8</ele><time>2021-02-17T10:38:13Z</time><name>PT997</name></trkpt>
<trkpt lat="53.439295" lon="05.622599"><ele>9</ele><time>2021-02-17T10:38:15Z</time><name>PT998</name></trkpt>
<trkpt lat="53.439292" lon="05.622580"><ele>9</ele><time>2021-02-17T10:38:15Z</time><name>PT999</name></trkpt>
<trkpt lat="53.439287" lon="05.622563"><ele>9</ele><time>2021-02-17T10:38:16Z</time><name>PT1000</name></trkpt>
<trkpt lat="53.439283" lon="05.622546"><ele>8.9</ele><time>2021-02-17T10:38:18Z</time><name>PT1001</name></trkpt>
<trkpt lat="53.439279" lon="05.622524"><ele>8.8</ele><time>2021-02-17T10:38:18Z</time><name>PT1002</name></trkpt>
<trkpt lat="53.439276" lon="05.622505"><ele>8.6</ele><time>2021-02-17T10:38:19Z</time><name>PT1003</name></trkpt>
<trkpt lat="53.439273" lon="05.622489"><ele>8.4</ele><time>2021-02-17T10:38:21Z</time><name>PT1004</name></trkpt>
<trkpt lat="53.439270" lon="05.622475"><ele>8.3</ele><time>2021-02-17T10:38:21Z</time><name>PT1005</name></trkpt>
<trkpt lat="53.439269" lon="05.622465"><ele>8.4</ele><time>2021-02-17T10:38:22Z</time><name>PT1006</name></trkpt>
<trkpt lat="53.439269" lon="05.622454"><ele>8.7</ele><time>2021-02-17T10:38:24Z</time><name>PT1007</name></trkpt>
<trkpt lat="53.439270" lon="05.622444"><ele>8.8</ele><time>2021-02-17T10:38:24Z</time><name>PT1008</name></trkpt>
<trkpt lat="53.439269" lon="05.622440"><ele>8.9</ele><time>2021-02-17T10:38:25Z</time><name>PT1009</name></trkpt>
<trkpt lat="53.439269" lon="05.622433"><ele>8.9</ele><time>2021-02-17T10:38:27Z</time><name>PT1010</name></trkpt>
<trkpt lat="53.439268" lon="05.622424"><ele>8.9</ele><time>2021-02-17T10:38:27Z</time><name>PT1011</name></trkpt>
<trkpt lat="53.439264" lon="05.622412"><ele>8.8</ele><time>2021-02-17T10:38:28Z</time><name>PT1012</name></trkpt>
<trkpt lat="53.439262" lon="05.622399"><ele>8.8</ele><time>2021-02-17T10:38:30Z</time><name>PT1013</name></trkpt>
<trkpt lat="53.439260" lon="05.622388"><ele>8.7</ele><time>2021-02-17T10:38:30Z</time><name>PT1014</name></trkpt>
<trkpt lat="53.439257" lon="05.622375"><ele>8.8</ele><time>2021-02-17T10:38:31Z</time><name>PT1015</name></trkpt>
<trkpt lat="53.439256" lon="05.622358"><ele>8.9</ele><time>2021-02-17T10:38:33Z</time><name>PT1016</name></trkpt>
<trkpt lat="53.439256" lon="05.622341"><ele>8.7</ele><time>2021-02-17T10:38:33Z</time><name>PT1017</name></trkpt>
<trkpt lat="53.439254" lon="05.622325"><ele>8.8</ele><time>2021-02-17T10:38:34Z</time><name>PT1018</name></trkpt>
<trkpt lat="53.439252" lon="05.622308"><ele>8.7</ele><time>2021-02-17T10:38:36Z</time><name>PT1019</name></trkpt>
<trkpt lat="53.439251" lon="05.622290"><ele>8.8</ele><time>2021-02-17T10:38:36Z</time><name>PT1020</name></trkpt>
<trkpt lat="53.439248" lon="05.622273"><ele>8.9</ele><time>2021-02-17T10:38:37Z</time><name>PT1021</name></trkpt>
<trkpt lat="53.439244" lon="05.622259"><ele>9</ele><time>2021-02-17T10:38:39Z</time><name>PT1022</name></trkpt>
<trkpt lat="53.439242" lon="05.622241"><ele>9.2</ele><time>2021-02-17T10:38:39Z</time><name>PT1023</name></trkpt>
<trkpt lat="53.439246" lon="05.622236"><ele>9.3</ele><time>2021-02-17T10:38:40Z</time><name>PT1024</name></trkpt>
<trkpt lat="53.439248" lon="05.622240"><ele>9.3</ele><time>2021-02-17T10:38:42Z</time><name>PT1025</name></trkpt>
<trkpt lat="53.439252" lon="05.622250"><ele>9.3</ele><time>2021-02-17T10:38:42Z</time><name>PT1026</name></trkpt>
<trkpt lat="53.439255" lon="05.622256"><ele>9.4</ele><time>2021-02-17T10:38:43Z</time><name>PT1027</name></trkpt>
<trkpt lat="53.439260" lon="05.622270"><ele>9.3</ele><time>2021-02-17T10:38:45Z</time><name>PT1028</name></trkpt>
<trkpt lat="53.439264" lon="05.622283"><ele>9.3</ele><time>2021-02-17T10:38:45Z</time><name>PT1029</name></trkpt>
<trkpt lat="53.439267" lon="05.622288"><ele>9.5</ele><time>2021-02-17T10:38:46Z</time><name>PT1030</name></trkpt>
<trkpt lat="53.439269" lon="05.622288"><ele>9.4</ele><time>2021-02-17T10:38:48Z</time><name>PT1031</name></trkpt>
<trkpt lat="53.439270" lon="05.622288"><ele>9.3</ele><time>2021-02-17T10:38:48Z</time><name>PT1032</name></trkpt>
<trkpt lat="53.439269" lon="05.622287"><ele>9.3</ele><time>2021-02-17T10:38:49Z</time><name>PT1033</name></trkpt>
<trkpt lat="53.439267" lon="05.622285"><ele>9</ele><time>2021-02-17T10:38:51Z</time><name>PT1034</name></trkpt>
<trkpt lat="53.439260" lon="05.622275"><ele>9</ele><time>2021-02-17T10:38:52Z</time><name>PT1035</name></trkpt>
<trkpt lat="53.439261" lon="05.622263"><ele>9</ele><time>2021-02-17T10:38:54Z</time><name>PT1036</name></trkpt>
<trkpt lat="53.439255" lon="05.622245"><ele>9</ele><time>2021-02-17T10:38:54Z</time><name>PT1037</name></trkpt>
<trkpt lat="53.439252" lon="05.622228"><ele>9</ele><time>2021-02-17T10:38:55Z</time><name>PT1038</name></trkpt>
<trkpt lat="53.439248" lon="05.622210"><ele>8.9</ele><time>2021-02-17T10:38:57Z</time><name>PT1039</name></trkpt>
<trkpt lat="53.439245" lon="05.622191"><ele>8.8</ele><time>2021-02-17T10:38:57Z</time><name>PT1040</name></trkpt>
<trkpt lat="53.439247" lon="05.622175"><ele>9.1</ele><time>2021-02-17T10:38:58Z</time><name>PT1041</name></trkpt>
<trkpt lat="53.439250" lon="05.622166"><ele>9.3</ele><time>2021-02-17T10:39:00Z</time><name>PT1042</name></trkpt>
<trkpt lat="53.439250" lon="05.622159"><ele>9.2</ele><time>2021-02-17T10:39:00Z</time><name>PT1043</name></trkpt>
<trkpt lat="53.439255" lon="05.622154"><ele>9.3</ele><time>2021-02-17T10:39:01Z</time><name>PT1044</name></trkpt>
<trkpt lat="53.439256" lon="05.622146"><ele>9.3</ele><time>2021-02-17T10:39:03Z</time><name>PT1045</name></trkpt>
<trkpt lat="53.439255" lon="05.622137"><ele>9.6</ele><time>2021-02-17T10:39:03Z</time><name>PT1046</name></trkpt>
<trkpt lat="53.439256" lon="05.622121"><ele>9.6</ele><time>2021-02-17T10:39:04Z</time><name>PT1047</name></trkpt>
<trkpt lat="53.439257" lon="05.622104"><ele>9.7</ele><time>2021-02-17T10:39:06Z</time><name>PT1048</name></trkpt>
<trkpt lat="53.439256" lon="05.622087"><ele>9.7</ele><time>2021-02-17T10:39:06Z</time><name>PT1049</name></trkpt>
<trkpt lat="53.439256" lon="05.622071"><ele>9.4</ele><time>2021-02-17T10:39:07Z</time><name>PT1050</name></trkpt>
<trkpt lat="53.439255" lon="05.622056"><ele>9.4</ele><time>2021-02-17T10:39:09Z</time><name>PT1051</name></trkpt>
<trkpt lat="53.439255" lon="05.622042"><ele>9.5</ele><time>2021-02-17T10:39:09Z</time><name>PT1052</name></trkpt>
<trkpt lat="53.439255" lon="05.622030"><ele>9.5</ele><time>2021-02-17T10:39:10Z</time><name>PT1053</name></trkpt>
<trkpt lat="53.439255" lon="05.622019"><ele>9.7</ele><time>2021-02-17T10:39:12Z</time><name>PT1054</name></trkpt>
<trkpt lat="53.439254" lon="05.622009"><ele>9.7</ele><time>2021-02-17T10:39:12Z</time><name>PT1055</name></trkpt>
<trkpt lat="53.439254" lon="05.622005"><ele>9.8</ele><time>2021-02-17T10:39:16Z</time><name>PT1056</name></trkpt>
<trkpt lat="53.439251" lon="05.622000"><ele>10</ele><time>2021-02-17T10:39:18Z</time><name>PT1057</name></trkpt>
<trkpt lat="53.439248" lon="05.621998"><ele>10.1</ele><time>2021-02-17T10:39:18Z</time><name>PT1058</name></trkpt>
<trkpt lat="53.439246" lon="05.621996"><ele>10.1</ele><time>2021-02-17T10:39:19Z</time><name>PT1059</name></trkpt>
<trkpt lat="53.439250" lon="05.621984"><ele>9.7</ele><time>2021-02-17T10:39:24Z</time><name>PT1060</name></trkpt>
<trkpt lat="53.439251" lon="05.621961"><ele>9.7</ele><time>2021-02-17T10:39:25Z</time><name>PT1061</name></trkpt>
<trkpt lat="53.439252" lon="05.621939"><ele>9.7</ele><time>2021-02-17T10:39:27Z</time><name>PT1062</name></trkpt>
<trkpt lat="53.439252" lon="05.621921"><ele>9.7</ele><time>2021-02-17T10:39:27Z</time><name>PT1063</name></trkpt>
<trkpt lat="53.439254" lon="05.621906"><ele>9.8</ele><time>2021-02-17T10:39:28Z</time><name>PT1064</name></trkpt>
<trkpt lat="53.439255" lon="05.621889"><ele>9.8</ele><time>2021-02-17T10:39:30Z</time><name>PT1065</name></trkpt>
<trkpt lat="53.439254" lon="05.621877"><ele>9.8</ele><time>2021-02-17T10:39:30Z</time><name>PT1066</name></trkpt>
<trkpt lat="53.439254" lon="05.621862"><ele>9.7</ele><time>2021-02-17T10:39:31Z</time><name>PT1067</name></trkpt>
<trkpt lat="53.439255" lon="05.621847"><ele>9.6</ele><time>2021-02-17T10:39:33Z</time><name>PT1068</name></trkpt>
<trkpt lat="53.439255" lon="05.621829"><ele>9.5</ele><time>2021-02-17T10:39:33Z</time><name>PT1069</name></trkpt>
<trkpt lat="53.439255" lon="05.621814"><ele>9.5</ele><time>2021-02-17T10:39:34Z</time><name>PT1070</name></trkpt>
<trkpt lat="53.439258" lon="05.621792"><ele>9.6</ele><time>2021-02-17T10:39:36Z</time><name>PT1071</name></trkpt>
<trkpt lat="53.439259" lon="05.621775"><ele>9.5</ele><time>2021-02-17T10:39:36Z</time><name>PT1072</name></trkpt>
<trkpt lat="53.439261" lon="05.621757"><ele>9.5</ele><time>2021-02-17T10:39:37Z</time><name>PT1073</name></trkpt>
<trkpt lat="53.439260" lon="05.621739"><ele>9.7</ele><time>2021-02-17T10:39:39Z</time><name>PT1074</name></trkpt>
<trkpt lat="53.439261" lon="05.621717"><ele>9.7</ele><time>2021-02-17T10:39:39Z</time><name>PT1075</name></trkpt>
<trkpt lat="53.439261" lon="05.621699"><ele>9.7</ele><time>2021-02-17T10:39:40Z</time><name>PT1076</name></trkpt>
<trkpt lat="53.439260" lon="05.621681"><ele>9.8</ele><time>2021-02-17T10:39:42Z</time><name>PT1077</name></trkpt>
<trkpt lat="53.439259" lon="05.621666"><ele>9.7</ele><time>2021-02-17T10:39:42Z</time><name>PT1078</name></trkpt>
<trkpt lat="53.439259" lon="05.621651"><ele>9.8</ele><time>2021-02-17T10:39:43Z</time><name>PT1079</name></trkpt>
<trkpt lat="53.439259" lon="05.621637"><ele>9.9</ele><time>2021-02-17T10:39:45Z</time><name>PT1080</name></trkpt>
<trkpt lat="53.439259" lon="05.621620"><ele>10</ele><time>2021-02-17T10:39:45Z</time><name>PT1081</name></trkpt>
<trkpt lat="53.439256" lon="05.621607"><ele>9.9</ele><time>2021-02-17T10:39:46Z</time><name>PT1082</name></trkpt>
<trkpt lat="53.439254" lon="05.621590"><ele>10.1</ele><time>2021-02-17T10:39:48Z</time><name>PT1083</name></trkpt>
<trkpt lat="53.439251" lon="05.621572"><ele>10.1</ele><time>2021-02-17T10:39:48Z</time><name>PT1084</name></trkpt>
<trkpt lat="53.439248" lon="05.621551"><ele>10.2</ele><time>2021-02-17T10:39:49Z</time><name>PT1085</name></trkpt>
<trkpt lat="53.439247" lon="05.621533"><ele>10.5</ele><time>2021-02-17T10:39:51Z</time><name>PT1086</name></trkpt>
<trkpt lat="53.439246" lon="05.621517"><ele>10.5</ele><time>2021-02-17T10:39:51Z</time><name>PT1087</name></trkpt>
<trkpt lat="53.439245" lon="05.621501"><ele>10.5</ele><time>2021-02-17T10:39:52Z</time><name>PT1088</name></trkpt>
<trkpt lat="53.439244" lon="05.621484"><ele>10.5</ele><time>2021-02-17T10:39:54Z</time><name>PT1089</name></trkpt>
<trkpt lat="53.439242" lon="05.621468"><ele>10.5</ele><time>2021-02-17T10:39:54Z</time><name>PT1090</name></trkpt>
<trkpt lat="53.439240" lon="05.621450"><ele>10.3</ele><time>2021-02-17T10:39:55Z</time><name>PT1091</name></trkpt>
<trkpt lat="53.439238" lon="05.621433"><ele>10.4</ele><time>2021-02-17T10:39:57Z</time><name>PT1092</name></trkpt>
<trkpt lat="53.439236" lon="05.621417"><ele>10.6</ele><time>2021-02-17T10:39:57Z</time><name>PT1093</name></trkpt>
<trkpt lat="53.439234" lon="05.621399"><ele>10.7</ele><time>2021-02-17T10:39:58Z</time><name>PT1094</name></trkpt>
<trkpt lat="53.439233" lon="05.621382"><ele>10.8</ele><time>2021-02-17T10:40:00Z</time><name>PT1095</name></trkpt>
<trkpt lat="53.439232" lon="05.621367"><ele>10.9</ele><time>2021-02-17T10:40:00Z</time><name>PT1096</name></trkpt>
<trkpt lat="53.439230" lon="05.621353"><ele>10.9</ele><time>2021-02-17T10:40:01Z</time><name>PT1097</name></trkpt>
<trkpt lat="53.439228" lon="05.621337"><ele>10.9</ele><time>2021-02-17T10:40:03Z</time><name>PT1098</name></trkpt>
<trkpt lat="53.439227" lon="05.621325"><ele>10.9</ele><time>2021-02-17T10:40:03Z</time><name>PT1099</name></trkpt>
<trkpt lat="53.439226" lon="05.621311"><ele>11.2</ele><time>2021-02-17T10:40:04Z</time><name>PT1100</name></trkpt>
<trkpt lat="53.439223" lon="05.621293"><ele>11.2</ele><time>2021-02-17T10:40:06Z</time><name>PT1101</name></trkpt>
<trkpt lat="53.439220" lon="05.621275"><ele>11.2</ele><time>2021-02-17T10:40:06Z</time><name>PT1102</name></trkpt>
<trkpt lat="53.439217" lon="05.621260"><ele>11.2</ele><time>2021-02-17T10:40:07Z</time><name>PT1103</name></trkpt>
<trkpt lat="53.439215" lon="05.621246"><ele>11.1</ele><time>2021-02-17T10:40:09Z</time><name>PT1104</name></trkpt>
<trkpt lat="53.439214" lon="05.621230"><ele>10.9</ele><time>2021-02-17T10:40:09Z</time><name>PT1105</name></trkpt>
<trkpt lat="53.439212" lon="05.621215"><ele>11.2</ele><time>2021-02-17T10:40:10Z</time><name>PT1106</name></trkpt>
<trkpt lat="53.439210" lon="05.621201"><ele>11.3</ele><time>2021-02-17T10:40:12Z</time><name>PT1107</name></trkpt>
<trkpt lat="53.439207" lon="05.621184"><ele>11.5</ele><time>2021-02-17T10:40:12Z</time><name>PT1108</name></trkpt>
<trkpt lat="53.439202" lon="05.621167"><ele>11.7</ele><time>2021-02-17T10:40:13Z</time><name>PT1109</name></trkpt>
<trkpt lat="53.439197" lon="05.621156"><ele>11.7</ele><time>2021-02-17T10:40:15Z</time><name>PT1110</name></trkpt>
<trkpt lat="53.439193" lon="05.621143"><ele>11.8</ele><time>2021-02-17T10:40:15Z</time><name>PT1111</name></trkpt>
<trkpt lat="53.439192" lon="05.621127"><ele>11.8</ele><time>2021-02-17T10:40:16Z</time><name>PT1112</name></trkpt>
<trkpt lat="53.439192" lon="05.621111"><ele>11.7</ele><time>2021-02-17T10:40:18Z</time><name>PT1113</name></trkpt>
<trkpt lat="53.439190" lon="05.621097"><ele>11.8</ele><time>2021-02-17T10:40:18Z</time><name>PT1114</name></trkpt>
<trkpt lat="53.439188" lon="05.621082"><ele>12.1</ele><time>2021-02-17T10:40:19Z</time><name>PT1115</name></trkpt>
<trkpt lat="53.439186" lon="05.621065"><ele>12.2</ele><time>2021-02-17T10:40:21Z</time><name>PT1116</name></trkpt>
<trkpt lat="53.439185" lon="05.621052"><ele>12.4</ele><time>2021-02-17T10:40:21Z</time><name>PT1117</name></trkpt>
<trkpt lat="53.439183" lon="05.621036"><ele>12.5</ele><time>2021-02-17T10:40:22Z</time><name>PT1118</name></trkpt>
<trkpt lat="53.439182" lon="05.621021"><ele>12.3</ele><time>2021-02-17T10:40:24Z</time><name>PT1119</name></trkpt>
<trkpt lat="53.439181" lon="05.621008"><ele>12.3</ele><time>2021-02-17T10:40:24Z</time><name>PT1120</name></trkpt>
<trkpt lat="53.439179" lon="05.620991"><ele>12.1</ele><time>2021-02-17T10:40:25Z</time><name>PT1121</name></trkpt>
<trkpt lat="53.439177" lon="05.620976"><ele>12.1</ele><time>2021-02-17T10:40:27Z</time><name>PT1122</name></trkpt>
<trkpt lat="53.439176" lon="05.620960"><ele>12.1</ele><time>2021-02-17T10:40:27Z</time><name>PT1123</name></trkpt>
<trkpt lat="53.439175" lon="05.620943"><ele>12.3</ele><time>2021-02-17T10:40:28Z</time><name>PT1124</name></trkpt>
<trkpt lat="53.439174" lon="05.620931"><ele>12.4</ele><time>2021-02-17T10:40:30Z</time><name>PT1125</name></trkpt>
<trkpt lat="53.439173" lon="05.620924"><ele>12.5</ele><time>2021-02-17T10:40:30Z</time><name>PT1126</name></trkpt>
<trkpt lat="53.439171" lon="05.620919"><ele>12.4</ele><time>2021-02-17T10:40:31Z</time><name>PT1127</name></trkpt>
<trkpt lat="53.439169" lon="05.620908"><ele>12.3</ele><time>2021-02-17T10:40:33Z</time><name>PT1128</name></trkpt>
<trkpt lat="53.439166" lon="05.620893"><ele>12.5</ele><time>2021-02-17T10:40:33Z</time><name>PT1129</name></trkpt>
<trkpt lat="53.439164" lon="05.620875"><ele>12.5</ele><time>2021-02-17T10:40:34Z</time><name>PT1130</name></trkpt>
<trkpt lat="53.439160" lon="05.620861"><ele>12.6</ele><time>2021-02-17T10:40:36Z</time><name>PT1131</name></trkpt>
<trkpt lat="53.439156" lon="05.620848"><ele>12.7</ele><time>2021-02-17T10:40:36Z</time><name>PT1132</name></trkpt>
<trkpt lat="53.439154" lon="05.620833"><ele>12.7</ele><time>2021-02-17T10:40:37Z</time><name>PT1133</name></trkpt>
<trkpt lat="53.439153" lon="05.620820"><ele>12.9</ele><time>2021-02-17T10:40:39Z</time><name>PT1134</name></trkpt>
<trkpt lat="53.439152" lon="05.620802"><ele>13</ele><time>2021-02-17T10:40:39Z</time><name>PT1135</name></trkpt>
<trkpt lat="53.439149" lon="05.620786"><ele>13.1</ele><time>2021-02-17T10:40:40Z</time><name>PT1136</name></trkpt>
<trkpt lat="53.439147" lon="05.620771"><ele>13.3</ele><time>2021-02-17T10:40:42Z</time><name>PT1137</name></trkpt>
<trkpt lat="53.439146" lon="05.620754"><ele>13.4</ele><time>2021-02-17T10:40:42Z</time><name>PT1138</name></trkpt>
<trkpt lat="53.439145" lon="05.620742"><ele>13.2</ele><time>2021-02-17T10:40:43Z</time><name>PT1139</name></trkpt>
<trkpt lat="53.439143" lon="05.620730"><ele>13.2</ele><time>2021-02-17T10:40:45Z</time><name>PT1140</name></trkpt>
<trkpt lat="53.439141" lon="05.620715"><ele>13.2</ele><time>2021-02-17T10:40:45Z</time><name>PT1141</name></trkpt>
<trkpt lat="53.439141" lon="05.620704"><ele>13.3</ele><time>2021-02-17T10:40:46Z</time><name>PT1142</name></trkpt>
<trkpt lat="53.439142" lon="05.620692"><ele>13.5</ele><time>2021-02-17T10:40:48Z</time><name>PT1143</name></trkpt>
<trkpt lat="53.439143" lon="05.620677"><ele>13.5</ele><time>2021-02-17T10:40:48Z</time><name>PT1144</name></trkpt>
<trkpt lat="53.439142" lon="05.620664"><ele>13.7</ele><time>2021-02-17T10:40:49Z</time><name>PT1145</name></trkpt>
<trkpt lat="53.439141" lon="05.620651"><ele>13.8</ele><time>2021-02-17T10:40:51Z</time><name>PT1146</name></trkpt>
<trkpt lat="53.439141" lon="05.620638"><ele>13.9</ele><time>2021-02-17T10:40:51Z</time><name>PT1147</name></trkpt>
<trkpt lat="53.439142" lon="05.620628"><ele>14.3</ele><time>2021-02-17T10:40:52Z</time><name>PT1148</name></trkpt>
<trkpt lat="53.439141" lon="05.620616"><ele>14.5</ele><time>2021-02-17T10:40:54Z</time><name>PT1149</name></trkpt>
<trkpt lat="53.439139" lon="05.620600"><ele>14.6</ele><time>2021-02-17T10:40:54Z</time><name>PT1150</name></trkpt>
<trkpt lat="53.439138" lon="05.620586"><ele>14.5</ele><time>2021-02-17T10:40:55Z</time><name>PT1151</name></trkpt>
<trkpt lat="53.439137" lon="05.620574"><ele>14.5</ele><time>2021-02-17T10:40:57Z</time><name>PT1152</name></trkpt>
<trkpt lat="53.439137" lon="05.620561"><ele>14.6</ele><time>2021-02-17T10:40:57Z</time><name>PT1153</name></trkpt>
<trkpt lat="53.439137" lon="05.620546"><ele>14.8</ele><time>2021-02-17T10:40:58Z</time><name>PT1154</name></trkpt>
<trkpt lat="53.439135" lon="05.620531"><ele>15</ele><time>2021-02-17T10:41:00Z</time><name>PT1155</name></trkpt>
<trkpt lat="53.439134" lon="05.620520"><ele>15.1</ele><time>2021-02-17T10:41:00Z</time><name>PT1156</name></trkpt>
<trkpt lat="53.439134" lon="05.620509"><ele>15.1</ele><time>2021-02-17T10:41:01Z</time><name>PT1157</name></trkpt>
<trkpt lat="53.439135" lon="05.620497"><ele>15.1</ele><time>2021-02-17T10:41:03Z</time><name>PT1158</name></trkpt>
<trkpt lat="53.439137" lon="05.620485"><ele>15.1</ele><time>2021-02-17T10:41:03Z</time><name>PT1159</name></trkpt>
<trkpt lat="53.439136" lon="05.620471"><ele>15.2</ele><time>2021-02-17T10:41:04Z</time><name>PT1160</name></trkpt>
<trkpt lat="53.439135" lon="05.620459"><ele>15.5</ele><time>2021-02-17T10:41:06Z</time><name>PT1161</name></trkpt>
<trkpt lat="53.439137" lon="05.620444"><ele>15.6</ele><time>2021-02-17T10:41:06Z</time><name>PT1162</name></trkpt>
<trkpt lat="53.439137" lon="05.620431"><ele>15.8</ele><time>2021-02-17T10:41:07Z</time><name>PT1163</name></trkpt>
<trkpt lat="53.439136" lon="05.620417"><ele>15.9</ele><time>2021-02-17T10:41:09Z</time><name>PT1164</name></trkpt>
<trkpt lat="53.439136" lon="05.620405"><ele>15.9</ele><time>2021-02-17T10:41:09Z</time><name>PT1165</name></trkpt>
<trkpt lat="53.439138" lon="05.620390"><ele>16.1</ele><time>2021-02-17T10:41:10Z</time><name>PT1166</name></trkpt>
<trkpt lat="53.439139" lon="05.620376"><ele>16.1</ele><time>2021-02-17T10:41:12Z</time><name>PT1167</name></trkpt>
<trkpt lat="53.439139" lon="05.620362"><ele>16</ele><time>2021-02-17T10:41:12Z</time><name>PT1168</name></trkpt>
<trkpt lat="53.439139" lon="05.620349"><ele>16.1</ele><time>2021-02-17T10:41:13Z</time><name>PT1169</name></trkpt>
<trkpt lat="53.439140" lon="05.620336"><ele>16.1</ele><time>2021-02-17T10:41:15Z</time><name>PT1170</name></trkpt>
<trkpt lat="53.439140" lon="05.620324"><ele>16.1</ele><time>2021-02-17T10:41:15Z</time><name>PT1171</name></trkpt>
<trkpt lat="53.439142" lon="05.620308"><ele>16.2</ele><time>2021-02-17T10:41:16Z</time><name>PT1172</name></trkpt>
<trkpt lat="53.439142" lon="05.620292"><ele>16.6</ele><time>2021-02-17T10:41:18Z</time><name>PT1173</name></trkpt>
<trkpt lat="53.439142" lon="05.620277"><ele>16.7</ele><time>2021-02-17T10:41:18Z</time><name>PT1174</name></trkpt>
<trkpt lat="53.439142" lon="05.620266"><ele>16.8</ele><time>2021-02-17T10:41:19Z</time><name>PT1175</name></trkpt>
<trkpt lat="53.439144" lon="05.620252"><ele>17.1</ele><time>2021-02-17T10:41:21Z</time><name>PT1176</name></trkpt>
<trkpt lat="53.439144" lon="05.620240"><ele>17.1</ele><time>2021-02-17T10:41:21Z</time><name>PT1177</name></trkpt>
<trkpt lat="53.439144" lon="05.620229"><ele>16.9</ele><time>2021-02-17T10:41:22Z</time><name>PT1178</name></trkpt>
<trkpt lat="53.439143" lon="05.620217"><ele>17</ele><time>2021-02-17T10:41:24Z</time><name>PT1179</name></trkpt>
<trkpt lat="53.439143" lon="05.620205"><ele>17</ele><time>2021-02-17T10:41:24Z</time><name>PT1180</name></trkpt>
<trkpt lat="53.439142" lon="05.620193"><ele>17</ele><time>2021-02-17T10:41:25Z</time><name>PT1181</name></trkpt>
<trkpt lat="53.439144" lon="05.620179"><ele>17.2</ele><time>2021-02-17T10:41:27Z</time><name>PT1182</name></trkpt>
<trkpt lat="53.439145" lon="05.620168"><ele>17.3</ele><time>2021-02-17T10:41:27Z</time><name>PT1183</name></trkpt>
<trkpt lat="53.439146" lon="05.620154"><ele>17.3</ele><time>2021-02-17T10:41:28Z</time><name>PT1184</name></trkpt>
<trkpt lat="53.439146" lon="05.620141"><ele>17.3</ele><time>2021-02-17T10:41:30Z</time><name>PT1185</name></trkpt>
<trkpt lat="53.439148" lon="05.620129"><ele>17.4</ele><time>2021-02-17T10:41:30Z</time><name>PT1186</name></trkpt>
<trkpt lat="53.439149" lon="05.620117"><ele>17.5</ele><time>2021-02-17T10:41:31Z</time><name>PT1187</name></trkpt>
<trkpt lat="53.439151" lon="05.620103"><ele>17.6</ele><time>2021-02-17T10:41:33Z</time><name>PT1188</name></trkpt>
<trkpt lat="53.439152" lon="05.620084"><ele>17.8</ele><time>2021-02-17T10:41:33Z</time><name>PT1189</name></trkpt>
<trkpt lat="53.439151" lon="05.620074"><ele>18</ele><time>2021-02-17T10:41:34Z</time><name>PT1190</name></trkpt>
<trkpt lat="53.439153" lon="05.620063"><ele>18.2</ele><time>2021-02-17T10:41:36Z</time><name>PT1191</name></trkpt>
<trkpt lat="53.439155" lon="05.620051"><ele>18.5</ele><time>2021-02-17T10:41:36Z</time><name>PT1192</name></trkpt>
<trkpt lat="53.439156" lon="05.620037"><ele>18.4</ele><time>2021-02-17T10:41:37Z</time><name>PT1193</name></trkpt>
<trkpt lat="53.439155" lon="05.620019"><ele>18.5</ele><time>2021-02-17T10:41:39Z</time><name>PT1194</name></trkpt>
<trkpt lat="53.439158" lon="05.620005"><ele>18.5</ele><time>2021-02-17T10:41:39Z</time><name>PT1195</name></trkpt>
<trkpt lat="53.439161" lon="05.619988"><ele>18.6</ele><time>2021-02-17T10:41:40Z</time><name>PT1196</name></trkpt>
<trkpt lat="53.439161" lon="05.619970"><ele>18.9</ele><time>2021-02-17T10:41:42Z</time><name>PT1197</name></trkpt>
<trkpt lat="53.439163" lon="05.619953"><ele>18.9</ele><time>2021-02-17T10:41:42Z</time><name>PT1198</name></trkpt>
<trkpt lat="53.439163" lon="05.619940"><ele>18.8</ele><time>2021-02-17T10:41:43Z</time><name>PT1199</name></trkpt>
<trkpt lat="53.439165" lon="05.619924"><ele>18.6</ele><time>2021-02-17T10:41:45Z</time><name>PT1200</name></trkpt>
<trkpt lat="53.439169" lon="05.619908"><ele>18.5</ele><time>2021-02-17T10:41:45Z</time><name>PT1201</name></trkpt>
<trkpt lat="53.439171" lon="05.619894"><ele>18.5</ele><time>2021-02-17T10:41:46Z</time><name>PT1202</name></trkpt>
<trkpt lat="53.439170" lon="05.619878"><ele>18.5</ele><time>2021-02-17T10:41:48Z</time><name>PT1203</name></trkpt>
<trkpt lat="53.439170" lon="05.619861"><ele>18.5</ele><time>2021-02-17T10:41:48Z</time><name>PT1204</name></trkpt>
<trkpt lat="53.439169" lon="05.619844"><ele>18.4</ele><time>2021-02-17T10:41:49Z</time><name>PT1205</name></trkpt>
<trkpt lat="53.439171" lon="05.619828"><ele>18.3</ele><time>2021-02-17T10:41:51Z</time><name>PT1206</name></trkpt>
<trkpt lat="53.439172" lon="05.619810"><ele>18</ele><time>2021-02-17T10:41:51Z</time><name>PT1207</name></trkpt>
<trkpt lat="53.439174" lon="05.619792"><ele>17.9</ele><time>2021-02-17T10:41:52Z</time><name>PT1208</name></trkpt>
<trkpt lat="53.439175" lon="05.619777"><ele>17.8</ele><time>2021-02-17T10:41:54Z</time><name>PT1209</name></trkpt>
<trkpt lat="53.439175" lon="05.619761"><ele>17.9</ele><time>2021-02-17T10:41:54Z</time><name>PT1210</name></trkpt>
<trkpt lat="53.439175" lon="05.619745"><ele>18</ele><time>2021-02-17T10:41:55Z</time><name>PT1211</name></trkpt>
<trkpt lat="53.439175" lon="05.619731"><ele>18.2</ele><time>2021-02-17T10:41:57Z</time><name>PT1212</name></trkpt>
<trkpt lat="53.439176" lon="05.619717"><ele>18.4</ele><time>2021-02-17T10:41:57Z</time><name>PT1213</name></trkpt>
<trkpt lat="53.439175" lon="05.619702"><ele>18.5</ele><time>2021-02-17T10:41:58Z</time><name>PT1214</name></trkpt>
<trkpt lat="53.439177" lon="05.619687"><ele>18.8</ele><time>2021-02-17T10:42:00Z</time><name>PT1215</name></trkpt>
<trkpt lat="53.439178" lon="05.619674"><ele>19</ele><time>2021-02-17T10:42:00Z</time><name>PT1216</name></trkpt>
<trkpt lat="53.439180" lon="05.619654"><ele>19</ele><time>2021-02-17T10:42:01Z</time><name>PT1217</name></trkpt>
<trkpt lat="53.439179" lon="05.619633"><ele>18.9</ele><time>2021-02-17T10:42:03Z</time><name>PT1218</name></trkpt>
<trkpt lat="53.439179" lon="05.619611"><ele>18.8</ele><time>2021-02-17T10:42:03Z</time><name>PT1219</name></trkpt>
<trkpt lat="53.439178" lon="05.619592"><ele>18.6</ele><time>2021-02-17T10:42:04Z</time><name>PT1220</name></trkpt>
<trkpt lat="53.439178" lon="05.619575"><ele>18.6</ele><time>2021-02-17T10:42:06Z</time><name>PT1221</name></trkpt>
<trkpt lat="53.439179" lon="05.619560"><ele>18.6</ele><time>2021-02-17T10:42:06Z</time><name>PT1222</name></trkpt>
<trkpt lat="53.439178" lon="05.619542"><ele>18.6</ele><time>2021-02-17T10:42:07Z</time><name>PT1223</name></trkpt>
<trkpt lat="53.439179" lon="05.619528"><ele>18.5</ele><time>2021-02-17T10:42:09Z</time><name>PT1224</name></trkpt>
<trkpt lat="53.439180" lon="05.619511"><ele>18.5</ele><time>2021-02-17T10:42:09Z</time><name>PT1225</name></trkpt>
<trkpt lat="53.439182" lon="05.619494"><ele>18.2</ele><time>2021-02-17T10:42:10Z</time><name>PT1226</name></trkpt>
<trkpt lat="53.439184" lon="05.619476"><ele>18</ele><time>2021-02-17T10:42:12Z</time><name>PT1227</name></trkpt>
<trkpt lat="53.439184" lon="05.619454"><ele>18.1</ele><time>2021-02-17T10:42:12Z</time><name>PT1228</name></trkpt>
<trkpt lat="53.439185" lon="05.619437"><ele>18</ele><time>2021-02-17T10:42:13Z</time><name>PT1229</name></trkpt>
<trkpt lat="53.439185" lon="05.619424"><ele>18.3</ele><time>2021-02-17T10:42:15Z</time><name>PT1230</name></trkpt>
<trkpt lat="53.439185" lon="05.619409"><ele>18.4</ele><time>2021-02-17T10:42:15Z</time><name>PT1231</name></trkpt>
<trkpt lat="53.439188" lon="05.619395"><ele>18.2</ele><time>2021-02-17T10:42:16Z</time><name>PT1232</name></trkpt>
<trkpt lat="53.439189" lon="05.619381"><ele>18.2</ele><time>2021-02-17T10:42:18Z</time><name>PT1233</name></trkpt>
<trkpt lat="53.439187" lon="05.619369"><ele>18.1</ele><time>2021-02-17T10:42:18Z</time><name>PT1234</name></trkpt>
<trkpt lat="53.439186" lon="05.619354"><ele>18.2</ele><time>2021-02-17T10:42:19Z</time><name>PT1235</name></trkpt>
<trkpt lat="53.439185" lon="05.619340"><ele>18.2</ele><time>2021-02-17T10:42:21Z</time><name>PT1236</name></trkpt>
<trkpt lat="53.439182" lon="05.619326"><ele>18.4</ele><time>2021-02-17T10:42:21Z</time><name>PT1237</name></trkpt>
<trkpt lat="53.439181" lon="05.619311"><ele>18.5</ele><time>2021-02-17T10:42:22Z</time><name>PT1238</name></trkpt>
<trkpt lat="53.439176" lon="05.619295"><ele>18.3</ele><time>2021-02-17T10:42:24Z</time><name>PT1239</name></trkpt>
<trkpt lat="53.439174" lon="05.619282"><ele>18.1</ele><time>2021-02-17T10:42:24Z</time><name>PT1240</name></trkpt>
<trkpt lat="53.439172" lon="05.619270"><ele>18</ele><time>2021-02-17T10:42:25Z</time><name>PT1241</name></trkpt>
<trkpt lat="53.439169" lon="05.619257"><ele>17.8</ele><time>2021-02-17T10:42:27Z</time><name>PT1242</name></trkpt>
<trkpt lat="53.439168" lon="05.619247"><ele>17.8</ele><time>2021-02-17T10:42:27Z</time><name>PT1243</name></trkpt>
<trkpt lat="53.439163" lon="05.619237"><ele>17.7</ele><time>2021-02-17T10:42:28Z</time><name>PT1244</name></trkpt>
<trkpt lat="53.439159" lon="05.619227"><ele>17.6</ele><time>2021-02-17T10:42:30Z</time><name>PT1245</name></trkpt>
<trkpt lat="53.439156" lon="05.619219"><ele>17.5</ele><time>2021-02-17T10:42:30Z</time><name>PT1246</name></trkpt>
<trkpt lat="53.439151" lon="05.619211"><ele>17.5</ele><time>2021-02-17T10:42:31Z</time><name>PT1247</name></trkpt>
<trkpt lat="53.439145" lon="05.619201"><ele>17.5</ele><time>2021-02-17T10:42:33Z</time><name>PT1248</name></trkpt>
<trkpt lat="53.439139" lon="05.619192"><ele>17.5</ele><time>2021-02-17T10:42:33Z</time><name>PT1249</name></trkpt>
<trkpt lat="53.439135" lon="05.619183"><ele>17.5</ele><time>2021-02-17T10:42:34Z</time><name>PT1250</name></trkpt>
<trkpt lat="53.439132" lon="05.619176"><ele>17.3</ele><time>2021-02-17T10:42:36Z</time><name>PT1251</name></trkpt>
<trkpt lat="53.439128" lon="05.619170"><ele>17.1</ele><time>2021-02-17T10:42:36Z</time><name>PT1252</name></trkpt>
<trkpt lat="53.439125" lon="05.619165"><ele>17</ele><time>2021-02-17T10:42:37Z</time><name>PT1253</name></trkpt>
<trkpt lat="53.439115" lon="05.619151"><ele>17.1</ele><time>2021-02-17T10:42:45Z</time><name>PT1254</name></trkpt>
<trkpt lat="53.439108" lon="05.619151"><ele>17.2</ele><time>2021-02-17T10:42:45Z</time><name>PT1255</name></trkpt>
<trkpt lat="53.439101" lon="05.619151"><ele>17.1</ele><time>2021-02-17T10:42:46Z</time><name>PT1256</name></trkpt>
<trkpt lat="53.439086" lon="05.619154"><ele>14.1</ele><time>2021-02-17T10:43:15Z</time><name>PT1257</name></trkpt>
<trkpt lat="53.439060" lon="05.619156"><ele>14.1</ele><time>2021-02-17T10:43:16Z</time><name>PT1258</name></trkpt>
<trkpt lat="53.439046" lon="05.619149"><ele>14.1</ele><time>2021-02-17T10:43:18Z</time><name>PT1259</name></trkpt>
<trkpt lat="53.439033" lon="05.619144"><ele>13.9</ele><time>2021-02-17T10:43:18Z</time><name>PT1260</name></trkpt>
<trkpt lat="53.439024" lon="05.619142"><ele>13.9</ele><time>2021-02-17T10:43:19Z</time><name>PT1261</name></trkpt>
<trkpt lat="53.438991" lon="05.619145"><ele>13.1</ele><time>2021-02-17T10:43:30Z</time><name>PT1262</name></trkpt>
<trkpt lat="53.438980" lon="05.619141"><ele>12.9</ele><time>2021-02-17T10:43:30Z</time><name>PT1263</name></trkpt>
<trkpt lat="53.438971" lon="05.619151"><ele>12.6</ele><time>2021-02-17T10:43:31Z</time><name>PT1264</name></trkpt>
<trkpt lat="53.438965" lon="05.619154"><ele>12.3</ele><time>2021-02-17T10:43:34Z</time><name>PT1265</name></trkpt>
<trkpt lat="53.438956" lon="05.619153"><ele>12.3</ele><time>2021-02-17T10:43:36Z</time><name>PT1266</name></trkpt>
<trkpt lat="53.438942" lon="05.619155"><ele>12.3</ele><time>2021-02-17T10:43:36Z</time><name>PT1267</name></trkpt>
<trkpt lat="53.438932" lon="05.619155"><ele>12.6</ele><time>2021-02-17T10:43:37Z</time><name>PT1268</name></trkpt>
<trkpt lat="53.438924" lon="05.619155"><ele>12.7</ele><time>2021-02-17T10:43:39Z</time><name>PT1269</name></trkpt>
<trkpt lat="53.438915" lon="05.619158"><ele>12.8</ele><time>2021-02-17T10:43:39Z</time><name>PT1270</name></trkpt>
<trkpt lat="53.438907" lon="05.619158"><ele>13</ele><time>2021-02-17T10:43:40Z</time><name>PT1271</name></trkpt>
<trkpt lat="53.438897" lon="05.619160"><ele>13</ele><time>2021-02-17T10:43:42Z</time><name>PT1272</name></trkpt>
<trkpt lat="53.438890" lon="05.619160"><ele>13</ele><time>2021-02-17T10:43:42Z</time><name>PT1273</name></trkpt>
<trkpt lat="53.438882" lon="05.619165"><ele>12.8</ele><time>2021-02-17T10:43:43Z</time><name>PT1274</name></trkpt>
<trkpt lat="53.438875" lon="05.619162"><ele>12.4</ele><time>2021-02-17T10:43:45Z</time><name>PT1275</name></trkpt>
<trkpt lat="53.438869" lon="05.619155"><ele>12.2</ele><time>2021-02-17T10:43:45Z</time><name>PT1276</name></trkpt>
<trkpt lat="53.438858" lon="05.619166"><ele>11.6</ele><time>2021-02-17T10:43:46Z</time><name>PT1277</name></trkpt>
<trkpt lat="53.438855" lon="05.619163"><ele>11.3</ele><time>2021-02-17T10:43:48Z</time><name>PT1278</name></trkpt>
<trkpt lat="53.438854" lon="05.619165"><ele>11</ele><time>2021-02-17T10:43:49Z</time><name>PT1279</name></trkpt>
<trkpt lat="53.438853" lon="05.619166"><ele>11.3</ele><time>2021-02-17T10:43:51Z</time><name>PT1280</name></trkpt>
<trkpt lat="53.438850" lon="05.619160"><ele>11.5</ele><time>2021-02-17T10:43:54Z</time><name>PT1281</name></trkpt>
<trkpt lat="53.438842" lon="05.619145"><ele>11.2</ele><time>2021-02-17T10:43:55Z</time><name>PT1282</name></trkpt>
<trkpt lat="53.438836" lon="05.619133"><ele>10.7</ele><time>2021-02-17T10:43:57Z</time><name>PT1283</name></trkpt>
<trkpt lat="53.438828" lon="05.619120"><ele>10.5</ele><time>2021-02-17T10:43:57Z</time><name>PT1284</name></trkpt>
<trkpt lat="53.438822" lon="05.619111"><ele>10.2</ele><time>2021-02-17T10:43:58Z</time><name>PT1285</name></trkpt>
<trkpt lat="53.438818" lon="05.619105"><ele>10</ele><time>2021-02-17T10:44:00Z</time><name>PT1286</name></trkpt>
<trkpt lat="53.438815" lon="05.619096"><ele>9.7</ele><time>2021-02-17T10:44:00Z</time><name>PT1287</name></trkpt>
<trkpt lat="53.438814" lon="05.619081"><ele>9.6</ele><time>2021-02-17T10:44:01Z</time><name>PT1288</name></trkpt>
<trkpt lat="53.438811" lon="05.619068"><ele>9.4</ele><time>2021-02-17T10:44:03Z</time><name>PT1289</name></trkpt>
<trkpt lat="53.438808" lon="05.619055"><ele>9.3</ele><time>2021-02-17T10:44:03Z</time><name>PT1290</name></trkpt>
<trkpt lat="53.438809" lon="05.619044"><ele>9.2</ele><time>2021-02-17T10:44:04Z</time><name>PT1291</name></trkpt>
<trkpt lat="53.438811" lon="05.619030"><ele>9.1</ele><time>2021-02-17T10:44:06Z</time><name>PT1292</name></trkpt>
<trkpt lat="53.438812" lon="05.619020"><ele>9.2</ele><time>2021-02-17T10:44:06Z</time><name>PT1293</name></trkpt>
<trkpt lat="53.438813" lon="05.619006"><ele>9</ele><time>2021-02-17T10:44:07Z</time><name>PT1294</name></trkpt>
<trkpt lat="53.438814" lon="05.618995"><ele>9.2</ele><time>2021-02-17T10:44:09Z</time><name>PT1295</name></trkpt>
<trkpt lat="53.438814" lon="05.618981"><ele>9.3</ele><time>2021-02-17T10:44:09Z</time><name>PT1296</name></trkpt>
<trkpt lat="53.438814" lon="05.618966"><ele>9.3</ele><time>2021-02-17T10:44:10Z</time><name>PT1297</name></trkpt>
<trkpt lat="53.438813" lon="05.618946"><ele>9.2</ele><time>2021-02-17T10:44:12Z</time><name>PT1298</name></trkpt>
<trkpt lat="53.438818" lon="05.618934"><ele>9.2</ele><time>2021-02-17T10:44:12Z</time><name>PT1299</name></trkpt>
<trkpt lat="53.438822" lon="05.618919"><ele>9.1</ele><time>2021-02-17T10:44:13Z</time><name>PT1300</name></trkpt>
<trkpt lat="53.438824" lon="05.618904"><ele>9.2</ele><time>2021-02-17T10:44:15Z</time><name>PT1301</name></trkpt>
<trkpt lat="53.438829" lon="05.618891"><ele>9.2</ele><time>2021-02-17T10:44:15Z</time><name>PT1302</name></trkpt>
<trkpt lat="53.438835" lon="05.618876"><ele>9</ele><time>2021-02-17T10:44:16Z</time><name>PT1303</name></trkpt>
<trkpt lat="53.438837" lon="05.618860"><ele>9</ele><time>2021-02-17T10:44:18Z</time><name>PT1304</name></trkpt>
<trkpt lat="53.438841" lon="05.618842"><ele>8.9</ele><time>2021-02-17T10:44:18Z</time><name>PT1305</name></trkpt>
<trkpt lat="53.438843" lon="05.618825"><ele>8.8</ele><time>2021-02-17T10:44:19Z</time><name>PT1306</name></trkpt>
<trkpt lat="53.438843" lon="05.618809"><ele>8.4</ele><time>2021-02-17T10:44:21Z</time><name>PT1307</name></trkpt>
<trkpt lat="53.438848" lon="05.618798"><ele>8.3</ele><time>2021-02-17T10:44:21Z</time><name>PT1308</name></trkpt>
<trkpt lat="53.438849" lon="05.618790"><ele>7.9</ele><time>2021-02-17T10:44:22Z</time><name>PT1309</name></trkpt>
<trkpt lat="53.438849" lon="05.618788"><ele>7.7</ele><time>2021-02-17T10:44:24Z</time><name>PT1310</name></trkpt>
<trkpt lat="53.438850" lon="05.618786"><ele>7.8</ele><time>2021-02-17T10:44:24Z</time><name>PT1311</name></trkpt>
<trkpt lat="53.438850" lon="05.618785"><ele>7.8</ele><time>2021-02-17T10:44:25Z</time><name>PT1312</name></trkpt>
<trkpt lat="53.438852" lon="05.618780"><ele>7.8</ele><time>2021-02-17T10:44:33Z</time><name>PT1313</name></trkpt>
<trkpt lat="53.438854" lon="05.618766"><ele>7.8</ele><time>2021-02-17T10:44:34Z</time><name>PT1314</name></trkpt>
<trkpt lat="53.438855" lon="05.618749"><ele>7.8</ele><time>2021-02-17T10:44:36Z</time><name>PT1315</name></trkpt>
<trkpt lat="53.438856" lon="05.618736"><ele>7.7</ele><time>2021-02-17T10:44:36Z</time><name>PT1316</name></trkpt>
<trkpt lat="53.438856" lon="05.618724"><ele>7.5</ele><time>2021-02-17T10:44:37Z</time><name>PT1317</name></trkpt>
<trkpt lat="53.438858" lon="05.618710"><ele>7.3</ele><time>2021-02-17T10:44:39Z</time><name>PT1318</name></trkpt>
<trkpt lat="53.438860" lon="05.618696"><ele>7.3</ele><time>2021-02-17T10:44:39Z</time><name>PT1319</name></trkpt>
<trkpt lat="53.438864" lon="05.618681"><ele>7.4</ele><time>2021-02-17T10:44:40Z</time><name>PT1320</name></trkpt>
<trkpt lat="53.438866" lon="05.618673"><ele>7.6</ele><time>2021-02-17T10:44:42Z</time><name>PT1321</name></trkpt>
<trkpt lat="53.438871" lon="05.618659"><ele>7.6</ele><time>2021-02-17T10:44:42Z</time><name>PT1322</name></trkpt>
<trkpt lat="53.438877" lon="05.618643"><ele>7.7</ele><time>2021-02-17T10:44:43Z</time><name>PT1323</name></trkpt>
<trkpt lat="53.438882" lon="05.618627"><ele>7.8</ele><time>2021-02-17T10:44:45Z</time><name>PT1324</name></trkpt>
<trkpt lat="53.438886" lon="05.618610"><ele>7.6</ele><time>2021-02-17T10:44:45Z</time><name>PT1325</name></trkpt>
<trkpt lat="53.438889" lon="05.618593"><ele>7.6</ele><time>2021-02-17T10:44:46Z</time><name>PT1326</name></trkpt>
<trkpt lat="53.438893" lon="05.618578"><ele>7.9</ele><time>2021-02-17T10:44:48Z</time><name>PT1327</name></trkpt>
<trkpt lat="53.438895" lon="05.618561"><ele>8.1</ele><time>2021-02-17T10:44:48Z</time><name>PT1328</name></trkpt>
<trkpt lat="53.438899" lon="05.618546"><ele>8.3</ele><time>2021-02-17T10:44:49Z</time><name>PT1329</name></trkpt>
<trkpt lat="53.438904" lon="05.618530"><ele>8.4</ele><time>2021-02-17T10:44:51Z</time><name>PT1330</name></trkpt>
<trkpt lat="53.438910" lon="05.618515"><ele>8.4</ele><time>2021-02-17T10:44:51Z</time><name>PT1331</name></trkpt>
<trkpt lat="53.438916" lon="05.618503"><ele>8.3</ele><time>2021-02-17T10:44:52Z</time><name>PT1332</name></trkpt>
<trkpt lat="53.438920" lon="05.618491"><ele>8.3</ele><time>2021-02-17T10:44:54Z</time><name>PT1333</name></trkpt>
<trkpt lat="53.438927" lon="05.618479"><ele>8.3</ele><time>2021-02-17T10:44:54Z</time><name>PT1334</name></trkpt>
<trkpt lat="53.438935" lon="05.618467"><ele>8.2</ele><time>2021-02-17T10:44:55Z</time><name>PT1335</name></trkpt>
<trkpt lat="53.438945" lon="05.618455"><ele>8.3</ele><time>2021-02-17T10:44:57Z</time><name>PT1336</name></trkpt>
<trkpt lat="53.438952" lon="05.618445"><ele>8.2</ele><time>2021-02-17T10:44:57Z</time><name>PT1337</name></trkpt>
<trkpt lat="53.438960" lon="05.618435"><ele>8.1</ele><time>2021-02-17T10:44:58Z</time><name>PT1338</name></trkpt>
<trkpt lat="53.438968" lon="05.618422"><ele>8.2</ele><time>2021-02-17T10:45:00Z</time><name>PT1339</name></trkpt>
<trkpt lat="53.438976" lon="05.618410"><ele>8.1</ele><time>2021-02-17T10:45:00Z</time><name>PT1340</name></trkpt>
<trkpt lat="53.438984" lon="05.618399"><ele>8.2</ele><time>2021-02-17T10:45:01Z</time><name>PT1341</name></trkpt>
<trkpt lat="53.438989" lon="05.618392"><ele>8.1</ele><time>2021-02-17T10:45:03Z</time><name>PT1342</name></trkpt>
<trkpt lat="53.438994" lon="05.618388"><ele>8</ele><time>2021-02-17T10:45:03Z</time><name>PT1343</name></trkpt>
<trkpt lat="53.438996" lon="05.618385"><ele>8</ele><time>2021-02-17T10:45:04Z</time><name>PT1344</name></trkpt>
<trkpt lat="53.438995" lon="05.618387"><ele>7.8</ele><time>2021-02-17T10:45:06Z</time><name>PT1345</name></trkpt>
<trkpt lat="53.438996" lon="05.618388"><ele>7.8</ele><time>2021-02-17T10:45:06Z</time><name>PT1346</name></trkpt>
<trkpt lat="53.438997" lon="05.618388"><ele>7.7</ele><time>2021-02-17T10:45:07Z</time><name>PT1347</name></trkpt>
<trkpt lat="53.438998" lon="05.618389"><ele>7.6</ele><time>2021-02-17T10:45:09Z</time><name>PT1348</name></trkpt>
<trkpt lat="53.438999" lon="05.618387"><ele>7.7</ele><time>2021-02-17T10:45:09Z</time><name>PT1349</name></trkpt>
<trkpt lat="53.439002" lon="05.618378"><ele>7.4</ele><time>2021-02-17T10:45:12Z</time><name>PT1350</name></trkpt>
<trkpt lat="53.439011" lon="05.618367"><ele>7.3</ele><time>2021-02-17T10:45:12Z</time><name>PT1351</name></trkpt>
<trkpt lat="53.439019" lon="05.618356"><ele>7.3</ele><time>2021-02-17T10:45:13Z</time><name>PT1352</name></trkpt>
<trkpt lat="53.439029" lon="05.618348"><ele>7.5</ele><time>2021-02-17T10:45:15Z</time><name>PT1353</name></trkpt>
<trkpt lat="53.439038" lon="05.618338"><ele>7.5</ele><time>2021-02-17T10:45:15Z</time><name>PT1354</name></trkpt>
<trkpt lat="53.439048" lon="05.618331"><ele>7.7</ele><time>2021-02-17T10:45:16Z</time><name>PT1355</name></trkpt>
<trkpt lat="53.439059" lon="05.618325"><ele>7.7</ele><time>2021-02-17T10:45:18Z</time><name>PT1356</name></trkpt>
<trkpt lat="53.439069" lon="05.618318"><ele>7.6</ele><time>2021-02-17T10:45:18Z</time><name>PT1357</name></trkpt>
<trkpt lat="53.439078" lon="05.618309"><ele>7.8</ele><time>2021-02-17T10:45:19Z</time><name>PT1358</name></trkpt>
<trkpt lat="53.439082" lon="05.618295"><ele>7.8</ele><time>2021-02-17T10:45:21Z</time><name>PT1359</name></trkpt>
<trkpt lat="53.439085" lon="05.618278"><ele>7.8</ele><time>2021-02-17T10:45:21Z</time><name>PT1360</name></trkpt>
<trkpt lat="53.439090" lon="05.618261"><ele>7.8</ele><time>2021-02-17T10:45:22Z</time><name>PT1361</name></trkpt>
<trkpt lat="53.439093" lon="05.618246"><ele>7.6</ele><time>2021-02-17T10:45:24Z</time><name>PT1362</name></trkpt>
<trkpt lat="53.439096" lon="05.618230"><ele>7.5</ele><time>2021-02-17T10:45:24Z</time><name>PT1363</name></trkpt>
<trkpt lat="53.439097" lon="05.618211"><ele>7.6</ele><time>2021-02-17T10:45:25Z</time><name>PT1364</name></trkpt>
<trkpt lat="53.439102" lon="05.618195"><ele>7.6</ele><time>2021-02-17T10:45:27Z</time><name>PT1365</name></trkpt>
<trkpt lat="53.439106" lon="05.618179"><ele>7.5</ele><time>2021-02-17T10:45:27Z</time><name>PT1366</name></trkpt>
<trkpt lat="53.439111" lon="05.618161"><ele>7.4</ele><time>2021-02-17T10:45:28Z</time><name>PT1367</name></trkpt>
<trkpt lat="53.439115" lon="05.618144"><ele>7.3</ele><time>2021-02-17T10:45:30Z</time><name>PT1368</name></trkpt>
<trkpt lat="53.439118" lon="05.618126"><ele>7.2</ele><time>2021-02-17T10:45:30Z</time><name>PT1369</name></trkpt>
<trkpt lat="53.439122" lon="05.618106"><ele>6.8</ele><time>2021-02-17T10:45:31Z</time><name>PT1370</name></trkpt>
<trkpt lat="53.439125" lon="05.618089"><ele>6.8</ele><time>2021-02-17T10:45:33Z</time><name>PT1371</name></trkpt>
<trkpt lat="53.439128" lon="05.618073"><ele>6.8</ele><time>2021-02-17T10:45:33Z</time><name>PT1372</name></trkpt>
<trkpt lat="53.439131" lon="05.618054"><ele>6.8</ele><time>2021-02-17T10:45:34Z</time><name>PT1373</name></trkpt>
<trkpt lat="53.439134" lon="05.618036"><ele>6.8</ele><time>2021-02-17T10:45:36Z</time><name>PT1374</name></trkpt>
<trkpt lat="53.439138" lon="05.618019"><ele>6.9</ele><time>2021-02-17T10:45:36Z</time><name>PT1375</name></trkpt>
<trkpt lat="53.439142" lon="05.618003"><ele>7</ele><time>2021-02-17T10:45:37Z</time><name>PT1376</name></trkpt>
<trkpt lat="53.439150" lon="05.617988"><ele>7.2</ele><time>2021-02-17T10:45:39Z</time><name>PT1377</name></trkpt>
<trkpt lat="53.439157" lon="05.617975"><ele>7.2</ele><time>2021-02-17T10:45:39Z</time><name>PT1378</name></trkpt>
<trkpt lat="53.439162" lon="05.617962"><ele>7.3</ele><time>2021-02-17T10:45:40Z</time><name>PT1379</name></trkpt>
<trkpt lat="53.439168" lon="05.617946"><ele>7.4</ele><time>2021-02-17T10:45:42Z</time><name>PT1380</name></trkpt>
<trkpt lat="53.439174" lon="05.617932"><ele>7.4</ele><time>2021-02-17T10:45:42Z</time><name>PT1381</name></trkpt>
<trkpt lat="53.439180" lon="05.617917"><ele>7.4</ele><time>2021-02-17T10:45:43Z</time><name>PT1382</name></trkpt>
<trkpt lat="53.439185" lon="05.617902"><ele>7.4</ele><time>2021-02-17T10:45:45Z</time><name>PT1383</name></trkpt>
<trkpt lat="53.439191" lon="05.617887"><ele>7.5</ele><time>2021-02-17T10:45:45Z</time><name>PT1384</name></trkpt>
<trkpt lat="53.439195" lon="05.617871"><ele>7.4</ele><time>2021-02-17T10:45:46Z</time><name>PT1385</name></trkpt>
<trkpt lat="53.439199" lon="05.617858"><ele>7.6</ele><time>2021-02-17T10:45:48Z</time><name>PT1386</name></trkpt>
<trkpt lat="53.439208" lon="05.617843"><ele>7.7</ele><time>2021-02-17T10:45:48Z</time><name>PT1387</name></trkpt>
<trkpt lat="53.439214" lon="05.617829"><ele>7.8</ele><time>2021-02-17T10:45:49Z</time><name>PT1388</name></trkpt>
<trkpt lat="53.439220" lon="05.617814"><ele>7.8</ele><time>2021-02-17T10:45:51Z</time><name>PT1389</name></trkpt>
<trkpt lat="53.439225" lon="05.617798"><ele>7.8</ele><time>2021-02-17T10:45:51Z</time><name>PT1390</name></trkpt>
<trkpt lat="53.439229" lon="05.617780"><ele>7.7</ele><time>2021-02-17T10:45:52Z</time><name>PT1391</name></trkpt>
<trkpt lat="53.439232" lon="05.617764"><ele>7.4</ele><time>2021-02-17T10:45:54Z</time><name>PT1392</name></trkpt>
<trkpt lat="53.439235" lon="05.617748"><ele>7.3</ele><time>2021-02-17T10:45:54Z</time><name>PT1393</name></trkpt>
<trkpt lat="53.439240" lon="05.617734"><ele>7.5</ele><time>2021-02-17T10:45:55Z</time><name>PT1394</name></trkpt>
<trkpt lat="53.439245" lon="05.617719"><ele>7.6</ele><time>2021-02-17T10:45:57Z</time><name>PT1395</name></trkpt>
<trkpt lat="53.439252" lon="05.617703"><ele>7.7</ele><time>2021-02-17T10:45:57Z</time><name>PT1396</name></trkpt>
<trkpt lat="53.439258" lon="05.617688"><ele>7.6</ele><time>2021-02-17T10:45:58Z</time><name>PT1397</name></trkpt>
<trkpt lat="53.439264" lon="05.617675"><ele>7.5</ele><time>2021-02-17T10:46:00Z</time><name>PT1398</name></trkpt>
<trkpt lat="53.439272" lon="05.617661"><ele>7.6</ele><time>2021-02-17T10:46:00Z</time><name>PT1399</name></trkpt>
<trkpt lat="53.439280" lon="05.617646"><ele>7.6</ele><time>2021-02-17T10:46:01Z</time><name>PT1400</name></trkpt>
<trkpt lat="53.439288" lon="05.617630"><ele>7.8</ele><time>2021-02-17T10:46:03Z</time><name>PT1401</name></trkpt>
<trkpt lat="53.439296" lon="05.617616"><ele>7.9</ele><time>2021-02-17T10:46:03Z</time><name>PT1402</name></trkpt>
<trkpt lat="53.439304" lon="05.617603"><ele>7.8</ele><time>2021-02-17T10:46:04Z</time><name>PT1403</name></trkpt>
<trkpt lat="53.439310" lon="05.617592"><ele>7.7</ele><time>2021-02-17T10:46:06Z</time><name>PT1404</name></trkpt>
<trkpt lat="53.439317" lon="05.617580"><ele>7.6</ele><time>2021-02-17T10:46:06Z</time><name>PT1405</name></trkpt>
<trkpt lat="53.439324" lon="05.617570"><ele>7.5</ele><time>2021-02-17T10:46:07Z</time><name>PT1406</name></trkpt>
<trkpt lat="53.439334" lon="05.617561"><ele>7.6</ele><time>2021-02-17T10:46:09Z</time><name>PT1407</name></trkpt>
<trkpt lat="53.439343" lon="05.617551"><ele>7.6</ele><time>2021-02-17T10:46:09Z</time><name>PT1408</name></trkpt>
<trkpt lat="53.439354" lon="05.617542"><ele>7.8</ele><time>2021-02-17T10:46:10Z</time><name>PT1409</name></trkpt>
<trkpt lat="53.439363" lon="05.617533"><ele>7.8</ele><time>2021-02-17T10:46:12Z</time><name>PT1410</name></trkpt>
<trkpt lat="53.439373" lon="05.617525"><ele>7.5</ele><time>2021-02-17T10:46:12Z</time><name>PT1411</name></trkpt>
<trkpt lat="53.439384" lon="05.617519"><ele>7.6</ele><time>2021-02-17T10:46:13Z</time><name>PT1412</name></trkpt>
<trkpt lat="53.439393" lon="05.617512"><ele>7.5</ele><time>2021-02-17T10:46:15Z</time><name>PT1413</name></trkpt>
<trkpt lat="53.439403" lon="05.617505"><ele>7.4</ele><time>2021-02-17T10:46:15Z</time><name>PT1414</name></trkpt>
<trkpt lat="53.439414" lon="05.617499"><ele>7.4</ele><time>2021-02-17T10:46:16Z</time><name>PT1415</name></trkpt>
<trkpt lat="53.439423" lon="05.617493"><ele>7.4</ele><time>2021-02-17T10:46:18Z</time><name>PT1416</name></trkpt>
<trkpt lat="53.439434" lon="05.617486"><ele>7.5</ele><time>2021-02-17T10:46:18Z</time><name>PT1417</name></trkpt>
<trkpt lat="53.439446" lon="05.617479"><ele>7.5</ele><time>2021-02-17T10:46:19Z</time><name>PT1418</name></trkpt>
<trkpt lat="53.439457" lon="05.617472"><ele>7.5</ele><time>2021-02-17T10:46:21Z</time><name>PT1419</name></trkpt>
<trkpt lat="53.439468" lon="05.617462"><ele>7.3</ele><time>2021-02-17T10:46:21Z</time><name>PT1420</name></trkpt>
<trkpt lat="53.439478" lon="05.617452"><ele>7.4</ele><time>2021-02-17T10:46:22Z</time><name>PT1421</name></trkpt>
<trkpt lat="53.439487" lon="05.617442"><ele>7.5</ele><time>2021-02-17T10:46:24Z</time><name>PT1422</name></trkpt>
<trkpt lat="53.439496" lon="05.617433"><ele>7.6</ele><time>2021-02-17T10:46:24Z</time><name>PT1423</name></trkpt>
<trkpt lat="53.439505" lon="05.617423"><ele>7.7</ele><time>2021-02-17T10:46:25Z</time><name>PT1424</name></trkpt>
<trkpt lat="53.439515" lon="05.617413"><ele>7.7</ele><time>2021-02-17T10:46:27Z</time><name>PT1425</name></trkpt>
<trkpt lat="53.439524" lon="05.617404"><ele>7.5</ele><time>2021-02-17T10:46:27Z</time><name>PT1426</name></trkpt>
<trkpt lat="53.439532" lon="05.617393"><ele>7.6</ele><time>2021-02-17T10:46:28Z</time><name>PT1427</name></trkpt>
<trkpt lat="53.439539" lon="05.617384"><ele>7.7</ele><time>2021-02-17T10:46:30Z</time><name>PT1428</name></trkpt>
<trkpt lat="53.439546" lon="05.617379"><ele>7.7</ele><time>2021-02-17T10:46:30Z</time><name>PT1429</name></trkpt>
<trkpt lat="53.439553" lon="05.617372"><ele>7.6</ele><time>2021-02-17T10:46:31Z</time><name>PT1430</name></trkpt>
<trkpt lat="53.439553" lon="05.617370"><ele>7.7</ele><time>2021-02-17T10:46:33Z</time><name>PT1431</name></trkpt>
<trkpt lat="53.439550" lon="05.617376"><ele>7.3</ele><time>2021-02-17T10:46:33Z</time><name>PT1432</name></trkpt>
<trkpt lat="53.439550" lon="05.617374"><ele>7.2</ele><time>2021-02-17T10:46:34Z</time><name>PT1433</name></trkpt>
<trkpt lat="53.439554" lon="05.617363"><ele>6.9</ele><time>2021-02-17T10:46:36Z</time><name>PT1434</name></trkpt>
<trkpt lat="53.439559" lon="05.617354"><ele>6.9</ele><time>2021-02-17T10:46:36Z</time><name>PT1435</name></trkpt>
<trkpt lat="53.439564" lon="05.617343"><ele>7.2</ele><time>2021-02-17T10:46:37Z</time><name>PT1436</name></trkpt>
<trkpt lat="53.439572" lon="05.617331"><ele>7.3</ele><time>2021-02-17T10:46:39Z</time><name>PT1437</name></trkpt>
<trkpt lat="53.439580" lon="05.617320"><ele>7.3</ele><time>2021-02-17T10:46:39Z</time><name>PT1438</name></trkpt>
<trkpt lat="53.439588" lon="05.617308"><ele>7.3</ele><time>2021-02-17T10:46:40Z</time><name>PT1439</name></trkpt>
<trkpt lat="53.439596" lon="05.617299"><ele>7.3</ele><time>2021-02-17T10:46:42Z</time><name>PT1440</name></trkpt>
<trkpt lat="53.439605" lon="05.617290"><ele>7.2</ele><time>2021-02-17T10:46:42Z</time><name>PT1441</name></trkpt>
<trkpt lat="53.439615" lon="05.617282"><ele>7.4</ele><time>2021-02-17T10:46:43Z</time><name>PT1442</name></trkpt>
<trkpt lat="53.439625" lon="05.617276"><ele>7.6</ele><time>2021-02-17T10:46:45Z</time><name>PT1443</name></trkpt>
<trkpt lat="53.439634" lon="05.617268"><ele>7.7</ele><time>2021-02-17T10:46:45Z</time><name>PT1444</name></trkpt>
<trkpt lat="53.439642" lon="05.617259"><ele>7.8</ele><time>2021-02-17T10:46:46Z</time><name>PT1445</name></trkpt>
<trkpt lat="53.439650" lon="05.617248"><ele>7.7</ele><time>2021-02-17T10:46:48Z</time><name>PT1446</name></trkpt>
<trkpt lat="53.439658" lon="05.617237"><ele>7.6</ele><time>2021-02-17T10:46:48Z</time><name>PT1447</name></trkpt>
<trkpt lat="53.439666" lon="05.617227"><ele>7.7</ele><time>2021-02-17T10:46:49Z</time><name>PT1448</name></trkpt>
<trkpt lat="53.439675" lon="05.617222"><ele>7.5</ele><time>2021-02-17T10:46:51Z</time><name>PT1449</name></trkpt>
<trkpt lat="53.439684" lon="05.617216"><ele>7.5</ele><time>2021-02-17T10:46:51Z</time><name>PT1450</name></trkpt>
<trkpt lat="53.439694" lon="05.617210"><ele>7.7</ele><time>2021-02-17T10:46:52Z</time><name>PT1451</name></trkpt>
<trkpt lat="53.439700" lon="05.617204"><ele>7.5</ele><time>2021-02-17T10:46:54Z</time><name>PT1452</name></trkpt>
<trkpt lat="53.439710" lon="05.617197"><ele>7.7</ele><time>2021-02-17T10:46:54Z</time><name>PT1453</name></trkpt>
<trkpt lat="53.439719" lon="05.617186"><ele>7.7</ele><time>2021-02-17T10:46:55Z</time><name>PT1454</name></trkpt>
<trkpt lat="53.439728" lon="05.617175"><ele>7.7</ele><time>2021-02-17T10:46:57Z</time><name>PT1455</name></trkpt>
<trkpt lat="53.439736" lon="05.617167"><ele>7.7</ele><time>2021-02-17T10:46:57Z</time><name>PT1456</name></trkpt>
<trkpt lat="53.439745" lon="05.617157"><ele>7.8</ele><time>2021-02-17T10:46:58Z</time><name>PT1457</name></trkpt>
<trkpt lat="53.439753" lon="05.617147"><ele>7.8</ele><time>2021-02-17T10:47:00Z</time><name>PT1458</name></trkpt>
<trkpt lat="53.439758" lon="05.617140"><ele>7.8</ele><time>2021-02-17T10:47:00Z</time><name>PT1459</name></trkpt>
<trkpt lat="53.439764" lon="05.617129"><ele>7.8</ele><time>2021-02-17T10:47:01Z</time><name>PT1460</name></trkpt>
<trkpt lat="53.439772" lon="05.617119"><ele>7.8</ele><time>2021-02-17T10:47:03Z</time><name>PT1461</name></trkpt>
<trkpt lat="53.439781" lon="05.617112"><ele>7.8</ele><time>2021-02-17T10:47:03Z</time><name>PT1462</name></trkpt>
<trkpt lat="53.439787" lon="05.617105"><ele>7.7</ele><time>2021-02-17T10:47:04Z</time><name>PT1463</name></trkpt>
<trkpt lat="53.439793" lon="05.617096"><ele>7.6</ele><time>2021-02-17T10:47:06Z</time><name>PT1464</name></trkpt>
<trkpt lat="53.439799" lon="05.617090"><ele>7.6</ele><time>2021-02-17T10:47:06Z</time><name>PT1465</name></trkpt>
<trkpt lat="53.439803" lon="05.617084"><ele>7.7</ele><time>2021-02-17T10:47:07Z</time><name>PT1466</name></trkpt>
<trkpt lat="53.439809" lon="05.617075"><ele>7.6</ele><time>2021-02-17T10:47:09Z</time><name>PT1467</name></trkpt>
<trkpt lat="53.439813" lon="05.617064"><ele>7.5</ele><time>2021-02-17T10:47:09Z</time><name>PT1468</name></trkpt>
<trkpt lat="53.439821" lon="05.617050"><ele>7.3</ele><time>2021-02-17T10:47:10Z</time><name>PT1469</name></trkpt>
<trkpt lat="53.439827" lon="05.617039"><ele>7.2</ele><time>2021-02-17T10:47:12Z</time><name>PT1470</name></trkpt>
<trkpt lat="53.439831" lon="05.617030"><ele>7.3</ele><time>2021-02-17T10:47:12Z</time><name>PT1471</name></trkpt>
<trkpt lat="53.439836" lon="05.617018"><ele>7.6</ele><time>2021-02-17T10:47:13Z</time><name>PT1472</name></trkpt>
<trkpt lat="53.439838" lon="05.617007"><ele>7.5</ele><time>2021-02-17T10:47:15Z</time><name>PT1473</name></trkpt>
<trkpt lat="53.439842" lon="05.616999"><ele>7.6</ele><time>2021-02-17T10:47:15Z</time><name>PT1474</name></trkpt>
<trkpt lat="53.439843" lon="05.616996"><ele>7.5</ele><time>2021-02-17T10:47:16Z</time><name>PT1475</name></trkpt>
<trkpt lat="53.439842" lon="05.616989"><ele>7.3</ele><time>2021-02-17T10:47:18Z</time><name>PT1476</name></trkpt>
<trkpt lat="53.439841" lon="05.616990"><ele>7.3</ele><time>2021-02-17T10:47:18Z</time><name>PT1477</name></trkpt>
<trkpt lat="53.439840" lon="05.616993"><ele>7.3</ele><time>2021-02-17T10:48:27Z</time><name>PT1478</name></trkpt>
<trkpt lat="53.439841" lon="05.616996"><ele>7.5</ele><time>2021-02-17T10:48:27Z</time><name>PT1479</name></trkpt>
<trkpt lat="53.439844" lon="05.616998"><ele>7.3</ele><time>2021-02-17T10:48:30Z</time><name>PT1480</name></trkpt>
<trkpt lat="53.439857" lon="05.617001"><ele>7.3</ele><time>2021-02-17T10:48:31Z</time><name>PT1481</name></trkpt>
<trkpt lat="53.439871" lon="05.616996"><ele>7.4</ele><time>2021-02-17T10:48:33Z</time><name>PT1482</name></trkpt>
<trkpt lat="53.439880" lon="05.616994"><ele>7.5</ele><time>2021-02-17T10:48:33Z</time><name>PT1483</name></trkpt>
<trkpt lat="53.439887" lon="05.616991"><ele>7.6</ele><time>2021-02-17T10:48:34Z</time><name>PT1484</name></trkpt>
<trkpt lat="53.439888" lon="05.616985"><ele>7.6</ele><time>2021-02-17T10:48:36Z</time><name>PT1485</name></trkpt>
<trkpt lat="53.439889" lon="05.616984"><ele>7.7</ele><time>2021-02-17T10:48:36Z</time><name>PT1486</name></trkpt>
<trkpt lat="53.439890" lon="05.616983"><ele>7.6</ele><time>2021-02-17T10:48:37Z</time><name>PT1487</name></trkpt>
<trkpt lat="53.439894" lon="05.616979"><ele>7.5</ele><time>2021-02-17T10:48:45Z</time><name>PT1488</name></trkpt>
<trkpt lat="53.439902" lon="05.616976"><ele>7.3</ele><time>2021-02-17T10:48:46Z</time><name>PT1489</name></trkpt>
<trkpt lat="53.439911" lon="05.616969"><ele>7.3</ele><time>2021-02-17T10:48:48Z</time><name>PT1490</name></trkpt>
<trkpt lat="53.439918" lon="05.616965"><ele>7.3</ele><time>2021-02-17T10:48:48Z</time><name>PT1491</name></trkpt>
<trkpt lat="53.439926" lon="05.616959"><ele>7.3</ele><time>2021-02-17T10:48:49Z</time><name>PT1492</name></trkpt>
<trkpt lat="53.439931" lon="05.616954"><ele>7.4</ele><time>2021-02-17T10:48:51Z</time><name>PT1493</name></trkpt>
<trkpt lat="53.439935" lon="05.616952"><ele>7.3</ele><time>2021-02-17T10:48:51Z</time><name>PT1494</name></trkpt>
<trkpt lat="53.439937" lon="05.616949"><ele>7.3</ele><time>2021-02-17T10:48:52Z</time><name>PT1495</name></trkpt>
<trkpt lat="53.439937" lon="05.616946"><ele>7.4</ele><time>2021-02-17T10:48:54Z</time><name>PT1496</name></trkpt>
<trkpt lat="53.439936" lon="05.616945"><ele>7.4</ele><time>2021-02-17T10:48:54Z</time><name>PT1497</name></trkpt>
<trkpt lat="53.439938" lon="05.616943"><ele>7.4</ele><time>2021-02-17T10:48:55Z</time><name>PT1498</name></trkpt>
<trkpt lat="53.439939" lon="05.616937"><ele>7.2</ele><time>2021-02-17T10:49:03Z</time><name>PT1499</name></trkpt>
<trkpt lat="53.439948" lon="05.616935"><ele>7.3</ele><time>2021-02-17T10:49:03Z</time><name>PT1500</name></trkpt>
<trkpt lat="53.439957" lon="05.616927"><ele>7.3</ele><time>2021-02-17T10:49:04Z</time><name>PT1501</name></trkpt>
<trkpt lat="53.439964" lon="05.616916"><ele>7.2</ele><time>2021-02-17T10:49:06Z</time><name>PT1502</name></trkpt>
<trkpt lat="53.439974" lon="05.616907"><ele>7.2</ele><time>2021-02-17T10:49:06Z</time><name>PT1503</name></trkpt>
<trkpt lat="53.439983" lon="05.616897"><ele>6.9</ele><time>2021-02-17T10:49:07Z</time><name>PT1504</name></trkpt>
<trkpt lat="53.439995" lon="05.616886"><ele>6.8</ele><time>2021-02-17T10:49:09Z</time><name>PT1505</name></trkpt>
<trkpt lat="53.440005" lon="05.616875"><ele>6.8</ele><time>2021-02-17T10:49:09Z</time><name>PT1506</name></trkpt>
<trkpt lat="53.440017" lon="05.616861"><ele>6.5</ele><time>2021-02-17T10:49:10Z</time><name>PT1507</name></trkpt>
<trkpt lat="53.440029" lon="05.616852"><ele>6.3</ele><time>2021-02-17T10:49:12Z</time><name>PT1508</name></trkpt>
<trkpt lat="53.440039" lon="05.616846"><ele>6.4</ele><time>2021-02-17T10:49:12Z</time><name>PT1509</name></trkpt>
<trkpt lat="53.440051" lon="05.616840"><ele>6.3</ele><time>2021-02-17T10:49:13Z</time><name>PT1510</name></trkpt>
<trkpt lat="53.440062" lon="05.616835"><ele>6.3</ele><time>2021-02-17T10:49:14Z</time><name>PT1511</name></trkpt>
<trkpt lat="53.440073" lon="05.616831"><ele>6.4</ele><time>2021-02-17T10:49:15Z</time><name>PT1512</name></trkpt>
<trkpt lat="53.440082" lon="05.616824"><ele>6.5</ele><time>2021-02-17T10:49:16Z</time><name>PT1513</name></trkpt>
<trkpt lat="53.440090" lon="05.616815"><ele>6.7</ele><time>2021-02-17T10:49:18Z</time><name>PT1514</name></trkpt>
<trkpt lat="53.440101" lon="05.616807"><ele>6.8</ele><time>2021-02-17T10:49:18Z</time><name>PT1515</name></trkpt>
<trkpt lat="53.440114" lon="05.616800"><ele>6.8</ele><time>2021-02-17T10:49:19Z</time><name>PT1516</name></trkpt>
<trkpt lat="53.440128" lon="05.616795"><ele>6.8</ele><time>2021-02-17T10:49:21Z</time><name>PT1517</name></trkpt>
<trkpt lat="53.440138" lon="05.616789"><ele>6.7</ele><time>2021-02-17T10:49:21Z</time><name>PT1518</name></trkpt>
<trkpt lat="53.440147" lon="05.616779"><ele>6.6</ele><time>2021-02-17T10:49:22Z</time><name>PT1519</name></trkpt>
<trkpt lat="53.440158" lon="05.616768"><ele>6.5</ele><time>2021-02-17T10:49:24Z</time><name>PT1520</name></trkpt>
<trkpt lat="53.440168" lon="05.616755"><ele>6.6</ele><time>2021-02-17T10:49:24Z</time><name>PT1521</name></trkpt>
<trkpt lat="53.440177" lon="05.616748"><ele>6.8</ele><time>2021-02-17T10:49:25Z</time><name>PT1522</name></trkpt>
<trkpt lat="53.440185" lon="05.616741"><ele>7.1</ele><time>2021-02-17T10:49:27Z</time><name>PT1523</name></trkpt>
<trkpt lat="53.440196" lon="05.616736"><ele>7.3</ele><time>2021-02-17T10:49:27Z</time><name>PT1524</name></trkpt>
<trkpt lat="53.440204" lon="05.616722"><ele>7.3</ele><time>2021-02-17T10:49:28Z</time><name>PT1525</name></trkpt>
<trkpt lat="53.440214" lon="05.616708"><ele>6.9</ele><time>2021-02-17T10:49:30Z</time><name>PT1526</name></trkpt>
<trkpt lat="53.440224" lon="05.616700"><ele>6.8</ele><time>2021-02-17T10:49:30Z</time><name>PT1527</name></trkpt>
<trkpt lat="53.440238" lon="05.616693"><ele>6.8</ele><time>2021-02-17T10:49:31Z</time><name>PT1528</name></trkpt>
<trkpt lat="53.440249" lon="05.616685"><ele>6.8</ele><time>2021-02-17T10:49:33Z</time><name>PT1529</name></trkpt>
<trkpt lat="53.440261" lon="05.616674"><ele>6.8</ele><time>2021-02-17T10:49:33Z</time><name>PT1530</name></trkpt>
<trkpt lat="53.440271" lon="05.616666"><ele>6.9</ele><time>2021-02-17T10:49:34Z</time><name>PT1531</name></trkpt>
<trkpt lat="53.440281" lon="05.616659"><ele>6.7</ele><time>2021-02-17T10:49:36Z</time><name>PT1532</name></trkpt>
<trkpt lat="53.440291" lon="05.616650"><ele>6.7</ele><time>2021-02-17T10:49:36Z</time><name>PT1533</name></trkpt>
<trkpt lat="53.440300" lon="05.616645"><ele>6.7</ele><time>2021-02-17T10:49:37Z</time><name>PT1534</name></trkpt>
<trkpt lat="53.440312" lon="05.616642"><ele>6.8</ele><time>2021-02-17T10:49:39Z</time><name>PT1535</name></trkpt>
<trkpt lat="53.440323" lon="05.616633"><ele>6.9</ele><time>2021-02-17T10:49:39Z</time><name>PT1536</name></trkpt>
<trkpt lat="53.440336" lon="05.616623"><ele>6.9</ele><time>2021-02-17T10:49:40Z</time><name>PT1537</name></trkpt>
<trkpt lat="53.440350" lon="05.616615"><ele>6.8</ele><time>2021-02-17T10:49:42Z</time><name>PT1538</name></trkpt>
<trkpt lat="53.440363" lon="05.616609"><ele>6.6</ele><time>2021-02-17T10:49:42Z</time><name>PT1539</name></trkpt>
<trkpt lat="53.440376" lon="05.616602"><ele>6.7</ele><time>2021-02-17T10:49:43Z</time><name>PT1540</name></trkpt>
<trkpt lat="53.440387" lon="05.616591"><ele>6.6</ele><time>2021-02-17T10:49:45Z</time><name>PT1541</name></trkpt>
<trkpt lat="53.440397" lon="05.616580"><ele>6.7</ele><time>2021-02-17T10:49:45Z</time><name>PT1542</name></trkpt>
<trkpt lat="53.440407" lon="05.616571"><ele>6.8</ele><time>2021-02-17T10:49:46Z</time><name>PT1543</name></trkpt>
<trkpt lat="53.440417" lon="05.616564"><ele>6.8</ele><time>2021-02-17T10:49:48Z</time><name>PT1544</name></trkpt>
<trkpt lat="53.440428" lon="05.616556"><ele>6.4</ele><time>2021-02-17T10:49:48Z</time><name>PT1545</name></trkpt>
<trkpt lat="53.440439" lon="05.616548"><ele>6.4</ele><time>2021-02-17T10:49:49Z</time><name>PT1546</name></trkpt>
<trkpt lat="53.440451" lon="05.616537"><ele>6.4</ele><time>2021-02-17T10:49:51Z</time><name>PT1547</name></trkpt>
<trkpt lat="53.440461" lon="05.616529"><ele>6.3</ele><time>2021-02-17T10:49:51Z</time><name>PT1548</name></trkpt>
<trkpt lat="53.440472" lon="05.616520"><ele>6.4</ele><time>2021-02-17T10:49:52Z</time><name>PT1549</name></trkpt>
<trkpt lat="53.440480" lon="05.616511"><ele>6.3</ele><time>2021-02-17T10:49:54Z</time><name>PT1550</name></trkpt>
<trkpt lat="53.440489" lon="05.616501"><ele>6.4</ele><time>2021-02-17T10:49:54Z</time><name>PT1551</name></trkpt>
<trkpt lat="53.440499" lon="05.616490"><ele>6.4</ele><time>2021-02-17T10:49:55Z</time><name>PT1552</name></trkpt>
<trkpt lat="53.440512" lon="05.616480"><ele>6.4</ele><time>2021-02-17T10:49:57Z</time><name>PT1553</name></trkpt>
<trkpt lat="53.440525" lon="05.616472"><ele>6.5</ele><time>2021-02-17T10:49:57Z</time><name>PT1554</name></trkpt>
<trkpt lat="53.440536" lon="05.616463"><ele>6.5</ele><time>2021-02-17T10:49:58Z</time><name>PT1555</name></trkpt>
<trkpt lat="53.440546" lon="05.616453"><ele>6.4</ele><time>2021-02-17T10:50:00Z</time><name>PT1556</name></trkpt>
<trkpt lat="53.440558" lon="05.616442"><ele>6.3</ele><time>2021-02-17T10:50:00Z</time><name>PT1557</name></trkpt>
<trkpt lat="53.440570" lon="05.616431"><ele>6.5</ele><time>2021-02-17T10:50:01Z</time><name>PT1558</name></trkpt>
<trkpt lat="53.440580" lon="05.616418"><ele>6.6</ele><time>2021-02-17T10:50:03Z</time><name>PT1559</name></trkpt>
<trkpt lat="53.440591" lon="05.616405"><ele>6.8</ele><time>2021-02-17T10:50:03Z</time><name>PT1560</name></trkpt>
<trkpt lat="53.440601" lon="05.616395"><ele>6.8</ele><time>2021-02-17T10:50:04Z</time><name>PT1561</name></trkpt>
<trkpt lat="53.440610" lon="05.616387"><ele>6.8</ele><time>2021-02-17T10:50:05Z</time><name>PT1562</name></trkpt>
<trkpt lat="53.440620" lon="05.616379"><ele>6.6</ele><time>2021-02-17T10:50:06Z</time><name>PT1563</name></trkpt>
<trkpt lat="53.440630" lon="05.616373"><ele>6.5</ele><time>2021-02-17T10:50:07Z</time><name>PT1564</name></trkpt>
<trkpt lat="53.440643" lon="05.616368"><ele>6.5</ele><time>2021-02-17T10:50:09Z</time><name>PT1565</name></trkpt>
<trkpt lat="53.440656" lon="05.616363"><ele>6.6</ele><time>2021-02-17T10:50:09Z</time><name>PT1566</name></trkpt>
<trkpt lat="53.440668" lon="05.616358"><ele>6.7</ele><time>2021-02-17T10:50:10Z</time><name>PT1567</name></trkpt>
<trkpt lat="53.440681" lon="05.616354"><ele>6.8</ele><time>2021-02-17T10:50:12Z</time><name>PT1568</name></trkpt>
<trkpt lat="53.440695" lon="05.616350"><ele>7</ele><time>2021-02-17T10:50:12Z</time><name>PT1569</name></trkpt>
<trkpt lat="53.440708" lon="05.616343"><ele>6.9</ele><time>2021-02-17T10:50:13Z</time><name>PT1570</name></trkpt>
<trkpt lat="53.440718" lon="05.616338"><ele>7</ele><time>2021-02-17T10:50:15Z</time><name>PT1571</name></trkpt>
<trkpt lat="53.440727" lon="05.616334"><ele>7</ele><time>2021-02-17T10:50:15Z</time><name>PT1572</name></trkpt>
<trkpt lat="53.440737" lon="05.616327"><ele>7</ele><time>2021-02-17T10:50:16Z</time><name>PT1573</name></trkpt>
<trkpt lat="53.440746" lon="05.616321"><ele>7</ele><time>2021-02-17T10:50:18Z</time><name>PT1574</name></trkpt>
<trkpt lat="53.440758" lon="05.616313"><ele>7</ele><time>2021-02-17T10:50:18Z</time><name>PT1575</name></trkpt>
<trkpt lat="53.440769" lon="05.616308"><ele>6.9</ele><time>2021-02-17T10:50:19Z</time><name>PT1576</name></trkpt>
<trkpt lat="53.440780" lon="05.616302"><ele>7</ele><time>2021-02-17T10:50:21Z</time><name>PT1577</name></trkpt>
<trkpt lat="53.440790" lon="05.616294"><ele>7.1</ele><time>2021-02-17T10:50:21Z</time><name>PT1578</name></trkpt>
<trkpt lat="53.440800" lon="05.616285"><ele>7</ele><time>2021-02-17T10:50:22Z</time><name>PT1579</name></trkpt>
<trkpt lat="53.440809" lon="05.616277"><ele>7</ele><time>2021-02-17T10:50:24Z</time><name>PT1580</name></trkpt>
<trkpt lat="53.440819" lon="05.616270"><ele>7.1</ele><time>2021-02-17T10:50:24Z</time><name>PT1581</name></trkpt>
<trkpt lat="53.440829" lon="05.616264"><ele>6.9</ele><time>2021-02-17T10:50:25Z</time><name>PT1582</name></trkpt>
<trkpt lat="53.440842" lon="05.616259"><ele>7</ele><time>2021-02-17T10:50:27Z</time><name>PT1583</name></trkpt>
<trkpt lat="53.440853" lon="05.616257"><ele>6.8</ele><time>2021-02-17T10:50:27Z</time><name>PT1584</name></trkpt>
<trkpt lat="53.440864" lon="05.616257"><ele>6.8</ele><time>2021-02-17T10:50:28Z</time><name>PT1585</name></trkpt>
<trkpt lat="53.440877" lon="05.616254"><ele>6.8</ele><time>2021-02-17T10:50:30Z</time><name>PT1586</name></trkpt>
<trkpt lat="53.440890" lon="05.616251"><ele>7</ele><time>2021-02-17T10:50:30Z</time><name>PT1587</name></trkpt>
<trkpt lat="53.440900" lon="05.616246"><ele>7.2</ele><time>2021-02-17T10:50:31Z</time><name>PT1588</name></trkpt>
<trkpt lat="53.440912" lon="05.616239"><ele>7.2</ele><time>2021-02-17T10:50:33Z</time><name>PT1589</name></trkpt>
<trkpt lat="53.440920" lon="05.616235"><ele>7.4</ele><time>2021-02-17T10:50:33Z</time><name>PT1590</name></trkpt>
<trkpt lat="53.440931" lon="05.616231"><ele>7.3</ele><time>2021-02-17T10:50:34Z</time><name>PT1591</name></trkpt>
<trkpt lat="53.440944" lon="05.616227"><ele>7.3</ele><time>2021-02-17T10:50:36Z</time><name>PT1592</name></trkpt>
<trkpt lat="53.440952" lon="05.616224"><ele>7.5</ele><time>2021-02-17T10:50:36Z</time><name>PT1593</name></trkpt>
<trkpt lat="53.440958" lon="05.616222"><ele>7.5</ele><time>2021-02-17T10:50:37Z</time><name>PT1594</name></trkpt>
<trkpt lat="53.440964" lon="05.616219"><ele>7.5</ele><time>2021-02-17T10:50:39Z</time><name>PT1595</name></trkpt>
<trkpt lat="53.440970" lon="05.616220"><ele>7.5</ele><time>2021-02-17T10:50:39Z</time><name>PT1596</name></trkpt>
<trkpt lat="53.440975" lon="05.616217"><ele>7.3</ele><time>2021-02-17T10:50:40Z</time><name>PT1597</name></trkpt>
<trkpt lat="53.440977" lon="05.616212"><ele>7.2</ele><time>2021-02-17T10:50:42Z</time><name>PT1598</name></trkpt>
<trkpt lat="53.440984" lon="05.616211"><ele>7.2</ele><time>2021-02-17T10:50:42Z</time><name>PT1599</name></trkpt>
<trkpt lat="53.440990" lon="05.616209"><ele>7.1</ele><time>2021-02-17T10:50:43Z</time><name>PT1600</name></trkpt>
<trkpt lat="53.440995" lon="05.616205"><ele>7.2</ele><time>2021-02-17T10:50:45Z</time><name>PT1601</name></trkpt>
<trkpt lat="53.441003" lon="05.616202"><ele>7.1</ele><time>2021-02-17T10:50:45Z</time><name>PT1602</name></trkpt>
<trkpt lat="53.441012" lon="05.616195"><ele>7.1</ele><time>2021-02-17T10:50:46Z</time><name>PT1603</name></trkpt>
<trkpt lat="53.441019" lon="05.616187"><ele>7</ele><time>2021-02-17T10:50:48Z</time><name>PT1604</name></trkpt>
<trkpt lat="53.441027" lon="05.616178"><ele>7</ele><time>2021-02-17T10:50:48Z</time><name>PT1605</name></trkpt>
<trkpt lat="53.441033" lon="05.616170"><ele>6.9</ele><time>2021-02-17T10:50:49Z</time><name>PT1606</name></trkpt>
<trkpt lat="53.441042" lon="05.616163"><ele>7</ele><time>2021-02-17T10:50:51Z</time><name>PT1607</name></trkpt>
<trkpt lat="53.441053" lon="05.616156"><ele>7.3</ele><time>2021-02-17T10:50:51Z</time><name>PT1608</name></trkpt>
<trkpt lat="53.441059" lon="05.616147"><ele>7.1</ele><time>2021-02-17T10:50:52Z</time><name>PT1609</name></trkpt>
<trkpt lat="53.441065" lon="05.616139"><ele>7.1</ele><time>2021-02-17T10:50:54Z</time><name>PT1610</name></trkpt>
<trkpt lat="53.441074" lon="05.616132"><ele>7.1</ele><time>2021-02-17T10:50:54Z</time><name>PT1611</name></trkpt>
<trkpt lat="53.441084" lon="05.616130"><ele>7</ele><time>2021-02-17T10:50:55Z</time><name>PT1612</name></trkpt>
<trkpt lat="53.441094" lon="05.616126"><ele>7.2</ele><time>2021-02-17T10:50:57Z</time><name>PT1613</name></trkpt>
<trkpt lat="53.441106" lon="05.616120"><ele>7.2</ele><time>2021-02-17T10:50:57Z</time><name>PT1614</name></trkpt>
<trkpt lat="53.441111" lon="05.616113"><ele>7.2</ele><time>2021-02-17T10:50:58Z</time><name>PT1615</name></trkpt>
<trkpt lat="53.441118" lon="05.616107"><ele>7.1</ele><time>2021-02-17T10:51:00Z</time><name>PT1616</name></trkpt>
<trkpt lat="53.441124" lon="05.616100"><ele>6.9</ele><time>2021-02-17T10:51:00Z</time><name>PT1617</name></trkpt>
<trkpt lat="53.441133" lon="05.616092"><ele>7</ele><time>2021-02-17T10:51:01Z</time><name>PT1618</name></trkpt>
<trkpt lat="53.441142" lon="05.616085"><ele>7.1</ele><time>2021-02-17T10:51:03Z</time><name>PT1619</name></trkpt>
<trkpt lat="53.441150" lon="05.616078"><ele>7.3</ele><time>2021-02-17T10:51:03Z</time><name>PT1620</name></trkpt>
<trkpt lat="53.441157" lon="05.616070"><ele>7.3</ele><time>2021-02-17T10:51:04Z</time><name>PT1621</name></trkpt>
<trkpt lat="53.441163" lon="05.616062"><ele>7.4</ele><time>2021-02-17T10:51:06Z</time><name>PT1622</name></trkpt>
<trkpt lat="53.441171" lon="05.616056"><ele>7.4</ele><time>2021-02-17T10:51:06Z</time><name>PT1623</name></trkpt>
<trkpt lat="53.441182" lon="05.616051"><ele>7.3</ele><time>2021-02-17T10:51:07Z</time><name>PT1624</name></trkpt>
<trkpt lat="53.441193" lon="05.616043"><ele>7.1</ele><time>2021-02-17T10:51:09Z</time><name>PT1625</name></trkpt>
<trkpt lat="53.441201" lon="05.616035"><ele>6.9</ele><time>2021-02-17T10:51:09Z</time><name>PT1626</name></trkpt>
<trkpt lat="53.441209" lon="05.616028"><ele>7</ele><time>2021-02-17T10:51:10Z</time><name>PT1627</name></trkpt>
<trkpt lat="53.441218" lon="05.616019"><ele>7.1</ele><time>2021-02-17T10:51:12Z</time><name>PT1628</name></trkpt>
<trkpt lat="53.441228" lon="05.616014"><ele>7.2</ele><time>2021-02-17T10:51:12Z</time><name>PT1629</name></trkpt>
<trkpt lat="53.441239" lon="05.616010"><ele>7.3</ele><time>2021-02-17T10:51:13Z</time><name>PT1630</name></trkpt>
<trkpt lat="53.441251" lon="05.616006"><ele>7.1</ele><time>2021-02-17T10:51:15Z</time><name>PT1631</name></trkpt>
<trkpt lat="53.441263" lon="05.615998"><ele>7</ele><time>2021-02-17T10:51:15Z</time><name>PT1632</name></trkpt>
<trkpt lat="53.441275" lon="05.615988"><ele>6.8</ele><time>2021-02-17T10:51:16Z</time><name>PT1633</name></trkpt>
<trkpt lat="53.441283" lon="05.615981"><ele>6.8</ele><time>2021-02-17T10:51:18Z</time><name>PT1634</name></trkpt>
<trkpt lat="53.441294" lon="05.615971"><ele>6.8</ele><time>2021-02-17T10:51:18Z</time><name>PT1635</name></trkpt>
<trkpt lat="53.441303" lon="05.615965"><ele>6.8</ele><time>2021-02-17T10:51:19Z</time><name>PT1636</name></trkpt>
<trkpt lat="53.441313" lon="05.615960"><ele>7.1</ele><time>2021-02-17T10:51:21Z</time><name>PT1637</name></trkpt>
<trkpt lat="53.441325" lon="05.615955"><ele>7.2</ele><time>2021-02-17T10:51:21Z</time><name>PT1638</name></trkpt>
<trkpt lat="53.441335" lon="05.615948"><ele>7.3</ele><time>2021-02-17T10:51:22Z</time><name>PT1639</name></trkpt>
<trkpt lat="53.441342" lon="05.615942"><ele>7.3</ele><time>2021-02-17T10:51:24Z</time><name>PT1640</name></trkpt>
<trkpt lat="53.441352" lon="05.615935"><ele>7.1</ele><time>2021-02-17T10:51:24Z</time><name>PT1641</name></trkpt>
<trkpt lat="53.441361" lon="05.615925"><ele>7.1</ele><time>2021-02-17T10:51:25Z</time><name>PT1642</name></trkpt>
<trkpt lat="53.441366" lon="05.615913"><ele>7</ele><time>2021-02-17T10:51:27Z</time><name>PT1643</name></trkpt>
<trkpt lat="53.441373" lon="05.615903"><ele>6.9</ele><time>2021-02-17T10:51:27Z</time><name>PT1644</name></trkpt>
<trkpt lat="53.441381" lon="05.615897"><ele>6.8</ele><time>2021-02-17T10:51:28Z</time><name>PT1645</name></trkpt>
<trkpt lat="53.441390" lon="05.615889"><ele>6.8</ele><time>2021-02-17T10:51:30Z</time><name>PT1646</name></trkpt>
<trkpt lat="53.441399" lon="05.615880"><ele>6.8</ele><time>2021-02-17T10:51:30Z</time><name>PT1647</name></trkpt>
<trkpt lat="53.441408" lon="05.615873"><ele>6.8</ele><time>2021-02-17T10:51:31Z</time><name>PT1648</name></trkpt>
<trkpt lat="53.441419" lon="05.615866"><ele>6.9</ele><time>2021-02-17T10:51:33Z</time><name>PT1649</name></trkpt>
<trkpt lat="53.441428" lon="05.615860"><ele>6.9</ele><time>2021-02-17T10:51:33Z</time><name>PT1650</name></trkpt>
<trkpt lat="53.441438" lon="05.615857"><ele>6.9</ele><time>2021-02-17T10:51:34Z</time><name>PT1651</name></trkpt>
<trkpt lat="53.441450" lon="05.615852"><ele>7</ele><time>2021-02-17T10:51:36Z</time><name>PT1652</name></trkpt>
<trkpt lat="53.441463" lon="05.615848"><ele>7</ele><time>2021-02-17T10:51:36Z</time><name>PT1653</name></trkpt>
<trkpt lat="53.441475" lon="05.615841"><ele>7.1</ele><time>2021-02-17T10:51:37Z</time><name>PT1654</name></trkpt>
<trkpt lat="53.441486" lon="05.615837"><ele>7.1</ele><time>2021-02-17T10:51:39Z</time><name>PT1655</name></trkpt>
<trkpt lat="53.441498" lon="05.615833"><ele>7.1</ele><time>2021-02-17T10:51:39Z</time><name>PT1656</name></trkpt>
<trkpt lat="53.441507" lon="05.615828"><ele>7.2</ele><time>2021-02-17T10:51:40Z</time><name>PT1657</name></trkpt>
<trkpt lat="53.441517" lon="05.615820"><ele>7.1</ele><time>2021-02-17T10:51:42Z</time><name>PT1658</name></trkpt>
<trkpt lat="53.441526" lon="05.615812"><ele>7.3</ele><time>2021-02-17T10:51:42Z</time><name>PT1659</name></trkpt>
<trkpt lat="53.441535" lon="05.615805"><ele>7.5</ele><time>2021-02-17T10:51:43Z</time><name>PT1660</name></trkpt>
<trkpt lat="53.441541" lon="05.615796"><ele>7.5</ele><time>2021-02-17T10:51:45Z</time><name>PT1661</name></trkpt>
<trkpt lat="53.441551" lon="05.615785"><ele>7.6</ele><time>2021-02-17T10:51:45Z</time><name>PT1662</name></trkpt>
<trkpt lat="53.441561" lon="05.615774"><ele>7.7</ele><time>2021-02-17T10:51:46Z</time><name>PT1663</name></trkpt>
<trkpt lat="53.441569" lon="05.615765"><ele>7.4</ele><time>2021-02-17T10:51:48Z</time><name>PT1664</name></trkpt>
<trkpt lat="53.441577" lon="05.615756"><ele>7.3</ele><time>2021-02-17T10:51:48Z</time><name>PT1665</name></trkpt>
<trkpt lat="53.441587" lon="05.615749"><ele>7.2</ele><time>2021-02-17T10:51:49Z</time><name>PT1666</name></trkpt>
<trkpt lat="53.441596" lon="05.615744"><ele>7.2</ele><time>2021-02-17T10:51:51Z</time><name>PT1667</name></trkpt>
<trkpt lat="53.441604" lon="05.615739"><ele>7.2</ele><time>2021-02-17T10:51:51Z</time><name>PT1668</name></trkpt>
<trkpt lat="53.441614" lon="05.615736"><ele>7.3</ele><time>2021-02-17T10:51:52Z</time><name>PT1669</name></trkpt>
<trkpt lat="53.441626" lon="05.615732"><ele>7.3</ele><time>2021-02-17T10:51:54Z</time><name>PT1670</name></trkpt>
<trkpt lat="53.441637" lon="05.615728"><ele>7.3</ele><time>2021-02-17T10:51:54Z</time><name>PT1671</name></trkpt>
<trkpt lat="53.441647" lon="05.615722"><ele>7.4</ele><time>2021-02-17T10:51:55Z</time><name>PT1672</name></trkpt>
<trkpt lat="53.441654" lon="05.615718"><ele>7.4</ele><time>2021-02-17T10:51:56Z</time><name>PT1673</name></trkpt>
<trkpt lat="53.441664" lon="05.615713"><ele>7.4</ele><time>2021-02-17T10:51:57Z</time><name>PT1674</name></trkpt>
<trkpt lat="53.441673" lon="05.615708"><ele>7.5</ele><time>2021-02-17T10:51:58Z</time><name>PT1675</name></trkpt>
<trkpt lat="53.441683" lon="05.615707"><ele>7.5</ele><time>2021-02-17T10:51:59Z</time><name>PT1676</name></trkpt>
<trkpt lat="53.441694" lon="05.615704"><ele>7.6</ele><time>2021-02-17T10:52:00Z</time><name>PT1677</name></trkpt>
<trkpt lat="53.441705" lon="05.615699"><ele>7.6</ele><time>2021-02-17T10:52:01Z</time><name>PT1678</name></trkpt>
<trkpt lat="53.441716" lon="05.615696"><ele>7.3</ele><time>2021-02-17T10:52:03Z</time><name>PT1679</name></trkpt>
<trkpt lat="53.441725" lon="05.615692"><ele>7.3</ele><time>2021-02-17T10:52:03Z</time><name>PT1680</name></trkpt>
<trkpt lat="53.441738" lon="05.615687"><ele>7.1</ele><time>2021-02-17T10:52:04Z</time><name>PT1681</name></trkpt>
<trkpt lat="53.441750" lon="05.615680"><ele>7.2</ele><time>2021-02-17T10:52:06Z</time><name>PT1682</name></trkpt>
<trkpt lat="53.441761" lon="05.615672"><ele>7.2</ele><time>2021-02-17T10:52:06Z</time><name>PT1683</name></trkpt>
<trkpt lat="53.441771" lon="05.615671"><ele>7.3</ele><time>2021-02-17T10:52:07Z</time><name>PT1684</name></trkpt>
<trkpt lat="53.441783" lon="05.615666"><ele>7.4</ele><time>2021-02-17T10:52:09Z</time><name>PT1685</name></trkpt>
<trkpt lat="53.441794" lon="05.615658"><ele>7.4</ele><time>2021-02-17T10:52:09Z</time><name>PT1686</name></trkpt>
<trkpt lat="53.441804" lon="05.615657"><ele>7.6</ele><time>2021-02-17T10:52:10Z</time><name>PT1687</name></trkpt>
<trkpt lat="53.441813" lon="05.615656"><ele>7.5</ele><time>2021-02-17T10:52:12Z</time><name>PT1688</name></trkpt>
<trkpt lat="53.441821" lon="05.615653"><ele>7.5</ele><time>2021-02-17T10:52:12Z</time><name>PT1689</name></trkpt>
<trkpt lat="53.441832" lon="05.615649"><ele>7.5</ele><time>2021-02-17T10:52:13Z</time><name>PT1690</name></trkpt>
<trkpt lat="53.441842" lon="05.615646"><ele>7.3</ele><time>2021-02-17T10:52:15Z</time><name>PT1691</name></trkpt>
<trkpt lat="53.441852" lon="05.615645"><ele>7.3</ele><time>2021-02-17T10:52:15Z</time><name>PT1692</name></trkpt>
<trkpt lat="53.441863" lon="05.615645"><ele>7.3</ele><time>2021-02-17T10:52:16Z</time><name>PT1693</name></trkpt>
<trkpt lat="53.441872" lon="05.615641"><ele>7.1</ele><time>2021-02-17T10:52:18Z</time><name>PT1694</name></trkpt>
<trkpt lat="53.441885" lon="05.615636"><ele>6.9</ele><time>2021-02-17T10:52:18Z</time><name>PT1695</name></trkpt>
<trkpt lat="53.441896" lon="05.615635"><ele>6.8</ele><time>2021-02-17T10:52:19Z</time><name>PT1696</name></trkpt>
<trkpt lat="53.441905" lon="05.615630"><ele>6.9</ele><time>2021-02-17T10:52:21Z</time><name>PT1697</name></trkpt>
<trkpt lat="53.441913" lon="05.615625"><ele>6.9</ele><time>2021-02-17T10:52:21Z</time><name>PT1698</name></trkpt>
<trkpt lat="53.441923" lon="05.615619"><ele>6.9</ele><time>2021-02-17T10:52:22Z</time><name>PT1699</name></trkpt>
<trkpt lat="53.441932" lon="05.615609"><ele>7</ele><time>2021-02-17T10:52:24Z</time><name>PT1700</name></trkpt>
<trkpt lat="53.441939" lon="05.615600"><ele>7</ele><time>2021-02-17T10:52:24Z</time><name>PT1701</name></trkpt>
<trkpt lat="53.441948" lon="05.615597"><ele>6.9</ele><time>2021-02-17T10:52:25Z</time><name>PT1702</name></trkpt>
<trkpt lat="53.441957" lon="05.615598"><ele>7</ele><time>2021-02-17T10:52:27Z</time><name>PT1703</name></trkpt>
<trkpt lat="53.441965" lon="05.615598"><ele>6.9</ele><time>2021-02-17T10:52:27Z</time><name>PT1704</name></trkpt>
<trkpt lat="53.441974" lon="05.615598"><ele>7</ele><time>2021-02-17T10:52:28Z</time><name>PT1705</name></trkpt>
<trkpt lat="53.441986" lon="05.615593"><ele>7</ele><time>2021-02-17T10:52:30Z</time><name>PT1706</name></trkpt>
<trkpt lat="53.441995" lon="05.615593"><ele>6.9</ele><time>2021-02-17T10:52:30Z</time><name>PT1707</name></trkpt>
<trkpt lat="53.442006" lon="05.615593"><ele>7</ele><time>2021-02-17T10:52:31Z</time><name>PT1708</name></trkpt>
<trkpt lat="53.442016" lon="05.615595"><ele>6.8</ele><time>2021-02-17T10:52:33Z</time><name>PT1709</name></trkpt>
<trkpt lat="53.442025" lon="05.615600"><ele>6.8</ele><time>2021-02-17T10:52:33Z</time><name>PT1710</name></trkpt>
<trkpt lat="53.442032" lon="05.615607"><ele>6.7</ele><time>2021-02-17T10:52:34Z</time><name>PT1711</name></trkpt>
<trkpt lat="53.442039" lon="05.615607"><ele>6.6</ele><time>2021-02-17T10:52:36Z</time><name>PT1712</name></trkpt>
<trkpt lat="53.442044" lon="05.615611"><ele>6.6</ele><time>2021-02-17T10:52:36Z</time><name>PT1713</name></trkpt>
<trkpt lat="53.442046" lon="05.615615"><ele>6.6</ele><time>2021-02-17T10:52:37Z</time><name>PT1714</name></trkpt>
<trkpt lat="53.442050" lon="05.615616"><ele>6.7</ele><time>2021-02-17T10:52:39Z</time><name>PT1715</name></trkpt>
<trkpt lat="53.442054" lon="05.615616"><ele>6.6</ele><time>2021-02-17T10:52:39Z</time><name>PT1716</name></trkpt>
<trkpt lat="53.442061" lon="05.615613"><ele>6.6</ele><time>2021-02-17T10:52:40Z</time><name>PT1717</name></trkpt>
<trkpt lat="53.442070" lon="05.615605"><ele>6.4</ele><time>2021-02-17T10:52:42Z</time><name>PT1718</name></trkpt>
<trkpt lat="53.442079" lon="05.615600"><ele>6.4</ele><time>2021-02-17T10:52:42Z</time><name>PT1719</name></trkpt>
<trkpt lat="53.442087" lon="05.615597"><ele>6.5</ele><time>2021-02-17T10:52:43Z</time><name>PT1720</name></trkpt>
<trkpt lat="53.442095" lon="05.615591"><ele>6.3</ele><time>2021-02-17T10:52:44Z</time><name>PT1721</name></trkpt>
<trkpt lat="53.442101" lon="05.615588"><ele>6.5</ele><time>2021-02-17T10:52:45Z</time><name>PT1722</name></trkpt>
<trkpt lat="53.442112" lon="05.615583"><ele>6.6</ele><time>2021-02-17T10:52:46Z</time><name>PT1723</name></trkpt>
<trkpt lat="53.442125" lon="05.615575"><ele>6.5</ele><time>2021-02-17T10:52:48Z</time><name>PT1724</name></trkpt>
<trkpt lat="53.442137" lon="05.615566"><ele>6.4</ele><time>2021-02-17T10:52:48Z</time><name>PT1725</name></trkpt>
<trkpt lat="53.442148" lon="05.615556"><ele>6.4</ele><time>2021-02-17T10:52:49Z</time><name>PT1726</name></trkpt>
<trkpt lat="53.442158" lon="05.615551"><ele>6.3</ele><time>2021-02-17T10:52:51Z</time><name>PT1727</name></trkpt>
<trkpt lat="53.442166" lon="05.615543"><ele>6.5</ele><time>2021-02-17T10:52:51Z</time><name>PT1728</name></trkpt>
<trkpt lat="53.442172" lon="05.615537"><ele>6.5</ele><time>2021-02-17T10:52:52Z</time><name>PT1729</name></trkpt>
<trkpt lat="53.442181" lon="05.615527"><ele>6.5</ele><time>2021-02-17T10:52:54Z</time><name>PT1730</name></trkpt>
<trkpt lat="53.442190" lon="05.615516"><ele>6.4</ele><time>2021-02-17T10:52:54Z</time><name>PT1731</name></trkpt>
<trkpt lat="53.442197" lon="05.615511"><ele>6.3</ele><time>2021-02-17T10:52:55Z</time><name>PT1732</name></trkpt>
<trkpt lat="53.442204" lon="05.615508"><ele>6.2</ele><time>2021-02-17T10:52:57Z</time><name>PT1733</name></trkpt>
<trkpt lat="53.442212" lon="05.615503"><ele>6.1</ele><time>2021-02-17T10:52:57Z</time><name>PT1734</name></trkpt>
<trkpt lat="53.442217" lon="05.615499"><ele>6.2</ele><time>2021-02-17T10:52:58Z</time><name>PT1735</name></trkpt>
<trkpt lat="53.442225" lon="05.615494"><ele>6.4</ele><time>2021-02-17T10:53:00Z</time><name>PT1736</name></trkpt>
<trkpt lat="53.442233" lon="05.615488"><ele>6.6</ele><time>2021-02-17T10:53:00Z</time><name>PT1737</name></trkpt>
<trkpt lat="53.442243" lon="05.615481"><ele>6.7</ele><time>2021-02-17T10:53:01Z</time><name>PT1738</name></trkpt>
<trkpt lat="53.442253" lon="05.615473"><ele>6.7</ele><time>2021-02-17T10:53:03Z</time><name>PT1739</name></trkpt>
<trkpt lat="53.442264" lon="05.615467"><ele>6.6</ele><time>2021-02-17T10:53:03Z</time><name>PT1740</name></trkpt>
<trkpt lat="53.442276" lon="05.615458"><ele>6.5</ele><time>2021-02-17T10:53:04Z</time><name>PT1741</name></trkpt>
<trkpt lat="53.442289" lon="05.615452"><ele>6.4</ele><time>2021-02-17T10:53:06Z</time><name>PT1742</name></trkpt>
<trkpt lat="53.442300" lon="05.615448"><ele>6.3</ele><time>2021-02-17T10:53:06Z</time><name>PT1743</name></trkpt>
<trkpt lat="53.442310" lon="05.615447"><ele>6.3</ele><time>2021-02-17T10:53:07Z</time><name>PT1744</name></trkpt>
<trkpt lat="53.442322" lon="05.615447"><ele>6.3</ele><time>2021-02-17T10:53:09Z</time><name>PT1745</name></trkpt>
<trkpt lat="53.442333" lon="05.615443"><ele>6.1</ele><time>2021-02-17T10:53:09Z</time><name>PT1746</name></trkpt>
<trkpt lat="53.442344" lon="05.615439"><ele>6.3</ele><time>2021-02-17T10:53:10Z</time><name>PT1747</name></trkpt>
<trkpt lat="53.442353" lon="05.615433"><ele>6.3</ele><time>2021-02-17T10:53:12Z</time><name>PT1748</name></trkpt>
<trkpt lat="53.442365" lon="05.615426"><ele>6.5</ele><time>2021-02-17T10:53:12Z</time><name>PT1749</name></trkpt>
<trkpt lat="53.442375" lon="05.615419"><ele>6.4</ele><time>2021-02-17T10:53:13Z</time><name>PT1750</name></trkpt>
<trkpt lat="53.442387" lon="05.615409"><ele>6.6</ele><time>2021-02-17T10:53:15Z</time><name>PT1751</name></trkpt>
<trkpt lat="53.442400" lon="05.615402"><ele>6.5</ele><time>2021-02-17T10:53:15Z</time><name>PT1752</name></trkpt>
<trkpt lat="53.442413" lon="05.615392"><ele>6.3</ele><time>2021-02-17T10:53:16Z</time><name>PT1753</name></trkpt>
<trkpt lat="53.442426" lon="05.615386"><ele>6.3</ele><time>2021-02-17T10:53:18Z</time><name>PT1754</name></trkpt>
<trkpt lat="53.442438" lon="05.615380"><ele>6.3</ele><time>2021-02-17T10:53:18Z</time><name>PT1755</name></trkpt>
<trkpt lat="53.442450" lon="05.615375"><ele>6.2</ele><time>2021-02-17T10:53:19Z</time><name>PT1756</name></trkpt>
<trkpt lat="53.442461" lon="05.615370"><ele>6.3</ele><time>2021-02-17T10:53:21Z</time><name>PT1757</name></trkpt>
<trkpt lat="53.442471" lon="05.615370"><ele>6.2</ele><time>2021-02-17T10:53:21Z</time><name>PT1758</name></trkpt>
<trkpt lat="53.442481" lon="05.615370"><ele>6.3</ele><time>2021-02-17T10:53:22Z</time><name>PT1759</name></trkpt>
<trkpt lat="53.442491" lon="05.615370"><ele>6.3</ele><time>2021-02-17T10:53:24Z</time><name>PT1760</name></trkpt>
<trkpt lat="53.442501" lon="05.615368"><ele>6.2</ele><time>2021-02-17T10:53:24Z</time><name>PT1761</name></trkpt>
<trkpt lat="53.442508" lon="05.615366"><ele>6.1</ele><time>2021-02-17T10:53:25Z</time><name>PT1762</name></trkpt>
<trkpt lat="53.442518" lon="05.615359"><ele>6.2</ele><time>2021-02-17T10:53:27Z</time><name>PT1763</name></trkpt>
<trkpt lat="53.442528" lon="05.615353"><ele>6.1</ele><time>2021-02-17T10:53:27Z</time><name>PT1764</name></trkpt>
<trkpt lat="53.442540" lon="05.615348"><ele>6.2</ele><time>2021-02-17T10:53:28Z</time><name>PT1765</name></trkpt>
<trkpt lat="53.442549" lon="05.615343"><ele>6.2</ele><time>2021-02-17T10:53:30Z</time><name>PT1766</name></trkpt>
<trkpt lat="53.442557" lon="05.615338"><ele>6.2</ele><time>2021-02-17T10:53:30Z</time><name>PT1767</name></trkpt>
<trkpt lat="53.442569" lon="05.615329"><ele>6.1</ele><time>2021-02-17T10:53:31Z</time><name>PT1768</name></trkpt>
<trkpt lat="53.442581" lon="05.615321"><ele>6</ele><time>2021-02-17T10:53:33Z</time><name>PT1769</name></trkpt>
<trkpt lat="53.442594" lon="05.615314"><ele>5.9</ele><time>2021-02-17T10:53:33Z</time><name>PT1770</name></trkpt>
<trkpt lat="53.442606" lon="05.615312"><ele>5.8</ele><time>2021-02-17T10:53:34Z</time><name>PT1771</name></trkpt>
<trkpt lat="53.442614" lon="05.615312"><ele>5.6</ele><time>2021-02-17T10:53:36Z</time><name>PT1772</name></trkpt>
<trkpt lat="53.442624" lon="05.615312"><ele>5.6</ele><time>2021-02-17T10:53:36Z</time><name>PT1773</name></trkpt>
<trkpt lat="53.442633" lon="05.615315"><ele>5.9</ele><time>2021-02-17T10:53:37Z</time><name>PT1774</name></trkpt>
<trkpt lat="53.442642" lon="05.615314"><ele>6.1</ele><time>2021-02-17T10:53:39Z</time><name>PT1775</name></trkpt>
<trkpt lat="53.442654" lon="05.615313"><ele>6.2</ele><time>2021-02-17T10:53:39Z</time><name>PT1776</name></trkpt>
<trkpt lat="53.442664" lon="05.615309"><ele>6.1</ele><time>2021-02-17T10:53:40Z</time><name>PT1777</name></trkpt>
<trkpt lat="53.442673" lon="05.615302"><ele>6</ele><time>2021-02-17T10:53:42Z</time><name>PT1778</name></trkpt>
<trkpt lat="53.442682" lon="05.615295"><ele>5.9</ele><time>2021-02-17T10:53:42Z</time><name>PT1779</name></trkpt>
<trkpt lat="53.442693" lon="05.615287"><ele>5.9</ele><time>2021-02-17T10:53:43Z</time><name>PT1780</name></trkpt>
<trkpt lat="53.442704" lon="05.615283"><ele>5.9</ele><time>2021-02-17T10:53:45Z</time><name>PT1781</name></trkpt>
<trkpt lat="53.442714" lon="05.615280"><ele>5.9</ele><time>2021-02-17T10:53:45Z</time><name>PT1782</name></trkpt>
<trkpt lat="53.442724" lon="05.615276"><ele>5.8</ele><time>2021-02-17T10:53:46Z</time><name>PT1783</name></trkpt>
<trkpt lat="53.442736" lon="05.615272"><ele>5.9</ele><time>2021-02-17T10:53:47Z</time><name>PT1784</name></trkpt>
<trkpt lat="53.442745" lon="05.615270"><ele>5.9</ele><time>2021-02-17T10:53:48Z</time><name>PT1785</name></trkpt>
<trkpt lat="53.442757" lon="05.615264"><ele>6.2</ele><time>2021-02-17T10:53:49Z</time><name>PT1786</name></trkpt>
<trkpt lat="53.442772" lon="05.615257"><ele>6.3</ele><time>2021-02-17T10:53:51Z</time><name>PT1787</name></trkpt>
<trkpt lat="53.442783" lon="05.615253"><ele>6.3</ele><time>2021-02-17T10:53:51Z</time><name>PT1788</name></trkpt>
<trkpt lat="53.442793" lon="05.615247"><ele>6.3</ele><time>2021-02-17T10:53:52Z</time><name>PT1789</name></trkpt>
<trkpt lat="53.442804" lon="05.615242"><ele>6.2</ele><time>2021-02-17T10:53:54Z</time><name>PT1790</name></trkpt>
<trkpt lat="53.442810" lon="05.615242"><ele>6.2</ele><time>2021-02-17T10:53:54Z</time><name>PT1791</name></trkpt>
<trkpt lat="53.442818" lon="05.615241"><ele>6.1</ele><time>2021-02-17T10:53:55Z</time><name>PT1792</name></trkpt>
<trkpt lat="53.442829" lon="05.615236"><ele>6</ele><time>2021-02-17T10:53:57Z</time><name>PT1793</name></trkpt>
<trkpt lat="53.442840" lon="05.615233"><ele>6</ele><time>2021-02-17T10:53:57Z</time><name>PT1794</name></trkpt>
<trkpt lat="53.442851" lon="05.615229"><ele>5.9</ele><time>2021-02-17T10:53:58Z</time><name>PT1795</name></trkpt>
<trkpt lat="53.442862" lon="05.615224"><ele>5.9</ele><time>2021-02-17T10:54:00Z</time><name>PT1796</name></trkpt>
<trkpt lat="53.442877" lon="05.615218"><ele>5.9</ele><time>2021-02-17T10:54:00Z</time><name>PT1797</name></trkpt>
<trkpt lat="53.442887" lon="05.615214"><ele>5.9</ele><time>2021-02-17T10:54:01Z</time><name>PT1798</name></trkpt>
<trkpt lat="53.442902" lon="05.615206"><ele>5.9</ele><time>2021-02-17T10:54:03Z</time><name>PT1799</name></trkpt>
<trkpt lat="53.442915" lon="05.615201"><ele>6</ele><time>2021-02-17T10:54:03Z</time><name>PT1800</name></trkpt>
<trkpt lat="53.442928" lon="05.615196"><ele>6</ele><time>2021-02-17T10:54:04Z</time><name>PT1801</name></trkpt>
<trkpt lat="53.442939" lon="05.615191"><ele>6</ele><time>2021-02-17T10:54:06Z</time><name>PT1802</name></trkpt>
<trkpt lat="53.442948" lon="05.615188"><ele>6</ele><time>2021-02-17T10:54:06Z</time><name>PT1803</name></trkpt>
<trkpt lat="53.442956" lon="05.615185"><ele>5.9</ele><time>2021-02-17T10:54:07Z</time><name>PT1804</name></trkpt>
<trkpt lat="53.442966" lon="05.615181"><ele>5.9</ele><time>2021-02-17T10:54:09Z</time><name>PT1805</name></trkpt>
<trkpt lat="53.442978" lon="05.615175"><ele>5.9</ele><time>2021-02-17T10:54:09Z</time><name>PT1806</name></trkpt>
<trkpt lat="53.442991" lon="05.615168"><ele>5.9</ele><time>2021-02-17T10:54:10Z</time><name>PT1807</name></trkpt>
<trkpt lat="53.443004" lon="05.615160"><ele>6.1</ele><time>2021-02-17T10:54:12Z</time><name>PT1808</name></trkpt>
<trkpt lat="53.443010" lon="05.615157"><ele>6.3</ele><time>2021-02-17T10:54:12Z</time><name>PT1809</name></trkpt>
<trkpt lat="53.443017" lon="05.615154"><ele>6.5</ele><time>2021-02-17T10:54:13Z</time><name>PT1810</name></trkpt>
<trkpt lat="53.443028" lon="05.615148"><ele>6.4</ele><time>2021-02-17T10:54:15Z</time><name>PT1811</name></trkpt>
<trkpt lat="53.443037" lon="05.615146"><ele>6.4</ele><time>2021-02-17T10:54:15Z</time><name>PT1812</name></trkpt>
<trkpt lat="53.443048" lon="05.615144"><ele>6.3</ele><time>2021-02-17T10:54:16Z</time><name>PT1813</name></trkpt>
<trkpt lat="53.443057" lon="05.615144"><ele>6.4</ele><time>2021-02-17T10:54:18Z</time><name>PT1814</name></trkpt>
<trkpt lat="53.443065" lon="05.615144"><ele>6.3</ele><time>2021-02-17T10:54:18Z</time><name>PT1815</name></trkpt>
<trkpt lat="53.443073" lon="05.615144"><ele>6.1</ele><time>2021-02-17T10:54:19Z</time><name>PT1816</name></trkpt>
<trkpt lat="53.443082" lon="05.615143"><ele>6.2</ele><time>2021-02-17T10:54:21Z</time><name>PT1817</name></trkpt>
<trkpt lat="53.443087" lon="05.615150"><ele>6.1</ele><time>2021-02-17T10:54:21Z</time><name>PT1818</name></trkpt>
<trkpt lat="53.443088" lon="05.615159"><ele>6</ele><time>2021-02-17T10:54:22Z</time><name>PT1819</name></trkpt>
<trkpt lat="53.443089" lon="05.615168"><ele>6.3</ele><time>2021-02-17T10:54:24Z</time><name>PT1820</name></trkpt>
<trkpt lat="53.443089" lon="05.615175"><ele>6.3</ele><time>2021-02-17T10:54:24Z</time><name>PT1821</name></trkpt>
<trkpt lat="53.443088" lon="05.615181"><ele>6.4</ele><time>2021-02-17T10:54:25Z</time><name>PT1822</name></trkpt>
<trkpt lat="53.443086" lon="05.615182"><ele>6.3</ele><time>2021-02-17T10:54:28Z</time><name>PT1823</name></trkpt>
<trkpt lat="53.443100" lon="05.615172"><ele>6.3</ele><time>2021-02-17T10:54:30Z</time><name>PT1824</name></trkpt>
<trkpt lat="53.443105" lon="05.615165"><ele>6.3</ele><time>2021-02-17T10:54:30Z</time><name>PT1825</name></trkpt>
<trkpt lat="53.443109" lon="05.615163"><ele>6.3</ele><time>2021-02-17T10:54:31Z</time><name>PT1826</name></trkpt>
<trkpt lat="53.443118" lon="05.615158"><ele>6.3</ele><time>2021-02-17T10:54:33Z</time><name>PT1827</name></trkpt>
<trkpt lat="53.443125" lon="05.615156"><ele>6.3</ele><time>2021-02-17T10:54:33Z</time><name>PT1828</name></trkpt>
<trkpt lat="53.443133" lon="05.615151"><ele>6.6</ele><time>2021-02-17T10:54:34Z</time><name>PT1829</name></trkpt>
<trkpt lat="53.443143" lon="05.615148"><ele>6.5</ele><time>2021-02-17T10:54:36Z</time><name>PT1830</name></trkpt>
<trkpt lat="53.443154" lon="05.615142"><ele>6.5</ele><time>2021-02-17T10:54:36Z</time><name>PT1831</name></trkpt>
<trkpt lat="53.443163" lon="05.615137"><ele>6.4</ele><time>2021-02-17T10:54:37Z</time><name>PT1832</name></trkpt>
<trkpt lat="53.443170" lon="05.615133"><ele>6.3</ele><time>2021-02-17T10:54:39Z</time><name>PT1833</name></trkpt>
<trkpt lat="53.443177" lon="05.615130"><ele>6.5</ele><time>2021-02-17T10:54:39Z</time><name>PT1834</name></trkpt>
<trkpt lat="53.443186" lon="05.615123"><ele>6.4</ele><time>2021-02-17T10:54:40Z</time><name>PT1835</name></trkpt>
<trkpt lat="53.443194" lon="05.615121"><ele>6.6</ele><time>2021-02-17T10:54:42Z</time><name>PT1836</name></trkpt>
<trkpt lat="53.443202" lon="05.615117"><ele>6.6</ele><time>2021-02-17T10:54:42Z</time><name>PT1837</name></trkpt>
<trkpt lat="53.443208" lon="05.615116"><ele>6.6</ele><time>2021-02-17T10:54:43Z</time><name>PT1838</name></trkpt>
<trkpt lat="53.443214" lon="05.615113"><ele>6.7</ele><time>2021-02-17T10:54:45Z</time><name>PT1839</name></trkpt>
<trkpt lat="53.443223" lon="05.615109"><ele>6.6</ele><time>2021-02-17T10:54:45Z</time><name>PT1840</name></trkpt>
<trkpt lat="53.443230" lon="05.615105"><ele>6.6</ele><time>2021-02-17T10:54:46Z</time><name>PT1841</name></trkpt>
<trkpt lat="53.443237" lon="05.615100"><ele>6.3</ele><time>2021-02-17T10:54:48Z</time><name>PT1842</name></trkpt>
<trkpt lat="53.443246" lon="05.615099"><ele>6.3</ele><time>2021-02-17T10:54:48Z</time><name>PT1843</name></trkpt>
<trkpt lat="53.443254" lon="05.615099"><ele>6.2</ele><time>2021-02-17T10:54:49Z</time><name>PT1844</name></trkpt>
<trkpt lat="53.443262" lon="05.615095"><ele>6.2</ele><time>2021-02-17T10:54:51Z</time><name>PT1845</name></trkpt>
<trkpt lat="53.443268" lon="05.615092"><ele>6.2</ele><time>2021-02-17T10:54:51Z</time><name>PT1846</name></trkpt>
<trkpt lat="53.443274" lon="05.615086"><ele>6.3</ele><time>2021-02-17T10:54:52Z</time><name>PT1847</name></trkpt>
<trkpt lat="53.443282" lon="05.615081"><ele>6.3</ele><time>2021-02-17T10:54:54Z</time><name>PT1848</name></trkpt>
<trkpt lat="53.443292" lon="05.615076"><ele>6.5</ele><time>2021-02-17T10:54:54Z</time><name>PT1849</name></trkpt>
<trkpt lat="53.443299" lon="05.615075"><ele>6.6</ele><time>2021-02-17T10:54:55Z</time><name>PT1850</name></trkpt>
<trkpt lat="53.443304" lon="05.615072"><ele>6.6</ele><time>2021-02-17T10:54:57Z</time><name>PT1851</name></trkpt>
<trkpt lat="53.443306" lon="05.615074"><ele>6.6</ele><time>2021-02-17T10:54:57Z</time><name>PT1852</name></trkpt>
<trkpt lat="53.443309" lon="05.615075"><ele>6.4</ele><time>2021-02-17T10:54:58Z</time><name>PT1853</name></trkpt>
<trkpt lat="53.443311" lon="05.615071"><ele>6</ele><time>2021-02-17T10:55:00Z</time><name>PT1854</name></trkpt>
<trkpt lat="53.443315" lon="05.615067"><ele>5.9</ele><time>2021-02-17T10:55:00Z</time><name>PT1855</name></trkpt>
<trkpt lat="53.443320" lon="05.615067"><ele>6</ele><time>2021-02-17T10:55:01Z</time><name>PT1856</name></trkpt>
<trkpt lat="53.443326" lon="05.615063"><ele>6.2</ele><time>2021-02-17T10:55:03Z</time><name>PT1857</name></trkpt>
<trkpt lat="53.443334" lon="05.615057"><ele>6.4</ele><time>2021-02-17T10:55:03Z</time><name>PT1858</name></trkpt>
<trkpt lat="53.443345" lon="05.615051"><ele>6.7</ele><time>2021-02-17T10:55:04Z</time><name>PT1859</name></trkpt>
<trkpt lat="53.443354" lon="05.615045"><ele>6.7</ele><time>2021-02-17T10:55:06Z</time><name>PT1860</name></trkpt>
<trkpt lat="53.443365" lon="05.615041"><ele>6.5</ele><time>2021-02-17T10:55:06Z</time><name>PT1861</name></trkpt>
<trkpt lat="53.443373" lon="05.615037"><ele>6.6</ele><time>2021-02-17T10:55:07Z</time><name>PT1862</name></trkpt>
<trkpt lat="53.443381" lon="05.615030"><ele>6.5</ele><time>2021-02-17T10:55:09Z</time><name>PT1863</name></trkpt>
<trkpt lat="53.443389" lon="05.615025"><ele>6.3</ele><time>2021-02-17T10:55:09Z</time><name>PT1864</name></trkpt>
<trkpt lat="53.443401" lon="05.615020"><ele>6.3</ele><time>2021-02-17T10:55:10Z</time><name>PT1865</name></trkpt>
<trkpt lat="53.443410" lon="05.615018"><ele>6.3</ele><time>2021-02-17T10:55:12Z</time><name>PT1866</name></trkpt>
<trkpt lat="53.443419" lon="05.615013"><ele>6.3</ele><time>2021-02-17T10:55:12Z</time><name>PT1867</name></trkpt>
<trkpt lat="53.443428" lon="05.615008"><ele>6.4</ele><time>2021-02-17T10:55:13Z</time><name>PT1868</name></trkpt>
<trkpt lat="53.443437" lon="05.615005"><ele>6.4</ele><time>2021-02-17T10:55:15Z</time><name>PT1869</name></trkpt>
<trkpt lat="53.443450" lon="05.614998"><ele>6.5</ele><time>2021-02-17T10:55:15Z</time><name>PT1870</name></trkpt>
<trkpt lat="53.443458" lon="05.614994"><ele>6.5</ele><time>2021-02-17T10:55:16Z</time><name>PT1871</name></trkpt>
<trkpt lat="53.443466" lon="05.614989"><ele>6.7</ele><time>2021-02-17T10:55:18Z</time><name>PT1872</name></trkpt>
<trkpt lat="53.443476" lon="05.614987"><ele>6.7</ele><time>2021-02-17T10:55:18Z</time><name>PT1873</name></trkpt>
<trkpt lat="53.443486" lon="05.614985"><ele>6.8</ele><time>2021-02-17T10:55:19Z</time><name>PT1874</name></trkpt>
<trkpt lat="53.443495" lon="05.614983"><ele>6.8</ele><time>2021-02-17T10:55:21Z</time><name>PT1875</name></trkpt>
<trkpt lat="53.443506" lon="05.614982"><ele>6.7</ele><time>2021-02-17T10:55:21Z</time><name>PT1876</name></trkpt>
<trkpt lat="53.443515" lon="05.614980"><ele>6.6</ele><time>2021-02-17T10:55:22Z</time><name>PT1877</name></trkpt>
<trkpt lat="53.443523" lon="05.614978"><ele>6.7</ele><time>2021-02-17T10:55:24Z</time><name>PT1878</name></trkpt>
<trkpt lat="53.443533" lon="05.614976"><ele>6.6</ele><time>2021-02-17T10:55:24Z</time><name>PT1879</name></trkpt>
<trkpt lat="53.443544" lon="05.614972"><ele>6.6</ele><time>2021-02-17T10:55:25Z</time><name>PT1880</name></trkpt>
<trkpt lat="53.443555" lon="05.614970"><ele>6.8</ele><time>2021-02-17T10:55:27Z</time><name>PT1881</name></trkpt>
<trkpt lat="53.443564" lon="05.614969"><ele>6.8</ele><time>2021-02-17T10:55:27Z</time><name>PT1882</name></trkpt>
<trkpt lat="53.443573" lon="05.614966"><ele>6.8</ele><time>2021-02-17T10:55:28Z</time><name>PT1883</name></trkpt>
<trkpt lat="53.443585" lon="05.614960"><ele>6.8</ele><time>2021-02-17T10:55:30Z</time><name>PT1884</name></trkpt>
<trkpt lat="53.443593" lon="05.614955"><ele>6.8</ele><time>2021-02-17T10:55:30Z</time><name>PT1885</name></trkpt>
<trkpt lat="53.443601" lon="05.614946"><ele>6.6</ele><time>2021-02-17T10:55:31Z</time><name>PT1886</name></trkpt>
<trkpt lat="53.443612" lon="05.614937"><ele>6.6</ele><time>2021-02-17T10:55:33Z</time><name>PT1887</name></trkpt>
<trkpt lat="53.443620" lon="05.614931"><ele>6.6</ele><time>2021-02-17T10:55:33Z</time><name>PT1888</name></trkpt>
<trkpt lat="53.443626" lon="05.614928"><ele>6.5</ele><time>2021-02-17T10:55:34Z</time><name>PT1889</name></trkpt>
<trkpt lat="53.443640" lon="05.614920"><ele>6.8</ele><time>2021-02-17T10:55:36Z</time><name>PT1890</name></trkpt>
<trkpt lat="53.443650" lon="05.614914"><ele>6.7</ele><time>2021-02-17T10:55:36Z</time><name>PT1891</name></trkpt>
<trkpt lat="53.443658" lon="05.614910"><ele>6.8</ele><time>2021-02-17T10:55:37Z</time><name>PT1892</name></trkpt>
<trkpt lat="53.443669" lon="05.614905"><ele>6.8</ele><time>2021-02-17T10:55:38Z</time><name>PT1893</name></trkpt>
<trkpt lat="53.443680" lon="05.614900"><ele>6.9</ele><time>2021-02-17T10:55:39Z</time><name>PT1894</name></trkpt>
<trkpt lat="53.443688" lon="05.614898"><ele>6.9</ele><time>2021-02-17T10:55:40Z</time><name>PT1895</name></trkpt>
<trkpt lat="53.443695" lon="05.614897"><ele>6.9</ele><time>2021-02-17T10:55:41Z</time><name>PT1896</name></trkpt>
<trkpt lat="53.443702" lon="05.614894"><ele>6.8</ele><time>2021-02-17T10:55:42Z</time><name>PT1897</name></trkpt>
<trkpt lat="53.443708" lon="05.614893"><ele>6.9</ele><time>2021-02-17T10:55:43Z</time><name>PT1898</name></trkpt>
<trkpt lat="53.443712" lon="05.614893"><ele>7</ele><time>2021-02-17T10:55:45Z</time><name>PT1899</name></trkpt>
<trkpt lat="53.443717" lon="05.614894"><ele>7.3</ele><time>2021-02-17T10:55:45Z</time><name>PT1900</name></trkpt>
<trkpt lat="53.443723" lon="05.614894"><ele>7.4</ele><time>2021-02-17T10:55:46Z</time><name>PT1901</name></trkpt>
<trkpt lat="53.443727" lon="05.614889"><ele>7.3</ele><time>2021-02-17T10:55:48Z</time><name>PT1902</name></trkpt>
<trkpt lat="53.443732" lon="05.614887"><ele>7.4</ele><time>2021-02-17T10:55:48Z</time><name>PT1903</name></trkpt>
<trkpt lat="53.443730" lon="05.614897"><ele>7</ele><time>2021-02-17T10:55:51Z</time><name>PT1904</name></trkpt>
<trkpt lat="53.443727" lon="05.614906"><ele>6.9</ele><time>2021-02-17T10:55:51Z</time><name>PT1905</name></trkpt>
<trkpt lat="53.443727" lon="05.614910"><ele>6.7</ele><time>2021-02-17T10:55:52Z</time><name>PT1906</name></trkpt>
<trkpt lat="53.443727" lon="05.614914"><ele>6.5</ele><time>2021-02-17T10:55:54Z</time><name>PT1907</name></trkpt>
<trkpt lat="53.443726" lon="05.614917"><ele>6</ele><time>2021-02-17T10:56:03Z</time><name>PT1908</name></trkpt>
<trkpt lat="53.443724" lon="05.614918"><ele>6.3</ele><time>2021-02-17T10:56:04Z</time><name>PT1909</name></trkpt>
<trkpt lat="53.443719" lon="05.614921"><ele>6.7</ele><time>2021-02-17T10:56:19Z</time><name>PT1910</name></trkpt>
<trkpt lat="53.443721" lon="05.614922"><ele>6.8</ele><time>2021-02-17T10:56:21Z</time><name>PT1911</name></trkpt>
<trkpt lat="53.443721" lon="05.614924"><ele>6.8</ele><time>2021-02-17T10:56:21Z</time><name>PT1912</name></trkpt>
<trkpt lat="53.443720" lon="05.614926"><ele>6.8</ele><time>2021-02-17T10:56:22Z</time><name>PT1913</name></trkpt>
<trkpt lat="53.443720" lon="05.614933"><ele>6.9</ele><time>2021-02-17T10:56:24Z</time><name>PT1914</name></trkpt>
<trkpt lat="53.443726" lon="05.614931"><ele>7.1</ele><time>2021-02-17T10:56:48Z</time><name>PT1915</name></trkpt>
<trkpt lat="53.443731" lon="05.614927"><ele>7.3</ele><time>2021-02-17T10:56:48Z</time><name>PT1916</name></trkpt>
<trkpt lat="53.443732" lon="05.614928"><ele>7.3</ele><time>2021-02-17T10:56:49Z</time><name>PT1917</name></trkpt>
<trkpt lat="53.443738" lon="05.614930"><ele>7.5</ele><time>2021-02-17T10:56:51Z</time><name>PT1918</name></trkpt>
<trkpt lat="53.443742" lon="05.614930"><ele>7.6</ele><time>2021-02-17T10:56:51Z</time><name>PT1919</name></trkpt>
<trkpt lat="53.443742" lon="05.614930"><ele>7.3</ele><time>2021-02-17T10:56:52Z</time><name>PT1920</name></trkpt>
<trkpt lat="53.443746" lon="05.614932"><ele>7.3</ele><time>2021-02-17T10:57:14Z</time><name>PT1921</name></trkpt>
<trkpt lat="53.443753" lon="05.614924"><ele>7.3</ele><time>2021-02-17T10:57:15Z</time><name>PT1922</name></trkpt>
<trkpt lat="53.443763" lon="05.614921"><ele>7.4</ele><time>2021-02-17T10:57:16Z</time><name>PT1923</name></trkpt>
<trkpt lat="53.443770" lon="05.614922"><ele>7.4</ele><time>2021-02-17T10:57:18Z</time><name>PT1924</name></trkpt>
<trkpt lat="53.443776" lon="05.614916"><ele>7.3</ele><time>2021-02-17T10:57:18Z</time><name>PT1925</name></trkpt>
<trkpt lat="53.443777" lon="05.614917"><ele>7.2</ele><time>2021-02-17T10:57:19Z</time><name>PT1926</name></trkpt>
<trkpt lat="53.443777" lon="05.614917"><ele>7.1</ele><time>2021-02-17T10:57:21Z</time><name>PT1927</name></trkpt>
<trkpt lat="53.443775" lon="05.614918"><ele>6.9</ele><time>2021-02-17T10:57:21Z</time><name>PT1928</name></trkpt>
<trkpt lat="53.443775" lon="05.614919"><ele>6.2</ele><time>2021-02-17T10:57:32Z</time><name>PT1929</name></trkpt>
<trkpt lat="53.443775" lon="05.614923"><ele>6.2</ele><time>2021-02-17T10:57:33Z</time><name>PT1930</name></trkpt>
<trkpt lat="53.443775" lon="05.614926"><ele>6.8</ele><time>2021-02-17T10:57:57Z</time><name>PT1931</name></trkpt>
<trkpt lat="53.443775" lon="05.614925"><ele>6.9</ele><time>2021-02-17T10:57:58Z</time><name>PT1932</name></trkpt>
<trkpt lat="53.443781" lon="05.614921"><ele>7.3</ele><time>2021-02-17T10:58:10Z</time><name>PT1933</name></trkpt>
<trkpt lat="53.443792" lon="05.614922"><ele>7.3</ele><time>2021-02-17T10:58:12Z</time><name>PT1934</name></trkpt>
<trkpt lat="53.443799" lon="05.614918"><ele>7.6</ele><time>2021-02-17T10:58:12Z</time><name>PT1935</name></trkpt>
<trkpt lat="53.443810" lon="05.614907"><ele>7.6</ele><time>2021-02-17T10:58:13Z</time><name>PT1936</name></trkpt>
<trkpt lat="53.443818" lon="05.614900"><ele>7.8</ele><time>2021-02-17T10:58:14Z</time><name>PT1937</name></trkpt>
<trkpt lat="53.443826" lon="05.614889"><ele>7.8</ele><time>2021-02-17T10:58:15Z</time><name>PT1938</name></trkpt>
<trkpt lat="53.443834" lon="05.614882"><ele>7.8</ele><time>2021-02-17T10:58:16Z</time><name>PT1939</name></trkpt>
<trkpt lat="53.443844" lon="05.614875"><ele>8</ele><time>2021-02-17T10:58:17Z</time><name>PT1940</name></trkpt>
<trkpt lat="53.443849" lon="05.614869"><ele>7.9</ele><time>2021-02-17T10:58:18Z</time><name>PT1941</name></trkpt>
<trkpt lat="53.443860" lon="05.614865"><ele>7.8</ele><time>2021-02-17T10:58:19Z</time><name>PT1942</name></trkpt>
<trkpt lat="53.443870" lon="05.614862"><ele>7.8</ele><time>2021-02-17T10:58:21Z</time><name>PT1943</name></trkpt>
<trkpt lat="53.443880" lon="05.614861"><ele>7.8</ele><time>2021-02-17T10:58:21Z</time><name>PT1944</name></trkpt>
<trkpt lat="53.443889" lon="05.614859"><ele>7.7</ele><time>2021-02-17T10:58:22Z</time><name>PT1945</name></trkpt>
<trkpt lat="53.443899" lon="05.614852"><ele>7.7</ele><time>2021-02-17T10:58:23Z</time><name>PT1946</name></trkpt>
<trkpt lat="53.443907" lon="05.614846"><ele>7.7</ele><time>2021-02-17T10:58:24Z</time><name>PT1947</name></trkpt>
<trkpt lat="53.443917" lon="05.614841"><ele>7.8</ele><time>2021-02-17T10:58:25Z</time><name>PT1948</name></trkpt>
<trkpt lat="53.443926" lon="05.614837"><ele>7.9</ele><time>2021-02-17T10:58:26Z</time><name>PT1949</name></trkpt>
<trkpt lat="53.443935" lon="05.614828"><ele>8</ele><time>2021-02-17T10:58:27Z</time><name>PT1950</name></trkpt>
<trkpt lat="53.443942" lon="05.614821"><ele>8.1</ele><time>2021-02-17T10:58:28Z</time><name>PT1951</name></trkpt>
<trkpt lat="53.443946" lon="05.614817"><ele>8.1</ele><time>2021-02-17T10:58:29Z</time><name>PT1952</name></trkpt>
<trkpt lat="53.443958" lon="05.614812"><ele>8.1</ele><time>2021-02-17T10:58:30Z</time><name>PT1953</name></trkpt>
<trkpt lat="53.443969" lon="05.614804"><ele>8.1</ele><time>2021-02-17T10:58:31Z</time><name>PT1954</name></trkpt>
<trkpt lat="53.443981" lon="05.614797"><ele>8</ele><time>2021-02-17T10:58:33Z</time><name>PT1955</name></trkpt>
<trkpt lat="53.443989" lon="05.614786"><ele>8</ele><time>2021-02-17T10:58:33Z</time><name>PT1956</name></trkpt>
<trkpt lat="53.443999" lon="05.614778"><ele>8</ele><time>2021-02-17T10:58:34Z</time><name>PT1957</name></trkpt>
<trkpt lat="53.444010" lon="05.614772"><ele>7.9</ele><time>2021-02-17T10:58:35Z</time><name>PT1958</name></trkpt>
<trkpt lat="53.444021" lon="05.614766"><ele>7.8</ele><time>2021-02-17T10:58:36Z</time><name>PT1959</name></trkpt>
<trkpt lat="53.444031" lon="05.614761"><ele>7.8</ele><time>2021-02-17T10:58:37Z</time><name>PT1960</name></trkpt>
<trkpt lat="53.444040" lon="05.614757"><ele>7.8</ele><time>2021-02-17T10:58:39Z</time><name>PT1961</name></trkpt>
<trkpt lat="53.444049" lon="05.614759"><ele>7.8</ele><time>2021-02-17T10:58:39Z</time><name>PT1962</name></trkpt>
<trkpt lat="53.444056" lon="05.614761"><ele>7.8</ele><time>2021-02-17T10:58:40Z</time><name>PT1963</name></trkpt>
<trkpt lat="53.444066" lon="05.614761"><ele>7.7</ele><time>2021-02-17T10:58:41Z</time><name>PT1964</name></trkpt>
<trkpt lat="53.444076" lon="05.614758"><ele>7.7</ele><time>2021-02-17T10:58:42Z</time><name>PT1965</name></trkpt>
<trkpt lat="53.444085" lon="05.614754"><ele>7.7</ele><time>2021-02-17T10:58:43Z</time><name>PT1966</name></trkpt>
<trkpt lat="53.444095" lon="05.614751"><ele>7.4</ele><time>2021-02-17T10:58:45Z</time><name>PT1967</name></trkpt>
<trkpt lat="53.444105" lon="05.614750"><ele>7.3</ele><time>2021-02-17T10:58:45Z</time><name>PT1968</name></trkpt>
<trkpt lat="53.444114" lon="05.614747"><ele>7.3</ele><time>2021-02-17T10:58:46Z</time><name>PT1969</name></trkpt>
<trkpt lat="53.444123" lon="05.614746"><ele>7.4</ele><time>2021-02-17T10:58:48Z</time><name>PT1970</name></trkpt>
<trkpt lat="53.444133" lon="05.614749"><ele>7.4</ele><time>2021-02-17T10:58:48Z</time><name>PT1971</name></trkpt>
<trkpt lat="53.444142" lon="05.614752"><ele>7.6</ele><time>2021-02-17T10:58:49Z</time><name>PT1972</name></trkpt>
<trkpt lat="53.444151" lon="05.614754"><ele>7.5</ele><time>2021-02-17T10:58:50Z</time><name>PT1973</name></trkpt>
<trkpt lat="53.444162" lon="05.614754"><ele>7.4</ele><time>2021-02-17T10:58:51Z</time><name>PT1974</name></trkpt>
<trkpt lat="53.444172" lon="05.614754"><ele>7.4</ele><time>2021-02-17T10:58:52Z</time><name>PT1975</name></trkpt>
<trkpt lat="53.444181" lon="05.614755"><ele>7.6</ele><time>2021-02-17T10:58:53Z</time><name>PT1976</name></trkpt>
<trkpt lat="53.444192" lon="05.614758"><ele>7.7</ele><time>2021-02-17T10:58:54Z</time><name>PT1977</name></trkpt>
<trkpt lat="53.444202" lon="05.614759"><ele>7.6</ele><time>2021-02-17T10:58:55Z</time><name>PT1978</name></trkpt>
<trkpt lat="53.444210" lon="05.614756"><ele>7.8</ele><time>2021-02-17T10:58:57Z</time><name>PT1979</name></trkpt>
<trkpt lat="53.444222" lon="05.614752"><ele>7.7</ele><time>2021-02-17T10:58:57Z</time><name>PT1980</name></trkpt>
<trkpt lat="53.444231" lon="05.614749"><ele>7.7</ele><time>2021-02-17T10:58:58Z</time><name>PT1981</name></trkpt>
<trkpt lat="53.444242" lon="05.614751"><ele>7.8</ele><time>2021-02-17T10:58:59Z</time><name>PT1982</name></trkpt>
<trkpt lat="53.444249" lon="05.614752"><ele>7.8</ele><time>2021-02-17T10:59:00Z</time><name>PT1983</name></trkpt>
<trkpt lat="53.444259" lon="05.614757"><ele>7.9</ele><time>2021-02-17T10:59:01Z</time><name>PT1984</name></trkpt>
<trkpt lat="53.444267" lon="05.614759"><ele>7.8</ele><time>2021-02-17T10:59:02Z</time><name>PT1985</name></trkpt>
<trkpt lat="53.444275" lon="05.614763"><ele>7.7</ele><time>2021-02-17T10:59:03Z</time><name>PT1986</name></trkpt>
<trkpt lat="53.444283" lon="05.614765"><ele>7.5</ele><time>2021-02-17T10:59:04Z</time><name>PT1987</name></trkpt>
<trkpt lat="53.444293" lon="05.614764"><ele>7.4</ele><time>2021-02-17T10:59:06Z</time><name>PT1988</name></trkpt>
<trkpt lat="53.444303" lon="05.614763"><ele>7.4</ele><time>2021-02-17T10:59:06Z</time><name>PT1989</name></trkpt>
<trkpt lat="53.444310" lon="05.614768"><ele>7.5</ele><time>2021-02-17T10:59:07Z</time><name>PT1990</name></trkpt>
<trkpt lat="53.444318" lon="05.614771"><ele>7.6</ele><time>2021-02-17T10:59:09Z</time><name>PT1991</name></trkpt>
<trkpt lat="53.444326" lon="05.614776"><ele>7.7</ele><time>2021-02-17T10:59:09Z</time><name>PT1992</name></trkpt>
<trkpt lat="53.444332" lon="05.614779"><ele>7.7</ele><time>2021-02-17T10:59:10Z</time><name>PT1993</name></trkpt>
<trkpt lat="53.444346" lon="05.614778"><ele>7.7</ele><time>2021-02-17T10:59:12Z</time><name>PT1994</name></trkpt>
<trkpt lat="53.444353" lon="05.614782"><ele>7.7</ele><time>2021-02-17T10:59:12Z</time><name>PT1995</name></trkpt>
<trkpt lat="53.444363" lon="05.614782"><ele>7.5</ele><time>2021-02-17T10:59:13Z</time><name>PT1996</name></trkpt>
<trkpt lat="53.444372" lon="05.614783"><ele>7.8</ele><time>2021-02-17T10:59:14Z</time><name>PT1997</name></trkpt>
<trkpt lat="53.444382" lon="05.614782"><ele>8</ele><time>2021-02-17T10:59:15Z</time><name>PT1998</name></trkpt>
<trkpt lat="53.444392" lon="05.614783"><ele>8.3</ele><time>2021-02-17T10:59:16Z</time><name>PT1999</name></trkpt>
<trkpt lat="53.444406" lon="05.614781"><ele>8.4</ele><time>2021-02-17T10:59:17Z</time><name>PT2000</name></trkpt>
<trkpt lat="53.444414" lon="05.614775"><ele>8.5</ele><time>2021-02-17T10:59:18Z</time><name>PT2001</name></trkpt>
<trkpt lat="53.444421" lon="05.614767"><ele>8.5</ele><time>2021-02-17T10:59:19Z</time><name>PT2002</name></trkpt>
<trkpt lat="53.444427" lon="05.614763"><ele>8.4</ele><time>2021-02-17T10:59:21Z</time><name>PT2003</name></trkpt>
<trkpt lat="53.444438" lon="05.614758"><ele>8.4</ele><time>2021-02-17T10:59:21Z</time><name>PT2004</name></trkpt>
<trkpt lat="53.444448" lon="05.614756"><ele>8.3</ele><time>2021-02-17T10:59:22Z</time><name>PT2005</name></trkpt>
<trkpt lat="53.444456" lon="05.614748"><ele>8.1</ele><time>2021-02-17T10:59:23Z</time><name>PT2006</name></trkpt>
<trkpt lat="53.444463" lon="05.614744"><ele>8</ele><time>2021-02-17T10:59:24Z</time><name>PT2007</name></trkpt>
<trkpt lat="53.444473" lon="05.614739"><ele>7.8</ele><time>2021-02-17T10:59:25Z</time><name>PT2008</name></trkpt>
<trkpt lat="53.444480" lon="05.614730"><ele>7.8</ele><time>2021-02-17T10:59:26Z</time><name>PT2009</name></trkpt>
<trkpt lat="53.444490" lon="05.614723"><ele>7.8</ele><time>2021-02-17T10:59:27Z</time><name>PT2010</name></trkpt>
<trkpt lat="53.444500" lon="05.614717"><ele>7.9</ele><time>2021-02-17T10:59:28Z</time><name>PT2011</name></trkpt>
<trkpt lat="53.444508" lon="05.614710"><ele>8.1</ele><time>2021-02-17T10:59:29Z</time><name>PT2012</name></trkpt>
<trkpt lat="53.444515" lon="05.614707"><ele>8.3</ele><time>2021-02-17T10:59:30Z</time><name>PT2013</name></trkpt>
<trkpt lat="53.444523" lon="05.614704"><ele>8.5</ele><time>2021-02-17T10:59:31Z</time><name>PT2014</name></trkpt>
<trkpt lat="53.444529" lon="05.614704"><ele>8.5</ele><time>2021-02-17T10:59:32Z</time><name>PT2015</name></trkpt>
<trkpt lat="53.444532" lon="05.614701"><ele>8.5</ele><time>2021-02-17T10:59:33Z</time><name>PT2016</name></trkpt>
<trkpt lat="53.444535" lon="05.614697"><ele>8.3</ele><time>2021-02-17T10:59:34Z</time><name>PT2017</name></trkpt>
<trkpt lat="53.444536" lon="05.614695"><ele>8</ele><time>2021-02-17T10:59:36Z</time><name>PT2018</name></trkpt>
<trkpt lat="53.444534" lon="05.614695"><ele>7.8</ele><time>2021-02-17T10:59:36Z</time><name>PT2019</name></trkpt>
<trkpt lat="53.444534" lon="05.614695"><ele>7.7</ele><time>2021-02-17T10:59:37Z</time><name>PT2020</name></trkpt>
<trkpt lat="53.444533" lon="05.614703"><ele>7.9</ele><time>2021-02-17T10:59:52Z</time><name>PT2021</name></trkpt>
<trkpt lat="53.444544" lon="05.614703"><ele>7.9</ele><time>2021-02-17T10:59:53Z</time><name>PT2022</name></trkpt>
<trkpt lat="53.444551" lon="05.614706"><ele>7.9</ele><time>2021-02-17T10:59:54Z</time><name>PT2023</name></trkpt>
<trkpt lat="53.444553" lon="05.614707"><ele>8.1</ele><time>2021-02-17T10:59:55Z</time><name>PT2024</name></trkpt>
<trkpt lat="53.444554" lon="05.614707"><ele>7.9</ele><time>2021-02-17T10:59:56Z</time><name>PT2025</name></trkpt>
<trkpt lat="53.444553" lon="05.614707"><ele>7.9</ele><time>2021-02-17T10:59:57Z</time><name>PT2026</name></trkpt>
<trkpt lat="53.444552" lon="05.614707"><ele>7.9</ele><time>2021-02-17T10:59:58Z</time><name>PT2027</name></trkpt>
<trkpt lat="53.444550" lon="05.614704"><ele>7.8</ele><time>2021-02-17T11:00:00Z</time><name>PT2028</name></trkpt>
<trkpt lat="53.444551" lon="05.614705"><ele>7.6</ele><time>2021-02-17T11:00:10Z</time><name>PT2029</name></trkpt>
<trkpt lat="53.444554" lon="05.614702"><ele>7.7</ele><time>2021-02-17T11:00:12Z</time><name>PT2030</name></trkpt>
<trkpt lat="53.444559" lon="05.614708"><ele>7.6</ele><time>2021-02-17T11:00:12Z</time><name>PT2031</name></trkpt>
<trkpt lat="53.444561" lon="05.614709"><ele>7.7</ele><time>2021-02-17T11:00:13Z</time><name>PT2032</name></trkpt>
<trkpt lat="53.444565" lon="05.614714"><ele>7.7</ele><time>2021-02-17T11:00:17Z</time><name>PT2033</name></trkpt>
<trkpt lat="53.444572" lon="05.614733"><ele>7.6</ele><time>2021-02-17T11:00:18Z</time><name>PT2034</name></trkpt>
<trkpt lat="53.444575" lon="05.614745"><ele>7.8</ele><time>2021-02-17T11:00:19Z</time><name>PT2035</name></trkpt>
<trkpt lat="53.444579" lon="05.614760"><ele>7.7</ele><time>2021-02-17T11:00:20Z</time><name>PT2036</name></trkpt>
<trkpt lat="53.444587" lon="05.614772"><ele>7.9</ele><time>2021-02-17T11:00:21Z</time><name>PT2037</name></trkpt>
<trkpt lat="53.444596" lon="05.614782"><ele>7.9</ele><time>2021-02-17T11:00:22Z</time><name>PT2038</name></trkpt>
<trkpt lat="53.444602" lon="05.614793"><ele>7.6</ele><time>2021-02-17T11:00:23Z</time><name>PT2039</name></trkpt>
<trkpt lat="53.444603" lon="05.614800"><ele>7.6</ele><time>2021-02-17T11:00:24Z</time><name>PT2040</name></trkpt>
<trkpt lat="53.444603" lon="05.614805"><ele>7.3</ele><time>2021-02-17T11:00:25Z</time><name>PT2041</name></trkpt>
<trkpt lat="53.444607" lon="05.614815"><ele>7.2</ele><time>2021-02-17T11:00:27Z</time><name>PT2042</name></trkpt>
<trkpt lat="53.444611" lon="05.614828"><ele>7.3</ele><time>2021-02-17T11:00:27Z</time><name>PT2043</name></trkpt>
<trkpt lat="53.444618" lon="05.614839"><ele>7.4</ele><time>2021-02-17T11:00:28Z</time><name>PT2044</name></trkpt>
<trkpt lat="53.444623" lon="05.614853"><ele>7.7</ele><time>2021-02-17T11:00:29Z</time><name>PT2045</name></trkpt>
<trkpt lat="53.444627" lon="05.614860"><ele>7.8</ele><time>2021-02-17T11:00:30Z</time><name>PT2046</name></trkpt>
<trkpt lat="53.444632" lon="05.614870"><ele>7.9</ele><time>2021-02-17T11:00:31Z</time><name>PT2047</name></trkpt>
<trkpt lat="53.444637" lon="05.614876"><ele>8</ele><time>2021-02-17T11:00:32Z</time><name>PT2048</name></trkpt>
<trkpt lat="53.444642" lon="05.614886"><ele>7.9</ele><time>2021-02-17T11:00:33Z</time><name>PT2049</name></trkpt>
<trkpt lat="53.444647" lon="05.614897"><ele>7.8</ele><time>2021-02-17T11:00:34Z</time><name>PT2050</name></trkpt>
<trkpt lat="53.444654" lon="05.614905"><ele>7.8</ele><time>2021-02-17T11:00:35Z</time><name>PT2051</name></trkpt>
<trkpt lat="53.444662" lon="05.614915"><ele>7.9</ele><time>2021-02-17T11:00:36Z</time><name>PT2052</name></trkpt>
<trkpt lat="53.444667" lon="05.614924"><ele>8.1</ele><time>2021-02-17T11:00:37Z</time><name>PT2053</name></trkpt>
<trkpt lat="53.444674" lon="05.614931"><ele>8.2</ele><time>2021-02-17T11:00:39Z</time><name>PT2054</name></trkpt>
<trkpt lat="53.444680" lon="05.614938"><ele>8.2</ele><time>2021-02-17T11:00:39Z</time><name>PT2055</name></trkpt>
<trkpt lat="53.444685" lon="05.614946"><ele>8.3</ele><time>2021-02-17T11:00:40Z</time><name>PT2056</name></trkpt>
<trkpt lat="53.444691" lon="05.614958"><ele>8.3</ele><time>2021-02-17T11:00:41Z</time><name>PT2057</name></trkpt>
<trkpt lat="53.444698" lon="05.614967"><ele>8.4</ele><time>2021-02-17T11:00:42Z</time><name>PT2058</name></trkpt>
<trkpt lat="53.444705" lon="05.614972"><ele>8.3</ele><time>2021-02-17T11:00:43Z</time><name>PT2059</name></trkpt>
<trkpt lat="53.444711" lon="05.614978"><ele>8.3</ele><time>2021-02-17T11:00:44Z</time><name>PT2060</name></trkpt>
<trkpt lat="53.444720" lon="05.614984"><ele>8.3</ele><time>2021-02-17T11:00:45Z</time><name>PT2061</name></trkpt>
<trkpt lat="53.444727" lon="05.614989"><ele>8.4</ele><time>2021-02-17T11:00:46Z</time><name>PT2062</name></trkpt>
<trkpt lat="53.444733" lon="05.614991"><ele>8.4</ele><time>2021-02-17T11:00:47Z</time><name>PT2063</name></trkpt>
<trkpt lat="53.444739" lon="05.614997"><ele>8.5</ele><time>2021-02-17T11:00:48Z</time><name>PT2064</name></trkpt>
<trkpt lat="53.444746" lon="05.615006"><ele>8.4</ele><time>2021-02-17T11:00:49Z</time><name>PT2065</name></trkpt>
<trkpt lat="53.444753" lon="05.615014"><ele>8.3</ele><time>2021-02-17T11:00:51Z</time><name>PT2066</name></trkpt>
<trkpt lat="53.444759" lon="05.615024"><ele>8.4</ele><time>2021-02-17T11:00:51Z</time><name>PT2067</name></trkpt>
<trkpt lat="53.444764" lon="05.615033"><ele>8.6</ele><time>2021-02-17T11:00:52Z</time><name>PT2068</name></trkpt>
<trkpt lat="53.444772" lon="05.615043"><ele>8.7</ele><time>2021-02-17T11:00:53Z</time><name>PT2069</name></trkpt>
<trkpt lat="53.444778" lon="05.615051"><ele>8.8</ele><time>2021-02-17T11:00:54Z</time><name>PT2070</name></trkpt>
<trkpt lat="53.444785" lon="05.615061"><ele>9</ele><time>2021-02-17T11:00:55Z</time><name>PT2071</name></trkpt>
<trkpt lat="53.444788" lon="05.615072"><ele>9</ele><time>2021-02-17T11:00:56Z</time><name>PT2072</name></trkpt>
<trkpt lat="53.444794" lon="05.615085"><ele>9.1</ele><time>2021-02-17T11:00:57Z</time><name>PT2073</name></trkpt>
<trkpt lat="53.444800" lon="05.615094"><ele>9.2</ele><time>2021-02-17T11:00:58Z</time><name>PT2074</name></trkpt>
<trkpt lat="53.444806" lon="05.615103"><ele>9.3</ele><time>2021-02-17T11:00:59Z</time><name>PT2075</name></trkpt>
<trkpt lat="53.444811" lon="05.615114"><ele>9.3</ele><time>2021-02-17T11:01:00Z</time><name>PT2076</name></trkpt>
<trkpt lat="53.444812" lon="05.615117"><ele>9.2</ele><time>2021-02-17T11:01:01Z</time><name>PT2077</name></trkpt>
<trkpt lat="53.444817" lon="05.615124"><ele>9.2</ele><time>2021-02-17T11:01:03Z</time><name>PT2078</name></trkpt>
<trkpt lat="53.444823" lon="05.615131"><ele>9</ele><time>2021-02-17T11:01:03Z</time><name>PT2079</name></trkpt>
<trkpt lat="53.444829" lon="05.615142"><ele>9</ele><time>2021-02-17T11:01:04Z</time><name>PT2080</name></trkpt>
<trkpt lat="53.444834" lon="05.615151"><ele>9.3</ele><time>2021-02-17T11:01:05Z</time><name>PT2081</name></trkpt>
<trkpt lat="53.444838" lon="05.615157"><ele>9.3</ele><time>2021-02-17T11:01:06Z</time><name>PT2082</name></trkpt>
<trkpt lat="53.444843" lon="05.615167"><ele>9.3</ele><time>2021-02-17T11:01:07Z</time><name>PT2083</name></trkpt>
<trkpt lat="53.444847" lon="05.615174"><ele>9.3</ele><time>2021-02-17T11:01:08Z</time><name>PT2084</name></trkpt>
<trkpt lat="53.444851" lon="05.615184"><ele>9.3</ele><time>2021-02-17T11:01:09Z</time><name>PT2085</name></trkpt>
<trkpt lat="53.444855" lon="05.615194"><ele>9.3</ele><time>2021-02-17T11:01:10Z</time><name>PT2086</name></trkpt>
<trkpt lat="53.444858" lon="05.615205"><ele>9.5</ele><time>2021-02-17T11:01:11Z</time><name>PT2087</name></trkpt>
<trkpt lat="53.444862" lon="05.615214"><ele>9.6</ele><time>2021-02-17T11:01:12Z</time><name>PT2088</name></trkpt>
<trkpt lat="53.444865" lon="05.615224"><ele>9.9</ele><time>2021-02-17T11:01:13Z</time><name>PT2089</name></trkpt>
<trkpt lat="53.444869" lon="05.615233"><ele>10.1</ele><time>2021-02-17T11:01:15Z</time><name>PT2090</name></trkpt>
<trkpt lat="53.444874" lon="05.615241"><ele>10.1</ele><time>2021-02-17T11:01:15Z</time><name>PT2091</name></trkpt>
<trkpt lat="53.444878" lon="05.615250"><ele>10.3</ele><time>2021-02-17T11:01:16Z</time><name>PT2092</name></trkpt>
<trkpt lat="53.444882" lon="05.615261"><ele>10.3</ele><time>2021-02-17T11:01:17Z</time><name>PT2093</name></trkpt>
<trkpt lat="53.444886" lon="05.615270"><ele>10.4</ele><time>2021-02-17T11:01:18Z</time><name>PT2094</name></trkpt>
<trkpt lat="53.444889" lon="05.615279"><ele>10.6</ele><time>2021-02-17T11:01:19Z</time><name>PT2095</name></trkpt>
<trkpt lat="53.444894" lon="05.615287"><ele>10.8</ele><time>2021-02-17T11:01:20Z</time><name>PT2096</name></trkpt>
<trkpt lat="53.444897" lon="05.615296"><ele>10.8</ele><time>2021-02-17T11:01:21Z</time><name>PT2097</name></trkpt>
<trkpt lat="53.444899" lon="05.615308"><ele>11.1</ele><time>2021-02-17T11:01:22Z</time><name>PT2098</name></trkpt>
<trkpt lat="53.444901" lon="05.615320"><ele>11.1</ele><time>2021-02-17T11:01:23Z</time><name>PT2099</name></trkpt>
<trkpt lat="53.444903" lon="05.615330"><ele>11.1</ele><time>2021-02-17T11:01:24Z</time><name>PT2100</name></trkpt>
<trkpt lat="53.444905" lon="05.615340"><ele>11</ele><time>2021-02-17T11:01:25Z</time><name>PT2101</name></trkpt>
<trkpt lat="53.444906" lon="05.615346"><ele>11.2</ele><time>2021-02-17T11:01:26Z</time><name>PT2102</name></trkpt>
<trkpt lat="53.444902" lon="05.615348"><ele>11.3</ele><time>2021-02-17T11:01:27Z</time><name>PT2103</name></trkpt>
<trkpt lat="53.444898" lon="05.615349"><ele>11.4</ele><time>2021-02-17T11:01:28Z</time><name>PT2104</name></trkpt>
<trkpt lat="53.444897" lon="05.615348"><ele>11.5</ele><time>2021-02-17T11:01:29Z</time><name>PT2105</name></trkpt>
<trkpt lat="53.444894" lon="05.615352"><ele>11.6</ele><time>2021-02-17T11:01:30Z</time><name>PT2106</name></trkpt>
<trkpt lat="53.444894" lon="05.615353"><ele>11.5</ele><time>2021-02-17T11:01:31Z</time><name>PT2107</name></trkpt>
<trkpt lat="53.444895" lon="05.615351"><ele>11.4</ele><time>2021-02-17T11:01:32Z</time><name>PT2108</name></trkpt>
<trkpt lat="53.444894" lon="05.615351"><ele>11.5</ele><time>2021-02-17T11:01:33Z</time><name>PT2109</name></trkpt>
<trkpt lat="53.444893" lon="05.615352"><ele>11.7</ele><time>2021-02-17T11:01:34Z</time><name>PT2110</name></trkpt>
<trkpt lat="53.444894" lon="05.615352"><ele>11.6</ele><time>2021-02-17T11:01:43Z</time><name>PT2111</name></trkpt>
<trkpt lat="53.444887" lon="05.615351"><ele>11.5</ele><time>2021-02-17T11:01:44Z</time><name>PT2112</name></trkpt>
<trkpt lat="53.444886" lon="05.615347"><ele>11.3</ele><time>2021-02-17T11:01:45Z</time><name>PT2113</name></trkpt>
<trkpt lat="53.444890" lon="05.615343"><ele>10.9</ele><time>2021-02-17T11:01:46Z</time><name>PT2114</name></trkpt>
<trkpt lat="53.444890" lon="05.615344"><ele>10.8</ele><time>2021-02-17T11:01:47Z</time><name>PT2115</name></trkpt>
<trkpt lat="53.444892" lon="05.615337"><ele>10.7</ele><time>2021-02-17T11:01:48Z</time><name>PT2116</name></trkpt>
<trkpt lat="53.444894" lon="05.615330"><ele>10.7</ele><time>2021-02-17T11:01:49Z</time><name>PT2117</name></trkpt>
<trkpt lat="53.444898" lon="05.615333"><ele>10.9</ele><time>2021-02-17T11:01:50Z</time><name>PT2118</name></trkpt>
<trkpt lat="53.444902" lon="05.615336"><ele>11.1</ele><time>2021-02-17T11:01:51Z</time><name>PT2119</name></trkpt>
<trkpt lat="53.444905" lon="05.615341"><ele>11.2</ele><time>2021-02-17T11:01:52Z</time><name>PT2120</name></trkpt>
<trkpt lat="53.444908" lon="05.615350"><ele>11.4</ele><time>2021-02-17T11:01:54Z</time><name>PT2121</name></trkpt>
<trkpt lat="53.444912" lon="05.615366"><ele>11.4</ele><time>2021-02-17T11:01:54Z</time><name>PT2122</name></trkpt>
<trkpt lat="53.444915" lon="05.615378"><ele>11.5</ele><time>2021-02-17T11:01:55Z</time><name>PT2123</name></trkpt>
<trkpt lat="53.444917" lon="05.615392"><ele>11.4</ele><time>2021-02-17T11:01:56Z</time><name>PT2124</name></trkpt>
<trkpt lat="53.444919" lon="05.615409"><ele>11.4</ele><time>2021-02-17T11:01:57Z</time><name>PT2125</name></trkpt>
<trkpt lat="53.444922" lon="05.615417"><ele>11.6</ele><time>2021-02-17T11:01:58Z</time><name>PT2126</name></trkpt>
<trkpt lat="53.444926" lon="05.615423"><ele>11.7</ele><time>2021-02-17T11:01:59Z</time><name>PT2127</name></trkpt>
<trkpt lat="53.444931" lon="05.615432"><ele>11.7</ele><time>2021-02-17T11:02:00Z</time><name>PT2128</name></trkpt>
<trkpt lat="53.444937" lon="05.615442"><ele>11.8</ele><time>2021-02-17T11:02:01Z</time><name>PT2129</name></trkpt>
<trkpt lat="53.444942" lon="05.615449"><ele>11.8</ele><time>2021-02-17T11:02:02Z</time><name>PT2130</name></trkpt>
<trkpt lat="53.444948" lon="05.615456"><ele>11.9</ele><time>2021-02-17T11:02:03Z</time><name>PT2131</name></trkpt>
<trkpt lat="53.444954" lon="05.615463"><ele>12.2</ele><time>2021-02-17T11:02:04Z</time><name>PT2132</name></trkpt>
<trkpt lat="53.444959" lon="05.615472"><ele>12.4</ele><time>2021-02-17T11:02:06Z</time><name>PT2133</name></trkpt>
<trkpt lat="53.444961" lon="05.615478"><ele>12.7</ele><time>2021-02-17T11:02:06Z</time><name>PT2134</name></trkpt>
<trkpt lat="53.444959" lon="05.615488"><ele>12.9</ele><time>2021-02-17T11:02:07Z</time><name>PT2135</name></trkpt>
<trkpt lat="53.444957" lon="05.615499"><ele>12.8</ele><time>2021-02-17T11:02:08Z</time><name>PT2136</name></trkpt>
<trkpt lat="53.444957" lon="05.615508"><ele>13</ele><time>2021-02-17T11:02:09Z</time><name>PT2137</name></trkpt>
<trkpt lat="53.444959" lon="05.615516"><ele>13.1</ele><time>2021-02-17T11:02:10Z</time><name>PT2138</name></trkpt>
<trkpt lat="53.444958" lon="05.615523"><ele>12.9</ele><time>2021-02-17T11:02:11Z</time><name>PT2139</name></trkpt>
<trkpt lat="53.444959" lon="05.615526"><ele>13.1</ele><time>2021-02-17T11:02:12Z</time><name>PT2140</name></trkpt>
<trkpt lat="53.444958" lon="05.615527"><ele>13.1</ele><time>2021-02-17T11:02:13Z</time><name>PT2141</name></trkpt>
<trkpt lat="53.444959" lon="05.615529"><ele>13.1</ele><time>2021-02-17T11:02:14Z</time><name>PT2142</name></trkpt>
<trkpt lat="53.444960" lon="05.615526"><ele>13.9</ele><time>2021-02-17T11:02:27Z</time><name>PT2143</name></trkpt>
<trkpt lat="53.444963" lon="05.615538"><ele>13.7</ele><time>2021-02-17T11:02:28Z</time><name>PT2144</name></trkpt>
<trkpt lat="53.444964" lon="05.615546"><ele>13.6</ele><time>2021-02-17T11:02:29Z</time><name>PT2145</name></trkpt>
<trkpt lat="53.444963" lon="05.615553"><ele>13.7</ele><time>2021-02-17T11:02:30Z</time><name>PT2146</name></trkpt>
<trkpt lat="53.444965" lon="05.615562"><ele>13.6</ele><time>2021-02-17T11:02:31Z</time><name>PT2147</name></trkpt>
<trkpt lat="53.444966" lon="05.615573"><ele>13.6</ele><time>2021-02-17T11:02:32Z</time><name>PT2148</name></trkpt>
<trkpt lat="53.444969" lon="05.615585"><ele>13.8</ele><time>2021-02-17T11:02:33Z</time><name>PT2149</name></trkpt>
<trkpt lat="53.444970" lon="05.615597"><ele>14</ele><time>2021-02-17T11:02:34Z</time><name>PT2150</name></trkpt>
<trkpt lat="53.444969" lon="05.615605"><ele>14.1</ele><time>2021-02-17T11:02:35Z</time><name>PT2151</name></trkpt>
<trkpt lat="53.444967" lon="05.615613"><ele>14.1</ele><time>2021-02-17T11:02:36Z</time><name>PT2152</name></trkpt>
<trkpt lat="53.444964" lon="05.615619"><ele>14.2</ele><time>2021-02-17T11:02:37Z</time><name>PT2153</name></trkpt>
<trkpt lat="53.444964" lon="05.615626"><ele>14.3</ele><time>2021-02-17T11:02:38Z</time><name>PT2154</name></trkpt>
<trkpt lat="53.444967" lon="05.615633"><ele>14.5</ele><time>2021-02-17T11:02:39Z</time><name>PT2155</name></trkpt>
<trkpt lat="53.444968" lon="05.615641"><ele>14.6</ele><time>2021-02-17T11:02:40Z</time><name>PT2156</name></trkpt>
<trkpt lat="53.444969" lon="05.615652"><ele>15.4</ele><time>2021-02-17T11:02:46Z</time><name>PT2157</name></trkpt>
<trkpt lat="53.444969" lon="05.615661"><ele>15.4</ele><time>2021-02-17T11:02:47Z</time><name>PT2158</name></trkpt>
<trkpt lat="53.444970" lon="05.615668"><ele>15.5</ele><time>2021-02-17T11:02:48Z</time><name>PT2159</name></trkpt>
<trkpt lat="53.444969" lon="05.615672"><ele>15.6</ele><time>2021-02-17T11:02:49Z</time><name>PT2160</name></trkpt>
<trkpt lat="53.444973" lon="05.615676"><ele>15.7</ele><time>2021-02-17T11:02:50Z</time><name>PT2161</name></trkpt>
<trkpt lat="53.444971" lon="05.615685"><ele>15.7</ele><time>2021-02-17T11:02:51Z</time><name>PT2162</name></trkpt>
<trkpt lat="53.444970" lon="05.615695"><ele>15.9</ele><time>2021-02-17T11:02:52Z</time><name>PT2163</name></trkpt>
<trkpt lat="53.444971" lon="05.615704"><ele>16</ele><time>2021-02-17T11:02:53Z</time><name>PT2164</name></trkpt>
<trkpt lat="53.444969" lon="05.615714"><ele>16.1</ele><time>2021-02-17T11:02:54Z</time><name>PT2165</name></trkpt>
<trkpt lat="53.444968" lon="05.615715"><ele>16.3</ele><time>2021-02-17T11:02:57Z</time><name>PT2166</name></trkpt>
<trkpt lat="53.444967" lon="05.615722"><ele>16.6</ele><time>2021-02-17T11:02:58Z</time><name>PT2167</name></trkpt>
<trkpt lat="53.444966" lon="05.615726"><ele>16.6</ele><time>2021-02-17T11:02:59Z</time><name>PT2168</name></trkpt>
<trkpt lat="53.444970" lon="05.615735"><ele>16.8</ele><time>2021-02-17T11:03:00Z</time><name>PT2169</name></trkpt>
<trkpt lat="53.444970" lon="05.615744"><ele>16.9</ele><time>2021-02-17T11:03:01Z</time><name>PT2170</name></trkpt>
<trkpt lat="53.444972" lon="05.615755"><ele>16.7</ele><time>2021-02-17T11:03:02Z</time><name>PT2171</name></trkpt>
<trkpt lat="53.444973" lon="05.615758"><ele>16.8</ele><time>2021-02-17T11:03:03Z</time><name>PT2172</name></trkpt>
<trkpt lat="53.444972" lon="05.615762"><ele>16.8</ele><time>2021-02-17T11:03:04Z</time><name>PT2173</name></trkpt>
<trkpt lat="53.444971" lon="05.615772"><ele>16.9</ele><time>2021-02-17T11:03:05Z</time><name>PT2174</name></trkpt>
<trkpt lat="53.444971" lon="05.615776"><ele>17</ele><time>2021-02-17T11:03:06Z</time><name>PT2175</name></trkpt>
<trkpt lat="53.444972" lon="05.615779"><ele>17.2</ele><time>2021-02-17T11:03:07Z</time><name>PT2176</name></trkpt>
<trkpt lat="53.444976" lon="05.615784"><ele>17.5</ele><time>2021-02-17T11:03:09Z</time><name>PT2177</name></trkpt>
<trkpt lat="53.444976" lon="05.615788"><ele>17.4</ele><time>2021-02-17T11:03:09Z</time><name>PT2178</name></trkpt>
<trkpt lat="53.444973" lon="05.615794"><ele>17.5</ele><time>2021-02-17T11:03:10Z</time><name>PT2179</name></trkpt>
<trkpt lat="53.444973" lon="05.615797"><ele>17.5</ele><time>2021-02-17T11:03:12Z</time><name>PT2180</name></trkpt>
<trkpt lat="53.444973" lon="05.615796"><ele>17.5</ele><time>2021-02-17T11:03:12Z</time><name>PT2181</name></trkpt>
<trkpt lat="53.444978" lon="05.615801"><ele>17.5</ele><time>2021-02-17T11:03:13Z</time><name>PT2182</name></trkpt>
<trkpt lat="53.444979" lon="05.615804"><ele>17.5</ele><time>2021-02-17T11:03:15Z</time><name>PT2183</name></trkpt>
<trkpt lat="53.444978" lon="05.615808"><ele>17.6</ele><time>2021-02-17T11:03:15Z</time><name>PT2184</name></trkpt>
<trkpt lat="53.444979" lon="05.615812"><ele>17.7</ele><time>2021-02-17T11:03:16Z</time><name>PT2185</name></trkpt>
<trkpt lat="53.444979" lon="05.615816"><ele>17.7</ele><time>2021-02-17T11:03:18Z</time><name>PT2186</name></trkpt>
<trkpt lat="53.444981" lon="05.615819"><ele>17.6</ele><time>2021-02-17T11:03:18Z</time><name>PT2187</name></trkpt>
<trkpt lat="53.444984" lon="05.615822"><ele>17.5</ele><time>2021-02-17T11:03:19Z</time><name>PT2188</name></trkpt>
<trkpt lat="53.444983" lon="05.615823"><ele>17.8</ele><time>2021-02-17T11:03:21Z</time><name>PT2189</name></trkpt>
<trkpt lat="53.444982" lon="05.615827"><ele>18.1</ele><time>2021-02-17T11:03:21Z</time><name>PT2190</name></trkpt>
<trkpt lat="53.444980" lon="05.615832"><ele>18.3</ele><time>2021-02-17T11:03:22Z</time><name>PT2191</name></trkpt>
<trkpt lat="53.444976" lon="05.615835"><ele>18.4</ele><time>2021-02-17T11:03:24Z</time><name>PT2192</name></trkpt>
<trkpt lat="53.444975" lon="05.615837"><ele>18.4</ele><time>2021-02-17T11:03:24Z</time><name>PT2193</name></trkpt>
<trkpt lat="53.444974" lon="05.615842"><ele>18.2</ele><time>2021-02-17T11:03:25Z</time><name>PT2194</name></trkpt>
<trkpt lat="53.444973" lon="05.615842"><ele>18.2</ele><time>2021-02-17T11:03:27Z</time><name>PT2195</name></trkpt>
<trkpt lat="53.444971" lon="05.615850"><ele>18.3</ele><time>2021-02-17T11:03:27Z</time><name>PT2196</name></trkpt>
<trkpt lat="53.444971" lon="05.615856"><ele>18.4</ele><time>2021-02-17T11:03:28Z</time><name>PT2197</name></trkpt>
<trkpt lat="53.444970" lon="05.615860"><ele>18.5</ele><time>2021-02-17T11:03:30Z</time><name>PT2198</name></trkpt>
<trkpt lat="53.444968" lon="05.615867"><ele>18.6</ele><time>2021-02-17T11:03:30Z</time><name>PT2199</name></trkpt>
<trkpt lat="53.444969" lon="05.615872"><ele>19</ele><time>2021-02-17T11:03:31Z</time><name>PT2200</name></trkpt>
<trkpt lat="53.444970" lon="05.615879"><ele>19</ele><time>2021-02-17T11:03:32Z</time><name>PT2201</name></trkpt>
<trkpt lat="53.444970" lon="05.615886"><ele>19.4</ele><time>2021-02-17T11:03:33Z</time><name>PT2202</name></trkpt>
<trkpt lat="53.444969" lon="05.615890"><ele>19.5</ele><time>2021-02-17T11:03:34Z</time><name>PT2203</name></trkpt>
<trkpt lat="53.444966" lon="05.615899"><ele>19.7</ele><time>2021-02-17T11:03:36Z</time><name>PT2204</name></trkpt>
<trkpt lat="53.444964" lon="05.615904"><ele>19.8</ele><time>2021-02-17T11:03:36Z</time><name>PT2205</name></trkpt>
<trkpt lat="53.444963" lon="05.615909"><ele>20</ele><time>2021-02-17T11:03:37Z</time><name>PT2206</name></trkpt>
<trkpt lat="53.444964" lon="05.615912"><ele>20.1</ele><time>2021-02-17T11:03:38Z</time><name>PT2207</name></trkpt>
<trkpt lat="53.444965" lon="05.615918"><ele>20.2</ele><time>2021-02-17T11:03:39Z</time><name>PT2208</name></trkpt>
<trkpt lat="53.444964" lon="05.615925"><ele>20.5</ele><time>2021-02-17T11:03:40Z</time><name>PT2209</name></trkpt>
<trkpt lat="53.444965" lon="05.615931"><ele>20.9</ele><time>2021-02-17T11:03:41Z</time><name>PT2210</name></trkpt>
<trkpt lat="53.444965" lon="05.615938"><ele>21.1</ele><time>2021-02-17T11:03:42Z</time><name>PT2211</name></trkpt>
<trkpt lat="53.444963" lon="05.615946"><ele>21.4</ele><time>2021-02-17T11:03:43Z</time><name>PT2212</name></trkpt>
<trkpt lat="53.444963" lon="05.615953"><ele>21.4</ele><time>2021-02-17T11:03:44Z</time><name>PT2213</name></trkpt>
<trkpt lat="53.444962" lon="05.615958"><ele>21.4</ele><time>2021-02-17T11:03:45Z</time><name>PT2214</name></trkpt>
<trkpt lat="53.444961" lon="05.615966"><ele>21.4</ele><time>2021-02-17T11:03:46Z</time><name>PT2215</name></trkpt>
<trkpt lat="53.444962" lon="05.615973"><ele>21.6</ele><time>2021-02-17T11:03:48Z</time><name>PT2216</name></trkpt>
<trkpt lat="53.444964" lon="05.615979"><ele>21.8</ele><time>2021-02-17T11:03:48Z</time><name>PT2217</name></trkpt>
<trkpt lat="53.444963" lon="05.615988"><ele>22.1</ele><time>2021-02-17T11:03:49Z</time><name>PT2218</name></trkpt>
<trkpt lat="53.444964" lon="05.615995"><ele>22.3</ele><time>2021-02-17T11:03:50Z</time><name>PT2219</name></trkpt>
<trkpt lat="53.444967" lon="05.616004"><ele>22.3</ele><time>2021-02-17T11:03:51Z</time><name>PT2220</name></trkpt>
<trkpt lat="53.444967" lon="05.616010"><ele>22.4</ele><time>2021-02-17T11:03:52Z</time><name>PT2221</name></trkpt>
<trkpt lat="53.444967" lon="05.616019"><ele>22.4</ele><time>2021-02-17T11:03:53Z</time><name>PT2222</name></trkpt>
<trkpt lat="53.444968" lon="05.616031"><ele>22.5</ele><time>2021-02-17T11:03:54Z</time><name>PT2223</name></trkpt>
<trkpt lat="53.444969" lon="05.616044"><ele>22.9</ele><time>2021-02-17T11:03:55Z</time><name>PT2224</name></trkpt>
<trkpt lat="53.444972" lon="05.616056"><ele>23.1</ele><time>2021-02-17T11:03:56Z</time><name>PT2225</name></trkpt>
<trkpt lat="53.444973" lon="05.616065"><ele>23.1</ele><time>2021-02-17T11:03:57Z</time><name>PT2226</name></trkpt>
<trkpt lat="53.444974" lon="05.616077"><ele>23.2</ele><time>2021-02-17T11:03:58Z</time><name>PT2227</name></trkpt>
<trkpt lat="53.444975" lon="05.616087"><ele>23.2</ele><time>2021-02-17T11:04:00Z</time><name>PT2228</name></trkpt>
<trkpt lat="53.444978" lon="05.616098"><ele>23.2</ele><time>2021-02-17T11:04:00Z</time><name>PT2229</name></trkpt>
<trkpt lat="53.444979" lon="05.616109"><ele>23.3</ele><time>2021-02-17T11:04:01Z</time><name>PT2230</name></trkpt>
<trkpt lat="53.444982" lon="05.616120"><ele>23.2</ele><time>2021-02-17T11:04:02Z</time><name>PT2231</name></trkpt>
<trkpt lat="53.444985" lon="05.616131"><ele>23.2</ele><time>2021-02-17T11:04:03Z</time><name>PT2232</name></trkpt>
<trkpt lat="53.444988" lon="05.616142"><ele>23.3</ele><time>2021-02-17T11:04:04Z</time><name>PT2233</name></trkpt>
<trkpt lat="53.444989" lon="05.616153"><ele>23.2</ele><time>2021-02-17T11:04:05Z</time><name>PT2234</name></trkpt>
<trkpt lat="53.444991" lon="05.616164"><ele>23.3</ele><time>2021-02-17T11:04:06Z</time><name>PT2235</name></trkpt>
<trkpt lat="53.444993" lon="05.616176"><ele>23.4</ele><time>2021-02-17T11:04:07Z</time><name>PT2236</name></trkpt>
<trkpt lat="53.444995" lon="05.616185"><ele>23.4</ele><time>2021-02-17T11:04:08Z</time><name>PT2237</name></trkpt>
<trkpt lat="53.444998" lon="05.616195"><ele>23.5</ele><time>2021-02-17T11:04:09Z</time><name>PT2238</name></trkpt>
<trkpt lat="53.445001" lon="05.616202"><ele>23.8</ele><time>2021-02-17T11:04:10Z</time><name>PT2239</name></trkpt>
<trkpt lat="53.445005" lon="05.616208"><ele>23.8</ele><time>2021-02-17T11:04:12Z</time><name>PT2240</name></trkpt>
<trkpt lat="53.445007" lon="05.616216"><ele>23.9</ele><time>2021-02-17T11:04:12Z</time><name>PT2241</name></trkpt>
<trkpt lat="53.445010" lon="05.616224"><ele>23.8</ele><time>2021-02-17T11:04:13Z</time><name>PT2242</name></trkpt>
<trkpt lat="53.445012" lon="05.616230"><ele>23.6</ele><time>2021-02-17T11:04:14Z</time><name>PT2243</name></trkpt>
<trkpt lat="53.445032" lon="05.616330"><ele>15.7</ele><time>2021-02-17T11:05:11Z</time><name>PT2244</name></trkpt>
<trkpt lat="53.445036" lon="05.616369"><ele>15.5</ele><time>2021-02-17T11:05:12Z</time><name>PT2245</name></trkpt>
<trkpt lat="53.445040" lon="05.616397"><ele>15.3</ele><time>2021-02-17T11:05:13Z</time><name>PT2246</name></trkpt>
<trkpt lat="53.445046" lon="05.616452"><ele>14.2</ele><time>2021-02-17T11:05:47Z</time><name>PT2247</name></trkpt>
<trkpt lat="53.445047" lon="05.616487"><ele>14.4</ele><time>2021-02-17T11:05:48Z</time><name>PT2248</name></trkpt>
<trkpt lat="53.445050" lon="05.616516"><ele>14.4</ele><time>2021-02-17T11:05:49Z</time><name>PT2249</name></trkpt>
<trkpt lat="53.445048" lon="05.616540"><ele>14.4</ele><time>2021-02-17T11:05:50Z</time><name>PT2250</name></trkpt>
<trkpt lat="53.445049" lon="05.616557"><ele>14.2</ele><time>2021-02-17T11:05:51Z</time><name>PT2251</name></trkpt>
<trkpt lat="53.445050" lon="05.616576"><ele>14.3</ele><time>2021-02-17T11:05:52Z</time><name>PT2252</name></trkpt>
<trkpt lat="53.445051" lon="05.616591"><ele>13.9</ele><time>2021-02-17T11:05:54Z</time><name>PT2253</name></trkpt>
<trkpt lat="53.445049" lon="05.616595"><ele>13.6</ele><time>2021-02-17T11:05:56Z</time><name>PT2254</name></trkpt>
<trkpt lat="53.445049" lon="05.616603"><ele>13.4</ele><time>2021-02-17T11:05:57Z</time><name>PT2255</name></trkpt>
<trkpt lat="53.445054" lon="05.616617"><ele>13.4</ele><time>2021-02-17T11:05:58Z</time><name>PT2256</name></trkpt>
<trkpt lat="53.445055" lon="05.616629"><ele>13.2</ele><time>2021-02-17T11:05:59Z</time><name>PT2257</name></trkpt>
<trkpt lat="53.445059" lon="05.616636"><ele>13.1</ele><time>2021-02-17T11:06:00Z</time><name>PT2258</name></trkpt>
<trkpt lat="53.445064" lon="05.616644"><ele>13</ele><time>2021-02-17T11:06:01Z</time><name>PT2259</name></trkpt>
<trkpt lat="53.445068" lon="05.616656"><ele>12.7</ele><time>2021-02-17T11:06:02Z</time><name>PT2260</name></trkpt>
<trkpt lat="53.445072" lon="05.616665"><ele>12.7</ele><time>2021-02-17T11:06:03Z</time><name>PT2261</name></trkpt>
<trkpt lat="53.445079" lon="05.616678"><ele>12.6</ele><time>2021-02-17T11:06:04Z</time><name>PT2262</name></trkpt>
<trkpt lat="53.445084" lon="05.616689"><ele>12.2</ele><time>2021-02-17T11:06:06Z</time><name>PT2263</name></trkpt>
<trkpt lat="53.445089" lon="05.616698"><ele>12.2</ele><time>2021-02-17T11:06:06Z</time><name>PT2264</name></trkpt>
<trkpt lat="53.445092" lon="05.616704"><ele>11.9</ele><time>2021-02-17T11:06:07Z</time><name>PT2265</name></trkpt>
<trkpt lat="53.445097" lon="05.616709"><ele>11.7</ele><time>2021-02-17T11:06:08Z</time><name>PT2266</name></trkpt>
<trkpt lat="53.445101" lon="05.616720"><ele>11.8</ele><time>2021-02-17T11:06:09Z</time><name>PT2267</name></trkpt>
<trkpt lat="53.445105" lon="05.616731"><ele>11.7</ele><time>2021-02-17T11:06:10Z</time><name>PT2268</name></trkpt>
<trkpt lat="53.445113" lon="05.616742"><ele>11.5</ele><time>2021-02-17T11:06:11Z</time><name>PT2269</name></trkpt>
<trkpt lat="53.445117" lon="05.616753"><ele>11.5</ele><time>2021-02-17T11:06:12Z</time><name>PT2270</name></trkpt>
<trkpt lat="53.445123" lon="05.616761"><ele>11.2</ele><time>2021-02-17T11:06:13Z</time><name>PT2271</name></trkpt>
<trkpt lat="53.445127" lon="05.616770"><ele>10.9</ele><time>2021-02-17T11:06:14Z</time><name>PT2272</name></trkpt>
<trkpt lat="53.445133" lon="05.616784"><ele>10.8</ele><time>2021-02-17T11:06:15Z</time><name>PT2273</name></trkpt>
<trkpt lat="53.445139" lon="05.616794"><ele>10.7</ele><time>2021-02-17T11:06:16Z</time><name>PT2274</name></trkpt>
<trkpt lat="53.445144" lon="05.616801"><ele>10.5</ele><time>2021-02-17T11:06:18Z</time><name>PT2275</name></trkpt>
<trkpt lat="53.445148" lon="05.616811"><ele>10.3</ele><time>2021-02-17T11:06:18Z</time><name>PT2276</name></trkpt>
<trkpt lat="53.445153" lon="05.616823"><ele>10.2</ele><time>2021-02-17T11:06:19Z</time><name>PT2277</name></trkpt>
<trkpt lat="53.445160" lon="05.616833"><ele>10</ele><time>2021-02-17T11:06:20Z</time><name>PT2278</name></trkpt>
<trkpt lat="53.445167" lon="05.616848"><ele>9.9</ele><time>2021-02-17T11:06:21Z</time><name>PT2279</name></trkpt>
<trkpt lat="53.445174" lon="05.616857"><ele>9.8</ele><time>2021-02-17T11:06:22Z</time><name>PT2280</name></trkpt>
<trkpt lat="53.445175" lon="05.616861"><ele>9.6</ele><time>2021-02-17T11:06:23Z</time><name>PT2281</name></trkpt>
<trkpt lat="53.445183" lon="05.616870"><ele>9.7</ele><time>2021-02-17T11:06:24Z</time><name>PT2282</name></trkpt>
<trkpt lat="53.445194" lon="05.616878"><ele>9.5</ele><time>2021-02-17T11:06:25Z</time><name>PT2283</name></trkpt>
<trkpt lat="53.445203" lon="05.616887"><ele>9.5</ele><time>2021-02-17T11:06:26Z</time><name>PT2284</name></trkpt>
<trkpt lat="53.445209" lon="05.616901"><ele>9.3</ele><time>2021-02-17T11:06:27Z</time><name>PT2285</name></trkpt>
<trkpt lat="53.445215" lon="05.616913"><ele>9.3</ele><time>2021-02-17T11:06:28Z</time><name>PT2286</name></trkpt>
<trkpt lat="53.445221" lon="05.616925"><ele>9.2</ele><time>2021-02-17T11:06:29Z</time><name>PT2287</name></trkpt>
<trkpt lat="53.445230" lon="05.616934"><ele>9.2</ele><time>2021-02-17T11:06:30Z</time><name>PT2288</name></trkpt>
<trkpt lat="53.445240" lon="05.616938"><ele>9.3</ele><time>2021-02-17T11:06:31Z</time><name>PT2289</name></trkpt>
<trkpt lat="53.445250" lon="05.616942"><ele>9.2</ele><time>2021-02-17T11:06:32Z</time><name>PT2290</name></trkpt>
<trkpt lat="53.445258" lon="05.616948"><ele>9.3</ele><time>2021-02-17T11:06:33Z</time><name>PT2291</name></trkpt>
<trkpt lat="53.445264" lon="05.616953"><ele>9</ele><time>2021-02-17T11:06:34Z</time><name>PT2292</name></trkpt>
<trkpt lat="53.445271" lon="05.616959"><ele>8.9</ele><time>2021-02-17T11:06:35Z</time><name>PT2293</name></trkpt>
<trkpt lat="53.445280" lon="05.616969"><ele>8.9</ele><time>2021-02-17T11:06:36Z</time><name>PT2294</name></trkpt>
<trkpt lat="53.445289" lon="05.616975"><ele>8.8</ele><time>2021-02-17T11:06:37Z</time><name>PT2295</name></trkpt>
<trkpt lat="53.445301" lon="05.616979"><ele>8.8</ele><time>2021-02-17T11:06:38Z</time><name>PT2296</name></trkpt>
<trkpt lat="53.445313" lon="05.616982"><ele>8.9</ele><time>2021-02-17T11:06:39Z</time><name>PT2297</name></trkpt>
<trkpt lat="53.445324" lon="05.616988"><ele>8.8</ele><time>2021-02-17T11:06:40Z</time><name>PT2298</name></trkpt>
<trkpt lat="53.445333" lon="05.616995"><ele>8.8</ele><time>2021-02-17T11:06:41Z</time><name>PT2299</name></trkpt>
<trkpt lat="53.445343" lon="05.617001"><ele>8.8</ele><time>2021-02-17T11:06:42Z</time><name>PT2300</name></trkpt>
<trkpt lat="53.445354" lon="05.617008"><ele>8.8</ele><time>2021-02-17T11:06:43Z</time><name>PT2301</name></trkpt>
<trkpt lat="53.445365" lon="05.617018"><ele>8.7</ele><time>2021-02-17T11:06:44Z</time><name>PT2302</name></trkpt>
<trkpt lat="53.445376" lon="05.617024"><ele>8.6</ele><time>2021-02-17T11:06:45Z</time><name>PT2303</name></trkpt>
<trkpt lat="53.445383" lon="05.617030"><ele>8.6</ele><time>2021-02-17T11:06:46Z</time><name>PT2304</name></trkpt>
<trkpt lat="53.445392" lon="05.617037"><ele>8.4</ele><time>2021-02-17T11:06:47Z</time><name>PT2305</name></trkpt>
<trkpt lat="53.445399" lon="05.617049"><ele>8.4</ele><time>2021-02-17T11:06:48Z</time><name>PT2306</name></trkpt>
<trkpt lat="53.445403" lon="05.617058"><ele>8.7</ele><time>2021-02-17T11:06:49Z</time><name>PT2307</name></trkpt>
<trkpt lat="53.445411" lon="05.617071"><ele>8.8</ele><time>2021-02-17T11:06:50Z</time><name>PT2308</name></trkpt>
<trkpt lat="53.445419" lon="05.617083"><ele>9</ele><time>2021-02-17T11:06:51Z</time><name>PT2309</name></trkpt>
<trkpt lat="53.445427" lon="05.617102"><ele>9</ele><time>2021-02-17T11:06:52Z</time><name>PT2310</name></trkpt>
<trkpt lat="53.445435" lon="05.617118"><ele>9.1</ele><time>2021-02-17T11:06:53Z</time><name>PT2311</name></trkpt>
<trkpt lat="53.445445" lon="05.617130"><ele>8.9</ele><time>2021-02-17T11:06:54Z</time><name>PT2312</name></trkpt>
<trkpt lat="53.445452" lon="05.617141"><ele>8.8</ele><time>2021-02-17T11:06:55Z</time><name>PT2313</name></trkpt>
<trkpt lat="53.445457" lon="05.617152"><ele>8.9</ele><time>2021-02-17T11:06:57Z</time><name>PT2314</name></trkpt>
<trkpt lat="53.445465" lon="05.617164"><ele>8.8</ele><time>2021-02-17T11:06:57Z</time><name>PT2315</name></trkpt>
<trkpt lat="53.445476" lon="05.617166"><ele>8.8</ele><time>2021-02-17T11:06:58Z</time><name>PT2316</name></trkpt>
<trkpt lat="53.445485" lon="05.617174"><ele>8.9</ele><time>2021-02-17T11:06:59Z</time><name>PT2317</name></trkpt>
<trkpt lat="53.445496" lon="05.617182"><ele>9</ele><time>2021-02-17T11:07:00Z</time><name>PT2318</name></trkpt>
<trkpt lat="53.445505" lon="05.617191"><ele>9.3</ele><time>2021-02-17T11:07:01Z</time><name>PT2319</name></trkpt>
<trkpt lat="53.445512" lon="05.617194"><ele>9.4</ele><time>2021-02-17T11:07:02Z</time><name>PT2320</name></trkpt>
<trkpt lat="53.445519" lon="05.617200"><ele>9.3</ele><time>2021-02-17T11:07:03Z</time><name>PT2321</name></trkpt>
<trkpt lat="53.445524" lon="05.617212"><ele>9.3</ele><time>2021-02-17T11:07:04Z</time><name>PT2322</name></trkpt>
<trkpt lat="53.445529" lon="05.617216"><ele>9.3</ele><time>2021-02-17T11:07:05Z</time><name>PT2323</name></trkpt>
<trkpt lat="53.445534" lon="05.617216"><ele>9.3</ele><time>2021-02-17T11:07:06Z</time><name>PT2324</name></trkpt>
<trkpt lat="53.445538" lon="05.617220"><ele>9.2</ele><time>2021-02-17T11:07:07Z</time><name>PT2325</name></trkpt>
<trkpt lat="53.445547" lon="05.617220"><ele>9.5</ele><time>2021-02-17T11:07:18Z</time><name>PT2326</name></trkpt>
<trkpt lat="53.445552" lon="05.617221"><ele>9.6</ele><time>2021-02-17T11:07:19Z</time><name>PT2327</name></trkpt>
<trkpt lat="53.445563" lon="05.617225"><ele>9.7</ele><time>2021-02-17T11:07:21Z</time><name>PT2328</name></trkpt>
<trkpt lat="53.445570" lon="05.617247"><ele>9.7</ele><time>2021-02-17T11:07:21Z</time><name>PT2329</name></trkpt>
<trkpt lat="53.445577" lon="05.617254"><ele>9.7</ele><time>2021-02-17T11:07:22Z</time><name>PT2330</name></trkpt>
<trkpt lat="53.445583" lon="05.617267"><ele>9.5</ele><time>2021-02-17T11:07:23Z</time><name>PT2331</name></trkpt>
<trkpt lat="53.445590" lon="05.617282"><ele>9.4</ele><time>2021-02-17T11:07:24Z</time><name>PT2332</name></trkpt>
<trkpt lat="53.445596" lon="05.617295"><ele>9.3</ele><time>2021-02-17T11:07:25Z</time><name>PT2333</name></trkpt>
<trkpt lat="53.445603" lon="05.617308"><ele>9.2</ele><time>2021-02-17T11:07:26Z</time><name>PT2334</name></trkpt>
<trkpt lat="53.445609" lon="05.617318"><ele>9.3</ele><time>2021-02-17T11:07:27Z</time><name>PT2335</name></trkpt>
<trkpt lat="53.445613" lon="05.617327"><ele>9.4</ele><time>2021-02-17T11:07:28Z</time><name>PT2336</name></trkpt>
<trkpt lat="53.445618" lon="05.617337"><ele>9.5</ele><time>2021-02-17T11:07:29Z</time><name>PT2337</name></trkpt>
<trkpt lat="53.445625" lon="05.617345"><ele>9.6</ele><time>2021-02-17T11:07:30Z</time><name>PT2338</name></trkpt>
<trkpt lat="53.445633" lon="05.617347"><ele>9.9</ele><time>2021-02-17T11:07:31Z</time><name>PT2339</name></trkpt>
<trkpt lat="53.445643" lon="05.617347"><ele>9.8</ele><time>2021-02-17T11:07:33Z</time><name>PT2340</name></trkpt>
<trkpt lat="53.445653" lon="05.617348"><ele>9.7</ele><time>2021-02-17T11:07:33Z</time><name>PT2341</name></trkpt>
<trkpt lat="53.445665" lon="05.617352"><ele>9.7</ele><time>2021-02-17T11:07:34Z</time><name>PT2342</name></trkpt>
<trkpt lat="53.445672" lon="05.617357"><ele>9.7</ele><time>2021-02-17T11:07:35Z</time><name>PT2343</name></trkpt>
<trkpt lat="53.445676" lon="05.617362"><ele>9.6</ele><time>2021-02-17T11:07:36Z</time><name>PT2344</name></trkpt>
<trkpt lat="53.445685" lon="05.617360"><ele>9.7</ele><time>2021-02-17T11:07:37Z</time><name>PT2345</name></trkpt>
<trkpt lat="53.445693" lon="05.617360"><ele>9.4</ele><time>2021-02-17T11:07:38Z</time><name>PT2346</name></trkpt>
<trkpt lat="53.445702" lon="05.617356"><ele>9.4</ele><time>2021-02-17T11:07:39Z</time><name>PT2347</name></trkpt>
<trkpt lat="53.445707" lon="05.617352"><ele>9.4</ele><time>2021-02-17T11:07:40Z</time><name>PT2348</name></trkpt>
<trkpt lat="53.445710" lon="05.617351"><ele>9.3</ele><time>2021-02-17T11:07:41Z</time><name>PT2349</name></trkpt>
<trkpt lat="53.445712" lon="05.617350"><ele>9.3</ele><time>2021-02-17T11:07:42Z</time><name>PT2350</name></trkpt>
<trkpt lat="53.445714" lon="05.617348"><ele>9.3</ele><time>2021-02-17T11:07:43Z</time><name>PT2351</name></trkpt>
<trkpt lat="53.445726" lon="05.617351"><ele>9.7</ele><time>2021-02-17T11:07:53Z</time><name>PT2352</name></trkpt>
<trkpt lat="53.445731" lon="05.617351"><ele>9.4</ele><time>2021-02-17T11:07:54Z</time><name>PT2353</name></trkpt>
<trkpt lat="53.445734" lon="05.617356"><ele>9.4</ele><time>2021-02-17T11:07:55Z</time><name>PT2354</name></trkpt>
<trkpt lat="53.445743" lon="05.617367"><ele>10</ele><time>2021-02-17T11:08:12Z</time><name>PT2355</name></trkpt>
<trkpt lat="53.445747" lon="05.617372"><ele>10</ele><time>2021-02-17T11:08:13Z</time><name>PT2356</name></trkpt>
<trkpt lat="53.445750" lon="05.617371"><ele>10.1</ele><time>2021-02-17T11:08:14Z</time><name>PT2357</name></trkpt>
<trkpt lat="53.445746" lon="05.617382"><ele>10</ele><time>2021-02-17T11:08:18Z</time><name>PT2358</name></trkpt>
<trkpt lat="53.445749" lon="05.617395"><ele>10.1</ele><time>2021-02-17T11:08:19Z</time><name>PT2359</name></trkpt>
<trkpt lat="53.445754" lon="05.617412"><ele>10.2</ele><time>2021-02-17T11:08:21Z</time><name>PT2360</name></trkpt>
<trkpt lat="53.445758" lon="05.617426"><ele>10.1</ele><time>2021-02-17T11:08:21Z</time><name>PT2361</name></trkpt>
<trkpt lat="53.445763" lon="05.617432"><ele>10</ele><time>2021-02-17T11:08:22Z</time><name>PT2362</name></trkpt>
<trkpt lat="53.445773" lon="05.617435"><ele>9.7</ele><time>2021-02-17T11:08:23Z</time><name>PT2363</name></trkpt>
<trkpt lat="53.445780" lon="05.617439"><ele>9.7</ele><time>2021-02-17T11:08:24Z</time><name>PT2364</name></trkpt>
<trkpt lat="53.445786" lon="05.617451"><ele>9.7</ele><time>2021-02-17T11:08:25Z</time><name>PT2365</name></trkpt>
<trkpt lat="53.445792" lon="05.617467"><ele>9.7</ele><time>2021-02-17T11:08:26Z</time><name>PT2366</name></trkpt>
<trkpt lat="53.445803" lon="05.617482"><ele>9.5</ele><time>2021-02-17T11:08:27Z</time><name>PT2367</name></trkpt>
<trkpt lat="53.445809" lon="05.617495"><ele>9.4</ele><time>2021-02-17T11:08:28Z</time><name>PT2368</name></trkpt>
<trkpt lat="53.445818" lon="05.617510"><ele>9.3</ele><time>2021-02-17T11:08:29Z</time><name>PT2369</name></trkpt>
<trkpt lat="53.445819" lon="05.617522"><ele>9.3</ele><time>2021-02-17T11:08:30Z</time><name>PT2370</name></trkpt>
<trkpt lat="53.445823" lon="05.617534"><ele>9.3</ele><time>2021-02-17T11:08:31Z</time><name>PT2371</name></trkpt>
<trkpt lat="53.445828" lon="05.617545"><ele>9.3</ele><time>2021-02-17T11:08:32Z</time><name>PT2372</name></trkpt>
<trkpt lat="53.445834" lon="05.617553"><ele>9.3</ele><time>2021-02-17T11:08:33Z</time><name>PT2373</name></trkpt>
<trkpt lat="53.445841" lon="05.617560"><ele>9.2</ele><time>2021-02-17T11:08:34Z</time><name>PT2374</name></trkpt>
<trkpt lat="53.445844" lon="05.617566"><ele>9.3</ele><time>2021-02-17T11:08:35Z</time><name>PT2375</name></trkpt>
<trkpt lat="53.445852" lon="05.617575"><ele>9.3</ele><time>2021-02-17T11:08:36Z</time><name>PT2376</name></trkpt>
<trkpt lat="53.445857" lon="05.617584"><ele>9.5</ele><time>2021-02-17T11:08:37Z</time><name>PT2377</name></trkpt>
<trkpt lat="53.445860" lon="05.617590"><ele>9.7</ele><time>2021-02-17T11:08:38Z</time><name>PT2378</name></trkpt>
<trkpt lat="53.445864" lon="05.617597"><ele>9.6</ele><time>2021-02-17T11:08:39Z</time><name>PT2379</name></trkpt>
<trkpt lat="53.445870" lon="05.617605"><ele>9.7</ele><time>2021-02-17T11:08:40Z</time><name>PT2380</name></trkpt>
<trkpt lat="53.445877" lon="05.617614"><ele>9.6</ele><time>2021-02-17T11:08:41Z</time><name>PT2381</name></trkpt>
<trkpt lat="53.445880" lon="05.617626"><ele>9.4</ele><time>2021-02-17T11:08:42Z</time><name>PT2382</name></trkpt>
<trkpt lat="53.445886" lon="05.617636"><ele>9.3</ele><time>2021-02-17T11:08:43Z</time><name>PT2383</name></trkpt>
<trkpt lat="53.445892" lon="05.617646"><ele>9.2</ele><time>2021-02-17T11:08:44Z</time><name>PT2384</name></trkpt>
<trkpt lat="53.445906" lon="05.617658"><ele>9.3</ele><time>2021-02-17T11:08:45Z</time><name>PT2385</name></trkpt>
<trkpt lat="53.445911" lon="05.617664"><ele>9.3</ele><time>2021-02-17T11:08:46Z</time><name>PT2386</name></trkpt>
<trkpt lat="53.445917" lon="05.617674"><ele>9.4</ele><time>2021-02-17T11:08:47Z</time><name>PT2387</name></trkpt>
<trkpt lat="53.445921" lon="05.617682"><ele>9.5</ele><time>2021-02-17T11:08:48Z</time><name>PT2388</name></trkpt>
<trkpt lat="53.445928" lon="05.617688"><ele>9.7</ele><time>2021-02-17T11:08:49Z</time><name>PT2389</name></trkpt>
<trkpt lat="53.445940" lon="05.617695"><ele>9.7</ele><time>2021-02-17T11:08:51Z</time><name>PT2390</name></trkpt>
<trkpt lat="53.445948" lon="05.617703"><ele>9.7</ele><time>2021-02-17T11:08:51Z</time><name>PT2391</name></trkpt>
<trkpt lat="53.445953" lon="05.617711"><ele>9.9</ele><time>2021-02-17T11:08:52Z</time><name>PT2392</name></trkpt>
<trkpt lat="53.445958" lon="05.617717"><ele>9.8</ele><time>2021-02-17T11:08:53Z</time><name>PT2393</name></trkpt>
<trkpt lat="53.445965" lon="05.617725"><ele>9.8</ele><time>2021-02-17T11:08:54Z</time><name>PT2394</name></trkpt>
<trkpt lat="53.445973" lon="05.617736"><ele>9.8</ele><time>2021-02-17T11:08:55Z</time><name>PT2395</name></trkpt>
<trkpt lat="53.445983" lon="05.617753"><ele>9.7</ele><time>2021-02-17T11:08:56Z</time><name>PT2396</name></trkpt>
<trkpt lat="53.445988" lon="05.617770"><ele>9.7</ele><time>2021-02-17T11:08:57Z</time><name>PT2397</name></trkpt>
<trkpt lat="53.445992" lon="05.617784"><ele>9.7</ele><time>2021-02-17T11:08:58Z</time><name>PT2398</name></trkpt>
<trkpt lat="53.445995" lon="05.617793"><ele>9.8</ele><time>2021-02-17T11:08:59Z</time><name>PT2399</name></trkpt>
<trkpt lat="53.446003" lon="05.617804"><ele>9.8</ele><time>2021-02-17T11:09:00Z</time><name>PT2400</name></trkpt>
<trkpt lat="53.446014" lon="05.617822"><ele>9.9</ele><time>2021-02-17T11:09:01Z</time><name>PT2401</name></trkpt>
<trkpt lat="53.446020" lon="05.617841"><ele>9.9</ele><time>2021-02-17T11:09:02Z</time><name>PT2402</name></trkpt>
<trkpt lat="53.446034" lon="05.617862"><ele>9.8</ele><time>2021-02-17T11:09:03Z</time><name>PT2403</name></trkpt>
<trkpt lat="53.446043" lon="05.617875"><ele>9.8</ele><time>2021-02-17T11:09:04Z</time><name>PT2404</name></trkpt>
<trkpt lat="53.446044" lon="05.617884"><ele>9.7</ele><time>2021-02-17T11:09:05Z</time><name>PT2405</name></trkpt>
<trkpt lat="53.446048" lon="05.617896"><ele>9.7</ele><time>2021-02-17T11:09:06Z</time><name>PT2406</name></trkpt>
<trkpt lat="53.446048" lon="05.617909"><ele>9.5</ele><time>2021-02-17T11:09:07Z</time><name>PT2407</name></trkpt>
<trkpt lat="53.446049" lon="05.617920"><ele>9.4</ele><time>2021-02-17T11:09:08Z</time><name>PT2408</name></trkpt>
<trkpt lat="53.446052" lon="05.617931"><ele>9.4</ele><time>2021-02-17T11:09:09Z</time><name>PT2409</name></trkpt>
<trkpt lat="53.446055" lon="05.617941"><ele>9.5</ele><time>2021-02-17T11:09:10Z</time><name>PT2410</name></trkpt>
<trkpt lat="53.446056" lon="05.617950"><ele>9.7</ele><time>2021-02-17T11:09:11Z</time><name>PT2411</name></trkpt>
<trkpt lat="53.446057" lon="05.617961"><ele>9.6</ele><time>2021-02-17T11:09:12Z</time><name>PT2412</name></trkpt>
<trkpt lat="53.446060" lon="05.617970"><ele>9.6</ele><time>2021-02-17T11:09:13Z</time><name>PT2413</name></trkpt>
<trkpt lat="53.446061" lon="05.617982"><ele>9.6</ele><time>2021-02-17T11:09:14Z</time><name>PT2414</name></trkpt>
<trkpt lat="53.446064" lon="05.617995"><ele>9.6</ele><time>2021-02-17T11:09:15Z</time><name>PT2415</name></trkpt>
<trkpt lat="53.446068" lon="05.618008"><ele>9.5</ele><time>2021-02-17T11:09:16Z</time><name>PT2416</name></trkpt>
<trkpt lat="53.446069" lon="05.618017"><ele>9.7</ele><time>2021-02-17T11:09:17Z</time><name>PT2417</name></trkpt>
<trkpt lat="53.446070" lon="05.618029"><ele>9.5</ele><time>2021-02-17T11:09:18Z</time><name>PT2418</name></trkpt>
<trkpt lat="53.446073" lon="05.618043"><ele>9.5</ele><time>2021-02-17T11:09:19Z</time><name>PT2419</name></trkpt>
<trkpt lat="53.446073" lon="05.618055"><ele>9.5</ele><time>2021-02-17T11:09:20Z</time><name>PT2420</name></trkpt>
<trkpt lat="53.446078" lon="05.618072"><ele>9.3</ele><time>2021-02-17T11:09:21Z</time><name>PT2421</name></trkpt>
<trkpt lat="53.446081" lon="05.618085"><ele>9.3</ele><time>2021-02-17T11:09:22Z</time><name>PT2422</name></trkpt>
<trkpt lat="53.446081" lon="05.618097"><ele>9.4</ele><time>2021-02-17T11:09:23Z</time><name>PT2423</name></trkpt>
<trkpt lat="53.446085" lon="05.618112"><ele>9.3</ele><time>2021-02-17T11:09:24Z</time><name>PT2424</name></trkpt>
<trkpt lat="53.446088" lon="05.618122"><ele>9.3</ele><time>2021-02-17T11:09:25Z</time><name>PT2425</name></trkpt>
<trkpt lat="53.446088" lon="05.618135"><ele>9.1</ele><time>2021-02-17T11:09:26Z</time><name>PT2426</name></trkpt>
<trkpt lat="53.446090" lon="05.618149"><ele>9.1</ele><time>2021-02-17T11:09:27Z</time><name>PT2427</name></trkpt>
<trkpt lat="53.446094" lon="05.618160"><ele>9.1</ele><time>2021-02-17T11:09:28Z</time><name>PT2428</name></trkpt>
<trkpt lat="53.446099" lon="05.618171"><ele>8.8</ele><time>2021-02-17T11:09:29Z</time><name>PT2429</name></trkpt>
<trkpt lat="53.446098" lon="05.618187"><ele>8.8</ele><time>2021-02-17T11:09:30Z</time><name>PT2430</name></trkpt>
<trkpt lat="53.446097" lon="05.618200"><ele>8.8</ele><time>2021-02-17T11:09:31Z</time><name>PT2431</name></trkpt>
<trkpt lat="53.446100" lon="05.618210"><ele>8.8</ele><time>2021-02-17T11:09:32Z</time><name>PT2432</name></trkpt>
<trkpt lat="53.446103" lon="05.618223"><ele>8.9</ele><time>2021-02-17T11:09:33Z</time><name>PT2433</name></trkpt>
<trkpt lat="53.446107" lon="05.618236"><ele>8.9</ele><time>2021-02-17T11:09:34Z</time><name>PT2434</name></trkpt>
<trkpt lat="53.446104" lon="05.618252"><ele>9</ele><time>2021-02-17T11:09:35Z</time><name>PT2435</name></trkpt>
<trkpt lat="53.446104" lon="05.618270"><ele>9</ele><time>2021-02-17T11:09:36Z</time><name>PT2436</name></trkpt>
<trkpt lat="53.446105" lon="05.618282"><ele>8.9</ele><time>2021-02-17T11:09:37Z</time><name>PT2437</name></trkpt>
<trkpt lat="53.446104" lon="05.618296"><ele>9</ele><time>2021-02-17T11:09:38Z</time><name>PT2438</name></trkpt>
<trkpt lat="53.446101" lon="05.618307"><ele>9.1</ele><time>2021-02-17T11:09:39Z</time><name>PT2439</name></trkpt>
<trkpt lat="53.446102" lon="05.618323"><ele>9</ele><time>2021-02-17T11:09:40Z</time><name>PT2440</name></trkpt>
<trkpt lat="53.446105" lon="05.618343"><ele>8.9</ele><time>2021-02-17T11:09:41Z</time><name>PT2441</name></trkpt>
<trkpt lat="53.446110" lon="05.618361"><ele>8.9</ele><time>2021-02-17T11:09:42Z</time><name>PT2442</name></trkpt>
<trkpt lat="53.446112" lon="05.618375"><ele>8.8</ele><time>2021-02-17T11:09:43Z</time><name>PT2443</name></trkpt>
<trkpt lat="53.446110" lon="05.618391"><ele>8.8</ele><time>2021-02-17T11:09:44Z</time><name>PT2444</name></trkpt>
<trkpt lat="53.446107" lon="05.618405"><ele>9</ele><time>2021-02-17T11:09:45Z</time><name>PT2445</name></trkpt>
<trkpt lat="53.446104" lon="05.618414"><ele>9</ele><time>2021-02-17T11:09:46Z</time><name>PT2446</name></trkpt>
<trkpt lat="53.446106" lon="05.618426"><ele>9.1</ele><time>2021-02-17T11:09:47Z</time><name>PT2447</name></trkpt>
<trkpt lat="53.446106" lon="05.618447"><ele>9.2</ele><time>2021-02-17T11:09:48Z</time><name>PT2448</name></trkpt>
<trkpt lat="53.446105" lon="05.618461"><ele>9</ele><time>2021-02-17T11:09:49Z</time><name>PT2449</name></trkpt>
<trkpt lat="53.446105" lon="05.618481"><ele>9</ele><time>2021-02-17T11:09:50Z</time><name>PT2450</name></trkpt>
<trkpt lat="53.446104" lon="05.618495"><ele>9.1</ele><time>2021-02-17T11:09:51Z</time><name>PT2451</name></trkpt>
<trkpt lat="53.446105" lon="05.618508"><ele>9.1</ele><time>2021-02-17T11:09:52Z</time><name>PT2452</name></trkpt>
<trkpt lat="53.446108" lon="05.618518"><ele>9</ele><time>2021-02-17T11:09:53Z</time><name>PT2453</name></trkpt>
<trkpt lat="53.446108" lon="05.618531"><ele>8.8</ele><time>2021-02-17T11:09:54Z</time><name>PT2454</name></trkpt>
<trkpt lat="53.446108" lon="05.618543"><ele>8.8</ele><time>2021-02-17T11:09:55Z</time><name>PT2455</name></trkpt>
<trkpt lat="53.446112" lon="05.618551"><ele>8.9</ele><time>2021-02-17T11:09:56Z</time><name>PT2456</name></trkpt>
<trkpt lat="53.446116" lon="05.618565"><ele>9</ele><time>2021-02-17T11:09:57Z</time><name>PT2457</name></trkpt>
<trkpt lat="53.446120" lon="05.618581"><ele>9.2</ele><time>2021-02-17T11:09:58Z</time><name>PT2458</name></trkpt>
<trkpt lat="53.446121" lon="05.618584"><ele>9.2</ele><time>2021-02-17T11:09:59Z</time><name>PT2459</name></trkpt>
<trkpt lat="53.446127" lon="05.618592"><ele>9.3</ele><time>2021-02-17T11:10:00Z</time><name>PT2460</name></trkpt>
<trkpt lat="53.446130" lon="05.618601"><ele>9.3</ele><time>2021-02-17T11:10:01Z</time><name>PT2461</name></trkpt>
<trkpt lat="53.446132" lon="05.618612"><ele>9.3</ele><time>2021-02-17T11:10:02Z</time><name>PT2462</name></trkpt>
<trkpt lat="53.446137" lon="05.618630"><ele>9.2</ele><time>2021-02-17T11:10:03Z</time><name>PT2463</name></trkpt>
<trkpt lat="53.446141" lon="05.618650"><ele>9.3</ele><time>2021-02-17T11:10:04Z</time><name>PT2464</name></trkpt>
<trkpt lat="53.446142" lon="05.618668"><ele>9</ele><time>2021-02-17T11:10:05Z</time><name>PT2465</name></trkpt>
<trkpt lat="53.446138" lon="05.618690"><ele>9</ele><time>2021-02-17T11:10:06Z</time><name>PT2466</name></trkpt>
<trkpt lat="53.446135" lon="05.618727"><ele>8.8</ele><time>2021-02-17T11:10:07Z</time><name>PT2467</name></trkpt>
<trkpt lat="53.446132" lon="05.618741"><ele>8.9</ele><time>2021-02-17T11:10:08Z</time><name>PT2468</name></trkpt>
<trkpt lat="53.446136" lon="05.618749"><ele>8.9</ele><time>2021-02-17T11:10:09Z</time><name>PT2469</name></trkpt>
<trkpt lat="53.446138" lon="05.618763"><ele>9.2</ele><time>2021-02-17T11:10:10Z</time><name>PT2470</name></trkpt>
<trkpt lat="53.446140" lon="05.618783"><ele>9.2</ele><time>2021-02-17T11:10:11Z</time><name>PT2471</name></trkpt>
<trkpt lat="53.446142" lon="05.618801"><ele>9.3</ele><time>2021-02-17T11:10:12Z</time><name>PT2472</name></trkpt>
<trkpt lat="53.446138" lon="05.618823"><ele>9.1</ele><time>2021-02-17T11:10:13Z</time><name>PT2473</name></trkpt>
<trkpt lat="53.446136" lon="05.618847"><ele>8.9</ele><time>2021-02-17T11:10:14Z</time><name>PT2474</name></trkpt>
<trkpt lat="53.446140" lon="05.618857"><ele>8.8</ele><time>2021-02-17T11:10:15Z</time><name>PT2475</name></trkpt>
<trkpt lat="53.446144" lon="05.618875"><ele>8.8</ele><time>2021-02-17T11:10:16Z</time><name>PT2476</name></trkpt>
<trkpt lat="53.446143" lon="05.618891"><ele>8.8</ele><time>2021-02-17T11:10:17Z</time><name>PT2477</name></trkpt>
<trkpt lat="53.446142" lon="05.618907"><ele>8.8</ele><time>2021-02-17T11:10:18Z</time><name>PT2478</name></trkpt>
<trkpt lat="53.446138" lon="05.618921"><ele>8.9</ele><time>2021-02-17T11:10:19Z</time><name>PT2479</name></trkpt>
<trkpt lat="53.446141" lon="05.618927"><ele>8.9</ele><time>2021-02-17T11:10:20Z</time><name>PT2480</name></trkpt>
<trkpt lat="53.446142" lon="05.618935"><ele>9</ele><time>2021-02-17T11:10:21Z</time><name>PT2481</name></trkpt>
<trkpt lat="53.446147" lon="05.618946"><ele>9</ele><time>2021-02-17T11:10:22Z</time><name>PT2482</name></trkpt>
<trkpt lat="53.446154" lon="05.618955"><ele>8.8</ele><time>2021-02-17T11:10:23Z</time><name>PT2483</name></trkpt>
<trkpt lat="53.446159" lon="05.618957"><ele>8.7</ele><time>2021-02-17T11:10:24Z</time><name>PT2484</name></trkpt>
<trkpt lat="53.446166" lon="05.618965"><ele>8.3</ele><time>2021-02-17T11:10:25Z</time><name>PT2485</name></trkpt>
<trkpt lat="53.446168" lon="05.618969"><ele>8.3</ele><time>2021-02-17T11:10:26Z</time><name>PT2486</name></trkpt>
<trkpt lat="53.446178" lon="05.618973"><ele>8.3</ele><time>2021-02-17T11:10:27Z</time><name>PT2487</name></trkpt>
<trkpt lat="53.446184" lon="05.618983"><ele>8.3</ele><time>2021-02-17T11:10:28Z</time><name>PT2488</name></trkpt>
<trkpt lat="53.446199" lon="05.618993"><ele>8.5</ele><time>2021-02-17T11:10:29Z</time><name>PT2489</name></trkpt>
<trkpt lat="53.446212" lon="05.618997"><ele>8.5</ele><time>2021-02-17T11:10:30Z</time><name>PT2490</name></trkpt>
<trkpt lat="53.446222" lon="05.619005"><ele>8.5</ele><time>2021-02-17T11:10:31Z</time><name>PT2491</name></trkpt>
<trkpt lat="53.446222" lon="05.618996"><ele>8.3</ele><time>2021-02-17T11:10:32Z</time><name>PT2492</name></trkpt>
<trkpt lat="53.446230" lon="05.618998"><ele>8.3</ele><time>2021-02-17T11:10:33Z</time><name>PT2493</name></trkpt>
<trkpt lat="53.446238" lon="05.618999"><ele>8.6</ele><time>2021-02-17T11:10:34Z</time><name>PT2494</name></trkpt>
<trkpt lat="53.446244" lon="05.619003"><ele>8.7</ele><time>2021-02-17T11:10:35Z</time><name>PT2495</name></trkpt>
<trkpt lat="53.446252" lon="05.619008"><ele>8.8</ele><time>2021-02-17T11:10:36Z</time><name>PT2496</name></trkpt>
<trkpt lat="53.446258" lon="05.619008"><ele>8.9</ele><time>2021-02-17T11:10:37Z</time><name>PT2497</name></trkpt>
<trkpt lat="53.446258" lon="05.619015"><ele>8.8</ele><time>2021-02-17T11:10:39Z</time><name>PT2498</name></trkpt>
<trkpt lat="53.446265" lon="05.619017"><ele>8.8</ele><time>2021-02-17T11:10:40Z</time><name>PT2499</name></trkpt>
<trkpt lat="53.446270" lon="05.619021"><ele>8.7</ele><time>2021-02-17T11:10:41Z</time><name>PT2500</name></trkpt>
<trkpt lat="53.446279" lon="05.619024"><ele>8.6</ele><time>2021-02-17T11:10:42Z</time><name>PT2501</name></trkpt>
<trkpt lat="53.446293" lon="05.619024"><ele>8.6</ele><time>2021-02-17T11:10:43Z</time><name>PT2502</name></trkpt>
<trkpt lat="53.446304" lon="05.619030"><ele>8.8</ele><time>2021-02-17T11:10:44Z</time><name>PT2503</name></trkpt>
<trkpt lat="53.446313" lon="05.619040"><ele>8.8</ele><time>2021-02-17T11:10:45Z</time><name>PT2504</name></trkpt>
<trkpt lat="53.446325" lon="05.619049"><ele>8.8</ele><time>2021-02-17T11:10:46Z</time><name>PT2505</name></trkpt>
<trkpt lat="53.446333" lon="05.619060"><ele>8.9</ele><time>2021-02-17T11:10:47Z</time><name>PT2506</name></trkpt>
<trkpt lat="53.446342" lon="05.619076"><ele>8.9</ele><time>2021-02-17T11:10:48Z</time><name>PT2507</name></trkpt>
<trkpt lat="53.446349" lon="05.619096"><ele>8.8</ele><time>2021-02-17T11:10:49Z</time><name>PT2508</name></trkpt>
<trkpt lat="53.446358" lon="05.619107"><ele>8.8</ele><time>2021-02-17T11:10:50Z</time><name>PT2509</name></trkpt>
<trkpt lat="53.446364" lon="05.619111"><ele>8.8</ele><time>2021-02-17T11:10:51Z</time><name>PT2510</name></trkpt>
<trkpt lat="53.446366" lon="05.619114"><ele>8.6</ele><time>2021-02-17T11:10:52Z</time><name>PT2511</name></trkpt>
<trkpt lat="53.446375" lon="05.619121"><ele>8.7</ele><time>2021-02-17T11:10:53Z</time><name>PT2512</name></trkpt>
<trkpt lat="53.446384" lon="05.619132"><ele>8.7</ele><time>2021-02-17T11:10:54Z</time><name>PT2513</name></trkpt>
<trkpt lat="53.446393" lon="05.619137"><ele>8.8</ele><time>2021-02-17T11:10:55Z</time><name>PT2514</name></trkpt>
<trkpt lat="53.446405" lon="05.619145"><ele>8.8</ele><time>2021-02-17T11:10:56Z</time><name>PT2515</name></trkpt>
<trkpt lat="53.446414" lon="05.619154"><ele>8.8</ele><time>2021-02-17T11:10:57Z</time><name>PT2516</name></trkpt>
<trkpt lat="53.446419" lon="05.619163"><ele>8.8</ele><time>2021-02-17T11:10:58Z</time><name>PT2517</name></trkpt>
<trkpt lat="53.446425" lon="05.619172"><ele>8.7</ele><time>2021-02-17T11:10:59Z</time><name>PT2518</name></trkpt>
<trkpt lat="53.446435" lon="05.619184"><ele>8.6</ele><time>2021-02-17T11:11:00Z</time><name>PT2519</name></trkpt>
<trkpt lat="53.446443" lon="05.619197"><ele>8.7</ele><time>2021-02-17T11:11:01Z</time><name>PT2520</name></trkpt>
<trkpt lat="53.446452" lon="05.619207"><ele>8.5</ele><time>2021-02-17T11:11:02Z</time><name>PT2521</name></trkpt>
<trkpt lat="53.446465" lon="05.619231"><ele>8.6</ele><time>2021-02-17T11:11:03Z</time><name>PT2522</name></trkpt>
<trkpt lat="53.446478" lon="05.619244"><ele>8.6</ele><time>2021-02-17T11:11:04Z</time><name>PT2523</name></trkpt>
<trkpt lat="53.446490" lon="05.619262"><ele>8.5</ele><time>2021-02-17T11:11:05Z</time><name>PT2524</name></trkpt>
<trkpt lat="53.446500" lon="05.619277"><ele>8.7</ele><time>2021-02-17T11:11:06Z</time><name>PT2525</name></trkpt>
<trkpt lat="53.446506" lon="05.619292"><ele>8.8</ele><time>2021-02-17T11:11:07Z</time><name>PT2526</name></trkpt>
<trkpt lat="53.446511" lon="05.619301"><ele>8.8</ele><time>2021-02-17T11:11:08Z</time><name>PT2527</name></trkpt>
<trkpt lat="53.446516" lon="05.619310"><ele>8.9</ele><time>2021-02-17T11:11:09Z</time><name>PT2528</name></trkpt>
<trkpt lat="53.446523" lon="05.619318"><ele>8.6</ele><time>2021-02-17T11:11:10Z</time><name>PT2529</name></trkpt>
<trkpt lat="53.446530" lon="05.619329"><ele>8.5</ele><time>2021-02-17T11:11:11Z</time><name>PT2530</name></trkpt>
<trkpt lat="53.446538" lon="05.619343"><ele>8.6</ele><time>2021-02-17T11:11:12Z</time><name>PT2531</name></trkpt>
<trkpt lat="53.446546" lon="05.619354"><ele>8.7</ele><time>2021-02-17T11:11:13Z</time><name>PT2532</name></trkpt>
<trkpt lat="53.446554" lon="05.619370"><ele>8.8</ele><time>2021-02-17T11:11:14Z</time><name>PT2533</name></trkpt>
<trkpt lat="53.446562" lon="05.619381"><ele>8.8</ele><time>2021-02-17T11:11:15Z</time><name>PT2534</name></trkpt>
<trkpt lat="53.446573" lon="05.619391"><ele>8.9</ele><time>2021-02-17T11:11:16Z</time><name>PT2535</name></trkpt>
<trkpt lat="53.446584" lon="05.619398"><ele>8.8</ele><time>2021-02-17T11:11:17Z</time><name>PT2536</name></trkpt>
<trkpt lat="53.446592" lon="05.619411"><ele>8.8</ele><time>2021-02-17T11:11:18Z</time><name>PT2537</name></trkpt>
<trkpt lat="53.446601" lon="05.619437"><ele>8.9</ele><time>2021-02-17T11:11:19Z</time><name>PT2538</name></trkpt>
<trkpt lat="53.446608" lon="05.619450"><ele>8.8</ele><time>2021-02-17T11:11:21Z</time><name>PT2539</name></trkpt>
<trkpt lat="53.446615" lon="05.619458"><ele>8.9</ele><time>2021-02-17T11:11:21Z</time><name>PT2540</name></trkpt>
<trkpt lat="53.446618" lon="05.619466"><ele>8.8</ele><time>2021-02-17T11:11:22Z</time><name>PT2541</name></trkpt>
<trkpt lat="53.446625" lon="05.619476"><ele>8.8</ele><time>2021-02-17T11:11:23Z</time><name>PT2542</name></trkpt>
<trkpt lat="53.446632" lon="05.619485"><ele>8.8</ele><time>2021-02-17T11:11:24Z</time><name>PT2543</name></trkpt>
<trkpt lat="53.446637" lon="05.619488"><ele>8.8</ele><time>2021-02-17T11:11:25Z</time><name>PT2544</name></trkpt>
<trkpt lat="53.446639" lon="05.619497"><ele>9</ele><time>2021-02-17T11:11:26Z</time><name>PT2545</name></trkpt>
<trkpt lat="53.446643" lon="05.619508"><ele>8.8</ele><time>2021-02-17T11:11:27Z</time><name>PT2546</name></trkpt>
<trkpt lat="53.446653" lon="05.619523"><ele>8.9</ele><time>2021-02-17T11:11:28Z</time><name>PT2547</name></trkpt>
<trkpt lat="53.446655" lon="05.619532"><ele>9</ele><time>2021-02-17T11:11:29Z</time><name>PT2548</name></trkpt>
<trkpt lat="53.446661" lon="05.619544"><ele>8.9</ele><time>2021-02-17T11:11:30Z</time><name>PT2549</name></trkpt>
<trkpt lat="53.446664" lon="05.619556"><ele>8.9</ele><time>2021-02-17T11:11:31Z</time><name>PT2550</name></trkpt>
<trkpt lat="53.446672" lon="05.619569"><ele>9</ele><time>2021-02-17T11:11:32Z</time><name>PT2551</name></trkpt>
<trkpt lat="53.446682" lon="05.619581"><ele>9</ele><time>2021-02-17T11:11:33Z</time><name>PT2552</name></trkpt>
<trkpt lat="53.446689" lon="05.619593"><ele>9</ele><time>2021-02-17T11:11:34Z</time><name>PT2553</name></trkpt>
<trkpt lat="53.446698" lon="05.619607"><ele>9.1</ele><time>2021-02-17T11:11:35Z</time><name>PT2554</name></trkpt>
<trkpt lat="53.446701" lon="05.619622"><ele>8.8</ele><time>2021-02-17T11:11:36Z</time><name>PT2555</name></trkpt>
<trkpt lat="53.446707" lon="05.619638"><ele>8.8</ele><time>2021-02-17T11:11:37Z</time><name>PT2556</name></trkpt>
<trkpt lat="53.446714" lon="05.619654"><ele>8.8</ele><time>2021-02-17T11:11:38Z</time><name>PT2557</name></trkpt>
<trkpt lat="53.446719" lon="05.619667"><ele>8.8</ele><time>2021-02-17T11:11:39Z</time><name>PT2558</name></trkpt>
<trkpt lat="53.446731" lon="05.619683"><ele>8.8</ele><time>2021-02-17T11:11:40Z</time><name>PT2559</name></trkpt>
<trkpt lat="53.446738" lon="05.619692"><ele>8.8</ele><time>2021-02-17T11:11:41Z</time><name>PT2560</name></trkpt>
<trkpt lat="53.446743" lon="05.619704"><ele>8.9</ele><time>2021-02-17T11:11:42Z</time><name>PT2561</name></trkpt>
<trkpt lat="53.446751" lon="05.619715"><ele>9</ele><time>2021-02-17T11:11:43Z</time><name>PT2562</name></trkpt>
<trkpt lat="53.446759" lon="05.619727"><ele>9</ele><time>2021-02-17T11:11:45Z</time><name>PT2563</name></trkpt>
<trkpt lat="53.446766" lon="05.619747"><ele>9</ele><time>2021-02-17T11:11:45Z</time><name>PT2564</name></trkpt>
<trkpt lat="53.446770" lon="05.619761"><ele>8.9</ele><time>2021-02-17T11:11:46Z</time><name>PT2565</name></trkpt>
<trkpt lat="53.446779" lon="05.619771"><ele>8.7</ele><time>2021-02-17T11:11:47Z</time><name>PT2566</name></trkpt>
<trkpt lat="53.446787" lon="05.619780"><ele>8.7</ele><time>2021-02-17T11:11:48Z</time><name>PT2567</name></trkpt>
<trkpt lat="53.446791" lon="05.619784"><ele>8.7</ele><time>2021-02-17T11:11:49Z</time><name>PT2568</name></trkpt>
<trkpt lat="53.446794" lon="05.619789"><ele>8.8</ele><time>2021-02-17T11:11:50Z</time><name>PT2569</name></trkpt>
<trkpt lat="53.446797" lon="05.619794"><ele>9.1</ele><time>2021-02-17T11:11:51Z</time><name>PT2570</name></trkpt>
<trkpt lat="53.446801" lon="05.619802"><ele>9</ele><time>2021-02-17T11:11:52Z</time><name>PT2571</name></trkpt>
<trkpt lat="53.446803" lon="05.619805"><ele>9</ele><time>2021-02-17T11:11:53Z</time><name>PT2572</name></trkpt>
<trkpt lat="53.446804" lon="05.619808"><ele>9.1</ele><time>2021-02-17T11:11:54Z</time><name>PT2573</name></trkpt>
<trkpt lat="53.446810" lon="05.619826"><ele>9.3</ele><time>2021-02-17T11:12:12Z</time><name>PT2574</name></trkpt>
<trkpt lat="53.446818" lon="05.619868"><ele>9.3</ele><time>2021-02-17T11:12:13Z</time><name>PT2575</name></trkpt>
<trkpt lat="53.446821" lon="05.619886"><ele>9.2</ele><time>2021-02-17T11:12:14Z</time><name>PT2576</name></trkpt>
<trkpt lat="53.446827" lon="05.619916"><ele>9.1</ele><time>2021-02-17T11:12:15Z</time><name>PT2577</name></trkpt>
<trkpt lat="53.446830" lon="05.619934"><ele>8.8</ele><time>2021-02-17T11:12:16Z</time><name>PT2578</name></trkpt>
<trkpt lat="53.446833" lon="05.619946"><ele>8.8</ele><time>2021-02-17T11:12:17Z</time><name>PT2579</name></trkpt>
<trkpt lat="53.446834" lon="05.619957"><ele>8.8</ele><time>2021-02-17T11:12:18Z</time><name>PT2580</name></trkpt>
<trkpt lat="53.446839" lon="05.619973"><ele>8.7</ele><time>2021-02-17T11:12:19Z</time><name>PT2581</name></trkpt>
<trkpt lat="53.446843" lon="05.619988"><ele>8.8</ele><time>2021-02-17T11:12:20Z</time><name>PT2582</name></trkpt>
<trkpt lat="53.446844" lon="05.619997"><ele>8.8</ele><time>2021-02-17T11:12:21Z</time><name>PT2583</name></trkpt>
<trkpt lat="53.446841" lon="05.620009"><ele>8.9</ele><time>2021-02-17T11:12:22Z</time><name>PT2584</name></trkpt>
<trkpt lat="53.446841" lon="05.620027"><ele>9</ele><time>2021-02-17T11:12:23Z</time><name>PT2585</name></trkpt>
<trkpt lat="53.446844" lon="05.620047"><ele>9</ele><time>2021-02-17T11:12:24Z</time><name>PT2586</name></trkpt>
<trkpt lat="53.446847" lon="05.620062"><ele>9</ele><time>2021-02-17T11:12:25Z</time><name>PT2587</name></trkpt>
<trkpt lat="53.446844" lon="05.620079"><ele>9.1</ele><time>2021-02-17T11:12:26Z</time><name>PT2588</name></trkpt>
<trkpt lat="53.446851" lon="05.620094"><ele>9.1</ele><time>2021-02-17T11:12:27Z</time><name>PT2589</name></trkpt>
<trkpt lat="53.446852" lon="05.620105"><ele>9.2</ele><time>2021-02-17T11:12:28Z</time><name>PT2590</name></trkpt>
<trkpt lat="53.446853" lon="05.620119"><ele>9</ele><time>2021-02-17T11:12:29Z</time><name>PT2591</name></trkpt>
<trkpt lat="53.446854" lon="05.620134"><ele>9.1</ele><time>2021-02-17T11:12:30Z</time><name>PT2592</name></trkpt>
<trkpt lat="53.446854" lon="05.620148"><ele>9.2</ele><time>2021-02-17T11:12:31Z</time><name>PT2593</name></trkpt>
<trkpt lat="53.446857" lon="05.620160"><ele>9.3</ele><time>2021-02-17T11:12:32Z</time><name>PT2594</name></trkpt>
<trkpt lat="53.446861" lon="05.620167"><ele>9.6</ele><time>2021-02-17T11:12:33Z</time><name>PT2595</name></trkpt>
<trkpt lat="53.446867" lon="05.620180"><ele>9.7</ele><time>2021-02-17T11:12:34Z</time><name>PT2596</name></trkpt>
<trkpt lat="53.446871" lon="05.620193"><ele>9.8</ele><time>2021-02-17T11:12:35Z</time><name>PT2597</name></trkpt>
<trkpt lat="53.446871" lon="05.620203"><ele>9.9</ele><time>2021-02-17T11:12:36Z</time><name>PT2598</name></trkpt>
<trkpt lat="53.446877" lon="05.620215"><ele>10</ele><time>2021-02-17T11:12:37Z</time><name>PT2599</name></trkpt>
<trkpt lat="53.446882" lon="05.620227"><ele>10.1</ele><time>2021-02-17T11:12:38Z</time><name>PT2600</name></trkpt>
<trkpt lat="53.446884" lon="05.620237"><ele>10.1</ele><time>2021-02-17T11:12:39Z</time><name>PT2601</name></trkpt>
<trkpt lat="53.446888" lon="05.620244"><ele>10.2</ele><time>2021-02-17T11:12:40Z</time><name>PT2602</name></trkpt>
<trkpt lat="53.446889" lon="05.620264"><ele>10.2</ele><time>2021-02-17T11:12:41Z</time><name>PT2603</name></trkpt>
<trkpt lat="53.446890" lon="05.620272"><ele>10.1</ele><time>2021-02-17T11:12:42Z</time><name>PT2604</name></trkpt>
<trkpt lat="53.446895" lon="05.620284"><ele>9.9</ele><time>2021-02-17T11:12:43Z</time><name>PT2605</name></trkpt>
<trkpt lat="53.446898" lon="05.620299"><ele>9.8</ele><time>2021-02-17T11:12:44Z</time><name>PT2606</name></trkpt>
<trkpt lat="53.446904" lon="05.620311"><ele>9.7</ele><time>2021-02-17T11:12:45Z</time><name>PT2607</name></trkpt>
<trkpt lat="53.446904" lon="05.620319"><ele>9.5</ele><time>2021-02-17T11:12:46Z</time><name>PT2608</name></trkpt>
<trkpt lat="53.446907" lon="05.620329"><ele>9.4</ele><time>2021-02-17T11:12:47Z</time><name>PT2609</name></trkpt>
<trkpt lat="53.446911" lon="05.620339"><ele>9.3</ele><time>2021-02-17T11:12:48Z</time><name>PT2610</name></trkpt>
<trkpt lat="53.446915" lon="05.620354"><ele>9.3</ele><time>2021-02-17T11:12:49Z</time><name>PT2611</name></trkpt>
<trkpt lat="53.446918" lon="05.620372"><ele>9.3</ele><time>2021-02-17T11:12:50Z</time><name>PT2612</name></trkpt>
<trkpt lat="53.446922" lon="05.620384"><ele>9.3</ele><time>2021-02-17T11:12:51Z</time><name>PT2613</name></trkpt>
<trkpt lat="53.446926" lon="05.620396"><ele>9.2</ele><time>2021-02-17T11:12:52Z</time><name>PT2614</name></trkpt>
<trkpt lat="53.446931" lon="05.620407"><ele>9.3</ele><time>2021-02-17T11:12:53Z</time><name>PT2615</name></trkpt>
<trkpt lat="53.446934" lon="05.620419"><ele>9.3</ele><time>2021-02-17T11:12:54Z</time><name>PT2616</name></trkpt>
<trkpt lat="53.446935" lon="05.620439"><ele>9.4</ele><time>2021-02-17T11:12:55Z</time><name>PT2617</name></trkpt>
<trkpt lat="53.446938" lon="05.620455"><ele>9.6</ele><time>2021-02-17T11:12:56Z</time><name>PT2618</name></trkpt>
<trkpt lat="53.446948" lon="05.620474"><ele>9.6</ele><time>2021-02-17T11:12:57Z</time><name>PT2619</name></trkpt>
<trkpt lat="53.446948" lon="05.620491"><ele>9.8</ele><time>2021-02-17T11:12:58Z</time><name>PT2620</name></trkpt>
<trkpt lat="53.446951" lon="05.620504"><ele>10</ele><time>2021-02-17T11:12:59Z</time><name>PT2621</name></trkpt>
<trkpt lat="53.446954" lon="05.620514"><ele>10.1</ele><time>2021-02-17T11:13:00Z</time><name>PT2622</name></trkpt>
<trkpt lat="53.446958" lon="05.620528"><ele>10.3</ele><time>2021-02-17T11:13:01Z</time><name>PT2623</name></trkpt>
<trkpt lat="53.446962" lon="05.620539"><ele>10.4</ele><time>2021-02-17T11:13:02Z</time><name>PT2624</name></trkpt>
<trkpt lat="53.446966" lon="05.620550"><ele>10.4</ele><time>2021-02-17T11:13:03Z</time><name>PT2625</name></trkpt>
<trkpt lat="53.446971" lon="05.620562"><ele>10.4</ele><time>2021-02-17T11:13:04Z</time><name>PT2626</name></trkpt>
<trkpt lat="53.446972" lon="05.620574"><ele>10.6</ele><time>2021-02-17T11:13:05Z</time><name>PT2627</name></trkpt>
<trkpt lat="53.446974" lon="05.620585"><ele>10.5</ele><time>2021-02-17T11:13:06Z</time><name>PT2628</name></trkpt>
<trkpt lat="53.446976" lon="05.620593"><ele>10.6</ele><time>2021-02-17T11:13:07Z</time><name>PT2629</name></trkpt>
<trkpt lat="53.446980" lon="05.620605"><ele>10.6</ele><time>2021-02-17T11:13:08Z</time><name>PT2630</name></trkpt>
<trkpt lat="53.446985" lon="05.620615"><ele>10.4</ele><time>2021-02-17T11:13:09Z</time><name>PT2631</name></trkpt>
<trkpt lat="53.446990" lon="05.620627"><ele>10.4</ele><time>2021-02-17T11:13:10Z</time><name>PT2632</name></trkpt>
<trkpt lat="53.446993" lon="05.620634"><ele>10.2</ele><time>2021-02-17T11:13:11Z</time><name>PT2633</name></trkpt>
<trkpt lat="53.446993" lon="05.620637"><ele>10.2</ele><time>2021-02-17T11:13:12Z</time><name>PT2634</name></trkpt>
<trkpt lat="53.446995" lon="05.620648"><ele>10.1</ele><time>2021-02-17T11:13:13Z</time><name>PT2635</name></trkpt>
<trkpt lat="53.446997" lon="05.620660"><ele>9.9</ele><time>2021-02-17T11:13:14Z</time><name>PT2636</name></trkpt>
<trkpt lat="53.446999" lon="05.620675"><ele>9.9</ele><time>2021-02-17T11:13:15Z</time><name>PT2637</name></trkpt>
<trkpt lat="53.447004" lon="05.620688"><ele>9.7</ele><time>2021-02-17T11:13:16Z</time><name>PT2638</name></trkpt>
<trkpt lat="53.447011" lon="05.620702"><ele>9.6</ele><time>2021-02-17T11:13:17Z</time><name>PT2639</name></trkpt>
<trkpt lat="53.447018" lon="05.620714"><ele>9.5</ele><time>2021-02-17T11:13:18Z</time><name>PT2640</name></trkpt>
<trkpt lat="53.447018" lon="05.620728"><ele>9.4</ele><time>2021-02-17T11:13:19Z</time><name>PT2641</name></trkpt>
<trkpt lat="53.447020" lon="05.620740"><ele>9.2</ele><time>2021-02-17T11:13:21Z</time><name>PT2642</name></trkpt>
<trkpt lat="53.447023" lon="05.620757"><ele>9.1</ele><time>2021-02-17T11:13:21Z</time><name>PT2643</name></trkpt>
<trkpt lat="53.447033" lon="05.620786"><ele>9</ele><time>2021-02-17T11:13:23Z</time><name>PT2644</name></trkpt>
<trkpt lat="53.447035" lon="05.620808"><ele>8.9</ele><time>2021-02-17T11:13:24Z</time><name>PT2645</name></trkpt>
<trkpt lat="53.447039" lon="05.620832"><ele>9</ele><time>2021-02-17T11:13:25Z</time><name>PT2646</name></trkpt>
<trkpt lat="53.447045" lon="05.620874"><ele>9</ele><time>2021-02-17T11:13:26Z</time><name>PT2647</name></trkpt>
<trkpt lat="53.447050" lon="05.620908"><ele>9</ele><time>2021-02-17T11:13:27Z</time><name>PT2648</name></trkpt>
<trkpt lat="53.447055" lon="05.620935"><ele>9.2</ele><time>2021-02-17T11:13:28Z</time><name>PT2649</name></trkpt>
<trkpt lat="53.447059" lon="05.620950"><ele>9.3</ele><time>2021-02-17T11:13:29Z</time><name>PT2650</name></trkpt>
<trkpt lat="53.447056" lon="05.620963"><ele>9.2</ele><time>2021-02-17T11:13:30Z</time><name>PT2651</name></trkpt>
<trkpt lat="53.447056" lon="05.620980"><ele>9.1</ele><time>2021-02-17T11:13:31Z</time><name>PT2652</name></trkpt>
<trkpt lat="53.447051" lon="05.621003"><ele>8.9</ele><time>2021-02-17T11:13:32Z</time><name>PT2653</name></trkpt>
<trkpt lat="53.447056" lon="05.621013"><ele>8.8</ele><time>2021-02-17T11:13:33Z</time><name>PT2654</name></trkpt>
<trkpt lat="53.447055" lon="05.621028"><ele>8.8</ele><time>2021-02-17T11:13:34Z</time><name>PT2655</name></trkpt>
<trkpt lat="53.447052" lon="05.621043"><ele>8.8</ele><time>2021-02-17T11:13:35Z</time><name>PT2656</name></trkpt>
<trkpt lat="53.447049" lon="05.621060"><ele>8.8</ele><time>2021-02-17T11:13:36Z</time><name>PT2657</name></trkpt>
<trkpt lat="53.447043" lon="05.621072"><ele>8.8</ele><time>2021-02-17T11:13:37Z</time><name>PT2658</name></trkpt>
<trkpt lat="53.447036" lon="05.621081"><ele>8.8</ele><time>2021-02-17T11:13:38Z</time><name>PT2659</name></trkpt>
<trkpt lat="53.447028" lon="05.621092"><ele>8.9</ele><time>2021-02-17T11:13:39Z</time><name>PT2660</name></trkpt>
<trkpt lat="53.447021" lon="05.621104"><ele>8.8</ele><time>2021-02-17T11:13:40Z</time><name>PT2661</name></trkpt>
<trkpt lat="53.447015" lon="05.621119"><ele>9</ele><time>2021-02-17T11:13:41Z</time><name>PT2662</name></trkpt>
<trkpt lat="53.447004" lon="05.621137"><ele>9</ele><time>2021-02-17T11:13:42Z</time><name>PT2663</name></trkpt>
<trkpt lat="53.446999" lon="05.621151"><ele>9</ele><time>2021-02-17T11:13:43Z</time><name>PT2664</name></trkpt>
<trkpt lat="53.446992" lon="05.621165"><ele>9</ele><time>2021-02-17T11:13:44Z</time><name>PT2665</name></trkpt>
<trkpt lat="53.446986" lon="05.621177"><ele>8.8</ele><time>2021-02-17T11:13:45Z</time><name>PT2666</name></trkpt>
<trkpt lat="53.446980" lon="05.621191"><ele>8.7</ele><time>2021-02-17T11:13:46Z</time><name>PT2667</name></trkpt>
<trkpt lat="53.446975" lon="05.621204"><ele>8.7</ele><time>2021-02-17T11:13:47Z</time><name>PT2668</name></trkpt>
<trkpt lat="53.446969" lon="05.621222"><ele>8.8</ele><time>2021-02-17T11:13:48Z</time><name>PT2669</name></trkpt>
<trkpt lat="53.446968" lon="05.621232"><ele>8.8</ele><time>2021-02-17T11:13:49Z</time><name>PT2670</name></trkpt>
<trkpt lat="53.446963" lon="05.621244"><ele>8.9</ele><time>2021-02-17T11:13:50Z</time><name>PT2671</name></trkpt>
<trkpt lat="53.446957" lon="05.621256"><ele>8.9</ele><time>2021-02-17T11:13:51Z</time><name>PT2672</name></trkpt>
<trkpt lat="53.446949" lon="05.621263"><ele>8.9</ele><time>2021-02-17T11:13:52Z</time><name>PT2673</name></trkpt>
<trkpt lat="53.446948" lon="05.621269"><ele>8.9</ele><time>2021-02-17T11:13:53Z</time><name>PT2674</name></trkpt>
<trkpt lat="53.446946" lon="05.621282"><ele>8.8</ele><time>2021-02-17T11:13:54Z</time><name>PT2675</name></trkpt>
<trkpt lat="53.446941" lon="05.621293"><ele>8.7</ele><time>2021-02-17T11:13:55Z</time><name>PT2676</name></trkpt>
<trkpt lat="53.446932" lon="05.621320"><ele>8.7</ele><time>2021-02-17T11:13:56Z</time><name>PT2677</name></trkpt>
<trkpt lat="53.446928" lon="05.621337"><ele>8.6</ele><time>2021-02-17T11:13:57Z</time><name>PT2678</name></trkpt>
<trkpt lat="53.446916" lon="05.621359"><ele>8.8</ele><time>2021-02-17T11:13:58Z</time><name>PT2679</name></trkpt>
<trkpt lat="53.446908" lon="05.621371"><ele>8.8</ele><time>2021-02-17T11:13:59Z</time><name>PT2680</name></trkpt>
<trkpt lat="53.446904" lon="05.621384"><ele>9</ele><time>2021-02-17T11:14:00Z</time><name>PT2681</name></trkpt>
<trkpt lat="53.446902" lon="05.621397"><ele>9</ele><time>2021-02-17T11:14:01Z</time><name>PT2682</name></trkpt>
<trkpt lat="53.446893" lon="05.621409"><ele>9.1</ele><time>2021-02-17T11:14:02Z</time><name>PT2683</name></trkpt>
<trkpt lat="53.446889" lon="05.621423"><ele>9.1</ele><time>2021-02-17T11:14:03Z</time><name>PT2684</name></trkpt>
<trkpt lat="53.446879" lon="05.621437"><ele>9</ele><time>2021-02-17T11:14:04Z</time><name>PT2685</name></trkpt>
<trkpt lat="53.446876" lon="05.621455"><ele>8.8</ele><time>2021-02-17T11:14:06Z</time><name>PT2686</name></trkpt>
<trkpt lat="53.446873" lon="05.621476"><ele>8.8</ele><time>2021-02-17T11:14:07Z</time><name>PT2687</name></trkpt>
<trkpt lat="53.446866" lon="05.621505"><ele>8.8</ele><time>2021-02-17T11:14:08Z</time><name>PT2688</name></trkpt>
<trkpt lat="53.446850" lon="05.621530"><ele>8.7</ele><time>2021-02-17T11:14:09Z</time><name>PT2689</name></trkpt>
<trkpt lat="53.446837" lon="05.621553"><ele>8.8</ele><time>2021-02-17T11:14:10Z</time><name>PT2690</name></trkpt>
<trkpt lat="53.446820" lon="05.621580"><ele>8.7</ele><time>2021-02-17T11:14:11Z</time><name>PT2691</name></trkpt>
<trkpt lat="53.446806" lon="05.621599"><ele>8.7</ele><time>2021-02-17T11:14:12Z</time><name>PT2692</name></trkpt>
<trkpt lat="53.446794" lon="05.621625"><ele>8.8</ele><time>2021-02-17T11:14:13Z</time><name>PT2693</name></trkpt>
<trkpt lat="53.446788" lon="05.621636"><ele>8.9</ele><time>2021-02-17T11:14:14Z</time><name>PT2694</name></trkpt>
<trkpt lat="53.446781" lon="05.621655"><ele>9</ele><time>2021-02-17T11:14:15Z</time><name>PT2695</name></trkpt>
<trkpt lat="53.446774" lon="05.621674"><ele>9.1</ele><time>2021-02-17T11:14:16Z</time><name>PT2696</name></trkpt>
<trkpt lat="53.446768" lon="05.621687"><ele>8.9</ele><time>2021-02-17T11:14:17Z</time><name>PT2697</name></trkpt>
<trkpt lat="53.446763" lon="05.621708"><ele>8.9</ele><time>2021-02-17T11:14:18Z</time><name>PT2698</name></trkpt>
<trkpt lat="53.446761" lon="05.621735"><ele>8.8</ele><time>2021-02-17T11:14:19Z</time><name>PT2699</name></trkpt>
<trkpt lat="53.446753" lon="05.621754"><ele>8.9</ele><time>2021-02-17T11:14:20Z</time><name>PT2700</name></trkpt>
<trkpt lat="53.446746" lon="05.621774"><ele>8.9</ele><time>2021-02-17T11:14:21Z</time><name>PT2701</name></trkpt>
<trkpt lat="53.446738" lon="05.621787"><ele>8.7</ele><time>2021-02-17T11:14:22Z</time><name>PT2702</name></trkpt>
<trkpt lat="53.446728" lon="05.621808"><ele>8.7</ele><time>2021-02-17T11:14:23Z</time><name>PT2703</name></trkpt>
<trkpt lat="53.446723" lon="05.621821"><ele>8.8</ele><time>2021-02-17T11:14:24Z</time><name>PT2704</name></trkpt>
<trkpt lat="53.446715" lon="05.621839"><ele>8.6</ele><time>2021-02-17T11:14:25Z</time><name>PT2705</name></trkpt>
<trkpt lat="53.446714" lon="05.621856"><ele>8.8</ele><time>2021-02-17T11:14:26Z</time><name>PT2706</name></trkpt>
<trkpt lat="53.446707" lon="05.621878"><ele>8.8</ele><time>2021-02-17T11:14:27Z</time><name>PT2707</name></trkpt>
<trkpt lat="53.446701" lon="05.621891"><ele>8.8</ele><time>2021-02-17T11:14:28Z</time><name>PT2708</name></trkpt>
<trkpt lat="53.446695" lon="05.621905"><ele>8.7</ele><time>2021-02-17T11:14:29Z</time><name>PT2709</name></trkpt>
<trkpt lat="53.446692" lon="05.621914"><ele>8.7</ele><time>2021-02-17T11:14:30Z</time><name>PT2710</name></trkpt>
<trkpt lat="53.446688" lon="05.621924"><ele>8.8</ele><time>2021-02-17T11:14:31Z</time><name>PT2711</name></trkpt>
<trkpt lat="53.446687" lon="05.621934"><ele>8.8</ele><time>2021-02-17T11:14:32Z</time><name>PT2712</name></trkpt>
<trkpt lat="53.446689" lon="05.621944"><ele>8.8</ele><time>2021-02-17T11:14:33Z</time><name>PT2713</name></trkpt>
<trkpt lat="53.446685" lon="05.621950"><ele>8.9</ele><time>2021-02-17T11:14:34Z</time><name>PT2714</name></trkpt>
<trkpt lat="53.446676" lon="05.621962"><ele>8.8</ele><time>2021-02-17T11:14:35Z</time><name>PT2715</name></trkpt>
<trkpt lat="53.446668" lon="05.621974"><ele>8.7</ele><time>2021-02-17T11:14:36Z</time><name>PT2716</name></trkpt>
<trkpt lat="53.446662" lon="05.621986"><ele>8.5</ele><time>2021-02-17T11:14:37Z</time><name>PT2717</name></trkpt>
<trkpt lat="53.446659" lon="05.621996"><ele>8.5</ele><time>2021-02-17T11:14:38Z</time><name>PT2718</name></trkpt>
<trkpt lat="53.446658" lon="05.622004"><ele>8.3</ele><time>2021-02-17T11:14:39Z</time><name>PT2719</name></trkpt>
<trkpt lat="53.446651" lon="05.622020"><ele>8.5</ele><time>2021-02-17T11:14:40Z</time><name>PT2720</name></trkpt>
<trkpt lat="53.446641" lon="05.622030"><ele>8.8</ele><time>2021-02-17T11:14:41Z</time><name>PT2721</name></trkpt>
<trkpt lat="53.446634" lon="05.622043"><ele>8.8</ele><time>2021-02-17T11:14:42Z</time><name>PT2722</name></trkpt>
<trkpt lat="53.446622" lon="05.622060"><ele>8.8</ele><time>2021-02-17T11:14:43Z</time><name>PT2723</name></trkpt>
<trkpt lat="53.446617" lon="05.622072"><ele>8.8</ele><time>2021-02-17T11:14:44Z</time><name>PT2724</name></trkpt>
<trkpt lat="53.446612" lon="05.622082"><ele>8.8</ele><time>2021-02-17T11:14:45Z</time><name>PT2725</name></trkpt>
<trkpt lat="53.446606" lon="05.622101"><ele>8.6</ele><time>2021-02-17T11:14:46Z</time><name>PT2726</name></trkpt>
<trkpt lat="53.446601" lon="05.622114"><ele>8.7</ele><time>2021-02-17T11:14:47Z</time><name>PT2727</name></trkpt>
<trkpt lat="53.446597" lon="05.622127"><ele>8.8</ele><time>2021-02-17T11:14:48Z</time><name>PT2728</name></trkpt>
<trkpt lat="53.446596" lon="05.622136"><ele>8.9</ele><time>2021-02-17T11:14:49Z</time><name>PT2729</name></trkpt>
<trkpt lat="53.446592" lon="05.622151"><ele>9</ele><time>2021-02-17T11:14:50Z</time><name>PT2730</name></trkpt>
<trkpt lat="53.446584" lon="05.622163"><ele>8.9</ele><time>2021-02-17T11:14:51Z</time><name>PT2731</name></trkpt>
<trkpt lat="53.446574" lon="05.622188"><ele>9</ele><time>2021-02-17T11:14:52Z</time><name>PT2732</name></trkpt>
<trkpt lat="53.446570" lon="05.622211"><ele>8.8</ele><time>2021-02-17T11:14:53Z</time><name>PT2733</name></trkpt>
<trkpt lat="53.446569" lon="05.622229"><ele>8.9</ele><time>2021-02-17T11:14:54Z</time><name>PT2734</name></trkpt>
<trkpt lat="53.446569" lon="05.622250"><ele>9.1</ele><time>2021-02-17T11:14:55Z</time><name>PT2735</name></trkpt>
<trkpt lat="53.446562" lon="05.622260"><ele>9.2</ele><time>2021-02-17T11:14:56Z</time><name>PT2736</name></trkpt>
<trkpt lat="53.446563" lon="05.622276"><ele>9.3</ele><time>2021-02-17T11:14:57Z</time><name>PT2737</name></trkpt>
<trkpt lat="53.446558" lon="05.622294"><ele>9</ele><time>2021-02-17T11:14:58Z</time><name>PT2738</name></trkpt>
<trkpt lat="53.446560" lon="05.622310"><ele>8.9</ele><time>2021-02-17T11:14:59Z</time><name>PT2739</name></trkpt>
<trkpt lat="53.446563" lon="05.622320"><ele>8.9</ele><time>2021-02-17T11:15:00Z</time><name>PT2740</name></trkpt>
<trkpt lat="53.446564" lon="05.622330"><ele>8.8</ele><time>2021-02-17T11:15:01Z</time><name>PT2741</name></trkpt>
<trkpt lat="53.446567" lon="05.622342"><ele>8.7</ele><time>2021-02-17T11:15:02Z</time><name>PT2742</name></trkpt>
<trkpt lat="53.446571" lon="05.622356"><ele>8.6</ele><time>2021-02-17T11:15:03Z</time><name>PT2743</name></trkpt>
<trkpt lat="53.446574" lon="05.622366"><ele>8.6</ele><time>2021-02-17T11:15:04Z</time><name>PT2744</name></trkpt>
<trkpt lat="53.446573" lon="05.622385"><ele>8.8</ele><time>2021-02-17T11:15:05Z</time><name>PT2745</name></trkpt>
<trkpt lat="53.446577" lon="05.622396"><ele>8.8</ele><time>2021-02-17T11:15:06Z</time><name>PT2746</name></trkpt>
<trkpt lat="53.446578" lon="05.622409"><ele>8.9</ele><time>2021-02-17T11:15:07Z</time><name>PT2747</name></trkpt>
<trkpt lat="53.446579" lon="05.622424"><ele>9.2</ele><time>2021-02-17T11:15:08Z</time><name>PT2748</name></trkpt>
<trkpt lat="53.446582" lon="05.622435"><ele>9.1</ele><time>2021-02-17T11:15:09Z</time><name>PT2749</name></trkpt>
<trkpt lat="53.446586" lon="05.622447"><ele>9.2</ele><time>2021-02-17T11:15:10Z</time><name>PT2750</name></trkpt>
<trkpt lat="53.446592" lon="05.622457"><ele>9.2</ele><time>2021-02-17T11:15:11Z</time><name>PT2751</name></trkpt>
<trkpt lat="53.446594" lon="05.622479"><ele>9.3</ele><time>2021-02-17T11:15:12Z</time><name>PT2752</name></trkpt>
<trkpt lat="53.446598" lon="05.622491"><ele>9.3</ele><time>2021-02-17T11:15:13Z</time><name>PT2753</name></trkpt>
<trkpt lat="53.446605" lon="05.622497"><ele>9.3</ele><time>2021-02-17T11:15:14Z</time><name>PT2754</name></trkpt>
<trkpt lat="53.446609" lon="05.622509"><ele>9.4</ele><time>2021-02-17T11:15:15Z</time><name>PT2755</name></trkpt>
<trkpt lat="53.446615" lon="05.622522"><ele>9.3</ele><time>2021-02-17T11:15:16Z</time><name>PT2756</name></trkpt>
<trkpt lat="53.446619" lon="05.622533"><ele>9.4</ele><time>2021-02-17T11:15:17Z</time><name>PT2757</name></trkpt>
<trkpt lat="53.446619" lon="05.622545"><ele>9.3</ele><time>2021-02-17T11:15:18Z</time><name>PT2758</name></trkpt>
<trkpt lat="53.446621" lon="05.622558"><ele>9.3</ele><time>2021-02-17T11:15:19Z</time><name>PT2759</name></trkpt>
<trkpt lat="53.446631" lon="05.622569"><ele>9.3</ele><time>2021-02-17T11:15:20Z</time><name>PT2760</name></trkpt>
<trkpt lat="53.446637" lon="05.622582"><ele>9.3</ele><time>2021-02-17T11:15:21Z</time><name>PT2761</name></trkpt>
<trkpt lat="53.446640" lon="05.622589"><ele>9.3</ele><time>2021-02-17T11:15:22Z</time><name>PT2762</name></trkpt>
<trkpt lat="53.446643" lon="05.622596"><ele>9.3</ele><time>2021-02-17T11:15:23Z</time><name>PT2763</name></trkpt>
<trkpt lat="53.446647" lon="05.622607"><ele>9.3</ele><time>2021-02-17T11:15:24Z</time><name>PT2764</name></trkpt>
<trkpt lat="53.446652" lon="05.622617"><ele>9.5</ele><time>2021-02-17T11:15:25Z</time><name>PT2765</name></trkpt>
<trkpt lat="53.446654" lon="05.622626"><ele>9.4</ele><time>2021-02-17T11:15:26Z</time><name>PT2766</name></trkpt>
<trkpt lat="53.446653" lon="05.622630"><ele>9.4</ele><time>2021-02-17T11:15:27Z</time><name>PT2767</name></trkpt>
<trkpt lat="53.446657" lon="05.622638"><ele>9.5</ele><time>2021-02-17T11:15:28Z</time><name>PT2768</name></trkpt>
<trkpt lat="53.446665" lon="05.622645"><ele>9.6</ele><time>2021-02-17T11:15:29Z</time><name>PT2769</name></trkpt>
<trkpt lat="53.446674" lon="05.622648"><ele>9.6</ele><time>2021-02-17T11:15:30Z</time><name>PT2770</name></trkpt>
<trkpt lat="53.446683" lon="05.622654"><ele>9.5</ele><time>2021-02-17T11:15:31Z</time><name>PT2771</name></trkpt>
<trkpt lat="53.446694" lon="05.622662"><ele>9.6</ele><time>2021-02-17T11:15:33Z</time><name>PT2772</name></trkpt>
<trkpt lat="53.446701" lon="05.622669"><ele>9.5</ele><time>2021-02-17T11:15:33Z</time><name>PT2773</name></trkpt>
<trkpt lat="53.446721" lon="05.622667"><ele>9.4</ele><time>2021-02-17T11:15:34Z</time><name>PT2774</name></trkpt>
<trkpt lat="53.446728" lon="05.622677"><ele>9.5</ele><time>2021-02-17T11:15:35Z</time><name>PT2775</name></trkpt>
<trkpt lat="53.446745" lon="05.622682"><ele>9.5</ele><time>2021-02-17T11:15:36Z</time><name>PT2776</name></trkpt>
<trkpt lat="53.446753" lon="05.622688"><ele>9.5</ele><time>2021-02-17T11:15:37Z</time><name>PT2777</name></trkpt>
<trkpt lat="53.446760" lon="05.622693"><ele>9.7</ele><time>2021-02-17T11:15:38Z</time><name>PT2778</name></trkpt>
<trkpt lat="53.446771" lon="05.622700"><ele>9.5</ele><time>2021-02-17T11:15:39Z</time><name>PT2779</name></trkpt>
<trkpt lat="53.446781" lon="05.622706"><ele>9.6</ele><time>2021-02-17T11:15:40Z</time><name>PT2780</name></trkpt>
<trkpt lat="53.446790" lon="05.622716"><ele>9.7</ele><time>2021-02-17T11:15:41Z</time><name>PT2781</name></trkpt>
<trkpt lat="53.446797" lon="05.622729"><ele>9.6</ele><time>2021-02-17T11:15:42Z</time><name>PT2782</name></trkpt>
<trkpt lat="53.446806" lon="05.622744"><ele>9.5</ele><time>2021-02-17T11:15:43Z</time><name>PT2783</name></trkpt>
<trkpt lat="53.446813" lon="05.622757"><ele>9.5</ele><time>2021-02-17T11:15:44Z</time><name>PT2784</name></trkpt>
<trkpt lat="53.446820" lon="05.622767"><ele>9.5</ele><time>2021-02-17T11:15:45Z</time><name>PT2785</name></trkpt>
<trkpt lat="53.446832" lon="05.622779"><ele>9.6</ele><time>2021-02-17T11:15:46Z</time><name>PT2786</name></trkpt>
<trkpt lat="53.446840" lon="05.622796"><ele>9.7</ele><time>2021-02-17T11:15:47Z</time><name>PT2787</name></trkpt>
<trkpt lat="53.446852" lon="05.622809"><ele>9.6</ele><time>2021-02-17T11:15:48Z</time><name>PT2788</name></trkpt>
<trkpt lat="53.446861" lon="05.622822"><ele>9.5</ele><time>2021-02-17T11:15:49Z</time><name>PT2789</name></trkpt>
<trkpt lat="53.446871" lon="05.622838"><ele>9.3</ele><time>2021-02-17T11:15:50Z</time><name>PT2790</name></trkpt>
<trkpt lat="53.446879" lon="05.622854"><ele>9.3</ele><time>2021-02-17T11:15:51Z</time><name>PT2791</name></trkpt>
<trkpt lat="53.446885" lon="05.622871"><ele>9.2</ele><time>2021-02-17T11:15:52Z</time><name>PT2792</name></trkpt>
<trkpt lat="53.446887" lon="05.622886"><ele>9.3</ele><time>2021-02-17T11:15:53Z</time><name>PT2793</name></trkpt>
<trkpt lat="53.446892" lon="05.622902"><ele>9.3</ele><time>2021-02-17T11:15:54Z</time><name>PT2794</name></trkpt>
<trkpt lat="53.446899" lon="05.622918"><ele>9.3</ele><time>2021-02-17T11:15:55Z</time><name>PT2795</name></trkpt>
<trkpt lat="53.446902" lon="05.622931"><ele>9.3</ele><time>2021-02-17T11:15:56Z</time><name>PT2796</name></trkpt>
<trkpt lat="53.446907" lon="05.622946"><ele>9.3</ele><time>2021-02-17T11:15:57Z</time><name>PT2797</name></trkpt>
<trkpt lat="53.446914" lon="05.622960"><ele>9.3</ele><time>2021-02-17T11:15:58Z</time><name>PT2798</name></trkpt>
<trkpt lat="53.446919" lon="05.622973"><ele>9.6</ele><time>2021-02-17T11:15:59Z</time><name>PT2799</name></trkpt>
<trkpt lat="53.446929" lon="05.622984"><ele>9.5</ele><time>2021-02-17T11:16:00Z</time><name>PT2800</name></trkpt>
<trkpt lat="53.446941" lon="05.622997"><ele>9.5</ele><time>2021-02-17T11:16:01Z</time><name>PT2801</name></trkpt>
<trkpt lat="53.446949" lon="05.623011"><ele>9.5</ele><time>2021-02-17T11:16:02Z</time><name>PT2802</name></trkpt>
<trkpt lat="53.446956" lon="05.623024"><ele>9.4</ele><time>2021-02-17T11:16:03Z</time><name>PT2803</name></trkpt>
<trkpt lat="53.446962" lon="05.623037"><ele>9.4</ele><time>2021-02-17T11:16:04Z</time><name>PT2804</name></trkpt>
<trkpt lat="53.446967" lon="05.623051"><ele>9.6</ele><time>2021-02-17T11:16:05Z</time><name>PT2805</name></trkpt>
<trkpt lat="53.446977" lon="05.623059"><ele>9.7</ele><time>2021-02-17T11:16:06Z</time><name>PT2806</name></trkpt>
<trkpt lat="53.446980" lon="05.623060"><ele>9.6</ele><time>2021-02-17T11:16:07Z</time><name>PT2807</name></trkpt>
<trkpt lat="53.446982" lon="05.623066"><ele>9.7</ele><time>2021-02-17T11:16:08Z</time><name>PT2808</name></trkpt>
<trkpt lat="53.447000" lon="05.623091"><ele>9.8</ele><time>2021-02-17T11:16:16Z</time><name>PT2809</name></trkpt>
<trkpt lat="53.447009" lon="05.623101"><ele>9.7</ele><time>2021-02-17T11:16:17Z</time><name>PT2810</name></trkpt>
<trkpt lat="53.447014" lon="05.623099"><ele>9.7</ele><time>2021-02-17T11:16:18Z</time><name>PT2811</name></trkpt>
<trkpt lat="53.447017" lon="05.623097"><ele>9.7</ele><time>2021-02-17T11:16:19Z</time><name>PT2812</name></trkpt>
<trkpt lat="53.447018" lon="05.623104"><ele>9.7</ele><time>2021-02-17T11:16:21Z</time><name>PT2813</name></trkpt>
<trkpt lat="53.447022" lon="05.623125"><ele>9.7</ele><time>2021-02-17T11:16:22Z</time><name>PT2814</name></trkpt>
<trkpt lat="53.447027" lon="05.623142"><ele>9.6</ele><time>2021-02-17T11:16:23Z</time><name>PT2815</name></trkpt>
<trkpt lat="53.447033" lon="05.623151"><ele>9.5</ele><time>2021-02-17T11:16:24Z</time><name>PT2816</name></trkpt>
<trkpt lat="53.447035" lon="05.623165"><ele>9.3</ele><time>2021-02-17T11:16:25Z</time><name>PT2817</name></trkpt>
<trkpt lat="53.447035" lon="05.623176"><ele>9.3</ele><time>2021-02-17T11:16:26Z</time><name>PT2818</name></trkpt>
<trkpt lat="53.447039" lon="05.623187"><ele>9.3</ele><time>2021-02-17T11:16:27Z</time><name>PT2819</name></trkpt>
<trkpt lat="53.447046" lon="05.623199"><ele>9.4</ele><time>2021-02-17T11:16:28Z</time><name>PT2820</name></trkpt>
<trkpt lat="53.447049" lon="05.623217"><ele>9.5</ele><time>2021-02-17T11:16:29Z</time><name>PT2821</name></trkpt>
<trkpt lat="53.447052" lon="05.623232"><ele>9.5</ele><time>2021-02-17T11:16:30Z</time><name>PT2822</name></trkpt>
<trkpt lat="53.447055" lon="05.623248"><ele>9.5</ele><time>2021-02-17T11:16:31Z</time><name>PT2823</name></trkpt>
<trkpt lat="53.447053" lon="05.623264"><ele>9.5</ele><time>2021-02-17T11:16:32Z</time><name>PT2824</name></trkpt>
<trkpt lat="53.447056" lon="05.623279"><ele>9.4</ele><time>2021-02-17T11:16:33Z</time><name>PT2825</name></trkpt>
<trkpt lat="53.447062" lon="05.623294"><ele>9.3</ele><time>2021-02-17T11:16:34Z</time><name>PT2826</name></trkpt>
<trkpt lat="53.447065" lon="05.623307"><ele>9.4</ele><time>2021-02-17T11:16:35Z</time><name>PT2827</name></trkpt>
<trkpt lat="53.447061" lon="05.623325"><ele>9.3</ele><time>2021-02-17T11:16:36Z</time><name>PT2828</name></trkpt>
<trkpt lat="53.447063" lon="05.623340"><ele>9.3</ele><time>2021-02-17T11:16:37Z</time><name>PT2829</name></trkpt>
<trkpt lat="53.447064" lon="05.623356"><ele>9.3</ele><time>2021-02-17T11:16:38Z</time><name>PT2830</name></trkpt>
<trkpt lat="53.447069" lon="05.623372"><ele>9.4</ele><time>2021-02-17T11:16:39Z</time><name>PT2831</name></trkpt>
<trkpt lat="53.447071" lon="05.623391"><ele>9.4</ele><time>2021-02-17T11:16:40Z</time><name>PT2832</name></trkpt>
<trkpt lat="53.447076" lon="05.623408"><ele>9.3</ele><time>2021-02-17T11:16:41Z</time><name>PT2833</name></trkpt>
<trkpt lat="53.447079" lon="05.623424"><ele>9.3</ele><time>2021-02-17T11:16:42Z</time><name>PT2834</name></trkpt>
<trkpt lat="53.447084" lon="05.623442"><ele>9.3</ele><time>2021-02-17T11:16:43Z</time><name>PT2835</name></trkpt>
<trkpt lat="53.447085" lon="05.623458"><ele>9.3</ele><time>2021-02-17T11:16:44Z</time><name>PT2836</name></trkpt>
<trkpt lat="53.447086" lon="05.623472"><ele>9.4</ele><time>2021-02-17T11:16:45Z</time><name>PT2837</name></trkpt>
<trkpt lat="53.447085" lon="05.623487"><ele>9.6</ele><time>2021-02-17T11:16:46Z</time><name>PT2838</name></trkpt>
<trkpt lat="53.447086" lon="05.623504"><ele>9.7</ele><time>2021-02-17T11:16:47Z</time><name>PT2839</name></trkpt>
<trkpt lat="53.447087" lon="05.623520"><ele>9.9</ele><time>2021-02-17T11:16:48Z</time><name>PT2840</name></trkpt>
<trkpt lat="53.447090" lon="05.623536"><ele>9.7</ele><time>2021-02-17T11:16:49Z</time><name>PT2841</name></trkpt>
<trkpt lat="53.447094" lon="05.623554"><ele>9.8</ele><time>2021-02-17T11:16:50Z</time><name>PT2842</name></trkpt>
<trkpt lat="53.447096" lon="05.623570"><ele>9.7</ele><time>2021-02-17T11:16:51Z</time><name>PT2843</name></trkpt>
<trkpt lat="53.447098" lon="05.623588"><ele>9.6</ele><time>2021-02-17T11:16:52Z</time><name>PT2844</name></trkpt>
<trkpt lat="53.447099" lon="05.623610"><ele>9.5</ele><time>2021-02-17T11:16:53Z</time><name>PT2845</name></trkpt>
<trkpt lat="53.447103" lon="05.623630"><ele>9.5</ele><time>2021-02-17T11:16:54Z</time><name>PT2846</name></trkpt>
<trkpt lat="53.447106" lon="05.623651"><ele>9.5</ele><time>2021-02-17T11:16:55Z</time><name>PT2847</name></trkpt>
<trkpt lat="53.447108" lon="05.623668"><ele>9.7</ele><time>2021-02-17T11:16:56Z</time><name>PT2848</name></trkpt>
<trkpt lat="53.447112" lon="05.623685"><ele>9.5</ele><time>2021-02-17T11:16:57Z</time><name>PT2849</name></trkpt>
<trkpt lat="53.447112" lon="05.623703"><ele>9.4</ele><time>2021-02-17T11:16:58Z</time><name>PT2850</name></trkpt>
<trkpt lat="53.447113" lon="05.623716"><ele>9.3</ele><time>2021-02-17T11:17:00Z</time><name>PT2851</name></trkpt>
<trkpt lat="53.447114" lon="05.623732"><ele>9.3</ele><time>2021-02-17T11:17:00Z</time><name>PT2852</name></trkpt>
<trkpt lat="53.447111" lon="05.623748"><ele>9.3</ele><time>2021-02-17T11:17:01Z</time><name>PT2853</name></trkpt>
<trkpt lat="53.447109" lon="05.623771"><ele>9.3</ele><time>2021-02-17T11:17:02Z</time><name>PT2854</name></trkpt>
<trkpt lat="53.447109" lon="05.623784"><ele>9.4</ele><time>2021-02-17T11:17:03Z</time><name>PT2855</name></trkpt>
<trkpt lat="53.447112" lon="05.623799"><ele>9.5</ele><time>2021-02-17T11:17:04Z</time><name>PT2856</name></trkpt>
<trkpt lat="53.447113" lon="05.623816"><ele>9.6</ele><time>2021-02-17T11:17:05Z</time><name>PT2857</name></trkpt>
<trkpt lat="53.447112" lon="05.623830"><ele>9.6</ele><time>2021-02-17T11:17:06Z</time><name>PT2858</name></trkpt>
<trkpt lat="53.447114" lon="05.623846"><ele>9.7</ele><time>2021-02-17T11:17:07Z</time><name>PT2859</name></trkpt>
<trkpt lat="53.447116" lon="05.623861"><ele>9.9</ele><time>2021-02-17T11:17:08Z</time><name>PT2860</name></trkpt>
<trkpt lat="53.447120" lon="05.623876"><ele>9.9</ele><time>2021-02-17T11:17:09Z</time><name>PT2861</name></trkpt>
<trkpt lat="53.447121" lon="05.623891"><ele>10</ele><time>2021-02-17T11:17:10Z</time><name>PT2862</name></trkpt>
<trkpt lat="53.447121" lon="05.623903"><ele>10.2</ele><time>2021-02-17T11:17:11Z</time><name>PT2863</name></trkpt>
<trkpt lat="53.447122" lon="05.623914"><ele>10.1</ele><time>2021-02-17T11:17:12Z</time><name>PT2864</name></trkpt>
<trkpt lat="53.447128" lon="05.623927"><ele>10.2</ele><time>2021-02-17T11:17:13Z</time><name>PT2865</name></trkpt>
<trkpt lat="53.447134" lon="05.623947"><ele>10.3</ele><time>2021-02-17T11:17:14Z</time><name>PT2866</name></trkpt>
<trkpt lat="53.447146" lon="05.623972"><ele>10.4</ele><time>2021-02-17T11:17:15Z</time><name>PT2867</name></trkpt>
<trkpt lat="53.447149" lon="05.623987"><ele>10.4</ele><time>2021-02-17T11:17:16Z</time><name>PT2868</name></trkpt>
<trkpt lat="53.447152" lon="05.624001"><ele>10.5</ele><time>2021-02-17T11:17:17Z</time><name>PT2869</name></trkpt>
<trkpt lat="53.447157" lon="05.624012"><ele>10.6</ele><time>2021-02-17T11:17:18Z</time><name>PT2870</name></trkpt>
<trkpt lat="53.447161" lon="05.624027"><ele>10.7</ele><time>2021-02-17T11:17:19Z</time><name>PT2871</name></trkpt>
<trkpt lat="53.447170" lon="05.624045"><ele>10.7</ele><time>2021-02-17T11:17:20Z</time><name>PT2872</name></trkpt>
<trkpt lat="53.447172" lon="05.624061"><ele>10.7</ele><time>2021-02-17T11:17:21Z</time><name>PT2873</name></trkpt>
<trkpt lat="53.447174" lon="05.624077"><ele>10.9</ele><time>2021-02-17T11:17:22Z</time><name>PT2874</name></trkpt>
<trkpt lat="53.447176" lon="05.624099"><ele>11.2</ele><time>2021-02-17T11:17:23Z</time><name>PT2875</name></trkpt>
<trkpt lat="53.447175" lon="05.624113"><ele>11.4</ele><time>2021-02-17T11:17:24Z</time><name>PT2876</name></trkpt>
<trkpt lat="53.447173" lon="05.624128"><ele>11.6</ele><time>2021-02-17T11:17:25Z</time><name>PT2877</name></trkpt>
<trkpt lat="53.447172" lon="05.624142"><ele>11.7</ele><time>2021-02-17T11:17:26Z</time><name>PT2878</name></trkpt>
<trkpt lat="53.447164" lon="05.624153"><ele>11.7</ele><time>2021-02-17T11:17:27Z</time><name>PT2879</name></trkpt>
<trkpt lat="53.447163" lon="05.624169"><ele>11.7</ele><time>2021-02-17T11:17:28Z</time><name>PT2880</name></trkpt>
<trkpt lat="53.447163" lon="05.624185"><ele>11.8</ele><time>2021-02-17T11:17:29Z</time><name>PT2881</name></trkpt>
<trkpt lat="53.447166" lon="05.624198"><ele>11.9</ele><time>2021-02-17T11:17:30Z</time><name>PT2882</name></trkpt>
<trkpt lat="53.447166" lon="05.624211"><ele>11.9</ele><time>2021-02-17T11:17:31Z</time><name>PT2883</name></trkpt>
<trkpt lat="53.447166" lon="05.624222"><ele>12.1</ele><time>2021-02-17T11:17:32Z</time><name>PT2884</name></trkpt>
<trkpt lat="53.447165" lon="05.624235"><ele>12.1</ele><time>2021-02-17T11:17:33Z</time><name>PT2885</name></trkpt>
<trkpt lat="53.447165" lon="05.624248"><ele>12.2</ele><time>2021-02-17T11:17:34Z</time><name>PT2886</name></trkpt>
<trkpt lat="53.447166" lon="05.624256"><ele>12.6</ele><time>2021-02-17T11:17:35Z</time><name>PT2887</name></trkpt>
<trkpt lat="53.447170" lon="05.624266"><ele>12.6</ele><time>2021-02-17T11:17:36Z</time><name>PT2888</name></trkpt>
<trkpt lat="53.447175" lon="05.624280"><ele>12.6</ele><time>2021-02-17T11:17:37Z</time><name>PT2889</name></trkpt>
<trkpt lat="53.447179" lon="05.624291"><ele>12.7</ele><time>2021-02-17T11:17:38Z</time><name>PT2890</name></trkpt>
<trkpt lat="53.447184" lon="05.624296"><ele>12.8</ele><time>2021-02-17T11:17:39Z</time><name>PT2891</name></trkpt>
<trkpt lat="53.447189" lon="05.624303"><ele>12.8</ele><time>2021-02-17T11:17:40Z</time><name>PT2892</name></trkpt>
<trkpt lat="53.447194" lon="05.624310"><ele>12.9</ele><time>2021-02-17T11:17:41Z</time><name>PT2893</name></trkpt>
<trkpt lat="53.447198" lon="05.624316"><ele>13</ele><time>2021-02-17T11:17:42Z</time><name>PT2894</name></trkpt>
<trkpt lat="53.447202" lon="05.624323"><ele>12.8</ele><time>2021-02-17T11:17:43Z</time><name>PT2895</name></trkpt>
<trkpt lat="53.447200" lon="05.624329"><ele>13.1</ele><time>2021-02-17T11:17:44Z</time><name>PT2896</name></trkpt>
<trkpt lat="53.447208" lon="05.624330"><ele>13</ele><time>2021-02-17T11:17:45Z</time><name>PT2897</name></trkpt>
<trkpt lat="53.447212" lon="05.624333"><ele>13.1</ele><time>2021-02-17T11:17:46Z</time><name>PT2898</name></trkpt>
<trkpt lat="53.447217" lon="05.624339"><ele>13</ele><time>2021-02-17T11:17:47Z</time><name>PT2899</name></trkpt>
<trkpt lat="53.447223" lon="05.624347"><ele>13</ele><time>2021-02-17T11:17:48Z</time><name>PT2900</name></trkpt>
<trkpt lat="53.447226" lon="05.624349"><ele>13.1</ele><time>2021-02-17T11:17:49Z</time><name>PT2901</name></trkpt>
<trkpt lat="53.447229" lon="05.624349"><ele>13.3</ele><time>2021-02-17T11:17:50Z</time><name>PT2902</name></trkpt>
<trkpt lat="53.447236" lon="05.624347"><ele>13.4</ele><time>2021-02-17T11:17:51Z</time><name>PT2903</name></trkpt>
<trkpt lat="53.447242" lon="05.624346"><ele>13.6</ele><time>2021-02-17T11:17:52Z</time><name>PT2904</name></trkpt>
<trkpt lat="53.447247" lon="05.624349"><ele>13.6</ele><time>2021-02-17T11:17:53Z</time><name>PT2905</name></trkpt>
<trkpt lat="53.447251" lon="05.624350"><ele>13.7</ele><time>2021-02-17T11:17:54Z</time><name>PT2906</name></trkpt>
<trkpt lat="53.447255" lon="05.624346"><ele>13.7</ele><time>2021-02-17T11:17:55Z</time><name>PT2907</name></trkpt>
<trkpt lat="53.447260" lon="05.624342"><ele>13.7</ele><time>2021-02-17T11:17:56Z</time><name>PT2908</name></trkpt>
<trkpt lat="53.447264" lon="05.624335"><ele>13.7</ele><time>2021-02-17T11:17:57Z</time><name>PT2909</name></trkpt>
<trkpt lat="53.447269" lon="05.624331"><ele>14</ele><time>2021-02-17T11:17:58Z</time><name>PT2910</name></trkpt>
<trkpt lat="53.447279" lon="05.624324"><ele>14.1</ele><time>2021-02-17T11:17:59Z</time><name>PT2911</name></trkpt>
<trkpt lat="53.447283" lon="05.624317"><ele>14.2</ele><time>2021-02-17T11:18:00Z</time><name>PT2912</name></trkpt>
<trkpt lat="53.447287" lon="05.624314"><ele>14.4</ele><time>2021-02-17T11:18:01Z</time><name>PT2913</name></trkpt>
<trkpt lat="53.447291" lon="05.624312"><ele>14.5</ele><time>2021-02-17T11:18:02Z</time><name>PT2914</name></trkpt>
<trkpt lat="53.447297" lon="05.624308"><ele>14.6</ele><time>2021-02-17T11:18:03Z</time><name>PT2915</name></trkpt>
<trkpt lat="53.447302" lon="05.624302"><ele>14.6</ele><time>2021-02-17T11:18:04Z</time><name>PT2916</name></trkpt>
<trkpt lat="53.447309" lon="05.624298"><ele>14.7</ele><time>2021-02-17T11:18:05Z</time><name>PT2917</name></trkpt>
<trkpt lat="53.447313" lon="05.624293"><ele>14.9</ele><time>2021-02-17T11:18:06Z</time><name>PT2918</name></trkpt>
<trkpt lat="53.447315" lon="05.624287"><ele>14.9</ele><time>2021-02-17T11:18:07Z</time><name>PT2919</name></trkpt>
<trkpt lat="53.447319" lon="05.624281"><ele>15.1</ele><time>2021-02-17T11:18:08Z</time><name>PT2920</name></trkpt>
<trkpt lat="53.447323" lon="05.624276"><ele>15.1</ele><time>2021-02-17T11:18:09Z</time><name>PT2921</name></trkpt>
<trkpt lat="53.447331" lon="05.624270"><ele>15.1</ele><time>2021-02-17T11:18:10Z</time><name>PT2922</name></trkpt>
<trkpt lat="53.447338" lon="05.624266"><ele>15.3</ele><time>2021-02-17T11:18:11Z</time><name>PT2923</name></trkpt>
<trkpt lat="53.447343" lon="05.624261"><ele>15.5</ele><time>2021-02-17T11:18:12Z</time><name>PT2924</name></trkpt>
<trkpt lat="53.447352" lon="05.624255"><ele>15.6</ele><time>2021-02-17T11:18:13Z</time><name>PT2925</name></trkpt>
<trkpt lat="53.447358" lon="05.624247"><ele>15.4</ele><time>2021-02-17T11:18:14Z</time><name>PT2926</name></trkpt>
<trkpt lat="53.447363" lon="05.624244"><ele>15.4</ele><time>2021-02-17T11:18:15Z</time><name>PT2927</name></trkpt>
<trkpt lat="53.447369" lon="05.624240"><ele>15.2</ele><time>2021-02-17T11:18:16Z</time><name>PT2928</name></trkpt>
<trkpt lat="53.447378" lon="05.624240"><ele>15.1</ele><time>2021-02-17T11:18:17Z</time><name>PT2929</name></trkpt>
<trkpt lat="53.447385" lon="05.624235"><ele>15.1</ele><time>2021-02-17T11:18:18Z</time><name>PT2930</name></trkpt>
<trkpt lat="53.447390" lon="05.624230"><ele>15.1</ele><time>2021-02-17T11:18:19Z</time><name>PT2931</name></trkpt>
<trkpt lat="53.447400" lon="05.624223"><ele>14.9</ele><time>2021-02-17T11:18:20Z</time><name>PT2932</name></trkpt>
<trkpt lat="53.447412" lon="05.624215"><ele>14.8</ele><time>2021-02-17T11:18:21Z</time><name>PT2933</name></trkpt>
<trkpt lat="53.447418" lon="05.624206"><ele>14.6</ele><time>2021-02-17T11:18:22Z</time><name>PT2934</name></trkpt>
<trkpt lat="53.447423" lon="05.624197"><ele>14.5</ele><time>2021-02-17T11:18:24Z</time><name>PT2935</name></trkpt>
<trkpt lat="53.447430" lon="05.624189"><ele>14.5</ele><time>2021-02-17T11:18:24Z</time><name>PT2936</name></trkpt>
<trkpt lat="53.447439" lon="05.624181"><ele>14.5</ele><time>2021-02-17T11:18:25Z</time><name>PT2937</name></trkpt>
<trkpt lat="53.447444" lon="05.624170"><ele>14.6</ele><time>2021-02-17T11:18:26Z</time><name>PT2938</name></trkpt>
<trkpt lat="53.447453" lon="05.624167"><ele>14.6</ele><time>2021-02-17T11:18:27Z</time><name>PT2939</name></trkpt>
<trkpt lat="53.447463" lon="05.624161"><ele>14.6</ele><time>2021-02-17T11:18:28Z</time><name>PT2940</name></trkpt>
<trkpt lat="53.447472" lon="05.624157"><ele>14.9</ele><time>2021-02-17T11:18:30Z</time><name>PT2941</name></trkpt>
<trkpt lat="53.447480" lon="05.624150"><ele>14.9</ele><time>2021-02-17T11:18:30Z</time><name>PT2942</name></trkpt>
<trkpt lat="53.447487" lon="05.624150"><ele>15.1</ele><time>2021-02-17T11:18:31Z</time><name>PT2943</name></trkpt>
<trkpt lat="53.447492" lon="05.624146"><ele>15.3</ele><time>2021-02-17T11:18:32Z</time><name>PT2944</name></trkpt>
<trkpt lat="53.447496" lon="05.624140"><ele>15.3</ele><time>2021-02-17T11:18:33Z</time><name>PT2945</name></trkpt>
<trkpt lat="53.447501" lon="05.624131"><ele>15.3</ele><time>2021-02-17T11:18:34Z</time><name>PT2946</name></trkpt>
<trkpt lat="53.447504" lon="05.624124"><ele>15.4</ele><time>2021-02-17T11:18:35Z</time><name>PT2947</name></trkpt>
<trkpt lat="53.447507" lon="05.624118"><ele>15.2</ele><time>2021-02-17T11:18:36Z</time><name>PT2948</name></trkpt>
<trkpt lat="53.447511" lon="05.624119"><ele>15.3</ele><time>2021-02-17T11:18:38Z</time><name>PT2949</name></trkpt>
<trkpt lat="53.447518" lon="05.624108"><ele>15.3</ele><time>2021-02-17T11:18:39Z</time><name>PT2950</name></trkpt>
<trkpt lat="53.447524" lon="05.624100"><ele>15.4</ele><time>2021-02-17T11:18:40Z</time><name>PT2951</name></trkpt>
<trkpt lat="53.447536" lon="05.624066"><ele>14.8</ele><time>2021-02-17T11:19:27Z</time><name>PT2952</name></trkpt>
<trkpt lat="53.447538" lon="05.624056"><ele>14.9</ele><time>2021-02-17T11:19:28Z</time><name>PT2953</name></trkpt>
<trkpt lat="53.447539" lon="05.624052"><ele>14.8</ele><time>2021-02-17T11:19:29Z</time><name>PT2954</name></trkpt>
<trkpt lat="53.447542" lon="05.624046"><ele>14.7</ele><time>2021-02-17T11:19:30Z</time><name>PT2955</name></trkpt>
<trkpt lat="53.447542" lon="05.624042"><ele>14.8</ele><time>2021-02-17T11:19:31Z</time><name>PT2956</name></trkpt>
<trkpt lat="53.447545" lon="05.624039"><ele>14.7</ele><time>2021-02-17T11:19:32Z</time><name>PT2957</name></trkpt>
<trkpt lat="53.447547" lon="05.624034"><ele>14.7</ele><time>2021-02-17T11:19:33Z</time><name>PT2958</name></trkpt>
<trkpt lat="53.447553" lon="05.624039"><ele>15</ele><time>2021-02-17T11:19:34Z</time><name>PT2959</name></trkpt>
<trkpt lat="53.447555" lon="05.624042"><ele>15.2</ele><time>2021-02-17T11:19:35Z</time><name>PT2960</name></trkpt>
<trkpt lat="53.447581" lon="05.624030"><ele>15.2</ele><time>2021-02-17T11:21:49Z</time><name>PT2961</name></trkpt>
<trkpt lat="53.447585" lon="05.624039"><ele>15.1</ele><time>2021-02-17T11:21:50Z</time><name>PT2962</name></trkpt>
<trkpt lat="53.447588" lon="05.624041"><ele>15</ele><time>2021-02-17T11:21:51Z</time><name>PT2963</name></trkpt>
<trkpt lat="53.447590" lon="05.624042"><ele>14.9</ele><time>2021-02-17T11:21:52Z</time><name>PT2964</name></trkpt>
<trkpt lat="53.447596" lon="05.624040"><ele>15.1</ele><time>2021-02-17T11:21:59Z</time><name>PT2965</name></trkpt>
<trkpt lat="53.447609" lon="05.624028"><ele>15.1</ele><time>2021-02-17T11:22:00Z</time><name>PT2966</name></trkpt>
<trkpt lat="53.447615" lon="05.624032"><ele>15.1</ele><time>2021-02-17T11:22:01Z</time><name>PT2967</name></trkpt>
<trkpt lat="53.447623" lon="05.624038"><ele>15.3</ele><time>2021-02-17T11:22:02Z</time><name>PT2968</name></trkpt>
<trkpt lat="53.447623" lon="05.624051"><ele>15.2</ele><time>2021-02-17T11:22:03Z</time><name>PT2969</name></trkpt>
<trkpt lat="53.447624" lon="05.624057"><ele>15.2</ele><time>2021-02-17T11:22:04Z</time><name>PT2970</name></trkpt>
<trkpt lat="53.447624" lon="05.624062"><ele>15</ele><time>2021-02-17T11:22:05Z</time><name>PT2971</name></trkpt>
<trkpt lat="53.447624" lon="05.624065"><ele>15</ele><time>2021-02-17T11:22:06Z</time><name>PT2972</name></trkpt>
<trkpt lat="53.447630" lon="05.624061"><ele>14.4</ele><time>2021-02-17T11:22:12Z</time><name>PT2973</name></trkpt>
<trkpt lat="53.447635" lon="05.624060"><ele>14.4</ele><time>2021-02-17T11:22:13Z</time><name>PT2974</name></trkpt>
<trkpt lat="53.447640" lon="05.624059"><ele>14.5</ele><time>2021-02-17T11:22:14Z</time><name>PT2975</name></trkpt>
<trkpt lat="53.447646" lon="05.624060"><ele>14.4</ele><time>2021-02-17T11:22:15Z</time><name>PT2976</name></trkpt>
<trkpt lat="53.447648" lon="05.624059"><ele>14.4</ele><time>2021-02-17T11:22:16Z</time><name>PT2977</name></trkpt>
<trkpt lat="53.447653" lon="05.624055"><ele>14.1</ele><time>2021-02-17T11:22:17Z</time><name>PT2978</name></trkpt>
<trkpt lat="53.447660" lon="05.624052"><ele>14.1</ele><time>2021-02-17T11:22:18Z</time><name>PT2979</name></trkpt>
<trkpt lat="53.447668" lon="05.624052"><ele>13.8</ele><time>2021-02-17T11:22:19Z</time><name>PT2980</name></trkpt>
<trkpt lat="53.447674" lon="05.624048"><ele>13.6</ele><time>2021-02-17T11:22:20Z</time><name>PT2981</name></trkpt>
<trkpt lat="53.447682" lon="05.624047"><ele>13.5</ele><time>2021-02-17T11:22:21Z</time><name>PT2982</name></trkpt>
<trkpt lat="53.447691" lon="05.624051"><ele>13.4</ele><time>2021-02-17T11:22:22Z</time><name>PT2983</name></trkpt>
<trkpt lat="53.447695" lon="05.624044"><ele>13.2</ele><time>2021-02-17T11:22:23Z</time><name>PT2984</name></trkpt>
<trkpt lat="53.447703" lon="05.624046"><ele>13.1</ele><time>2021-02-17T11:22:24Z</time><name>PT2985</name></trkpt>
<trkpt lat="53.447716" lon="05.624049"><ele>13.1</ele><time>2021-02-17T11:22:25Z</time><name>PT2986</name></trkpt>
<trkpt lat="53.447726" lon="05.624052"><ele>13.2</ele><time>2021-02-17T11:22:26Z</time><name>PT2987</name></trkpt>
<trkpt lat="53.447733" lon="05.624052"><ele>13.1</ele><time>2021-02-17T11:22:27Z</time><name>PT2988</name></trkpt>
<trkpt lat="53.447743" lon="05.624053"><ele>13.1</ele><time>2021-02-17T11:22:28Z</time><name>PT2989</name></trkpt>
<trkpt lat="53.447752" lon="05.624052"><ele>13</ele><time>2021-02-17T11:22:29Z</time><name>PT2990</name></trkpt>
<trkpt lat="53.447757" lon="05.624054"><ele>12.9</ele><time>2021-02-17T11:22:30Z</time><name>PT2991</name></trkpt>
<trkpt lat="53.447766" lon="05.624054"><ele>13.3</ele><time>2021-02-17T11:22:31Z</time><name>PT2992</name></trkpt>
<trkpt lat="53.447774" lon="05.624057"><ele>13.5</ele><time>2021-02-17T11:22:32Z</time><name>PT2993</name></trkpt>
<trkpt lat="53.447789" lon="05.624058"><ele>13.6</ele><time>2021-02-17T11:22:33Z</time><name>PT2994</name></trkpt>
<trkpt lat="53.447793" lon="05.624059"><ele>13.6</ele><time>2021-02-17T11:22:34Z</time><name>PT2995</name></trkpt>
<trkpt lat="53.447801" lon="05.624061"><ele>13.6</ele><time>2021-02-17T11:22:35Z</time><name>PT2996</name></trkpt>
<trkpt lat="53.447806" lon="05.624066"><ele>13.5</ele><time>2021-02-17T11:22:36Z</time><name>PT2997</name></trkpt>
<trkpt lat="53.447805" lon="05.624069"><ele>13.5</ele><time>2021-02-17T11:22:37Z</time><name>PT2998</name></trkpt>
<trkpt lat="53.447808" lon="05.624075"><ele>13.6</ele><time>2021-02-17T11:22:38Z</time><name>PT2999</name></trkpt>
<trkpt lat="53.447812" lon="05.624079"><ele>13.7</ele><time>2021-02-17T11:22:39Z</time><name>PT3000</name></trkpt>
<trkpt lat="53.447818" lon="05.624085"><ele>13.8</ele><time>2021-02-17T11:22:40Z</time><name>PT3001</name></trkpt>
<trkpt lat="53.447821" lon="05.624087"><ele>13.9</ele><time>2021-02-17T11:22:41Z</time><name>PT3002</name></trkpt>
<trkpt lat="53.447822" lon="05.624089"><ele>13.8</ele><time>2021-02-17T11:22:42Z</time><name>PT3003</name></trkpt>
<trkpt lat="53.447827" lon="05.624099"><ele>13.8</ele><time>2021-02-17T11:22:43Z</time><name>PT3004</name></trkpt>
<trkpt lat="53.447832" lon="05.624106"><ele>13.7</ele><time>2021-02-17T11:22:44Z</time><name>PT3005</name></trkpt>
<trkpt lat="53.447835" lon="05.624112"><ele>13.7</ele><time>2021-02-17T11:22:45Z</time><name>PT3006</name></trkpt>
<trkpt lat="53.447839" lon="05.624119"><ele>13.9</ele><time>2021-02-17T11:22:46Z</time><name>PT3007</name></trkpt>
<trkpt lat="53.447840" lon="05.624127"><ele>13.7</ele><time>2021-02-17T11:22:47Z</time><name>PT3008</name></trkpt>
<trkpt lat="53.447844" lon="05.624135"><ele>13.7</ele><time>2021-02-17T11:22:48Z</time><name>PT3009</name></trkpt>
<trkpt lat="53.447847" lon="05.624143"><ele>13.7</ele><time>2021-02-17T11:22:49Z</time><name>PT3010</name></trkpt>
<trkpt lat="53.447849" lon="05.624149"><ele>13.6</ele><time>2021-02-17T11:22:50Z</time><name>PT3011</name></trkpt>
<trkpt lat="53.447851" lon="05.624148"><ele>13.7</ele><time>2021-02-17T11:22:51Z</time><name>PT3012</name></trkpt>
<trkpt lat="53.447852" lon="05.624154"><ele>13.7</ele><time>2021-02-17T11:22:52Z</time><name>PT3013</name></trkpt>
<trkpt lat="53.447851" lon="05.624156"><ele>13.6</ele><time>2021-02-17T11:22:54Z</time><name>PT3014</name></trkpt>
<trkpt lat="53.447852" lon="05.624160"><ele>13.7</ele><time>2021-02-17T11:22:54Z</time><name>PT3015</name></trkpt>
<trkpt lat="53.447853" lon="05.624169"><ele>12.6</ele><time>2021-02-17T11:22:58Z</time><name>PT3016</name></trkpt>
<trkpt lat="53.447851" lon="05.624180"><ele>12.4</ele><time>2021-02-17T11:22:59Z</time><name>PT3017</name></trkpt>
<trkpt lat="53.447854" lon="05.624192"><ele>12.4</ele><time>2021-02-17T11:23:00Z</time><name>PT3018</name></trkpt>
<trkpt lat="53.447861" lon="05.624207"><ele>12.4</ele><time>2021-02-17T11:23:01Z</time><name>PT3019</name></trkpt>
<trkpt lat="53.447868" lon="05.624225"><ele>12.4</ele><time>2021-02-17T11:23:02Z</time><name>PT3020</name></trkpt>
<trkpt lat="53.447873" lon="05.624242"><ele>12.2</ele><time>2021-02-17T11:23:03Z</time><name>PT3021</name></trkpt>
<trkpt lat="53.447875" lon="05.624260"><ele>12.2</ele><time>2021-02-17T11:23:04Z</time><name>PT3022</name></trkpt>
<trkpt lat="53.447870" lon="05.624277"><ele>11.8</ele><time>2021-02-17T11:23:05Z</time><name>PT3023</name></trkpt>
<trkpt lat="53.447873" lon="05.624291"><ele>11.8</ele><time>2021-02-17T11:23:06Z</time><name>PT3024</name></trkpt>
<trkpt lat="53.447873" lon="05.624300"><ele>11.7</ele><time>2021-02-17T11:23:07Z</time><name>PT3025</name></trkpt>
<trkpt lat="53.447874" lon="05.624313"><ele>11.5</ele><time>2021-02-17T11:23:08Z</time><name>PT3026</name></trkpt>
<trkpt lat="53.447871" lon="05.624329"><ele>11.5</ele><time>2021-02-17T11:23:09Z</time><name>PT3027</name></trkpt>
<trkpt lat="53.447870" lon="05.624341"><ele>11.2</ele><time>2021-02-17T11:23:10Z</time><name>PT3028</name></trkpt>
<trkpt lat="53.447873" lon="05.624354"><ele>10.7</ele><time>2021-02-17T11:23:11Z</time><name>PT3029</name></trkpt>
<trkpt lat="53.447875" lon="05.624364"><ele>10.7</ele><time>2021-02-17T11:23:12Z</time><name>PT3030</name></trkpt>
<trkpt lat="53.447876" lon="05.624374"><ele>10.6</ele><time>2021-02-17T11:23:13Z</time><name>PT3031</name></trkpt>
<trkpt lat="53.447877" lon="05.624386"><ele>10.5</ele><time>2021-02-17T11:23:14Z</time><name>PT3032</name></trkpt>
<trkpt lat="53.447883" lon="05.624398"><ele>10.6</ele><time>2021-02-17T11:23:15Z</time><name>PT3033</name></trkpt>
<trkpt lat="53.447887" lon="05.624413"><ele>10.5</ele><time>2021-02-17T11:23:16Z</time><name>PT3034</name></trkpt>
<trkpt lat="53.447893" lon="05.624423"><ele>10.4</ele><time>2021-02-17T11:23:17Z</time><name>PT3035</name></trkpt>
<trkpt lat="53.447892" lon="05.624436"><ele>10.4</ele><time>2021-02-17T11:23:18Z</time><name>PT3036</name></trkpt>
<trkpt lat="53.447892" lon="05.624449"><ele>10.3</ele><time>2021-02-17T11:23:19Z</time><name>PT3037</name></trkpt>
<trkpt lat="53.447894" lon="05.624454"><ele>10.3</ele><time>2021-02-17T11:23:20Z</time><name>PT3038</name></trkpt>
<trkpt lat="53.447901" lon="05.624457"><ele>10.2</ele><time>2021-02-17T11:23:21Z</time><name>PT3039</name></trkpt>
<trkpt lat="53.447905" lon="05.624465"><ele>10.1</ele><time>2021-02-17T11:23:22Z</time><name>PT3040</name></trkpt>
<trkpt lat="53.447910" lon="05.624473"><ele>10.2</ele><time>2021-02-17T11:23:23Z</time><name>PT3041</name></trkpt>
<trkpt lat="53.447919" lon="05.624484"><ele>10</ele><time>2021-02-17T11:23:24Z</time><name>PT3042</name></trkpt>
<trkpt lat="53.447927" lon="05.624491"><ele>9.8</ele><time>2021-02-17T11:23:25Z</time><name>PT3043</name></trkpt>
<trkpt lat="53.447932" lon="05.624501"><ele>9.7</ele><time>2021-02-17T11:23:26Z</time><name>PT3044</name></trkpt>
<trkpt lat="53.447936" lon="05.624500"><ele>9.6</ele><time>2021-02-17T11:23:27Z</time><name>PT3045</name></trkpt>
<trkpt lat="53.447941" lon="05.624502"><ele>9.5</ele><time>2021-02-17T11:23:28Z</time><name>PT3046</name></trkpt>
<trkpt lat="53.447945" lon="05.624516"><ele>9.5</ele><time>2021-02-17T11:23:29Z</time><name>PT3047</name></trkpt>
<trkpt lat="53.447951" lon="05.624526"><ele>9.6</ele><time>2021-02-17T11:23:30Z</time><name>PT3048</name></trkpt>
<trkpt lat="53.447960" lon="05.624536"><ele>9.7</ele><time>2021-02-17T11:23:31Z</time><name>PT3049</name></trkpt>
<trkpt lat="53.447966" lon="05.624544"><ele>9.6</ele><time>2021-02-17T11:23:32Z</time><name>PT3050</name></trkpt>
<trkpt lat="53.447975" lon="05.624548"><ele>9.6</ele><time>2021-02-17T11:23:33Z</time><name>PT3051</name></trkpt>
<trkpt lat="53.447986" lon="05.624552"><ele>9.6</ele><time>2021-02-17T11:23:34Z</time><name>PT3052</name></trkpt>
<trkpt lat="53.447994" lon="05.624564"><ele>9.6</ele><time>2021-02-17T11:23:35Z</time><name>PT3053</name></trkpt>
<trkpt lat="53.448006" lon="05.624583"><ele>9.7</ele><time>2021-02-17T11:23:36Z</time><name>PT3054</name></trkpt>
<trkpt lat="53.448010" lon="05.624606"><ele>9.6</ele><time>2021-02-17T11:23:37Z</time><name>PT3055</name></trkpt>
<trkpt lat="53.448013" lon="05.624624"><ele>9.5</ele><time>2021-02-17T11:23:38Z</time><name>PT3056</name></trkpt>
<trkpt lat="53.448023" lon="05.624635"><ele>9.5</ele><time>2021-02-17T11:23:39Z</time><name>PT3057</name></trkpt>
<trkpt lat="53.448032" lon="05.624654"><ele>9.6</ele><time>2021-02-17T11:23:40Z</time><name>PT3058</name></trkpt>
<trkpt lat="53.448035" lon="05.624664"><ele>9.7</ele><time>2021-02-17T11:23:41Z</time><name>PT3059</name></trkpt>
<trkpt lat="53.448042" lon="05.624674"><ele>9.8</ele><time>2021-02-17T11:23:42Z</time><name>PT3060</name></trkpt>
<trkpt lat="53.448053" lon="05.624679"><ele>10</ele><time>2021-02-17T11:23:43Z</time><name>PT3061</name></trkpt>
<trkpt lat="53.448060" lon="05.624689"><ele>10.2</ele><time>2021-02-17T11:23:44Z</time><name>PT3062</name></trkpt>
<trkpt lat="53.448064" lon="05.624693"><ele>10.2</ele><time>2021-02-17T11:23:45Z</time><name>PT3063</name></trkpt>
<trkpt lat="53.448068" lon="05.624697"><ele>10.5</ele><time>2021-02-17T11:23:46Z</time><name>PT3064</name></trkpt>
<trkpt lat="53.448073" lon="05.624705"><ele>10.6</ele><time>2021-02-17T11:23:47Z</time><name>PT3065</name></trkpt>
<trkpt lat="53.448076" lon="05.624712"><ele>10.7</ele><time>2021-02-17T11:23:48Z</time><name>PT3066</name></trkpt>
<trkpt lat="53.448080" lon="05.624713"><ele>10.6</ele><time>2021-02-17T11:23:49Z</time><name>PT3067</name></trkpt>
<trkpt lat="53.448084" lon="05.624719"><ele>10.5</ele><time>2021-02-17T11:23:50Z</time><name>PT3068</name></trkpt>
<trkpt lat="53.448091" lon="05.624723"><ele>10.5</ele><time>2021-02-17T11:23:51Z</time><name>PT3069</name></trkpt>
<trkpt lat="53.448097" lon="05.624727"><ele>10.5</ele><time>2021-02-17T11:23:52Z</time><name>PT3070</name></trkpt>
<trkpt lat="53.448107" lon="05.624739"><ele>10.4</ele><time>2021-02-17T11:23:53Z</time><name>PT3071</name></trkpt>
<trkpt lat="53.448117" lon="05.624750"><ele>10.5</ele><time>2021-02-17T11:23:54Z</time><name>PT3072</name></trkpt>
<trkpt lat="53.448124" lon="05.624760"><ele>10.4</ele><time>2021-02-17T11:23:55Z</time><name>PT3073</name></trkpt>
<trkpt lat="53.448133" lon="05.624769"><ele>10.2</ele><time>2021-02-17T11:23:56Z</time><name>PT3074</name></trkpt>
<trkpt lat="53.448142" lon="05.624775"><ele>10.2</ele><time>2021-02-17T11:23:57Z</time><name>PT3075</name></trkpt>
<trkpt lat="53.448152" lon="05.624777"><ele>10</ele><time>2021-02-17T11:23:58Z</time><name>PT3076</name></trkpt>
<trkpt lat="53.448153" lon="05.624785"><ele>10</ele><time>2021-02-17T11:23:59Z</time><name>PT3077</name></trkpt>
<trkpt lat="53.448149" lon="05.624801"><ele>10</ele><time>2021-02-17T11:24:00Z</time><name>PT3078</name></trkpt>
<trkpt lat="53.448149" lon="05.624812"><ele>10.1</ele><time>2021-02-17T11:24:01Z</time><name>PT3079</name></trkpt>
<trkpt lat="53.448150" lon="05.624823"><ele>10</ele><time>2021-02-17T11:24:02Z</time><name>PT3080</name></trkpt>
<trkpt lat="53.448148" lon="05.624828"><ele>10</ele><time>2021-02-17T11:24:03Z</time><name>PT3081</name></trkpt>
<trkpt lat="53.448148" lon="05.624840"><ele>9.7</ele><time>2021-02-17T11:24:04Z</time><name>PT3082</name></trkpt>
<trkpt lat="53.448147" lon="05.624854"><ele>9.7</ele><time>2021-02-17T11:24:05Z</time><name>PT3083</name></trkpt>
<trkpt lat="53.448148" lon="05.624858"><ele>9.7</ele><time>2021-02-17T11:24:06Z</time><name>PT3084</name></trkpt>
<trkpt lat="53.448154" lon="05.624859"><ele>9.7</ele><time>2021-02-17T11:24:09Z</time><name>PT3085</name></trkpt>
<trkpt lat="53.448153" lon="05.624882"><ele>9.6</ele><time>2021-02-17T11:24:10Z</time><name>PT3086</name></trkpt>
<trkpt lat="53.448154" lon="05.624905"><ele>9.4</ele><time>2021-02-17T11:24:11Z</time><name>PT3087</name></trkpt>
<trkpt lat="53.448161" lon="05.624922"><ele>9.5</ele><time>2021-02-17T11:24:12Z</time><name>PT3088</name></trkpt>
<trkpt lat="53.448166" lon="05.624941"><ele>9.8</ele><time>2021-02-17T11:24:13Z</time><name>PT3089</name></trkpt>
<trkpt lat="53.448170" lon="05.624961"><ele>9.9</ele><time>2021-02-17T11:24:14Z</time><name>PT3090</name></trkpt>
<trkpt lat="53.448176" lon="05.624980"><ele>9.8</ele><time>2021-02-17T11:24:15Z</time><name>PT3091</name></trkpt>
<trkpt lat="53.448178" lon="05.624990"><ele>9.9</ele><time>2021-02-17T11:24:16Z</time><name>PT3092</name></trkpt>
<trkpt lat="53.448182" lon="05.625007"><ele>9.9</ele><time>2021-02-17T11:24:17Z</time><name>PT3093</name></trkpt>
<trkpt lat="53.448188" lon="05.625024"><ele>10</ele><time>2021-02-17T11:24:18Z</time><name>PT3094</name></trkpt>
<trkpt lat="53.448190" lon="05.625040"><ele>10.2</ele><time>2021-02-17T11:24:19Z</time><name>PT3095</name></trkpt>
<trkpt lat="53.448196" lon="05.625054"><ele>10.2</ele><time>2021-02-17T11:24:20Z</time><name>PT3096</name></trkpt>
<trkpt lat="53.448204" lon="05.625069"><ele>10.2</ele><time>2021-02-17T11:24:21Z</time><name>PT3097</name></trkpt>
<trkpt lat="53.448219" lon="05.625083"><ele>10.2</ele><time>2021-02-17T11:24:22Z</time><name>PT3098</name></trkpt>
<trkpt lat="53.448221" lon="05.625092"><ele>10.2</ele><time>2021-02-17T11:24:23Z</time><name>PT3099</name></trkpt>
<trkpt lat="53.448224" lon="05.625104"><ele>10.4</ele><time>2021-02-17T11:24:24Z</time><name>PT3100</name></trkpt>
<trkpt lat="53.448228" lon="05.625122"><ele>10.4</ele><time>2021-02-17T11:24:25Z</time><name>PT3101</name></trkpt>
<trkpt lat="53.448234" lon="05.625136"><ele>10.2</ele><time>2021-02-17T11:24:26Z</time><name>PT3102</name></trkpt>
<trkpt lat="53.448242" lon="05.625151"><ele>10.2</ele><time>2021-02-17T11:24:27Z</time><name>PT3103</name></trkpt>
<trkpt lat="53.448250" lon="05.625167"><ele>9.9</ele><time>2021-02-17T11:24:28Z</time><name>PT3104</name></trkpt>
<trkpt lat="53.448252" lon="05.625179"><ele>9.7</ele><time>2021-02-17T11:24:29Z</time><name>PT3105</name></trkpt>
<trkpt lat="53.448250" lon="05.625193"><ele>9.6</ele><time>2021-02-17T11:24:30Z</time><name>PT3106</name></trkpt>
<trkpt lat="53.448255" lon="05.625206"><ele>9.4</ele><time>2021-02-17T11:24:31Z</time><name>PT3107</name></trkpt>
<trkpt lat="53.448257" lon="05.625217"><ele>9.5</ele><time>2021-02-17T11:24:32Z</time><name>PT3108</name></trkpt>
<trkpt lat="53.448257" lon="05.625234"><ele>9.6</ele><time>2021-02-17T11:24:33Z</time><name>PT3109</name></trkpt>
<trkpt lat="53.448254" lon="05.625265"><ele>9.8</ele><time>2021-02-17T11:24:34Z</time><name>PT3110</name></trkpt>
<trkpt lat="53.448262" lon="05.625287"><ele>9.9</ele><time>2021-02-17T11:24:35Z</time><name>PT3111</name></trkpt>
<trkpt lat="53.448267" lon="05.625306"><ele>10</ele><time>2021-02-17T11:24:36Z</time><name>PT3112</name></trkpt>
<trkpt lat="53.448274" lon="05.625324"><ele>10.2</ele><time>2021-02-17T11:24:37Z</time><name>PT3113</name></trkpt>
<trkpt lat="53.448280" lon="05.625339"><ele>9.9</ele><time>2021-02-17T11:24:38Z</time><name>PT3114</name></trkpt>
<trkpt lat="53.448285" lon="05.625352"><ele>10</ele><time>2021-02-17T11:24:39Z</time><name>PT3115</name></trkpt>
<trkpt lat="53.448289" lon="05.625367"><ele>10.2</ele><time>2021-02-17T11:24:40Z</time><name>PT3116</name></trkpt>
<trkpt lat="53.448288" lon="05.625377"><ele>10.1</ele><time>2021-02-17T11:24:41Z</time><name>PT3117</name></trkpt>
<trkpt lat="53.448290" lon="05.625385"><ele>10.2</ele><time>2021-02-17T11:24:42Z</time><name>PT3118</name></trkpt>
<trkpt lat="53.448292" lon="05.625395"><ele>10.3</ele><time>2021-02-17T11:24:43Z</time><name>PT3119</name></trkpt>
<trkpt lat="53.448294" lon="05.625408"><ele>10.4</ele><time>2021-02-17T11:24:44Z</time><name>PT3120</name></trkpt>
<trkpt lat="53.448296" lon="05.625421"><ele>10.7</ele><time>2021-02-17T11:24:45Z</time><name>PT3121</name></trkpt>
<trkpt lat="53.448298" lon="05.625438"><ele>10.8</ele><time>2021-02-17T11:24:46Z</time><name>PT3122</name></trkpt>
<trkpt lat="53.448295" lon="05.625448"><ele>10.9</ele><time>2021-02-17T11:24:47Z</time><name>PT3123</name></trkpt>
<trkpt lat="53.448296" lon="05.625461"><ele>11</ele><time>2021-02-17T11:24:48Z</time><name>PT3124</name></trkpt>
<trkpt lat="53.448300" lon="05.625480"><ele>11</ele><time>2021-02-17T11:24:49Z</time><name>PT3125</name></trkpt>
<trkpt lat="53.448305" lon="05.625489"><ele>11.1</ele><time>2021-02-17T11:24:50Z</time><name>PT3126</name></trkpt>
<trkpt lat="53.448309" lon="05.625506"><ele>11.1</ele><time>2021-02-17T11:24:51Z</time><name>PT3127</name></trkpt>
<trkpt lat="53.448320" lon="05.625528"><ele>11.2</ele><time>2021-02-17T11:24:52Z</time><name>PT3128</name></trkpt>
<trkpt lat="53.448328" lon="05.625539"><ele>11.2</ele><time>2021-02-17T11:24:53Z</time><name>PT3129</name></trkpt>
<trkpt lat="53.448338" lon="05.625551"><ele>11.1</ele><time>2021-02-17T11:24:54Z</time><name>PT3130</name></trkpt>
<trkpt lat="53.448337" lon="05.625568"><ele>10.7</ele><time>2021-02-17T11:24:59Z</time><name>PT3131</name></trkpt>
<trkpt lat="53.448343" lon="05.625567"><ele>10.9</ele><time>2021-02-17T11:25:00Z</time><name>PT3132</name></trkpt>
<trkpt lat="53.448356" lon="05.625566"><ele>11.1</ele><time>2021-02-17T11:25:01Z</time><name>PT3133</name></trkpt>
<trkpt lat="53.448366" lon="05.625558"><ele>11.3</ele><time>2021-02-17T11:25:02Z</time><name>PT3134</name></trkpt>
<trkpt lat="53.448374" lon="05.625553"><ele>11.4</ele><time>2021-02-17T11:25:03Z</time><name>PT3135</name></trkpt>
<trkpt lat="53.448381" lon="05.625551"><ele>11.7</ele><time>2021-02-17T11:25:04Z</time><name>PT3136</name></trkpt>
<trkpt lat="53.448387" lon="05.625556"><ele>11.8</ele><time>2021-02-17T11:25:05Z</time><name>PT3137</name></trkpt>
<trkpt lat="53.448396" lon="05.625553"><ele>12.1</ele><time>2021-02-17T11:25:06Z</time><name>PT3138</name></trkpt>
<trkpt lat="53.448403" lon="05.625553"><ele>12.1</ele><time>2021-02-17T11:25:07Z</time><name>PT3139</name></trkpt>
<trkpt lat="53.448415" lon="05.625549"><ele>12.2</ele><time>2021-02-17T11:25:08Z</time><name>PT3140</name></trkpt>
<trkpt lat="53.448422" lon="05.625547"><ele>12.2</ele><time>2021-02-17T11:25:09Z</time><name>PT3141</name></trkpt>
<trkpt lat="53.448429" lon="05.625542"><ele>12.2</ele><time>2021-02-17T11:25:10Z</time><name>PT3142</name></trkpt>
<trkpt lat="53.448431" lon="05.625539"><ele>12.4</ele><time>2021-02-17T11:25:11Z</time><name>PT3143</name></trkpt>
<trkpt lat="53.448439" lon="05.625538"><ele>12.5</ele><time>2021-02-17T11:25:12Z</time><name>PT3144</name></trkpt>
<trkpt lat="53.448449" lon="05.625533"><ele>12.7</ele><time>2021-02-17T11:25:13Z</time><name>PT3145</name></trkpt>
<trkpt lat="53.448458" lon="05.625531"><ele>12.6</ele><time>2021-02-17T11:25:14Z</time><name>PT3146</name></trkpt>
<trkpt lat="53.448467" lon="05.625530"><ele>12.6</ele><time>2021-02-17T11:25:15Z</time><name>PT3147</name></trkpt>
<trkpt lat="53.448476" lon="05.625527"><ele>12.5</ele><time>2021-02-17T11:25:16Z</time><name>PT3148</name></trkpt>
<trkpt lat="53.448481" lon="05.625525"><ele>12.3</ele><time>2021-02-17T11:25:17Z</time><name>PT3149</name></trkpt>
<trkpt lat="53.448485" lon="05.625525"><ele>12.2</ele><time>2021-02-17T11:25:18Z</time><name>PT3150</name></trkpt>
<trkpt lat="53.448494" lon="05.625524"><ele>12.2</ele><time>2021-02-17T11:25:19Z</time><name>PT3151</name></trkpt>
<trkpt lat="53.448500" lon="05.625522"><ele>12.2</ele><time>2021-02-17T11:25:20Z</time><name>PT3152</name></trkpt>
<trkpt lat="53.448508" lon="05.625522"><ele>12.2</ele><time>2021-02-17T11:25:21Z</time><name>PT3153</name></trkpt>
<trkpt lat="53.448515" lon="05.625518"><ele>12.1</ele><time>2021-02-17T11:25:23Z</time><name>PT3154</name></trkpt>
<trkpt lat="53.448523" lon="05.625503"><ele>12.2</ele><time>2021-02-17T11:25:24Z</time><name>PT3155</name></trkpt>
<trkpt lat="53.448534" lon="05.625495"><ele>12</ele><time>2021-02-17T11:25:25Z</time><name>PT3156</name></trkpt>
<trkpt lat="53.448542" lon="05.625492"><ele>11.9</ele><time>2021-02-17T11:25:26Z</time><name>PT3157</name></trkpt>
<trkpt lat="53.448551" lon="05.625480"><ele>11.7</ele><time>2021-02-17T11:25:27Z</time><name>PT3158</name></trkpt>
<trkpt lat="53.448563" lon="05.625477"><ele>11.5</ele><time>2021-02-17T11:25:28Z</time><name>PT3159</name></trkpt>
<trkpt lat="53.448573" lon="05.625475"><ele>11.2</ele><time>2021-02-17T11:25:29Z</time><name>PT3160</name></trkpt>
<trkpt lat="53.448580" lon="05.625462"><ele>11.2</ele><time>2021-02-17T11:25:30Z</time><name>PT3161</name></trkpt>
<trkpt lat="53.448589" lon="05.625451"><ele>11</ele><time>2021-02-17T11:25:31Z</time><name>PT3162</name></trkpt>
<trkpt lat="53.448592" lon="05.625454"><ele>11.1</ele><time>2021-02-17T11:25:32Z</time><name>PT3163</name></trkpt>
<trkpt lat="53.448602" lon="05.625450"><ele>11</ele><time>2021-02-17T11:25:33Z</time><name>PT3164</name></trkpt>
<trkpt lat="53.448610" lon="05.625446"><ele>10.7</ele><time>2021-02-17T11:25:34Z</time><name>PT3165</name></trkpt>
<trkpt lat="53.448617" lon="05.625447"><ele>10.7</ele><time>2021-02-17T11:25:35Z</time><name>PT3166</name></trkpt>
<trkpt lat="53.448629" lon="05.625450"><ele>10.5</ele><time>2021-02-17T11:25:36Z</time><name>PT3167</name></trkpt>
<trkpt lat="53.448639" lon="05.625453"><ele>10.3</ele><time>2021-02-17T11:25:37Z</time><name>PT3168</name></trkpt>
<trkpt lat="53.448648" lon="05.625450"><ele>10.2</ele><time>2021-02-17T11:25:38Z</time><name>PT3169</name></trkpt>
<trkpt lat="53.448661" lon="05.625448"><ele>10.1</ele><time>2021-02-17T11:25:39Z</time><name>PT3170</name></trkpt>
<trkpt lat="53.448667" lon="05.625445"><ele>10</ele><time>2021-02-17T11:25:40Z</time><name>PT3171</name></trkpt>
<trkpt lat="53.448682" lon="05.625445"><ele>9.8</ele><time>2021-02-17T11:25:41Z</time><name>PT3172</name></trkpt>
<trkpt lat="53.448691" lon="05.625440"><ele>10</ele><time>2021-02-17T11:25:42Z</time><name>PT3173</name></trkpt>
<trkpt lat="53.448700" lon="05.625445"><ele>10.2</ele><time>2021-02-17T11:25:43Z</time><name>PT3174</name></trkpt>
<trkpt lat="53.448710" lon="05.625445"><ele>10.5</ele><time>2021-02-17T11:25:44Z</time><name>PT3175</name></trkpt>
<trkpt lat="53.448730" lon="05.625436"><ele>10.7</ele><time>2021-02-17T11:25:45Z</time><name>PT3176</name></trkpt>
<trkpt lat="53.448741" lon="05.625429"><ele>10.8</ele><time>2021-02-17T11:25:46Z</time><name>PT3177</name></trkpt>
<trkpt lat="53.448748" lon="05.625422"><ele>11</ele><time>2021-02-17T11:25:47Z</time><name>PT3178</name></trkpt>
<trkpt lat="53.448756" lon="05.625422"><ele>10.9</ele><time>2021-02-17T11:25:48Z</time><name>PT3179</name></trkpt>
<trkpt lat="53.448766" lon="05.625420"><ele>11.1</ele><time>2021-02-17T11:25:49Z</time><name>PT3180</name></trkpt>
<trkpt lat="53.448773" lon="05.625417"><ele>11.1</ele><time>2021-02-17T11:25:50Z</time><name>PT3181</name></trkpt>
<trkpt lat="53.448781" lon="05.625414"><ele>11.1</ele><time>2021-02-17T11:25:51Z</time><name>PT3182</name></trkpt>
<trkpt lat="53.448783" lon="05.625414"><ele>11.1</ele><time>2021-02-17T11:25:52Z</time><name>PT3183</name></trkpt>
<trkpt lat="53.448785" lon="05.625414"><ele>11.1</ele><time>2021-02-17T11:25:53Z</time><name>PT3184</name></trkpt>
<trkpt lat="53.448795" lon="05.625411"><ele>11.2</ele><time>2021-02-17T11:25:54Z</time><name>PT3185</name></trkpt>
<trkpt lat="53.448802" lon="05.625416"><ele>11.2</ele><time>2021-02-17T11:26:01Z</time><name>PT3186</name></trkpt>
<trkpt lat="53.448811" lon="05.625432"><ele>11.3</ele><time>2021-02-17T11:26:02Z</time><name>PT3187</name></trkpt>
<trkpt lat="53.448822" lon="05.625443"><ele>11.3</ele><time>2021-02-17T11:26:03Z</time><name>PT3188</name></trkpt>
<trkpt lat="53.448830" lon="05.625449"><ele>11.3</ele><time>2021-02-17T11:26:04Z</time><name>PT3189</name></trkpt>
<trkpt lat="53.448830" lon="05.625455"><ele>11.3</ele><time>2021-02-17T11:26:05Z</time><name>PT3190</name></trkpt>
<trkpt lat="53.448832" lon="05.625459"><ele>11.4</ele><time>2021-02-17T11:26:06Z</time><name>PT3191</name></trkpt>
<trkpt lat="53.448838" lon="05.625459"><ele>11.3</ele><time>2021-02-17T11:26:07Z</time><name>PT3192</name></trkpt>
<trkpt lat="53.448842" lon="05.625461"><ele>11.5</ele><time>2021-02-17T11:26:08Z</time><name>PT3193</name></trkpt>
<trkpt lat="53.448846" lon="05.625461"><ele>11.7</ele><time>2021-02-17T11:26:09Z</time><name>PT3194</name></trkpt>
<trkpt lat="53.448850" lon="05.625464"><ele>11.8</ele><time>2021-02-17T11:26:10Z</time><name>PT3195</name></trkpt>
<trkpt lat="53.448858" lon="05.625469"><ele>12.2</ele><time>2021-02-17T11:26:11Z</time><name>PT3196</name></trkpt>
<trkpt lat="53.448861" lon="05.625480"><ele>12.2</ele><time>2021-02-17T11:26:12Z</time><name>PT3197</name></trkpt>
<trkpt lat="53.448862" lon="05.625491"><ele>12.3</ele><time>2021-02-17T11:26:13Z</time><name>PT3198</name></trkpt>
<trkpt lat="53.448867" lon="05.625501"><ele>12.3</ele><time>2021-02-17T11:26:14Z</time><name>PT3199</name></trkpt>
<trkpt lat="53.448871" lon="05.625510"><ele>12.5</ele><time>2021-02-17T11:26:15Z</time><name>PT3200</name></trkpt>
<trkpt lat="53.448881" lon="05.625513"><ele>12.5</ele><time>2021-02-17T11:26:16Z</time><name>PT3201</name></trkpt>
<trkpt lat="53.448884" lon="05.625519"><ele>12.6</ele><time>2021-02-17T11:26:17Z</time><name>PT3202</name></trkpt>
<trkpt lat="53.448884" lon="05.625523"><ele>12.7</ele><time>2021-02-17T11:26:18Z</time><name>PT3203</name></trkpt>
<trkpt lat="53.448889" lon="05.625526"><ele>13</ele><time>2021-02-17T11:26:19Z</time><name>PT3204</name></trkpt>
<trkpt lat="53.448896" lon="05.625526"><ele>13.1</ele><time>2021-02-17T11:26:20Z</time><name>PT3205</name></trkpt>
<trkpt lat="53.448902" lon="05.625527"><ele>13.1</ele><time>2021-02-17T11:26:21Z</time><name>PT3206</name></trkpt>
<trkpt lat="53.448907" lon="05.625525"><ele>13.3</ele><time>2021-02-17T11:26:22Z</time><name>PT3207</name></trkpt>
<trkpt lat="53.448908" lon="05.625525"><ele>13.3</ele><time>2021-02-17T11:26:23Z</time><name>PT3208</name></trkpt>
<trkpt lat="53.448919" lon="05.625522"><ele>13.3</ele><time>2021-02-17T11:26:24Z</time><name>PT3209</name></trkpt>
<trkpt lat="53.448922" lon="05.625521"><ele>13.3</ele><time>2021-02-17T11:26:25Z</time><name>PT3210</name></trkpt>
<trkpt lat="53.448924" lon="05.625520"><ele>13.2</ele><time>2021-02-17T11:26:26Z</time><name>PT3211</name></trkpt>
<trkpt lat="53.448929" lon="05.625530"><ele>13.1</ele><time>2021-02-17T11:26:31Z</time><name>PT3212</name></trkpt>
<trkpt lat="53.448932" lon="05.625532"><ele>13.1</ele><time>2021-02-17T11:26:32Z</time><name>PT3213</name></trkpt>
<trkpt lat="53.448931" lon="05.625539"><ele>13</ele><time>2021-02-17T11:26:33Z</time><name>PT3214</name></trkpt>
<trkpt lat="53.448932" lon="05.625543"><ele>12.9</ele><time>2021-02-17T11:26:34Z</time><name>PT3215</name></trkpt>
<trkpt lat="53.448933" lon="05.625546"><ele>12.9</ele><time>2021-02-17T11:26:35Z</time><name>PT3216</name></trkpt>
<trkpt lat="53.448935" lon="05.625546"><ele>13</ele><time>2021-02-17T11:26:36Z</time><name>PT3217</name></trkpt>
<trkpt lat="53.448954" lon="05.625583"><ele>12.8</ele><time>2021-02-17T11:26:51Z</time><name>PT3218</name></trkpt>
<trkpt lat="53.448956" lon="05.625594"><ele>12</ele><time>2021-02-17T11:26:52Z</time><name>PT3219</name></trkpt>
<trkpt lat="53.448960" lon="05.625590"><ele>11.4</ele><time>2021-02-17T11:26:53Z</time><name>PT3220</name></trkpt>
<trkpt lat="53.448966" lon="05.625573"><ele>11.6</ele><time>2021-02-17T11:26:54Z</time><name>PT3221</name></trkpt>
<trkpt lat="53.448968" lon="05.625576"><ele>12.4</ele><time>2021-02-17T11:26:55Z</time><name>PT3222</name></trkpt>
<trkpt lat="53.448971" lon="05.625580"><ele>13.4</ele><time>2021-02-17T11:26:56Z</time><name>PT3223</name></trkpt>
<trkpt lat="53.448973" lon="05.625574"><ele>13.7</ele><time>2021-02-17T11:26:57Z</time><name>PT3224</name></trkpt>
<trkpt lat="53.448975" lon="05.625574"><ele>14.1</ele><time>2021-02-17T11:26:58Z</time><name>PT3225</name></trkpt>
<trkpt lat="53.448980" lon="05.625577"><ele>13.6</ele><time>2021-02-17T11:26:59Z</time><name>PT3226</name></trkpt>
<trkpt lat="53.448983" lon="05.625583"><ele>13.5</ele><time>2021-02-17T11:27:00Z</time><name>PT3227</name></trkpt>
<trkpt lat="53.448978" lon="05.625583"><ele>13.1</ele><time>2021-02-17T11:27:01Z</time><name>PT3228</name></trkpt>
<trkpt lat="53.448982" lon="05.625591"><ele>13.1</ele><time>2021-02-17T11:27:02Z</time><name>PT3229</name></trkpt>
<trkpt lat="53.448980" lon="05.625597"><ele>13.1</ele><time>2021-02-17T11:27:03Z</time><name>PT3230</name></trkpt>
<trkpt lat="53.448981" lon="05.625611"><ele>13</ele><time>2021-02-17T11:27:04Z</time><name>PT3231</name></trkpt>
<trkpt lat="53.448984" lon="05.625616"><ele>13.1</ele><time>2021-02-17T11:27:05Z</time><name>PT3232</name></trkpt>
<trkpt lat="53.448987" lon="05.625624"><ele>12.9</ele><time>2021-02-17T11:27:06Z</time><name>PT3233</name></trkpt>
<trkpt lat="53.448988" lon="05.625630"><ele>12.9</ele><time>2021-02-17T11:27:07Z</time><name>PT3234</name></trkpt>
<trkpt lat="53.448994" lon="05.625645"><ele>13.4</ele><time>2021-02-17T11:27:38Z</time><name>PT3235</name></trkpt>
<trkpt lat="53.448996" lon="05.625651"><ele>13.3</ele><time>2021-02-17T11:27:39Z</time><name>PT3236</name></trkpt>
<trkpt lat="53.448998" lon="05.625656"><ele>13.4</ele><time>2021-02-17T11:28:07Z</time><name>PT3237</name></trkpt>
<trkpt lat="53.448999" lon="05.625646"><ele>13.4</ele><time>2021-02-17T11:28:08Z</time><name>PT3238</name></trkpt>
<trkpt lat="53.449004" lon="05.625639"><ele>13.3</ele><time>2021-02-17T11:28:09Z</time><name>PT3239</name></trkpt>
<trkpt lat="53.449002" lon="05.625619"><ele>13.3</ele><time>2021-02-17T11:28:10Z</time><name>PT3240</name></trkpt>
<trkpt lat="53.448990" lon="05.625628"><ele>13.4</ele><time>2021-02-17T11:28:11Z</time><name>PT3241</name></trkpt>
<trkpt lat="53.448991" lon="05.625630"><ele>13.6</ele><time>2021-02-17T11:28:12Z</time><name>PT3242</name></trkpt>
<trkpt lat="53.448998" lon="05.625655"><ele>13.3</ele><time>2021-02-17T11:28:14Z</time><name>PT3243</name></trkpt>
<trkpt lat="53.448999" lon="05.625666"><ele>13.2</ele><time>2021-02-17T11:28:15Z</time><name>PT3244</name></trkpt>
<trkpt lat="53.449007" lon="05.625681"><ele>13.2</ele><time>2021-02-17T11:28:16Z</time><name>PT3245</name></trkpt>
<trkpt lat="53.449010" lon="05.625680"><ele>13.1</ele><time>2021-02-17T11:28:17Z</time><name>PT3246</name></trkpt>
<trkpt lat="53.449017" lon="05.625690"><ele>13.1</ele><time>2021-02-17T11:28:18Z</time><name>PT3247</name></trkpt>
<trkpt lat="53.449019" lon="05.625695"><ele>13.1</ele><time>2021-02-17T11:28:19Z</time><name>PT3248</name></trkpt>
<trkpt lat="53.449022" lon="05.625700"><ele>13.1</ele><time>2021-02-17T11:28:20Z</time><name>PT3249</name></trkpt>
<trkpt lat="53.449024" lon="05.625707"><ele>13.1</ele><time>2021-02-17T11:28:21Z</time><name>PT3250</name></trkpt>
<trkpt lat="53.449024" lon="05.625707"><ele>13</ele><time>2021-02-17T11:28:22Z</time><name>PT3251</name></trkpt>
<trkpt lat="53.449025" lon="05.625707"><ele>13.1</ele><time>2021-02-17T11:28:23Z</time><name>PT3252</name></trkpt>
<trkpt lat="53.449036" lon="05.625707"><ele>8.1</ele><time>2021-02-17T11:29:41Z</time><name>PT3253</name></trkpt>
<trkpt lat="53.449042" lon="05.625714"><ele>8.2</ele><time>2021-02-17T11:29:42Z</time><name>PT3254</name></trkpt>
<trkpt lat="53.449050" lon="05.625718"><ele>8.2</ele><time>2021-02-17T11:29:43Z</time><name>PT3255</name></trkpt>
<trkpt lat="53.449054" lon="05.625721"><ele>8.4</ele><time>2021-02-17T11:29:44Z</time><name>PT3256</name></trkpt>
<trkpt lat="53.449061" lon="05.625723"><ele>8.6</ele><time>2021-02-17T11:29:45Z</time><name>PT3257</name></trkpt>
<trkpt lat="53.449065" lon="05.625740"><ele>8.5</ele><time>2021-02-17T11:29:46Z</time><name>PT3258</name></trkpt>
<trkpt lat="53.449075" lon="05.625751"><ele>8.4</ele><time>2021-02-17T11:29:47Z</time><name>PT3259</name></trkpt>
<trkpt lat="53.449075" lon="05.625751"><ele>8.4</ele><time>2021-02-17T11:29:48Z</time><name>PT3260</name></trkpt>
<trkpt lat="53.449079" lon="05.625743"><ele>9.2</ele><time>2021-02-17T11:30:23Z</time><name>PT3261</name></trkpt>
<trkpt lat="53.449085" lon="05.625739"><ele>9.2</ele><time>2021-02-17T11:30:24Z</time><name>PT3262</name></trkpt>
<trkpt lat="53.449091" lon="05.625736"><ele>9.2</ele><time>2021-02-17T11:30:25Z</time><name>PT3263</name></trkpt>
<trkpt lat="53.449115" lon="05.625772"><ele>9</ele><time>2021-02-17T11:30:28Z</time><name>PT3264</name></trkpt>
<trkpt lat="53.449111" lon="05.625755"><ele>8.9</ele><time>2021-02-17T11:30:29Z</time><name>PT3265</name></trkpt>
<trkpt lat="53.449122" lon="05.625761"><ele>8.5</ele><time>2021-02-17T11:30:30Z</time><name>PT3266</name></trkpt>
<trkpt lat="53.449138" lon="05.625727"><ele>8.7</ele><time>2021-02-17T11:31:01Z</time><name>PT3267</name></trkpt>
<trkpt lat="53.449146" lon="05.625717"><ele>8.7</ele><time>2021-02-17T11:31:02Z</time><name>PT3268</name></trkpt>
<trkpt lat="53.449148" lon="05.625708"><ele>8.6</ele><time>2021-02-17T11:31:03Z</time><name>PT3269</name></trkpt>
<trkpt lat="53.449148" lon="05.625701"><ele>8.6</ele><time>2021-02-17T11:31:04Z</time><name>PT3270</name></trkpt>
<trkpt lat="53.449151" lon="05.625701"><ele>8.6</ele><time>2021-02-17T11:31:05Z</time><name>PT3271</name></trkpt>
<trkpt lat="53.449154" lon="05.625708"><ele>8.6</ele><time>2021-02-17T11:31:06Z</time><name>PT3272</name></trkpt>
<trkpt lat="53.449150" lon="05.625699"><ele>8.7</ele><time>2021-02-17T11:31:07Z</time><name>PT3273</name></trkpt>
<trkpt lat="53.449147" lon="05.625698"><ele>8.8</ele><time>2021-02-17T11:31:08Z</time><name>PT3274</name></trkpt>
<trkpt lat="53.449146" lon="05.625694"><ele>9</ele><time>2021-02-17T11:31:09Z</time><name>PT3275</name></trkpt>
<trkpt lat="53.449151" lon="05.625689"><ele>9.2</ele><time>2021-02-17T11:31:10Z</time><name>PT3276</name></trkpt>
<trkpt lat="53.449158" lon="05.625677"><ele>9.1</ele><time>2021-02-17T11:31:11Z</time><name>PT3277</name></trkpt>
<trkpt lat="53.449167" lon="05.625669"><ele>9</ele><time>2021-02-17T11:31:12Z</time><name>PT3278</name></trkpt>
<trkpt lat="53.449170" lon="05.625662"><ele>8.7</ele><time>2021-02-17T11:31:13Z</time><name>PT3279</name></trkpt>
<trkpt lat="53.449174" lon="05.625656"><ele>8.8</ele><time>2021-02-17T11:31:14Z</time><name>PT3280</name></trkpt>
<trkpt lat="53.449175" lon="05.625653"><ele>9</ele><time>2021-02-17T11:31:15Z</time><name>PT3281</name></trkpt>
<trkpt lat="53.449179" lon="05.625652"><ele>9.2</ele><time>2021-02-17T11:31:16Z</time><name>PT3282</name></trkpt>
<trkpt lat="53.449185" lon="05.625647"><ele>9.2</ele><time>2021-02-17T11:31:17Z</time><name>PT3283</name></trkpt>
<trkpt lat="53.449196" lon="05.625651"><ele>9.2</ele><time>2021-02-17T11:31:18Z</time><name>PT3284</name></trkpt>
<trkpt lat="53.449200" lon="05.625652"><ele>9.1</ele><time>2021-02-17T11:31:19Z</time><name>PT3285</name></trkpt>
<trkpt lat="53.449206" lon="05.625648"><ele>9.1</ele><time>2021-02-17T11:31:20Z</time><name>PT3286</name></trkpt>
<trkpt lat="53.449206" lon="05.625642"><ele>9.1</ele><time>2021-02-17T11:31:21Z</time><name>PT3287</name></trkpt>
<trkpt lat="53.449210" lon="05.625637"><ele>9.1</ele><time>2021-02-17T11:31:22Z</time><name>PT3288</name></trkpt>
<trkpt lat="53.449215" lon="05.625630"><ele>9.2</ele><time>2021-02-17T11:31:23Z</time><name>PT3289</name></trkpt>
<trkpt lat="53.449216" lon="05.625621"><ele>9.2</ele><time>2021-02-17T11:31:24Z</time><name>PT3290</name></trkpt>
<trkpt lat="53.449220" lon="05.625615"><ele>9.2</ele><time>2021-02-17T11:31:25Z</time><name>PT3291</name></trkpt>
<trkpt lat="53.449230" lon="05.625610"><ele>9.4</ele><time>2021-02-17T11:31:26Z</time><name>PT3292</name></trkpt>
<trkpt lat="53.449238" lon="05.625603"><ele>9.3</ele><time>2021-02-17T11:31:27Z</time><name>PT3293</name></trkpt>
<trkpt lat="53.449240" lon="05.625597"><ele>9.4</ele><time>2021-02-17T11:31:28Z</time><name>PT3294</name></trkpt>
<trkpt lat="53.449234" lon="05.625583"><ele>9.3</ele><time>2021-02-17T11:31:29Z</time><name>PT3295</name></trkpt>
<trkpt lat="53.449234" lon="05.625575"><ele>9.3</ele><time>2021-02-17T11:31:30Z</time><name>PT3296</name></trkpt>
<trkpt lat="53.449236" lon="05.625566"><ele>9.3</ele><time>2021-02-17T11:31:31Z</time><name>PT3297</name></trkpt>
<trkpt lat="53.449238" lon="05.625561"><ele>9.4</ele><time>2021-02-17T11:31:32Z</time><name>PT3298</name></trkpt>
<trkpt lat="53.449247" lon="05.625555"><ele>9.5</ele><time>2021-02-17T11:31:33Z</time><name>PT3299</name></trkpt>
<trkpt lat="53.449250" lon="05.625551"><ele>9.5</ele><time>2021-02-17T11:31:34Z</time><name>PT3300</name></trkpt>
<trkpt lat="53.449252" lon="05.625544"><ele>9.3</ele><time>2021-02-17T11:31:35Z</time><name>PT3301</name></trkpt>
<trkpt lat="53.449257" lon="05.625540"><ele>9.3</ele><time>2021-02-17T11:31:36Z</time><name>PT3302</name></trkpt>
<trkpt lat="53.449263" lon="05.625531"><ele>9.3</ele><time>2021-02-17T11:31:37Z</time><name>PT3303</name></trkpt>
<trkpt lat="53.449269" lon="05.625520"><ele>9.2</ele><time>2021-02-17T11:31:38Z</time><name>PT3304</name></trkpt>
<trkpt lat="53.449275" lon="05.625513"><ele>9.2</ele><time>2021-02-17T11:31:39Z</time><name>PT3305</name></trkpt>
<trkpt lat="53.449284" lon="05.625502"><ele>9.2</ele><time>2021-02-17T11:31:40Z</time><name>PT3306</name></trkpt>
<trkpt lat="53.449290" lon="05.625493"><ele>9.2</ele><time>2021-02-17T11:31:41Z</time><name>PT3307</name></trkpt>
<trkpt lat="53.449291" lon="05.625486"><ele>9.2</ele><time>2021-02-17T11:31:42Z</time><name>PT3308</name></trkpt>
<trkpt lat="53.449291" lon="05.625475"><ele>9.2</ele><time>2021-02-17T11:31:43Z</time><name>PT3309</name></trkpt>
<trkpt lat="53.449294" lon="05.625466"><ele>9.1</ele><time>2021-02-17T11:31:44Z</time><name>PT3310</name></trkpt>
<trkpt lat="53.449300" lon="05.625456"><ele>9.1</ele><time>2021-02-17T11:31:45Z</time><name>PT3311</name></trkpt>
<trkpt lat="53.449308" lon="05.625453"><ele>9.1</ele><time>2021-02-17T11:31:46Z</time><name>PT3312</name></trkpt>
<trkpt lat="53.449313" lon="05.625450"><ele>9.1</ele><time>2021-02-17T11:31:47Z</time><name>PT3313</name></trkpt>
<trkpt lat="53.449323" lon="05.625440"><ele>9.2</ele><time>2021-02-17T11:31:48Z</time><name>PT3314</name></trkpt>
<trkpt lat="53.449327" lon="05.625433"><ele>9.4</ele><time>2021-02-17T11:31:49Z</time><name>PT3315</name></trkpt>
<trkpt lat="53.449330" lon="05.625421"><ele>9.5</ele><time>2021-02-17T11:31:50Z</time><name>PT3316</name></trkpt>
<trkpt lat="53.449331" lon="05.625406"><ele>9.5</ele><time>2021-02-17T11:31:51Z</time><name>PT3317</name></trkpt>
<trkpt lat="53.449336" lon="05.625391"><ele>9.4</ele><time>2021-02-17T11:31:52Z</time><name>PT3318</name></trkpt>
<trkpt lat="53.449342" lon="05.625371"><ele>9.5</ele><time>2021-02-17T11:31:53Z</time><name>PT3319</name></trkpt>
<trkpt lat="53.449344" lon="05.625356"><ele>9.6</ele><time>2021-02-17T11:31:54Z</time><name>PT3320</name></trkpt>
<trkpt lat="53.449347" lon="05.625345"><ele>9.6</ele><time>2021-02-17T11:31:55Z</time><name>PT3321</name></trkpt>
<trkpt lat="53.449351" lon="05.625338"><ele>9.7</ele><time>2021-02-17T11:31:56Z</time><name>PT3322</name></trkpt>
<trkpt lat="53.449369" lon="05.625319"><ele>9.8</ele><time>2021-02-17T11:31:57Z</time><name>PT3323</name></trkpt>
<trkpt lat="53.449377" lon="05.625305"><ele>9.7</ele><time>2021-02-17T11:31:58Z</time><name>PT3324</name></trkpt>
<trkpt lat="53.449388" lon="05.625289"><ele>9.7</ele><time>2021-02-17T11:31:59Z</time><name>PT3325</name></trkpt>
<trkpt lat="53.449395" lon="05.625278"><ele>9.6</ele><time>2021-02-17T11:32:00Z</time><name>PT3326</name></trkpt>
<trkpt lat="53.449407" lon="05.625267"><ele>9.5</ele><time>2021-02-17T11:32:01Z</time><name>PT3327</name></trkpt>
<trkpt lat="53.449417" lon="05.625259"><ele>9.7</ele><time>2021-02-17T11:32:02Z</time><name>PT3328</name></trkpt>
<trkpt lat="53.449426" lon="05.625253"><ele>9.7</ele><time>2021-02-17T11:32:03Z</time><name>PT3329</name></trkpt>
<trkpt lat="53.449433" lon="05.625249"><ele>9.7</ele><time>2021-02-17T11:32:04Z</time><name>PT3330</name></trkpt>
<trkpt lat="53.449442" lon="05.625246"><ele>9.9</ele><time>2021-02-17T11:32:05Z</time><name>PT3331</name></trkpt>
<trkpt lat="53.449455" lon="05.625241"><ele>9.8</ele><time>2021-02-17T11:32:06Z</time><name>PT3332</name></trkpt>
<trkpt lat="53.449466" lon="05.625230"><ele>9.9</ele><time>2021-02-17T11:32:07Z</time><name>PT3333</name></trkpt>
<trkpt lat="53.449474" lon="05.625221"><ele>10.1</ele><time>2021-02-17T11:32:08Z</time><name>PT3334</name></trkpt>
<trkpt lat="53.449482" lon="05.625217"><ele>10.1</ele><time>2021-02-17T11:32:09Z</time><name>PT3335</name></trkpt>
<trkpt lat="53.449493" lon="05.625214"><ele>10.2</ele><time>2021-02-17T11:32:10Z</time><name>PT3336</name></trkpt>
<trkpt lat="53.449506" lon="05.625215"><ele>10.3</ele><time>2021-02-17T11:32:11Z</time><name>PT3337</name></trkpt>
<trkpt lat="53.449519" lon="05.625215"><ele>10.5</ele><time>2021-02-17T11:32:12Z</time><name>PT3338</name></trkpt>
<trkpt lat="53.449534" lon="05.625218"><ele>10.5</ele><time>2021-02-17T11:32:13Z</time><name>PT3339</name></trkpt>
<trkpt lat="53.449549" lon="05.625219"><ele>10.6</ele><time>2021-02-17T11:32:14Z</time><name>PT3340</name></trkpt>
<trkpt lat="53.449558" lon="05.625228"><ele>10.5</ele><time>2021-02-17T11:32:15Z</time><name>PT3341</name></trkpt>
<trkpt lat="53.449569" lon="05.625234"><ele>10.4</ele><time>2021-02-17T11:32:16Z</time><name>PT3342</name></trkpt>
<trkpt lat="53.449583" lon="05.625242"><ele>10.3</ele><time>2021-02-17T11:32:17Z</time><name>PT3343</name></trkpt>
<trkpt lat="53.449598" lon="05.625250"><ele>10.3</ele><time>2021-02-17T11:32:18Z</time><name>PT3344</name></trkpt>
<trkpt lat="53.449603" lon="05.625258"><ele>10.3</ele><time>2021-02-17T11:32:19Z</time><name>PT3345</name></trkpt>
<trkpt lat="53.449608" lon="05.625267"><ele>10.1</ele><time>2021-02-17T11:32:20Z</time><name>PT3346</name></trkpt>
<trkpt lat="53.449610" lon="05.625277"><ele>10</ele><time>2021-02-17T11:32:21Z</time><name>PT3347</name></trkpt>
<trkpt lat="53.449615" lon="05.625283"><ele>9.7</ele><time>2021-02-17T11:32:22Z</time><name>PT3348</name></trkpt>
<trkpt lat="53.449618" lon="05.625292"><ele>9.7</ele><time>2021-02-17T11:32:23Z</time><name>PT3349</name></trkpt>
<trkpt lat="53.449622" lon="05.625303"><ele>9.7</ele><time>2021-02-17T11:32:24Z</time><name>PT3350</name></trkpt>
<trkpt lat="53.449625" lon="05.625318"><ele>9.7</ele><time>2021-02-17T11:32:25Z</time><name>PT3351</name></trkpt>
<trkpt lat="53.449627" lon="05.625332"><ele>9.7</ele><time>2021-02-17T11:32:26Z</time><name>PT3352</name></trkpt>
<trkpt lat="53.449629" lon="05.625347"><ele>9.7</ele><time>2021-02-17T11:32:27Z</time><name>PT3353</name></trkpt>
<trkpt lat="53.449631" lon="05.625358"><ele>9.7</ele><time>2021-02-17T11:32:28Z</time><name>PT3354</name></trkpt>
<trkpt lat="53.449637" lon="05.625373"><ele>9.7</ele><time>2021-02-17T11:32:29Z</time><name>PT3355</name></trkpt>
<trkpt lat="53.449640" lon="05.625390"><ele>9.6</ele><time>2021-02-17T11:32:30Z</time><name>PT3356</name></trkpt>
<trkpt lat="53.449642" lon="05.625406"><ele>9.7</ele><time>2021-02-17T11:32:31Z</time><name>PT3357</name></trkpt>
<trkpt lat="53.449645" lon="05.625421"><ele>9.8</ele><time>2021-02-17T11:32:32Z</time><name>PT3358</name></trkpt>
<trkpt lat="53.449651" lon="05.625438"><ele>9.9</ele><time>2021-02-17T11:32:33Z</time><name>PT3359</name></trkpt>
<trkpt lat="53.449656" lon="05.625454"><ele>10</ele><time>2021-02-17T11:32:34Z</time><name>PT3360</name></trkpt>
<trkpt lat="53.449661" lon="05.625465"><ele>9.8</ele><time>2021-02-17T11:32:35Z</time><name>PT3361</name></trkpt>
<trkpt lat="53.449665" lon="05.625479"><ele>9.7</ele><time>2021-02-17T11:32:36Z</time><name>PT3362</name></trkpt>
<trkpt lat="53.449669" lon="05.625495"><ele>10</ele><time>2021-02-17T11:32:37Z</time><name>PT3363</name></trkpt>
<trkpt lat="53.449671" lon="05.625509"><ele>9.9</ele><time>2021-02-17T11:32:38Z</time><name>PT3364</name></trkpt>
<trkpt lat="53.449675" lon="05.625524"><ele>10</ele><time>2021-02-17T11:32:39Z</time><name>PT3365</name></trkpt>
<trkpt lat="53.449680" lon="05.625533"><ele>9.9</ele><time>2021-02-17T11:32:40Z</time><name>PT3366</name></trkpt>
<trkpt lat="53.449685" lon="05.625540"><ele>9.6</ele><time>2021-02-17T11:32:41Z</time><name>PT3367</name></trkpt>
<trkpt lat="53.449690" lon="05.625542"><ele>9.6</ele><time>2021-02-17T11:32:42Z</time><name>PT3368</name></trkpt>
<trkpt lat="53.449696" lon="05.625549"><ele>9.5</ele><time>2021-02-17T11:32:43Z</time><name>PT3369</name></trkpt>
<trkpt lat="53.449700" lon="05.625556"><ele>9.3</ele><time>2021-02-17T11:32:44Z</time><name>PT3370</name></trkpt>
<trkpt lat="53.449704" lon="05.625564"><ele>9.4</ele><time>2021-02-17T11:32:45Z</time><name>PT3371</name></trkpt>
<trkpt lat="53.449710" lon="05.625565"><ele>9.6</ele><time>2021-02-17T11:32:46Z</time><name>PT3372</name></trkpt>
<trkpt lat="53.449717" lon="05.625563"><ele>9.6</ele><time>2021-02-17T11:32:47Z</time><name>PT3373</name></trkpt>
<trkpt lat="53.449725" lon="05.625561"><ele>9.4</ele><time>2021-02-17T11:32:48Z</time><name>PT3374</name></trkpt>
<trkpt lat="53.449735" lon="05.625563"><ele>9.1</ele><time>2021-02-17T11:32:49Z</time><name>PT3375</name></trkpt>
<trkpt lat="53.449746" lon="05.625564"><ele>9</ele><time>2021-02-17T11:32:50Z</time><name>PT3376</name></trkpt>
<trkpt lat="53.449754" lon="05.625563"><ele>8.9</ele><time>2021-02-17T11:32:51Z</time><name>PT3377</name></trkpt>
<trkpt lat="53.449763" lon="05.625563"><ele>8.8</ele><time>2021-02-17T11:32:52Z</time><name>PT3378</name></trkpt>
<trkpt lat="53.449772" lon="05.625565"><ele>8.7</ele><time>2021-02-17T11:32:53Z</time><name>PT3379</name></trkpt>
<trkpt lat="53.449780" lon="05.625569"><ele>8.6</ele><time>2021-02-17T11:32:54Z</time><name>PT3380</name></trkpt>
<trkpt lat="53.449786" lon="05.625572"><ele>8.6</ele><time>2021-02-17T11:32:55Z</time><name>PT3381</name></trkpt>
<trkpt lat="53.449790" lon="05.625570"><ele>8.7</ele><time>2021-02-17T11:32:57Z</time><name>PT3382</name></trkpt>
<trkpt lat="53.449793" lon="05.625568"><ele>8.7</ele><time>2021-02-17T11:32:57Z</time><name>PT3383</name></trkpt>
<trkpt lat="53.449799" lon="05.625568"><ele>8.9</ele><time>2021-02-17T11:32:58Z</time><name>PT3384</name></trkpt>
<trkpt lat="53.449805" lon="05.625569"><ele>9</ele><time>2021-02-17T11:32:59Z</time><name>PT3385</name></trkpt>
<trkpt lat="53.449809" lon="05.625569"><ele>9.2</ele><time>2021-02-17T11:33:00Z</time><name>PT3386</name></trkpt>
<trkpt lat="53.449818" lon="05.625588"><ele>9.4</ele><time>2021-02-17T11:33:11Z</time><name>PT3387</name></trkpt>
<trkpt lat="53.449827" lon="05.625602"><ele>9.2</ele><time>2021-02-17T11:33:12Z</time><name>PT3388</name></trkpt>
<trkpt lat="53.449831" lon="05.625618"><ele>9.2</ele><time>2021-02-17T11:33:13Z</time><name>PT3389</name></trkpt>
<trkpt lat="53.449839" lon="05.625632"><ele>9.2</ele><time>2021-02-17T11:33:14Z</time><name>PT3390</name></trkpt>
<trkpt lat="53.449856" lon="05.625641"><ele>9.2</ele><time>2021-02-17T11:33:15Z</time><name>PT3391</name></trkpt>
<trkpt lat="53.449861" lon="05.625649"><ele>9.4</ele><time>2021-02-17T11:33:16Z</time><name>PT3392</name></trkpt>
<trkpt lat="53.449871" lon="05.625655"><ele>9.4</ele><time>2021-02-17T11:33:17Z</time><name>PT3393</name></trkpt>
<trkpt lat="53.449875" lon="05.625662"><ele>9.4</ele><time>2021-02-17T11:33:18Z</time><name>PT3394</name></trkpt>
<trkpt lat="53.449884" lon="05.625663"><ele>9.3</ele><time>2021-02-17T11:33:19Z</time><name>PT3395</name></trkpt>
<trkpt lat="53.449889" lon="05.625664"><ele>9.3</ele><time>2021-02-17T11:33:20Z</time><name>PT3396</name></trkpt>
<trkpt lat="53.449898" lon="05.625665"><ele>9.2</ele><time>2021-02-17T11:33:21Z</time><name>PT3397</name></trkpt>
<trkpt lat="53.449900" lon="05.625666"><ele>9.2</ele><time>2021-02-17T11:33:22Z</time><name>PT3398</name></trkpt>
<trkpt lat="53.449903" lon="05.625671"><ele>9.3</ele><time>2021-02-17T11:33:23Z</time><name>PT3399</name></trkpt>
<trkpt lat="53.449905" lon="05.625673"><ele>9.4</ele><time>2021-02-17T11:33:24Z</time><name>PT3400</name></trkpt>
<trkpt lat="53.449906" lon="05.625676"><ele>9.7</ele><time>2021-02-17T11:33:25Z</time><name>PT3401</name></trkpt>
<trkpt lat="53.449909" lon="05.625675"><ele>9.7</ele><time>2021-02-17T11:33:26Z</time><name>PT3402</name></trkpt>
<trkpt lat="53.449913" lon="05.625669"><ele>9.6</ele><time>2021-02-17T11:33:27Z</time><name>PT3403</name></trkpt>
<trkpt lat="53.449915" lon="05.625663"><ele>9</ele><time>2021-02-17T11:33:33Z</time><name>PT3404</name></trkpt>
<trkpt lat="53.449918" lon="05.625666"><ele>8.9</ele><time>2021-02-17T11:33:34Z</time><name>PT3405</name></trkpt>
<trkpt lat="53.449927" lon="05.625662"><ele>8.7</ele><time>2021-02-17T11:33:38Z</time><name>PT3406</name></trkpt>
<trkpt lat="53.449935" lon="05.625660"><ele>8.6</ele><time>2021-02-17T11:33:39Z</time><name>PT3407</name></trkpt>
<trkpt lat="53.449937" lon="05.625655"><ele>8.2</ele><time>2021-02-17T11:33:41Z</time><name>PT3408</name></trkpt>
<trkpt lat="53.449942" lon="05.625651"><ele>8.2</ele><time>2021-02-17T11:33:42Z</time><name>PT3409</name></trkpt>
<trkpt lat="53.449944" lon="05.625647"><ele>8.1</ele><time>2021-02-17T11:33:43Z</time><name>PT3410</name></trkpt>
<trkpt lat="53.449951" lon="05.625640"><ele>8</ele><time>2021-02-17T11:33:44Z</time><name>PT3411</name></trkpt>
<trkpt lat="53.449960" lon="05.625636"><ele>8</ele><time>2021-02-17T11:33:45Z</time><name>PT3412</name></trkpt>
<trkpt lat="53.449965" lon="05.625636"><ele>7.6</ele><time>2021-02-17T11:33:47Z</time><name>PT3413</name></trkpt>
<trkpt lat="53.449973" lon="05.625636"><ele>7.3</ele><time>2021-02-17T11:33:48Z</time><name>PT3414</name></trkpt>
<trkpt lat="53.449982" lon="05.625632"><ele>7.1</ele><time>2021-02-17T11:33:49Z</time><name>PT3415</name></trkpt>
<trkpt lat="53.449989" lon="05.625627"><ele>7.1</ele><time>2021-02-17T11:33:50Z</time><name>PT3416</name></trkpt>
<trkpt lat="53.449995" lon="05.625625"><ele>6.8</ele><time>2021-02-17T11:33:51Z</time><name>PT3417</name></trkpt>
<trkpt lat="53.450005" lon="05.625622"><ele>6.7</ele><time>2021-02-17T11:33:52Z</time><name>PT3418</name></trkpt>
<trkpt lat="53.450015" lon="05.625617"><ele>6.4</ele><time>2021-02-17T11:33:53Z</time><name>PT3419</name></trkpt>
<trkpt lat="53.450025" lon="05.625612"><ele>6.3</ele><time>2021-02-17T11:33:54Z</time><name>PT3420</name></trkpt>
<trkpt lat="53.450033" lon="05.625611"><ele>6.3</ele><time>2021-02-17T11:33:55Z</time><name>PT3421</name></trkpt>
<trkpt lat="53.450041" lon="05.625608"><ele>6</ele><time>2021-02-17T11:33:56Z</time><name>PT3422</name></trkpt>
<trkpt lat="53.450053" lon="05.625605"><ele>5.8</ele><time>2021-02-17T11:33:57Z</time><name>PT3423</name></trkpt>
<trkpt lat="53.450066" lon="05.625605"><ele>5.6</ele><time>2021-02-17T11:33:58Z</time><name>PT3424</name></trkpt>
<trkpt lat="53.450078" lon="05.625603"><ele>5.3</ele><time>2021-02-17T11:33:59Z</time><name>PT3425</name></trkpt>
<trkpt lat="53.450091" lon="05.625603"><ele>5.2</ele><time>2021-02-17T11:34:00Z</time><name>PT3426</name></trkpt>
<trkpt lat="53.450107" lon="05.625611"><ele>5</ele><time>2021-02-17T11:34:01Z</time><name>PT3427</name></trkpt>
<trkpt lat="53.450117" lon="05.625615"><ele>5</ele><time>2021-02-17T11:34:02Z</time><name>PT3428</name></trkpt>
<trkpt lat="53.450128" lon="05.625613"><ele>5</ele><time>2021-02-17T11:34:03Z</time><name>PT3429</name></trkpt>
<trkpt lat="53.450140" lon="05.625610"><ele>5</ele><time>2021-02-17T11:34:04Z</time><name>PT3430</name></trkpt>
<trkpt lat="53.450150" lon="05.625606"><ele>5</ele><time>2021-02-17T11:34:05Z</time><name>PT3431</name></trkpt>
<trkpt lat="53.450160" lon="05.625603"><ele>5.1</ele><time>2021-02-17T11:34:06Z</time><name>PT3432</name></trkpt>
<trkpt lat="53.450169" lon="05.625601"><ele>5.1</ele><time>2021-02-17T11:34:07Z</time><name>PT3433</name></trkpt>
<trkpt lat="53.450179" lon="05.625599"><ele>5</ele><time>2021-02-17T11:34:08Z</time><name>PT3434</name></trkpt>
<trkpt lat="53.450189" lon="05.625598"><ele>5.1</ele><time>2021-02-17T11:34:09Z</time><name>PT3435</name></trkpt>
<trkpt lat="53.450201" lon="05.625597"><ele>5.2</ele><time>2021-02-17T11:34:10Z</time><name>PT3436</name></trkpt>
<trkpt lat="53.450211" lon="05.625595"><ele>5.3</ele><time>2021-02-17T11:34:11Z</time><name>PT3437</name></trkpt>
<trkpt lat="53.450222" lon="05.625592"><ele>5.3</ele><time>2021-02-17T11:34:12Z</time><name>PT3438</name></trkpt>
<trkpt lat="53.450232" lon="05.625587"><ele>5.3</ele><time>2021-02-17T11:34:13Z</time><name>PT3439</name></trkpt>
<trkpt lat="53.450243" lon="05.625585"><ele>5.4</ele><time>2021-02-17T11:34:14Z</time><name>PT3440</name></trkpt>
<trkpt lat="53.450252" lon="05.625585"><ele>5.5</ele><time>2021-02-17T11:34:15Z</time><name>PT3441</name></trkpt>
<trkpt lat="53.450262" lon="05.625587"><ele>5.5</ele><time>2021-02-17T11:34:16Z</time><name>PT3442</name></trkpt>
<trkpt lat="53.450271" lon="05.625585"><ele>5.5</ele><time>2021-02-17T11:34:17Z</time><name>PT3443</name></trkpt>
<trkpt lat="53.450281" lon="05.625585"><ele>5.7</ele><time>2021-02-17T11:34:18Z</time><name>PT3444</name></trkpt>
<trkpt lat="53.450290" lon="05.625592"><ele>5.8</ele><time>2021-02-17T11:34:19Z</time><name>PT3445</name></trkpt>
<trkpt lat="53.450302" lon="05.625604"><ele>5.8</ele><time>2021-02-17T11:34:20Z</time><name>PT3446</name></trkpt>
<trkpt lat="53.450312" lon="05.625612"><ele>5.9</ele><time>2021-02-17T11:34:21Z</time><name>PT3447</name></trkpt>
<trkpt lat="53.450322" lon="05.625621"><ele>6</ele><time>2021-02-17T11:34:22Z</time><name>PT3448</name></trkpt>
<trkpt lat="53.450329" lon="05.625628"><ele>6</ele><time>2021-02-17T11:34:23Z</time><name>PT3449</name></trkpt>
<trkpt lat="53.450340" lon="05.625636"><ele>6.1</ele><time>2021-02-17T11:34:24Z</time><name>PT3450</name></trkpt>
<trkpt lat="53.450349" lon="05.625644"><ele>6.1</ele><time>2021-02-17T11:34:25Z</time><name>PT3451</name></trkpt>
<trkpt lat="53.450357" lon="05.625653"><ele>6</ele><time>2021-02-17T11:34:26Z</time><name>PT3452</name></trkpt>
<trkpt lat="53.450363" lon="05.625661"><ele>6.1</ele><time>2021-02-17T11:34:27Z</time><name>PT3453</name></trkpt>
<trkpt lat="53.450370" lon="05.625670"><ele>6</ele><time>2021-02-17T11:34:28Z</time><name>PT3454</name></trkpt>
<trkpt lat="53.450376" lon="05.625677"><ele>6</ele><time>2021-02-17T11:34:29Z</time><name>PT3455</name></trkpt>
<trkpt lat="53.450383" lon="05.625683"><ele>6</ele><time>2021-02-17T11:34:30Z</time><name>PT3456</name></trkpt>
<trkpt lat="53.450390" lon="05.625690"><ele>5.8</ele><time>2021-02-17T11:34:31Z</time><name>PT3457</name></trkpt>
<trkpt lat="53.450397" lon="05.625696"><ele>5.8</ele><time>2021-02-17T11:34:32Z</time><name>PT3458</name></trkpt>
<trkpt lat="53.450405" lon="05.625702"><ele>5.8</ele><time>2021-02-17T11:34:33Z</time><name>PT3459</name></trkpt>
<trkpt lat="53.450413" lon="05.625708"><ele>5.9</ele><time>2021-02-17T11:34:34Z</time><name>PT3460</name></trkpt>
<trkpt lat="53.450421" lon="05.625711"><ele>6.1</ele><time>2021-02-17T11:34:35Z</time><name>PT3461</name></trkpt>
<trkpt lat="53.450432" lon="05.625717"><ele>6.2</ele><time>2021-02-17T11:34:36Z</time><name>PT3462</name></trkpt>
<trkpt lat="53.450442" lon="05.625721"><ele>6.1</ele><time>2021-02-17T11:34:37Z</time><name>PT3463</name></trkpt>
<trkpt lat="53.450450" lon="05.625723"><ele>6.2</ele><time>2021-02-17T11:34:38Z</time><name>PT3464</name></trkpt>
<trkpt lat="53.450457" lon="05.625725"><ele>6.1</ele><time>2021-02-17T11:34:39Z</time><name>PT3465</name></trkpt>
<trkpt lat="53.450464" lon="05.625728"><ele>6.2</ele><time>2021-02-17T11:34:40Z</time><name>PT3466</name></trkpt>
<trkpt lat="53.450473" lon="05.625731"><ele>6.2</ele><time>2021-02-17T11:34:41Z</time><name>PT3467</name></trkpt>
<trkpt lat="53.450482" lon="05.625732"><ele>6.1</ele><time>2021-02-17T11:34:42Z</time><name>PT3468</name></trkpt>
<trkpt lat="53.450492" lon="05.625734"><ele>6.2</ele><time>2021-02-17T11:34:43Z</time><name>PT3469</name></trkpt>
<trkpt lat="53.450501" lon="05.625735"><ele>5.9</ele><time>2021-02-17T11:34:44Z</time><name>PT3470</name></trkpt>
<trkpt lat="53.450511" lon="05.625736"><ele>5.9</ele><time>2021-02-17T11:34:45Z</time><name>PT3471</name></trkpt>
<trkpt lat="53.450521" lon="05.625738"><ele>5.8</ele><time>2021-02-17T11:34:46Z</time><name>PT3472</name></trkpt>
<trkpt lat="53.450533" lon="05.625741"><ele>5.8</ele><time>2021-02-17T11:34:47Z</time><name>PT3473</name></trkpt>
<trkpt lat="53.450542" lon="05.625742"><ele>5.8</ele><time>2021-02-17T11:34:48Z</time><name>PT3474</name></trkpt>
<trkpt lat="53.450551" lon="05.625742"><ele>5.6</ele><time>2021-02-17T11:34:49Z</time><name>PT3475</name></trkpt>
<trkpt lat="53.450558" lon="05.625740"><ele>5.6</ele><time>2021-02-17T11:34:50Z</time><name>PT3476</name></trkpt>
<trkpt lat="53.450568" lon="05.625737"><ele>5.6</ele><time>2021-02-17T11:34:51Z</time><name>PT3477</name></trkpt>
<trkpt lat="53.450575" lon="05.625731"><ele>5.3</ele><time>2021-02-17T11:34:52Z</time><name>PT3478</name></trkpt>
<trkpt lat="53.450585" lon="05.625727"><ele>5.5</ele><time>2021-02-17T11:34:53Z</time><name>PT3479</name></trkpt>
<trkpt lat="53.450599" lon="05.625723"><ele>5.5</ele><time>2021-02-17T11:34:54Z</time><name>PT3480</name></trkpt>
<trkpt lat="53.450608" lon="05.625715"><ele>5.7</ele><time>2021-02-17T11:34:55Z</time><name>PT3481</name></trkpt>
<trkpt lat="53.450613" lon="05.625709"><ele>5.8</ele><time>2021-02-17T11:34:56Z</time><name>PT3482</name></trkpt>
<trkpt lat="53.450628" lon="05.625707"><ele>6</ele><time>2021-02-17T11:34:57Z</time><name>PT3483</name></trkpt>
<trkpt lat="53.450637" lon="05.625703"><ele>5.8</ele><time>2021-02-17T11:34:58Z</time><name>PT3484</name></trkpt>
<trkpt lat="53.450646" lon="05.625699"><ele>5.8</ele><time>2021-02-17T11:34:59Z</time><name>PT3485</name></trkpt>
<trkpt lat="53.450657" lon="05.625695"><ele>5.8</ele><time>2021-02-17T11:35:00Z</time><name>PT3486</name></trkpt>
<trkpt lat="53.450665" lon="05.625689"><ele>5.5</ele><time>2021-02-17T11:35:01Z</time><name>PT3487</name></trkpt>
<trkpt lat="53.450673" lon="05.625686"><ele>5.6</ele><time>2021-02-17T11:35:02Z</time><name>PT3488</name></trkpt>
<trkpt lat="53.450680" lon="05.625686"><ele>5.4</ele><time>2021-02-17T11:35:03Z</time><name>PT3489</name></trkpt>
<trkpt lat="53.450685" lon="05.625689"><ele>5.3</ele><time>2021-02-17T11:35:04Z</time><name>PT3490</name></trkpt>
<trkpt lat="53.450687" lon="05.625692"><ele>5.2</ele><time>2021-02-17T11:35:05Z</time><name>PT3491</name></trkpt>
<trkpt lat="53.450686" lon="05.625691"><ele>5.1</ele><time>2021-02-17T11:35:06Z</time><name>PT3492</name></trkpt>
<trkpt lat="53.450689" lon="05.625690"><ele>5.2</ele><time>2021-02-17T11:35:07Z</time><name>PT3493</name></trkpt>
<trkpt lat="53.450692" lon="05.625693"><ele>5.2</ele><time>2021-02-17T11:35:08Z</time><name>PT3494</name></trkpt>
<trkpt lat="53.450691" lon="05.625693"><ele>5.3</ele><time>2021-02-17T11:35:17Z</time><name>PT3495</name></trkpt>
<trkpt lat="53.450687" lon="05.625697"><ele>5.3</ele><time>2021-02-17T11:35:18Z</time><name>PT3496</name></trkpt>
<trkpt lat="53.450680" lon="05.625704"><ele>5.4</ele><time>2021-02-17T11:35:19Z</time><name>PT3497</name></trkpt>
<trkpt lat="53.450673" lon="05.625708"><ele>5.5</ele><time>2021-02-17T11:35:20Z</time><name>PT3498</name></trkpt>
<trkpt lat="53.450667" lon="05.625712"><ele>5.4</ele><time>2021-02-17T11:35:21Z</time><name>PT3499</name></trkpt>
<trkpt lat="53.450665" lon="05.625717"><ele>5.4</ele><time>2021-02-17T11:35:22Z</time><name>PT3500</name></trkpt>
<trkpt lat="53.450662" lon="05.625717"><ele>5.4</ele><time>2021-02-17T11:35:23Z</time><name>PT3501</name></trkpt>
<trkpt lat="53.450660" lon="05.625717"><ele>5.4</ele><time>2021-02-17T11:35:24Z</time><name>PT3502</name></trkpt>
<trkpt lat="53.450658" lon="05.625718"><ele>5.5</ele><time>2021-02-17T11:35:25Z</time><name>PT3503</name></trkpt>
<trkpt lat="53.450659" lon="05.625721"><ele>5.8</ele><time>2021-02-17T11:35:26Z</time><name>PT3504</name></trkpt>
<trkpt lat="53.450660" lon="05.625722"><ele>5.8</ele><time>2021-02-17T11:35:27Z</time><name>PT3505</name></trkpt>
<trkpt lat="53.450661" lon="05.625722"><ele>5.8</ele><time>2021-02-17T11:35:28Z</time><name>PT3506</name></trkpt>
<trkpt lat="53.450662" lon="05.625721"><ele>5.8</ele><time>2021-02-17T11:35:29Z</time><name>PT3507</name></trkpt>
<trkpt lat="53.450663" lon="05.625715"><ele>5.6</ele><time>2021-02-17T11:36:55Z</time><name>PT3508</name></trkpt>
<trkpt lat="53.450665" lon="05.625709"><ele>5.7</ele><time>2021-02-17T11:36:56Z</time><name>PT3509</name></trkpt>
<trkpt lat="53.450667" lon="05.625697"><ele>5.6</ele><time>2021-02-17T11:36:57Z</time><name>PT3510</name></trkpt>
<trkpt lat="53.450671" lon="05.625695"><ele>5.6</ele><time>2021-02-17T11:36:58Z</time><name>PT3511</name></trkpt>
<trkpt lat="53.450674" lon="05.625695"><ele>5.5</ele><time>2021-02-17T11:36:59Z</time><name>PT3512</name></trkpt>
<trkpt lat="53.450676" lon="05.625692"><ele>5.3</ele><time>2021-02-17T11:37:03Z</time><name>PT3513</name></trkpt>
<trkpt lat="53.450683" lon="05.625689"><ele>5.2</ele><time>2021-02-17T11:37:04Z</time><name>PT3514</name></trkpt>
<trkpt lat="53.450692" lon="05.625688"><ele>5</ele><time>2021-02-17T11:37:05Z</time><name>PT3515</name></trkpt>
<trkpt lat="53.450695" lon="05.625688"><ele>4.9</ele><time>2021-02-17T11:37:06Z</time><name>PT3516</name></trkpt>
<trkpt lat="53.450697" lon="05.625688"><ele>4.8</ele><time>2021-02-17T11:37:07Z</time><name>PT3517</name></trkpt>
<trkpt lat="53.450698" lon="05.625687"><ele>4.8</ele><time>2021-02-17T11:37:08Z</time><name>PT3518</name></trkpt>
<trkpt lat="53.450701" lon="05.625685"><ele>4.6</ele><time>2021-02-17T11:37:12Z</time><name>PT3519</name></trkpt>
<trkpt lat="53.450710" lon="05.625683"><ele>4.6</ele><time>2021-02-17T11:37:13Z</time><name>PT3520</name></trkpt>
<trkpt lat="53.450720" lon="05.625676"><ele>4.6</ele><time>2021-02-17T11:37:14Z</time><name>PT3521</name></trkpt>
<trkpt lat="53.450731" lon="05.625673"><ele>4.4</ele><time>2021-02-17T11:37:15Z</time><name>PT3522</name></trkpt>
<trkpt lat="53.450740" lon="05.625671"><ele>4.5</ele><time>2021-02-17T11:37:16Z</time><name>PT3523</name></trkpt>
<trkpt lat="53.450749" lon="05.625668"><ele>4.5</ele><time>2021-02-17T11:37:17Z</time><name>PT3524</name></trkpt>
<trkpt lat="53.450757" lon="05.625667"><ele>4.4</ele><time>2021-02-17T11:37:18Z</time><name>PT3525</name></trkpt>
<trkpt lat="53.450766" lon="05.625666"><ele>4.4</ele><time>2021-02-17T11:37:19Z</time><name>PT3526</name></trkpt>
<trkpt lat="53.450774" lon="05.625665"><ele>4.4</ele><time>2021-02-17T11:37:20Z</time><name>PT3527</name></trkpt>
<trkpt lat="53.450783" lon="05.625663"><ele>4.2</ele><time>2021-02-17T11:37:21Z</time><name>PT3528</name></trkpt>
<trkpt lat="53.450791" lon="05.625661"><ele>4.1</ele><time>2021-02-17T11:37:22Z</time><name>PT3529</name></trkpt>
<trkpt lat="53.450800" lon="05.625661"><ele>3.9</ele><time>2021-02-17T11:37:23Z</time><name>PT3530</name></trkpt>
<trkpt lat="53.450809" lon="05.625661"><ele>3.9</ele><time>2021-02-17T11:37:24Z</time><name>PT3531</name></trkpt>
<trkpt lat="53.450818" lon="05.625661"><ele>3.6</ele><time>2021-02-17T11:37:25Z</time><name>PT3532</name></trkpt>
<trkpt lat="53.450828" lon="05.625660"><ele>3.4</ele><time>2021-02-17T11:37:26Z</time><name>PT3533</name></trkpt>
<trkpt lat="53.450838" lon="05.625662"><ele>3.3</ele><time>2021-02-17T11:37:27Z</time><name>PT3534</name></trkpt>
<trkpt lat="53.450845" lon="05.625667"><ele>3.1</ele><time>2021-02-17T11:37:28Z</time><name>PT3535</name></trkpt>
<trkpt lat="53.450852" lon="05.625673"><ele>3.1</ele><time>2021-02-17T11:37:29Z</time><name>PT3536</name></trkpt>
<trkpt lat="53.450858" lon="05.625675"><ele>3.3</ele><time>2021-02-17T11:37:30Z</time><name>PT3537</name></trkpt>
<trkpt lat="53.450864" lon="05.625678"><ele>3.2</ele><time>2021-02-17T11:37:31Z</time><name>PT3538</name></trkpt>
<trkpt lat="53.450867" lon="05.625678"><ele>3.4</ele><time>2021-02-17T11:37:32Z</time><name>PT3539</name></trkpt>
<trkpt lat="53.450870" lon="05.625679"><ele>3.5</ele><time>2021-02-17T11:37:33Z</time><name>PT3540</name></trkpt>
<trkpt lat="53.450867" lon="05.625680"><ele>3.5</ele><time>2021-02-17T11:37:34Z</time><name>PT3541</name></trkpt>
<trkpt lat="53.450874" lon="05.625678"><ele>3.6</ele><time>2021-02-17T11:37:35Z</time><name>PT3542</name></trkpt>
<trkpt lat="53.450881" lon="05.625678"><ele>3.5</ele><time>2021-02-17T11:37:36Z</time><name>PT3543</name></trkpt>
<trkpt lat="53.450889" lon="05.625683"><ele>3.4</ele><time>2021-02-17T11:37:37Z</time><name>PT3544</name></trkpt>
<trkpt lat="53.450896" lon="05.625689"><ele>3.4</ele><time>2021-02-17T11:37:38Z</time><name>PT3545</name></trkpt>
<trkpt lat="53.450905" lon="05.625697"><ele>3.5</ele><time>2021-02-17T11:37:39Z</time><name>PT3546</name></trkpt>
<trkpt lat="53.450913" lon="05.625706"><ele>3.6</ele><time>2021-02-17T11:37:40Z</time><name>PT3547</name></trkpt>
<trkpt lat="53.450919" lon="05.625715"><ele>3.6</ele><time>2021-02-17T11:37:41Z</time><name>PT3548</name></trkpt>
<trkpt lat="53.450924" lon="05.625726"><ele>3.6</ele><time>2021-02-17T11:37:42Z</time><name>PT3549</name></trkpt>
<trkpt lat="53.450929" lon="05.625743"><ele>3.7</ele><time>2021-02-17T11:37:43Z</time><name>PT3550</name></trkpt>
<trkpt lat="53.450933" lon="05.625762"><ele>3.6</ele><time>2021-02-17T11:37:44Z</time><name>PT3551</name></trkpt>
<trkpt lat="53.450936" lon="05.625781"><ele>3.5</ele><time>2021-02-17T11:37:45Z</time><name>PT3552</name></trkpt>
<trkpt lat="53.450938" lon="05.625797"><ele>3.4</ele><time>2021-02-17T11:37:46Z</time><name>PT3553</name></trkpt>
<trkpt lat="53.450941" lon="05.625812"><ele>3.2</ele><time>2021-02-17T11:37:47Z</time><name>PT3554</name></trkpt>
<trkpt lat="53.450944" lon="05.625827"><ele>3</ele><time>2021-02-17T11:37:48Z</time><name>PT3555</name></trkpt>
<trkpt lat="53.450946" lon="05.625839"><ele>3</ele><time>2021-02-17T11:37:49Z</time><name>PT3556</name></trkpt>
<trkpt lat="53.450948" lon="05.625855"><ele>2.9</ele><time>2021-02-17T11:37:50Z</time><name>PT3557</name></trkpt>
<trkpt lat="53.450951" lon="05.625871"><ele>3</ele><time>2021-02-17T11:37:51Z</time><name>PT3558</name></trkpt>
<trkpt lat="53.450953" lon="05.625888"><ele>3.2</ele><time>2021-02-17T11:37:52Z</time><name>PT3559</name></trkpt>
<trkpt lat="53.450954" lon="05.625903"><ele>3.4</ele><time>2021-02-17T11:37:53Z</time><name>PT3560</name></trkpt>
<trkpt lat="53.450956" lon="05.625919"><ele>3.4</ele><time>2021-02-17T11:37:54Z</time><name>PT3561</name></trkpt>
<trkpt lat="53.450960" lon="05.625934"><ele>3.4</ele><time>2021-02-17T11:37:55Z</time><name>PT3562</name></trkpt>
<trkpt lat="53.450963" lon="05.625951"><ele>3.3</ele><time>2021-02-17T11:37:56Z</time><name>PT3563</name></trkpt>
<trkpt lat="53.450965" lon="05.625967"><ele>3.3</ele><time>2021-02-17T11:37:57Z</time><name>PT3564</name></trkpt>
<trkpt lat="53.450967" lon="05.625984"><ele>3.3</ele><time>2021-02-17T11:37:58Z</time><name>PT3565</name></trkpt>
<trkpt lat="53.450970" lon="05.625999"><ele>3.4</ele><time>2021-02-17T11:38:00Z</time><name>PT3566</name></trkpt>
<trkpt lat="53.450973" lon="05.626012"><ele>3.4</ele><time>2021-02-17T11:38:00Z</time><name>PT3567</name></trkpt>
<trkpt lat="53.450976" lon="05.626028"><ele>3.2</ele><time>2021-02-17T11:38:01Z</time><name>PT3568</name></trkpt>
<trkpt lat="53.450978" lon="05.626043"><ele>3</ele><time>2021-02-17T11:38:02Z</time><name>PT3569</name></trkpt>
<trkpt lat="53.450979" lon="05.626058"><ele>2.9</ele><time>2021-02-17T11:38:03Z</time><name>PT3570</name></trkpt>
<trkpt lat="53.450978" lon="05.626074"><ele>2.8</ele><time>2021-02-17T11:38:04Z</time><name>PT3571</name></trkpt>
<trkpt lat="53.450979" lon="05.626088"><ele>2.6</ele><time>2021-02-17T11:38:05Z</time><name>PT3572</name></trkpt>
<trkpt lat="53.450982" lon="05.626101"><ele>2.5</ele><time>2021-02-17T11:38:06Z</time><name>PT3573</name></trkpt>
<trkpt lat="53.450985" lon="05.626111"><ele>2.4</ele><time>2021-02-17T11:38:07Z</time><name>PT3574</name></trkpt>
<trkpt lat="53.450988" lon="05.626121"><ele>2.7</ele><time>2021-02-17T11:38:08Z</time><name>PT3575</name></trkpt>
<trkpt lat="53.450989" lon="05.626134"><ele>2.6</ele><time>2021-02-17T11:38:09Z</time><name>PT3576</name></trkpt>
<trkpt lat="53.450991" lon="05.626148"><ele>2.8</ele><time>2021-02-17T11:38:10Z</time><name>PT3577</name></trkpt>
<trkpt lat="53.450994" lon="05.626164"><ele>2.9</ele><time>2021-02-17T11:38:12Z</time><name>PT3578</name></trkpt>
<trkpt lat="53.450995" lon="05.626178"><ele>2.8</ele><time>2021-02-17T11:38:12Z</time><name>PT3579</name></trkpt>
<trkpt lat="53.450996" lon="05.626191"><ele>2.6</ele><time>2021-02-17T11:38:13Z</time><name>PT3580</name></trkpt>
<trkpt lat="53.451001" lon="05.626204"><ele>2.6</ele><time>2021-02-17T11:38:14Z</time><name>PT3581</name></trkpt>
<trkpt lat="53.451004" lon="05.626219"><ele>2.6</ele><time>2021-02-17T11:38:15Z</time><name>PT3582</name></trkpt>
<trkpt lat="53.451009" lon="05.626234"><ele>2.7</ele><time>2021-02-17T11:38:16Z</time><name>PT3583</name></trkpt>
<trkpt lat="53.451013" lon="05.626250"><ele>2.7</ele><time>2021-02-17T11:38:17Z</time><name>PT3584</name></trkpt>
<trkpt lat="53.451017" lon="05.626265"><ele>2.7</ele><time>2021-02-17T11:38:18Z</time><name>PT3585</name></trkpt>
<trkpt lat="53.451020" lon="05.626281"><ele>2.8</ele><time>2021-02-17T11:38:19Z</time><name>PT3586</name></trkpt>
<trkpt lat="53.451025" lon="05.626295"><ele>2.7</ele><time>2021-02-17T11:38:20Z</time><name>PT3587</name></trkpt>
<trkpt lat="53.451027" lon="05.626311"><ele>2.8</ele><time>2021-02-17T11:38:21Z</time><name>PT3588</name></trkpt>
<trkpt lat="53.451029" lon="05.626328"><ele>2.8</ele><time>2021-02-17T11:38:22Z</time><name>PT3589</name></trkpt>
<trkpt lat="53.451031" lon="05.626346"><ele>2.9</ele><time>2021-02-17T11:38:23Z</time><name>PT3590</name></trkpt>
<trkpt lat="53.451035" lon="05.626361"><ele>2.9</ele><time>2021-02-17T11:38:24Z</time><name>PT3591</name></trkpt>
<trkpt lat="53.451041" lon="05.626375"><ele>3</ele><time>2021-02-17T11:38:25Z</time><name>PT3592</name></trkpt>
<trkpt lat="53.451048" lon="05.626393"><ele>3.2</ele><time>2021-02-17T11:38:26Z</time><name>PT3593</name></trkpt>
<trkpt lat="53.451053" lon="05.626408"><ele>3.2</ele><time>2021-02-17T11:38:27Z</time><name>PT3594</name></trkpt>
<trkpt lat="53.451056" lon="05.626426"><ele>3.3</ele><time>2021-02-17T11:38:28Z</time><name>PT3595</name></trkpt>
<trkpt lat="53.451059" lon="05.626443"><ele>2.9</ele><time>2021-02-17T11:38:29Z</time><name>PT3596</name></trkpt>
<trkpt lat="53.451062" lon="05.626456"><ele>2.8</ele><time>2021-02-17T11:38:30Z</time><name>PT3597</name></trkpt>
<trkpt lat="53.451065" lon="05.626468"><ele>2.6</ele><time>2021-02-17T11:38:31Z</time><name>PT3598</name></trkpt>
<trkpt lat="53.451070" lon="05.626483"><ele>2.4</ele><time>2021-02-17T11:38:32Z</time><name>PT3599</name></trkpt>
<trkpt lat="53.451073" lon="05.626500"><ele>2.4</ele><time>2021-02-17T11:38:33Z</time><name>PT3600</name></trkpt>
<trkpt lat="53.451074" lon="05.626512"><ele>2.4</ele><time>2021-02-17T11:38:34Z</time><name>PT3601</name></trkpt>
<trkpt lat="53.451080" lon="05.626525"><ele>2.4</ele><time>2021-02-17T11:38:35Z</time><name>PT3602</name></trkpt>
<trkpt lat="53.451085" lon="05.626543"><ele>2.4</ele><time>2021-02-17T11:38:36Z</time><name>PT3603</name></trkpt>
<trkpt lat="53.451088" lon="05.626558"><ele>2.4</ele><time>2021-02-17T11:38:37Z</time><name>PT3604</name></trkpt>
<trkpt lat="53.451095" lon="05.626573"><ele>2.5</ele><time>2021-02-17T11:38:38Z</time><name>PT3605</name></trkpt>
<trkpt lat="53.451100" lon="05.626590"><ele>2.4</ele><time>2021-02-17T11:38:39Z</time><name>PT3606</name></trkpt>
<trkpt lat="53.451106" lon="05.626603"><ele>2.4</ele><time>2021-02-17T11:38:40Z</time><name>PT3607</name></trkpt>
<trkpt lat="53.451111" lon="05.626616"><ele>2.4</ele><time>2021-02-17T11:38:41Z</time><name>PT3608</name></trkpt>
<trkpt lat="53.451116" lon="05.626631"><ele>2.2</ele><time>2021-02-17T11:38:42Z</time><name>PT3609</name></trkpt>
<trkpt lat="53.451120" lon="05.626649"><ele>2.1</ele><time>2021-02-17T11:38:43Z</time><name>PT3610</name></trkpt>
<trkpt lat="53.451122" lon="05.626662"><ele>2.1</ele><time>2021-02-17T11:38:44Z</time><name>PT3611</name></trkpt>
<trkpt lat="53.451127" lon="05.626674"><ele>2.2</ele><time>2021-02-17T11:38:45Z</time><name>PT3612</name></trkpt>
<trkpt lat="53.451133" lon="05.626685"><ele>2.2</ele><time>2021-02-17T11:38:46Z</time><name>PT3613</name></trkpt>
<trkpt lat="53.451137" lon="05.626694"><ele>2.3</ele><time>2021-02-17T11:38:47Z</time><name>PT3614</name></trkpt>
<trkpt lat="53.451142" lon="05.626704"><ele>2.2</ele><time>2021-02-17T11:38:48Z</time><name>PT3615</name></trkpt>
<trkpt lat="53.451146" lon="05.626713"><ele>2.1</ele><time>2021-02-17T11:38:49Z</time><name>PT3616</name></trkpt>
<trkpt lat="53.451147" lon="05.626717"><ele>2.1</ele><time>2021-02-17T11:38:50Z</time><name>PT3617</name></trkpt>
<trkpt lat="53.451147" lon="05.626719"><ele>2.3</ele><time>2021-02-17T11:38:51Z</time><name>PT3618</name></trkpt>
<trkpt lat="53.451146" lon="05.626719"><ele>2.4</ele><time>2021-02-17T11:38:52Z</time><name>PT3619</name></trkpt>
<trkpt lat="53.451148" lon="05.626722"><ele>2.6</ele><time>2021-02-17T11:38:53Z</time><name>PT3620</name></trkpt>
<trkpt lat="53.451150" lon="05.626723"><ele>2.8</ele><time>2021-02-17T11:38:54Z</time><name>PT3621</name></trkpt>
<trkpt lat="53.451151" lon="05.626721"><ele>2.9</ele><time>2021-02-17T11:39:24Z</time><name>PT3622</name></trkpt>
<trkpt lat="53.451151" lon="05.626722"><ele>2.8</ele><time>2021-02-17T11:39:25Z</time><name>PT3623</name></trkpt>
<trkpt lat="53.451155" lon="05.626735"><ele>2.4</ele><time>2021-02-17T11:39:37Z</time><name>PT3624</name></trkpt>
<trkpt lat="53.451160" lon="05.626755"><ele>2.5</ele><time>2021-02-17T11:39:38Z</time><name>PT3625</name></trkpt>
<trkpt lat="53.451166" lon="05.626768"><ele>2.5</ele><time>2021-02-17T11:39:39Z</time><name>PT3626</name></trkpt>
<trkpt lat="53.451172" lon="05.626781"><ele>2.5</ele><time>2021-02-17T11:39:40Z</time><name>PT3627</name></trkpt>
<trkpt lat="53.451176" lon="05.626794"><ele>2.4</ele><time>2021-02-17T11:39:41Z</time><name>PT3628</name></trkpt>
<trkpt lat="53.451182" lon="05.626807"><ele>2.4</ele><time>2021-02-17T11:39:42Z</time><name>PT3629</name></trkpt>
<trkpt lat="53.451186" lon="05.626818"><ele>2.4</ele><time>2021-02-17T11:39:43Z</time><name>PT3630</name></trkpt>
<trkpt lat="53.451192" lon="05.626833"><ele>2.5</ele><time>2021-02-17T11:39:44Z</time><name>PT3631</name></trkpt>
<trkpt lat="53.451196" lon="05.626847"><ele>2.6</ele><time>2021-02-17T11:39:45Z</time><name>PT3632</name></trkpt>
<trkpt lat="53.451203" lon="05.626860"><ele>3</ele><time>2021-02-17T11:39:46Z</time><name>PT3633</name></trkpt>
<trkpt lat="53.451210" lon="05.626867"><ele>2.8</ele><time>2021-02-17T11:39:47Z</time><name>PT3634</name></trkpt>
<trkpt lat="53.451216" lon="05.626873"><ele>2.7</ele><time>2021-02-17T11:39:48Z</time><name>PT3635</name></trkpt>
<trkpt lat="53.451222" lon="05.626885"><ele>2.7</ele><time>2021-02-17T11:39:49Z</time><name>PT3636</name></trkpt>
<trkpt lat="53.451227" lon="05.626893"><ele>2.4</ele><time>2021-02-17T11:39:50Z</time><name>PT3637</name></trkpt>
<trkpt lat="53.451234" lon="05.626906"><ele>2.6</ele><time>2021-02-17T11:39:51Z</time><name>PT3638</name></trkpt>
<trkpt lat="53.451239" lon="05.626921"><ele>2.9</ele><time>2021-02-17T11:39:52Z</time><name>PT3639</name></trkpt>
<trkpt lat="53.451243" lon="05.626936"><ele>3</ele><time>2021-02-17T11:39:53Z</time><name>PT3640</name></trkpt>
<trkpt lat="53.451247" lon="05.626952"><ele>2.9</ele><time>2021-02-17T11:39:54Z</time><name>PT3641</name></trkpt>
<trkpt lat="53.451253" lon="05.626964"><ele>2.5</ele><time>2021-02-17T11:39:55Z</time><name>PT3642</name></trkpt>
<trkpt lat="53.451259" lon="05.626977"><ele>2.4</ele><time>2021-02-17T11:39:56Z</time><name>PT3643</name></trkpt>
<trkpt lat="53.451265" lon="05.626989"><ele>2.3</ele><time>2021-02-17T11:39:57Z</time><name>PT3644</name></trkpt>
<trkpt lat="53.451271" lon="05.627000"><ele>2.4</ele><time>2021-02-17T11:39:58Z</time><name>PT3645</name></trkpt>
<trkpt lat="53.451279" lon="05.627012"><ele>2.5</ele><time>2021-02-17T11:39:59Z</time><name>PT3646</name></trkpt>
<trkpt lat="53.451285" lon="05.627025"><ele>2.4</ele><time>2021-02-17T11:40:00Z</time><name>PT3647</name></trkpt>
<trkpt lat="53.451293" lon="05.627035"><ele>2.4</ele><time>2021-02-17T11:40:01Z</time><name>PT3648</name></trkpt>
<trkpt lat="53.451300" lon="05.627046"><ele>2.4</ele><time>2021-02-17T11:40:02Z</time><name>PT3649</name></trkpt>
<trkpt lat="53.451308" lon="05.627059"><ele>2.3</ele><time>2021-02-17T11:40:03Z</time><name>PT3650</name></trkpt>
<trkpt lat="53.451314" lon="05.627074"><ele>2.3</ele><time>2021-02-17T11:40:04Z</time><name>PT3651</name></trkpt>
<trkpt lat="53.451319" lon="05.627089"><ele>2.4</ele><time>2021-02-17T11:40:05Z</time><name>PT3652</name></trkpt>
<trkpt lat="53.451326" lon="05.627104"><ele>2.4</ele><time>2021-02-17T11:40:06Z</time><name>PT3653</name></trkpt>
<trkpt lat="53.451331" lon="05.627118"><ele>2.5</ele><time>2021-02-17T11:40:07Z</time><name>PT3654</name></trkpt>
<trkpt lat="53.451338" lon="05.627129"><ele>2.5</ele><time>2021-02-17T11:40:08Z</time><name>PT3655</name></trkpt>
<trkpt lat="53.451345" lon="05.627139"><ele>2.4</ele><time>2021-02-17T11:40:09Z</time><name>PT3656</name></trkpt>
<trkpt lat="53.451349" lon="05.627150"><ele>2.4</ele><time>2021-02-17T11:40:10Z</time><name>PT3657</name></trkpt>
<trkpt lat="53.451352" lon="05.627161"><ele>2.5</ele><time>2021-02-17T11:40:11Z</time><name>PT3658</name></trkpt>
<trkpt lat="53.451357" lon="05.627170"><ele>2.5</ele><time>2021-02-17T11:40:12Z</time><name>PT3659</name></trkpt>
<trkpt lat="53.451361" lon="05.627182"><ele>2.5</ele><time>2021-02-17T11:40:13Z</time><name>PT3660</name></trkpt>
<trkpt lat="53.451367" lon="05.627193"><ele>2.6</ele><time>2021-02-17T11:40:14Z</time><name>PT3661</name></trkpt>
<trkpt lat="53.451373" lon="05.627205"><ele>2.5</ele><time>2021-02-17T11:40:15Z</time><name>PT3662</name></trkpt>
<trkpt lat="53.451377" lon="05.627219"><ele>2.4</ele><time>2021-02-17T11:40:16Z</time><name>PT3663</name></trkpt>
<trkpt lat="53.451383" lon="05.627235"><ele>2.4</ele><time>2021-02-17T11:40:17Z</time><name>PT3664</name></trkpt>
<trkpt lat="53.451389" lon="05.627251"><ele>2.6</ele><time>2021-02-17T11:40:18Z</time><name>PT3665</name></trkpt>
<trkpt lat="53.451395" lon="05.627267"><ele>2.4</ele><time>2021-02-17T11:40:19Z</time><name>PT3666</name></trkpt>
<trkpt lat="53.451402" lon="05.627283"><ele>2.3</ele><time>2021-02-17T11:40:20Z</time><name>PT3667</name></trkpt>
<trkpt lat="53.451408" lon="05.627299"><ele>2.2</ele><time>2021-02-17T11:40:21Z</time><name>PT3668</name></trkpt>
<trkpt lat="53.451414" lon="05.627317"><ele>2.1</ele><time>2021-02-17T11:40:22Z</time><name>PT3669</name></trkpt>
<trkpt lat="53.451420" lon="05.627332"><ele>2.2</ele><time>2021-02-17T11:40:23Z</time><name>PT3670</name></trkpt>
<trkpt lat="53.451429" lon="05.627347"><ele>2.3</ele><time>2021-02-17T11:40:24Z</time><name>PT3671</name></trkpt>
<trkpt lat="53.451437" lon="05.627359"><ele>2.4</ele><time>2021-02-17T11:40:25Z</time><name>PT3672</name></trkpt>
<trkpt lat="53.451445" lon="05.627372"><ele>2.5</ele><time>2021-02-17T11:40:26Z</time><name>PT3673</name></trkpt>
<trkpt lat="53.451452" lon="05.627383"><ele>2.4</ele><time>2021-02-17T11:40:27Z</time><name>PT3674</name></trkpt>
<trkpt lat="53.451459" lon="05.627397"><ele>2.6</ele><time>2021-02-17T11:40:28Z</time><name>PT3675</name></trkpt>
<trkpt lat="53.451467" lon="05.627410"><ele>2.6</ele><time>2021-02-17T11:40:29Z</time><name>PT3676</name></trkpt>
<trkpt lat="53.451473" lon="05.627421"><ele>2.6</ele><time>2021-02-17T11:40:30Z</time><name>PT3677</name></trkpt>
<trkpt lat="53.451481" lon="05.627428"><ele>2.7</ele><time>2021-02-17T11:40:31Z</time><name>PT3678</name></trkpt>
<trkpt lat="53.451488" lon="05.627431"><ele>2.7</ele><time>2021-02-17T11:40:32Z</time><name>PT3679</name></trkpt>
<trkpt lat="53.451495" lon="05.627431"><ele>2.6</ele><time>2021-02-17T11:40:33Z</time><name>PT3680</name></trkpt>
<trkpt lat="53.451504" lon="05.627436"><ele>2.5</ele><time>2021-02-17T11:40:34Z</time><name>PT3681</name></trkpt>
<trkpt lat="53.451512" lon="05.627443"><ele>2.4</ele><time>2021-02-17T11:40:35Z</time><name>PT3682</name></trkpt>
<trkpt lat="53.451517" lon="05.627452"><ele>2.2</ele><time>2021-02-17T11:40:36Z</time><name>PT3683</name></trkpt>
<trkpt lat="53.451526" lon="05.627458"><ele>2.2</ele><time>2021-02-17T11:40:37Z</time><name>PT3684</name></trkpt>
<trkpt lat="53.451535" lon="05.627464"><ele>2.4</ele><time>2021-02-17T11:40:38Z</time><name>PT3685</name></trkpt>
<trkpt lat="53.451540" lon="05.627470"><ele>2.4</ele><time>2021-02-17T11:40:39Z</time><name>PT3686</name></trkpt>
<trkpt lat="53.451545" lon="05.627475"><ele>2.3</ele><time>2021-02-17T11:40:40Z</time><name>PT3687</name></trkpt>
<trkpt lat="53.451552" lon="05.627481"><ele>2.4</ele><time>2021-02-17T11:40:41Z</time><name>PT3688</name></trkpt>
<trkpt lat="53.451558" lon="05.627485"><ele>2.4</ele><time>2021-02-17T11:40:42Z</time><name>PT3689</name></trkpt>
<trkpt lat="53.451564" lon="05.627488"><ele>2.4</ele><time>2021-02-17T11:40:43Z</time><name>PT3690</name></trkpt>
<trkpt lat="53.451572" lon="05.627495"><ele>2.5</ele><time>2021-02-17T11:40:44Z</time><name>PT3691</name></trkpt>
<trkpt lat="53.451577" lon="05.627502"><ele>2.8</ele><time>2021-02-17T11:40:45Z</time><name>PT3692</name></trkpt>
<trkpt lat="53.451583" lon="05.627509"><ele>2.7</ele><time>2021-02-17T11:40:46Z</time><name>PT3693</name></trkpt>
<trkpt lat="53.451592" lon="05.627517"><ele>2.8</ele><time>2021-02-17T11:40:47Z</time><name>PT3694</name></trkpt>
<trkpt lat="53.451599" lon="05.627524"><ele>2.9</ele><time>2021-02-17T11:40:48Z</time><name>PT3695</name></trkpt>
<trkpt lat="53.451606" lon="05.627533"><ele>2.8</ele><time>2021-02-17T11:40:49Z</time><name>PT3696</name></trkpt>
<trkpt lat="53.451611" lon="05.627542"><ele>2.9</ele><time>2021-02-17T11:40:50Z</time><name>PT3697</name></trkpt>
<trkpt lat="53.451617" lon="05.627550"><ele>2.9</ele><time>2021-02-17T11:40:51Z</time><name>PT3698</name></trkpt>
<trkpt lat="53.451625" lon="05.627559"><ele>2.9</ele><time>2021-02-17T11:40:52Z</time><name>PT3699</name></trkpt>
<trkpt lat="53.451630" lon="05.627567"><ele>2.8</ele><time>2021-02-17T11:40:53Z</time><name>PT3700</name></trkpt>
<trkpt lat="53.451638" lon="05.627576"><ele>2.8</ele><time>2021-02-17T11:40:54Z</time><name>PT3701</name></trkpt>
<trkpt lat="53.451643" lon="05.627583"><ele>2.9</ele><time>2021-02-17T11:40:55Z</time><name>PT3702</name></trkpt>
<trkpt lat="53.451645" lon="05.627587"><ele>2.9</ele><time>2021-02-17T11:40:56Z</time><name>PT3703</name></trkpt>
<trkpt lat="53.451649" lon="05.627590"><ele>2.9</ele><time>2021-02-17T11:40:57Z</time><name>PT3704</name></trkpt>
<trkpt lat="53.451656" lon="05.627599"><ele>3</ele><time>2021-02-17T11:40:58Z</time><name>PT3705</name></trkpt>
<trkpt lat="53.451660" lon="05.627610"><ele>2.9</ele><time>2021-02-17T11:40:59Z</time><name>PT3706</name></trkpt>
<trkpt lat="53.451667" lon="05.627622"><ele>2.9</ele><time>2021-02-17T11:41:00Z</time><name>PT3707</name></trkpt>
<trkpt lat="53.451677" lon="05.627634"><ele>2.7</ele><time>2021-02-17T11:41:01Z</time><name>PT3708</name></trkpt>
<trkpt lat="53.451684" lon="05.627648"><ele>2.6</ele><time>2021-02-17T11:41:02Z</time><name>PT3709</name></trkpt>
<trkpt lat="53.451689" lon="05.627661"><ele>2.5</ele><time>2021-02-17T11:41:03Z</time><name>PT3710</name></trkpt>
<trkpt lat="53.451695" lon="05.627674"><ele>2.5</ele><time>2021-02-17T11:41:04Z</time><name>PT3711</name></trkpt>
<trkpt lat="53.451702" lon="05.627687"><ele>2.4</ele><time>2021-02-17T11:41:05Z</time><name>PT3712</name></trkpt>
<trkpt lat="53.451711" lon="05.627699"><ele>2.4</ele><time>2021-02-17T11:41:06Z</time><name>PT3713</name></trkpt>
<trkpt lat="53.451721" lon="05.627712"><ele>2.4</ele><time>2021-02-17T11:41:07Z</time><name>PT3714</name></trkpt>
<trkpt lat="53.451726" lon="05.627723"><ele>2.4</ele><time>2021-02-17T11:41:08Z</time><name>PT3715</name></trkpt>
<trkpt lat="53.451725" lon="05.627734"><ele>2.4</ele><time>2021-02-17T11:41:09Z</time><name>PT3716</name></trkpt>
<trkpt lat="53.451729" lon="05.627743"><ele>2.3</ele><time>2021-02-17T11:41:10Z</time><name>PT3717</name></trkpt>
<trkpt lat="53.451736" lon="05.627755"><ele>2.1</ele><time>2021-02-17T11:41:11Z</time><name>PT3718</name></trkpt>
<trkpt lat="53.451745" lon="05.627767"><ele>2.1</ele><time>2021-02-17T11:41:12Z</time><name>PT3719</name></trkpt>
<trkpt lat="53.451753" lon="05.627780"><ele>2.1</ele><time>2021-02-17T11:41:13Z</time><name>PT3720</name></trkpt>
<trkpt lat="53.451760" lon="05.627791"><ele>2.3</ele><time>2021-02-17T11:41:14Z</time><name>PT3721</name></trkpt>
<trkpt lat="53.451767" lon="05.627802"><ele>2.4</ele><time>2021-02-17T11:41:15Z</time><name>PT3722</name></trkpt>
<trkpt lat="53.451774" lon="05.627812"><ele>2.4</ele><time>2021-02-17T11:41:16Z</time><name>PT3723</name></trkpt>
<trkpt lat="53.451781" lon="05.627824"><ele>2.6</ele><time>2021-02-17T11:41:17Z</time><name>PT3724</name></trkpt>
<trkpt lat="53.451787" lon="05.627836"><ele>2.6</ele><time>2021-02-17T11:41:18Z</time><name>PT3725</name></trkpt>
<trkpt lat="53.451794" lon="05.627846"><ele>2.6</ele><time>2021-02-17T11:41:19Z</time><name>PT3726</name></trkpt>
<trkpt lat="53.451799" lon="05.627858"><ele>2.7</ele><time>2021-02-17T11:41:20Z</time><name>PT3727</name></trkpt>
<trkpt lat="53.451803" lon="05.627872"><ele>2.8</ele><time>2021-02-17T11:41:21Z</time><name>PT3728</name></trkpt>
<trkpt lat="53.451809" lon="05.627885"><ele>3</ele><time>2021-02-17T11:41:22Z</time><name>PT3729</name></trkpt>
<trkpt lat="53.451816" lon="05.627899"><ele>3.1</ele><time>2021-02-17T11:41:23Z</time><name>PT3730</name></trkpt>
<trkpt lat="53.451823" lon="05.627911"><ele>3.2</ele><time>2021-02-17T11:41:24Z</time><name>PT3731</name></trkpt>
<trkpt lat="53.451829" lon="05.627922"><ele>3.3</ele><time>2021-02-17T11:41:25Z</time><name>PT3732</name></trkpt>
<trkpt lat="53.451836" lon="05.627932"><ele>3.3</ele><time>2021-02-17T11:41:26Z</time><name>PT3733</name></trkpt>
<trkpt lat="53.451843" lon="05.627941"><ele>3.2</ele><time>2021-02-17T11:41:27Z</time><name>PT3734</name></trkpt>
<trkpt lat="53.451852" lon="05.627952"><ele>3.4</ele><time>2021-02-17T11:41:28Z</time><name>PT3735</name></trkpt>
<trkpt lat="53.451861" lon="05.627960"><ele>3.4</ele><time>2021-02-17T11:41:29Z</time><name>PT3736</name></trkpt>
<trkpt lat="53.451868" lon="05.627969"><ele>3.2</ele><time>2021-02-17T11:41:30Z</time><name>PT3737</name></trkpt>
<trkpt lat="53.451877" lon="05.627980"><ele>3.3</ele><time>2021-02-17T11:41:31Z</time><name>PT3738</name></trkpt>
<trkpt lat="53.451884" lon="05.627989"><ele>3.2</ele><time>2021-02-17T11:41:32Z</time><name>PT3739</name></trkpt>
<trkpt lat="53.451890" lon="05.627999"><ele>3.4</ele><time>2021-02-17T11:41:33Z</time><name>PT3740</name></trkpt>
<trkpt lat="53.451899" lon="05.628009"><ele>3.4</ele><time>2021-02-17T11:41:34Z</time><name>PT3741</name></trkpt>
<trkpt lat="53.451909" lon="05.628019"><ele>3.6</ele><time>2021-02-17T11:41:35Z</time><name>PT3742</name></trkpt>
<trkpt lat="53.451917" lon="05.628025"><ele>3.7</ele><time>2021-02-17T11:41:36Z</time><name>PT3743</name></trkpt>
<trkpt lat="53.451926" lon="05.628029"><ele>3.6</ele><time>2021-02-17T11:41:37Z</time><name>PT3744</name></trkpt>
<trkpt lat="53.451933" lon="05.628036"><ele>3.9</ele><time>2021-02-17T11:41:38Z</time><name>PT3745</name></trkpt>
<trkpt lat="53.451938" lon="05.628045"><ele>3.8</ele><time>2021-02-17T11:41:39Z</time><name>PT3746</name></trkpt>
<trkpt lat="53.451945" lon="05.628054"><ele>3.9</ele><time>2021-02-17T11:41:40Z</time><name>PT3747</name></trkpt>
<trkpt lat="53.451952" lon="05.628062"><ele>3.9</ele><time>2021-02-17T11:41:41Z</time><name>PT3748</name></trkpt>
<trkpt lat="53.451961" lon="05.628070"><ele>3.9</ele><time>2021-02-17T11:41:42Z</time><name>PT3749</name></trkpt>
<trkpt lat="53.451970" lon="05.628079"><ele>3.9</ele><time>2021-02-17T11:41:43Z</time><name>PT3750</name></trkpt>
<trkpt lat="53.451979" lon="05.628088"><ele>3.9</ele><time>2021-02-17T11:41:44Z</time><name>PT3751</name></trkpt>
<trkpt lat="53.451988" lon="05.628097"><ele>3.9</ele><time>2021-02-17T11:41:45Z</time><name>PT3752</name></trkpt>
<trkpt lat="53.451996" lon="05.628107"><ele>3.9</ele><time>2021-02-17T11:41:46Z</time><name>PT3753</name></trkpt>
<trkpt lat="53.452001" lon="05.628116"><ele>3.9</ele><time>2021-02-17T11:41:47Z</time><name>PT3754</name></trkpt>
<trkpt lat="53.452005" lon="05.628124"><ele>4</ele><time>2021-02-17T11:41:48Z</time><name>PT3755</name></trkpt>
<trkpt lat="53.452011" lon="05.628133"><ele>3.8</ele><time>2021-02-17T11:41:49Z</time><name>PT3756</name></trkpt>
<trkpt lat="53.452019" lon="05.628144"><ele>3.8</ele><time>2021-02-17T11:41:50Z</time><name>PT3757</name></trkpt>
<trkpt lat="53.452027" lon="05.628156"><ele>3.7</ele><time>2021-02-17T11:41:51Z</time><name>PT3758</name></trkpt>
<trkpt lat="53.452033" lon="05.628168"><ele>3.5</ele><time>2021-02-17T11:41:52Z</time><name>PT3759</name></trkpt>
<trkpt lat="53.452038" lon="05.628180"><ele>3.4</ele><time>2021-02-17T11:41:53Z</time><name>PT3760</name></trkpt>
<trkpt lat="53.452041" lon="05.628192"><ele>3.3</ele><time>2021-02-17T11:41:54Z</time><name>PT3761</name></trkpt>
<trkpt lat="53.452046" lon="05.628204"><ele>3.1</ele><time>2021-02-17T11:41:55Z</time><name>PT3762</name></trkpt>
<trkpt lat="53.452052" lon="05.628218"><ele>2.9</ele><time>2021-02-17T11:41:56Z</time><name>PT3763</name></trkpt>
<trkpt lat="53.452056" lon="05.628232"><ele>2.9</ele><time>2021-02-17T11:41:57Z</time><name>PT3764</name></trkpt>
<trkpt lat="53.452060" lon="05.628245"><ele>2.9</ele><time>2021-02-17T11:41:58Z</time><name>PT3765</name></trkpt>
<trkpt lat="53.452066" lon="05.628259"><ele>2.7</ele><time>2021-02-17T11:41:59Z</time><name>PT3766</name></trkpt>
<trkpt lat="53.452069" lon="05.628272"><ele>2.8</ele><time>2021-02-17T11:42:00Z</time><name>PT3767</name></trkpt>
<trkpt lat="53.452073" lon="05.628286"><ele>2.7</ele><time>2021-02-17T11:42:01Z</time><name>PT3768</name></trkpt>
<trkpt lat="53.452078" lon="05.628300"><ele>2.7</ele><time>2021-02-17T11:42:02Z</time><name>PT3769</name></trkpt>
<trkpt lat="53.452082" lon="05.628313"><ele>2.7</ele><time>2021-02-17T11:42:03Z</time><name>PT3770</name></trkpt>
<trkpt lat="53.452090" lon="05.628326"><ele>2.9</ele><time>2021-02-17T11:42:04Z</time><name>PT3771</name></trkpt>
<trkpt lat="53.452098" lon="05.628338"><ele>2.9</ele><time>2021-02-17T11:42:05Z</time><name>PT3772</name></trkpt>
<trkpt lat="53.452105" lon="05.628352"><ele>3.1</ele><time>2021-02-17T11:42:06Z</time><name>PT3773</name></trkpt>
<trkpt lat="53.452109" lon="05.628364"><ele>3.1</ele><time>2021-02-17T11:42:07Z</time><name>PT3774</name></trkpt>
<trkpt lat="53.452115" lon="05.628381"><ele>3.1</ele><time>2021-02-17T11:42:08Z</time><name>PT3775</name></trkpt>
<trkpt lat="53.452121" lon="05.628399"><ele>3</ele><time>2021-02-17T11:42:09Z</time><name>PT3776</name></trkpt>
<trkpt lat="53.452129" lon="05.628412"><ele>2.9</ele><time>2021-02-17T11:42:10Z</time><name>PT3777</name></trkpt>
<trkpt lat="53.452140" lon="05.628425"><ele>2.9</ele><time>2021-02-17T11:42:11Z</time><name>PT3778</name></trkpt>
<trkpt lat="53.452146" lon="05.628439"><ele>2.8</ele><time>2021-02-17T11:42:12Z</time><name>PT3779</name></trkpt>
<trkpt lat="53.452153" lon="05.628452"><ele>2.9</ele><time>2021-02-17T11:42:13Z</time><name>PT3780</name></trkpt>
<trkpt lat="53.452156" lon="05.628463"><ele>2.9</ele><time>2021-02-17T11:42:14Z</time><name>PT3781</name></trkpt>
<trkpt lat="53.452163" lon="05.628476"><ele>2.9</ele><time>2021-02-17T11:42:15Z</time><name>PT3782</name></trkpt>
<trkpt lat="53.452171" lon="05.628488"><ele>2.8</ele><time>2021-02-17T11:42:16Z</time><name>PT3783</name></trkpt>
<trkpt lat="53.452178" lon="05.628500"><ele>2.7</ele><time>2021-02-17T11:42:17Z</time><name>PT3784</name></trkpt>
<trkpt lat="53.452185" lon="05.628513"><ele>2.7</ele><time>2021-02-17T11:42:18Z</time><name>PT3785</name></trkpt>
<trkpt lat="53.452192" lon="05.628524"><ele>2.7</ele><time>2021-02-17T11:42:19Z</time><name>PT3786</name></trkpt>
<trkpt lat="53.452200" lon="05.628534"><ele>2.6</ele><time>2021-02-17T11:42:20Z</time><name>PT3787</name></trkpt>
<trkpt lat="53.452208" lon="05.628544"><ele>2.7</ele><time>2021-02-17T11:42:21Z</time><name>PT3788</name></trkpt>
<trkpt lat="53.452213" lon="05.628553"><ele>2.9</ele><time>2021-02-17T11:42:22Z</time><name>PT3789</name></trkpt>
<trkpt lat="53.452220" lon="05.628564"><ele>2.9</ele><time>2021-02-17T11:42:23Z</time><name>PT3790</name></trkpt>
<trkpt lat="53.452229" lon="05.628575"><ele>3</ele><time>2021-02-17T11:42:24Z</time><name>PT3791</name></trkpt>
<trkpt lat="53.452235" lon="05.628587"><ele>3</ele><time>2021-02-17T11:42:25Z</time><name>PT3792</name></trkpt>
<trkpt lat="53.452243" lon="05.628596"><ele>3</ele><time>2021-02-17T11:42:26Z</time><name>PT3793</name></trkpt>
<trkpt lat="53.452248" lon="05.628604"><ele>3</ele><time>2021-02-17T11:42:27Z</time><name>PT3794</name></trkpt>
<trkpt lat="53.452255" lon="05.628614"><ele>2.9</ele><time>2021-02-17T11:42:28Z</time><name>PT3795</name></trkpt>
<trkpt lat="53.452262" lon="05.628625"><ele>2.9</ele><time>2021-02-17T11:42:29Z</time><name>PT3796</name></trkpt>
<trkpt lat="53.452269" lon="05.628637"><ele>2.9</ele><time>2021-02-17T11:42:30Z</time><name>PT3797</name></trkpt>
<trkpt lat="53.452276" lon="05.628647"><ele>3</ele><time>2021-02-17T11:42:31Z</time><name>PT3798</name></trkpt>
<trkpt lat="53.452282" lon="05.628654"><ele>3</ele><time>2021-02-17T11:42:32Z</time><name>PT3799</name></trkpt>
<trkpt lat="53.452288" lon="05.628661"><ele>3.3</ele><time>2021-02-17T11:42:33Z</time><name>PT3800</name></trkpt>
<trkpt lat="53.452294" lon="05.628670"><ele>3.4</ele><time>2021-02-17T11:42:34Z</time><name>PT3801</name></trkpt>
<trkpt lat="53.452299" lon="05.628679"><ele>3.7</ele><time>2021-02-17T11:42:35Z</time><name>PT3802</name></trkpt>
<trkpt lat="53.452308" lon="05.628691"><ele>3.8</ele><time>2021-02-17T11:42:36Z</time><name>PT3803</name></trkpt>
<trkpt lat="53.452315" lon="05.628705"><ele>3.9</ele><time>2021-02-17T11:42:37Z</time><name>PT3804</name></trkpt>
<trkpt lat="53.452321" lon="05.628717"><ele>3.9</ele><time>2021-02-17T11:42:38Z</time><name>PT3805</name></trkpt>
<trkpt lat="53.452328" lon="05.628729"><ele>3.7</ele><time>2021-02-17T11:42:39Z</time><name>PT3806</name></trkpt>
<trkpt lat="53.452334" lon="05.628740"><ele>3.4</ele><time>2021-02-17T11:42:40Z</time><name>PT3807</name></trkpt>
<trkpt lat="53.452339" lon="05.628748"><ele>3.3</ele><time>2021-02-17T11:42:41Z</time><name>PT3808</name></trkpt>
<trkpt lat="53.452346" lon="05.628762"><ele>3.2</ele><time>2021-02-17T11:42:42Z</time><name>PT3809</name></trkpt>
<trkpt lat="53.452351" lon="05.628773"><ele>3.3</ele><time>2021-02-17T11:42:43Z</time><name>PT3810</name></trkpt>
<trkpt lat="53.452356" lon="05.628783"><ele>3.4</ele><time>2021-02-17T11:42:44Z</time><name>PT3811</name></trkpt>
<trkpt lat="53.452365" lon="05.628795"><ele>3.3</ele><time>2021-02-17T11:42:45Z</time><name>PT3812</name></trkpt>
<trkpt lat="53.452372" lon="05.628807"><ele>3.2</ele><time>2021-02-17T11:42:46Z</time><name>PT3813</name></trkpt>
<trkpt lat="53.452379" lon="05.628822"><ele>2.9</ele><time>2021-02-17T11:42:47Z</time><name>PT3814</name></trkpt>
<trkpt lat="53.452383" lon="05.628835"><ele>3.1</ele><time>2021-02-17T11:42:48Z</time><name>PT3815</name></trkpt>
<trkpt lat="53.452390" lon="05.628846"><ele>3.2</ele><time>2021-02-17T11:42:49Z</time><name>PT3816</name></trkpt>
<trkpt lat="53.452397" lon="05.628859"><ele>3.3</ele><time>2021-02-17T11:42:50Z</time><name>PT3817</name></trkpt>
<trkpt lat="53.452403" lon="05.628871"><ele>3.1</ele><time>2021-02-17T11:42:51Z</time><name>PT3818</name></trkpt>
<trkpt lat="53.452410" lon="05.628882"><ele>3.4</ele><time>2021-02-17T11:42:52Z</time><name>PT3819</name></trkpt>
<trkpt lat="53.452418" lon="05.628891"><ele>3.4</ele><time>2021-02-17T11:42:53Z</time><name>PT3820</name></trkpt>
<trkpt lat="53.452426" lon="05.628898"><ele>3.4</ele><time>2021-02-17T11:42:54Z</time><name>PT3821</name></trkpt>
<trkpt lat="53.452433" lon="05.628907"><ele>3.6</ele><time>2021-02-17T11:42:55Z</time><name>PT3822</name></trkpt>
<trkpt lat="53.452440" lon="05.628919"><ele>3.4</ele><time>2021-02-17T11:42:56Z</time><name>PT3823</name></trkpt>
<trkpt lat="53.452447" lon="05.628930"><ele>3.3</ele><time>2021-02-17T11:42:57Z</time><name>PT3824</name></trkpt>
<trkpt lat="53.452454" lon="05.628938"><ele>3.2</ele><time>2021-02-17T11:42:58Z</time><name>PT3825</name></trkpt>
<trkpt lat="53.452462" lon="05.628947"><ele>3.1</ele><time>2021-02-17T11:42:59Z</time><name>PT3826</name></trkpt>
<trkpt lat="53.452470" lon="05.628957"><ele>3.1</ele><time>2021-02-17T11:43:00Z</time><name>PT3827</name></trkpt>
<trkpt lat="53.452475" lon="05.628965"><ele>3.4</ele><time>2021-02-17T11:43:01Z</time><name>PT3828</name></trkpt>
<trkpt lat="53.452480" lon="05.628974"><ele>3.5</ele><time>2021-02-17T11:43:02Z</time><name>PT3829</name></trkpt>
<trkpt lat="53.452487" lon="05.628986"><ele>3.5</ele><time>2021-02-17T11:43:03Z</time><name>PT3830</name></trkpt>
<trkpt lat="53.452495" lon="05.628997"><ele>3.5</ele><time>2021-02-17T11:43:04Z</time><name>PT3831</name></trkpt>
<trkpt lat="53.452502" lon="05.629005"><ele>3.5</ele><time>2021-02-17T11:43:05Z</time><name>PT3832</name></trkpt>
<trkpt lat="53.452510" lon="05.629012"><ele>3.4</ele><time>2021-02-17T11:43:06Z</time><name>PT3833</name></trkpt>
<trkpt lat="53.452519" lon="05.629021"><ele>3.5</ele><time>2021-02-17T11:43:07Z</time><name>PT3834</name></trkpt>
<trkpt lat="53.452525" lon="05.629029"><ele>3.6</ele><time>2021-02-17T11:43:08Z</time><name>PT3835</name></trkpt>
<trkpt lat="53.452532" lon="05.629038"><ele>3.6</ele><time>2021-02-17T11:43:09Z</time><name>PT3836</name></trkpt>
<trkpt lat="53.452542" lon="05.629050"><ele>3.5</ele><time>2021-02-17T11:43:10Z</time><name>PT3837</name></trkpt>
<trkpt lat="53.452550" lon="05.629061"><ele>3.4</ele><time>2021-02-17T11:43:11Z</time><name>PT3838</name></trkpt>
<trkpt lat="53.452558" lon="05.629070"><ele>3.1</ele><time>2021-02-17T11:43:12Z</time><name>PT3839</name></trkpt>
<trkpt lat="53.452566" lon="05.629077"><ele>3.2</ele><time>2021-02-17T11:43:13Z</time><name>PT3840</name></trkpt>
<trkpt lat="53.452574" lon="05.629083"><ele>3.4</ele><time>2021-02-17T11:43:14Z</time><name>PT3841</name></trkpt>
<trkpt lat="53.452580" lon="05.629093"><ele>3.3</ele><time>2021-02-17T11:43:15Z</time><name>PT3842</name></trkpt>
<trkpt lat="53.452587" lon="05.629106"><ele>3.4</ele><time>2021-02-17T11:43:16Z</time><name>PT3843</name></trkpt>
<trkpt lat="53.452595" lon="05.629117"><ele>3.4</ele><time>2021-02-17T11:43:17Z</time><name>PT3844</name></trkpt>
<trkpt lat="53.452603" lon="05.629124"><ele>3.4</ele><time>2021-02-17T11:43:18Z</time><name>PT3845</name></trkpt>
<trkpt lat="53.452609" lon="05.629134"><ele>3.4</ele><time>2021-02-17T11:43:19Z</time><name>PT3846</name></trkpt>
<trkpt lat="53.452615" lon="05.629146"><ele>3.5</ele><time>2021-02-17T11:43:20Z</time><name>PT3847</name></trkpt>
<trkpt lat="53.452620" lon="05.629159"><ele>3.4</ele><time>2021-02-17T11:43:21Z</time><name>PT3848</name></trkpt>
<trkpt lat="53.452626" lon="05.629169"><ele>3.6</ele><time>2021-02-17T11:43:22Z</time><name>PT3849</name></trkpt>
<trkpt lat="53.452631" lon="05.629175"><ele>3.6</ele><time>2021-02-17T11:43:23Z</time><name>PT3850</name></trkpt>
<trkpt lat="53.452634" lon="05.629175"><ele>3.5</ele><time>2021-02-17T11:43:24Z</time><name>PT3851</name></trkpt>
<trkpt lat="53.452642" lon="05.629176"><ele>3.7</ele><time>2021-02-17T11:43:25Z</time><name>PT3852</name></trkpt>
<trkpt lat="53.452644" lon="05.629176"><ele>3.4</ele><time>2021-02-17T11:43:26Z</time><name>PT3853</name></trkpt>
<trkpt lat="53.452646" lon="05.629175"><ele>3.3</ele><time>2021-02-17T11:43:27Z</time><name>PT3854</name></trkpt>
<trkpt lat="53.452645" lon="05.629174"><ele>2.9</ele><time>2021-02-17T11:43:29Z</time><name>PT3855</name></trkpt>
<trkpt lat="53.452650" lon="05.629178"><ele>3</ele><time>2021-02-17T11:43:30Z</time><name>PT3856</name></trkpt>
<trkpt lat="53.452656" lon="05.629184"><ele>3.1</ele><time>2021-02-17T11:43:31Z</time><name>PT3857</name></trkpt>
<trkpt lat="53.452664" lon="05.629191"><ele>3.4</ele><time>2021-02-17T11:43:32Z</time><name>PT3858</name></trkpt>
<trkpt lat="53.452668" lon="05.629198"><ele>3.7</ele><time>2021-02-17T11:43:33Z</time><name>PT3859</name></trkpt>
<trkpt lat="53.452676" lon="05.629205"><ele>3.8</ele><time>2021-02-17T11:43:34Z</time><name>PT3860</name></trkpt>
<trkpt lat="53.452683" lon="05.629207"><ele>3.9</ele><time>2021-02-17T11:43:35Z</time><name>PT3861</name></trkpt>
<trkpt lat="53.452692" lon="05.629214"><ele>3.9</ele><time>2021-02-17T11:43:36Z</time><name>PT3862</name></trkpt>
<trkpt lat="53.452697" lon="05.629225"><ele>3.9</ele><time>2021-02-17T11:43:37Z</time><name>PT3863</name></trkpt>
<trkpt lat="53.452702" lon="05.629226"><ele>3.7</ele><time>2021-02-17T11:43:38Z</time><name>PT3864</name></trkpt>
<trkpt lat="53.452707" lon="05.629228"><ele>3.7</ele><time>2021-02-17T11:43:39Z</time><name>PT3865</name></trkpt>
<trkpt lat="53.452710" lon="05.629227"><ele>3.5</ele><time>2021-02-17T11:43:40Z</time><name>PT3866</name></trkpt>
<trkpt lat="53.452712" lon="05.629228"><ele>3.5</ele><time>2021-02-17T11:43:41Z</time><name>PT3867</name></trkpt>
<trkpt lat="53.452711" lon="05.629230"><ele>3.6</ele><time>2021-02-17T11:43:42Z</time><name>PT3868</name></trkpt>
<trkpt lat="53.452708" lon="05.629233"><ele>3.4</ele><time>2021-02-17T11:43:43Z</time><name>PT3869</name></trkpt>
<trkpt lat="53.452708" lon="05.629236"><ele>3.5</ele><time>2021-02-17T11:43:44Z</time><name>PT3870</name></trkpt>
<trkpt lat="53.452706" lon="05.629239"><ele>3.6</ele><time>2021-02-17T11:43:45Z</time><name>PT3871</name></trkpt>
<trkpt lat="53.452698" lon="05.629252"><ele>3.5</ele><time>2021-02-17T11:45:04Z</time><name>PT3872</name></trkpt>
<trkpt lat="53.452694" lon="05.629250"><ele>3.7</ele><time>2021-02-17T11:45:05Z</time><name>PT3873</name></trkpt>
<trkpt lat="53.452693" lon="05.629252"><ele>3.9</ele><time>2021-02-17T11:45:06Z</time><name>PT3874</name></trkpt>
<trkpt lat="53.452694" lon="05.629251"><ele>3.9</ele><time>2021-02-17T11:45:07Z</time><name>PT3875</name></trkpt>
<trkpt lat="53.452693" lon="05.629253"><ele>3.9</ele><time>2021-02-17T11:45:08Z</time><name>PT3876</name></trkpt>
<trkpt lat="53.452693" lon="05.629255"><ele>3.9</ele><time>2021-02-17T11:45:16Z</time><name>PT3877</name></trkpt>
<trkpt lat="53.452706" lon="05.629261"><ele>4</ele><time>2021-02-17T11:45:17Z</time><name>PT3878</name></trkpt>
<trkpt lat="53.452721" lon="05.629273"><ele>4</ele><time>2021-02-17T11:45:18Z</time><name>PT3879</name></trkpt>
<trkpt lat="53.452733" lon="05.629280"><ele>3.9</ele><time>2021-02-17T11:45:19Z</time><name>PT3880</name></trkpt>
<trkpt lat="53.452741" lon="05.629290"><ele>3.8</ele><time>2021-02-17T11:45:20Z</time><name>PT3881</name></trkpt>
<trkpt lat="53.452748" lon="05.629301"><ele>3.9</ele><time>2021-02-17T11:45:21Z</time><name>PT3882</name></trkpt>
<trkpt lat="53.452757" lon="05.629311"><ele>3.9</ele><time>2021-02-17T11:45:22Z</time><name>PT3883</name></trkpt>
<trkpt lat="53.452765" lon="05.629323"><ele>3.9</ele><time>2021-02-17T11:45:23Z</time><name>PT3884</name></trkpt>
<trkpt lat="53.452775" lon="05.629335"><ele>3.9</ele><time>2021-02-17T11:45:24Z</time><name>PT3885</name></trkpt>
<trkpt lat="53.452785" lon="05.629346"><ele>3.8</ele><time>2021-02-17T11:45:25Z</time><name>PT3886</name></trkpt>
<trkpt lat="53.452793" lon="05.629357"><ele>3.5</ele><time>2021-02-17T11:45:26Z</time><name>PT3887</name></trkpt>
<trkpt lat="53.452800" lon="05.629368"><ele>3.4</ele><time>2021-02-17T11:45:27Z</time><name>PT3888</name></trkpt>
<trkpt lat="53.452805" lon="05.629379"><ele>3.3</ele><time>2021-02-17T11:45:28Z</time><name>PT3889</name></trkpt>
<trkpt lat="53.452809" lon="05.629393"><ele>3.3</ele><time>2021-02-17T11:45:29Z</time><name>PT3890</name></trkpt>
<trkpt lat="53.452814" lon="05.629404"><ele>3.4</ele><time>2021-02-17T11:45:30Z</time><name>PT3891</name></trkpt>
<trkpt lat="53.452816" lon="05.629417"><ele>3.4</ele><time>2021-02-17T11:45:31Z</time><name>PT3892</name></trkpt>
<trkpt lat="53.452821" lon="05.629433"><ele>3.5</ele><time>2021-02-17T11:45:32Z</time><name>PT3893</name></trkpt>
<trkpt lat="53.452823" lon="05.629447"><ele>3.6</ele><time>2021-02-17T11:45:33Z</time><name>PT3894</name></trkpt>
<trkpt lat="53.452826" lon="05.629460"><ele>3.4</ele><time>2021-02-17T11:45:34Z</time><name>PT3895</name></trkpt>
<trkpt lat="53.452831" lon="05.629471"><ele>3.2</ele><time>2021-02-17T11:45:35Z</time><name>PT3896</name></trkpt>
<trkpt lat="53.452837" lon="05.629483"><ele>3.1</ele><time>2021-02-17T11:45:36Z</time><name>PT3897</name></trkpt>
<trkpt lat="53.452843" lon="05.629494"><ele>3</ele><time>2021-02-17T11:45:37Z</time><name>PT3898</name></trkpt>
<trkpt lat="53.452847" lon="05.629508"><ele>3.1</ele><time>2021-02-17T11:45:38Z</time><name>PT3899</name></trkpt>
<trkpt lat="53.452852" lon="05.629524"><ele>3.1</ele><time>2021-02-17T11:45:39Z</time><name>PT3900</name></trkpt>
<trkpt lat="53.452857" lon="05.629536"><ele>3.1</ele><time>2021-02-17T11:45:40Z</time><name>PT3901</name></trkpt>
<trkpt lat="53.452861" lon="05.629549"><ele>3.1</ele><time>2021-02-17T11:45:41Z</time><name>PT3902</name></trkpt>
<trkpt lat="53.452867" lon="05.629561"><ele>3.4</ele><time>2021-02-17T11:45:42Z</time><name>PT3903</name></trkpt>
<trkpt lat="53.452875" lon="05.629572"><ele>3.6</ele><time>2021-02-17T11:45:43Z</time><name>PT3904</name></trkpt>
<trkpt lat="53.452882" lon="05.629584"><ele>3.7</ele><time>2021-02-17T11:45:44Z</time><name>PT3905</name></trkpt>
<trkpt lat="53.452889" lon="05.629594"><ele>3.6</ele><time>2021-02-17T11:45:45Z</time><name>PT3906</name></trkpt>
<trkpt lat="53.452895" lon="05.629605"><ele>3.7</ele><time>2021-02-17T11:45:46Z</time><name>PT3907</name></trkpt>
<trkpt lat="53.452902" lon="05.629615"><ele>3.7</ele><time>2021-02-17T11:45:47Z</time><name>PT3908</name></trkpt>
<trkpt lat="53.452910" lon="05.629621"><ele>3.9</ele><time>2021-02-17T11:45:48Z</time><name>PT3909</name></trkpt>
<trkpt lat="53.452918" lon="05.629626"><ele>3.9</ele><time>2021-02-17T11:45:49Z</time><name>PT3910</name></trkpt>
<trkpt lat="53.452926" lon="05.629634"><ele>3.9</ele><time>2021-02-17T11:45:50Z</time><name>PT3911</name></trkpt>
<trkpt lat="53.452931" lon="05.629643"><ele>3.9</ele><time>2021-02-17T11:45:51Z</time><name>PT3912</name></trkpt>
<trkpt lat="53.452936" lon="05.629655"><ele>4</ele><time>2021-02-17T11:45:52Z</time><name>PT3913</name></trkpt>
<trkpt lat="53.452944" lon="05.629664"><ele>4</ele><time>2021-02-17T11:45:53Z</time><name>PT3914</name></trkpt>
<trkpt lat="53.452951" lon="05.629670"><ele>4</ele><time>2021-02-17T11:45:54Z</time><name>PT3915</name></trkpt>
<trkpt lat="53.452958" lon="05.629676"><ele>4</ele><time>2021-02-17T11:45:55Z</time><name>PT3916</name></trkpt>
<trkpt lat="53.452966" lon="05.629682"><ele>4</ele><time>2021-02-17T11:45:56Z</time><name>PT3917</name></trkpt>
<trkpt lat="53.452973" lon="05.629691"><ele>4.2</ele><time>2021-02-17T11:45:57Z</time><name>PT3918</name></trkpt>
<trkpt lat="53.452980" lon="05.629698"><ele>4.4</ele><time>2021-02-17T11:45:58Z</time><name>PT3919</name></trkpt>
<trkpt lat="53.452985" lon="05.629704"><ele>4.3</ele><time>2021-02-17T11:45:59Z</time><name>PT3920</name></trkpt>
<trkpt lat="53.452990" lon="05.629709"><ele>4.3</ele><time>2021-02-17T11:46:00Z</time><name>PT3921</name></trkpt>
<trkpt lat="53.452993" lon="05.629718"><ele>4.2</ele><time>2021-02-17T11:46:01Z</time><name>PT3922</name></trkpt>
<trkpt lat="53.452995" lon="05.629726"><ele>4.1</ele><time>2021-02-17T11:46:02Z</time><name>PT3923</name></trkpt>
<trkpt lat="53.452997" lon="05.629728"><ele>4.1</ele><time>2021-02-17T11:46:03Z</time><name>PT3924</name></trkpt>
<trkpt lat="53.452998" lon="05.629730"><ele>4.1</ele><time>2021-02-17T11:46:04Z</time><name>PT3925</name></trkpt>
<trkpt lat="53.452998" lon="05.629732"><ele>4.3</ele><time>2021-02-17T11:46:05Z</time><name>PT3926</name></trkpt>
<trkpt lat="53.453000" lon="05.629734"><ele>4.4</ele><time>2021-02-17T11:46:06Z</time><name>PT3927</name></trkpt>
<trkpt lat="53.453000" lon="05.629736"><ele>4.4</ele><time>2021-02-17T11:46:07Z</time><name>PT3928</name></trkpt>
<trkpt lat="53.453006" lon="05.629729"><ele>4.2</ele><time>2021-02-17T11:46:11Z</time><name>PT3929</name></trkpt>
<trkpt lat="53.453010" lon="05.629740"><ele>4.3</ele><time>2021-02-17T11:46:12Z</time><name>PT3930</name></trkpt>
<trkpt lat="53.453016" lon="05.629752"><ele>4.2</ele><time>2021-02-17T11:46:13Z</time><name>PT3931</name></trkpt>
<trkpt lat="53.453018" lon="05.629743"><ele>4.3</ele><time>2021-02-17T11:46:14Z</time><name>PT3932</name></trkpt>
<trkpt lat="53.453028" lon="05.629752"><ele>4.3</ele><time>2021-02-17T11:46:15Z</time><name>PT3933</name></trkpt>
<trkpt lat="53.453038" lon="05.629759"><ele>4</ele><time>2021-02-17T11:46:16Z</time><name>PT3934</name></trkpt>
<trkpt lat="53.453051" lon="05.629768"><ele>4.1</ele><time>2021-02-17T11:46:17Z</time><name>PT3935</name></trkpt>
<trkpt lat="53.453058" lon="05.629783"><ele>4.2</ele><time>2021-02-17T11:46:18Z</time><name>PT3936</name></trkpt>
<trkpt lat="53.453068" lon="05.629792"><ele>4.1</ele><time>2021-02-17T11:46:19Z</time><name>PT3937</name></trkpt>
<trkpt lat="53.453076" lon="05.629800"><ele>4.1</ele><time>2021-02-17T11:46:20Z</time><name>PT3938</name></trkpt>
<trkpt lat="53.453085" lon="05.629811"><ele>3.9</ele><time>2021-02-17T11:46:21Z</time><name>PT3939</name></trkpt>
<trkpt lat="53.453090" lon="05.629818"><ele>3.9</ele><time>2021-02-17T11:46:22Z</time><name>PT3940</name></trkpt>
<trkpt lat="53.453096" lon="05.629829"><ele>3.9</ele><time>2021-02-17T11:46:23Z</time><name>PT3941</name></trkpt>
<trkpt lat="53.453099" lon="05.629845"><ele>4</ele><time>2021-02-17T11:46:24Z</time><name>PT3942</name></trkpt>
<trkpt lat="53.453103" lon="05.629864"><ele>4.2</ele><time>2021-02-17T11:46:25Z</time><name>PT3943</name></trkpt>
<trkpt lat="53.453108" lon="05.629880"><ele>4.4</ele><time>2021-02-17T11:46:26Z</time><name>PT3944</name></trkpt>
<trkpt lat="53.453116" lon="05.629894"><ele>4.3</ele><time>2021-02-17T11:46:27Z</time><name>PT3945</name></trkpt>
<trkpt lat="53.453120" lon="05.629908"><ele>4.4</ele><time>2021-02-17T11:46:28Z</time><name>PT3946</name></trkpt>
<trkpt lat="53.453123" lon="05.629921"><ele>4.4</ele><time>2021-02-17T11:46:29Z</time><name>PT3947</name></trkpt>
<trkpt lat="53.453129" lon="05.629934"><ele>4.4</ele><time>2021-02-17T11:46:30Z</time><name>PT3948</name></trkpt>
<trkpt lat="53.453132" lon="05.629949"><ele>4.4</ele><time>2021-02-17T11:46:31Z</time><name>PT3949</name></trkpt>
<trkpt lat="53.453137" lon="05.629962"><ele>4.7</ele><time>2021-02-17T11:46:32Z</time><name>PT3950</name></trkpt>
<trkpt lat="53.453142" lon="05.629974"><ele>4.7</ele><time>2021-02-17T11:46:33Z</time><name>PT3951</name></trkpt>
<trkpt lat="53.453146" lon="05.629987"><ele>4.8</ele><time>2021-02-17T11:46:34Z</time><name>PT3952</name></trkpt>
<trkpt lat="53.453148" lon="05.630001"><ele>4.9</ele><time>2021-02-17T11:46:35Z</time><name>PT3953</name></trkpt>
<trkpt lat="53.453154" lon="05.630016"><ele>5</ele><time>2021-02-17T11:46:36Z</time><name>PT3954</name></trkpt>
<trkpt lat="53.453153" lon="05.630028"><ele>5</ele><time>2021-02-17T11:46:37Z</time><name>PT3955</name></trkpt>
<trkpt lat="53.453154" lon="05.630040"><ele>5.1</ele><time>2021-02-17T11:46:38Z</time><name>PT3956</name></trkpt>
<trkpt lat="53.453154" lon="05.630052"><ele>5.1</ele><time>2021-02-17T11:46:39Z</time><name>PT3957</name></trkpt>
<trkpt lat="53.453155" lon="05.630067"><ele>5.2</ele><time>2021-02-17T11:46:40Z</time><name>PT3958</name></trkpt>
<trkpt lat="53.453155" lon="05.630083"><ele>5.3</ele><time>2021-02-17T11:46:41Z</time><name>PT3959</name></trkpt>
<trkpt lat="53.453154" lon="05.630097"><ele>5.6</ele><time>2021-02-17T11:46:42Z</time><name>PT3960</name></trkpt>
<trkpt lat="53.453153" lon="05.630112"><ele>5.8</ele><time>2021-02-17T11:46:43Z</time><name>PT3961</name></trkpt>
<trkpt lat="53.453151" lon="05.630128"><ele>5.9</ele><time>2021-02-17T11:46:44Z</time><name>PT3962</name></trkpt>
<trkpt lat="53.453152" lon="05.630143"><ele>5.9</ele><time>2021-02-17T11:46:45Z</time><name>PT3963</name></trkpt>
<trkpt lat="53.453155" lon="05.630156"><ele>5.8</ele><time>2021-02-17T11:46:46Z</time><name>PT3964</name></trkpt>
<trkpt lat="53.453159" lon="05.630170"><ele>6</ele><time>2021-02-17T11:46:47Z</time><name>PT3965</name></trkpt>
<trkpt lat="53.453160" lon="05.630185"><ele>6</ele><time>2021-02-17T11:46:48Z</time><name>PT3966</name></trkpt>
<trkpt lat="53.453160" lon="05.630201"><ele>5.9</ele><time>2021-02-17T11:46:49Z</time><name>PT3967</name></trkpt>
<trkpt lat="53.453159" lon="05.630214"><ele>5.9</ele><time>2021-02-17T11:46:50Z</time><name>PT3968</name></trkpt>
<trkpt lat="53.453156" lon="05.630228"><ele>5.9</ele><time>2021-02-17T11:46:51Z</time><name>PT3969</name></trkpt>
<trkpt lat="53.453155" lon="05.630243"><ele>5.9</ele><time>2021-02-17T11:46:52Z</time><name>PT3970</name></trkpt>
<trkpt lat="53.453156" lon="05.630258"><ele>6</ele><time>2021-02-17T11:46:53Z</time><name>PT3971</name></trkpt>
<trkpt lat="53.453156" lon="05.630274"><ele>6.1</ele><time>2021-02-17T11:46:54Z</time><name>PT3972</name></trkpt>
<trkpt lat="53.453155" lon="05.630289"><ele>6.3</ele><time>2021-02-17T11:46:55Z</time><name>PT3973</name></trkpt>
<trkpt lat="53.453154" lon="05.630302"><ele>6.5</ele><time>2021-02-17T11:46:56Z</time><name>PT3974</name></trkpt>
<trkpt lat="53.453154" lon="05.630318"><ele>6.5</ele><time>2021-02-17T11:46:57Z</time><name>PT3975</name></trkpt>
<trkpt lat="53.453154" lon="05.630332"><ele>6.7</ele><time>2021-02-17T11:46:58Z</time><name>PT3976</name></trkpt>
<trkpt lat="53.453151" lon="05.630344"><ele>6.7</ele><time>2021-02-17T11:46:59Z</time><name>PT3977</name></trkpt>
<trkpt lat="53.453146" lon="05.630359"><ele>6.5</ele><time>2021-02-17T11:47:00Z</time><name>PT3978</name></trkpt>
<trkpt lat="53.453143" lon="05.630373"><ele>6.6</ele><time>2021-02-17T11:47:01Z</time><name>PT3979</name></trkpt>
<trkpt lat="53.453141" lon="05.630388"><ele>6.7</ele><time>2021-02-17T11:47:02Z</time><name>PT3980</name></trkpt>
<trkpt lat="53.453140" lon="05.630402"><ele>6.8</ele><time>2021-02-17T11:47:03Z</time><name>PT3981</name></trkpt>
<trkpt lat="53.453141" lon="05.630418"><ele>6.7</ele><time>2021-02-17T11:47:04Z</time><name>PT3982</name></trkpt>
<trkpt lat="53.453142" lon="05.630430"><ele>6.8</ele><time>2021-02-17T11:47:05Z</time><name>PT3983</name></trkpt>
<trkpt lat="53.453143" lon="05.630444"><ele>6.6</ele><time>2021-02-17T11:47:06Z</time><name>PT3984</name></trkpt>
<trkpt lat="53.453143" lon="05.630462"><ele>6.8</ele><time>2021-02-17T11:47:07Z</time><name>PT3985</name></trkpt>
<trkpt lat="53.453141" lon="05.630476"><ele>6.8</ele><time>2021-02-17T11:47:08Z</time><name>PT3986</name></trkpt>
<trkpt lat="53.453139" lon="05.630489"><ele>7</ele><time>2021-02-17T11:47:09Z</time><name>PT3987</name></trkpt>
<trkpt lat="53.453137" lon="05.630504"><ele>7.1</ele><time>2021-02-17T11:47:10Z</time><name>PT3988</name></trkpt>
<trkpt lat="53.453135" lon="05.630524"><ele>7</ele><time>2021-02-17T11:47:11Z</time><name>PT3989</name></trkpt>
<trkpt lat="53.453132" lon="05.630544"><ele>7.2</ele><time>2021-02-17T11:47:12Z</time><name>PT3990</name></trkpt>
<trkpt lat="53.453128" lon="05.630557"><ele>7.2</ele><time>2021-02-17T11:47:13Z</time><name>PT3991</name></trkpt>
<trkpt lat="53.453124" lon="05.630571"><ele>7.6</ele><time>2021-02-17T11:47:14Z</time><name>PT3992</name></trkpt>
<trkpt lat="53.453121" lon="05.630586"><ele>7.7</ele><time>2021-02-17T11:47:15Z</time><name>PT3993</name></trkpt>
<trkpt lat="53.453119" lon="05.630601"><ele>7.8</ele><time>2021-02-17T11:47:16Z</time><name>PT3994</name></trkpt>
<trkpt lat="53.453119" lon="05.630616"><ele>7.8</ele><time>2021-02-17T11:47:17Z</time><name>PT3995</name></trkpt>
<trkpt lat="53.453119" lon="05.630630"><ele>7.8</ele><time>2021-02-17T11:47:18Z</time><name>PT3996</name></trkpt>
<trkpt lat="53.453118" lon="05.630647"><ele>7.8</ele><time>2021-02-17T11:47:19Z</time><name>PT3997</name></trkpt>
<trkpt lat="53.453115" lon="05.630663"><ele>7.8</ele><time>2021-02-17T11:47:20Z</time><name>PT3998</name></trkpt>
<trkpt lat="53.453113" lon="05.630678"><ele>7.9</ele><time>2021-02-17T11:47:21Z</time><name>PT3999</name></trkpt>
<trkpt lat="53.453109" lon="05.630694"><ele>7.9</ele><time>2021-02-17T11:47:22Z</time><name>PT4000</name></trkpt>
<trkpt lat="53.453108" lon="05.630713"><ele>7.7</ele><time>2021-02-17T11:47:23Z</time><name>PT4001</name></trkpt>
<trkpt lat="53.453107" lon="05.630732"><ele>7.5</ele><time>2021-02-17T11:47:24Z</time><name>PT4002</name></trkpt>
<trkpt lat="53.453105" lon="05.630750"><ele>7.5</ele><time>2021-02-17T11:47:25Z</time><name>PT4003</name></trkpt>
<trkpt lat="53.453101" lon="05.630769"><ele>7.4</ele><time>2021-02-17T11:47:26Z</time><name>PT4004</name></trkpt>
<trkpt lat="53.453096" lon="05.630785"><ele>7.6</ele><time>2021-02-17T11:47:27Z</time><name>PT4005</name></trkpt>
<trkpt lat="53.453093" lon="05.630805"><ele>7.6</ele><time>2021-02-17T11:47:28Z</time><name>PT4006</name></trkpt>
<trkpt lat="53.453088" lon="05.630825"><ele>7.5</ele><time>2021-02-17T11:47:29Z</time><name>PT4007</name></trkpt>
<trkpt lat="53.453083" lon="05.630844"><ele>7.5</ele><time>2021-02-17T11:47:30Z</time><name>PT4008</name></trkpt>
<trkpt lat="53.453078" lon="05.630859"><ele>7.4</ele><time>2021-02-17T11:47:31Z</time><name>PT4009</name></trkpt>
<trkpt lat="53.453074" lon="05.630875"><ele>7.3</ele><time>2021-02-17T11:47:32Z</time><name>PT4010</name></trkpt>
<trkpt lat="53.453070" lon="05.630892"><ele>7.2</ele><time>2021-02-17T11:47:33Z</time><name>PT4011</name></trkpt>
<trkpt lat="53.453069" lon="05.630906"><ele>7.1</ele><time>2021-02-17T11:47:34Z</time><name>PT4012</name></trkpt>
<trkpt lat="53.453064" lon="05.630924"><ele>6.8</ele><time>2021-02-17T11:47:35Z</time><name>PT4013</name></trkpt>
<trkpt lat="53.453060" lon="05.630941"><ele>6.8</ele><time>2021-02-17T11:47:36Z</time><name>PT4014</name></trkpt>
<trkpt lat="53.453054" lon="05.630951"><ele>6.8</ele><time>2021-02-17T11:47:37Z</time><name>PT4015</name></trkpt>
<trkpt lat="53.453050" lon="05.630964"><ele>6.8</ele><time>2021-02-17T11:47:38Z</time><name>PT4016</name></trkpt>
<trkpt lat="53.453047" lon="05.630982"><ele>6.8</ele><time>2021-02-17T11:47:39Z</time><name>PT4017</name></trkpt>
<trkpt lat="53.453043" lon="05.630998"><ele>6.9</ele><time>2021-02-17T11:47:40Z</time><name>PT4018</name></trkpt>
<trkpt lat="53.453040" lon="05.631015"><ele>7</ele><time>2021-02-17T11:47:41Z</time><name>PT4019</name></trkpt>
<trkpt lat="53.453037" lon="05.631030"><ele>7.1</ele><time>2021-02-17T11:47:42Z</time><name>PT4020</name></trkpt>
<trkpt lat="53.453036" lon="05.631045"><ele>7</ele><time>2021-02-17T11:47:43Z</time><name>PT4021</name></trkpt>
<trkpt lat="53.453033" lon="05.631063"><ele>7.3</ele><time>2021-02-17T11:47:44Z</time><name>PT4022</name></trkpt>
<trkpt lat="53.453033" lon="05.631084"><ele>7.3</ele><time>2021-02-17T11:47:45Z</time><name>PT4023</name></trkpt>
<trkpt lat="53.453030" lon="05.631106"><ele>7.3</ele><time>2021-02-17T11:47:46Z</time><name>PT4024</name></trkpt>
<trkpt lat="53.453026" lon="05.631122"><ele>7.4</ele><time>2021-02-17T11:47:47Z</time><name>PT4025</name></trkpt>
<trkpt lat="53.453020" lon="05.631140"><ele>7.3</ele><time>2021-02-17T11:47:48Z</time><name>PT4026</name></trkpt>
<trkpt lat="53.453018" lon="05.631160"><ele>7.4</ele><time>2021-02-17T11:47:49Z</time><name>PT4027</name></trkpt>
<trkpt lat="53.453015" lon="05.631178"><ele>7.3</ele><time>2021-02-17T11:47:50Z</time><name>PT4028</name></trkpt>
<trkpt lat="53.453011" lon="05.631196"><ele>7.1</ele><time>2021-02-17T11:47:51Z</time><name>PT4029</name></trkpt>
<trkpt lat="53.453008" lon="05.631213"><ele>7.1</ele><time>2021-02-17T11:47:52Z</time><name>PT4030</name></trkpt>
<trkpt lat="53.453005" lon="05.631234"><ele>6.9</ele><time>2021-02-17T11:47:53Z</time><name>PT4031</name></trkpt>
<trkpt lat="53.453004" lon="05.631245"><ele>7.1</ele><time>2021-02-17T11:47:54Z</time><name>PT4032</name></trkpt>
<trkpt lat="53.453001" lon="05.631258"><ele>7</ele><time>2021-02-17T11:47:55Z</time><name>PT4033</name></trkpt>
<trkpt lat="53.452996" lon="05.631268"><ele>7.1</ele><time>2021-02-17T11:47:56Z</time><name>PT4034</name></trkpt>
<trkpt lat="53.452991" lon="05.631281"><ele>7.1</ele><time>2021-02-17T11:47:57Z</time><name>PT4035</name></trkpt>
<trkpt lat="53.452989" lon="05.631298"><ele>7.3</ele><time>2021-02-17T11:47:58Z</time><name>PT4036</name></trkpt>
<trkpt lat="53.452987" lon="05.631315"><ele>7.4</ele><time>2021-02-17T11:47:59Z</time><name>PT4037</name></trkpt>
<trkpt lat="53.452984" lon="05.631331"><ele>7.4</ele><time>2021-02-17T11:48:00Z</time><name>PT4038</name></trkpt>
<trkpt lat="53.452979" lon="05.631344"><ele>7.3</ele><time>2021-02-17T11:48:01Z</time><name>PT4039</name></trkpt>
<trkpt lat="53.452974" lon="05.631358"><ele>7.1</ele><time>2021-02-17T11:48:03Z</time><name>PT4040</name></trkpt>
<trkpt lat="53.452970" lon="05.631374"><ele>6.9</ele><time>2021-02-17T11:48:03Z</time><name>PT4041</name></trkpt>
<trkpt lat="53.452967" lon="05.631389"><ele>6.8</ele><time>2021-02-17T11:48:04Z</time><name>PT4042</name></trkpt>
<trkpt lat="53.452965" lon="05.631404"><ele>6.8</ele><time>2021-02-17T11:48:05Z</time><name>PT4043</name></trkpt>
<trkpt lat="53.452962" lon="05.631421"><ele>6.8</ele><time>2021-02-17T11:48:06Z</time><name>PT4044</name></trkpt>
<trkpt lat="53.452959" lon="05.631437"><ele>7</ele><time>2021-02-17T11:48:07Z</time><name>PT4045</name></trkpt>
<trkpt lat="53.452955" lon="05.631450"><ele>7.3</ele><time>2021-02-17T11:48:08Z</time><name>PT4046</name></trkpt>
<trkpt lat="53.452951" lon="05.631464"><ele>7.4</ele><time>2021-02-17T11:48:09Z</time><name>PT4047</name></trkpt>
<trkpt lat="53.452946" lon="05.631476"><ele>7.4</ele><time>2021-02-17T11:48:10Z</time><name>PT4048</name></trkpt>
<trkpt lat="53.452942" lon="05.631488"><ele>7.6</ele><time>2021-02-17T11:48:11Z</time><name>PT4049</name></trkpt>
<trkpt lat="53.452939" lon="05.631502"><ele>7.6</ele><time>2021-02-17T11:48:12Z</time><name>PT4050</name></trkpt>
<trkpt lat="53.452935" lon="05.631516"><ele>7.6</ele><time>2021-02-17T11:48:13Z</time><name>PT4051</name></trkpt>
<trkpt lat="53.452930" lon="05.631528"><ele>7.8</ele><time>2021-02-17T11:48:14Z</time><name>PT4052</name></trkpt>
<trkpt lat="53.452926" lon="05.631539"><ele>7.8</ele><time>2021-02-17T11:48:15Z</time><name>PT4053</name></trkpt>
<trkpt lat="53.452924" lon="05.631550"><ele>7.9</ele><time>2021-02-17T11:48:16Z</time><name>PT4054</name></trkpt>
<trkpt lat="53.452921" lon="05.631562"><ele>8.2</ele><time>2021-02-17T11:48:17Z</time><name>PT4055</name></trkpt>
<trkpt lat="53.452919" lon="05.631579"><ele>8.3</ele><time>2021-02-17T11:48:18Z</time><name>PT4056</name></trkpt>
<trkpt lat="53.452918" lon="05.631597"><ele>8.6</ele><time>2021-02-17T11:48:19Z</time><name>PT4057</name></trkpt>
<trkpt lat="53.452917" lon="05.631610"><ele>8.6</ele><time>2021-02-17T11:48:20Z</time><name>PT4058</name></trkpt>
<trkpt lat="53.452914" lon="05.631622"><ele>8.7</ele><time>2021-02-17T11:48:21Z</time><name>PT4059</name></trkpt>
<trkpt lat="53.452910" lon="05.631635"><ele>9</ele><time>2021-02-17T11:48:22Z</time><name>PT4060</name></trkpt>
<trkpt lat="53.452907" lon="05.631648"><ele>9</ele><time>2021-02-17T11:48:23Z</time><name>PT4061</name></trkpt>
<trkpt lat="53.452903" lon="05.631661"><ele>9.2</ele><time>2021-02-17T11:48:24Z</time><name>PT4062</name></trkpt>
<trkpt lat="53.452902" lon="05.631673"><ele>9.3</ele><time>2021-02-17T11:48:25Z</time><name>PT4063</name></trkpt>
<trkpt lat="53.452901" lon="05.631686"><ele>9.2</ele><time>2021-02-17T11:48:26Z</time><name>PT4064</name></trkpt>
<trkpt lat="53.452897" lon="05.631699"><ele>9.2</ele><time>2021-02-17T11:48:27Z</time><name>PT4065</name></trkpt>
<trkpt lat="53.452894" lon="05.631714"><ele>8.9</ele><time>2021-02-17T11:48:28Z</time><name>PT4066</name></trkpt>
<trkpt lat="53.452893" lon="05.631731"><ele>8.9</ele><time>2021-02-17T11:48:29Z</time><name>PT4067</name></trkpt>
<trkpt lat="53.452891" lon="05.631747"><ele>9</ele><time>2021-02-17T11:48:30Z</time><name>PT4068</name></trkpt>
<trkpt lat="53.452890" lon="05.631765"><ele>8.9</ele><time>2021-02-17T11:48:31Z</time><name>PT4069</name></trkpt>
<trkpt lat="53.452892" lon="05.631784"><ele>8.9</ele><time>2021-02-17T11:48:32Z</time><name>PT4070</name></trkpt>
<trkpt lat="53.452893" lon="05.631803"><ele>8.7</ele><time>2021-02-17T11:48:33Z</time><name>PT4071</name></trkpt>
<trkpt lat="53.452891" lon="05.631819"><ele>8.6</ele><time>2021-02-17T11:48:34Z</time><name>PT4072</name></trkpt>
<trkpt lat="53.452888" lon="05.631832"><ele>8.6</ele><time>2021-02-17T11:48:35Z</time><name>PT4073</name></trkpt>
<trkpt lat="53.452885" lon="05.631847"><ele>8.4</ele><time>2021-02-17T11:48:36Z</time><name>PT4074</name></trkpt>
<trkpt lat="53.452882" lon="05.631862"><ele>8.3</ele><time>2021-02-17T11:48:37Z</time><name>PT4075</name></trkpt>
<trkpt lat="53.452881" lon="05.631877"><ele>8.2</ele><time>2021-02-17T11:48:38Z</time><name>PT4076</name></trkpt>
<trkpt lat="53.452881" lon="05.631892"><ele>8.2</ele><time>2021-02-17T11:48:39Z</time><name>PT4077</name></trkpt>
<trkpt lat="53.452882" lon="05.631908"><ele>8</ele><time>2021-02-17T11:48:40Z</time><name>PT4078</name></trkpt>
<trkpt lat="53.452887" lon="05.631929"><ele>8.1</ele><time>2021-02-17T11:48:41Z</time><name>PT4079</name></trkpt>
<trkpt lat="53.452890" lon="05.631940"><ele>7.9</ele><time>2021-02-17T11:48:42Z</time><name>PT4080</name></trkpt>
<trkpt lat="53.452893" lon="05.631949"><ele>7.9</ele><time>2021-02-17T11:48:43Z</time><name>PT4081</name></trkpt>
<trkpt lat="53.452893" lon="05.631966"><ele>7.8</ele><time>2021-02-17T11:48:44Z</time><name>PT4082</name></trkpt>
<trkpt lat="53.452896" lon="05.631984"><ele>7.8</ele><time>2021-02-17T11:48:45Z</time><name>PT4083</name></trkpt>
<trkpt lat="53.452895" lon="05.631999"><ele>7.8</ele><time>2021-02-17T11:48:46Z</time><name>PT4084</name></trkpt>
<trkpt lat="53.452895" lon="05.632016"><ele>7.8</ele><time>2021-02-17T11:48:47Z</time><name>PT4085</name></trkpt>
<trkpt lat="53.452896" lon="05.632030"><ele>7.8</ele><time>2021-02-17T11:48:48Z</time><name>PT4086</name></trkpt>
<trkpt lat="53.452896" lon="05.632043"><ele>7.9</ele><time>2021-02-17T11:48:49Z</time><name>PT4087</name></trkpt>
<trkpt lat="53.452896" lon="05.632055"><ele>8</ele><time>2021-02-17T11:48:50Z</time><name>PT4088</name></trkpt>
<trkpt lat="53.452898" lon="05.632070"><ele>8</ele><time>2021-02-17T11:48:51Z</time><name>PT4089</name></trkpt>
<trkpt lat="53.452900" lon="05.632086"><ele>8.1</ele><time>2021-02-17T11:48:52Z</time><name>PT4090</name></trkpt>
<trkpt lat="53.452904" lon="05.632098"><ele>8.2</ele><time>2021-02-17T11:48:53Z</time><name>PT4091</name></trkpt>
<trkpt lat="53.452906" lon="05.632110"><ele>8.1</ele><time>2021-02-17T11:48:54Z</time><name>PT4092</name></trkpt>
<trkpt lat="53.452904" lon="05.632123"><ele>8.2</ele><time>2021-02-17T11:48:55Z</time><name>PT4093</name></trkpt>
<trkpt lat="53.452904" lon="05.632135"><ele>8.1</ele><time>2021-02-17T11:48:56Z</time><name>PT4094</name></trkpt>
<trkpt lat="53.452905" lon="05.632149"><ele>8.2</ele><time>2021-02-17T11:48:57Z</time><name>PT4095</name></trkpt>
<trkpt lat="53.452906" lon="05.632164"><ele>8.3</ele><time>2021-02-17T11:48:58Z</time><name>PT4096</name></trkpt>
<trkpt lat="53.452907" lon="05.632177"><ele>8.5</ele><time>2021-02-17T11:48:59Z</time><name>PT4097</name></trkpt>
<trkpt lat="53.452908" lon="05.632192"><ele>8.5</ele><time>2021-02-17T11:49:00Z</time><name>PT4098</name></trkpt>
<trkpt lat="53.452909" lon="05.632209"><ele>8.6</ele><time>2021-02-17T11:49:01Z</time><name>PT4099</name></trkpt>
<trkpt lat="53.452909" lon="05.632223"><ele>8.5</ele><time>2021-02-17T11:49:02Z</time><name>PT4100</name></trkpt>
<trkpt lat="53.452911" lon="05.632238"><ele>8.4</ele><time>2021-02-17T11:49:03Z</time><name>PT4101</name></trkpt>
<trkpt lat="53.452912" lon="05.632251"><ele>8.4</ele><time>2021-02-17T11:49:04Z</time><name>PT4102</name></trkpt>
<trkpt lat="53.452911" lon="05.632264"><ele>8.4</ele><time>2021-02-17T11:49:05Z</time><name>PT4103</name></trkpt>
<trkpt lat="53.452913" lon="05.632281"><ele>8.5</ele><time>2021-02-17T11:49:06Z</time><name>PT4104</name></trkpt>
<trkpt lat="53.452911" lon="05.632298"><ele>8.7</ele><time>2021-02-17T11:49:07Z</time><name>PT4105</name></trkpt>
<trkpt lat="53.452912" lon="05.632310"><ele>8.7</ele><time>2021-02-17T11:49:08Z</time><name>PT4106</name></trkpt>
<trkpt lat="53.452916" lon="05.632324"><ele>8.7</ele><time>2021-02-17T11:49:09Z</time><name>PT4107</name></trkpt>
<trkpt lat="53.452917" lon="05.632338"><ele>8.6</ele><time>2021-02-17T11:49:10Z</time><name>PT4108</name></trkpt>
<trkpt lat="53.452918" lon="05.632351"><ele>8.6</ele><time>2021-02-17T11:49:11Z</time><name>PT4109</name></trkpt>
<trkpt lat="53.452919" lon="05.632368"><ele>8.7</ele><time>2021-02-17T11:49:12Z</time><name>PT4110</name></trkpt>
<trkpt lat="53.452921" lon="05.632382"><ele>8.8</ele><time>2021-02-17T11:49:13Z</time><name>PT4111</name></trkpt>
<trkpt lat="53.452926" lon="05.632396"><ele>9.1</ele><time>2021-02-17T11:49:14Z</time><name>PT4112</name></trkpt>
<trkpt lat="53.452930" lon="05.632411"><ele>9</ele><time>2021-02-17T11:49:15Z</time><name>PT4113</name></trkpt>
<trkpt lat="53.452933" lon="05.632427"><ele>8.9</ele><time>2021-02-17T11:49:16Z</time><name>PT4114</name></trkpt>
<trkpt lat="53.452937" lon="05.632443"><ele>8.7</ele><time>2021-02-17T11:49:17Z</time><name>PT4115</name></trkpt>
<trkpt lat="53.452940" lon="05.632459"><ele>8.7</ele><time>2021-02-17T11:49:18Z</time><name>PT4116</name></trkpt>
<trkpt lat="53.452943" lon="05.632475"><ele>8.6</ele><time>2021-02-17T11:49:19Z</time><name>PT4117</name></trkpt>
<trkpt lat="53.452945" lon="05.632489"><ele>8.7</ele><time>2021-02-17T11:49:20Z</time><name>PT4118</name></trkpt>
<trkpt lat="53.452947" lon="05.632502"><ele>8.7</ele><time>2021-02-17T11:49:21Z</time><name>PT4119</name></trkpt>
<trkpt lat="53.452950" lon="05.632516"><ele>8.8</ele><time>2021-02-17T11:49:22Z</time><name>PT4120</name></trkpt>
<trkpt lat="53.452954" lon="05.632528"><ele>9.1</ele><time>2021-02-17T11:49:23Z</time><name>PT4121</name></trkpt>
<trkpt lat="53.452955" lon="05.632540"><ele>9.1</ele><time>2021-02-17T11:49:24Z</time><name>PT4122</name></trkpt>
<trkpt lat="53.452956" lon="05.632552"><ele>9.1</ele><time>2021-02-17T11:49:25Z</time><name>PT4123</name></trkpt>
<trkpt lat="53.452958" lon="05.632565"><ele>9.2</ele><time>2021-02-17T11:49:26Z</time><name>PT4124</name></trkpt>
<trkpt lat="53.452962" lon="05.632579"><ele>9.2</ele><time>2021-02-17T11:49:27Z</time><name>PT4125</name></trkpt>
<trkpt lat="53.452967" lon="05.632591"><ele>9.1</ele><time>2021-02-17T11:49:28Z</time><name>PT4126</name></trkpt>
<trkpt lat="53.452969" lon="05.632603"><ele>8.9</ele><time>2021-02-17T11:49:29Z</time><name>PT4127</name></trkpt>
<trkpt lat="53.452971" lon="05.632620"><ele>8.7</ele><time>2021-02-17T11:49:30Z</time><name>PT4128</name></trkpt>
<trkpt lat="53.452973" lon="05.632638"><ele>8.5</ele><time>2021-02-17T11:49:31Z</time><name>PT4129</name></trkpt>
<trkpt lat="53.452976" lon="05.632652"><ele>8.4</ele><time>2021-02-17T11:49:32Z</time><name>PT4130</name></trkpt>
<trkpt lat="53.452981" lon="05.632667"><ele>8.3</ele><time>2021-02-17T11:49:33Z</time><name>PT4131</name></trkpt>
<trkpt lat="53.452986" lon="05.632681"><ele>8.2</ele><time>2021-02-17T11:49:34Z</time><name>PT4132</name></trkpt>
<trkpt lat="53.452990" lon="05.632690"><ele>8.2</ele><time>2021-02-17T11:49:35Z</time><name>PT4133</name></trkpt>
<trkpt lat="53.452992" lon="05.632703"><ele>8</ele><time>2021-02-17T11:49:36Z</time><name>PT4134</name></trkpt>
<trkpt lat="53.452995" lon="05.632717"><ele>7.9</ele><time>2021-02-17T11:49:37Z</time><name>PT4135</name></trkpt>
<trkpt lat="53.452997" lon="05.632730"><ele>7.8</ele><time>2021-02-17T11:49:38Z</time><name>PT4136</name></trkpt>
<trkpt lat="53.452999" lon="05.632745"><ele>7.7</ele><time>2021-02-17T11:49:39Z</time><name>PT4137</name></trkpt>
<trkpt lat="53.453001" lon="05.632758"><ele>7.7</ele><time>2021-02-17T11:49:40Z</time><name>PT4138</name></trkpt>
<trkpt lat="53.453003" lon="05.632772"><ele>7.6</ele><time>2021-02-17T11:49:41Z</time><name>PT4139</name></trkpt>
<trkpt lat="53.453005" lon="05.632785"><ele>7.5</ele><time>2021-02-17T11:49:42Z</time><name>PT4140</name></trkpt>
<trkpt lat="53.453007" lon="05.632800"><ele>7.2</ele><time>2021-02-17T11:49:43Z</time><name>PT4141</name></trkpt>
<trkpt lat="53.453009" lon="05.632815"><ele>7.3</ele><time>2021-02-17T11:49:44Z</time><name>PT4142</name></trkpt>
<trkpt lat="53.453012" lon="05.632830"><ele>7.1</ele><time>2021-02-17T11:49:45Z</time><name>PT4143</name></trkpt>
<trkpt lat="53.453014" lon="05.632847"><ele>6.9</ele><time>2021-02-17T11:49:46Z</time><name>PT4144</name></trkpt>
<trkpt lat="53.453015" lon="05.632863"><ele>6.8</ele><time>2021-02-17T11:49:47Z</time><name>PT4145</name></trkpt>
<trkpt lat="53.453017" lon="05.632882"><ele>6.6</ele><time>2021-02-17T11:49:48Z</time><name>PT4146</name></trkpt>
<trkpt lat="53.453017" lon="05.632899"><ele>6.6</ele><time>2021-02-17T11:49:49Z</time><name>PT4147</name></trkpt>
<trkpt lat="53.453016" lon="05.632916"><ele>6.8</ele><time>2021-02-17T11:49:50Z</time><name>PT4148</name></trkpt>
<trkpt lat="53.453014" lon="05.632932"><ele>6.8</ele><time>2021-02-17T11:49:51Z</time><name>PT4149</name></trkpt>
<trkpt lat="53.453013" lon="05.632948"><ele>7</ele><time>2021-02-17T11:49:52Z</time><name>PT4150</name></trkpt>
<trkpt lat="53.453014" lon="05.632964"><ele>7</ele><time>2021-02-17T11:49:53Z</time><name>PT4151</name></trkpt>
<trkpt lat="53.453013" lon="05.632981"><ele>7</ele><time>2021-02-17T11:49:54Z</time><name>PT4152</name></trkpt>
<trkpt lat="53.453013" lon="05.633000"><ele>7.2</ele><time>2021-02-17T11:49:55Z</time><name>PT4153</name></trkpt>
<trkpt lat="53.453013" lon="05.633016"><ele>7.3</ele><time>2021-02-17T11:49:56Z</time><name>PT4154</name></trkpt>
<trkpt lat="53.453010" lon="05.633031"><ele>7.2</ele><time>2021-02-17T11:49:57Z</time><name>PT4155</name></trkpt>
<trkpt lat="53.453006" lon="05.633052"><ele>7.3</ele><time>2021-02-17T11:49:58Z</time><name>PT4156</name></trkpt>
<trkpt lat="53.453000" lon="05.633069"><ele>7.2</ele><time>2021-02-17T11:49:59Z</time><name>PT4157</name></trkpt>
<trkpt lat="53.452995" lon="05.633085"><ele>7.1</ele><time>2021-02-17T11:50:00Z</time><name>PT4158</name></trkpt>
<trkpt lat="53.452989" lon="05.633102"><ele>7</ele><time>2021-02-17T11:50:01Z</time><name>PT4159</name></trkpt>
<trkpt lat="53.452985" lon="05.633112"><ele>6.8</ele><time>2021-02-17T11:50:02Z</time><name>PT4160</name></trkpt>
<trkpt lat="53.452980" lon="05.633118"><ele>6.8</ele><time>2021-02-17T11:50:03Z</time><name>PT4161</name></trkpt>
<trkpt lat="53.452973" lon="05.633126"><ele>6.8</ele><time>2021-02-17T11:50:04Z</time><name>PT4162</name></trkpt>
<trkpt lat="53.452965" lon="05.633131"><ele>7</ele><time>2021-02-17T11:50:05Z</time><name>PT4163</name></trkpt>
<trkpt lat="53.452956" lon="05.633136"><ele>7.1</ele><time>2021-02-17T11:50:06Z</time><name>PT4164</name></trkpt>
<trkpt lat="53.452948" lon="05.633149"><ele>7.3</ele><time>2021-02-17T11:50:07Z</time><name>PT4165</name></trkpt>
<trkpt lat="53.452939" lon="05.633150"><ele>7.4</ele><time>2021-02-17T11:50:08Z</time><name>PT4166</name></trkpt>
<trkpt lat="53.452929" lon="05.633153"><ele>7.6</ele><time>2021-02-17T11:50:09Z</time><name>PT4167</name></trkpt>
<trkpt lat="53.452919" lon="05.633156"><ele>7.8</ele><time>2021-02-17T11:50:10Z</time><name>PT4168</name></trkpt>
<trkpt lat="53.452910" lon="05.633158"><ele>7.8</ele><time>2021-02-17T11:50:11Z</time><name>PT4169</name></trkpt>
<trkpt lat="53.452903" lon="05.633162"><ele>7.8</ele><time>2021-02-17T11:50:12Z</time><name>PT4170</name></trkpt>
<trkpt lat="53.452896" lon="05.633166"><ele>7.9</ele><time>2021-02-17T11:50:13Z</time><name>PT4171</name></trkpt>
<trkpt lat="53.452890" lon="05.633173"><ele>7.8</ele><time>2021-02-17T11:50:14Z</time><name>PT4172</name></trkpt>
<trkpt lat="53.452885" lon="05.633182"><ele>7.8</ele><time>2021-02-17T11:50:15Z</time><name>PT4173</name></trkpt>
<trkpt lat="53.452880" lon="05.633189"><ele>8</ele><time>2021-02-17T11:50:16Z</time><name>PT4174</name></trkpt>
<trkpt lat="53.452876" lon="05.633205"><ele>8.2</ele><time>2021-02-17T11:50:17Z</time><name>PT4175</name></trkpt>
<trkpt lat="53.452870" lon="05.633215"><ele>8.4</ele><time>2021-02-17T11:50:18Z</time><name>PT4176</name></trkpt>
<trkpt lat="53.452864" lon="05.633221"><ele>8.5</ele><time>2021-02-17T11:50:19Z</time><name>PT4177</name></trkpt>
<trkpt lat="53.452858" lon="05.633219"><ele>8.4</ele><time>2021-02-17T11:50:20Z</time><name>PT4178</name></trkpt>
<trkpt lat="53.452848" lon="05.633222"><ele>8.5</ele><time>2021-02-17T11:50:21Z</time><name>PT4179</name></trkpt>
<trkpt lat="53.452839" lon="05.633228"><ele>8.3</ele><time>2021-02-17T11:50:22Z</time><name>PT4180</name></trkpt>
<trkpt lat="53.452829" lon="05.633230"><ele>8.6</ele><time>2021-02-17T11:50:23Z</time><name>PT4181</name></trkpt>
<trkpt lat="53.452822" lon="05.633234"><ele>8.6</ele><time>2021-02-17T11:50:24Z</time><name>PT4182</name></trkpt>
<trkpt lat="53.452815" lon="05.633240"><ele>8.7</ele><time>2021-02-17T11:50:25Z</time><name>PT4183</name></trkpt>
<trkpt lat="53.452808" lon="05.633243"><ele>8.7</ele><time>2021-02-17T11:50:26Z</time><name>PT4184</name></trkpt>
<trkpt lat="53.452800" lon="05.633248"><ele>8.6</ele><time>2021-02-17T11:50:27Z</time><name>PT4185</name></trkpt>
<trkpt lat="53.452789" lon="05.633250"><ele>8.7</ele><time>2021-02-17T11:50:28Z</time><name>PT4186</name></trkpt>
<trkpt lat="53.452781" lon="05.633251"><ele>8.7</ele><time>2021-02-17T11:50:29Z</time><name>PT4187</name></trkpt>
<trkpt lat="53.452774" lon="05.633255"><ele>8.8</ele><time>2021-02-17T11:50:30Z</time><name>PT4188</name></trkpt>
<trkpt lat="53.452772" lon="05.633256"><ele>9</ele><time>2021-02-17T11:50:31Z</time><name>PT4189</name></trkpt>
<trkpt lat="53.452770" lon="05.633256"><ele>9.2</ele><time>2021-02-17T11:50:32Z</time><name>PT4190</name></trkpt>
<trkpt lat="53.452764" lon="05.633261"><ele>9.3</ele><time>2021-02-17T11:50:33Z</time><name>PT4191</name></trkpt>
<trkpt lat="53.452757" lon="05.633262"><ele>9.6</ele><time>2021-02-17T11:50:34Z</time><name>PT4192</name></trkpt>
<trkpt lat="53.452748" lon="05.633262"><ele>9.7</ele><time>2021-02-17T11:50:35Z</time><name>PT4193</name></trkpt>
<trkpt lat="53.452742" lon="05.633264"><ele>9.8</ele><time>2021-02-17T11:50:36Z</time><name>PT4194</name></trkpt>
<trkpt lat="53.452736" lon="05.633266"><ele>9.9</ele><time>2021-02-17T11:50:37Z</time><name>PT4195</name></trkpt>
<trkpt lat="53.452730" lon="05.633268"><ele>9.7</ele><time>2021-02-17T11:50:38Z</time><name>PT4196</name></trkpt>
<trkpt lat="53.452723" lon="05.633274"><ele>9.7</ele><time>2021-02-17T11:50:39Z</time><name>PT4197</name></trkpt>
<trkpt lat="53.452714" lon="05.633285"><ele>9.6</ele><time>2021-02-17T11:50:40Z</time><name>PT4198</name></trkpt>
<trkpt lat="53.452706" lon="05.633293"><ele>9.5</ele><time>2021-02-17T11:50:41Z</time><name>PT4199</name></trkpt>
<trkpt lat="53.452699" lon="05.633296"><ele>9.5</ele><time>2021-02-17T11:50:42Z</time><name>PT4200</name></trkpt>
<trkpt lat="53.452691" lon="05.633300"><ele>9.5</ele><time>2021-02-17T11:50:43Z</time><name>PT4201</name></trkpt>
<trkpt lat="53.452683" lon="05.633304"><ele>9.7</ele><time>2021-02-17T11:50:44Z</time><name>PT4202</name></trkpt>
<trkpt lat="53.452676" lon="05.633309"><ele>9.7</ele><time>2021-02-17T11:50:45Z</time><name>PT4203</name></trkpt>
<trkpt lat="53.452667" lon="05.633314"><ele>9.9</ele><time>2021-02-17T11:50:46Z</time><name>PT4204</name></trkpt>
<trkpt lat="53.452657" lon="05.633319"><ele>10</ele><time>2021-02-17T11:50:47Z</time><name>PT4205</name></trkpt>
<trkpt lat="53.452648" lon="05.633325"><ele>10.2</ele><time>2021-02-17T11:50:48Z</time><name>PT4206</name></trkpt>
<trkpt lat="53.452633" lon="05.633325"><ele>10.2</ele><time>2021-02-17T11:50:49Z</time><name>PT4207</name></trkpt>
<trkpt lat="53.452624" lon="05.633329"><ele>10.2</ele><time>2021-02-17T11:50:50Z</time><name>PT4208</name></trkpt>
<trkpt lat="53.452614" lon="05.633332"><ele>10.2</ele><time>2021-02-17T11:50:51Z</time><name>PT4209</name></trkpt>
<trkpt lat="53.452607" lon="05.633333"><ele>10.1</ele><time>2021-02-17T11:50:52Z</time><name>PT4210</name></trkpt>
<trkpt lat="53.452596" lon="05.633342"><ele>10.1</ele><time>2021-02-17T11:50:53Z</time><name>PT4211</name></trkpt>
<trkpt lat="53.452587" lon="05.633343"><ele>10.2</ele><time>2021-02-17T11:50:54Z</time><name>PT4212</name></trkpt>
<trkpt lat="53.452578" lon="05.633347"><ele>10.2</ele><time>2021-02-17T11:50:55Z</time><name>PT4213</name></trkpt>
<trkpt lat="53.452573" lon="05.633352"><ele>10.2</ele><time>2021-02-17T11:50:56Z</time><name>PT4214</name></trkpt>
<trkpt lat="53.452566" lon="05.633355"><ele>10.1</ele><time>2021-02-17T11:50:57Z</time><name>PT4215</name></trkpt>
<trkpt lat="53.452558" lon="05.633361"><ele>9.9</ele><time>2021-02-17T11:50:58Z</time><name>PT4216</name></trkpt>
<trkpt lat="53.452550" lon="05.633367"><ele>9.8</ele><time>2021-02-17T11:50:59Z</time><name>PT4217</name></trkpt>
<trkpt lat="53.452542" lon="05.633381"><ele>9.8</ele><time>2021-02-17T11:51:00Z</time><name>PT4218</name></trkpt>
<trkpt lat="53.452534" lon="05.633387"><ele>9.6</ele><time>2021-02-17T11:51:01Z</time><name>PT4219</name></trkpt>
<trkpt lat="53.452525" lon="05.633397"><ele>9.4</ele><time>2021-02-17T11:51:02Z</time><name>PT4220</name></trkpt>
<trkpt lat="53.452521" lon="05.633406"><ele>9.2</ele><time>2021-02-17T11:51:03Z</time><name>PT4221</name></trkpt>
<trkpt lat="53.452513" lon="05.633418"><ele>9.1</ele><time>2021-02-17T11:51:04Z</time><name>PT4222</name></trkpt>
<trkpt lat="53.452505" lon="05.633432"><ele>9.2</ele><time>2021-02-17T11:51:05Z</time><name>PT4223</name></trkpt>
<trkpt lat="53.452495" lon="05.633444"><ele>9.1</ele><time>2021-02-17T11:51:06Z</time><name>PT4224</name></trkpt>
<trkpt lat="53.452487" lon="05.633463"><ele>9.2</ele><time>2021-02-17T11:51:07Z</time><name>PT4225</name></trkpt>
<trkpt lat="53.452482" lon="05.633481"><ele>9.3</ele><time>2021-02-17T11:51:08Z</time><name>PT4226</name></trkpt>
<trkpt lat="53.452475" lon="05.633495"><ele>9.3</ele><time>2021-02-17T11:51:09Z</time><name>PT4227</name></trkpt>
<trkpt lat="53.452467" lon="05.633511"><ele>9.3</ele><time>2021-02-17T11:51:10Z</time><name>PT4228</name></trkpt>
<trkpt lat="53.452460" lon="05.633524"><ele>9.4</ele><time>2021-02-17T11:51:11Z</time><name>PT4229</name></trkpt>
<trkpt lat="53.452454" lon="05.633535"><ele>9.2</ele><time>2021-02-17T11:51:12Z</time><name>PT4230</name></trkpt>
<trkpt lat="53.452447" lon="05.633550"><ele>9</ele><time>2021-02-17T11:51:13Z</time><name>PT4231</name></trkpt>
<trkpt lat="53.452437" lon="05.633568"><ele>8.9</ele><time>2021-02-17T11:51:14Z</time><name>PT4232</name></trkpt>
<trkpt lat="53.452429" lon="05.633586"><ele>8.9</ele><time>2021-02-17T11:51:15Z</time><name>PT4233</name></trkpt>
<trkpt lat="53.452426" lon="05.633601"><ele>9.1</ele><time>2021-02-17T11:51:16Z</time><name>PT4234</name></trkpt>
<trkpt lat="53.452423" lon="05.633618"><ele>9.2</ele><time>2021-02-17T11:51:17Z</time><name>PT4235</name></trkpt>
<trkpt lat="53.452419" lon="05.633634"><ele>9.2</ele><time>2021-02-17T11:51:18Z</time><name>PT4236</name></trkpt>
<trkpt lat="53.452413" lon="05.633646"><ele>9.2</ele><time>2021-02-17T11:51:19Z</time><name>PT4237</name></trkpt>
<trkpt lat="53.452407" lon="05.633660"><ele>9.1</ele><time>2021-02-17T11:51:20Z</time><name>PT4238</name></trkpt>
<trkpt lat="53.452401" lon="05.633674"><ele>9</ele><time>2021-02-17T11:51:21Z</time><name>PT4239</name></trkpt>
<trkpt lat="53.452395" lon="05.633688"><ele>9.1</ele><time>2021-02-17T11:51:22Z</time><name>PT4240</name></trkpt>
<trkpt lat="53.452389" lon="05.633702"><ele>8.9</ele><time>2021-02-17T11:51:23Z</time><name>PT4241</name></trkpt>
<trkpt lat="53.452383" lon="05.633716"><ele>8.9</ele><time>2021-02-17T11:51:24Z</time><name>PT4242</name></trkpt>
<trkpt lat="53.452376" lon="05.633732"><ele>8.9</ele><time>2021-02-17T11:51:25Z</time><name>PT4243</name></trkpt>
<trkpt lat="53.452371" lon="05.633744"><ele>8.9</ele><time>2021-02-17T11:51:26Z</time><name>PT4244</name></trkpt>
<trkpt lat="53.452365" lon="05.633757"><ele>8.9</ele><time>2021-02-17T11:51:27Z</time><name>PT4245</name></trkpt>
<trkpt lat="53.452355" lon="05.633770"><ele>8.8</ele><time>2021-02-17T11:51:28Z</time><name>PT4246</name></trkpt>
<trkpt lat="53.452347" lon="05.633785"><ele>9</ele><time>2021-02-17T11:51:29Z</time><name>PT4247</name></trkpt>
<trkpt lat="53.452340" lon="05.633799"><ele>8.9</ele><time>2021-02-17T11:51:30Z</time><name>PT4248</name></trkpt>
<trkpt lat="53.452332" lon="05.633814"><ele>9.1</ele><time>2021-02-17T11:51:31Z</time><name>PT4249</name></trkpt>
<trkpt lat="53.452325" lon="05.633831"><ele>8.9</ele><time>2021-02-17T11:51:32Z</time><name>PT4250</name></trkpt>
<trkpt lat="53.452320" lon="05.633848"><ele>8.8</ele><time>2021-02-17T11:51:33Z</time><name>PT4251</name></trkpt>
<trkpt lat="53.452315" lon="05.633863"><ele>8.7</ele><time>2021-02-17T11:51:34Z</time><name>PT4252</name></trkpt>
<trkpt lat="53.452310" lon="05.633876"><ele>8.4</ele><time>2021-02-17T11:51:35Z</time><name>PT4253</name></trkpt>
<trkpt lat="53.452303" lon="05.633888"><ele>8.3</ele><time>2021-02-17T11:51:36Z</time><name>PT4254</name></trkpt>
<trkpt lat="53.452295" lon="05.633904"><ele>8.4</ele><time>2021-02-17T11:51:37Z</time><name>PT4255</name></trkpt>
<trkpt lat="53.452289" lon="05.633919"><ele>8.1</ele><time>2021-02-17T11:51:38Z</time><name>PT4256</name></trkpt>
<trkpt lat="53.452284" lon="05.633934"><ele>7.9</ele><time>2021-02-17T11:51:39Z</time><name>PT4257</name></trkpt>
<trkpt lat="53.452280" lon="05.633948"><ele>7.9</ele><time>2021-02-17T11:51:40Z</time><name>PT4258</name></trkpt>
<trkpt lat="53.452276" lon="05.633965"><ele>7.6</ele><time>2021-02-17T11:51:41Z</time><name>PT4259</name></trkpt>
<trkpt lat="53.452272" lon="05.633982"><ele>7.5</ele><time>2021-02-17T11:51:42Z</time><name>PT4260</name></trkpt>
<trkpt lat="53.452267" lon="05.633998"><ele>7.3</ele><time>2021-02-17T11:51:43Z</time><name>PT4261</name></trkpt>
<trkpt lat="53.452260" lon="05.634015"><ele>7.1</ele><time>2021-02-17T11:51:44Z</time><name>PT4262</name></trkpt>
<trkpt lat="53.452255" lon="05.634028"><ele>7.1</ele><time>2021-02-17T11:51:45Z</time><name>PT4263</name></trkpt>
<trkpt lat="53.452252" lon="05.634046"><ele>7.2</ele><time>2021-02-17T11:51:46Z</time><name>PT4264</name></trkpt>
<trkpt lat="53.452249" lon="05.634063"><ele>7.2</ele><time>2021-02-17T11:51:47Z</time><name>PT4265</name></trkpt>
<trkpt lat="53.452240" lon="05.634073"><ele>7.3</ele><time>2021-02-17T11:51:48Z</time><name>PT4266</name></trkpt>
<trkpt lat="53.452233" lon="05.634088"><ele>7</ele><time>2021-02-17T11:51:49Z</time><name>PT4267</name></trkpt>
<trkpt lat="53.452227" lon="05.634102"><ele>6.9</ele><time>2021-02-17T11:51:50Z</time><name>PT4268</name></trkpt>
<trkpt lat="53.452224" lon="05.634121"><ele>6.9</ele><time>2021-02-17T11:51:51Z</time><name>PT4269</name></trkpt>
<trkpt lat="53.452223" lon="05.634139"><ele>6.7</ele><time>2021-02-17T11:51:52Z</time><name>PT4270</name></trkpt>
<trkpt lat="53.452219" lon="05.634160"><ele>6.7</ele><time>2021-02-17T11:51:53Z</time><name>PT4271</name></trkpt>
<trkpt lat="53.452213" lon="05.634176"><ele>6.7</ele><time>2021-02-17T11:51:54Z</time><name>PT4272</name></trkpt>
<trkpt lat="53.452207" lon="05.634187"><ele>6.6</ele><time>2021-02-17T11:51:55Z</time><name>PT4273</name></trkpt>
<trkpt lat="53.452200" lon="05.634202"><ele>6.7</ele><time>2021-02-17T11:51:56Z</time><name>PT4274</name></trkpt>
<trkpt lat="53.452196" lon="05.634216"><ele>6.7</ele><time>2021-02-17T11:51:57Z</time><name>PT4275</name></trkpt>
<trkpt lat="53.452193" lon="05.634231"><ele>6.7</ele><time>2021-02-17T11:51:58Z</time><name>PT4276</name></trkpt>
<trkpt lat="53.452189" lon="05.634243"><ele>6.6</ele><time>2021-02-17T11:51:59Z</time><name>PT4277</name></trkpt>
<trkpt lat="53.452185" lon="05.634260"><ele>6.6</ele><time>2021-02-17T11:52:00Z</time><name>PT4278</name></trkpt>
<trkpt lat="53.452180" lon="05.634271"><ele>6.5</ele><time>2021-02-17T11:52:01Z</time><name>PT4279</name></trkpt>
<trkpt lat="53.452172" lon="05.634282"><ele>6.6</ele><time>2021-02-17T11:52:02Z</time><name>PT4280</name></trkpt>
<trkpt lat="53.452164" lon="05.634294"><ele>6.8</ele><time>2021-02-17T11:52:03Z</time><name>PT4281</name></trkpt>
<trkpt lat="53.452160" lon="05.634306"><ele>6.8</ele><time>2021-02-17T11:52:04Z</time><name>PT4282</name></trkpt>
<trkpt lat="53.452158" lon="05.634323"><ele>7</ele><time>2021-02-17T11:52:05Z</time><name>PT4283</name></trkpt>
<trkpt lat="53.452155" lon="05.634337"><ele>7</ele><time>2021-02-17T11:52:06Z</time><name>PT4284</name></trkpt>
<trkpt lat="53.452149" lon="05.634351"><ele>6.9</ele><time>2021-02-17T11:52:07Z</time><name>PT4285</name></trkpt>
<trkpt lat="53.452143" lon="05.634364"><ele>6.9</ele><time>2021-02-17T11:52:08Z</time><name>PT4286</name></trkpt>
<trkpt lat="53.452136" lon="05.634381"><ele>6.7</ele><time>2021-02-17T11:52:09Z</time><name>PT4287</name></trkpt>
<trkpt lat="53.452128" lon="05.634393"><ele>6.7</ele><time>2021-02-17T11:52:10Z</time><name>PT4288</name></trkpt>
<trkpt lat="53.452120" lon="05.634405"><ele>6.8</ele><time>2021-02-17T11:52:11Z</time><name>PT4289</name></trkpt>
<trkpt lat="53.452113" lon="05.634416"><ele>6.7</ele><time>2021-02-17T11:52:12Z</time><name>PT4290</name></trkpt>
<trkpt lat="53.452106" lon="05.634425"><ele>6.6</ele><time>2021-02-17T11:52:13Z</time><name>PT4291</name></trkpt>
<trkpt lat="53.452100" lon="05.634438"><ele>6.6</ele><time>2021-02-17T11:52:14Z</time><name>PT4292</name></trkpt>
<trkpt lat="53.452096" lon="05.634453"><ele>6.7</ele><time>2021-02-17T11:52:15Z</time><name>PT4293</name></trkpt>
<trkpt lat="53.452088" lon="05.634471"><ele>6.9</ele><time>2021-02-17T11:52:16Z</time><name>PT4294</name></trkpt>
<trkpt lat="53.452082" lon="05.634483"><ele>7.2</ele><time>2021-02-17T11:52:17Z</time><name>PT4295</name></trkpt>
<trkpt lat="53.452076" lon="05.634496"><ele>7.3</ele><time>2021-02-17T11:52:18Z</time><name>PT4296</name></trkpt>
<trkpt lat="53.452070" lon="05.634510"><ele>7.3</ele><time>2021-02-17T11:52:19Z</time><name>PT4297</name></trkpt>
<trkpt lat="53.452066" lon="05.634524"><ele>7.1</ele><time>2021-02-17T11:52:20Z</time><name>PT4298</name></trkpt>
<trkpt lat="53.452062" lon="05.634537"><ele>7.2</ele><time>2021-02-17T11:52:21Z</time><name>PT4299</name></trkpt>
<trkpt lat="53.452061" lon="05.634552"><ele>6.8</ele><time>2021-02-17T11:52:22Z</time><name>PT4300</name></trkpt>
<trkpt lat="53.452060" lon="05.634570"><ele>6.6</ele><time>2021-02-17T11:52:23Z</time><name>PT4301</name></trkpt>
<trkpt lat="53.452056" lon="05.634585"><ele>6.5</ele><time>2021-02-17T11:52:24Z</time><name>PT4302</name></trkpt>
<trkpt lat="53.452051" lon="05.634599"><ele>6.3</ele><time>2021-02-17T11:52:25Z</time><name>PT4303</name></trkpt>
<trkpt lat="53.452043" lon="05.634612"><ele>6.3</ele><time>2021-02-17T11:52:26Z</time><name>PT4304</name></trkpt>
<trkpt lat="53.452037" lon="05.634624"><ele>6.1</ele><time>2021-02-17T11:52:27Z</time><name>PT4305</name></trkpt>
<trkpt lat="53.452032" lon="05.634639"><ele>6.2</ele><time>2021-02-17T11:52:28Z</time><name>PT4306</name></trkpt>
<trkpt lat="53.452030" lon="05.634654"><ele>5.9</ele><time>2021-02-17T11:52:29Z</time><name>PT4307</name></trkpt>
<trkpt lat="53.452026" lon="05.634670"><ele>6</ele><time>2021-02-17T11:52:30Z</time><name>PT4308</name></trkpt>
<trkpt lat="53.452020" lon="05.634684"><ele>6.2</ele><time>2021-02-17T11:52:31Z</time><name>PT4309</name></trkpt>
<trkpt lat="53.452015" lon="05.634698"><ele>6.1</ele><time>2021-02-17T11:52:32Z</time><name>PT4310</name></trkpt>
<trkpt lat="53.452009" lon="05.634712"><ele>6.2</ele><time>2021-02-17T11:52:33Z</time><name>PT4311</name></trkpt>
<trkpt lat="53.452002" lon="05.634726"><ele>6.3</ele><time>2021-02-17T11:52:34Z</time><name>PT4312</name></trkpt>
<trkpt lat="53.451996" lon="05.634740"><ele>6.3</ele><time>2021-02-17T11:52:35Z</time><name>PT4313</name></trkpt>
<trkpt lat="53.451989" lon="05.634752"><ele>6.3</ele><time>2021-02-17T11:52:36Z</time><name>PT4314</name></trkpt>
<trkpt lat="53.451982" lon="05.634765"><ele>6.1</ele><time>2021-02-17T11:52:37Z</time><name>PT4315</name></trkpt>
<trkpt lat="53.451974" lon="05.634782"><ele>5.9</ele><time>2021-02-17T11:52:38Z</time><name>PT4316</name></trkpt>
<trkpt lat="53.451967" lon="05.634794"><ele>5.8</ele><time>2021-02-17T11:52:39Z</time><name>PT4317</name></trkpt>
<trkpt lat="53.451961" lon="05.634805"><ele>5.8</ele><time>2021-02-17T11:52:40Z</time><name>PT4318</name></trkpt>
<trkpt lat="53.451953" lon="05.634816"><ele>5.8</ele><time>2021-02-17T11:52:41Z</time><name>PT4319</name></trkpt>
<trkpt lat="53.451944" lon="05.634828"><ele>5.8</ele><time>2021-02-17T11:52:42Z</time><name>PT4320</name></trkpt>
<trkpt lat="53.451933" lon="05.634842"><ele>5.5</ele><time>2021-02-17T11:52:43Z</time><name>PT4321</name></trkpt>
<trkpt lat="53.451924" lon="05.634854"><ele>5.3</ele><time>2021-02-17T11:52:44Z</time><name>PT4322</name></trkpt>
<trkpt lat="53.451915" lon="05.634865"><ele>5.2</ele><time>2021-02-17T11:52:45Z</time><name>PT4323</name></trkpt>
<trkpt lat="53.451909" lon="05.634875"><ele>5.1</ele><time>2021-02-17T11:52:46Z</time><name>PT4324</name></trkpt>
<trkpt lat="53.451900" lon="05.634890"><ele>4.8</ele><time>2021-02-17T11:52:47Z</time><name>PT4325</name></trkpt>
<trkpt lat="53.451890" lon="05.634901"><ele>5.1</ele><time>2021-02-17T11:52:48Z</time><name>PT4326</name></trkpt>
<trkpt lat="53.451882" lon="05.634911"><ele>4.9</ele><time>2021-02-17T11:52:49Z</time><name>PT4327</name></trkpt>
<trkpt lat="53.451874" lon="05.634915"><ele>4.9</ele><time>2021-02-17T11:52:50Z</time><name>PT4328</name></trkpt>
<trkpt lat="53.451863" lon="05.634918"><ele>5.1</ele><time>2021-02-17T11:52:51Z</time><name>PT4329</name></trkpt>
<trkpt lat="53.451852" lon="05.634925"><ele>4.8</ele><time>2021-02-17T11:52:52Z</time><name>PT4330</name></trkpt>
<trkpt lat="53.451841" lon="05.634934"><ele>4.8</ele><time>2021-02-17T11:52:53Z</time><name>PT4331</name></trkpt>
<trkpt lat="53.451833" lon="05.634936"><ele>4.7</ele><time>2021-02-17T11:52:54Z</time><name>PT4332</name></trkpt>
<trkpt lat="53.451825" lon="05.634941"><ele>4.6</ele><time>2021-02-17T11:52:55Z</time><name>PT4333</name></trkpt>
<trkpt lat="53.451818" lon="05.634946"><ele>4.6</ele><time>2021-02-17T11:52:56Z</time><name>PT4334</name></trkpt>
<trkpt lat="53.451811" lon="05.634949"><ele>4.5</ele><time>2021-02-17T11:52:57Z</time><name>PT4335</name></trkpt>
<trkpt lat="53.451804" lon="05.634953"><ele>4.7</ele><time>2021-02-17T11:52:58Z</time><name>PT4336</name></trkpt>
<trkpt lat="53.451797" lon="05.634957"><ele>4.8</ele><time>2021-02-17T11:52:59Z</time><name>PT4337</name></trkpt>
<trkpt lat="53.451790" lon="05.634965"><ele>4.7</ele><time>2021-02-17T11:53:00Z</time><name>PT4338</name></trkpt>
<trkpt lat="53.451785" lon="05.634971"><ele>4.8</ele><time>2021-02-17T11:53:01Z</time><name>PT4339</name></trkpt>
<trkpt lat="53.451779" lon="05.634979"><ele>4.9</ele><time>2021-02-17T11:53:02Z</time><name>PT4340</name></trkpt>
<trkpt lat="53.451773" lon="05.634988"><ele>4.8</ele><time>2021-02-17T11:53:03Z</time><name>PT4341</name></trkpt>
<trkpt lat="53.451766" lon="05.634993"><ele>4.9</ele><time>2021-02-17T11:53:04Z</time><name>PT4342</name></trkpt>
<trkpt lat="53.451758" lon="05.634995"><ele>4.8</ele><time>2021-02-17T11:53:05Z</time><name>PT4343</name></trkpt>
<trkpt lat="53.451751" lon="05.634999"><ele>4.8</ele><time>2021-02-17T11:53:06Z</time><name>PT4344</name></trkpt>
<trkpt lat="53.451743" lon="05.635000"><ele>4.5</ele><time>2021-02-17T11:53:07Z</time><name>PT4345</name></trkpt>
<trkpt lat="53.451732" lon="05.635004"><ele>4.4</ele><time>2021-02-17T11:53:08Z</time><name>PT4346</name></trkpt>
<trkpt lat="53.451722" lon="05.635009"><ele>4.3</ele><time>2021-02-17T11:53:09Z</time><name>PT4347</name></trkpt>
<trkpt lat="53.451713" lon="05.635013"><ele>4.2</ele><time>2021-02-17T11:53:10Z</time><name>PT4348</name></trkpt>
<trkpt lat="53.451705" lon="05.635017"><ele>4</ele><time>2021-02-17T11:53:11Z</time><name>PT4349</name></trkpt>
<trkpt lat="53.451693" lon="05.635025"><ele>4.1</ele><time>2021-02-17T11:53:12Z</time><name>PT4350</name></trkpt>
<trkpt lat="53.451679" lon="05.635033"><ele>3.9</ele><time>2021-02-17T11:53:13Z</time><name>PT4351</name></trkpt>
<trkpt lat="53.451668" lon="05.635039"><ele>3.9</ele><time>2021-02-17T11:53:14Z</time><name>PT4352</name></trkpt>
<trkpt lat="53.451659" lon="05.635041"><ele>3.9</ele><time>2021-02-17T11:53:15Z</time><name>PT4353</name></trkpt>
<trkpt lat="53.451650" lon="05.635049"><ele>3.7</ele><time>2021-02-17T11:53:16Z</time><name>PT4354</name></trkpt>
<trkpt lat="53.451642" lon="05.635057"><ele>3.5</ele><time>2021-02-17T11:53:17Z</time><name>PT4355</name></trkpt>
<trkpt lat="53.451634" lon="05.635066"><ele>3.4</ele><time>2021-02-17T11:53:18Z</time><name>PT4356</name></trkpt>
<trkpt lat="53.451626" lon="05.635075"><ele>3.3</ele><time>2021-02-17T11:53:19Z</time><name>PT4357</name></trkpt>
<trkpt lat="53.451619" lon="05.635084"><ele>3.1</ele><time>2021-02-17T11:53:20Z</time><name>PT4358</name></trkpt>
<trkpt lat="53.451613" lon="05.635090"><ele>3.1</ele><time>2021-02-17T11:53:21Z</time><name>PT4359</name></trkpt>
<trkpt lat="53.451607" lon="05.635093"><ele>3.1</ele><time>2021-02-17T11:53:22Z</time><name>PT4360</name></trkpt>
<trkpt lat="53.451596" lon="05.635099"><ele>3.1</ele><time>2021-02-17T11:53:23Z</time><name>PT4361</name></trkpt>
<trkpt lat="53.451591" lon="05.635102"><ele>3.2</ele><time>2021-02-17T11:53:24Z</time><name>PT4362</name></trkpt>
<trkpt lat="53.451585" lon="05.635104"><ele>3.2</ele><time>2021-02-17T11:53:25Z</time><name>PT4363</name></trkpt>
<trkpt lat="53.451581" lon="05.635108"><ele>3.3</ele><time>2021-02-17T11:53:26Z</time><name>PT4364</name></trkpt>
<trkpt lat="53.451576" lon="05.635114"><ele>3.4</ele><time>2021-02-17T11:53:27Z</time><name>PT4365</name></trkpt>
<trkpt lat="53.451569" lon="05.635109"><ele>3.6</ele><time>2021-02-17T11:53:28Z</time><name>PT4366</name></trkpt>
<trkpt lat="53.451561" lon="05.635100"><ele>3.7</ele><time>2021-02-17T11:53:29Z</time><name>PT4367</name></trkpt>
<trkpt lat="53.451553" lon="05.635087"><ele>3.6</ele><time>2021-02-17T11:53:30Z</time><name>PT4368</name></trkpt>
<trkpt lat="53.451546" lon="05.635076"><ele>3.6</ele><time>2021-02-17T11:53:31Z</time><name>PT4369</name></trkpt>
<trkpt lat="53.451539" lon="05.635065"><ele>3.4</ele><time>2021-02-17T11:53:32Z</time><name>PT4370</name></trkpt>
<trkpt lat="53.451533" lon="05.635055"><ele>3.2</ele><time>2021-02-17T11:53:33Z</time><name>PT4371</name></trkpt>
<trkpt lat="53.451526" lon="05.635043"><ele>3.3</ele><time>2021-02-17T11:53:34Z</time><name>PT4372</name></trkpt>
<trkpt lat="53.451521" lon="05.635028"><ele>3.2</ele><time>2021-02-17T11:53:35Z</time><name>PT4373</name></trkpt>
<trkpt lat="53.451516" lon="05.635015"><ele>3.4</ele><time>2021-02-17T11:53:36Z</time><name>PT4374</name></trkpt>
<trkpt lat="53.451511" lon="05.635001"><ele>3.4</ele><time>2021-02-17T11:53:37Z</time><name>PT4375</name></trkpt>
<trkpt lat="53.451505" lon="05.634988"><ele>3.6</ele><time>2021-02-17T11:53:38Z</time><name>PT4376</name></trkpt>
<trkpt lat="53.451500" lon="05.634978"><ele>3.5</ele><time>2021-02-17T11:53:39Z</time><name>PT4377</name></trkpt>
<trkpt lat="53.451495" lon="05.634964"><ele>3.6</ele><time>2021-02-17T11:53:40Z</time><name>PT4378</name></trkpt>
<trkpt lat="53.451487" lon="05.634954"><ele>3.6</ele><time>2021-02-17T11:53:41Z</time><name>PT4379</name></trkpt>
<trkpt lat="53.451478" lon="05.634949"><ele>3.6</ele><time>2021-02-17T11:53:42Z</time><name>PT4380</name></trkpt>
<trkpt lat="53.451471" lon="05.634947"><ele>3.4</ele><time>2021-02-17T11:53:43Z</time><name>PT4381</name></trkpt>
<trkpt lat="53.451464" lon="05.634950"><ele>3.4</ele><time>2021-02-17T11:53:44Z</time><name>PT4382</name></trkpt>
<trkpt lat="53.451457" lon="05.634956"><ele>3.3</ele><time>2021-02-17T11:53:45Z</time><name>PT4383</name></trkpt>
<trkpt lat="53.451452" lon="05.634962"><ele>3</ele><time>2021-02-17T11:53:46Z</time><name>PT4384</name></trkpt>
<trkpt lat="53.451443" lon="05.634969"><ele>3.1</ele><time>2021-02-17T11:53:47Z</time><name>PT4385</name></trkpt>
<trkpt lat="53.451433" lon="05.634978"><ele>2.9</ele><time>2021-02-17T11:53:48Z</time><name>PT4386</name></trkpt>
<trkpt lat="53.451424" lon="05.634987"><ele>2.8</ele><time>2021-02-17T11:53:49Z</time><name>PT4387</name></trkpt>
<trkpt lat="53.451417" lon="05.634996"><ele>2.8</ele><time>2021-02-17T11:53:50Z</time><name>PT4388</name></trkpt>
<trkpt lat="53.451411" lon="05.635003"><ele>2.8</ele><time>2021-02-17T11:53:51Z</time><name>PT4389</name></trkpt>
<trkpt lat="53.451402" lon="05.635012"><ele>2.7</ele><time>2021-02-17T11:53:52Z</time><name>PT4390</name></trkpt>
<trkpt lat="53.451394" lon="05.635023"><ele>2.6</ele><time>2021-02-17T11:53:53Z</time><name>PT4391</name></trkpt>
<trkpt lat="53.451385" lon="05.635035"><ele>2.7</ele><time>2021-02-17T11:53:54Z</time><name>PT4392</name></trkpt>
<trkpt lat="53.451375" lon="05.635048"><ele>2.4</ele><time>2021-02-17T11:53:55Z</time><name>PT4393</name></trkpt>
<trkpt lat="53.451365" lon="05.635057"><ele>2.4</ele><time>2021-02-17T11:53:56Z</time><name>PT4394</name></trkpt>
<trkpt lat="53.451356" lon="05.635064"><ele>2.4</ele><time>2021-02-17T11:53:57Z</time><name>PT4395</name></trkpt>
<trkpt lat="53.451347" lon="05.635073"><ele>2.5</ele><time>2021-02-17T11:53:58Z</time><name>PT4396</name></trkpt>
<trkpt lat="53.451336" lon="05.635083"><ele>2.6</ele><time>2021-02-17T11:53:59Z</time><name>PT4397</name></trkpt>
<trkpt lat="53.451328" lon="05.635099"><ele>2.7</ele><time>2021-02-17T11:54:00Z</time><name>PT4398</name></trkpt>
<trkpt lat="53.451321" lon="05.635114"><ele>2.8</ele><time>2021-02-17T11:54:01Z</time><name>PT4399</name></trkpt>
<trkpt lat="53.451311" lon="05.635123"><ele>2.7</ele><time>2021-02-17T11:54:02Z</time><name>PT4400</name></trkpt>
<trkpt lat="53.451301" lon="05.635134"><ele>2.6</ele><time>2021-02-17T11:54:03Z</time><name>PT4401</name></trkpt>
<trkpt lat="53.451293" lon="05.635145"><ele>2.4</ele><time>2021-02-17T11:54:04Z</time><name>PT4402</name></trkpt>
<trkpt lat="53.451285" lon="05.635154"><ele>2.1</ele><time>2021-02-17T11:54:05Z</time><name>PT4403</name></trkpt>
<trkpt lat="53.451276" lon="05.635162"><ele>2</ele><time>2021-02-17T11:54:06Z</time><name>PT4404</name></trkpt>
<trkpt lat="53.451267" lon="05.635170"><ele>1.9</ele><time>2021-02-17T11:54:07Z</time><name>PT4405</name></trkpt>
<trkpt lat="53.451256" lon="05.635178"><ele>1.9</ele><time>2021-02-17T11:54:08Z</time><name>PT4406</name></trkpt>
<trkpt lat="53.451244" lon="05.635185"><ele>1.9</ele><time>2021-02-17T11:54:09Z</time><name>PT4407</name></trkpt>
<trkpt lat="53.451233" lon="05.635191"><ele>1.9</ele><time>2021-02-17T11:54:10Z</time><name>PT4408</name></trkpt>
<trkpt lat="53.451222" lon="05.635197"><ele>1.9</ele><time>2021-02-17T11:54:11Z</time><name>PT4409</name></trkpt>
<trkpt lat="53.451210" lon="05.635202"><ele>2</ele><time>2021-02-17T11:54:12Z</time><name>PT4410</name></trkpt>
<trkpt lat="53.451198" lon="05.635210"><ele>1.9</ele><time>2021-02-17T11:54:13Z</time><name>PT4411</name></trkpt>
<trkpt lat="53.451187" lon="05.635219"><ele>2.2</ele><time>2021-02-17T11:54:14Z</time><name>PT4412</name></trkpt>
<trkpt lat="53.451175" lon="05.635223"><ele>2.2</ele><time>2021-02-17T11:54:15Z</time><name>PT4413</name></trkpt>
<trkpt lat="53.451163" lon="05.635227"><ele>2.3</ele><time>2021-02-17T11:54:16Z</time><name>PT4414</name></trkpt>
<trkpt lat="53.451152" lon="05.635229"><ele>2.2</ele><time>2021-02-17T11:54:17Z</time><name>PT4415</name></trkpt>
<trkpt lat="53.451139" lon="05.635230"><ele>2.2</ele><time>2021-02-17T11:54:18Z</time><name>PT4416</name></trkpt>
<trkpt lat="53.451127" lon="05.635235"><ele>2.1</ele><time>2021-02-17T11:54:19Z</time><name>PT4417</name></trkpt>
<trkpt lat="53.451116" lon="05.635238"><ele>2</ele><time>2021-02-17T11:54:20Z</time><name>PT4418</name></trkpt>
<trkpt lat="53.451105" lon="05.635240"><ele>1.9</ele><time>2021-02-17T11:54:21Z</time><name>PT4419</name></trkpt>
<trkpt lat="53.451091" lon="05.635247"><ele>1.9</ele><time>2021-02-17T11:54:22Z</time><name>PT4420</name></trkpt>
<trkpt lat="53.451080" lon="05.635252"><ele>1.9</ele><time>2021-02-17T11:54:23Z</time><name>PT4421</name></trkpt>
<trkpt lat="53.451068" lon="05.635258"><ele>1.8</ele><time>2021-02-17T11:54:24Z</time><name>PT4422</name></trkpt>
<trkpt lat="53.451056" lon="05.635263"><ele>1.6</ele><time>2021-02-17T11:54:25Z</time><name>PT4423</name></trkpt>
<trkpt lat="53.451045" lon="05.635270"><ele>1.6</ele><time>2021-02-17T11:54:26Z</time><name>PT4424</name></trkpt>
<trkpt lat="53.451033" lon="05.635274"><ele>1.6</ele><time>2021-02-17T11:54:27Z</time><name>PT4425</name></trkpt>
<trkpt lat="53.451022" lon="05.635280"><ele>1.8</ele><time>2021-02-17T11:54:28Z</time><name>PT4426</name></trkpt>
<trkpt lat="53.451012" lon="05.635288"><ele>1.9</ele><time>2021-02-17T11:54:29Z</time><name>PT4427</name></trkpt>
<trkpt lat="53.451002" lon="05.635294"><ele>2.1</ele><time>2021-02-17T11:54:30Z</time><name>PT4428</name></trkpt>
<trkpt lat="53.450993" lon="05.635300"><ele>1.9</ele><time>2021-02-17T11:54:31Z</time><name>PT4429</name></trkpt>
<trkpt lat="53.450984" lon="05.635308"><ele>1.9</ele><time>2021-02-17T11:54:32Z</time><name>PT4430</name></trkpt>
<trkpt lat="53.450976" lon="05.635316"><ele>1.8</ele><time>2021-02-17T11:54:33Z</time><name>PT4431</name></trkpt>
<trkpt lat="53.450969" lon="05.635328"><ele>2</ele><time>2021-02-17T11:54:34Z</time><name>PT4432</name></trkpt>
<trkpt lat="53.450965" lon="05.635341"><ele>2.1</ele><time>2021-02-17T11:54:35Z</time><name>PT4433</name></trkpt>
<trkpt lat="53.450960" lon="05.635357"><ele>2.2</ele><time>2021-02-17T11:54:36Z</time><name>PT4434</name></trkpt>
<trkpt lat="53.450957" lon="05.635374"><ele>2.4</ele><time>2021-02-17T11:54:37Z</time><name>PT4435</name></trkpt>
<trkpt lat="53.450952" lon="05.635391"><ele>2.4</ele><time>2021-02-17T11:54:38Z</time><name>PT4436</name></trkpt>
<trkpt lat="53.450946" lon="05.635406"><ele>2.5</ele><time>2021-02-17T11:54:39Z</time><name>PT4437</name></trkpt>
<trkpt lat="53.450945" lon="05.635422"><ele>2.5</ele><time>2021-02-17T11:54:40Z</time><name>PT4438</name></trkpt>
<trkpt lat="53.450944" lon="05.635437"><ele>2.4</ele><time>2021-02-17T11:54:41Z</time><name>PT4439</name></trkpt>
<trkpt lat="53.450943" lon="05.635454"><ele>2.4</ele><time>2021-02-17T11:54:42Z</time><name>PT4440</name></trkpt>
<trkpt lat="53.450942" lon="05.635471"><ele>2.1</ele><time>2021-02-17T11:54:43Z</time><name>PT4441</name></trkpt>
<trkpt lat="53.450942" lon="05.635490"><ele>2.1</ele><time>2021-02-17T11:54:44Z</time><name>PT4442</name></trkpt>
<trkpt lat="53.450943" lon="05.635508"><ele>2</ele><time>2021-02-17T11:54:45Z</time><name>PT4443</name></trkpt>
<trkpt lat="53.450944" lon="05.635524"><ele>2.1</ele><time>2021-02-17T11:54:46Z</time><name>PT4444</name></trkpt>
<trkpt lat="53.450944" lon="05.635539"><ele>2.2</ele><time>2021-02-17T11:54:47Z</time><name>PT4445</name></trkpt>
<trkpt lat="53.450941" lon="05.635559"><ele>2.1</ele><time>2021-02-17T11:54:48Z</time><name>PT4446</name></trkpt>
<trkpt lat="53.450938" lon="05.635577"><ele>2.1</ele><time>2021-02-17T11:54:49Z</time><name>PT4447</name></trkpt>
<trkpt lat="53.450938" lon="05.635591"><ele>2</ele><time>2021-02-17T11:54:50Z</time><name>PT4448</name></trkpt>
<trkpt lat="53.450938" lon="05.635606"><ele>2</ele><time>2021-02-17T11:54:51Z</time><name>PT4449</name></trkpt>
<trkpt lat="53.450936" lon="05.635627"><ele>2.1</ele><time>2021-02-17T11:54:52Z</time><name>PT4450</name></trkpt>
<trkpt lat="53.450934" lon="05.635651"><ele>2</ele><time>2021-02-17T11:54:53Z</time><name>PT4451</name></trkpt>
<trkpt lat="53.450932" lon="05.635670"><ele>2.1</ele><time>2021-02-17T11:54:54Z</time><name>PT4452</name></trkpt>
<trkpt lat="53.450929" lon="05.635686"><ele>2.1</ele><time>2021-02-17T11:54:55Z</time><name>PT4453</name></trkpt>
<trkpt lat="53.450927" lon="05.635701"><ele>2.2</ele><time>2021-02-17T11:54:56Z</time><name>PT4454</name></trkpt>
<trkpt lat="53.450925" lon="05.635720"><ele>2.3</ele><time>2021-02-17T11:54:57Z</time><name>PT4455</name></trkpt>
<trkpt lat="53.450924" lon="05.635740"><ele>2.4</ele><time>2021-02-17T11:54:58Z</time><name>PT4456</name></trkpt>
<trkpt lat="53.450923" lon="05.635757"><ele>2.4</ele><time>2021-02-17T11:54:59Z</time><name>PT4457</name></trkpt>
<trkpt lat="53.450921" lon="05.635775"><ele>2.4</ele><time>2021-02-17T11:55:00Z</time><name>PT4458</name></trkpt>
<trkpt lat="53.450918" lon="05.635793"><ele>2.4</ele><time>2021-02-17T11:55:01Z</time><name>PT4459</name></trkpt>
<trkpt lat="53.450915" lon="05.635809"><ele>2.1</ele><time>2021-02-17T11:55:02Z</time><name>PT4460</name></trkpt>
<trkpt lat="53.450910" lon="05.635821"><ele>2</ele><time>2021-02-17T11:55:03Z</time><name>PT4461</name></trkpt>
<trkpt lat="53.450908" lon="05.635835"><ele>2.1</ele><time>2021-02-17T11:55:04Z</time><name>PT4462</name></trkpt>
<trkpt lat="53.450907" lon="05.635852"><ele>1.9</ele><time>2021-02-17T11:55:05Z</time><name>PT4463</name></trkpt>
<trkpt lat="53.450906" lon="05.635871"><ele>1.9</ele><time>2021-02-17T11:55:06Z</time><name>PT4464</name></trkpt>
<trkpt lat="53.450905" lon="05.635893"><ele>2</ele><time>2021-02-17T11:55:07Z</time><name>PT4465</name></trkpt>
<trkpt lat="53.450903" lon="05.635912"><ele>1.9</ele><time>2021-02-17T11:55:08Z</time><name>PT4466</name></trkpt>
<trkpt lat="53.450900" lon="05.635927"><ele>1.9</ele><time>2021-02-17T11:55:09Z</time><name>PT4467</name></trkpt>
<trkpt lat="53.450897" lon="05.635944"><ele>2.1</ele><time>2021-02-17T11:55:10Z</time><name>PT4468</name></trkpt>
<trkpt lat="53.450892" lon="05.635965"><ele>2</ele><time>2021-02-17T11:55:11Z</time><name>PT4469</name></trkpt>
<trkpt lat="53.450889" lon="05.635986"><ele>2.3</ele><time>2021-02-17T11:55:12Z</time><name>PT4470</name></trkpt>
<trkpt lat="53.450888" lon="05.636007"><ele>2.2</ele><time>2021-02-17T11:55:13Z</time><name>PT4471</name></trkpt>
<trkpt lat="53.450885" lon="05.636024"><ele>2</ele><time>2021-02-17T11:55:14Z</time><name>PT4472</name></trkpt>
<trkpt lat="53.450881" lon="05.636041"><ele>2.1</ele><time>2021-02-17T11:55:15Z</time><name>PT4473</name></trkpt>
<trkpt lat="53.450875" lon="05.636056"><ele>1.9</ele><time>2021-02-17T11:55:16Z</time><name>PT4474</name></trkpt>
<trkpt lat="53.450872" lon="05.636072"><ele>2</ele><time>2021-02-17T11:55:17Z</time><name>PT4475</name></trkpt>
<trkpt lat="53.450871" lon="05.636089"><ele>2</ele><time>2021-02-17T11:55:18Z</time><name>PT4476</name></trkpt>
<trkpt lat="53.450872" lon="05.636105"><ele>1.9</ele><time>2021-02-17T11:55:19Z</time><name>PT4477</name></trkpt>
<trkpt lat="53.450869" lon="05.636116"><ele>1.9</ele><time>2021-02-17T11:55:20Z</time><name>PT4478</name></trkpt>
<trkpt lat="53.450865" lon="05.636131"><ele>1.9</ele><time>2021-02-17T11:55:21Z</time><name>PT4479</name></trkpt>
<trkpt lat="53.450861" lon="05.636144"><ele>1.9</ele><time>2021-02-17T11:55:22Z</time><name>PT4480</name></trkpt>
<trkpt lat="53.450859" lon="05.636158"><ele>2.1</ele><time>2021-02-17T11:55:23Z</time><name>PT4481</name></trkpt>
<trkpt lat="53.450854" lon="05.636173"><ele>2.1</ele><time>2021-02-17T11:55:24Z</time><name>PT4482</name></trkpt>
<trkpt lat="53.450851" lon="05.636183"><ele>2.3</ele><time>2021-02-17T11:55:25Z</time><name>PT4483</name></trkpt>
<trkpt lat="53.450848" lon="05.636195"><ele>2.4</ele><time>2021-02-17T11:55:26Z</time><name>PT4484</name></trkpt>
<trkpt lat="53.450845" lon="05.636209"><ele>2.4</ele><time>2021-02-17T11:55:27Z</time><name>PT4485</name></trkpt>
<trkpt lat="53.450843" lon="05.636221"><ele>2.3</ele><time>2021-02-17T11:55:28Z</time><name>PT4486</name></trkpt>
<trkpt lat="53.450839" lon="05.636231"><ele>2.3</ele><time>2021-02-17T11:55:30Z</time><name>PT4487</name></trkpt>
<trkpt lat="53.450836" lon="05.636246"><ele>2.2</ele><time>2021-02-17T11:55:30Z</time><name>PT4488</name></trkpt>
<trkpt lat="53.450832" lon="05.636261"><ele>1.9</ele><time>2021-02-17T11:55:31Z</time><name>PT4489</name></trkpt>
<trkpt lat="53.450829" lon="05.636272"><ele>1.8</ele><time>2021-02-17T11:55:32Z</time><name>PT4490</name></trkpt>
<trkpt lat="53.450827" lon="05.636286"><ele>1.7</ele><time>2021-02-17T11:55:33Z</time><name>PT4491</name></trkpt>
<trkpt lat="53.450823" lon="05.636299"><ele>1.7</ele><time>2021-02-17T11:55:34Z</time><name>PT4492</name></trkpt>
<trkpt lat="53.450818" lon="05.636309"><ele>1.7</ele><time>2021-02-17T11:55:35Z</time><name>PT4493</name></trkpt>
<trkpt lat="53.450815" lon="05.636323"><ele>1.8</ele><time>2021-02-17T11:55:36Z</time><name>PT4494</name></trkpt>
<trkpt lat="53.450811" lon="05.636337"><ele>1.9</ele><time>2021-02-17T11:55:37Z</time><name>PT4495</name></trkpt>
<trkpt lat="53.450805" lon="05.636352"><ele>1.9</ele><time>2021-02-17T11:55:38Z</time><name>PT4496</name></trkpt>
<trkpt lat="53.450800" lon="05.636362"><ele>1.9</ele><time>2021-02-17T11:55:39Z</time><name>PT4497</name></trkpt>
<trkpt lat="53.450795" lon="05.636378"><ele>2</ele><time>2021-02-17T11:55:40Z</time><name>PT4498</name></trkpt>
<trkpt lat="53.450789" lon="05.636390"><ele>2.1</ele><time>2021-02-17T11:55:41Z</time><name>PT4499</name></trkpt>
<trkpt lat="53.450777" lon="05.636416"><ele>1.9</ele><time>2021-02-17T11:55:42Z</time><name>PT4500</name></trkpt>
<trkpt lat="53.450766" lon="05.636430"><ele>1.9</ele><time>2021-02-17T11:55:43Z</time><name>PT4501</name></trkpt>
<trkpt lat="53.450755" lon="05.636438"><ele>1.8</ele><time>2021-02-17T11:55:44Z</time><name>PT4502</name></trkpt>
<trkpt lat="53.450746" lon="05.636445"><ele>1.7</ele><time>2021-02-17T11:55:45Z</time><name>PT4503</name></trkpt>
<trkpt lat="53.450735" lon="05.636452"><ele>1.7</ele><time>2021-02-17T11:55:46Z</time><name>PT4504</name></trkpt>
<trkpt lat="53.450723" lon="05.636457"><ele>1.9</ele><time>2021-02-17T11:55:47Z</time><name>PT4505</name></trkpt>
<trkpt lat="53.450713" lon="05.636462"><ele>1.9</ele><time>2021-02-17T11:55:48Z</time><name>PT4506</name></trkpt>
<trkpt lat="53.450703" lon="05.636465"><ele>1.9</ele><time>2021-02-17T11:55:49Z</time><name>PT4507</name></trkpt>
<trkpt lat="53.450696" lon="05.636461"><ele>2</ele><time>2021-02-17T11:55:50Z</time><name>PT4508</name></trkpt>
<trkpt lat="53.450687" lon="05.636459"><ele>2.1</ele><time>2021-02-17T11:55:51Z</time><name>PT4509</name></trkpt>
<trkpt lat="53.450678" lon="05.636460"><ele>2.1</ele><time>2021-02-17T11:55:52Z</time><name>PT4510</name></trkpt>
<trkpt lat="53.450667" lon="05.636465"><ele>2.1</ele><time>2021-02-17T11:55:53Z</time><name>PT4511</name></trkpt>
<trkpt lat="53.450655" lon="05.636468"><ele>1.9</ele><time>2021-02-17T11:55:54Z</time><name>PT4512</name></trkpt>
<trkpt lat="53.450644" lon="05.636470"><ele>1.9</ele><time>2021-02-17T11:55:55Z</time><name>PT4513</name></trkpt>
<trkpt lat="53.450633" lon="05.636471"><ele>1.9</ele><time>2021-02-17T11:55:56Z</time><name>PT4514</name></trkpt>
<trkpt lat="53.450625" lon="05.636467"><ele>1.9</ele><time>2021-02-17T11:55:57Z</time><name>PT4515</name></trkpt>
<trkpt lat="53.450615" lon="05.636466"><ele>2</ele><time>2021-02-17T11:55:58Z</time><name>PT4516</name></trkpt>
<trkpt lat="53.450604" lon="05.636463"><ele>2.1</ele><time>2021-02-17T11:55:59Z</time><name>PT4517</name></trkpt>
<trkpt lat="53.450595" lon="05.636460"><ele>2.2</ele><time>2021-02-17T11:56:00Z</time><name>PT4518</name></trkpt>
<trkpt lat="53.450588" lon="05.636457"><ele>2.3</ele><time>2021-02-17T11:56:01Z</time><name>PT4519</name></trkpt>
<trkpt lat="53.450579" lon="05.636456"><ele>2.1</ele><time>2021-02-17T11:56:02Z</time><name>PT4520</name></trkpt>
<trkpt lat="53.450569" lon="05.636456"><ele>2.1</ele><time>2021-02-17T11:56:03Z</time><name>PT4521</name></trkpt>
<trkpt lat="53.450557" lon="05.636456"><ele>2</ele><time>2021-02-17T11:56:04Z</time><name>PT4522</name></trkpt>
<trkpt lat="53.450548" lon="05.636455"><ele>2.1</ele><time>2021-02-17T11:56:05Z</time><name>PT4523</name></trkpt>
<trkpt lat="53.450538" lon="05.636453"><ele>2.2</ele><time>2021-02-17T11:56:06Z</time><name>PT4524</name></trkpt>
<trkpt lat="53.450528" lon="05.636449"><ele>2.4</ele><time>2021-02-17T11:56:07Z</time><name>PT4525</name></trkpt>
<trkpt lat="53.450518" lon="05.636444"><ele>2.4</ele><time>2021-02-17T11:56:08Z</time><name>PT4526</name></trkpt>
<trkpt lat="53.450503" lon="05.636439"><ele>2.4</ele><time>2021-02-17T11:56:09Z</time><name>PT4527</name></trkpt>
<trkpt lat="53.450491" lon="05.636437"><ele>2.1</ele><time>2021-02-17T11:56:10Z</time><name>PT4528</name></trkpt>
<trkpt lat="53.450480" lon="05.636441"><ele>1.9</ele><time>2021-02-17T11:56:11Z</time><name>PT4529</name></trkpt>
<trkpt lat="53.450467" lon="05.636446"><ele>1.9</ele><time>2021-02-17T11:56:12Z</time><name>PT4530</name></trkpt>
<trkpt lat="53.450457" lon="05.636449"><ele>1.9</ele><time>2021-02-17T11:56:13Z</time><name>PT4531</name></trkpt>
<trkpt lat="53.450449" lon="05.636454"><ele>2</ele><time>2021-02-17T11:56:14Z</time><name>PT4532</name></trkpt>
<trkpt lat="53.450441" lon="05.636462"><ele>2</ele><time>2021-02-17T11:56:15Z</time><name>PT4533</name></trkpt>
<trkpt lat="53.450434" lon="05.636469"><ele>1.9</ele><time>2021-02-17T11:56:16Z</time><name>PT4534</name></trkpt>
<trkpt lat="53.450426" lon="05.636476"><ele>1.9</ele><time>2021-02-17T11:56:17Z</time><name>PT4535</name></trkpt>
<trkpt lat="53.450420" lon="05.636484"><ele>2</ele><time>2021-02-17T11:56:18Z</time><name>PT4536</name></trkpt>
<trkpt lat="53.450413" lon="05.636496"><ele>2</ele><time>2021-02-17T11:56:19Z</time><name>PT4537</name></trkpt>
<trkpt lat="53.450405" lon="05.636505"><ele>2</ele><time>2021-02-17T11:56:20Z</time><name>PT4538</name></trkpt>
<trkpt lat="53.450398" lon="05.636517"><ele>1.9</ele><time>2021-02-17T11:56:21Z</time><name>PT4539</name></trkpt>
<trkpt lat="53.450382" lon="05.636527"><ele>1.8</ele><time>2021-02-17T11:56:22Z</time><name>PT4540</name></trkpt>
<trkpt lat="53.450371" lon="05.636537"><ele>1.9</ele><time>2021-02-17T11:56:23Z</time><name>PT4541</name></trkpt>
<trkpt lat="53.450364" lon="05.636546"><ele>1.9</ele><time>2021-02-17T11:56:24Z</time><name>PT4542</name></trkpt>
<trkpt lat="53.450357" lon="05.636557"><ele>1.9</ele><time>2021-02-17T11:56:25Z</time><name>PT4543</name></trkpt>
<trkpt lat="53.450349" lon="05.636569"><ele>2.1</ele><time>2021-02-17T11:56:26Z</time><name>PT4544</name></trkpt>
<trkpt lat="53.450343" lon="05.636581"><ele>2.2</ele><time>2021-02-17T11:56:27Z</time><name>PT4545</name></trkpt>
<trkpt lat="53.450337" lon="05.636595"><ele>2.1</ele><time>2021-02-17T11:56:28Z</time><name>PT4546</name></trkpt>
<trkpt lat="53.450333" lon="05.636606"><ele>2.3</ele><time>2021-02-17T11:56:29Z</time><name>PT4547</name></trkpt>
<trkpt lat="53.450327" lon="05.636618"><ele>2.1</ele><time>2021-02-17T11:56:30Z</time><name>PT4548</name></trkpt>
<trkpt lat="53.450318" lon="05.636626"><ele>1.9</ele><time>2021-02-17T11:56:31Z</time><name>PT4549</name></trkpt>
<trkpt lat="53.450310" lon="05.636634"><ele>1.8</ele><time>2021-02-17T11:56:32Z</time><name>PT4550</name></trkpt>
<trkpt lat="53.450301" lon="05.636642"><ele>1.8</ele><time>2021-02-17T11:56:33Z</time><name>PT4551</name></trkpt>
<trkpt lat="53.450297" lon="05.636646"><ele>1.9</ele><time>2021-02-17T11:56:34Z</time><name>PT4552</name></trkpt>
<trkpt lat="53.450293" lon="05.636658"><ele>1.9</ele><time>2021-02-17T11:56:35Z</time><name>PT4553</name></trkpt>
<trkpt lat="53.450288" lon="05.636671"><ele>2</ele><time>2021-02-17T11:56:36Z</time><name>PT4554</name></trkpt>
<trkpt lat="53.450283" lon="05.636680"><ele>1.9</ele><time>2021-02-17T11:56:37Z</time><name>PT4555</name></trkpt>
<trkpt lat="53.450276" lon="05.636686"><ele>1.9</ele><time>2021-02-17T11:56:38Z</time><name>PT4556</name></trkpt>
<trkpt lat="53.450270" lon="05.636696"><ele>1.9</ele><time>2021-02-17T11:56:39Z</time><name>PT4557</name></trkpt>
<trkpt lat="53.450263" lon="05.636707"><ele>1.9</ele><time>2021-02-17T11:56:40Z</time><name>PT4558</name></trkpt>
<trkpt lat="53.450257" lon="05.636719"><ele>1.9</ele><time>2021-02-17T11:56:41Z</time><name>PT4559</name></trkpt>
<trkpt lat="53.450254" lon="05.636728"><ele>1.7</ele><time>2021-02-17T11:56:42Z</time><name>PT4560</name></trkpt>
<trkpt lat="53.450248" lon="05.636740"><ele>1.6</ele><time>2021-02-17T11:56:43Z</time><name>PT4561</name></trkpt>
<trkpt lat="53.450244" lon="05.636754"><ele>1.5</ele><time>2021-02-17T11:56:44Z</time><name>PT4562</name></trkpt>
<trkpt lat="53.450241" lon="05.636771"><ele>1.4</ele><time>2021-02-17T11:56:45Z</time><name>PT4563</name></trkpt>
<trkpt lat="53.450234" lon="05.636790"><ele>1.5</ele><time>2021-02-17T11:56:46Z</time><name>PT4564</name></trkpt>
<trkpt lat="53.450230" lon="05.636809"><ele>1.5</ele><time>2021-02-17T11:56:47Z</time><name>PT4565</name></trkpt>
<trkpt lat="53.450227" lon="05.636827"><ele>1.5</ele><time>2021-02-17T11:56:48Z</time><name>PT4566</name></trkpt>
<trkpt lat="53.450221" lon="05.636844"><ele>1.4</ele><time>2021-02-17T11:56:49Z</time><name>PT4567</name></trkpt>
<trkpt lat="53.450214" lon="05.636861"><ele>1.5</ele><time>2021-02-17T11:56:50Z</time><name>PT4568</name></trkpt>
<trkpt lat="53.450206" lon="05.636874"><ele>1.4</ele><time>2021-02-17T11:56:51Z</time><name>PT4569</name></trkpt>
<trkpt lat="53.450200" lon="05.636891"><ele>1.4</ele><time>2021-02-17T11:56:52Z</time><name>PT4570</name></trkpt>
<trkpt lat="53.450196" lon="05.636907"><ele>1.4</ele><time>2021-02-17T11:56:53Z</time><name>PT4571</name></trkpt>
<trkpt lat="53.450191" lon="05.636925"><ele>1.4</ele><time>2021-02-17T11:56:54Z</time><name>PT4572</name></trkpt>
<trkpt lat="53.450186" lon="05.636944"><ele>1.5</ele><time>2021-02-17T11:56:55Z</time><name>PT4573</name></trkpt>
<trkpt lat="53.450182" lon="05.636960"><ele>1.6</ele><time>2021-02-17T11:56:56Z</time><name>PT4574</name></trkpt>
<trkpt lat="53.450177" lon="05.636973"><ele>1.6</ele><time>2021-02-17T11:56:57Z</time><name>PT4575</name></trkpt>
<trkpt lat="53.450174" lon="05.636987"><ele>1.6</ele><time>2021-02-17T11:56:58Z</time><name>PT4576</name></trkpt>
<trkpt lat="53.450171" lon="05.637004"><ele>1.6</ele><time>2021-02-17T11:56:59Z</time><name>PT4577</name></trkpt>
<trkpt lat="53.450168" lon="05.637019"><ele>1.4</ele><time>2021-02-17T11:57:00Z</time><name>PT4578</name></trkpt>
<trkpt lat="53.450167" lon="05.637035"><ele>1.4</ele><time>2021-02-17T11:57:01Z</time><name>PT4579</name></trkpt>
<trkpt lat="53.450164" lon="05.637054"><ele>1.4</ele><time>2021-02-17T11:57:02Z</time><name>PT4580</name></trkpt>
<trkpt lat="53.450161" lon="05.637077"><ele>1.5</ele><time>2021-02-17T11:57:03Z</time><name>PT4581</name></trkpt>
<trkpt lat="53.450157" lon="05.637095"><ele>1.5</ele><time>2021-02-17T11:57:04Z</time><name>PT4582</name></trkpt>
<trkpt lat="53.450151" lon="05.637111"><ele>1.4</ele><time>2021-02-17T11:57:05Z</time><name>PT4583</name></trkpt>
<trkpt lat="53.450146" lon="05.637126"><ele>1.4</ele><time>2021-02-17T11:57:06Z</time><name>PT4584</name></trkpt>
<trkpt lat="53.450139" lon="05.637143"><ele>1.4</ele><time>2021-02-17T11:57:07Z</time><name>PT4585</name></trkpt>
<trkpt lat="53.450133" lon="05.637160"><ele>1.3</ele><time>2021-02-17T11:57:08Z</time><name>PT4586</name></trkpt>
<trkpt lat="53.450128" lon="05.637177"><ele>1.4</ele><time>2021-02-17T11:57:09Z</time><name>PT4587</name></trkpt>
<trkpt lat="53.450124" lon="05.637198"><ele>1.4</ele><time>2021-02-17T11:57:10Z</time><name>PT4588</name></trkpt>
<trkpt lat="53.450120" lon="05.637217"><ele>1.4</ele><time>2021-02-17T11:57:11Z</time><name>PT4589</name></trkpt>
<trkpt lat="53.450114" lon="05.637235"><ele>1.4</ele><time>2021-02-17T11:57:12Z</time><name>PT4590</name></trkpt>
<trkpt lat="53.450111" lon="05.637245"><ele>1.4</ele><time>2021-02-17T11:57:13Z</time><name>PT4591</name></trkpt>
<trkpt lat="53.450105" lon="05.637259"><ele>1.7</ele><time>2021-02-17T11:57:14Z</time><name>PT4592</name></trkpt>
<trkpt lat="53.450101" lon="05.637274"><ele>1.6</ele><time>2021-02-17T11:57:15Z</time><name>PT4593</name></trkpt>
<trkpt lat="53.450095" lon="05.637292"><ele>1.7</ele><time>2021-02-17T11:57:16Z</time><name>PT4594</name></trkpt>
<trkpt lat="53.450089" lon="05.637306"><ele>1.7</ele><time>2021-02-17T11:57:17Z</time><name>PT4595</name></trkpt>
<trkpt lat="53.450086" lon="05.637318"><ele>1.7</ele><time>2021-02-17T11:57:18Z</time><name>PT4596</name></trkpt>
<trkpt lat="53.450083" lon="05.637332"><ele>1.6</ele><time>2021-02-17T11:57:19Z</time><name>PT4597</name></trkpt>
<trkpt lat="53.450079" lon="05.637347"><ele>1.6</ele><time>2021-02-17T11:57:20Z</time><name>PT4598</name></trkpt>
<trkpt lat="53.450073" lon="05.637363"><ele>1.7</ele><time>2021-02-17T11:57:21Z</time><name>PT4599</name></trkpt>
<trkpt lat="53.450070" lon="05.637372"><ele>1.6</ele><time>2021-02-17T11:57:22Z</time><name>PT4600</name></trkpt>
<trkpt lat="53.450066" lon="05.637378"><ele>1.6</ele><time>2021-02-17T11:57:23Z</time><name>PT4601</name></trkpt>
<trkpt lat="53.450064" lon="05.637383"><ele>1.6</ele><time>2021-02-17T11:57:24Z</time><name>PT4602</name></trkpt>
<trkpt lat="53.450062" lon="05.637388"><ele>1.6</ele><time>2021-02-17T11:57:25Z</time><name>PT4603</name></trkpt>
<trkpt lat="53.450061" lon="05.637391"><ele>1.8</ele><time>2021-02-17T11:57:26Z</time><name>PT4604</name></trkpt>
<trkpt lat="53.450061" lon="05.637408"><ele>1.8</ele><time>2021-02-17T11:57:33Z</time><name>PT4605</name></trkpt>
<trkpt lat="53.450057" lon="05.637416"><ele>1.6</ele><time>2021-02-17T11:57:34Z</time><name>PT4606</name></trkpt>
<trkpt lat="53.450056" lon="05.637423"><ele>1.6</ele><time>2021-02-17T11:57:35Z</time><name>PT4607</name></trkpt>
<trkpt lat="53.450055" lon="05.637425"><ele>1.5</ele><time>2021-02-17T11:57:36Z</time><name>PT4608</name></trkpt>
<trkpt lat="53.450049" lon="05.637434"><ele>1.4</ele><time>2021-02-17T11:57:37Z</time><name>PT4609</name></trkpt>
<trkpt lat="53.450046" lon="05.637447"><ele>1.4</ele><time>2021-02-17T11:57:38Z</time><name>PT4610</name></trkpt>
<trkpt lat="53.450043" lon="05.637459"><ele>1.5</ele><time>2021-02-17T11:57:39Z</time><name>PT4611</name></trkpt>
<trkpt lat="53.450040" lon="05.637471"><ele>1.4</ele><time>2021-02-17T11:57:40Z</time><name>PT4612</name></trkpt>
<trkpt lat="53.450040" lon="05.637483"><ele>1.5</ele><time>2021-02-17T11:57:41Z</time><name>PT4613</name></trkpt>
<trkpt lat="53.450042" lon="05.637496"><ele>1.5</ele><time>2021-02-17T11:57:42Z</time><name>PT4614</name></trkpt>
<trkpt lat="53.450047" lon="05.637509"><ele>1.5</ele><time>2021-02-17T11:57:43Z</time><name>PT4615</name></trkpt>
<trkpt lat="53.450052" lon="05.637520"><ele>1.5</ele><time>2021-02-17T11:57:44Z</time><name>PT4616</name></trkpt>
<trkpt lat="53.450056" lon="05.637528"><ele>1.7</ele><time>2021-02-17T11:57:45Z</time><name>PT4617</name></trkpt>
<trkpt lat="53.450063" lon="05.637534"><ele>1.7</ele><time>2021-02-17T11:57:46Z</time><name>PT4618</name></trkpt>
<trkpt lat="53.450070" lon="05.637546"><ele>1.5</ele><time>2021-02-17T11:57:47Z</time><name>PT4619</name></trkpt>
<trkpt lat="53.450076" lon="05.637553"><ele>1.5</ele><time>2021-02-17T11:57:48Z</time><name>PT4620</name></trkpt>
<trkpt lat="53.450084" lon="05.637560"><ele>1.6</ele><time>2021-02-17T11:57:49Z</time><name>PT4621</name></trkpt>
<trkpt lat="53.450091" lon="05.637567"><ele>1.5</ele><time>2021-02-17T11:57:50Z</time><name>PT4622</name></trkpt>
<trkpt lat="53.450096" lon="05.637572"><ele>1.7</ele><time>2021-02-17T11:57:51Z</time><name>PT4623</name></trkpt>
<trkpt lat="53.450101" lon="05.637574"><ele>1.9</ele><time>2021-02-17T11:57:52Z</time><name>PT4624</name></trkpt>
<trkpt lat="53.450107" lon="05.637577"><ele>1.8</ele><time>2021-02-17T11:57:53Z</time><name>PT4625</name></trkpt>
<trkpt lat="53.450114" lon="05.637583"><ele>1.7</ele><time>2021-02-17T11:57:54Z</time><name>PT4626</name></trkpt>
<trkpt lat="53.450122" lon="05.637590"><ele>2</ele><time>2021-02-17T11:57:55Z</time><name>PT4627</name></trkpt>
<trkpt lat="53.450132" lon="05.637595"><ele>1.8</ele><time>2021-02-17T11:57:56Z</time><name>PT4628</name></trkpt>
<trkpt lat="53.450141" lon="05.637599"><ele>1.8</ele><time>2021-02-17T11:57:57Z</time><name>PT4629</name></trkpt>
<trkpt lat="53.450153" lon="05.637604"><ele>1.9</ele><time>2021-02-17T11:57:58Z</time><name>PT4630</name></trkpt>
<trkpt lat="53.450164" lon="05.637611"><ele>1.6</ele><time>2021-02-17T11:57:59Z</time><name>PT4631</name></trkpt>
<trkpt lat="53.450174" lon="05.637616"><ele>1.7</ele><time>2021-02-17T11:58:00Z</time><name>PT4632</name></trkpt>
<trkpt lat="53.450183" lon="05.637622"><ele>1.7</ele><time>2021-02-17T11:58:01Z</time><name>PT4633</name></trkpt>
<trkpt lat="53.450191" lon="05.637628"><ele>1.5</ele><time>2021-02-17T11:58:02Z</time><name>PT4634</name></trkpt>
<trkpt lat="53.450200" lon="05.637635"><ele>1.6</ele><time>2021-02-17T11:58:03Z</time><name>PT4635</name></trkpt>
<trkpt lat="53.450209" lon="05.637646"><ele>1.6</ele><time>2021-02-17T11:58:04Z</time><name>PT4636</name></trkpt>
<trkpt lat="53.450218" lon="05.637655"><ele>1.5</ele><time>2021-02-17T11:58:05Z</time><name>PT4637</name></trkpt>
<trkpt lat="53.450226" lon="05.637664"><ele>1.5</ele><time>2021-02-17T11:58:06Z</time><name>PT4638</name></trkpt>
<trkpt lat="53.450236" lon="05.637674"><ele>1.4</ele><time>2021-02-17T11:58:07Z</time><name>PT4639</name></trkpt>
<trkpt lat="53.450245" lon="05.637685"><ele>1.4</ele><time>2021-02-17T11:58:08Z</time><name>PT4640</name></trkpt>
<trkpt lat="53.450254" lon="05.637691"><ele>1.5</ele><time>2021-02-17T11:58:09Z</time><name>PT4641</name></trkpt>
<trkpt lat="53.450264" lon="05.637700"><ele>1.5</ele><time>2021-02-17T11:58:10Z</time><name>PT4642</name></trkpt>
<trkpt lat="53.450274" lon="05.637708"><ele>1.5</ele><time>2021-02-17T11:58:11Z</time><name>PT4643</name></trkpt>
<trkpt lat="53.450285" lon="05.637715"><ele>1.4</ele><time>2021-02-17T11:58:12Z</time><name>PT4644</name></trkpt>
<trkpt lat="53.450298" lon="05.637720"><ele>1.4</ele><time>2021-02-17T11:58:13Z</time><name>PT4645</name></trkpt>
<trkpt lat="53.450311" lon="05.637726"><ele>1.3</ele><time>2021-02-17T11:58:14Z</time><name>PT4646</name></trkpt>
<trkpt lat="53.450321" lon="05.637734"><ele>1.2</ele><time>2021-02-17T11:58:15Z</time><name>PT4647</name></trkpt>
<trkpt lat="53.450329" lon="05.637741"><ele>1.4</ele><time>2021-02-17T11:58:16Z</time><name>PT4648</name></trkpt>
<trkpt lat="53.450338" lon="05.637748"><ele>1.4</ele><time>2021-02-17T11:58:17Z</time><name>PT4649</name></trkpt>
<trkpt lat="53.450347" lon="05.637753"><ele>1.4</ele><time>2021-02-17T11:58:18Z</time><name>PT4650</name></trkpt>
<trkpt lat="53.450356" lon="05.637758"><ele>1.5</ele><time>2021-02-17T11:58:19Z</time><name>PT4651</name></trkpt>
<trkpt lat="53.450361" lon="05.637763"><ele>1.5</ele><time>2021-02-17T11:58:20Z</time><name>PT4652</name></trkpt>
<trkpt lat="53.450363" lon="05.637766"><ele>1.6</ele><time>2021-02-17T11:58:21Z</time><name>PT4653</name></trkpt>
<trkpt lat="53.450366" lon="05.637766"><ele>1.7</ele><time>2021-02-17T11:58:22Z</time><name>PT4654</name></trkpt>
<trkpt lat="53.450368" lon="05.637766"><ele>1.5</ele><time>2021-02-17T11:58:23Z</time><name>PT4655</name></trkpt>
<trkpt lat="53.450371" lon="05.637769"><ele>1.4</ele><time>2021-02-17T11:58:24Z</time><name>PT4656</name></trkpt>
<trkpt lat="53.450371" lon="05.637774"><ele>1.4</ele><time>2021-02-17T11:58:28Z</time><name>PT4657</name></trkpt>
<trkpt lat="53.450374" lon="05.637776"><ele>1.6</ele><time>2021-02-17T11:58:29Z</time><name>PT4658</name></trkpt>
<trkpt lat="53.450376" lon="05.637771"><ele>1.5</ele><time>2021-02-17T11:58:30Z</time><name>PT4659</name></trkpt>
<trkpt lat="53.450381" lon="05.637775"><ele>1.6</ele><time>2021-02-17T11:58:32Z</time><name>PT4660</name></trkpt>
<trkpt lat="53.450388" lon="05.637783"><ele>1.8</ele><time>2021-02-17T11:58:33Z</time><name>PT4661</name></trkpt>
<trkpt lat="53.450396" lon="05.637792"><ele>1.8</ele><time>2021-02-17T11:58:34Z</time><name>PT4662</name></trkpt>
<trkpt lat="53.450404" lon="05.637799"><ele>1.8</ele><time>2021-02-17T11:58:35Z</time><name>PT4663</name></trkpt>
<trkpt lat="53.450411" lon="05.637808"><ele>1.7</ele><time>2021-02-17T11:58:36Z</time><name>PT4664</name></trkpt>
<trkpt lat="53.450421" lon="05.637815"><ele>1.5</ele><time>2021-02-17T11:58:37Z</time><name>PT4665</name></trkpt>
<trkpt lat="53.450428" lon="05.637824"><ele>1.4</ele><time>2021-02-17T11:58:38Z</time><name>PT4666</name></trkpt>
<trkpt lat="53.450437" lon="05.637833"><ele>1.4</ele><time>2021-02-17T11:58:39Z</time><name>PT4667</name></trkpt>
<trkpt lat="53.450446" lon="05.637835"><ele>1.3</ele><time>2021-02-17T11:58:40Z</time><name>PT4668</name></trkpt>
<trkpt lat="53.450458" lon="05.637844"><ele>1.4</ele><time>2021-02-17T11:58:41Z</time><name>PT4669</name></trkpt>
<trkpt lat="53.450468" lon="05.637849"><ele>1.3</ele><time>2021-02-17T11:58:42Z</time><name>PT4670</name></trkpt>
<trkpt lat="53.450474" lon="05.637856"><ele>1.4</ele><time>2021-02-17T11:58:43Z</time><name>PT4671</name></trkpt>
<trkpt lat="53.450482" lon="05.637865"><ele>1.4</ele><time>2021-02-17T11:58:44Z</time><name>PT4672</name></trkpt>
<trkpt lat="53.450489" lon="05.637873"><ele>1.4</ele><time>2021-02-17T11:58:45Z</time><name>PT4673</name></trkpt>
<trkpt lat="53.450496" lon="05.637881"><ele>1.5</ele><time>2021-02-17T11:58:46Z</time><name>PT4674</name></trkpt>
<trkpt lat="53.450504" lon="05.637890"><ele>1.4</ele><time>2021-02-17T11:58:47Z</time><name>PT4675</name></trkpt>
<trkpt lat="53.450510" lon="05.637902"><ele>1.4</ele><time>2021-02-17T11:58:48Z</time><name>PT4676</name></trkpt>
<trkpt lat="53.450516" lon="05.637913"><ele>1.5</ele><time>2021-02-17T11:58:49Z</time><name>PT4677</name></trkpt>
<trkpt lat="53.450524" lon="05.637927"><ele>1.4</ele><time>2021-02-17T11:58:50Z</time><name>PT4678</name></trkpt>
<trkpt lat="53.450535" lon="05.637935"><ele>1.5</ele><time>2021-02-17T11:58:51Z</time><name>PT4679</name></trkpt>
<trkpt lat="53.450545" lon="05.637945"><ele>1.7</ele><time>2021-02-17T11:58:52Z</time><name>PT4680</name></trkpt>
<trkpt lat="53.450556" lon="05.637951"><ele>1.8</ele><time>2021-02-17T11:58:53Z</time><name>PT4681</name></trkpt>
<trkpt lat="53.450568" lon="05.637959"><ele>1.8</ele><time>2021-02-17T11:58:54Z</time><name>PT4682</name></trkpt>
<trkpt lat="53.450580" lon="05.637969"><ele>1.8</ele><time>2021-02-17T11:58:55Z</time><name>PT4683</name></trkpt>
<trkpt lat="53.450590" lon="05.637979"><ele>1.7</ele><time>2021-02-17T11:58:56Z</time><name>PT4684</name></trkpt>
<trkpt lat="53.450600" lon="05.637988"><ele>1.4</ele><time>2021-02-17T11:58:57Z</time><name>PT4685</name></trkpt>
<trkpt lat="53.450609" lon="05.637999"><ele>1.4</ele><time>2021-02-17T11:58:58Z</time><name>PT4686</name></trkpt>
<trkpt lat="53.450617" lon="05.638012"><ele>1.4</ele><time>2021-02-17T11:58:59Z</time><name>PT4687</name></trkpt>
<trkpt lat="53.450627" lon="05.638022"><ele>1.4</ele><time>2021-02-17T11:59:00Z</time><name>PT4688</name></trkpt>
<trkpt lat="53.450637" lon="05.638030"><ele>1.4</ele><time>2021-02-17T11:59:01Z</time><name>PT4689</name></trkpt>
<trkpt lat="53.450650" lon="05.638037"><ele>1.4</ele><time>2021-02-17T11:59:02Z</time><name>PT4690</name></trkpt>
<trkpt lat="53.450661" lon="05.638045"><ele>1.4</ele><time>2021-02-17T11:59:03Z</time><name>PT4691</name></trkpt>
<trkpt lat="53.450672" lon="05.638055"><ele>1.3</ele><time>2021-02-17T11:59:04Z</time><name>PT4692</name></trkpt>
<trkpt lat="53.450682" lon="05.638063"><ele>1.2</ele><time>2021-02-17T11:59:05Z</time><name>PT4693</name></trkpt>
<trkpt lat="53.450694" lon="05.638070"><ele>1.3</ele><time>2021-02-17T11:59:06Z</time><name>PT4694</name></trkpt>
<trkpt lat="53.450706" lon="05.638079"><ele>1.2</ele><time>2021-02-17T11:59:07Z</time><name>PT4695</name></trkpt>
<trkpt lat="53.450709" lon="05.638091"><ele>1.3</ele><time>2021-02-17T11:59:08Z</time><name>PT4696</name></trkpt>
<trkpt lat="53.450716" lon="05.638098"><ele>1.3</ele><time>2021-02-17T11:59:09Z</time><name>PT4697</name></trkpt>
<trkpt lat="53.450725" lon="05.638104"><ele>1.4</ele><time>2021-02-17T11:59:10Z</time><name>PT4698</name></trkpt>
<trkpt lat="53.450733" lon="05.638111"><ele>1.4</ele><time>2021-02-17T11:59:11Z</time><name>PT4699</name></trkpt>
<trkpt lat="53.450741" lon="05.638118"><ele>1.4</ele><time>2021-02-17T11:59:12Z</time><name>PT4700</name></trkpt>
<trkpt lat="53.450745" lon="05.638127"><ele>1.6</ele><time>2021-02-17T11:59:13Z</time><name>PT4701</name></trkpt>
<trkpt lat="53.450756" lon="05.638136"><ele>1.5</ele><time>2021-02-17T11:59:14Z</time><name>PT4702</name></trkpt>
<trkpt lat="53.450766" lon="05.638141"><ele>1.7</ele><time>2021-02-17T11:59:15Z</time><name>PT4703</name></trkpt>
<trkpt lat="53.450778" lon="05.638145"><ele>1.9</ele><time>2021-02-17T11:59:16Z</time><name>PT4704</name></trkpt>
<trkpt lat="53.450790" lon="05.638151"><ele>1.9</ele><time>2021-02-17T11:59:17Z</time><name>PT4705</name></trkpt>
<trkpt lat="53.450801" lon="05.638157"><ele>1.9</ele><time>2021-02-17T11:59:18Z</time><name>PT4706</name></trkpt>
<trkpt lat="53.450808" lon="05.638165"><ele>1.9</ele><time>2021-02-17T11:59:19Z</time><name>PT4707</name></trkpt>
<trkpt lat="53.450814" lon="05.638170"><ele>1.9</ele><time>2021-02-17T11:59:20Z</time><name>PT4708</name></trkpt>
<trkpt lat="53.450820" lon="05.638174"><ele>1.7</ele><time>2021-02-17T11:59:21Z</time><name>PT4709</name></trkpt>
<trkpt lat="53.450822" lon="05.638186"><ele>1.8</ele><time>2021-02-17T11:59:22Z</time><name>PT4710</name></trkpt>
<trkpt lat="53.450827" lon="05.638193"><ele>1.7</ele><time>2021-02-17T11:59:23Z</time><name>PT4711</name></trkpt>
<trkpt lat="53.450837" lon="05.638200"><ele>1.6</ele><time>2021-02-17T11:59:24Z</time><name>PT4712</name></trkpt>
<trkpt lat="53.450843" lon="05.638206"><ele>1.7</ele><time>2021-02-17T11:59:25Z</time><name>PT4713</name></trkpt>
<trkpt lat="53.450855" lon="05.638212"><ele>1.7</ele><time>2021-02-17T11:59:26Z</time><name>PT4714</name></trkpt>
<trkpt lat="53.450860" lon="05.638213"><ele>1.8</ele><time>2021-02-17T11:59:27Z</time><name>PT4715</name></trkpt>
<trkpt lat="53.450864" lon="05.638213"><ele>1.7</ele><time>2021-02-17T11:59:28Z</time><name>PT4716</name></trkpt>
<trkpt lat="53.450871" lon="05.638217"><ele>1.8</ele><time>2021-02-17T11:59:29Z</time><name>PT4717</name></trkpt>
<trkpt lat="53.450876" lon="05.638221"><ele>1.8</ele><time>2021-02-17T11:59:30Z</time><name>PT4718</name></trkpt>
<trkpt lat="53.450885" lon="05.638227"><ele>1.8</ele><time>2021-02-17T11:59:31Z</time><name>PT4719</name></trkpt>
<trkpt lat="53.450894" lon="05.638233"><ele>1.9</ele><time>2021-02-17T11:59:32Z</time><name>PT4720</name></trkpt>
<trkpt lat="53.450902" lon="05.638238"><ele>1.9</ele><time>2021-02-17T11:59:33Z</time><name>PT4721</name></trkpt>
<trkpt lat="53.450910" lon="05.638242"><ele>1.8</ele><time>2021-02-17T11:59:34Z</time><name>PT4722</name></trkpt>
<trkpt lat="53.450919" lon="05.638249"><ele>1.9</ele><time>2021-02-17T11:59:35Z</time><name>PT4723</name></trkpt>
<trkpt lat="53.450926" lon="05.638251"><ele>1.7</ele><time>2021-02-17T11:59:36Z</time><name>PT4724</name></trkpt>
<trkpt lat="53.450932" lon="05.638254"><ele>1.6</ele><time>2021-02-17T11:59:37Z</time><name>PT4725</name></trkpt>
<trkpt lat="53.450937" lon="05.638257"><ele>1.6</ele><time>2021-02-17T11:59:38Z</time><name>PT4726</name></trkpt>
<trkpt lat="53.450944" lon="05.638259"><ele>1.5</ele><time>2021-02-17T11:59:39Z</time><name>PT4727</name></trkpt>
<trkpt lat="53.450953" lon="05.638263"><ele>1.4</ele><time>2021-02-17T11:59:40Z</time><name>PT4728</name></trkpt>
<trkpt lat="53.450960" lon="05.638268"><ele>1.5</ele><time>2021-02-17T11:59:41Z</time><name>PT4729</name></trkpt>
<trkpt lat="53.450970" lon="05.638272"><ele>1.6</ele><time>2021-02-17T11:59:42Z</time><name>PT4730</name></trkpt>
<trkpt lat="53.450980" lon="05.638282"><ele>1.7</ele><time>2021-02-17T11:59:43Z</time><name>PT4731</name></trkpt>
<trkpt lat="53.450988" lon="05.638290"><ele>1.8</ele><time>2021-02-17T11:59:44Z</time><name>PT4732</name></trkpt>
<trkpt lat="53.450996" lon="05.638300"><ele>1.7</ele><time>2021-02-17T11:59:45Z</time><name>PT4733</name></trkpt>
<trkpt lat="53.451002" lon="05.638309"><ele>1.5</ele><time>2021-02-17T11:59:46Z</time><name>PT4734</name></trkpt>
<trkpt lat="53.451009" lon="05.638316"><ele>1.6</ele><time>2021-02-17T11:59:47Z</time><name>PT4735</name></trkpt>
<trkpt lat="53.451017" lon="05.638324"><ele>1.6</ele><time>2021-02-17T11:59:48Z</time><name>PT4736</name></trkpt>
<trkpt lat="53.451022" lon="05.638334"><ele>1.8</ele><time>2021-02-17T11:59:49Z</time><name>PT4737</name></trkpt>
<trkpt lat="53.451027" lon="05.638345"><ele>1.9</ele><time>2021-02-17T11:59:50Z</time><name>PT4738</name></trkpt>
<trkpt lat="53.451031" lon="05.638354"><ele>1.8</ele><time>2021-02-17T11:59:51Z</time><name>PT4739</name></trkpt>
<trkpt lat="53.451033" lon="05.638361"><ele>1.8</ele><time>2021-02-17T11:59:52Z</time><name>PT4740</name></trkpt>
<trkpt lat="53.451037" lon="05.638363"><ele>1.7</ele><time>2021-02-17T11:59:53Z</time><name>PT4741</name></trkpt>
<trkpt lat="53.451040" lon="05.638365"><ele>1.8</ele><time>2021-02-17T11:59:54Z</time><name>PT4742</name></trkpt>
<trkpt lat="53.451042" lon="05.638369"><ele>1.7</ele><time>2021-02-17T11:59:55Z</time><name>PT4743</name></trkpt>
<trkpt lat="53.451045" lon="05.638383"><ele>1.9</ele><time>2021-02-17T11:59:56Z</time><name>PT4744</name></trkpt>
<trkpt lat="53.451046" lon="05.638396"><ele>1.9</ele><time>2021-02-17T11:59:57Z</time><name>PT4745</name></trkpt>
<trkpt lat="53.451047" lon="05.638408"><ele>1.9</ele><time>2021-02-17T11:59:58Z</time><name>PT4746</name></trkpt>
<trkpt lat="53.451048" lon="05.638420"><ele>2.2</ele><time>2021-02-17T11:59:59Z</time><name>PT4747</name></trkpt>
<trkpt lat="53.451048" lon="05.638437"><ele>2</ele><time>2021-02-17T12:00:00Z</time><name>PT4748</name></trkpt>
<trkpt lat="53.451050" lon="05.638450"><ele>1.9</ele><time>2021-02-17T12:00:01Z</time><name>PT4749</name></trkpt>
<trkpt lat="53.451055" lon="05.638465"><ele>1.8</ele><time>2021-02-17T12:00:02Z</time><name>PT4750</name></trkpt>
<trkpt lat="53.451060" lon="05.638482"><ele>1.7</ele><time>2021-02-17T12:00:03Z</time><name>PT4751</name></trkpt>
<trkpt lat="53.451064" lon="05.638499"><ele>1.6</ele><time>2021-02-17T12:00:04Z</time><name>PT4752</name></trkpt>
<trkpt lat="53.451070" lon="05.638517"><ele>1.6</ele><time>2021-02-17T12:00:05Z</time><name>PT4753</name></trkpt>
<trkpt lat="53.451073" lon="05.638538"><ele>1.5</ele><time>2021-02-17T12:00:06Z</time><name>PT4754</name></trkpt>
<trkpt lat="53.451073" lon="05.638563"><ele>1.4</ele><time>2021-02-17T12:00:07Z</time><name>PT4755</name></trkpt>
<trkpt lat="53.451076" lon="05.638580"><ele>1.5</ele><time>2021-02-17T12:00:08Z</time><name>PT4756</name></trkpt>
<trkpt lat="53.451078" lon="05.638599"><ele>1.4</ele><time>2021-02-17T12:00:09Z</time><name>PT4757</name></trkpt>
<trkpt lat="53.451083" lon="05.638617"><ele>1.4</ele><time>2021-02-17T12:00:10Z</time><name>PT4758</name></trkpt>
<trkpt lat="53.451086" lon="05.638638"><ele>1.5</ele><time>2021-02-17T12:00:11Z</time><name>PT4759</name></trkpt>
<trkpt lat="53.451090" lon="05.638658"><ele>1.4</ele><time>2021-02-17T12:00:12Z</time><name>PT4760</name></trkpt>
<trkpt lat="53.451095" lon="05.638677"><ele>1.4</ele><time>2021-02-17T12:00:13Z</time><name>PT4761</name></trkpt>
<trkpt lat="53.451099" lon="05.638697"><ele>1.4</ele><time>2021-02-17T12:00:14Z</time><name>PT4762</name></trkpt>
<trkpt lat="53.451101" lon="05.638715"><ele>1.4</ele><time>2021-02-17T12:00:15Z</time><name>PT4763</name></trkpt>
<trkpt lat="53.451102" lon="05.638735"><ele>1.5</ele><time>2021-02-17T12:00:16Z</time><name>PT4764</name></trkpt>
<trkpt lat="53.451106" lon="05.638756"><ele>1.5</ele><time>2021-02-17T12:00:17Z</time><name>PT4765</name></trkpt>
<trkpt lat="53.451109" lon="05.638777"><ele>1.5</ele><time>2021-02-17T12:00:18Z</time><name>PT4766</name></trkpt>
<trkpt lat="53.451114" lon="05.638797"><ele>1.7</ele><time>2021-02-17T12:00:19Z</time><name>PT4767</name></trkpt>
<trkpt lat="53.451119" lon="05.638817"><ele>1.5</ele><time>2021-02-17T12:00:20Z</time><name>PT4768</name></trkpt>
<trkpt lat="53.451123" lon="05.638837"><ele>1.6</ele><time>2021-02-17T12:00:21Z</time><name>PT4769</name></trkpt>
<trkpt lat="53.451125" lon="05.638860"><ele>1.7</ele><time>2021-02-17T12:00:22Z</time><name>PT4770</name></trkpt>
<trkpt lat="53.451127" lon="05.638878"><ele>1.5</ele><time>2021-02-17T12:00:23Z</time><name>PT4771</name></trkpt>
<trkpt lat="53.451130" lon="05.638897"><ele>1.5</ele><time>2021-02-17T12:00:24Z</time><name>PT4772</name></trkpt>
<trkpt lat="53.451131" lon="05.638923"><ele>1.5</ele><time>2021-02-17T12:00:25Z</time><name>PT4773</name></trkpt>
<trkpt lat="53.451134" lon="05.638942"><ele>1.4</ele><time>2021-02-17T12:00:26Z</time><name>PT4774</name></trkpt>
<trkpt lat="53.451137" lon="05.638968"><ele>1.4</ele><time>2021-02-17T12:00:27Z</time><name>PT4775</name></trkpt>
<trkpt lat="53.451140" lon="05.638990"><ele>1.4</ele><time>2021-02-17T12:00:28Z</time><name>PT4776</name></trkpt>
<trkpt lat="53.451143" lon="05.639009"><ele>1.4</ele><time>2021-02-17T12:00:29Z</time><name>PT4777</name></trkpt>
<trkpt lat="53.451144" lon="05.639023"><ele>1.4</ele><time>2021-02-17T12:00:30Z</time><name>PT4778</name></trkpt>
<trkpt lat="53.451146" lon="05.639029"><ele>1.4</ele><time>2021-02-17T12:00:31Z</time><name>PT4779</name></trkpt>
<trkpt lat="53.451147" lon="05.639036"><ele>1.4</ele><time>2021-02-17T12:00:32Z</time><name>PT4780</name></trkpt>
<trkpt lat="53.451149" lon="05.639046"><ele>1.7</ele><time>2021-02-17T12:00:33Z</time><name>PT4781</name></trkpt>
<trkpt lat="53.451151" lon="05.639062"><ele>1.8</ele><time>2021-02-17T12:00:34Z</time><name>PT4782</name></trkpt>
<trkpt lat="53.451154" lon="05.639077"><ele>1.7</ele><time>2021-02-17T12:00:35Z</time><name>PT4783</name></trkpt>
<trkpt lat="53.451157" lon="05.639096"><ele>1.8</ele><time>2021-02-17T12:00:36Z</time><name>PT4784</name></trkpt>
<trkpt lat="53.451160" lon="05.639115"><ele>1.8</ele><time>2021-02-17T12:00:37Z</time><name>PT4785</name></trkpt>
<trkpt lat="53.451163" lon="05.639130"><ele>1.8</ele><time>2021-02-17T12:00:38Z</time><name>PT4786</name></trkpt>
<trkpt lat="53.451166" lon="05.639144"><ele>1.8</ele><time>2021-02-17T12:00:39Z</time><name>PT4787</name></trkpt>
<trkpt lat="53.451168" lon="05.639161"><ele>1.7</ele><time>2021-02-17T12:00:40Z</time><name>PT4788</name></trkpt>
<trkpt lat="53.451171" lon="05.639181"><ele>1.4</ele><time>2021-02-17T12:00:41Z</time><name>PT4789</name></trkpt>
<trkpt lat="53.451174" lon="05.639201"><ele>1.5</ele><time>2021-02-17T12:00:42Z</time><name>PT4790</name></trkpt>
<trkpt lat="53.451176" lon="05.639219"><ele>1.4</ele><time>2021-02-17T12:00:43Z</time><name>PT4791</name></trkpt>
<trkpt lat="53.451177" lon="05.639237"><ele>1.4</ele><time>2021-02-17T12:00:44Z</time><name>PT4792</name></trkpt>
<trkpt lat="53.451180" lon="05.639255"><ele>1.5</ele><time>2021-02-17T12:00:45Z</time><name>PT4793</name></trkpt>
<trkpt lat="53.451183" lon="05.639273"><ele>1.5</ele><time>2021-02-17T12:00:46Z</time><name>PT4794</name></trkpt>
<trkpt lat="53.451185" lon="05.639292"><ele>1.5</ele><time>2021-02-17T12:00:47Z</time><name>PT4795</name></trkpt>
<trkpt lat="53.451187" lon="05.639308"><ele>1.4</ele><time>2021-02-17T12:00:48Z</time><name>PT4796</name></trkpt>
<trkpt lat="53.451188" lon="05.639326"><ele>1.6</ele><time>2021-02-17T12:00:49Z</time><name>PT4797</name></trkpt>
<trkpt lat="53.451190" lon="05.639344"><ele>1.4</ele><time>2021-02-17T12:00:50Z</time><name>PT4798</name></trkpt>
<trkpt lat="53.451190" lon="05.639362"><ele>1.4</ele><time>2021-02-17T12:00:51Z</time><name>PT4799</name></trkpt>
<trkpt lat="53.451191" lon="05.639379"><ele>1.5</ele><time>2021-02-17T12:00:52Z</time><name>PT4800</name></trkpt>
<trkpt lat="53.451194" lon="05.639398"><ele>1.5</ele><time>2021-02-17T12:00:53Z</time><name>PT4801</name></trkpt>
<trkpt lat="53.451196" lon="05.639419"><ele>1.5</ele><time>2021-02-17T12:00:54Z</time><name>PT4802</name></trkpt>
<trkpt lat="53.451199" lon="05.639438"><ele>1.5</ele><time>2021-02-17T12:00:55Z</time><name>PT4803</name></trkpt>
<trkpt lat="53.451200" lon="05.639455"><ele>1.6</ele><time>2021-02-17T12:00:56Z</time><name>PT4804</name></trkpt>
<trkpt lat="53.451203" lon="05.639470"><ele>1.6</ele><time>2021-02-17T12:00:57Z</time><name>PT4805</name></trkpt>
<trkpt lat="53.451204" lon="05.639489"><ele>1.6</ele><time>2021-02-17T12:00:58Z</time><name>PT4806</name></trkpt>
<trkpt lat="53.451205" lon="05.639511"><ele>1.7</ele><time>2021-02-17T12:00:59Z</time><name>PT4807</name></trkpt>
<trkpt lat="53.451207" lon="05.639528"><ele>1.8</ele><time>2021-02-17T12:01:00Z</time><name>PT4808</name></trkpt>
<trkpt lat="53.451210" lon="05.639546"><ele>1.7</ele><time>2021-02-17T12:01:01Z</time><name>PT4809</name></trkpt>
<trkpt lat="53.451211" lon="05.639566"><ele>1.7</ele><time>2021-02-17T12:01:02Z</time><name>PT4810</name></trkpt>
<trkpt lat="53.451208" lon="05.639588"><ele>1.9</ele><time>2021-02-17T12:01:03Z</time><name>PT4811</name></trkpt>
<trkpt lat="53.451211" lon="05.639608"><ele>1.7</ele><time>2021-02-17T12:01:04Z</time><name>PT4812</name></trkpt>
<trkpt lat="53.451212" lon="05.639627"><ele>1.8</ele><time>2021-02-17T12:01:05Z</time><name>PT4813</name></trkpt>
<trkpt lat="53.451214" lon="05.639645"><ele>1.9</ele><time>2021-02-17T12:01:06Z</time><name>PT4814</name></trkpt>
<trkpt lat="53.451217" lon="05.639662"><ele>1.9</ele><time>2021-02-17T12:01:07Z</time><name>PT4815</name></trkpt>
<trkpt lat="53.451219" lon="05.639681"><ele>1.9</ele><time>2021-02-17T12:01:08Z</time><name>PT4816</name></trkpt>
<trkpt lat="53.451222" lon="05.639700"><ele>1.8</ele><time>2021-02-17T12:01:09Z</time><name>PT4817</name></trkpt>
<trkpt lat="53.451224" lon="05.639718"><ele>1.5</ele><time>2021-02-17T12:01:10Z</time><name>PT4818</name></trkpt>
<trkpt lat="53.451227" lon="05.639737"><ele>1.5</ele><time>2021-02-17T12:01:11Z</time><name>PT4819</name></trkpt>
<trkpt lat="53.451230" lon="05.639755"><ele>1.4</ele><time>2021-02-17T12:01:12Z</time><name>PT4820</name></trkpt>
<trkpt lat="53.451235" lon="05.639774"><ele>1.5</ele><time>2021-02-17T12:01:13Z</time><name>PT4821</name></trkpt>
<trkpt lat="53.451240" lon="05.639791"><ele>1.6</ele><time>2021-02-17T12:01:14Z</time><name>PT4822</name></trkpt>
<trkpt lat="53.451242" lon="05.639809"><ele>1.5</ele><time>2021-02-17T12:01:15Z</time><name>PT4823</name></trkpt>
<trkpt lat="53.451245" lon="05.639827"><ele>1.5</ele><time>2021-02-17T12:01:16Z</time><name>PT4824</name></trkpt>
<trkpt lat="53.451249" lon="05.639845"><ele>1.5</ele><time>2021-02-17T12:01:17Z</time><name>PT4825</name></trkpt>
<trkpt lat="53.451252" lon="05.639864"><ele>1.6</ele><time>2021-02-17T12:01:18Z</time><name>PT4826</name></trkpt>
<trkpt lat="53.451255" lon="05.639881"><ele>1.6</ele><time>2021-02-17T12:01:19Z</time><name>PT4827</name></trkpt>
<trkpt lat="53.451258" lon="05.639901"><ele>1.7</ele><time>2021-02-17T12:01:20Z</time><name>PT4828</name></trkpt>
<trkpt lat="53.451257" lon="05.639919"><ele>1.8</ele><time>2021-02-17T12:01:21Z</time><name>PT4829</name></trkpt>
<trkpt lat="53.451257" lon="05.639938"><ele>1.6</ele><time>2021-02-17T12:01:22Z</time><name>PT4830</name></trkpt>
<trkpt lat="53.451259" lon="05.639956"><ele>1.7</ele><time>2021-02-17T12:01:23Z</time><name>PT4831</name></trkpt>
<trkpt lat="53.451262" lon="05.639973"><ele>1.5</ele><time>2021-02-17T12:01:24Z</time><name>PT4832</name></trkpt>
<trkpt lat="53.451267" lon="05.639991"><ele>1.4</ele><time>2021-02-17T12:01:25Z</time><name>PT4833</name></trkpt>
<trkpt lat="53.451270" lon="05.640007"><ele>1.3</ele><time>2021-02-17T12:01:26Z</time><name>PT4834</name></trkpt>
<trkpt lat="53.451275" lon="05.640024"><ele>1.4</ele><time>2021-02-17T12:01:27Z</time><name>PT4835</name></trkpt>
<trkpt lat="53.451280" lon="05.640040"><ele>1.5</ele><time>2021-02-17T12:01:28Z</time><name>PT4836</name></trkpt>
<trkpt lat="53.451283" lon="05.640058"><ele>1.6</ele><time>2021-02-17T12:01:29Z</time><name>PT4837</name></trkpt>
<trkpt lat="53.451288" lon="05.640076"><ele>1.7</ele><time>2021-02-17T12:01:30Z</time><name>PT4838</name></trkpt>
<trkpt lat="53.451292" lon="05.640093"><ele>1.5</ele><time>2021-02-17T12:01:31Z</time><name>PT4839</name></trkpt>
<trkpt lat="53.451297" lon="05.640111"><ele>1.6</ele><time>2021-02-17T12:01:32Z</time><name>PT4840</name></trkpt>
<trkpt lat="53.451302" lon="05.640128"><ele>1.5</ele><time>2021-02-17T12:01:33Z</time><name>PT4841</name></trkpt>
<trkpt lat="53.451306" lon="05.640146"><ele>1.4</ele><time>2021-02-17T12:01:34Z</time><name>PT4842</name></trkpt>
<trkpt lat="53.451311" lon="05.640164"><ele>1.4</ele><time>2021-02-17T12:01:35Z</time><name>PT4843</name></trkpt>
<trkpt lat="53.451314" lon="05.640181"><ele>1.4</ele><time>2021-02-17T12:01:36Z</time><name>PT4844</name></trkpt>
<trkpt lat="53.451317" lon="05.640196"><ele>1.4</ele><time>2021-02-17T12:01:37Z</time><name>PT4845</name></trkpt>
<trkpt lat="53.451319" lon="05.640209"><ele>1.4</ele><time>2021-02-17T12:01:38Z</time><name>PT4846</name></trkpt>
<trkpt lat="53.451320" lon="05.640225"><ele>1.4</ele><time>2021-02-17T12:01:39Z</time><name>PT4847</name></trkpt>
<trkpt lat="53.451322" lon="05.640241"><ele>1.4</ele><time>2021-02-17T12:01:40Z</time><name>PT4848</name></trkpt>
<trkpt lat="53.451325" lon="05.640256"><ele>1.4</ele><time>2021-02-17T12:01:41Z</time><name>PT4849</name></trkpt>
<trkpt lat="53.451329" lon="05.640272"><ele>1.4</ele><time>2021-02-17T12:01:42Z</time><name>PT4850</name></trkpt>
<trkpt lat="53.451332" lon="05.640290"><ele>1.3</ele><time>2021-02-17T12:01:43Z</time><name>PT4851</name></trkpt>
<trkpt lat="53.451336" lon="05.640308"><ele>1.4</ele><time>2021-02-17T12:01:44Z</time><name>PT4852</name></trkpt>
<trkpt lat="53.451339" lon="05.640325"><ele>1.5</ele><time>2021-02-17T12:01:45Z</time><name>PT4853</name></trkpt>
<trkpt lat="53.451343" lon="05.640342"><ele>1.5</ele><time>2021-02-17T12:01:46Z</time><name>PT4854</name></trkpt>
<trkpt lat="53.451347" lon="05.640359"><ele>1.4</ele><time>2021-02-17T12:01:47Z</time><name>PT4855</name></trkpt>
<trkpt lat="53.451351" lon="05.640377"><ele>1.5</ele><time>2021-02-17T12:01:48Z</time><name>PT4856</name></trkpt>
<trkpt lat="53.451355" lon="05.640396"><ele>1.5</ele><time>2021-02-17T12:01:49Z</time><name>PT4857</name></trkpt>
<trkpt lat="53.451359" lon="05.640411"><ele>1.6</ele><time>2021-02-17T12:01:50Z</time><name>PT4858</name></trkpt>
<trkpt lat="53.451361" lon="05.640425"><ele>1.7</ele><time>2021-02-17T12:01:51Z</time><name>PT4859</name></trkpt>
<trkpt lat="53.451363" lon="05.640440"><ele>1.9</ele><time>2021-02-17T12:01:52Z</time><name>PT4860</name></trkpt>
<trkpt lat="53.451366" lon="05.640454"><ele>1.9</ele><time>2021-02-17T12:01:53Z</time><name>PT4861</name></trkpt>
<trkpt lat="53.451368" lon="05.640470"><ele>1.9</ele><time>2021-02-17T12:01:54Z</time><name>PT4862</name></trkpt>
<trkpt lat="53.451370" lon="05.640489"><ele>1.9</ele><time>2021-02-17T12:01:55Z</time><name>PT4863</name></trkpt>
<trkpt lat="53.451374" lon="05.640507"><ele>1.9</ele><time>2021-02-17T12:01:56Z</time><name>PT4864</name></trkpt>
<trkpt lat="53.451377" lon="05.640526"><ele>1.9</ele><time>2021-02-17T12:01:57Z</time><name>PT4865</name></trkpt>
<trkpt lat="53.451380" lon="05.640544"><ele>2.1</ele><time>2021-02-17T12:01:58Z</time><name>PT4866</name></trkpt>
<trkpt lat="53.451384" lon="05.640563"><ele>2</ele><time>2021-02-17T12:01:59Z</time><name>PT4867</name></trkpt>
<trkpt lat="53.451386" lon="05.640580"><ele>1.9</ele><time>2021-02-17T12:02:00Z</time><name>PT4868</name></trkpt>
<trkpt lat="53.451392" lon="05.640597"><ele>1.9</ele><time>2021-02-17T12:02:01Z</time><name>PT4869</name></trkpt>
<trkpt lat="53.451395" lon="05.640614"><ele>1.6</ele><time>2021-02-17T12:02:02Z</time><name>PT4870</name></trkpt>
<trkpt lat="53.451397" lon="05.640629"><ele>1.8</ele><time>2021-02-17T12:02:03Z</time><name>PT4871</name></trkpt>
<trkpt lat="53.451401" lon="05.640645"><ele>1.8</ele><time>2021-02-17T12:02:04Z</time><name>PT4872</name></trkpt>
<trkpt lat="53.451404" lon="05.640661"><ele>1.8</ele><time>2021-02-17T12:02:05Z</time><name>PT4873</name></trkpt>
<trkpt lat="53.451407" lon="05.640679"><ele>1.9</ele><time>2021-02-17T12:02:06Z</time><name>PT4874</name></trkpt>
<trkpt lat="53.451410" lon="05.640696"><ele>1.9</ele><time>2021-02-17T12:02:07Z</time><name>PT4875</name></trkpt>
<trkpt lat="53.451410" lon="05.640711"><ele>1.8</ele><time>2021-02-17T12:02:08Z</time><name>PT4876</name></trkpt>
<trkpt lat="53.451410" lon="05.640727"><ele>1.9</ele><time>2021-02-17T12:02:09Z</time><name>PT4877</name></trkpt>
<trkpt lat="53.451409" lon="05.640748"><ele>1.7</ele><time>2021-02-17T12:02:10Z</time><name>PT4878</name></trkpt>
<trkpt lat="53.451413" lon="05.640767"><ele>1.7</ele><time>2021-02-17T12:02:11Z</time><name>PT4879</name></trkpt>
<trkpt lat="53.451415" lon="05.640785"><ele>1.8</ele><time>2021-02-17T12:02:12Z</time><name>PT4880</name></trkpt>
<trkpt lat="53.451418" lon="05.640808"><ele>1.8</ele><time>2021-02-17T12:02:13Z</time><name>PT4881</name></trkpt>
<trkpt lat="53.451420" lon="05.640825"><ele>1.9</ele><time>2021-02-17T12:02:14Z</time><name>PT4882</name></trkpt>
<trkpt lat="53.451424" lon="05.640842"><ele>2</ele><time>2021-02-17T12:02:15Z</time><name>PT4883</name></trkpt>
<trkpt lat="53.451425" lon="05.640859"><ele>1.9</ele><time>2021-02-17T12:02:16Z</time><name>PT4884</name></trkpt>
<trkpt lat="53.451426" lon="05.640875"><ele>1.8</ele><time>2021-02-17T12:02:17Z</time><name>PT4885</name></trkpt>
<trkpt lat="53.451428" lon="05.640893"><ele>1.6</ele><time>2021-02-17T12:02:18Z</time><name>PT4886</name></trkpt>
<trkpt lat="53.451430" lon="05.640910"><ele>1.6</ele><time>2021-02-17T12:02:19Z</time><name>PT4887</name></trkpt>
<trkpt lat="53.451428" lon="05.640927"><ele>1.7</ele><time>2021-02-17T12:02:20Z</time><name>PT4888</name></trkpt>
<trkpt lat="53.451429" lon="05.640945"><ele>1.9</ele><time>2021-02-17T12:02:21Z</time><name>PT4889</name></trkpt>
<trkpt lat="53.451431" lon="05.640959"><ele>1.9</ele><time>2021-02-17T12:02:22Z</time><name>PT4890</name></trkpt>
<trkpt lat="53.451433" lon="05.640979"><ele>2</ele><time>2021-02-17T12:02:23Z</time><name>PT4891</name></trkpt>
<trkpt lat="53.451433" lon="05.640999"><ele>2</ele><time>2021-02-17T12:02:24Z</time><name>PT4892</name></trkpt>
<trkpt lat="53.451434" lon="05.641017"><ele>1.9</ele><time>2021-02-17T12:02:25Z</time><name>PT4893</name></trkpt>
<trkpt lat="53.451433" lon="05.641036"><ele>1.8</ele><time>2021-02-17T12:02:26Z</time><name>PT4894</name></trkpt>
<trkpt lat="53.451432" lon="05.641055"><ele>1.9</ele><time>2021-02-17T12:02:27Z</time><name>PT4895</name></trkpt>
<trkpt lat="53.451432" lon="05.641074"><ele>1.9</ele><time>2021-02-17T12:02:28Z</time><name>PT4896</name></trkpt>
<trkpt lat="53.451433" lon="05.641093"><ele>1.8</ele><time>2021-02-17T12:02:29Z</time><name>PT4897</name></trkpt>
<trkpt lat="53.451433" lon="05.641114"><ele>1.9</ele><time>2021-02-17T12:02:30Z</time><name>PT4898</name></trkpt>
<trkpt lat="53.451436" lon="05.641134"><ele>1.9</ele><time>2021-02-17T12:02:31Z</time><name>PT4899</name></trkpt>
<trkpt lat="53.451440" lon="05.641149"><ele>2</ele><time>2021-02-17T12:02:32Z</time><name>PT4900</name></trkpt>
<trkpt lat="53.451441" lon="05.641162"><ele>2.1</ele><time>2021-02-17T12:02:33Z</time><name>PT4901</name></trkpt>
<trkpt lat="53.451443" lon="05.641181"><ele>2.1</ele><time>2021-02-17T12:02:34Z</time><name>PT4902</name></trkpt>
<trkpt lat="53.451443" lon="05.641200"><ele>2</ele><time>2021-02-17T12:02:35Z</time><name>PT4903</name></trkpt>
<trkpt lat="53.451444" lon="05.641217"><ele>1.9</ele><time>2021-02-17T12:02:36Z</time><name>PT4904</name></trkpt>
<trkpt lat="53.451447" lon="05.641233"><ele>1.9</ele><time>2021-02-17T12:02:37Z</time><name>PT4905</name></trkpt>
<trkpt lat="53.451449" lon="05.641252"><ele>1.9</ele><time>2021-02-17T12:02:38Z</time><name>PT4906</name></trkpt>
<trkpt lat="53.451451" lon="05.641270"><ele>1.9</ele><time>2021-02-17T12:02:39Z</time><name>PT4907</name></trkpt>
<trkpt lat="53.451452" lon="05.641289"><ele>1.9</ele><time>2021-02-17T12:02:40Z</time><name>PT4908</name></trkpt>
<trkpt lat="53.451451" lon="05.641310"><ele>1.9</ele><time>2021-02-17T12:02:41Z</time><name>PT4909</name></trkpt>
<trkpt lat="53.451452" lon="05.641335"><ele>1.9</ele><time>2021-02-17T12:02:42Z</time><name>PT4910</name></trkpt>
<trkpt lat="53.451454" lon="05.641352"><ele>1.9</ele><time>2021-02-17T12:02:43Z</time><name>PT4911</name></trkpt>
<trkpt lat="53.451455" lon="05.641372"><ele>1.9</ele><time>2021-02-17T12:02:44Z</time><name>PT4912</name></trkpt>
<trkpt lat="53.451456" lon="05.641392"><ele>1.9</ele><time>2021-02-17T12:02:45Z</time><name>PT4913</name></trkpt>
<trkpt lat="53.451457" lon="05.641409"><ele>1.9</ele><time>2021-02-17T12:02:46Z</time><name>PT4914</name></trkpt>
<trkpt lat="53.451459" lon="05.641426"><ele>2</ele><time>2021-02-17T12:02:47Z</time><name>PT4915</name></trkpt>
<trkpt lat="53.451459" lon="05.641445"><ele>2</ele><time>2021-02-17T12:02:48Z</time><name>PT4916</name></trkpt>
<trkpt lat="53.451460" lon="05.641464"><ele>2.2</ele><time>2021-02-17T12:02:49Z</time><name>PT4917</name></trkpt>
<trkpt lat="53.451461" lon="05.641484"><ele>2.3</ele><time>2021-02-17T12:02:50Z</time><name>PT4918</name></trkpt>
<trkpt lat="53.451463" lon="05.641502"><ele>2.3</ele><time>2021-02-17T12:02:51Z</time><name>PT4919</name></trkpt>
<trkpt lat="53.451464" lon="05.641518"><ele>2.1</ele><time>2021-02-17T12:02:52Z</time><name>PT4920</name></trkpt>
<trkpt lat="53.451465" lon="05.641535"><ele>1.9</ele><time>2021-02-17T12:02:53Z</time><name>PT4921</name></trkpt>
<trkpt lat="53.451469" lon="05.641554"><ele>1.9</ele><time>2021-02-17T12:02:54Z</time><name>PT4922</name></trkpt>
<trkpt lat="53.451472" lon="05.641573"><ele>1.9</ele><time>2021-02-17T12:02:55Z</time><name>PT4923</name></trkpt>
<trkpt lat="53.451476" lon="05.641590"><ele>1.9</ele><time>2021-02-17T12:02:56Z</time><name>PT4924</name></trkpt>
<trkpt lat="53.451479" lon="05.641607"><ele>1.9</ele><time>2021-02-17T12:02:57Z</time><name>PT4925</name></trkpt>
<trkpt lat="53.451481" lon="05.641627"><ele>1.9</ele><time>2021-02-17T12:02:58Z</time><name>PT4926</name></trkpt>
<trkpt lat="53.451483" lon="05.641645"><ele>1.9</ele><time>2021-02-17T12:02:59Z</time><name>PT4927</name></trkpt>
<trkpt lat="53.451487" lon="05.641664"><ele>2.1</ele><time>2021-02-17T12:03:00Z</time><name>PT4928</name></trkpt>
<trkpt lat="53.451488" lon="05.641683"><ele>2.1</ele><time>2021-02-17T12:03:01Z</time><name>PT4929</name></trkpt>
<trkpt lat="53.451491" lon="05.641699"><ele>2.1</ele><time>2021-02-17T12:03:02Z</time><name>PT4930</name></trkpt>
<trkpt lat="53.451494" lon="05.641717"><ele>2.1</ele><time>2021-02-17T12:03:03Z</time><name>PT4931</name></trkpt>
<trkpt lat="53.451497" lon="05.641735"><ele>2.1</ele><time>2021-02-17T12:03:04Z</time><name>PT4932</name></trkpt>
<trkpt lat="53.451498" lon="05.641751"><ele>2.1</ele><time>2021-02-17T12:03:05Z</time><name>PT4933</name></trkpt>
<trkpt lat="53.451501" lon="05.641769"><ele>2</ele><time>2021-02-17T12:03:06Z</time><name>PT4934</name></trkpt>
<trkpt lat="53.451502" lon="05.641788"><ele>2.1</ele><time>2021-02-17T12:03:07Z</time><name>PT4935</name></trkpt>
<trkpt lat="53.451503" lon="05.641805"><ele>2.1</ele><time>2021-02-17T12:03:08Z</time><name>PT4936</name></trkpt>
<trkpt lat="53.451502" lon="05.641819"><ele>2</ele><time>2021-02-17T12:03:09Z</time><name>PT4937</name></trkpt>
<trkpt lat="53.451504" lon="05.641834"><ele>2.2</ele><time>2021-02-17T12:03:10Z</time><name>PT4938</name></trkpt>
<trkpt lat="53.451507" lon="05.641849"><ele>1.9</ele><time>2021-02-17T12:03:11Z</time><name>PT4939</name></trkpt>
<trkpt lat="53.451510" lon="05.641864"><ele>1.8</ele><time>2021-02-17T12:03:12Z</time><name>PT4940</name></trkpt>
<trkpt lat="53.451514" lon="05.641879"><ele>1.9</ele><time>2021-02-17T12:03:13Z</time><name>PT4941</name></trkpt>
<trkpt lat="53.451515" lon="05.641894"><ele>1.7</ele><time>2021-02-17T12:03:14Z</time><name>PT4942</name></trkpt>
<trkpt lat="53.451515" lon="05.641911"><ele>1.7</ele><time>2021-02-17T12:03:15Z</time><name>PT4943</name></trkpt>
<trkpt lat="53.451516" lon="05.641931"><ele>1.9</ele><time>2021-02-17T12:03:16Z</time><name>PT4944</name></trkpt>
<trkpt lat="53.451519" lon="05.641950"><ele>1.8</ele><time>2021-02-17T12:03:17Z</time><name>PT4945</name></trkpt>
<trkpt lat="53.451521" lon="05.641970"><ele>1.9</ele><time>2021-02-17T12:03:18Z</time><name>PT4946</name></trkpt>
<trkpt lat="53.451521" lon="05.641987"><ele>1.9</ele><time>2021-02-17T12:03:19Z</time><name>PT4947</name></trkpt>
<trkpt lat="53.451524" lon="05.642003"><ele>1.9</ele><time>2021-02-17T12:03:20Z</time><name>PT4948</name></trkpt>
<trkpt lat="53.451528" lon="05.642019"><ele>1.9</ele><time>2021-02-17T12:03:21Z</time><name>PT4949</name></trkpt>
<trkpt lat="53.451531" lon="05.642036"><ele>1.8</ele><time>2021-02-17T12:03:22Z</time><name>PT4950</name></trkpt>
<trkpt lat="53.451533" lon="05.642053"><ele>1.7</ele><time>2021-02-17T12:03:23Z</time><name>PT4951</name></trkpt>
<trkpt lat="53.451534" lon="05.642073"><ele>1.6</ele><time>2021-02-17T12:03:24Z</time><name>PT4952</name></trkpt>
<trkpt lat="53.451536" lon="05.642093"><ele>1.8</ele><time>2021-02-17T12:03:25Z</time><name>PT4953</name></trkpt>
<trkpt lat="53.451538" lon="05.642111"><ele>1.9</ele><time>2021-02-17T12:03:26Z</time><name>PT4954</name></trkpt>
<trkpt lat="53.451541" lon="05.642130"><ele>1.9</ele><time>2021-02-17T12:03:27Z</time><name>PT4955</name></trkpt>
<trkpt lat="53.451543" lon="05.642148"><ele>2</ele><time>2021-02-17T12:03:28Z</time><name>PT4956</name></trkpt>
<trkpt lat="53.451547" lon="05.642166"><ele>1.8</ele><time>2021-02-17T12:03:29Z</time><name>PT4957</name></trkpt>
<trkpt lat="53.451550" lon="05.642180"><ele>1.7</ele><time>2021-02-17T12:03:30Z</time><name>PT4958</name></trkpt>
<trkpt lat="53.451552" lon="05.642194"><ele>1.7</ele><time>2021-02-17T12:03:31Z</time><name>PT4959</name></trkpt>
<trkpt lat="53.451552" lon="05.642211"><ele>1.8</ele><time>2021-02-17T12:03:32Z</time><name>PT4960</name></trkpt>
<trkpt lat="53.451552" lon="05.642227"><ele>1.8</ele><time>2021-02-17T12:03:33Z</time><name>PT4961</name></trkpt>
<trkpt lat="53.451551" lon="05.642241"><ele>1.9</ele><time>2021-02-17T12:03:34Z</time><name>PT4962</name></trkpt>
<trkpt lat="53.451554" lon="05.642259"><ele>2</ele><time>2021-02-17T12:03:35Z</time><name>PT4963</name></trkpt>
<trkpt lat="53.451557" lon="05.642277"><ele>1.9</ele><time>2021-02-17T12:03:36Z</time><name>PT4964</name></trkpt>
<trkpt lat="53.451562" lon="05.642297"><ele>1.9</ele><time>2021-02-17T12:03:37Z</time><name>PT4965</name></trkpt>
<trkpt lat="53.451565" lon="05.642315"><ele>1.9</ele><time>2021-02-17T12:03:38Z</time><name>PT4966</name></trkpt>
<trkpt lat="53.451569" lon="05.642334"><ele>1.9</ele><time>2021-02-17T12:03:39Z</time><name>PT4967</name></trkpt>
<trkpt lat="53.451571" lon="05.642354"><ele>1.9</ele><time>2021-02-17T12:03:40Z</time><name>PT4968</name></trkpt>
<trkpt lat="53.451573" lon="05.642375"><ele>1.8</ele><time>2021-02-17T12:03:41Z</time><name>PT4969</name></trkpt>
<trkpt lat="53.451572" lon="05.642396"><ele>1.7</ele><time>2021-02-17T12:03:42Z</time><name>PT4970</name></trkpt>
<trkpt lat="53.451576" lon="05.642419"><ele>1.7</ele><time>2021-02-17T12:03:43Z</time><name>PT4971</name></trkpt>
<trkpt lat="53.451579" lon="05.642441"><ele>1.6</ele><time>2021-02-17T12:03:44Z</time><name>PT4972</name></trkpt>
<trkpt lat="53.451581" lon="05.642462"><ele>1.7</ele><time>2021-02-17T12:03:45Z</time><name>PT4973</name></trkpt>
<trkpt lat="53.451584" lon="05.642483"><ele>1.6</ele><time>2021-02-17T12:03:46Z</time><name>PT4974</name></trkpt>
<trkpt lat="53.451585" lon="05.642507"><ele>1.6</ele><time>2021-02-17T12:03:47Z</time><name>PT4975</name></trkpt>
<trkpt lat="53.451588" lon="05.642532"><ele>1.6</ele><time>2021-02-17T12:03:48Z</time><name>PT4976</name></trkpt>
<trkpt lat="53.451592" lon="05.642556"><ele>1.6</ele><time>2021-02-17T12:03:49Z</time><name>PT4977</name></trkpt>
<trkpt lat="53.451594" lon="05.642577"><ele>1.6</ele><time>2021-02-17T12:03:50Z</time><name>PT4978</name></trkpt>
<trkpt lat="53.451594" lon="05.642594"><ele>1.5</ele><time>2021-02-17T12:03:51Z</time><name>PT4979</name></trkpt>
<trkpt lat="53.451595" lon="05.642614"><ele>1.5</ele><time>2021-02-17T12:03:52Z</time><name>PT4980</name></trkpt>
<trkpt lat="53.451597" lon="05.642635"><ele>1.4</ele><time>2021-02-17T12:03:53Z</time><name>PT4981</name></trkpt>
<trkpt lat="53.451599" lon="05.642656"><ele>1.4</ele><time>2021-02-17T12:03:54Z</time><name>PT4982</name></trkpt>
<trkpt lat="53.451601" lon="05.642678"><ele>1.8</ele><time>2021-02-17T12:03:55Z</time><name>PT4983</name></trkpt>
<trkpt lat="53.451605" lon="05.642696"><ele>1.6</ele><time>2021-02-17T12:03:56Z</time><name>PT4984</name></trkpt>
<trkpt lat="53.451608" lon="05.642714"><ele>1.6</ele><time>2021-02-17T12:03:57Z</time><name>PT4985</name></trkpt>
<trkpt lat="53.451610" lon="05.642730"><ele>1.7</ele><time>2021-02-17T12:03:58Z</time><name>PT4986</name></trkpt>
<trkpt lat="53.451613" lon="05.642747"><ele>1.4</ele><time>2021-02-17T12:03:59Z</time><name>PT4987</name></trkpt>
<trkpt lat="53.451617" lon="05.642767"><ele>1.4</ele><time>2021-02-17T12:04:00Z</time><name>PT4988</name></trkpt>
<trkpt lat="53.451621" lon="05.642786"><ele>1.4</ele><time>2021-02-17T12:04:01Z</time><name>PT4989</name></trkpt>
<trkpt lat="53.451623" lon="05.642807"><ele>1.4</ele><time>2021-02-17T12:04:02Z</time><name>PT4990</name></trkpt>
<trkpt lat="53.451625" lon="05.642826"><ele>1.4</ele><time>2021-02-17T12:04:03Z</time><name>PT4991</name></trkpt>
<trkpt lat="53.451627" lon="05.642845"><ele>1.4</ele><time>2021-02-17T12:04:04Z</time><name>PT4992</name></trkpt>
<trkpt lat="53.451628" lon="05.642862"><ele>1.5</ele><time>2021-02-17T12:04:05Z</time><name>PT4993</name></trkpt>
<trkpt lat="53.451629" lon="05.642878"><ele>1.6</ele><time>2021-02-17T12:04:06Z</time><name>PT4994</name></trkpt>
<trkpt lat="53.451630" lon="05.642895"><ele>1.9</ele><time>2021-02-17T12:04:07Z</time><name>PT4995</name></trkpt>
<trkpt lat="53.451631" lon="05.642915"><ele>1.9</ele><time>2021-02-17T12:04:08Z</time><name>PT4996</name></trkpt>
<trkpt lat="53.451630" lon="05.642932"><ele>1.9</ele><time>2021-02-17T12:04:09Z</time><name>PT4997</name></trkpt>
<trkpt lat="53.451629" lon="05.642948"><ele>1.8</ele><time>2021-02-17T12:04:10Z</time><name>PT4998</name></trkpt>
<trkpt lat="53.451631" lon="05.642966"><ele>1.7</ele><time>2021-02-17T12:04:11Z</time><name>PT4999</name></trkpt>
<trkpt lat="53.451632" lon="05.642984"><ele>1.5</ele><time>2021-02-17T12:04:12Z</time><name>PT5000</name></trkpt>
<trkpt lat="53.451631" lon="05.643001"><ele>1.4</ele><time>2021-02-17T12:04:13Z</time><name>PT5001</name></trkpt>
<trkpt lat="53.451629" lon="05.643019"><ele>1.4</ele><time>2021-02-17T12:04:14Z</time><name>PT5002</name></trkpt>
<trkpt lat="53.451627" lon="05.643035"><ele>1.4</ele><time>2021-02-17T12:04:15Z</time><name>PT5003</name></trkpt>
<trkpt lat="53.451625" lon="05.643048"><ele>1.4</ele><time>2021-02-17T12:04:16Z</time><name>PT5004</name></trkpt>
<trkpt lat="53.451625" lon="05.643062"><ele>1.4</ele><time>2021-02-17T12:04:17Z</time><name>PT5005</name></trkpt>
<trkpt lat="53.451625" lon="05.643076"><ele>1.4</ele><time>2021-02-17T12:04:18Z</time><name>PT5006</name></trkpt>
<trkpt lat="53.451625" lon="05.643092"><ele>1.3</ele><time>2021-02-17T12:04:19Z</time><name>PT5007</name></trkpt>
<trkpt lat="53.451626" lon="05.643106"><ele>1.4</ele><time>2021-02-17T12:04:20Z</time><name>PT5008</name></trkpt>
<trkpt lat="53.451626" lon="05.643113"><ele>1.3</ele><time>2021-02-17T12:04:21Z</time><name>PT5009</name></trkpt>
<trkpt lat="53.451627" lon="05.643122"><ele>1.4</ele><time>2021-02-17T12:04:22Z</time><name>PT5010</name></trkpt>
<trkpt lat="53.451628" lon="05.643135"><ele>1.4</ele><time>2021-02-17T12:04:23Z</time><name>PT5011</name></trkpt>
<trkpt lat="53.451628" lon="05.643145"><ele>1.5</ele><time>2021-02-17T12:04:24Z</time><name>PT5012</name></trkpt>
<trkpt lat="53.451629" lon="05.643152"><ele>1.6</ele><time>2021-02-17T12:04:25Z</time><name>PT5013</name></trkpt>
<trkpt lat="53.451630" lon="05.643154"><ele>1.7</ele><time>2021-02-17T12:04:26Z</time><name>PT5014</name></trkpt>
<trkpt lat="53.451630" lon="05.643155"><ele>1.7</ele><time>2021-02-17T12:04:27Z</time><name>PT5015</name></trkpt>
<trkpt lat="53.451629" lon="05.643159"><ele>1.9</ele><time>2021-02-17T12:04:28Z</time><name>PT5016</name></trkpt>
<trkpt lat="53.451628" lon="05.643161"><ele>1.8</ele><time>2021-02-17T12:04:29Z</time><name>PT5017</name></trkpt>
<trkpt lat="53.451630" lon="05.643164"><ele>2</ele><time>2021-02-17T12:04:38Z</time><name>PT5018</name></trkpt>
<trkpt lat="53.451638" lon="05.643168"><ele>2</ele><time>2021-02-17T12:04:39Z</time><name>PT5019</name></trkpt>
<trkpt lat="53.451649" lon="05.643174"><ele>1.9</ele><time>2021-02-17T12:04:40Z</time><name>PT5020</name></trkpt>
<trkpt lat="53.451663" lon="05.643181"><ele>1.9</ele><time>2021-02-17T12:04:41Z</time><name>PT5021</name></trkpt>
<trkpt lat="53.451674" lon="05.643184"><ele>1.9</ele><time>2021-02-17T12:04:42Z</time><name>PT5022</name></trkpt>
<trkpt lat="53.451680" lon="05.643186"><ele>1.9</ele><time>2021-02-17T12:04:43Z</time><name>PT5023</name></trkpt>
<trkpt lat="53.451688" lon="05.643188"><ele>2</ele><time>2021-02-17T12:04:44Z</time><name>PT5024</name></trkpt>
<trkpt lat="53.451695" lon="05.643191"><ele>1.9</ele><time>2021-02-17T12:04:45Z</time><name>PT5025</name></trkpt>
<trkpt lat="53.451704" lon="05.643193"><ele>2.1</ele><time>2021-02-17T12:04:46Z</time><name>PT5026</name></trkpt>
<trkpt lat="53.451715" lon="05.643195"><ele>2</ele><time>2021-02-17T12:04:47Z</time><name>PT5027</name></trkpt>
<trkpt lat="53.451723" lon="05.643197"><ele>2</ele><time>2021-02-17T12:04:48Z</time><name>PT5028</name></trkpt>
<trkpt lat="53.451731" lon="05.643202"><ele>2</ele><time>2021-02-17T12:04:49Z</time><name>PT5029</name></trkpt>
<trkpt lat="53.451739" lon="05.643203"><ele>1.9</ele><time>2021-02-17T12:04:50Z</time><name>PT5030</name></trkpt>
<trkpt lat="53.451746" lon="05.643201"><ele>1.9</ele><time>2021-02-17T12:04:51Z</time><name>PT5031</name></trkpt>
<trkpt lat="53.451755" lon="05.643201"><ele>1.9</ele><time>2021-02-17T12:04:52Z</time><name>PT5032</name></trkpt>
<trkpt lat="53.451762" lon="05.643201"><ele>1.9</ele><time>2021-02-17T12:04:53Z</time><name>PT5033</name></trkpt>
<trkpt lat="53.451769" lon="05.643204"><ele>1.9</ele><time>2021-02-17T12:04:54Z</time><name>PT5034</name></trkpt>
<trkpt lat="53.451776" lon="05.643204"><ele>2</ele><time>2021-02-17T12:04:55Z</time><name>PT5035</name></trkpt>
<trkpt lat="53.451783" lon="05.643205"><ele>1.9</ele><time>2021-02-17T12:04:56Z</time><name>PT5036</name></trkpt>
<trkpt lat="53.451790" lon="05.643205"><ele>2</ele><time>2021-02-17T12:04:57Z</time><name>PT5037</name></trkpt>
<trkpt lat="53.451793" lon="05.643206"><ele>2.1</ele><time>2021-02-17T12:04:58Z</time><name>PT5038</name></trkpt>
<trkpt lat="53.451793" lon="05.643206"><ele>2.2</ele><time>2021-02-17T12:04:59Z</time><name>PT5039</name></trkpt>
<trkpt lat="53.451793" lon="05.643205"><ele>2.2</ele><time>2021-02-17T12:05:00Z</time><name>PT5040</name></trkpt>
<trkpt lat="53.451793" lon="05.643206"><ele>2.1</ele><time>2021-02-17T12:05:01Z</time><name>PT5041</name></trkpt>
<trkpt lat="53.451844" lon="05.643241"><ele>3.9</ele><time>2021-02-17T12:24:09Z</time><name>PT5042</name></trkpt>
<trkpt lat="53.451837" lon="05.643253"><ele>4.5</ele><time>2021-02-17T12:24:12Z</time><name>PT5043</name></trkpt>
<trkpt lat="53.451829" lon="05.643269"><ele>4.3</ele><time>2021-02-17T12:24:13Z</time><name>PT5044</name></trkpt>
<trkpt lat="53.451822" lon="05.643286"><ele>3.9</ele><time>2021-02-17T12:24:14Z</time><name>PT5045</name></trkpt>
<trkpt lat="53.451816" lon="05.643300"><ele>3.7</ele><time>2021-02-17T12:24:15Z</time><name>PT5046</name></trkpt>
<trkpt lat="53.451808" lon="05.643309"><ele>3.4</ele><time>2021-02-17T12:24:16Z</time><name>PT5047</name></trkpt>
<trkpt lat="53.451800" lon="05.643320"><ele>3.3</ele><time>2021-02-17T12:24:17Z</time><name>PT5048</name></trkpt>
<trkpt lat="53.451794" lon="05.643336"><ele>3.2</ele><time>2021-02-17T12:24:18Z</time><name>PT5049</name></trkpt>
<trkpt lat="53.451793" lon="05.643349"><ele>3.2</ele><time>2021-02-17T12:24:19Z</time><name>PT5050</name></trkpt>
<trkpt lat="53.451791" lon="05.643363"><ele>3.6</ele><time>2021-02-17T12:24:20Z</time><name>PT5051</name></trkpt>
<trkpt lat="53.451790" lon="05.643375"><ele>3.7</ele><time>2021-02-17T12:24:21Z</time><name>PT5052</name></trkpt>
<trkpt lat="53.451791" lon="05.643387"><ele>3.5</ele><time>2021-02-17T12:24:22Z</time><name>PT5053</name></trkpt>
<trkpt lat="53.451790" lon="05.643400"><ele>3.3</ele><time>2021-02-17T12:24:23Z</time><name>PT5054</name></trkpt>
<trkpt lat="53.451791" lon="05.643414"><ele>3.1</ele><time>2021-02-17T12:24:24Z</time><name>PT5055</name></trkpt>
<trkpt lat="53.451794" lon="05.643430"><ele>2.8</ele><time>2021-02-17T12:24:25Z</time><name>PT5056</name></trkpt>
<trkpt lat="53.451798" lon="05.643445"><ele>2.9</ele><time>2021-02-17T12:24:26Z</time><name>PT5057</name></trkpt>
<trkpt lat="53.451798" lon="05.643458"><ele>3.1</ele><time>2021-02-17T12:24:27Z</time><name>PT5058</name></trkpt>
<trkpt lat="53.451799" lon="05.643473"><ele>3.3</ele><time>2021-02-17T12:24:28Z</time><name>PT5059</name></trkpt>
<trkpt lat="53.451798" lon="05.643488"><ele>3.4</ele><time>2021-02-17T12:24:29Z</time><name>PT5060</name></trkpt>
<trkpt lat="53.451795" lon="05.643503"><ele>3.4</ele><time>2021-02-17T12:24:30Z</time><name>PT5061</name></trkpt>
<trkpt lat="53.451791" lon="05.643518"><ele>3.4</ele><time>2021-02-17T12:24:31Z</time><name>PT5062</name></trkpt>
<trkpt lat="53.451788" lon="05.643533"><ele>3.3</ele><time>2021-02-17T12:24:32Z</time><name>PT5063</name></trkpt>
<trkpt lat="53.451786" lon="05.643547"><ele>3.4</ele><time>2021-02-17T12:24:33Z</time><name>PT5064</name></trkpt>
<trkpt lat="53.451787" lon="05.643564"><ele>3.4</ele><time>2021-02-17T12:24:34Z</time><name>PT5065</name></trkpt>
<trkpt lat="53.451789" lon="05.643582"><ele>3.4</ele><time>2021-02-17T12:24:35Z</time><name>PT5066</name></trkpt>
<trkpt lat="53.451790" lon="05.643601"><ele>3.4</ele><time>2021-02-17T12:24:36Z</time><name>PT5067</name></trkpt>
<trkpt lat="53.451790" lon="05.643616"><ele>3.4</ele><time>2021-02-17T12:24:37Z</time><name>PT5068</name></trkpt>
<trkpt lat="53.451789" lon="05.643628"><ele>3.3</ele><time>2021-02-17T12:24:38Z</time><name>PT5069</name></trkpt>
<trkpt lat="53.451787" lon="05.643643"><ele>3.3</ele><time>2021-02-17T12:24:39Z</time><name>PT5070</name></trkpt>
<trkpt lat="53.451788" lon="05.643654"><ele>3.1</ele><time>2021-02-17T12:24:40Z</time><name>PT5071</name></trkpt>
<trkpt lat="53.451790" lon="05.643667"><ele>3.2</ele><time>2021-02-17T12:24:41Z</time><name>PT5072</name></trkpt>
<trkpt lat="53.451792" lon="05.643682"><ele>3.3</ele><time>2021-02-17T12:24:42Z</time><name>PT5073</name></trkpt>
<trkpt lat="53.451793" lon="05.643695"><ele>3.4</ele><time>2021-02-17T12:24:43Z</time><name>PT5074</name></trkpt>
<trkpt lat="53.451793" lon="05.643707"><ele>3.3</ele><time>2021-02-17T12:24:44Z</time><name>PT5075</name></trkpt>
<trkpt lat="53.451792" lon="05.643722"><ele>3.4</ele><time>2021-02-17T12:24:45Z</time><name>PT5076</name></trkpt>
<trkpt lat="53.451789" lon="05.643737"><ele>3.4</ele><time>2021-02-17T12:24:46Z</time><name>PT5077</name></trkpt>
<trkpt lat="53.451787" lon="05.643754"><ele>3.6</ele><time>2021-02-17T12:24:47Z</time><name>PT5078</name></trkpt>
<trkpt lat="53.451783" lon="05.643773"><ele>3.7</ele><time>2021-02-17T12:24:48Z</time><name>PT5079</name></trkpt>
<trkpt lat="53.451782" lon="05.643787"><ele>3.7</ele><time>2021-02-17T12:24:49Z</time><name>PT5080</name></trkpt>
<trkpt lat="53.451782" lon="05.643802"><ele>3.6</ele><time>2021-02-17T12:24:50Z</time><name>PT5081</name></trkpt>
<trkpt lat="53.451783" lon="05.643817"><ele>3.5</ele><time>2021-02-17T12:24:51Z</time><name>PT5082</name></trkpt>
<trkpt lat="53.451782" lon="05.643829"><ele>3.3</ele><time>2021-02-17T12:24:52Z</time><name>PT5083</name></trkpt>
<trkpt lat="53.451780" lon="05.643836"><ele>3.3</ele><time>2021-02-17T12:24:53Z</time><name>PT5084</name></trkpt>
<trkpt lat="53.451780" lon="05.643837"><ele>3.4</ele><time>2021-02-17T12:24:54Z</time><name>PT5085</name></trkpt>
<trkpt lat="53.451779" lon="05.643836"><ele>3.3</ele><time>2021-02-17T12:24:55Z</time><name>PT5086</name></trkpt>
<trkpt lat="53.451772" lon="05.643841"><ele>3.6</ele><time>2021-02-17T12:24:59Z</time><name>PT5087</name></trkpt>
<trkpt lat="53.451771" lon="05.643856"><ele>3.7</ele><time>2021-02-17T12:25:00Z</time><name>PT5088</name></trkpt>
<trkpt lat="53.451770" lon="05.643871"><ele>3.8</ele><time>2021-02-17T12:25:01Z</time><name>PT5089</name></trkpt>
<trkpt lat="53.451769" lon="05.643885"><ele>3.6</ele><time>2021-02-17T12:25:02Z</time><name>PT5090</name></trkpt>
<trkpt lat="53.451769" lon="05.643900"><ele>3.5</ele><time>2021-02-17T12:25:03Z</time><name>PT5091</name></trkpt>
<trkpt lat="53.451770" lon="05.643916"><ele>3.3</ele><time>2021-02-17T12:25:04Z</time><name>PT5092</name></trkpt>
<trkpt lat="53.451776" lon="05.643937"><ele>2.9</ele><time>2021-02-17T12:25:05Z</time><name>PT5093</name></trkpt>
<trkpt lat="53.451775" lon="05.643952"><ele>2.9</ele><time>2021-02-17T12:25:06Z</time><name>PT5094</name></trkpt>
<trkpt lat="53.451775" lon="05.643964"><ele>2.9</ele><time>2021-02-17T12:25:07Z</time><name>PT5095</name></trkpt>
<trkpt lat="53.451775" lon="05.643978"><ele>3</ele><time>2021-02-17T12:25:08Z</time><name>PT5096</name></trkpt>
<trkpt lat="53.451774" lon="05.643998"><ele>3</ele><time>2021-02-17T12:25:09Z</time><name>PT5097</name></trkpt>
<trkpt lat="53.451772" lon="05.644015"><ele>3.1</ele><time>2021-02-17T12:25:10Z</time><name>PT5098</name></trkpt>
<trkpt lat="53.451770" lon="05.644030"><ele>3.1</ele><time>2021-02-17T12:25:11Z</time><name>PT5099</name></trkpt>
<trkpt lat="53.451769" lon="05.644047"><ele>3.1</ele><time>2021-02-17T12:25:12Z</time><name>PT5100</name></trkpt>
<trkpt lat="53.451768" lon="05.644061"><ele>3.1</ele><time>2021-02-17T12:25:13Z</time><name>PT5101</name></trkpt>
<trkpt lat="53.451767" lon="05.644082"><ele>3</ele><time>2021-02-17T12:25:14Z</time><name>PT5102</name></trkpt>
<trkpt lat="53.451766" lon="05.644095"><ele>3</ele><time>2021-02-17T12:25:15Z</time><name>PT5103</name></trkpt>
<trkpt lat="53.451763" lon="05.644110"><ele>3.2</ele><time>2021-02-17T12:25:16Z</time><name>PT5104</name></trkpt>
<trkpt lat="53.451760" lon="05.644126"><ele>3.3</ele><time>2021-02-17T12:25:17Z</time><name>PT5105</name></trkpt>
<trkpt lat="53.451758" lon="05.644143"><ele>3.2</ele><time>2021-02-17T12:25:18Z</time><name>PT5106</name></trkpt>
<trkpt lat="53.451756" lon="05.644160"><ele>3.3</ele><time>2021-02-17T12:25:19Z</time><name>PT5107</name></trkpt>
<trkpt lat="53.451753" lon="05.644178"><ele>3.3</ele><time>2021-02-17T12:25:20Z</time><name>PT5108</name></trkpt>
<trkpt lat="53.451750" lon="05.644195"><ele>3.4</ele><time>2021-02-17T12:25:21Z</time><name>PT5109</name></trkpt>
<trkpt lat="53.451746" lon="05.644213"><ele>3.2</ele><time>2021-02-17T12:25:22Z</time><name>PT5110</name></trkpt>
<trkpt lat="53.451744" lon="05.644229"><ele>3.2</ele><time>2021-02-17T12:25:23Z</time><name>PT5111</name></trkpt>
<trkpt lat="53.451743" lon="05.644247"><ele>3.1</ele><time>2021-02-17T12:25:24Z</time><name>PT5112</name></trkpt>
<trkpt lat="53.451742" lon="05.644262"><ele>3</ele><time>2021-02-17T12:25:25Z</time><name>PT5113</name></trkpt>
<trkpt lat="53.451740" lon="05.644280"><ele>3</ele><time>2021-02-17T12:25:26Z</time><name>PT5114</name></trkpt>
<trkpt lat="53.451735" lon="05.644295"><ele>3</ele><time>2021-02-17T12:25:27Z</time><name>PT5115</name></trkpt>
<trkpt lat="53.451729" lon="05.644309"><ele>2.9</ele><time>2021-02-17T12:25:28Z</time><name>PT5116</name></trkpt>
<trkpt lat="53.451724" lon="05.644323"><ele>2.9</ele><time>2021-02-17T12:25:29Z</time><name>PT5117</name></trkpt>
<trkpt lat="53.451720" lon="05.644337"><ele>2.8</ele><time>2021-02-17T12:25:30Z</time><name>PT5118</name></trkpt>
<trkpt lat="53.451718" lon="05.644352"><ele>2.7</ele><time>2021-02-17T12:25:31Z</time><name>PT5119</name></trkpt>
<trkpt lat="53.451717" lon="05.644372"><ele>2.9</ele><time>2021-02-17T12:25:32Z</time><name>PT5120</name></trkpt>
<trkpt lat="53.451714" lon="05.644390"><ele>2.9</ele><time>2021-02-17T12:25:33Z</time><name>PT5121</name></trkpt>
<trkpt lat="53.451713" lon="05.644409"><ele>3.2</ele><time>2021-02-17T12:25:34Z</time><name>PT5122</name></trkpt>
<trkpt lat="53.451712" lon="05.644426"><ele>3.4</ele><time>2021-02-17T12:25:35Z</time><name>PT5123</name></trkpt>
<trkpt lat="53.451709" lon="05.644447"><ele>3.4</ele><time>2021-02-17T12:25:36Z</time><name>PT5124</name></trkpt>
<trkpt lat="53.451706" lon="05.644469"><ele>3.4</ele><time>2021-02-17T12:25:37Z</time><name>PT5125</name></trkpt>
<trkpt lat="53.451703" lon="05.644492"><ele>3.4</ele><time>2021-02-17T12:25:38Z</time><name>PT5126</name></trkpt>
<trkpt lat="53.451701" lon="05.644513"><ele>3.5</ele><time>2021-02-17T12:25:39Z</time><name>PT5127</name></trkpt>
<trkpt lat="53.451699" lon="05.644531"><ele>3.5</ele><time>2021-02-17T12:25:40Z</time><name>PT5128</name></trkpt>
<trkpt lat="53.451696" lon="05.644551"><ele>3.6</ele><time>2021-02-17T12:25:41Z</time><name>PT5129</name></trkpt>
<trkpt lat="53.451692" lon="05.644568"><ele>3.5</ele><time>2021-02-17T12:25:42Z</time><name>PT5130</name></trkpt>
<trkpt lat="53.451689" lon="05.644583"><ele>3.4</ele><time>2021-02-17T12:25:43Z</time><name>PT5131</name></trkpt>
<trkpt lat="53.451685" lon="05.644600"><ele>3.2</ele><time>2021-02-17T12:25:44Z</time><name>PT5132</name></trkpt>
<trkpt lat="53.451681" lon="05.644618"><ele>3.2</ele><time>2021-02-17T12:25:45Z</time><name>PT5133</name></trkpt>
<trkpt lat="53.451678" lon="05.644636"><ele>3</ele><time>2021-02-17T12:25:46Z</time><name>PT5134</name></trkpt>
<trkpt lat="53.451676" lon="05.644652"><ele>3.1</ele><time>2021-02-17T12:25:47Z</time><name>PT5135</name></trkpt>
<trkpt lat="53.451674" lon="05.644668"><ele>3</ele><time>2021-02-17T12:25:48Z</time><name>PT5136</name></trkpt>
<trkpt lat="53.451670" lon="05.644687"><ele>3</ele><time>2021-02-17T12:25:49Z</time><name>PT5137</name></trkpt>
<trkpt lat="53.451667" lon="05.644705"><ele>3</ele><time>2021-02-17T12:25:50Z</time><name>PT5138</name></trkpt>
<trkpt lat="53.451665" lon="05.644722"><ele>2.9</ele><time>2021-02-17T12:25:51Z</time><name>PT5139</name></trkpt>
<trkpt lat="53.451663" lon="05.644743"><ele>3.1</ele><time>2021-02-17T12:25:52Z</time><name>PT5140</name></trkpt>
<trkpt lat="53.451662" lon="05.644759"><ele>3</ele><time>2021-02-17T12:25:53Z</time><name>PT5141</name></trkpt>
<trkpt lat="53.451659" lon="05.644775"><ele>3.1</ele><time>2021-02-17T12:25:54Z</time><name>PT5142</name></trkpt>
<trkpt lat="53.451656" lon="05.644790"><ele>3</ele><time>2021-02-17T12:25:55Z</time><name>PT5143</name></trkpt>
<trkpt lat="53.451652" lon="05.644806"><ele>3</ele><time>2021-02-17T12:25:56Z</time><name>PT5144</name></trkpt>
<trkpt lat="53.451649" lon="05.644821"><ele>3.1</ele><time>2021-02-17T12:25:57Z</time><name>PT5145</name></trkpt>
<trkpt lat="53.451647" lon="05.644836"><ele>3.2</ele><time>2021-02-17T12:25:58Z</time><name>PT5146</name></trkpt>
<trkpt lat="53.451644" lon="05.644850"><ele>3.3</ele><time>2021-02-17T12:25:59Z</time><name>PT5147</name></trkpt>
<trkpt lat="53.451641" lon="05.644865"><ele>3.4</ele><time>2021-02-17T12:26:00Z</time><name>PT5148</name></trkpt>
<trkpt lat="53.451637" lon="05.644888"><ele>3.3</ele><time>2021-02-17T12:26:01Z</time><name>PT5149</name></trkpt>
<trkpt lat="53.451634" lon="05.644908"><ele>3</ele><time>2021-02-17T12:26:02Z</time><name>PT5150</name></trkpt>
<trkpt lat="53.451634" lon="05.644926"><ele>3.1</ele><time>2021-02-17T12:26:03Z</time><name>PT5151</name></trkpt>
<trkpt lat="53.451634" lon="05.644944"><ele>3</ele><time>2021-02-17T12:26:04Z</time><name>PT5152</name></trkpt>
<trkpt lat="53.451633" lon="05.644962"><ele>3.2</ele><time>2021-02-17T12:26:05Z</time><name>PT5153</name></trkpt>
<trkpt lat="53.451631" lon="05.644978"><ele>3.3</ele><time>2021-02-17T12:26:06Z</time><name>PT5154</name></trkpt>
<trkpt lat="53.451626" lon="05.645000"><ele>3.4</ele><time>2021-02-17T12:26:07Z</time><name>PT5155</name></trkpt>
<trkpt lat="53.451623" lon="05.645017"><ele>3.5</ele><time>2021-02-17T12:26:08Z</time><name>PT5156</name></trkpt>
<trkpt lat="53.451621" lon="05.645035"><ele>3.4</ele><time>2021-02-17T12:26:09Z</time><name>PT5157</name></trkpt>
<trkpt lat="53.451619" lon="05.645049"><ele>3.1</ele><time>2021-02-17T12:26:10Z</time><name>PT5158</name></trkpt>
<trkpt lat="53.451621" lon="05.645057"><ele>2.9</ele><time>2021-02-17T12:26:11Z</time><name>PT5159</name></trkpt>
<trkpt lat="53.451617" lon="05.645073"><ele>2.9</ele><time>2021-02-17T12:26:12Z</time><name>PT5160</name></trkpt>
<trkpt lat="53.451615" lon="05.645088"><ele>2.8</ele><time>2021-02-17T12:26:13Z</time><name>PT5161</name></trkpt>
<trkpt lat="53.451614" lon="05.645103"><ele>2.9</ele><time>2021-02-17T12:26:14Z</time><name>PT5162</name></trkpt>
<trkpt lat="53.451613" lon="05.645121"><ele>2.9</ele><time>2021-02-17T12:26:15Z</time><name>PT5163</name></trkpt>
<trkpt lat="53.451614" lon="05.645138"><ele>2.9</ele><time>2021-02-17T12:26:16Z</time><name>PT5164</name></trkpt>
<trkpt lat="53.451614" lon="05.645157"><ele>2.9</ele><time>2021-02-17T12:26:17Z</time><name>PT5165</name></trkpt>
<trkpt lat="53.451614" lon="05.645174"><ele>3.1</ele><time>2021-02-17T12:26:18Z</time><name>PT5166</name></trkpt>
<trkpt lat="53.451613" lon="05.645192"><ele>3.1</ele><time>2021-02-17T12:26:19Z</time><name>PT5167</name></trkpt>
<trkpt lat="53.451612" lon="05.645211"><ele>3.1</ele><time>2021-02-17T12:26:20Z</time><name>PT5168</name></trkpt>
<trkpt lat="53.451609" lon="05.645229"><ele>3.2</ele><time>2021-02-17T12:26:21Z</time><name>PT5169</name></trkpt>
<trkpt lat="53.451606" lon="05.645246"><ele>3.1</ele><time>2021-02-17T12:26:22Z</time><name>PT5170</name></trkpt>
<trkpt lat="53.451602" lon="05.645262"><ele>3.1</ele><time>2021-02-17T12:26:23Z</time><name>PT5171</name></trkpt>
<trkpt lat="53.451598" lon="05.645278"><ele>3.1</ele><time>2021-02-17T12:26:24Z</time><name>PT5172</name></trkpt>
<trkpt lat="53.451596" lon="05.645296"><ele>3.3</ele><time>2021-02-17T12:26:25Z</time><name>PT5173</name></trkpt>
<trkpt lat="53.451594" lon="05.645316"><ele>3.3</ele><time>2021-02-17T12:26:26Z</time><name>PT5174</name></trkpt>
<trkpt lat="53.451591" lon="05.645335"><ele>3.2</ele><time>2021-02-17T12:26:27Z</time><name>PT5175</name></trkpt>
<trkpt lat="53.451588" lon="05.645354"><ele>3.4</ele><time>2021-02-17T12:26:28Z</time><name>PT5176</name></trkpt>
<trkpt lat="53.451586" lon="05.645372"><ele>3.6</ele><time>2021-02-17T12:26:29Z</time><name>PT5177</name></trkpt>
<trkpt lat="53.451584" lon="05.645390"><ele>3.5</ele><time>2021-02-17T12:26:30Z</time><name>PT5178</name></trkpt>
<trkpt lat="53.451581" lon="05.645406"><ele>3.7</ele><time>2021-02-17T12:26:31Z</time><name>PT5179</name></trkpt>
<trkpt lat="53.451578" lon="05.645424"><ele>3.7</ele><time>2021-02-17T12:26:32Z</time><name>PT5180</name></trkpt>
<trkpt lat="53.451577" lon="05.645447"><ele>3.7</ele><time>2021-02-17T12:26:33Z</time><name>PT5181</name></trkpt>
<trkpt lat="53.451575" lon="05.645463"><ele>3.6</ele><time>2021-02-17T12:26:34Z</time><name>PT5182</name></trkpt>
<trkpt lat="53.451571" lon="05.645477"><ele>3.4</ele><time>2021-02-17T12:26:35Z</time><name>PT5183</name></trkpt>
<trkpt lat="53.451567" lon="05.645489"><ele>3.3</ele><time>2021-02-17T12:26:36Z</time><name>PT5184</name></trkpt>
<trkpt lat="53.451563" lon="05.645502"><ele>3.3</ele><time>2021-02-17T12:26:37Z</time><name>PT5185</name></trkpt>
<trkpt lat="53.451561" lon="05.645515"><ele>3.1</ele><time>2021-02-17T12:26:38Z</time><name>PT5186</name></trkpt>
<trkpt lat="53.451557" lon="05.645528"><ele>3.3</ele><time>2021-02-17T12:26:39Z</time><name>PT5187</name></trkpt>
<trkpt lat="53.451553" lon="05.645545"><ele>3.3</ele><time>2021-02-17T12:26:40Z</time><name>PT5188</name></trkpt>
<trkpt lat="53.451548" lon="05.645561"><ele>3.4</ele><time>2021-02-17T12:26:41Z</time><name>PT5189</name></trkpt>
<trkpt lat="53.451544" lon="05.645574"><ele>3.5</ele><time>2021-02-17T12:26:42Z</time><name>PT5190</name></trkpt>
<trkpt lat="53.451540" lon="05.645589"><ele>3.4</ele><time>2021-02-17T12:26:43Z</time><name>PT5191</name></trkpt>
<trkpt lat="53.451537" lon="05.645606"><ele>3.2</ele><time>2021-02-17T12:26:44Z</time><name>PT5192</name></trkpt>
<trkpt lat="53.451535" lon="05.645621"><ele>3.2</ele><time>2021-02-17T12:26:45Z</time><name>PT5193</name></trkpt>
<trkpt lat="53.451536" lon="05.645639"><ele>3.2</ele><time>2021-02-17T12:26:46Z</time><name>PT5194</name></trkpt>
<trkpt lat="53.451535" lon="05.645654"><ele>3.1</ele><time>2021-02-17T12:26:47Z</time><name>PT5195</name></trkpt>
<trkpt lat="53.451536" lon="05.645665"><ele>3.3</ele><time>2021-02-17T12:26:48Z</time><name>PT5196</name></trkpt>
<trkpt lat="53.451534" lon="05.645683"><ele>3.1</ele><time>2021-02-17T12:26:49Z</time><name>PT5197</name></trkpt>
<trkpt lat="53.451532" lon="05.645698"><ele>2.9</ele><time>2021-02-17T12:26:50Z</time><name>PT5198</name></trkpt>
<trkpt lat="53.451529" lon="05.645716"><ele>2.9</ele><time>2021-02-17T12:26:51Z</time><name>PT5199</name></trkpt>
<trkpt lat="53.451525" lon="05.645732"><ele>2.9</ele><time>2021-02-17T12:26:52Z</time><name>PT5200</name></trkpt>
<trkpt lat="53.451523" lon="05.645746"><ele>2.6</ele><time>2021-02-17T12:26:53Z</time><name>PT5201</name></trkpt>
<trkpt lat="53.451524" lon="05.645758"><ele>2.6</ele><time>2021-02-17T12:26:54Z</time><name>PT5202</name></trkpt>
<trkpt lat="53.451523" lon="05.645770"><ele>2.8</ele><time>2021-02-17T12:26:55Z</time><name>PT5203</name></trkpt>
<trkpt lat="53.451521" lon="05.645784"><ele>2.9</ele><time>2021-02-17T12:26:56Z</time><name>PT5204</name></trkpt>
<trkpt lat="53.451518" lon="05.645800"><ele>2.9</ele><time>2021-02-17T12:26:57Z</time><name>PT5205</name></trkpt>
<trkpt lat="53.451515" lon="05.645816"><ele>2.7</ele><time>2021-02-17T12:26:58Z</time><name>PT5206</name></trkpt>
<trkpt lat="53.451515" lon="05.645832"><ele>2.7</ele><time>2021-02-17T12:26:59Z</time><name>PT5207</name></trkpt>
<trkpt lat="53.451514" lon="05.645849"><ele>2.6</ele><time>2021-02-17T12:27:00Z</time><name>PT5208</name></trkpt>
<trkpt lat="53.451513" lon="05.645865"><ele>2.6</ele><time>2021-02-17T12:27:01Z</time><name>PT5209</name></trkpt>
<trkpt lat="53.451513" lon="05.645880"><ele>2.9</ele><time>2021-02-17T12:27:02Z</time><name>PT5210</name></trkpt>
<trkpt lat="53.451515" lon="05.645895"><ele>2.9</ele><time>2021-02-17T12:27:03Z</time><name>PT5211</name></trkpt>
<trkpt lat="53.451513" lon="05.645909"><ele>2.9</ele><time>2021-02-17T12:27:04Z</time><name>PT5212</name></trkpt>
<trkpt lat="53.451511" lon="05.645920"><ele>2.9</ele><time>2021-02-17T12:27:05Z</time><name>PT5213</name></trkpt>
<trkpt lat="53.451509" lon="05.645932"><ele>2.6</ele><time>2021-02-17T12:27:06Z</time><name>PT5214</name></trkpt>
<trkpt lat="53.451508" lon="05.645944"><ele>2.4</ele><time>2021-02-17T12:27:07Z</time><name>PT5215</name></trkpt>
<trkpt lat="53.451509" lon="05.645960"><ele>2.4</ele><time>2021-02-17T12:27:08Z</time><name>PT5216</name></trkpt>
<trkpt lat="53.451511" lon="05.645973"><ele>2.3</ele><time>2021-02-17T12:27:09Z</time><name>PT5217</name></trkpt>
<trkpt lat="53.451511" lon="05.645985"><ele>2.4</ele><time>2021-02-17T12:27:10Z</time><name>PT5218</name></trkpt>
<trkpt lat="53.451510" lon="05.645994"><ele>2.4</ele><time>2021-02-17T12:27:11Z</time><name>PT5219</name></trkpt>
<trkpt lat="53.451510" lon="05.646005"><ele>2.4</ele><time>2021-02-17T12:27:12Z</time><name>PT5220</name></trkpt>
<trkpt lat="53.451511" lon="05.646016"><ele>2.3</ele><time>2021-02-17T12:27:13Z</time><name>PT5221</name></trkpt>
<trkpt lat="53.451511" lon="05.646027"><ele>2.2</ele><time>2021-02-17T12:27:14Z</time><name>PT5222</name></trkpt>
<trkpt lat="53.451508" lon="05.646039"><ele>2.2</ele><time>2021-02-17T12:27:15Z</time><name>PT5223</name></trkpt>
<trkpt lat="53.451506" lon="05.646053"><ele>2</ele><time>2021-02-17T12:27:16Z</time><name>PT5224</name></trkpt>
<trkpt lat="53.451507" lon="05.646066"><ele>2</ele><time>2021-02-17T12:27:17Z</time><name>PT5225</name></trkpt>
<trkpt lat="53.451509" lon="05.646083"><ele>2.1</ele><time>2021-02-17T12:27:18Z</time><name>PT5226</name></trkpt>
<trkpt lat="53.451511" lon="05.646098"><ele>2.1</ele><time>2021-02-17T12:27:19Z</time><name>PT5227</name></trkpt>
<trkpt lat="53.451512" lon="05.646112"><ele>2.2</ele><time>2021-02-17T12:27:20Z</time><name>PT5228</name></trkpt>
<trkpt lat="53.451514" lon="05.646128"><ele>2.3</ele><time>2021-02-17T12:27:21Z</time><name>PT5229</name></trkpt>
<trkpt lat="53.451514" lon="05.646142"><ele>2.4</ele><time>2021-02-17T12:27:22Z</time><name>PT5230</name></trkpt>
<trkpt lat="53.451514" lon="05.646157"><ele>2.4</ele><time>2021-02-17T12:27:23Z</time><name>PT5231</name></trkpt>
<trkpt lat="53.451513" lon="05.646170"><ele>2.3</ele><time>2021-02-17T12:27:24Z</time><name>PT5232</name></trkpt>
<trkpt lat="53.451511" lon="05.646180"><ele>2.3</ele><time>2021-02-17T12:27:25Z</time><name>PT5233</name></trkpt>
<trkpt lat="53.451510" lon="05.646195"><ele>2.3</ele><time>2021-02-17T12:27:26Z</time><name>PT5234</name></trkpt>
<trkpt lat="53.451509" lon="05.646211"><ele>2.1</ele><time>2021-02-17T12:27:27Z</time><name>PT5235</name></trkpt>
<trkpt lat="53.451509" lon="05.646225"><ele>2.3</ele><time>2021-02-17T12:27:28Z</time><name>PT5236</name></trkpt>
<trkpt lat="53.451508" lon="05.646240"><ele>2.2</ele><time>2021-02-17T12:27:29Z</time><name>PT5237</name></trkpt>
<trkpt lat="53.451508" lon="05.646257"><ele>2.2</ele><time>2021-02-17T12:27:30Z</time><name>PT5238</name></trkpt>
<trkpt lat="53.451506" lon="05.646270"><ele>2.3</ele><time>2021-02-17T12:27:31Z</time><name>PT5239</name></trkpt>
<trkpt lat="53.451504" lon="05.646281"><ele>2.3</ele><time>2021-02-17T12:27:32Z</time><name>PT5240</name></trkpt>
<trkpt lat="53.451500" lon="05.646291"><ele>2.4</ele><time>2021-02-17T12:27:33Z</time><name>PT5241</name></trkpt>
<trkpt lat="53.451496" lon="05.646304"><ele>2.4</ele><time>2021-02-17T12:27:34Z</time><name>PT5242</name></trkpt>
<trkpt lat="53.451495" lon="05.646318"><ele>2.5</ele><time>2021-02-17T12:27:35Z</time><name>PT5243</name></trkpt>
<trkpt lat="53.451493" lon="05.646335"><ele>2.6</ele><time>2021-02-17T12:27:36Z</time><name>PT5244</name></trkpt>
<trkpt lat="53.451492" lon="05.646353"><ele>2.6</ele><time>2021-02-17T12:27:37Z</time><name>PT5245</name></trkpt>
<trkpt lat="53.451492" lon="05.646361"><ele>2.5</ele><time>2021-02-17T12:27:38Z</time><name>PT5246</name></trkpt>
<trkpt lat="53.451494" lon="05.646371"><ele>2.4</ele><time>2021-02-17T12:27:39Z</time><name>PT5247</name></trkpt>
<trkpt lat="53.451497" lon="05.646383"><ele>2.4</ele><time>2021-02-17T12:27:40Z</time><name>PT5248</name></trkpt>
<trkpt lat="53.451500" lon="05.646398"><ele>2.4</ele><time>2021-02-17T12:27:41Z</time><name>PT5249</name></trkpt>
<trkpt lat="53.451503" lon="05.646415"><ele>2.3</ele><time>2021-02-17T12:27:42Z</time><name>PT5250</name></trkpt>
<trkpt lat="53.451506" lon="05.646431"><ele>2.5</ele><time>2021-02-17T12:27:43Z</time><name>PT5251</name></trkpt>
<trkpt lat="53.451506" lon="05.646445"><ele>2.6</ele><time>2021-02-17T12:27:44Z</time><name>PT5252</name></trkpt>
<trkpt lat="53.451505" lon="05.646462"><ele>2.5</ele><time>2021-02-17T12:27:45Z</time><name>PT5253</name></trkpt>
<trkpt lat="53.451500" lon="05.646480"><ele>2.6</ele><time>2021-02-17T12:27:46Z</time><name>PT5254</name></trkpt>
<trkpt lat="53.451495" lon="05.646497"><ele>2.6</ele><time>2021-02-17T12:27:47Z</time><name>PT5255</name></trkpt>
<trkpt lat="53.451489" lon="05.646513"><ele>2.5</ele><time>2021-02-17T12:27:48Z</time><name>PT5256</name></trkpt>
<trkpt lat="53.451486" lon="05.646526"><ele>2.4</ele><time>2021-02-17T12:27:49Z</time><name>PT5257</name></trkpt>
<trkpt lat="53.451482" lon="05.646542"><ele>2.4</ele><time>2021-02-17T12:27:50Z</time><name>PT5258</name></trkpt>
<trkpt lat="53.451481" lon="05.646559"><ele>2.4</ele><time>2021-02-17T12:27:51Z</time><name>PT5259</name></trkpt>
<trkpt lat="53.451479" lon="05.646575"><ele>2.4</ele><time>2021-02-17T12:27:52Z</time><name>PT5260</name></trkpt>
<trkpt lat="53.451475" lon="05.646590"><ele>2.5</ele><time>2021-02-17T12:27:53Z</time><name>PT5261</name></trkpt>
<trkpt lat="53.451473" lon="05.646601"><ele>2.5</ele><time>2021-02-17T12:27:54Z</time><name>PT5262</name></trkpt>
<trkpt lat="53.451470" lon="05.646615"><ele>2.7</ele><time>2021-02-17T12:27:55Z</time><name>PT5263</name></trkpt>
<trkpt lat="53.451467" lon="05.646625"><ele>2.7</ele><time>2021-02-17T12:27:56Z</time><name>PT5264</name></trkpt>
<trkpt lat="53.451466" lon="05.646633"><ele>2.5</ele><time>2021-02-17T12:27:57Z</time><name>PT5265</name></trkpt>
<trkpt lat="53.451467" lon="05.646642"><ele>2.4</ele><time>2021-02-17T12:27:58Z</time><name>PT5266</name></trkpt>
<trkpt lat="53.451472" lon="05.646655"><ele>2.4</ele><time>2021-02-17T12:27:59Z</time><name>PT5267</name></trkpt>
<trkpt lat="53.451476" lon="05.646664"><ele>2.2</ele><time>2021-02-17T12:28:00Z</time><name>PT5268</name></trkpt>
<trkpt lat="53.451480" lon="05.646671"><ele>2.2</ele><time>2021-02-17T12:28:01Z</time><name>PT5269</name></trkpt>
<trkpt lat="53.451487" lon="05.646678"><ele>2.2</ele><time>2021-02-17T12:28:02Z</time><name>PT5270</name></trkpt>
<trkpt lat="53.451492" lon="05.646686"><ele>2.3</ele><time>2021-02-17T12:28:03Z</time><name>PT5271</name></trkpt>
<trkpt lat="53.451493" lon="05.646693"><ele>2.4</ele><time>2021-02-17T12:28:04Z</time><name>PT5272</name></trkpt>
<trkpt lat="53.451494" lon="05.646697"><ele>2.3</ele><time>2021-02-17T12:28:05Z</time><name>PT5273</name></trkpt>
<trkpt lat="53.451497" lon="05.646701"><ele>2.4</ele><time>2021-02-17T12:28:06Z</time><name>PT5274</name></trkpt>
<trkpt lat="53.451503" lon="05.646707"><ele>2.4</ele><time>2021-02-17T12:28:07Z</time><name>PT5275</name></trkpt>
<trkpt lat="53.451511" lon="05.646712"><ele>2.4</ele><time>2021-02-17T12:28:08Z</time><name>PT5276</name></trkpt>
<trkpt lat="53.451519" lon="05.646720"><ele>2.4</ele><time>2021-02-17T12:28:09Z</time><name>PT5277</name></trkpt>
<trkpt lat="53.451526" lon="05.646733"><ele>2.5</ele><time>2021-02-17T12:28:10Z</time><name>PT5278</name></trkpt>
<trkpt lat="53.451532" lon="05.646744"><ele>2.6</ele><time>2021-02-17T12:28:11Z</time><name>PT5279</name></trkpt>
<trkpt lat="53.451540" lon="05.646753"><ele>2.6</ele><time>2021-02-17T12:28:12Z</time><name>PT5280</name></trkpt>
<trkpt lat="53.451547" lon="05.646766"><ele>2.6</ele><time>2021-02-17T12:28:13Z</time><name>PT5281</name></trkpt>
<trkpt lat="53.451556" lon="05.646773"><ele>2.9</ele><time>2021-02-17T12:28:14Z</time><name>PT5282</name></trkpt>
<trkpt lat="53.451564" lon="05.646779"><ele>2.9</ele><time>2021-02-17T12:28:15Z</time><name>PT5283</name></trkpt>
<trkpt lat="53.451574" lon="05.646785"><ele>2.9</ele><time>2021-02-17T12:28:16Z</time><name>PT5284</name></trkpt>
<trkpt lat="53.451584" lon="05.646792"><ele>2.9</ele><time>2021-02-17T12:28:17Z</time><name>PT5285</name></trkpt>
<trkpt lat="53.451592" lon="05.646800"><ele>2.9</ele><time>2021-02-17T12:28:18Z</time><name>PT5286</name></trkpt>
<trkpt lat="53.451600" lon="05.646810"><ele>2.7</ele><time>2021-02-17T12:28:19Z</time><name>PT5287</name></trkpt>
<trkpt lat="53.451607" lon="05.646819"><ele>2.7</ele><time>2021-02-17T12:28:20Z</time><name>PT5288</name></trkpt>
<trkpt lat="53.451612" lon="05.646835"><ele>2.8</ele><time>2021-02-17T12:28:21Z</time><name>PT5289</name></trkpt>
<trkpt lat="53.451617" lon="05.646851"><ele>2.8</ele><time>2021-02-17T12:28:22Z</time><name>PT5290</name></trkpt>
<trkpt lat="53.451621" lon="05.646865"><ele>2.8</ele><time>2021-02-17T12:28:23Z</time><name>PT5291</name></trkpt>
<trkpt lat="53.451619" lon="05.646882"><ele>2.8</ele><time>2021-02-17T12:28:24Z</time><name>PT5292</name></trkpt>
<trkpt lat="53.451619" lon="05.646894"><ele>2.9</ele><time>2021-02-17T12:28:25Z</time><name>PT5293</name></trkpt>
<trkpt lat="53.451618" lon="05.646908"><ele>2.9</ele><time>2021-02-17T12:28:26Z</time><name>PT5294</name></trkpt>
<trkpt lat="53.451615" lon="05.646921"><ele>2.9</ele><time>2021-02-17T12:28:27Z</time><name>PT5295</name></trkpt>
<trkpt lat="53.451613" lon="05.646934"><ele>2.6</ele><time>2021-02-17T12:28:28Z</time><name>PT5296</name></trkpt>
<trkpt lat="53.451610" lon="05.646949"><ele>2.4</ele><time>2021-02-17T12:28:29Z</time><name>PT5297</name></trkpt>
<trkpt lat="53.451607" lon="05.646966"><ele>2.4</ele><time>2021-02-17T12:28:30Z</time><name>PT5298</name></trkpt>
<trkpt lat="53.451605" lon="05.646982"><ele>2.4</ele><time>2021-02-17T12:28:31Z</time><name>PT5299</name></trkpt>
<trkpt lat="53.451603" lon="05.646998"><ele>2.5</ele><time>2021-02-17T12:28:32Z</time><name>PT5300</name></trkpt>
<trkpt lat="53.451601" lon="05.647017"><ele>2.6</ele><time>2021-02-17T12:28:33Z</time><name>PT5301</name></trkpt>
<trkpt lat="53.451600" lon="05.647038"><ele>2.7</ele><time>2021-02-17T12:28:34Z</time><name>PT5302</name></trkpt>
<trkpt lat="53.451598" lon="05.647058"><ele>2.6</ele><time>2021-02-17T12:28:35Z</time><name>PT5303</name></trkpt>
<trkpt lat="53.451596" lon="05.647075"><ele>2.6</ele><time>2021-02-17T12:28:36Z</time><name>PT5304</name></trkpt>
<trkpt lat="53.451593" lon="05.647091"><ele>2.6</ele><time>2021-02-17T12:28:37Z</time><name>PT5305</name></trkpt>
<trkpt lat="53.451591" lon="05.647107"><ele>2.5</ele><time>2021-02-17T12:28:38Z</time><name>PT5306</name></trkpt>
<trkpt lat="53.451589" lon="05.647121"><ele>2.6</ele><time>2021-02-17T12:28:39Z</time><name>PT5307</name></trkpt>
<trkpt lat="53.451586" lon="05.647136"><ele>2.6</ele><time>2021-02-17T12:28:40Z</time><name>PT5308</name></trkpt>
<trkpt lat="53.451582" lon="05.647150"><ele>2.7</ele><time>2021-02-17T12:28:41Z</time><name>PT5309</name></trkpt>
<trkpt lat="53.451579" lon="05.647168"><ele>2.8</ele><time>2021-02-17T12:28:42Z</time><name>PT5310</name></trkpt>
<trkpt lat="53.451577" lon="05.647184"><ele>2.9</ele><time>2021-02-17T12:28:43Z</time><name>PT5311</name></trkpt>
<trkpt lat="53.451574" lon="05.647198"><ele>2.9</ele><time>2021-02-17T12:28:44Z</time><name>PT5312</name></trkpt>
<trkpt lat="53.451571" lon="05.647214"><ele>2.9</ele><time>2021-02-17T12:28:45Z</time><name>PT5313</name></trkpt>
<trkpt lat="53.451567" lon="05.647224"><ele>2.8</ele><time>2021-02-17T12:28:46Z</time><name>PT5314</name></trkpt>
<trkpt lat="53.451561" lon="05.647233"><ele>2.7</ele><time>2021-02-17T12:28:47Z</time><name>PT5315</name></trkpt>
<trkpt lat="53.451555" lon="05.647243"><ele>2.6</ele><time>2021-02-17T12:28:48Z</time><name>PT5316</name></trkpt>
<trkpt lat="53.451550" lon="05.647249"><ele>2.8</ele><time>2021-02-17T12:28:49Z</time><name>PT5317</name></trkpt>
<trkpt lat="53.451545" lon="05.647257"><ele>2.8</ele><time>2021-02-17T12:28:50Z</time><name>PT5318</name></trkpt>
<trkpt lat="53.451541" lon="05.647267"><ele>2.9</ele><time>2021-02-17T12:28:51Z</time><name>PT5319</name></trkpt>
<trkpt lat="53.451537" lon="05.647274"><ele>2.8</ele><time>2021-02-17T12:28:52Z</time><name>PT5320</name></trkpt>
<trkpt lat="53.451533" lon="05.647281"><ele>2.3</ele><time>2021-02-17T12:28:53Z</time><name>PT5321</name></trkpt>
<trkpt lat="53.451529" lon="05.647290"><ele>2.2</ele><time>2021-02-17T12:28:54Z</time><name>PT5322</name></trkpt>
<trkpt lat="53.451525" lon="05.647299"><ele>2.2</ele><time>2021-02-17T12:28:55Z</time><name>PT5323</name></trkpt>
<trkpt lat="53.451519" lon="05.647313"><ele>2.3</ele><time>2021-02-17T12:28:56Z</time><name>PT5324</name></trkpt>
<trkpt lat="53.451514" lon="05.647327"><ele>2.4</ele><time>2021-02-17T12:28:57Z</time><name>PT5325</name></trkpt>
<trkpt lat="53.451511" lon="05.647342"><ele>2.4</ele><time>2021-02-17T12:28:58Z</time><name>PT5326</name></trkpt>
<trkpt lat="53.451510" lon="05.647359"><ele>2.4</ele><time>2021-02-17T12:28:59Z</time><name>PT5327</name></trkpt>
<trkpt lat="53.451512" lon="05.647372"><ele>2.4</ele><time>2021-02-17T12:29:00Z</time><name>PT5328</name></trkpt>
<trkpt lat="53.451511" lon="05.647388"><ele>2.4</ele><time>2021-02-17T12:29:01Z</time><name>PT5329</name></trkpt>
<trkpt lat="53.451509" lon="05.647403"><ele>2.2</ele><time>2021-02-17T12:29:02Z</time><name>PT5330</name></trkpt>
<trkpt lat="53.451507" lon="05.647417"><ele>2.4</ele><time>2021-02-17T12:29:03Z</time><name>PT5331</name></trkpt>
<trkpt lat="53.451508" lon="05.647427"><ele>2.3</ele><time>2021-02-17T12:29:04Z</time><name>PT5332</name></trkpt>
<trkpt lat="53.451509" lon="05.647440"><ele>2.2</ele><time>2021-02-17T12:29:05Z</time><name>PT5333</name></trkpt>
<trkpt lat="53.451510" lon="05.647457"><ele>2.3</ele><time>2021-02-17T12:29:06Z</time><name>PT5334</name></trkpt>
<trkpt lat="53.451511" lon="05.647472"><ele>2.4</ele><time>2021-02-17T12:29:07Z</time><name>PT5335</name></trkpt>
<trkpt lat="53.451509" lon="05.647491"><ele>2.5</ele><time>2021-02-17T12:29:08Z</time><name>PT5336</name></trkpt>
<trkpt lat="53.451508" lon="05.647509"><ele>2.7</ele><time>2021-02-17T12:29:09Z</time><name>PT5337</name></trkpt>
<trkpt lat="53.451506" lon="05.647520"><ele>2.8</ele><time>2021-02-17T12:29:10Z</time><name>PT5338</name></trkpt>
<trkpt lat="53.451506" lon="05.647529"><ele>2.7</ele><time>2021-02-17T12:29:11Z</time><name>PT5339</name></trkpt>
<trkpt lat="53.451504" lon="05.647542"><ele>2.7</ele><time>2021-02-17T12:29:12Z</time><name>PT5340</name></trkpt>
<trkpt lat="53.451502" lon="05.647556"><ele>2.4</ele><time>2021-02-17T12:29:13Z</time><name>PT5341</name></trkpt>
<trkpt lat="53.451499" lon="05.647573"><ele>2.4</ele><time>2021-02-17T12:29:14Z</time><name>PT5342</name></trkpt>
<trkpt lat="53.451497" lon="05.647589"><ele>2.4</ele><time>2021-02-17T12:29:15Z</time><name>PT5343</name></trkpt>
<trkpt lat="53.451495" lon="05.647605"><ele>2.4</ele><time>2021-02-17T12:29:16Z</time><name>PT5344</name></trkpt>
<trkpt lat="53.451493" lon="05.647620"><ele>2.3</ele><time>2021-02-17T12:29:17Z</time><name>PT5345</name></trkpt>
<trkpt lat="53.451494" lon="05.647637"><ele>2.2</ele><time>2021-02-17T12:29:18Z</time><name>PT5346</name></trkpt>
<trkpt lat="53.451494" lon="05.647649"><ele>1.9</ele><time>2021-02-17T12:29:19Z</time><name>PT5347</name></trkpt>
<trkpt lat="53.451493" lon="05.647663"><ele>1.8</ele><time>2021-02-17T12:29:20Z</time><name>PT5348</name></trkpt>
<trkpt lat="53.451491" lon="05.647677"><ele>1.9</ele><time>2021-02-17T12:29:21Z</time><name>PT5349</name></trkpt>
<trkpt lat="53.451488" lon="05.647692"><ele>2</ele><time>2021-02-17T12:29:22Z</time><name>PT5350</name></trkpt>
<trkpt lat="53.451484" lon="05.647704"><ele>2.2</ele><time>2021-02-17T12:29:23Z</time><name>PT5351</name></trkpt>
<trkpt lat="53.451481" lon="05.647716"><ele>2.3</ele><time>2021-02-17T12:29:24Z</time><name>PT5352</name></trkpt>
<trkpt lat="53.451477" lon="05.647729"><ele>2.2</ele><time>2021-02-17T12:29:25Z</time><name>PT5353</name></trkpt>
<trkpt lat="53.451473" lon="05.647745"><ele>2.1</ele><time>2021-02-17T12:29:26Z</time><name>PT5354</name></trkpt>
<trkpt lat="53.451467" lon="05.647758"><ele>1.9</ele><time>2021-02-17T12:29:27Z</time><name>PT5355</name></trkpt>
<trkpt lat="53.451462" lon="05.647769"><ele>2</ele><time>2021-02-17T12:29:28Z</time><name>PT5356</name></trkpt>
<trkpt lat="53.451458" lon="05.647781"><ele>2.1</ele><time>2021-02-17T12:29:29Z</time><name>PT5357</name></trkpt>
<trkpt lat="53.451454" lon="05.647795"><ele>2.2</ele><time>2021-02-17T12:29:30Z</time><name>PT5358</name></trkpt>
<trkpt lat="53.451451" lon="05.647813"><ele>2.3</ele><time>2021-02-17T12:29:31Z</time><name>PT5359</name></trkpt>
<trkpt lat="53.451450" lon="05.647826"><ele>2</ele><time>2021-02-17T12:29:32Z</time><name>PT5360</name></trkpt>
<trkpt lat="53.451448" lon="05.647840"><ele>1.9</ele><time>2021-02-17T12:29:33Z</time><name>PT5361</name></trkpt>
<trkpt lat="53.451447" lon="05.647858"><ele>1.9</ele><time>2021-02-17T12:29:34Z</time><name>PT5362</name></trkpt>
<trkpt lat="53.451445" lon="05.647874"><ele>1.9</ele><time>2021-02-17T12:29:35Z</time><name>PT5363</name></trkpt>
<trkpt lat="53.451444" lon="05.647887"><ele>2.1</ele><time>2021-02-17T12:29:36Z</time><name>PT5364</name></trkpt>
<trkpt lat="53.451445" lon="05.647902"><ele>2</ele><time>2021-02-17T12:29:37Z</time><name>PT5365</name></trkpt>
<trkpt lat="53.451442" lon="05.647918"><ele>2</ele><time>2021-02-17T12:29:38Z</time><name>PT5366</name></trkpt>
<trkpt lat="53.451440" lon="05.647932"><ele>2</ele><time>2021-02-17T12:29:39Z</time><name>PT5367</name></trkpt>
<trkpt lat="53.451438" lon="05.647948"><ele>2.2</ele><time>2021-02-17T12:29:40Z</time><name>PT5368</name></trkpt>
<trkpt lat="53.451436" lon="05.647962"><ele>2.5</ele><time>2021-02-17T12:29:41Z</time><name>PT5369</name></trkpt>
<trkpt lat="53.451434" lon="05.647976"><ele>2.6</ele><time>2021-02-17T12:29:42Z</time><name>PT5370</name></trkpt>
<trkpt lat="53.451431" lon="05.647989"><ele>2.8</ele><time>2021-02-17T12:29:43Z</time><name>PT5371</name></trkpt>
<trkpt lat="53.451427" lon="05.648002"><ele>2.8</ele><time>2021-02-17T12:29:44Z</time><name>PT5372</name></trkpt>
<trkpt lat="53.451423" lon="05.648013"><ele>2.9</ele><time>2021-02-17T12:29:45Z</time><name>PT5373</name></trkpt>
<trkpt lat="53.451422" lon="05.648031"><ele>2.7</ele><time>2021-02-17T12:29:46Z</time><name>PT5374</name></trkpt>
<trkpt lat="53.451419" lon="05.648046"><ele>2.7</ele><time>2021-02-17T12:29:47Z</time><name>PT5375</name></trkpt>
<trkpt lat="53.451413" lon="05.648059"><ele>2.9</ele><time>2021-02-17T12:29:48Z</time><name>PT5376</name></trkpt>
<trkpt lat="53.451407" lon="05.648067"><ele>2.6</ele><time>2021-02-17T12:29:49Z</time><name>PT5377</name></trkpt>
<trkpt lat="53.451399" lon="05.648076"><ele>2.7</ele><time>2021-02-17T12:29:50Z</time><name>PT5378</name></trkpt>
<trkpt lat="53.451391" lon="05.648085"><ele>2.7</ele><time>2021-02-17T12:29:51Z</time><name>PT5379</name></trkpt>
<trkpt lat="53.451383" lon="05.648094"><ele>2.6</ele><time>2021-02-17T12:29:52Z</time><name>PT5380</name></trkpt>
<trkpt lat="53.451375" lon="05.648098"><ele>2.5</ele><time>2021-02-17T12:29:53Z</time><name>PT5381</name></trkpt>
<trkpt lat="53.451366" lon="05.648118"><ele>2.4</ele><time>2021-02-17T12:29:54Z</time><name>PT5382</name></trkpt>
<trkpt lat="53.451357" lon="05.648130"><ele>2.3</ele><time>2021-02-17T12:29:55Z</time><name>PT5383</name></trkpt>
<trkpt lat="53.451349" lon="05.648138"><ele>1.9</ele><time>2021-02-17T12:29:56Z</time><name>PT5384</name></trkpt>
<trkpt lat="53.451342" lon="05.648136"><ele>2</ele><time>2021-02-17T12:29:57Z</time><name>PT5385</name></trkpt>
<trkpt lat="53.451337" lon="05.648136"><ele>1.9</ele><time>2021-02-17T12:29:58Z</time><name>PT5386</name></trkpt>
<trkpt lat="53.451331" lon="05.648137"><ele>2.1</ele><time>2021-02-17T12:29:59Z</time><name>PT5387</name></trkpt>
<trkpt lat="53.451323" lon="05.648137"><ele>2.3</ele><time>2021-02-17T12:30:00Z</time><name>PT5388</name></trkpt>
<trkpt lat="53.451311" lon="05.648136"><ele>2.4</ele><time>2021-02-17T12:30:01Z</time><name>PT5389</name></trkpt>
<trkpt lat="53.451298" lon="05.648137"><ele>2.5</ele><time>2021-02-17T12:30:02Z</time><name>PT5390</name></trkpt>
<trkpt lat="53.451292" lon="05.648135"><ele>2.4</ele><time>2021-02-17T12:30:03Z</time><name>PT5391</name></trkpt>
<trkpt lat="53.451288" lon="05.648130"><ele>2.3</ele><time>2021-02-17T12:30:04Z</time><name>PT5392</name></trkpt>
<trkpt lat="53.451284" lon="05.648128"><ele>2.3</ele><time>2021-02-17T12:30:05Z</time><name>PT5393</name></trkpt>
<trkpt lat="53.451281" lon="05.648128"><ele>1.9</ele><time>2021-02-17T12:30:06Z</time><name>PT5394</name></trkpt>
<trkpt lat="53.451276" lon="05.648130"><ele>2.1</ele><time>2021-02-17T12:30:07Z</time><name>PT5395</name></trkpt>
<trkpt lat="53.451271" lon="05.648127"><ele>2.1</ele><time>2021-02-17T12:30:08Z</time><name>PT5396</name></trkpt>
<trkpt lat="53.451265" lon="05.648125"><ele>2.2</ele><time>2021-02-17T12:30:09Z</time><name>PT5397</name></trkpt>
<trkpt lat="53.451261" lon="05.648123"><ele>2.4</ele><time>2021-02-17T12:30:10Z</time><name>PT5398</name></trkpt>
<trkpt lat="53.451254" lon="05.648121"><ele>2.4</ele><time>2021-02-17T12:30:11Z</time><name>PT5399</name></trkpt>
<trkpt lat="53.451248" lon="05.648117"><ele>2.4</ele><time>2021-02-17T12:30:12Z</time><name>PT5400</name></trkpt>
<trkpt lat="53.451246" lon="05.648104"><ele>2.2</ele><time>2021-02-17T12:30:13Z</time><name>PT5401</name></trkpt>
<trkpt lat="53.451249" lon="05.648088"><ele>2.2</ele><time>2021-02-17T12:30:14Z</time><name>PT5402</name></trkpt>
<trkpt lat="53.451245" lon="05.648084"><ele>2.2</ele><time>2021-02-17T12:30:15Z</time><name>PT5403</name></trkpt>
<trkpt lat="53.451242" lon="05.648081"><ele>2.3</ele><time>2021-02-17T12:30:16Z</time><name>PT5404</name></trkpt>
<trkpt lat="53.451239" lon="05.648079"><ele>2.1</ele><time>2021-02-17T12:30:17Z</time><name>PT5405</name></trkpt>
<trkpt lat="53.451236" lon="05.648083"><ele>2</ele><time>2021-02-17T12:30:18Z</time><name>PT5406</name></trkpt>
<trkpt lat="53.451235" lon="05.648087"><ele>2.1</ele><time>2021-02-17T12:30:19Z</time><name>PT5407</name></trkpt>
<trkpt lat="53.451234" lon="05.648092"><ele>2.3</ele><time>2021-02-17T12:30:20Z</time><name>PT5408</name></trkpt>
<trkpt lat="53.451233" lon="05.648097"><ele>2.3</ele><time>2021-02-17T12:30:21Z</time><name>PT5409</name></trkpt>
<trkpt lat="53.451232" lon="05.648102"><ele>2.4</ele><time>2021-02-17T12:30:22Z</time><name>PT5410</name></trkpt>
<trkpt lat="53.451232" lon="05.648104"><ele>2.4</ele><time>2021-02-17T12:30:23Z</time><name>PT5411</name></trkpt>
<trkpt lat="53.451233" lon="05.648107"><ele>2.5</ele><time>2021-02-17T12:30:24Z</time><name>PT5412</name></trkpt>
<trkpt lat="53.451234" lon="05.648110"><ele>2.5</ele><time>2021-02-17T12:30:25Z</time><name>PT5413</name></trkpt>
<trkpt lat="53.451232" lon="05.648113"><ele>2.4</ele><time>2021-02-17T12:30:26Z</time><name>PT5414</name></trkpt>
<trkpt lat="53.451226" lon="05.648123"><ele>2.4</ele><time>2021-02-17T12:30:27Z</time><name>PT5415</name></trkpt>
<trkpt lat="53.451224" lon="05.648123"><ele>2.1</ele><time>2021-02-17T12:30:28Z</time><name>PT5416</name></trkpt>
<trkpt lat="53.451223" lon="05.648118"><ele>1.9</ele><time>2021-02-17T12:30:29Z</time><name>PT5417</name></trkpt>
<trkpt lat="53.451224" lon="05.648119"><ele>1.9</ele><time>2021-02-17T12:30:30Z</time><name>PT5418</name></trkpt>
<trkpt lat="53.451223" lon="05.648123"><ele>2</ele><time>2021-02-17T12:30:34Z</time><name>PT5419</name></trkpt>
<trkpt lat="53.451229" lon="05.648137"><ele>2.1</ele><time>2021-02-17T12:30:35Z</time><name>PT5420</name></trkpt>
<trkpt lat="53.451237" lon="05.648146"><ele>2.3</ele><time>2021-02-17T12:30:36Z</time><name>PT5421</name></trkpt>
<trkpt lat="53.451248" lon="05.648160"><ele>2.3</ele><time>2021-02-17T12:30:37Z</time><name>PT5422</name></trkpt>
<trkpt lat="53.451260" lon="05.648163"><ele>2.4</ele><time>2021-02-17T12:30:38Z</time><name>PT5423</name></trkpt>
<trkpt lat="53.451269" lon="05.648174"><ele>2.4</ele><time>2021-02-17T12:30:39Z</time><name>PT5424</name></trkpt>
<trkpt lat="53.451279" lon="05.648185"><ele>2.6</ele><time>2021-02-17T12:30:40Z</time><name>PT5425</name></trkpt>
<trkpt lat="53.451284" lon="05.648197"><ele>2.6</ele><time>2021-02-17T12:30:41Z</time><name>PT5426</name></trkpt>
<trkpt lat="53.451292" lon="05.648201"><ele>2.5</ele><time>2021-02-17T12:30:42Z</time><name>PT5427</name></trkpt>
<trkpt lat="53.451300" lon="05.648207"><ele>2.4</ele><time>2021-02-17T12:30:43Z</time><name>PT5428</name></trkpt>
<trkpt lat="53.451308" lon="05.648214"><ele>2.4</ele><time>2021-02-17T12:30:44Z</time><name>PT5429</name></trkpt>
<trkpt lat="53.451317" lon="05.648218"><ele>2.4</ele><time>2021-02-17T12:30:45Z</time><name>PT5430</name></trkpt>
<trkpt lat="53.451324" lon="05.648219"><ele>2.4</ele><time>2021-02-17T12:30:46Z</time><name>PT5431</name></trkpt>
<trkpt lat="53.451329" lon="05.648221"><ele>2</ele><time>2021-02-17T12:30:47Z</time><name>PT5432</name></trkpt>
<trkpt lat="53.451331" lon="05.648223"><ele>2</ele><time>2021-02-17T12:30:48Z</time><name>PT5433</name></trkpt>
<trkpt lat="53.451331" lon="05.648223"><ele>2</ele><time>2021-02-17T12:30:49Z</time><name>PT5434</name></trkpt>
<trkpt lat="53.451332" lon="05.648224"><ele>2.1</ele><time>2021-02-17T12:30:50Z</time><name>PT5435</name></trkpt>
<trkpt lat="53.451333" lon="05.648224"><ele>2.2</ele><time>2021-02-17T12:30:51Z</time><name>PT5436</name></trkpt>
<trkpt lat="53.451333" lon="05.648225"><ele>2.3</ele><time>2021-02-17T12:30:52Z</time><name>PT5437</name></trkpt>
<trkpt lat="53.451333" lon="05.648232"><ele>2.9</ele><time>2021-02-17T12:30:59Z</time><name>PT5438</name></trkpt>
<trkpt lat="53.451344" lon="05.648231"><ele>2.9</ele><time>2021-02-17T12:31:00Z</time><name>PT5439</name></trkpt>
<trkpt lat="53.451339" lon="05.648219"><ele>2.4</ele><time>2021-02-17T12:31:01Z</time><name>PT5440</name></trkpt>
<trkpt lat="53.451341" lon="05.648218"><ele>2.4</ele><time>2021-02-17T12:31:02Z</time><name>PT5441</name></trkpt>
<trkpt lat="53.451346" lon="05.648215"><ele>2.3</ele><time>2021-02-17T12:31:03Z</time><name>PT5442</name></trkpt>
<trkpt lat="53.451349" lon="05.648217"><ele>2</ele><time>2021-02-17T12:31:04Z</time><name>PT5443</name></trkpt>
<trkpt lat="53.451356" lon="05.648211"><ele>2.2</ele><time>2021-02-17T12:31:05Z</time><name>PT5444</name></trkpt>
<trkpt lat="53.451360" lon="05.648215"><ele>2.2</ele><time>2021-02-17T12:31:06Z</time><name>PT5445</name></trkpt>
<trkpt lat="53.451368" lon="05.648222"><ele>2.2</ele><time>2021-02-17T12:31:07Z</time><name>PT5446</name></trkpt>
<trkpt lat="53.451377" lon="05.648230"><ele>2.4</ele><time>2021-02-17T12:31:08Z</time><name>PT5447</name></trkpt>
<trkpt lat="53.451385" lon="05.648239"><ele>2.4</ele><time>2021-02-17T12:31:09Z</time><name>PT5448</name></trkpt>
<trkpt lat="53.451394" lon="05.648248"><ele>2.1</ele><time>2021-02-17T12:31:10Z</time><name>PT5449</name></trkpt>
<trkpt lat="53.451405" lon="05.648254"><ele>2.1</ele><time>2021-02-17T12:31:11Z</time><name>PT5450</name></trkpt>
<trkpt lat="53.451417" lon="05.648258"><ele>2.1</ele><time>2021-02-17T12:31:12Z</time><name>PT5451</name></trkpt>
<trkpt lat="53.451429" lon="05.648262"><ele>1.9</ele><time>2021-02-17T12:31:13Z</time><name>PT5452</name></trkpt>
<trkpt lat="53.451439" lon="05.648268"><ele>1.9</ele><time>2021-02-17T12:31:14Z</time><name>PT5453</name></trkpt>
<trkpt lat="53.451444" lon="05.648284"><ele>1.9</ele><time>2021-02-17T12:31:15Z</time><name>PT5454</name></trkpt>
<trkpt lat="53.451451" lon="05.648294"><ele>1.7</ele><time>2021-02-17T12:31:16Z</time><name>PT5455</name></trkpt>
<trkpt lat="53.451459" lon="05.648304"><ele>1.7</ele><time>2021-02-17T12:31:17Z</time><name>PT5456</name></trkpt>
<trkpt lat="53.451469" lon="05.648313"><ele>1.9</ele><time>2021-02-17T12:31:18Z</time><name>PT5457</name></trkpt>
<trkpt lat="53.451478" lon="05.648319"><ele>1.8</ele><time>2021-02-17T12:31:19Z</time><name>PT5458</name></trkpt>
<trkpt lat="53.451489" lon="05.648325"><ele>1.8</ele><time>2021-02-17T12:31:20Z</time><name>PT5459</name></trkpt>
<trkpt lat="53.451499" lon="05.648331"><ele>1.7</ele><time>2021-02-17T12:31:21Z</time><name>PT5460</name></trkpt>
<trkpt lat="53.451508" lon="05.648337"><ele>1.8</ele><time>2021-02-17T12:31:22Z</time><name>PT5461</name></trkpt>
<trkpt lat="53.451520" lon="05.648339"><ele>1.9</ele><time>2021-02-17T12:31:23Z</time><name>PT5462</name></trkpt>
<trkpt lat="53.451532" lon="05.648341"><ele>2.1</ele><time>2021-02-17T12:31:24Z</time><name>PT5463</name></trkpt>
<trkpt lat="53.451542" lon="05.648345"><ele>2.2</ele><time>2021-02-17T12:31:25Z</time><name>PT5464</name></trkpt>
<trkpt lat="53.451550" lon="05.648352"><ele>2.2</ele><time>2021-02-17T12:31:26Z</time><name>PT5465</name></trkpt>
<trkpt lat="53.451559" lon="05.648359"><ele>2.1</ele><time>2021-02-17T12:31:27Z</time><name>PT5466</name></trkpt>
<trkpt lat="53.451569" lon="05.648365"><ele>1.9</ele><time>2021-02-17T12:31:28Z</time><name>PT5467</name></trkpt>
<trkpt lat="53.451577" lon="05.648370"><ele>1.8</ele><time>2021-02-17T12:31:29Z</time><name>PT5468</name></trkpt>
<trkpt lat="53.451576" lon="05.648368"><ele>1.8</ele><time>2021-02-17T12:31:30Z</time><name>PT5469</name></trkpt>
<trkpt lat="53.451578" lon="05.648368"><ele>1.8</ele><time>2021-02-17T12:31:31Z</time><name>PT5470</name></trkpt>
<trkpt lat="53.451578" lon="05.648366"><ele>1.8</ele><time>2021-02-17T12:31:32Z</time><name>PT5471</name></trkpt>
<trkpt lat="53.451583" lon="05.648370"><ele>1.9</ele><time>2021-02-17T12:31:34Z</time><name>PT5472</name></trkpt>
<trkpt lat="53.451593" lon="05.648378"><ele>1.6</ele><time>2021-02-17T12:31:35Z</time><name>PT5473</name></trkpt>
<trkpt lat="53.451602" lon="05.648385"><ele>1.7</ele><time>2021-02-17T12:31:36Z</time><name>PT5474</name></trkpt>
<trkpt lat="53.451614" lon="05.648391"><ele>1.6</ele><time>2021-02-17T12:31:37Z</time><name>PT5475</name></trkpt>
<trkpt lat="53.451626" lon="05.648397"><ele>1.9</ele><time>2021-02-17T12:31:38Z</time><name>PT5476</name></trkpt>
<trkpt lat="53.451637" lon="05.648404"><ele>2.1</ele><time>2021-02-17T12:31:39Z</time><name>PT5477</name></trkpt>
<trkpt lat="53.451649" lon="05.648409"><ele>2.2</ele><time>2021-02-17T12:31:40Z</time><name>PT5478</name></trkpt>
<trkpt lat="53.451660" lon="05.648417"><ele>2.4</ele><time>2021-02-17T12:31:41Z</time><name>PT5479</name></trkpt>
<trkpt lat="53.451669" lon="05.648425"><ele>2.4</ele><time>2021-02-17T12:31:42Z</time><name>PT5480</name></trkpt>
<trkpt lat="53.451678" lon="05.648435"><ele>2.3</ele><time>2021-02-17T12:31:43Z</time><name>PT5481</name></trkpt>
<trkpt lat="53.451686" lon="05.648443"><ele>2.2</ele><time>2021-02-17T12:31:44Z</time><name>PT5482</name></trkpt>
<trkpt lat="53.451695" lon="05.648455"><ele>2.4</ele><time>2021-02-17T12:31:45Z</time><name>PT5483</name></trkpt>
<trkpt lat="53.451706" lon="05.648463"><ele>2.1</ele><time>2021-02-17T12:31:46Z</time><name>PT5484</name></trkpt>
<trkpt lat="53.451718" lon="05.648470"><ele>2</ele><time>2021-02-17T12:31:47Z</time><name>PT5485</name></trkpt>
<trkpt lat="53.451730" lon="05.648475"><ele>2</ele><time>2021-02-17T12:31:48Z</time><name>PT5486</name></trkpt>
<trkpt lat="53.451743" lon="05.648481"><ele>1.9</ele><time>2021-02-17T12:31:49Z</time><name>PT5487</name></trkpt>
<trkpt lat="53.451752" lon="05.648489"><ele>1.9</ele><time>2021-02-17T12:31:50Z</time><name>PT5488</name></trkpt>
<trkpt lat="53.451762" lon="05.648498"><ele>1.9</ele><time>2021-02-17T12:31:51Z</time><name>PT5489</name></trkpt>
<trkpt lat="53.451772" lon="05.648505"><ele>1.9</ele><time>2021-02-17T12:31:52Z</time><name>PT5490</name></trkpt>
<trkpt lat="53.451783" lon="05.648508"><ele>2</ele><time>2021-02-17T12:31:53Z</time><name>PT5491</name></trkpt>
<trkpt lat="53.451793" lon="05.648513"><ele>2</ele><time>2021-02-17T12:31:54Z</time><name>PT5492</name></trkpt>
<trkpt lat="53.451801" lon="05.648521"><ele>2.4</ele><time>2021-02-17T12:31:55Z</time><name>PT5493</name></trkpt>
<trkpt lat="53.451809" lon="05.648532"><ele>2.4</ele><time>2021-02-17T12:31:56Z</time><name>PT5494</name></trkpt>
<trkpt lat="53.451817" lon="05.648543"><ele>2.4</ele><time>2021-02-17T12:31:57Z</time><name>PT5495</name></trkpt>
<trkpt lat="53.451825" lon="05.648554"><ele>2.4</ele><time>2021-02-17T12:31:58Z</time><name>PT5496</name></trkpt>
<trkpt lat="53.451833" lon="05.648563"><ele>2.4</ele><time>2021-02-17T12:31:59Z</time><name>PT5497</name></trkpt>
<trkpt lat="53.451839" lon="05.648574"><ele>2.4</ele><time>2021-02-17T12:32:00Z</time><name>PT5498</name></trkpt>
<trkpt lat="53.451844" lon="05.648585"><ele>2.5</ele><time>2021-02-17T12:32:01Z</time><name>PT5499</name></trkpt>
<trkpt lat="53.451851" lon="05.648591"><ele>2.8</ele><time>2021-02-17T12:32:02Z</time><name>PT5500</name></trkpt>
<trkpt lat="53.451860" lon="05.648597"><ele>2.7</ele><time>2021-02-17T12:32:03Z</time><name>PT5501</name></trkpt>
<trkpt lat="53.451869" lon="05.648605"><ele>2.8</ele><time>2021-02-17T12:32:04Z</time><name>PT5502</name></trkpt>
<trkpt lat="53.451876" lon="05.648613"><ele>2.9</ele><time>2021-02-17T12:32:05Z</time><name>PT5503</name></trkpt>
<trkpt lat="53.451883" lon="05.648619"><ele>2.9</ele><time>2021-02-17T12:32:06Z</time><name>PT5504</name></trkpt>
<trkpt lat="53.451890" lon="05.648626"><ele>3</ele><time>2021-02-17T12:32:07Z</time><name>PT5505</name></trkpt>
<trkpt lat="53.451899" lon="05.648631"><ele>3</ele><time>2021-02-17T12:32:08Z</time><name>PT5506</name></trkpt>
<trkpt lat="53.451907" lon="05.648636"><ele>3</ele><time>2021-02-17T12:32:09Z</time><name>PT5507</name></trkpt>
<trkpt lat="53.451917" lon="05.648642"><ele>2.9</ele><time>2021-02-17T12:32:10Z</time><name>PT5508</name></trkpt>
<trkpt lat="53.451928" lon="05.648644"><ele>2.8</ele><time>2021-02-17T12:32:11Z</time><name>PT5509</name></trkpt>
<trkpt lat="53.451939" lon="05.648650"><ele>2.7</ele><time>2021-02-17T12:32:12Z</time><name>PT5510</name></trkpt>
<trkpt lat="53.451951" lon="05.648658"><ele>2.6</ele><time>2021-02-17T12:32:13Z</time><name>PT5511</name></trkpt>
<trkpt lat="53.451963" lon="05.648662"><ele>2.7</ele><time>2021-02-17T12:32:14Z</time><name>PT5512</name></trkpt>
<trkpt lat="53.451973" lon="05.648670"><ele>2.8</ele><time>2021-02-17T12:32:15Z</time><name>PT5513</name></trkpt>
<trkpt lat="53.451982" lon="05.648677"><ele>2.7</ele><time>2021-02-17T12:32:16Z</time><name>PT5514</name></trkpt>
<trkpt lat="53.451992" lon="05.648682"><ele>2.7</ele><time>2021-02-17T12:32:17Z</time><name>PT5515</name></trkpt>
<trkpt lat="53.452004" lon="05.648684"><ele>2.8</ele><time>2021-02-17T12:32:18Z</time><name>PT5516</name></trkpt>
<trkpt lat="53.452013" lon="05.648689"><ele>2.8</ele><time>2021-02-17T12:32:19Z</time><name>PT5517</name></trkpt>
<trkpt lat="53.452022" lon="05.648695"><ele>2.9</ele><time>2021-02-17T12:32:20Z</time><name>PT5518</name></trkpt>
<trkpt lat="53.452031" lon="05.648700"><ele>3</ele><time>2021-02-17T12:32:21Z</time><name>PT5519</name></trkpt>
<trkpt lat="53.452042" lon="05.648705"><ele>3.1</ele><time>2021-02-17T12:32:22Z</time><name>PT5520</name></trkpt>
<trkpt lat="53.452053" lon="05.648711"><ele>3.1</ele><time>2021-02-17T12:32:23Z</time><name>PT5521</name></trkpt>
<trkpt lat="53.452064" lon="05.648720"><ele>3</ele><time>2021-02-17T12:32:24Z</time><name>PT5522</name></trkpt>
<trkpt lat="53.452071" lon="05.648730"><ele>3</ele><time>2021-02-17T12:32:25Z</time><name>PT5523</name></trkpt>
<trkpt lat="53.452079" lon="05.648739"><ele>2.9</ele><time>2021-02-17T12:32:26Z</time><name>PT5524</name></trkpt>
<trkpt lat="53.452090" lon="05.648746"><ele>2.7</ele><time>2021-02-17T12:32:27Z</time><name>PT5525</name></trkpt>
<trkpt lat="53.452100" lon="05.648753"><ele>2.6</ele><time>2021-02-17T12:32:28Z</time><name>PT5526</name></trkpt>
<trkpt lat="53.452109" lon="05.648762"><ele>2.5</ele><time>2021-02-17T12:32:29Z</time><name>PT5527</name></trkpt>
<trkpt lat="53.452119" lon="05.648769"><ele>2.5</ele><time>2021-02-17T12:32:30Z</time><name>PT5528</name></trkpt>
<trkpt lat="53.452129" lon="05.648775"><ele>2.6</ele><time>2021-02-17T12:32:31Z</time><name>PT5529</name></trkpt>
<trkpt lat="53.452140" lon="05.648783"><ele>2.4</ele><time>2021-02-17T12:32:32Z</time><name>PT5530</name></trkpt>
<trkpt lat="53.452150" lon="05.648789"><ele>2.6</ele><time>2021-02-17T12:32:33Z</time><name>PT5531</name></trkpt>
<trkpt lat="53.452161" lon="05.648793"><ele>2.7</ele><time>2021-02-17T12:32:34Z</time><name>PT5532</name></trkpt>
<trkpt lat="53.452174" lon="05.648802"><ele>2.9</ele><time>2021-02-17T12:32:35Z</time><name>PT5533</name></trkpt>
<trkpt lat="53.452185" lon="05.648810"><ele>3.1</ele><time>2021-02-17T12:32:36Z</time><name>PT5534</name></trkpt>
<trkpt lat="53.452197" lon="05.648817"><ele>3.1</ele><time>2021-02-17T12:32:37Z</time><name>PT5535</name></trkpt>
<trkpt lat="53.452208" lon="05.648823"><ele>3.3</ele><time>2021-02-17T12:32:38Z</time><name>PT5536</name></trkpt>
<trkpt lat="53.452220" lon="05.648829"><ele>3.1</ele><time>2021-02-17T12:32:39Z</time><name>PT5537</name></trkpt>
<trkpt lat="53.452231" lon="05.648833"><ele>3.1</ele><time>2021-02-17T12:32:40Z</time><name>PT5538</name></trkpt>
<trkpt lat="53.452243" lon="05.648838"><ele>3.1</ele><time>2021-02-17T12:32:41Z</time><name>PT5539</name></trkpt>
<trkpt lat="53.452256" lon="05.648846"><ele>3.2</ele><time>2021-02-17T12:32:42Z</time><name>PT5540</name></trkpt>
<trkpt lat="53.452266" lon="05.648853"><ele>3.2</ele><time>2021-02-17T12:32:43Z</time><name>PT5541</name></trkpt>
<trkpt lat="53.452276" lon="05.648859"><ele>3.3</ele><time>2021-02-17T12:32:44Z</time><name>PT5542</name></trkpt>
<trkpt lat="53.452287" lon="05.648864"><ele>3.3</ele><time>2021-02-17T12:32:45Z</time><name>PT5543</name></trkpt>
<trkpt lat="53.452298" lon="05.648871"><ele>3.4</ele><time>2021-02-17T12:32:46Z</time><name>PT5544</name></trkpt>
<trkpt lat="53.452307" lon="05.648880"><ele>3.5</ele><time>2021-02-17T12:32:47Z</time><name>PT5545</name></trkpt>
<trkpt lat="53.452320" lon="05.648884"><ele>3.7</ele><time>2021-02-17T12:32:48Z</time><name>PT5546</name></trkpt>
<trkpt lat="53.452332" lon="05.648892"><ele>3.8</ele><time>2021-02-17T12:32:49Z</time><name>PT5547</name></trkpt>
<trkpt lat="53.452344" lon="05.648900"><ele>3.9</ele><time>2021-02-17T12:32:50Z</time><name>PT5548</name></trkpt>
<trkpt lat="53.452355" lon="05.648909"><ele>4</ele><time>2021-02-17T12:32:51Z</time><name>PT5549</name></trkpt>
<trkpt lat="53.452365" lon="05.648920"><ele>4</ele><time>2021-02-17T12:32:52Z</time><name>PT5550</name></trkpt>
<trkpt lat="53.452381" lon="05.648924"><ele>4</ele><time>2021-02-17T12:32:53Z</time><name>PT5551</name></trkpt>
<trkpt lat="53.452389" lon="05.648934"><ele>3.9</ele><time>2021-02-17T12:32:54Z</time><name>PT5552</name></trkpt>
<trkpt lat="53.452398" lon="05.648942"><ele>3.6</ele><time>2021-02-17T12:32:55Z</time><name>PT5553</name></trkpt>
<trkpt lat="53.452408" lon="05.648947"><ele>3.4</ele><time>2021-02-17T12:32:56Z</time><name>PT5554</name></trkpt>
<trkpt lat="53.452420" lon="05.648953"><ele>3.2</ele><time>2021-02-17T12:32:57Z</time><name>PT5555</name></trkpt>
<trkpt lat="53.452431" lon="05.648959"><ele>3.1</ele><time>2021-02-17T12:32:58Z</time><name>PT5556</name></trkpt>
<trkpt lat="53.452442" lon="05.648964"><ele>3.2</ele><time>2021-02-17T12:32:59Z</time><name>PT5557</name></trkpt>
<trkpt lat="53.452453" lon="05.648972"><ele>3.4</ele><time>2021-02-17T12:33:00Z</time><name>PT5558</name></trkpt>
<trkpt lat="53.452464" lon="05.648980"><ele>3.4</ele><time>2021-02-17T12:33:01Z</time><name>PT5559</name></trkpt>
<trkpt lat="53.452476" lon="05.648986"><ele>3.2</ele><time>2021-02-17T12:33:02Z</time><name>PT5560</name></trkpt>
<trkpt lat="53.452487" lon="05.648992"><ele>3.1</ele><time>2021-02-17T12:33:03Z</time><name>PT5561</name></trkpt>
<trkpt lat="53.452499" lon="05.648999"><ele>2.9</ele><time>2021-02-17T12:33:04Z</time><name>PT5562</name></trkpt>
<trkpt lat="53.452508" lon="05.649007"><ele>2.8</ele><time>2021-02-17T12:33:05Z</time><name>PT5563</name></trkpt>
<trkpt lat="53.452515" lon="05.649018"><ele>2.8</ele><time>2021-02-17T12:33:06Z</time><name>PT5564</name></trkpt>
<trkpt lat="53.452523" lon="05.649031"><ele>3.1</ele><time>2021-02-17T12:33:07Z</time><name>PT5565</name></trkpt>
<trkpt lat="53.452533" lon="05.649039"><ele>3.1</ele><time>2021-02-17T12:33:08Z</time><name>PT5566</name></trkpt>
<trkpt lat="53.452544" lon="05.649046"><ele>3.1</ele><time>2021-02-17T12:33:09Z</time><name>PT5567</name></trkpt>
<trkpt lat="53.452555" lon="05.649054"><ele>2.9</ele><time>2021-02-17T12:33:10Z</time><name>PT5568</name></trkpt>
<trkpt lat="53.452564" lon="05.649065"><ele>3</ele><time>2021-02-17T12:33:11Z</time><name>PT5569</name></trkpt>
<trkpt lat="53.452573" lon="05.649071"><ele>2.9</ele><time>2021-02-17T12:33:12Z</time><name>PT5570</name></trkpt>
<trkpt lat="53.452584" lon="05.649081"><ele>2.9</ele><time>2021-02-17T12:33:13Z</time><name>PT5571</name></trkpt>
<trkpt lat="53.452593" lon="05.649088"><ele>2.9</ele><time>2021-02-17T12:33:14Z</time><name>PT5572</name></trkpt>
<trkpt lat="53.452602" lon="05.649095"><ele>2.8</ele><time>2021-02-17T12:33:15Z</time><name>PT5573</name></trkpt>
<trkpt lat="53.452613" lon="05.649100"><ele>2.8</ele><time>2021-02-17T12:33:16Z</time><name>PT5574</name></trkpt>
<trkpt lat="53.452623" lon="05.649107"><ele>3</ele><time>2021-02-17T12:33:17Z</time><name>PT5575</name></trkpt>
<trkpt lat="53.452633" lon="05.649111"><ele>3</ele><time>2021-02-17T12:33:18Z</time><name>PT5576</name></trkpt>
<trkpt lat="53.452645" lon="05.649119"><ele>2.9</ele><time>2021-02-17T12:33:19Z</time><name>PT5577</name></trkpt>
<trkpt lat="53.452654" lon="05.649128"><ele>2.9</ele><time>2021-02-17T12:33:20Z</time><name>PT5578</name></trkpt>
<trkpt lat="53.452662" lon="05.649138"><ele>2.8</ele><time>2021-02-17T12:33:21Z</time><name>PT5579</name></trkpt>
<trkpt lat="53.452670" lon="05.649142"><ele>2.8</ele><time>2021-02-17T12:33:22Z</time><name>PT5580</name></trkpt>
<trkpt lat="53.452678" lon="05.649144"><ele>2.8</ele><time>2021-02-17T12:33:23Z</time><name>PT5581</name></trkpt>
<trkpt lat="53.452686" lon="05.649148"><ele>2.8</ele><time>2021-02-17T12:33:24Z</time><name>PT5582</name></trkpt>
<trkpt lat="53.452693" lon="05.649153"><ele>2.9</ele><time>2021-02-17T12:33:25Z</time><name>PT5583</name></trkpt>
<trkpt lat="53.452700" lon="05.649158"><ele>2.9</ele><time>2021-02-17T12:33:26Z</time><name>PT5584</name></trkpt>
<trkpt lat="53.452707" lon="05.649161"><ele>2.9</ele><time>2021-02-17T12:33:27Z</time><name>PT5585</name></trkpt>
<trkpt lat="53.452714" lon="05.649164"><ele>2.9</ele><time>2021-02-17T12:33:28Z</time><name>PT5586</name></trkpt>
<trkpt lat="53.452717" lon="05.649166"><ele>2.9</ele><time>2021-02-17T12:33:29Z</time><name>PT5587</name></trkpt>
<trkpt lat="53.452719" lon="05.649168"><ele>2.9</ele><time>2021-02-17T12:33:30Z</time><name>PT5588</name></trkpt>
<trkpt lat="53.452725" lon="05.649167"><ele>2.7</ele><time>2021-02-17T12:33:31Z</time><name>PT5589</name></trkpt>
<trkpt lat="53.452725" lon="05.649169"><ele>2.8</ele><time>2021-02-17T12:33:32Z</time><name>PT5590</name></trkpt>
<trkpt lat="53.452723" lon="05.649172"><ele>2.9</ele><time>2021-02-17T12:33:33Z</time><name>PT5591</name></trkpt>
<trkpt lat="53.452724" lon="05.649171"><ele>2.4</ele><time>2021-02-17T12:34:20Z</time><name>PT5592</name></trkpt>
<trkpt lat="53.452728" lon="05.649172"><ele>2.7</ele><time>2021-02-17T12:34:21Z</time><name>PT5593</name></trkpt>
<trkpt lat="53.452732" lon="05.649169"><ele>3.1</ele><time>2021-02-17T12:34:22Z</time><name>PT5594</name></trkpt>
<trkpt lat="53.452723" lon="05.649186"><ele>3.4</ele><time>2021-02-17T12:34:23Z</time><name>PT5595</name></trkpt>
<trkpt lat="53.452720" lon="05.649190"><ele>3.5</ele><time>2021-02-17T12:34:24Z</time><name>PT5596</name></trkpt>
<trkpt lat="53.452722" lon="05.649189"><ele>3.6</ele><time>2021-02-17T12:34:25Z</time><name>PT5597</name></trkpt>
<trkpt lat="53.452723" lon="05.649189"><ele>3.5</ele><time>2021-02-17T12:34:26Z</time><name>PT5598</name></trkpt>
<trkpt lat="53.452722" lon="05.649196"><ele>4.1</ele><time>2021-02-17T12:34:45Z</time><name>PT5599</name></trkpt>
<trkpt lat="53.452734" lon="05.649200"><ele>4.1</ele><time>2021-02-17T12:34:46Z</time><name>PT5600</name></trkpt>
<trkpt lat="53.452744" lon="05.649205"><ele>4.2</ele><time>2021-02-17T12:34:47Z</time><name>PT5601</name></trkpt>
<trkpt lat="53.452755" lon="05.649208"><ele>3.8</ele><time>2021-02-17T12:34:48Z</time><name>PT5602</name></trkpt>
<trkpt lat="53.452766" lon="05.649211"><ele>3.4</ele><time>2021-02-17T12:34:49Z</time><name>PT5603</name></trkpt>
<trkpt lat="53.452776" lon="05.649215"><ele>3</ele><time>2021-02-17T12:34:50Z</time><name>PT5604</name></trkpt>
<trkpt lat="53.452787" lon="05.649218"><ele>2.9</ele><time>2021-02-17T12:34:51Z</time><name>PT5605</name></trkpt>
<trkpt lat="53.452801" lon="05.649215"><ele>2.9</ele><time>2021-02-17T12:34:52Z</time><name>PT5606</name></trkpt>
<trkpt lat="53.452812" lon="05.649214"><ele>2.9</ele><time>2021-02-17T12:34:53Z</time><name>PT5607</name></trkpt>
<trkpt lat="53.452823" lon="05.649216"><ele>2.8</ele><time>2021-02-17T12:34:54Z</time><name>PT5608</name></trkpt>
<trkpt lat="53.452833" lon="05.649220"><ele>2.9</ele><time>2021-02-17T12:34:55Z</time><name>PT5609</name></trkpt>
<trkpt lat="53.452844" lon="05.649222"><ele>2.9</ele><time>2021-02-17T12:34:56Z</time><name>PT5610</name></trkpt>
<trkpt lat="53.452854" lon="05.649225"><ele>2.9</ele><time>2021-02-17T12:34:57Z</time><name>PT5611</name></trkpt>
<trkpt lat="53.452865" lon="05.649227"><ele>2.9</ele><time>2021-02-17T12:34:58Z</time><name>PT5612</name></trkpt>
<trkpt lat="53.452876" lon="05.649229"><ele>3.1</ele><time>2021-02-17T12:34:59Z</time><name>PT5613</name></trkpt>
<trkpt lat="53.452889" lon="05.649233"><ele>2.9</ele><time>2021-02-17T12:35:00Z</time><name>PT5614</name></trkpt>
<trkpt lat="53.452900" lon="05.649238"><ele>2.9</ele><time>2021-02-17T12:35:01Z</time><name>PT5615</name></trkpt>
<trkpt lat="53.452912" lon="05.649241"><ele>3</ele><time>2021-02-17T12:35:02Z</time><name>PT5616</name></trkpt>
<trkpt lat="53.452924" lon="05.649245"><ele>3</ele><time>2021-02-17T12:35:03Z</time><name>PT5617</name></trkpt>
<trkpt lat="53.452934" lon="05.649250"><ele>3</ele><time>2021-02-17T12:35:04Z</time><name>PT5618</name></trkpt>
<trkpt lat="53.452944" lon="05.649254"><ele>2.9</ele><time>2021-02-17T12:35:05Z</time><name>PT5619</name></trkpt>
<trkpt lat="53.452952" lon="05.649260"><ele>2.9</ele><time>2021-02-17T12:35:06Z</time><name>PT5620</name></trkpt>
<trkpt lat="53.452962" lon="05.649262"><ele>2.8</ele><time>2021-02-17T12:35:07Z</time><name>PT5621</name></trkpt>
<trkpt lat="53.452972" lon="05.649265"><ele>2.8</ele><time>2021-02-17T12:35:08Z</time><name>PT5622</name></trkpt>
<trkpt lat="53.452984" lon="05.649268"><ele>2.9</ele><time>2021-02-17T12:35:09Z</time><name>PT5623</name></trkpt>
<trkpt lat="53.452991" lon="05.649277"><ele>2.8</ele><time>2021-02-17T12:35:10Z</time><name>PT5624</name></trkpt>
<trkpt lat="53.452999" lon="05.649286"><ele>2.9</ele><time>2021-02-17T12:35:11Z</time><name>PT5625</name></trkpt>
<trkpt lat="53.453010" lon="05.649294"><ele>2.9</ele><time>2021-02-17T12:35:12Z</time><name>PT5626</name></trkpt>
<trkpt lat="53.453020" lon="05.649299"><ele>2.9</ele><time>2021-02-17T12:35:13Z</time><name>PT5627</name></trkpt>
<trkpt lat="53.453032" lon="05.649304"><ele>2.9</ele><time>2021-02-17T12:35:14Z</time><name>PT5628</name></trkpt>
<trkpt lat="53.453041" lon="05.649309"><ele>2.9</ele><time>2021-02-17T12:35:15Z</time><name>PT5629</name></trkpt>
<trkpt lat="53.453053" lon="05.649314"><ele>2.9</ele><time>2021-02-17T12:35:16Z</time><name>PT5630</name></trkpt>
<trkpt lat="53.453062" lon="05.649321"><ele>2.9</ele><time>2021-02-17T12:35:17Z</time><name>PT5631</name></trkpt>
<trkpt lat="53.453069" lon="05.649328"><ele>2.9</ele><time>2021-02-17T12:35:18Z</time><name>PT5632</name></trkpt>
<trkpt lat="53.453081" lon="05.649334"><ele>3.2</ele><time>2021-02-17T12:35:19Z</time><name>PT5633</name></trkpt>
<trkpt lat="53.453092" lon="05.649345"><ele>3.3</ele><time>2021-02-17T12:35:20Z</time><name>PT5634</name></trkpt>
<trkpt lat="53.453100" lon="05.649357"><ele>3.2</ele><time>2021-02-17T12:35:21Z</time><name>PT5635</name></trkpt>
<trkpt lat="53.453107" lon="05.649370"><ele>3.2</ele><time>2021-02-17T12:35:22Z</time><name>PT5636</name></trkpt>
<trkpt lat="53.453116" lon="05.649384"><ele>3</ele><time>2021-02-17T12:35:23Z</time><name>PT5637</name></trkpt>
<trkpt lat="53.453127" lon="05.649393"><ele>3</ele><time>2021-02-17T12:35:24Z</time><name>PT5638</name></trkpt>
<trkpt lat="53.453139" lon="05.649402"><ele>3.2</ele><time>2021-02-17T12:35:25Z</time><name>PT5639</name></trkpt>
<trkpt lat="53.453150" lon="05.649411"><ele>3</ele><time>2021-02-17T12:35:26Z</time><name>PT5640</name></trkpt>
<trkpt lat="53.453159" lon="05.649422"><ele>2.9</ele><time>2021-02-17T12:35:27Z</time><name>PT5641</name></trkpt>
<trkpt lat="53.453169" lon="05.649434"><ele>2.9</ele><time>2021-02-17T12:35:28Z</time><name>PT5642</name></trkpt>
<trkpt lat="53.453178" lon="05.649446"><ele>2.7</ele><time>2021-02-17T12:35:29Z</time><name>PT5643</name></trkpt>
<trkpt lat="53.453188" lon="05.649459"><ele>2.7</ele><time>2021-02-17T12:35:30Z</time><name>PT5644</name></trkpt>
<trkpt lat="53.453195" lon="05.649471"><ele>2.7</ele><time>2021-02-17T12:35:31Z</time><name>PT5645</name></trkpt>
<trkpt lat="53.453200" lon="05.649486"><ele>2.6</ele><time>2021-02-17T12:35:32Z</time><name>PT5646</name></trkpt>
<trkpt lat="53.453205" lon="05.649500"><ele>2.5</ele><time>2021-02-17T12:35:33Z</time><name>PT5647</name></trkpt>
<trkpt lat="53.453211" lon="05.649514"><ele>2.7</ele><time>2021-02-17T12:35:34Z</time><name>PT5648</name></trkpt>
<trkpt lat="53.453220" lon="05.649529"><ele>2.7</ele><time>2021-02-17T12:35:35Z</time><name>PT5649</name></trkpt>
<trkpt lat="53.453226" lon="05.649544"><ele>2.6</ele><time>2021-02-17T12:35:36Z</time><name>PT5650</name></trkpt>
<trkpt lat="53.453232" lon="05.649561"><ele>2.8</ele><time>2021-02-17T12:35:37Z</time><name>PT5651</name></trkpt>
<trkpt lat="53.453238" lon="05.649575"><ele>2.9</ele><time>2021-02-17T12:35:38Z</time><name>PT5652</name></trkpt>
<trkpt lat="53.453244" lon="05.649590"><ele>3</ele><time>2021-02-17T12:35:39Z</time><name>PT5653</name></trkpt>
<trkpt lat="53.453253" lon="05.649605"><ele>3.2</ele><time>2021-02-17T12:35:40Z</time><name>PT5654</name></trkpt>
<trkpt lat="53.453260" lon="05.649618"><ele>3.2</ele><time>2021-02-17T12:35:41Z</time><name>PT5655</name></trkpt>
<trkpt lat="53.453268" lon="05.649634"><ele>3.1</ele><time>2021-02-17T12:35:42Z</time><name>PT5656</name></trkpt>
<trkpt lat="53.453275" lon="05.649650"><ele>3.1</ele><time>2021-02-17T12:35:43Z</time><name>PT5657</name></trkpt>
<trkpt lat="53.453284" lon="05.649663"><ele>2.9</ele><time>2021-02-17T12:35:44Z</time><name>PT5658</name></trkpt>
<trkpt lat="53.453296" lon="05.649674"><ele>3</ele><time>2021-02-17T12:35:45Z</time><name>PT5659</name></trkpt>
<trkpt lat="53.453307" lon="05.649685"><ele>3</ele><time>2021-02-17T12:35:46Z</time><name>PT5660</name></trkpt>
<trkpt lat="53.453314" lon="05.649697"><ele>2.9</ele><time>2021-02-17T12:35:47Z</time><name>PT5661</name></trkpt>
<trkpt lat="53.453323" lon="05.649709"><ele>3.2</ele><time>2021-02-17T12:35:48Z</time><name>PT5662</name></trkpt>
<trkpt lat="53.453330" lon="05.649722"><ele>2.9</ele><time>2021-02-17T12:35:49Z</time><name>PT5663</name></trkpt>
<trkpt lat="53.453341" lon="05.649737"><ele>2.9</ele><time>2021-02-17T12:35:50Z</time><name>PT5664</name></trkpt>
<trkpt lat="53.453349" lon="05.649750"><ele>3</ele><time>2021-02-17T12:35:51Z</time><name>PT5665</name></trkpt>
<trkpt lat="53.453358" lon="05.649763"><ele>2.9</ele><time>2021-02-17T12:35:52Z</time><name>PT5666</name></trkpt>
<trkpt lat="53.453367" lon="05.649779"><ele>3.1</ele><time>2021-02-17T12:35:53Z</time><name>PT5667</name></trkpt>
<trkpt lat="53.453375" lon="05.649796"><ele>3.3</ele><time>2021-02-17T12:35:54Z</time><name>PT5668</name></trkpt>
<trkpt lat="53.453383" lon="05.649813"><ele>3.1</ele><time>2021-02-17T12:35:55Z</time><name>PT5669</name></trkpt>
<trkpt lat="53.453390" lon="05.649827"><ele>3.1</ele><time>2021-02-17T12:35:56Z</time><name>PT5670</name></trkpt>
<trkpt lat="53.453396" lon="05.649840"><ele>3</ele><time>2021-02-17T12:35:57Z</time><name>PT5671</name></trkpt>
<trkpt lat="53.453404" lon="05.649853"><ele>2.9</ele><time>2021-02-17T12:35:58Z</time><name>PT5672</name></trkpt>
<trkpt lat="53.453411" lon="05.649867"><ele>3</ele><time>2021-02-17T12:35:59Z</time><name>PT5673</name></trkpt>
<trkpt lat="53.453417" lon="05.649882"><ele>3.1</ele><time>2021-02-17T12:36:00Z</time><name>PT5674</name></trkpt>
<trkpt lat="53.453425" lon="05.649896"><ele>3.2</ele><time>2021-02-17T12:36:01Z</time><name>PT5675</name></trkpt>
<trkpt lat="53.453433" lon="05.649909"><ele>3.4</ele><time>2021-02-17T12:36:02Z</time><name>PT5676</name></trkpt>
<trkpt lat="53.453441" lon="05.649924"><ele>3.4</ele><time>2021-02-17T12:36:03Z</time><name>PT5677</name></trkpt>
<trkpt lat="53.453444" lon="05.649940"><ele>3.6</ele><time>2021-02-17T12:36:04Z</time><name>PT5678</name></trkpt>
<trkpt lat="53.453452" lon="05.649953"><ele>3.5</ele><time>2021-02-17T12:36:05Z</time><name>PT5679</name></trkpt>
<trkpt lat="53.453458" lon="05.649968"><ele>3.4</ele><time>2021-02-17T12:36:06Z</time><name>PT5680</name></trkpt>
<trkpt lat="53.453465" lon="05.649982"><ele>3.4</ele><time>2021-02-17T12:36:07Z</time><name>PT5681</name></trkpt>
<trkpt lat="53.453474" lon="05.649997"><ele>3.3</ele><time>2021-02-17T12:36:08Z</time><name>PT5682</name></trkpt>
<trkpt lat="53.453480" lon="05.650011"><ele>3.3</ele><time>2021-02-17T12:36:09Z</time><name>PT5683</name></trkpt>
<trkpt lat="53.453488" lon="05.650024"><ele>3.1</ele><time>2021-02-17T12:36:10Z</time><name>PT5684</name></trkpt>
<trkpt lat="53.453495" lon="05.650040"><ele>3.2</ele><time>2021-02-17T12:36:11Z</time><name>PT5685</name></trkpt>
<trkpt lat="53.453500" lon="05.650052"><ele>3.3</ele><time>2021-02-17T12:36:12Z</time><name>PT5686</name></trkpt>
<trkpt lat="53.453509" lon="05.650063"><ele>3.4</ele><time>2021-02-17T12:36:13Z</time><name>PT5687</name></trkpt>
<trkpt lat="53.453520" lon="05.650078"><ele>3.6</ele><time>2021-02-17T12:36:14Z</time><name>PT5688</name></trkpt>
<trkpt lat="53.453525" lon="05.650091"><ele>3.6</ele><time>2021-02-17T12:36:15Z</time><name>PT5689</name></trkpt>
<trkpt lat="53.453531" lon="05.650106"><ele>3.9</ele><time>2021-02-17T12:36:16Z</time><name>PT5690</name></trkpt>
<trkpt lat="53.453536" lon="05.650121"><ele>3.9</ele><time>2021-02-17T12:36:17Z</time><name>PT5691</name></trkpt>
<trkpt lat="53.453546" lon="05.650135"><ele>3.9</ele><time>2021-02-17T12:36:18Z</time><name>PT5692</name></trkpt>
<trkpt lat="53.453551" lon="05.650148"><ele>4</ele><time>2021-02-17T12:36:19Z</time><name>PT5693</name></trkpt>
<trkpt lat="53.453555" lon="05.650161"><ele>4.1</ele><time>2021-02-17T12:36:20Z</time><name>PT5694</name></trkpt>
<trkpt lat="53.453561" lon="05.650174"><ele>4</ele><time>2021-02-17T12:36:21Z</time><name>PT5695</name></trkpt>
<trkpt lat="53.453569" lon="05.650186"><ele>4</ele><time>2021-02-17T12:36:22Z</time><name>PT5696</name></trkpt>
<trkpt lat="53.453577" lon="05.650200"><ele>4.1</ele><time>2021-02-17T12:36:23Z</time><name>PT5697</name></trkpt>
<trkpt lat="53.453586" lon="05.650216"><ele>4.1</ele><time>2021-02-17T12:36:24Z</time><name>PT5698</name></trkpt>
<trkpt lat="53.453591" lon="05.650233"><ele>4.1</ele><time>2021-02-17T12:36:25Z</time><name>PT5699</name></trkpt>
<trkpt lat="53.453597" lon="05.650248"><ele>4.1</ele><time>2021-02-17T12:36:26Z</time><name>PT5700</name></trkpt>
<trkpt lat="53.453605" lon="05.650262"><ele>4.2</ele><time>2021-02-17T12:36:27Z</time><name>PT5701</name></trkpt>
<trkpt lat="53.453615" lon="05.650276"><ele>4.1</ele><time>2021-02-17T12:36:28Z</time><name>PT5702</name></trkpt>
<trkpt lat="53.453622" lon="05.650290"><ele>4</ele><time>2021-02-17T12:36:29Z</time><name>PT5703</name></trkpt>
<trkpt lat="53.453629" lon="05.650306"><ele>3.9</ele><time>2021-02-17T12:36:30Z</time><name>PT5704</name></trkpt>
<trkpt lat="53.453637" lon="05.650320"><ele>3.8</ele><time>2021-02-17T12:36:31Z</time><name>PT5705</name></trkpt>
<trkpt lat="53.453647" lon="05.650333"><ele>3.8</ele><time>2021-02-17T12:36:32Z</time><name>PT5706</name></trkpt>
<trkpt lat="53.453655" lon="05.650346"><ele>3.9</ele><time>2021-02-17T12:36:33Z</time><name>PT5707</name></trkpt>
<trkpt lat="53.453662" lon="05.650359"><ele>3.8</ele><time>2021-02-17T12:36:34Z</time><name>PT5708</name></trkpt>
<trkpt lat="53.453665" lon="05.650376"><ele>3.8</ele><time>2021-02-17T12:36:35Z</time><name>PT5709</name></trkpt>
<trkpt lat="53.453670" lon="05.650391"><ele>3.8</ele><time>2021-02-17T12:36:36Z</time><name>PT5710</name></trkpt>
<trkpt lat="53.453675" lon="05.650405"><ele>3.6</ele><time>2021-02-17T12:36:37Z</time><name>PT5711</name></trkpt>
<trkpt lat="53.453679" lon="05.650420"><ele>3.7</ele><time>2021-02-17T12:36:38Z</time><name>PT5712</name></trkpt>
<trkpt lat="53.453683" lon="05.650431"><ele>3.7</ele><time>2021-02-17T12:36:39Z</time><name>PT5713</name></trkpt>
<trkpt lat="53.453688" lon="05.650444"><ele>3.6</ele><time>2021-02-17T12:36:40Z</time><name>PT5714</name></trkpt>
<trkpt lat="53.453691" lon="05.650455"><ele>3.6</ele><time>2021-02-17T12:36:41Z</time><name>PT5715</name></trkpt>
<trkpt lat="53.453692" lon="05.650469"><ele>3.7</ele><time>2021-02-17T12:36:42Z</time><name>PT5716</name></trkpt>
<trkpt lat="53.453693" lon="05.650483"><ele>3.7</ele><time>2021-02-17T12:36:43Z</time><name>PT5717</name></trkpt>
<trkpt lat="53.453699" lon="05.650494"><ele>3.8</ele><time>2021-02-17T12:36:44Z</time><name>PT5718</name></trkpt>
<trkpt lat="53.453703" lon="05.650506"><ele>3.9</ele><time>2021-02-17T12:36:45Z</time><name>PT5719</name></trkpt>
<trkpt lat="53.453707" lon="05.650520"><ele>4</ele><time>2021-02-17T12:36:46Z</time><name>PT5720</name></trkpt>
<trkpt lat="53.453714" lon="05.650533"><ele>3.9</ele><time>2021-02-17T12:36:47Z</time><name>PT5721</name></trkpt>
<trkpt lat="53.453723" lon="05.650546"><ele>3.9</ele><time>2021-02-17T12:36:48Z</time><name>PT5722</name></trkpt>
<trkpt lat="53.453732" lon="05.650559"><ele>3.8</ele><time>2021-02-17T12:36:49Z</time><name>PT5723</name></trkpt>
<trkpt lat="53.453739" lon="05.650572"><ele>3.9</ele><time>2021-02-17T12:36:50Z</time><name>PT5724</name></trkpt>
<trkpt lat="53.453746" lon="05.650583"><ele>3.8</ele><time>2021-02-17T12:36:51Z</time><name>PT5725</name></trkpt>
<trkpt lat="53.453754" lon="05.650597"><ele>4.1</ele><time>2021-02-17T12:36:52Z</time><name>PT5726</name></trkpt>
<trkpt lat="53.453762" lon="05.650609"><ele>4.1</ele><time>2021-02-17T12:36:53Z</time><name>PT5727</name></trkpt>
<trkpt lat="53.453770" lon="05.650619"><ele>4.1</ele><time>2021-02-17T12:36:54Z</time><name>PT5728</name></trkpt>
<trkpt lat="53.453775" lon="05.650629"><ele>4.2</ele><time>2021-02-17T12:36:55Z</time><name>PT5729</name></trkpt>
<trkpt lat="53.453782" lon="05.650637"><ele>4.2</ele><time>2021-02-17T12:36:56Z</time><name>PT5730</name></trkpt>
<trkpt lat="53.453788" lon="05.650649"><ele>4.2</ele><time>2021-02-17T12:36:57Z</time><name>PT5731</name></trkpt>
<trkpt lat="53.453794" lon="05.650660"><ele>4.4</ele><time>2021-02-17T12:36:58Z</time><name>PT5732</name></trkpt>
<trkpt lat="53.453801" lon="05.650667"><ele>4.5</ele><time>2021-02-17T12:36:59Z</time><name>PT5733</name></trkpt>
<trkpt lat="53.453810" lon="05.650678"><ele>4.5</ele><time>2021-02-17T12:37:00Z</time><name>PT5734</name></trkpt>
<trkpt lat="53.453820" lon="05.650690"><ele>4.4</ele><time>2021-02-17T12:37:01Z</time><name>PT5735</name></trkpt>
<trkpt lat="53.453827" lon="05.650703"><ele>4.4</ele><time>2021-02-17T12:37:02Z</time><name>PT5736</name></trkpt>
<trkpt lat="53.453834" lon="05.650714"><ele>4.1</ele><time>2021-02-17T12:37:03Z</time><name>PT5737</name></trkpt>
<trkpt lat="53.453843" lon="05.650727"><ele>3.8</ele><time>2021-02-17T12:37:04Z</time><name>PT5738</name></trkpt>
<trkpt lat="53.453853" lon="05.650739"><ele>3.6</ele><time>2021-02-17T12:37:05Z</time><name>PT5739</name></trkpt>
<trkpt lat="53.453863" lon="05.650752"><ele>3.6</ele><time>2021-02-17T12:37:06Z</time><name>PT5740</name></trkpt>
<trkpt lat="53.453873" lon="05.650764"><ele>3.6</ele><time>2021-02-17T12:37:07Z</time><name>PT5741</name></trkpt>
<trkpt lat="53.453881" lon="05.650771"><ele>3.5</ele><time>2021-02-17T12:37:08Z</time><name>PT5742</name></trkpt>
<trkpt lat="53.453889" lon="05.650774"><ele>3.5</ele><time>2021-02-17T12:37:09Z</time><name>PT5743</name></trkpt>
<trkpt lat="53.453894" lon="05.650778"><ele>3.4</ele><time>2021-02-17T12:37:10Z</time><name>PT5744</name></trkpt>
<trkpt lat="53.453900" lon="05.650787"><ele>3.5</ele><time>2021-02-17T12:37:11Z</time><name>PT5745</name></trkpt>
<trkpt lat="53.453905" lon="05.650792"><ele>3.7</ele><time>2021-02-17T12:37:12Z</time><name>PT5746</name></trkpt>
<trkpt lat="53.453909" lon="05.650798"><ele>3.7</ele><time>2021-02-17T12:37:13Z</time><name>PT5747</name></trkpt>
<trkpt lat="53.453913" lon="05.650805"><ele>3.9</ele><time>2021-02-17T12:37:14Z</time><name>PT5748</name></trkpt>
<trkpt lat="53.453918" lon="05.650812"><ele>3.8</ele><time>2021-02-17T12:37:15Z</time><name>PT5749</name></trkpt>
<trkpt lat="53.453925" lon="05.650818"><ele>3.5</ele><time>2021-02-17T12:37:16Z</time><name>PT5750</name></trkpt>
<trkpt lat="53.453931" lon="05.650825"><ele>3.3</ele><time>2021-02-17T12:37:17Z</time><name>PT5751</name></trkpt>
<trkpt lat="53.453937" lon="05.650835"><ele>3.2</ele><time>2021-02-17T12:37:18Z</time><name>PT5752</name></trkpt>
<trkpt lat="53.453943" lon="05.650843"><ele>3.2</ele><time>2021-02-17T12:37:19Z</time><name>PT5753</name></trkpt>
<trkpt lat="53.453948" lon="05.650853"><ele>3.3</ele><time>2021-02-17T12:37:20Z</time><name>PT5754</name></trkpt>
<trkpt lat="53.453954" lon="05.650863"><ele>3.4</ele><time>2021-02-17T12:37:21Z</time><name>PT5755</name></trkpt>
<trkpt lat="53.453961" lon="05.650874"><ele>3.5</ele><time>2021-02-17T12:37:22Z</time><name>PT5756</name></trkpt>
<trkpt lat="53.453967" lon="05.650886"><ele>3.5</ele><time>2021-02-17T12:37:23Z</time><name>PT5757</name></trkpt>
<trkpt lat="53.453975" lon="05.650897"><ele>3.5</ele><time>2021-02-17T12:37:24Z</time><name>PT5758</name></trkpt>
<trkpt lat="53.453985" lon="05.650905"><ele>3.2</ele><time>2021-02-17T12:37:25Z</time><name>PT5759</name></trkpt>
<trkpt lat="53.453994" lon="05.650915"><ele>3.1</ele><time>2021-02-17T12:37:26Z</time><name>PT5760</name></trkpt>
<trkpt lat="53.454003" lon="05.650924"><ele>3.1</ele><time>2021-02-17T12:37:27Z</time><name>PT5761</name></trkpt>
<trkpt lat="53.454011" lon="05.650936"><ele>3</ele><time>2021-02-17T12:37:28Z</time><name>PT5762</name></trkpt>
<trkpt lat="53.454021" lon="05.650943"><ele>3.1</ele><time>2021-02-17T12:37:29Z</time><name>PT5763</name></trkpt>
<trkpt lat="53.454029" lon="05.650951"><ele>3.2</ele><time>2021-02-17T12:37:30Z</time><name>PT5764</name></trkpt>
<trkpt lat="53.454038" lon="05.650960"><ele>3.4</ele><time>2021-02-17T12:37:31Z</time><name>PT5765</name></trkpt>
<trkpt lat="53.454047" lon="05.650968"><ele>3.2</ele><time>2021-02-17T12:37:32Z</time><name>PT5766</name></trkpt>
<trkpt lat="53.454054" lon="05.650978"><ele>3.2</ele><time>2021-02-17T12:37:33Z</time><name>PT5767</name></trkpt>
<trkpt lat="53.454061" lon="05.650983"><ele>3</ele><time>2021-02-17T12:37:34Z</time><name>PT5768</name></trkpt>
<trkpt lat="53.454067" lon="05.650988"><ele>2.9</ele><time>2021-02-17T12:37:35Z</time><name>PT5769</name></trkpt>
<trkpt lat="53.454073" lon="05.650990"><ele>3</ele><time>2021-02-17T12:37:36Z</time><name>PT5770</name></trkpt>
<trkpt lat="53.454078" lon="05.650992"><ele>3.2</ele><time>2021-02-17T12:37:37Z</time><name>PT5771</name></trkpt>
<trkpt lat="53.454086" lon="05.650992"><ele>3.4</ele><time>2021-02-17T12:37:38Z</time><name>PT5772</name></trkpt>
<trkpt lat="53.454091" lon="05.651000"><ele>3.4</ele><time>2021-02-17T12:37:39Z</time><name>PT5773</name></trkpt>
<trkpt lat="53.454099" lon="05.651005"><ele>3.4</ele><time>2021-02-17T12:37:40Z</time><name>PT5774</name></trkpt>
<trkpt lat="53.454108" lon="05.651006"><ele>3.3</ele><time>2021-02-17T12:37:41Z</time><name>PT5775</name></trkpt>
<trkpt lat="53.454115" lon="05.651009"><ele>3.4</ele><time>2021-02-17T12:37:42Z</time><name>PT5776</name></trkpt>
<trkpt lat="53.454123" lon="05.651013"><ele>3.6</ele><time>2021-02-17T12:37:43Z</time><name>PT5777</name></trkpt>
<trkpt lat="53.454133" lon="05.651020"><ele>3.6</ele><time>2021-02-17T12:37:44Z</time><name>PT5778</name></trkpt>
<trkpt lat="53.454145" lon="05.651025"><ele>3.7</ele><time>2021-02-17T12:37:45Z</time><name>PT5779</name></trkpt>
<trkpt lat="53.454156" lon="05.651032"><ele>3.8</ele><time>2021-02-17T12:37:46Z</time><name>PT5780</name></trkpt>
<trkpt lat="53.454168" lon="05.651042"><ele>3.7</ele><time>2021-02-17T12:37:47Z</time><name>PT5781</name></trkpt>
<trkpt lat="53.454182" lon="05.651052"><ele>3.7</ele><time>2021-02-17T12:37:48Z</time><name>PT5782</name></trkpt>
<trkpt lat="53.454195" lon="05.651061"><ele>3.5</ele><time>2021-02-17T12:37:49Z</time><name>PT5783</name></trkpt>
<trkpt lat="53.454204" lon="05.651071"><ele>3.4</ele><time>2021-02-17T12:37:50Z</time><name>PT5784</name></trkpt>
<trkpt lat="53.454216" lon="05.651081"><ele>3.4</ele><time>2021-02-17T12:37:51Z</time><name>PT5785</name></trkpt>
<trkpt lat="53.454222" lon="05.651092"><ele>3.4</ele><time>2021-02-17T12:37:52Z</time><name>PT5786</name></trkpt>
<trkpt lat="53.454231" lon="05.651104"><ele>3.7</ele><time>2021-02-17T12:37:53Z</time><name>PT5787</name></trkpt>
<trkpt lat="53.454239" lon="05.651117"><ele>3.7</ele><time>2021-02-17T12:37:54Z</time><name>PT5788</name></trkpt>
<trkpt lat="53.454248" lon="05.651128"><ele>3.9</ele><time>2021-02-17T12:37:55Z</time><name>PT5789</name></trkpt>
<trkpt lat="53.454259" lon="05.651134"><ele>4</ele><time>2021-02-17T12:37:56Z</time><name>PT5790</name></trkpt>
<trkpt lat="53.454270" lon="05.651139"><ele>4.1</ele><time>2021-02-17T12:37:57Z</time><name>PT5791</name></trkpt>
<trkpt lat="53.454281" lon="05.651146"><ele>4.1</ele><time>2021-02-17T12:37:58Z</time><name>PT5792</name></trkpt>
<trkpt lat="53.454291" lon="05.651153"><ele>4</ele><time>2021-02-17T12:37:59Z</time><name>PT5793</name></trkpt>
<trkpt lat="53.454303" lon="05.651157"><ele>3.8</ele><time>2021-02-17T12:38:00Z</time><name>PT5794</name></trkpt>
<trkpt lat="53.454314" lon="05.651160"><ele>3.8</ele><time>2021-02-17T12:38:01Z</time><name>PT5795</name></trkpt>
<trkpt lat="53.454326" lon="05.651163"><ele>3.8</ele><time>2021-02-17T12:38:02Z</time><name>PT5796</name></trkpt>
<trkpt lat="53.454338" lon="05.651169"><ele>3.5</ele><time>2021-02-17T12:38:03Z</time><name>PT5797</name></trkpt>
<trkpt lat="53.454348" lon="05.651177"><ele>3.5</ele><time>2021-02-17T12:38:04Z</time><name>PT5798</name></trkpt>
<trkpt lat="53.454360" lon="05.651180"><ele>3.4</ele><time>2021-02-17T12:38:05Z</time><name>PT5799</name></trkpt>
<trkpt lat="53.454373" lon="05.651179"><ele>3.4</ele><time>2021-02-17T12:38:06Z</time><name>PT5800</name></trkpt>
<trkpt lat="53.454386" lon="05.651178"><ele>3.4</ele><time>2021-02-17T12:38:07Z</time><name>PT5801</name></trkpt>
<trkpt lat="53.454395" lon="05.651175"><ele>3.7</ele><time>2021-02-17T12:38:08Z</time><name>PT5802</name></trkpt>
<trkpt lat="53.454405" lon="05.651172"><ele>3.6</ele><time>2021-02-17T12:38:09Z</time><name>PT5803</name></trkpt>
<trkpt lat="53.454414" lon="05.651168"><ele>3.4</ele><time>2021-02-17T12:38:10Z</time><name>PT5804</name></trkpt>
<trkpt lat="53.454424" lon="05.651166"><ele>3.5</ele><time>2021-02-17T12:38:11Z</time><name>PT5805</name></trkpt>
<trkpt lat="53.454433" lon="05.651164"><ele>3.4</ele><time>2021-02-17T12:38:12Z</time><name>PT5806</name></trkpt>
<trkpt lat="53.454444" lon="05.651161"><ele>3.3</ele><time>2021-02-17T12:38:13Z</time><name>PT5807</name></trkpt>
<trkpt lat="53.454457" lon="05.651155"><ele>3.4</ele><time>2021-02-17T12:38:14Z</time><name>PT5808</name></trkpt>
<trkpt lat="53.454469" lon="05.651152"><ele>3.7</ele><time>2021-02-17T12:38:15Z</time><name>PT5809</name></trkpt>
<trkpt lat="53.454480" lon="05.651152"><ele>3.8</ele><time>2021-02-17T12:38:16Z</time><name>PT5810</name></trkpt>
<trkpt lat="53.454491" lon="05.651153"><ele>4.1</ele><time>2021-02-17T12:38:17Z</time><name>PT5811</name></trkpt>
<trkpt lat="53.454504" lon="05.651153"><ele>4.4</ele><time>2021-02-17T12:38:18Z</time><name>PT5812</name></trkpt>
<trkpt lat="53.454520" lon="05.651151"><ele>4.4</ele><time>2021-02-17T12:38:19Z</time><name>PT5813</name></trkpt>
<trkpt lat="53.454532" lon="05.651149"><ele>4.5</ele><time>2021-02-17T12:38:20Z</time><name>PT5814</name></trkpt>
<trkpt lat="53.454544" lon="05.651147"><ele>4.4</ele><time>2021-02-17T12:38:21Z</time><name>PT5815</name></trkpt>
<trkpt lat="53.454554" lon="05.651145"><ele>4.3</ele><time>2021-02-17T12:38:22Z</time><name>PT5816</name></trkpt>
<trkpt lat="53.454565" lon="05.651146"><ele>4.2</ele><time>2021-02-17T12:38:23Z</time><name>PT5817</name></trkpt>
<trkpt lat="53.454576" lon="05.651146"><ele>4</ele><time>2021-02-17T12:38:24Z</time><name>PT5818</name></trkpt>
<trkpt lat="53.454586" lon="05.651146"><ele>3.9</ele><time>2021-02-17T12:38:25Z</time><name>PT5819</name></trkpt>
<trkpt lat="53.454595" lon="05.651147"><ele>3.7</ele><time>2021-02-17T12:38:26Z</time><name>PT5820</name></trkpt>
<trkpt lat="53.454605" lon="05.651147"><ele>3.7</ele><time>2021-02-17T12:38:27Z</time><name>PT5821</name></trkpt>
<trkpt lat="53.454614" lon="05.651148"><ele>3.3</ele><time>2021-02-17T12:38:28Z</time><name>PT5822</name></trkpt>
<trkpt lat="53.454623" lon="05.651149"><ele>3.5</ele><time>2021-02-17T12:38:29Z</time><name>PT5823</name></trkpt>
<trkpt lat="53.454630" lon="05.651147"><ele>3.5</ele><time>2021-02-17T12:38:30Z</time><name>PT5824</name></trkpt>
<trkpt lat="53.454639" lon="05.651144"><ele>3.4</ele><time>2021-02-17T12:38:31Z</time><name>PT5825</name></trkpt>
<trkpt lat="53.454647" lon="05.651141"><ele>3.5</ele><time>2021-02-17T12:38:32Z</time><name>PT5826</name></trkpt>
<trkpt lat="53.454658" lon="05.651137"><ele>3.4</ele><time>2021-02-17T12:38:33Z</time><name>PT5827</name></trkpt>
<trkpt lat="53.454667" lon="05.651136"><ele>3.5</ele><time>2021-02-17T12:38:34Z</time><name>PT5828</name></trkpt>
<trkpt lat="53.454676" lon="05.651133"><ele>3.7</ele><time>2021-02-17T12:38:35Z</time><name>PT5829</name></trkpt>
<trkpt lat="53.454686" lon="05.651128"><ele>3.9</ele><time>2021-02-17T12:38:36Z</time><name>PT5830</name></trkpt>
<trkpt lat="53.454696" lon="05.651120"><ele>3.9</ele><time>2021-02-17T12:38:37Z</time><name>PT5831</name></trkpt>
<trkpt lat="53.454705" lon="05.651112"><ele>3.9</ele><time>2021-02-17T12:38:38Z</time><name>PT5832</name></trkpt>
<trkpt lat="53.454713" lon="05.651103"><ele>3.9</ele><time>2021-02-17T12:38:39Z</time><name>PT5833</name></trkpt>
<trkpt lat="53.454721" lon="05.651097"><ele>3.9</ele><time>2021-02-17T12:38:40Z</time><name>PT5834</name></trkpt>
<trkpt lat="53.454731" lon="05.651089"><ele>4.1</ele><time>2021-02-17T12:38:41Z</time><name>PT5835</name></trkpt>
<trkpt lat="53.454740" lon="05.651080"><ele>4</ele><time>2021-02-17T12:38:42Z</time><name>PT5836</name></trkpt>
<trkpt lat="53.454750" lon="05.651074"><ele>3.9</ele><time>2021-02-17T12:38:43Z</time><name>PT5837</name></trkpt>
<trkpt lat="53.454760" lon="05.651064"><ele>3.9</ele><time>2021-02-17T12:38:44Z</time><name>PT5838</name></trkpt>
<trkpt lat="53.454771" lon="05.651054"><ele>3.9</ele><time>2021-02-17T12:38:45Z</time><name>PT5839</name></trkpt>
<trkpt lat="53.454779" lon="05.651044"><ele>3.9</ele><time>2021-02-17T12:38:46Z</time><name>PT5840</name></trkpt>
<trkpt lat="53.454784" lon="05.651038"><ele>3.9</ele><time>2021-02-17T12:38:47Z</time><name>PT5841</name></trkpt>
<trkpt lat="53.454788" lon="05.651031"><ele>3.9</ele><time>2021-02-17T12:38:48Z</time><name>PT5842</name></trkpt>
<trkpt lat="53.454793" lon="05.651021"><ele>3.9</ele><time>2021-02-17T12:38:49Z</time><name>PT5843</name></trkpt>
<trkpt lat="53.454800" lon="05.651009"><ele>3.9</ele><time>2021-02-17T12:38:50Z</time><name>PT5844</name></trkpt>
<trkpt lat="53.454805" lon="05.650997"><ele>3.8</ele><time>2021-02-17T12:38:51Z</time><name>PT5845</name></trkpt>
<trkpt lat="53.454809" lon="05.650984"><ele>3.7</ele><time>2021-02-17T12:38:52Z</time><name>PT5846</name></trkpt>
<trkpt lat="53.454815" lon="05.650968"><ele>3.7</ele><time>2021-02-17T12:38:53Z</time><name>PT5847</name></trkpt>
<trkpt lat="53.454819" lon="05.650954"><ele>3.6</ele><time>2021-02-17T12:38:54Z</time><name>PT5848</name></trkpt>
<trkpt lat="53.454823" lon="05.650938"><ele>3.7</ele><time>2021-02-17T12:38:55Z</time><name>PT5849</name></trkpt>
<trkpt lat="53.454829" lon="05.650924"><ele>3.8</ele><time>2021-02-17T12:38:56Z</time><name>PT5850</name></trkpt>
<trkpt lat="53.454835" lon="05.650909"><ele>3.6</ele><time>2021-02-17T12:38:57Z</time><name>PT5851</name></trkpt>
<trkpt lat="53.454841" lon="05.650893"><ele>3.5</ele><time>2021-02-17T12:38:58Z</time><name>PT5852</name></trkpt>
<trkpt lat="53.454848" lon="05.650880"><ele>3.4</ele><time>2021-02-17T12:38:59Z</time><name>PT5853</name></trkpt>
<trkpt lat="53.454854" lon="05.650867"><ele>3.1</ele><time>2021-02-17T12:39:00Z</time><name>PT5854</name></trkpt>
<trkpt lat="53.454859" lon="05.650853"><ele>2.9</ele><time>2021-02-17T12:39:01Z</time><name>PT5855</name></trkpt>
<trkpt lat="53.454863" lon="05.650838"><ele>2.9</ele><time>2021-02-17T12:39:02Z</time><name>PT5856</name></trkpt>
<trkpt lat="53.454867" lon="05.650824"><ele>3</ele><time>2021-02-17T12:39:03Z</time><name>PT5857</name></trkpt>
<trkpt lat="53.454871" lon="05.650813"><ele>2.9</ele><time>2021-02-17T12:39:04Z</time><name>PT5858</name></trkpt>
<trkpt lat="53.454873" lon="05.650798"><ele>2.9</ele><time>2021-02-17T12:39:05Z</time><name>PT5859</name></trkpt>
<trkpt lat="53.454877" lon="05.650779"><ele>3.2</ele><time>2021-02-17T12:39:06Z</time><name>PT5860</name></trkpt>
<trkpt lat="53.454881" lon="05.650764"><ele>2.9</ele><time>2021-02-17T12:39:07Z</time><name>PT5861</name></trkpt>
<trkpt lat="53.454884" lon="05.650749"><ele>3</ele><time>2021-02-17T12:39:08Z</time><name>PT5862</name></trkpt>
<trkpt lat="53.454888" lon="05.650735"><ele>3</ele><time>2021-02-17T12:39:09Z</time><name>PT5863</name></trkpt>
<trkpt lat="53.454892" lon="05.650719"><ele>3.2</ele><time>2021-02-17T12:39:10Z</time><name>PT5864</name></trkpt>
<trkpt lat="53.454895" lon="05.650704"><ele>3.2</ele><time>2021-02-17T12:39:11Z</time><name>PT5865</name></trkpt>
<trkpt lat="53.454900" lon="05.650685"><ele>3.3</ele><time>2021-02-17T12:39:12Z</time><name>PT5866</name></trkpt>
<trkpt lat="53.454903" lon="05.650667"><ele>3.3</ele><time>2021-02-17T12:39:13Z</time><name>PT5867</name></trkpt>
<trkpt lat="53.454907" lon="05.650653"><ele>3</ele><time>2021-02-17T12:39:14Z</time><name>PT5868</name></trkpt>
<trkpt lat="53.454911" lon="05.650640"><ele>3</ele><time>2021-02-17T12:39:15Z</time><name>PT5869</name></trkpt>
<trkpt lat="53.454914" lon="05.650622"><ele>2.9</ele><time>2021-02-17T12:39:16Z</time><name>PT5870</name></trkpt>
<trkpt lat="53.454916" lon="05.650604"><ele>2.4</ele><time>2021-02-17T12:39:17Z</time><name>PT5871</name></trkpt>
<trkpt lat="53.454917" lon="05.650587"><ele>2.1</ele><time>2021-02-17T12:39:18Z</time><name>PT5872</name></trkpt>
<trkpt lat="53.454920" lon="05.650572"><ele>2</ele><time>2021-02-17T12:39:19Z</time><name>PT5873</name></trkpt>
<trkpt lat="53.454923" lon="05.650561"><ele>1.9</ele><time>2021-02-17T12:39:20Z</time><name>PT5874</name></trkpt>
<trkpt lat="53.454929" lon="05.650546"><ele>1.8</ele><time>2021-02-17T12:39:21Z</time><name>PT5875</name></trkpt>
<trkpt lat="53.454932" lon="05.650531"><ele>1.8</ele><time>2021-02-17T12:39:22Z</time><name>PT5876</name></trkpt>
<trkpt lat="53.454933" lon="05.650518"><ele>1.6</ele><time>2021-02-17T12:39:23Z</time><name>PT5877</name></trkpt>
<trkpt lat="53.454935" lon="05.650502"><ele>1.6</ele><time>2021-02-17T12:39:24Z</time><name>PT5878</name></trkpt>
<trkpt lat="53.454938" lon="05.650484"><ele>1.6</ele><time>2021-02-17T12:39:25Z</time><name>PT5879</name></trkpt>
<trkpt lat="53.454943" lon="05.650468"><ele>1.7</ele><time>2021-02-17T12:39:26Z</time><name>PT5880</name></trkpt>
<trkpt lat="53.454950" lon="05.650449"><ele>1.9</ele><time>2021-02-17T12:39:27Z</time><name>PT5881</name></trkpt>
<trkpt lat="53.454954" lon="05.650433"><ele>2</ele><time>2021-02-17T12:39:28Z</time><name>PT5882</name></trkpt>
<trkpt lat="53.454957" lon="05.650414"><ele>1.9</ele><time>2021-02-17T12:39:29Z</time><name>PT5883</name></trkpt>
<trkpt lat="53.454959" lon="05.650397"><ele>2</ele><time>2021-02-17T12:39:30Z</time><name>PT5884</name></trkpt>
<trkpt lat="53.454965" lon="05.650377"><ele>2</ele><time>2021-02-17T12:39:31Z</time><name>PT5885</name></trkpt>
<trkpt lat="53.454971" lon="05.650358"><ele>1.8</ele><time>2021-02-17T12:39:32Z</time><name>PT5886</name></trkpt>
<trkpt lat="53.454975" lon="05.650341"><ele>1.9</ele><time>2021-02-17T12:39:33Z</time><name>PT5887</name></trkpt>
<trkpt lat="53.454979" lon="05.650325"><ele>2</ele><time>2021-02-17T12:39:34Z</time><name>PT5888</name></trkpt>
<trkpt lat="53.454982" lon="05.650302"><ele>2.2</ele><time>2021-02-17T12:39:35Z</time><name>PT5889</name></trkpt>
<trkpt lat="53.454986" lon="05.650284"><ele>2.4</ele><time>2021-02-17T12:39:36Z</time><name>PT5890</name></trkpt>
<trkpt lat="53.454992" lon="05.650267"><ele>2.6</ele><time>2021-02-17T12:39:37Z</time><name>PT5891</name></trkpt>
<trkpt lat="53.454997" lon="05.650249"><ele>2.8</ele><time>2021-02-17T12:39:38Z</time><name>PT5892</name></trkpt>
<trkpt lat="53.455003" lon="05.650230"><ele>2.9</ele><time>2021-02-17T12:39:39Z</time><name>PT5893</name></trkpt>
<trkpt lat="53.455009" lon="05.650213"><ele>2.9</ele><time>2021-02-17T12:39:40Z</time><name>PT5894</name></trkpt>
<trkpt lat="53.455013" lon="05.650196"><ele>3.3</ele><time>2021-02-17T12:39:41Z</time><name>PT5895</name></trkpt>
<trkpt lat="53.455017" lon="05.650178"><ele>3.4</ele><time>2021-02-17T12:39:42Z</time><name>PT5896</name></trkpt>
<trkpt lat="53.455023" lon="05.650162"><ele>3.4</ele><time>2021-02-17T12:39:43Z</time><name>PT5897</name></trkpt>
<trkpt lat="53.455030" lon="05.650150"><ele>3.1</ele><time>2021-02-17T12:39:44Z</time><name>PT5898</name></trkpt>
<trkpt lat="53.455037" lon="05.650136"><ele>3</ele><time>2021-02-17T12:39:45Z</time><name>PT5899</name></trkpt>
<trkpt lat="53.455044" lon="05.650125"><ele>2.7</ele><time>2021-02-17T12:39:46Z</time><name>PT5900</name></trkpt>
<trkpt lat="53.455051" lon="05.650113"><ele>2.9</ele><time>2021-02-17T12:39:47Z</time><name>PT5901</name></trkpt>
<trkpt lat="53.455058" lon="05.650099"><ele>3</ele><time>2021-02-17T12:39:48Z</time><name>PT5902</name></trkpt>
<trkpt lat="53.455064" lon="05.650083"><ele>2.9</ele><time>2021-02-17T12:39:49Z</time><name>PT5903</name></trkpt>
<trkpt lat="53.455068" lon="05.650070"><ele>3</ele><time>2021-02-17T12:39:50Z</time><name>PT5904</name></trkpt>
<trkpt lat="53.455073" lon="05.650054"><ele>3</ele><time>2021-02-17T12:39:51Z</time><name>PT5905</name></trkpt>
<trkpt lat="53.455079" lon="05.650039"><ele>3</ele><time>2021-02-17T12:39:52Z</time><name>PT5906</name></trkpt>
<trkpt lat="53.455085" lon="05.650024"><ele>3.3</ele><time>2021-02-17T12:39:53Z</time><name>PT5907</name></trkpt>
<trkpt lat="53.455092" lon="05.650009"><ele>3.4</ele><time>2021-02-17T12:39:54Z</time><name>PT5908</name></trkpt>
<trkpt lat="53.455097" lon="05.649995"><ele>3.8</ele><time>2021-02-17T12:39:55Z</time><name>PT5909</name></trkpt>
<trkpt lat="53.455102" lon="05.649984"><ele>3.9</ele><time>2021-02-17T12:39:56Z</time><name>PT5910</name></trkpt>
<trkpt lat="53.455108" lon="05.649973"><ele>3.9</ele><time>2021-02-17T12:39:57Z</time><name>PT5911</name></trkpt>
<trkpt lat="53.455111" lon="05.649958"><ele>3.9</ele><time>2021-02-17T12:39:58Z</time><name>PT5912</name></trkpt>
<trkpt lat="53.455115" lon="05.649945"><ele>3.7</ele><time>2021-02-17T12:39:59Z</time><name>PT5913</name></trkpt>
<trkpt lat="53.455117" lon="05.649930"><ele>3.8</ele><time>2021-02-17T12:40:00Z</time><name>PT5914</name></trkpt>
<trkpt lat="53.455119" lon="05.649916"><ele>3.4</ele><time>2021-02-17T12:40:01Z</time><name>PT5915</name></trkpt>
<trkpt lat="53.455123" lon="05.649902"><ele>3.7</ele><time>2021-02-17T12:40:02Z</time><name>PT5916</name></trkpt>
<trkpt lat="53.455127" lon="05.649886"><ele>3.9</ele><time>2021-02-17T12:40:03Z</time><name>PT5917</name></trkpt>
<trkpt lat="53.455131" lon="05.649871"><ele>3.8</ele><time>2021-02-17T12:40:04Z</time><name>PT5918</name></trkpt>
<trkpt lat="53.455133" lon="05.649857"><ele>3.9</ele><time>2021-02-17T12:40:05Z</time><name>PT5919</name></trkpt>
<trkpt lat="53.455136" lon="05.649841"><ele>3.9</ele><time>2021-02-17T12:40:06Z</time><name>PT5920</name></trkpt>
<trkpt lat="53.455141" lon="05.649826"><ele>3.7</ele><time>2021-02-17T12:40:07Z</time><name>PT5921</name></trkpt>
<trkpt lat="53.455146" lon="05.649811"><ele>3.9</ele><time>2021-02-17T12:40:08Z</time><name>PT5922</name></trkpt>
<trkpt lat="53.455148" lon="05.649795"><ele>4</ele><time>2021-02-17T12:40:09Z</time><name>PT5923</name></trkpt>
<trkpt lat="53.455152" lon="05.649777"><ele>3.9</ele><time>2021-02-17T12:40:10Z</time><name>PT5924</name></trkpt>
<trkpt lat="53.455157" lon="05.649763"><ele>3.7</ele><time>2021-02-17T12:40:11Z</time><name>PT5925</name></trkpt>
<trkpt lat="53.455162" lon="05.649750"><ele>3.7</ele><time>2021-02-17T12:40:12Z</time><name>PT5926</name></trkpt>
<trkpt lat="53.455167" lon="05.649731"><ele>3.5</ele><time>2021-02-17T12:40:13Z</time><name>PT5927</name></trkpt>
<trkpt lat="53.455172" lon="05.649714"><ele>3.4</ele><time>2021-02-17T12:40:14Z</time><name>PT5928</name></trkpt>
<trkpt lat="53.455176" lon="05.649690"><ele>3.4</ele><time>2021-02-17T12:40:15Z</time><name>PT5929</name></trkpt>
<trkpt lat="53.455181" lon="05.649676"><ele>3.6</ele><time>2021-02-17T12:40:16Z</time><name>PT5930</name></trkpt>
<trkpt lat="53.455187" lon="05.649668"><ele>3.8</ele><time>2021-02-17T12:40:17Z</time><name>PT5931</name></trkpt>
<trkpt lat="53.455195" lon="05.649661"><ele>3.9</ele><time>2021-02-17T12:40:18Z</time><name>PT5932</name></trkpt>
<trkpt lat="53.455206" lon="05.649651"><ele>4</ele><time>2021-02-17T12:40:19Z</time><name>PT5933</name></trkpt>
<trkpt lat="53.455213" lon="05.649637"><ele>4</ele><time>2021-02-17T12:40:20Z</time><name>PT5934</name></trkpt>
<trkpt lat="53.455222" lon="05.649622"><ele>4</ele><time>2021-02-17T12:40:21Z</time><name>PT5935</name></trkpt>
<trkpt lat="53.455226" lon="05.649610"><ele>3.9</ele><time>2021-02-17T12:40:22Z</time><name>PT5936</name></trkpt>
<trkpt lat="53.455234" lon="05.649598"><ele>3.8</ele><time>2021-02-17T12:40:23Z</time><name>PT5937</name></trkpt>
<trkpt lat="53.455242" lon="05.649584"><ele>3.9</ele><time>2021-02-17T12:40:24Z</time><name>PT5938</name></trkpt>
<trkpt lat="53.455251" lon="05.649571"><ele>4</ele><time>2021-02-17T12:40:25Z</time><name>PT5939</name></trkpt>
<trkpt lat="53.455257" lon="05.649561"><ele>3.8</ele><time>2021-02-17T12:40:26Z</time><name>PT5940</name></trkpt>
<trkpt lat="53.455265" lon="05.649550"><ele>3.8</ele><time>2021-02-17T12:40:27Z</time><name>PT5941</name></trkpt>
<trkpt lat="53.455274" lon="05.649537"><ele>3.6</ele><time>2021-02-17T12:40:28Z</time><name>PT5942</name></trkpt>
<trkpt lat="53.455282" lon="05.649524"><ele>3.4</ele><time>2021-02-17T12:40:29Z</time><name>PT5943</name></trkpt>
<trkpt lat="53.455291" lon="05.649512"><ele>3.6</ele><time>2021-02-17T12:40:30Z</time><name>PT5944</name></trkpt>
<trkpt lat="53.455298" lon="05.649500"><ele>3.7</ele><time>2021-02-17T12:40:31Z</time><name>PT5945</name></trkpt>
<trkpt lat="53.455300" lon="05.649487"><ele>3.7</ele><time>2021-02-17T12:40:32Z</time><name>PT5946</name></trkpt>
<trkpt lat="53.455302" lon="05.649473"><ele>3.6</ele><time>2021-02-17T12:40:33Z</time><name>PT5947</name></trkpt>
<trkpt lat="53.455306" lon="05.649459"><ele>3.5</ele><time>2021-02-17T12:40:34Z</time><name>PT5948</name></trkpt>
<trkpt lat="53.455311" lon="05.649448"><ele>3.4</ele><time>2021-02-17T12:40:35Z</time><name>PT5949</name></trkpt>
<trkpt lat="53.455317" lon="05.649435"><ele>3.4</ele><time>2021-02-17T12:40:36Z</time><name>PT5950</name></trkpt>
<trkpt lat="53.455325" lon="05.649422"><ele>3.5</ele><time>2021-02-17T12:40:37Z</time><name>PT5951</name></trkpt>
<trkpt lat="53.455333" lon="05.649409"><ele>3.5</ele><time>2021-02-17T12:40:38Z</time><name>PT5952</name></trkpt>
<trkpt lat="53.455341" lon="05.649398"><ele>3.4</ele><time>2021-02-17T12:40:39Z</time><name>PT5953</name></trkpt>
<trkpt lat="53.455349" lon="05.649386"><ele>3.4</ele><time>2021-02-17T12:40:40Z</time><name>PT5954</name></trkpt>
<trkpt lat="53.455359" lon="05.649372"><ele>3.4</ele><time>2021-02-17T12:40:41Z</time><name>PT5955</name></trkpt>
<trkpt lat="53.455365" lon="05.649357"><ele>3.6</ele><time>2021-02-17T12:40:42Z</time><name>PT5956</name></trkpt>
<trkpt lat="53.455373" lon="05.649345"><ele>3.6</ele><time>2021-02-17T12:40:43Z</time><name>PT5957</name></trkpt>
<trkpt lat="53.455379" lon="05.649336"><ele>3.7</ele><time>2021-02-17T12:40:44Z</time><name>PT5958</name></trkpt>
<trkpt lat="53.455385" lon="05.649323"><ele>3.6</ele><time>2021-02-17T12:40:45Z</time><name>PT5959</name></trkpt>
<trkpt lat="53.455392" lon="05.649306"><ele>3.6</ele><time>2021-02-17T12:40:46Z</time><name>PT5960</name></trkpt>
<trkpt lat="53.455397" lon="05.649288"><ele>3.7</ele><time>2021-02-17T12:40:47Z</time><name>PT5961</name></trkpt>
<trkpt lat="53.455399" lon="05.649276"><ele>3.7</ele><time>2021-02-17T12:40:48Z</time><name>PT5962</name></trkpt>
<trkpt lat="53.455405" lon="05.649262"><ele>3.9</ele><time>2021-02-17T12:40:49Z</time><name>PT5963</name></trkpt>
<trkpt lat="53.455413" lon="05.649246"><ele>3.8</ele><time>2021-02-17T12:40:50Z</time><name>PT5964</name></trkpt>
<trkpt lat="53.455418" lon="05.649234"><ele>3.8</ele><time>2021-02-17T12:40:51Z</time><name>PT5965</name></trkpt>
<trkpt lat="53.455422" lon="05.649218"><ele>3.7</ele><time>2021-02-17T12:40:52Z</time><name>PT5966</name></trkpt>
<trkpt lat="53.455427" lon="05.649204"><ele>3.6</ele><time>2021-02-17T12:40:53Z</time><name>PT5967</name></trkpt>
<trkpt lat="53.455434" lon="05.649190"><ele>3.5</ele><time>2021-02-17T12:40:54Z</time><name>PT5968</name></trkpt>
<trkpt lat="53.455441" lon="05.649175"><ele>3.4</ele><time>2021-02-17T12:40:55Z</time><name>PT5969</name></trkpt>
<trkpt lat="53.455447" lon="05.649158"><ele>3.7</ele><time>2021-02-17T12:40:56Z</time><name>PT5970</name></trkpt>
<trkpt lat="53.455454" lon="05.649143"><ele>3.6</ele><time>2021-02-17T12:40:57Z</time><name>PT5971</name></trkpt>
<trkpt lat="53.455457" lon="05.649126"><ele>3.7</ele><time>2021-02-17T12:40:58Z</time><name>PT5972</name></trkpt>
<trkpt lat="53.455463" lon="05.649112"><ele>3.9</ele><time>2021-02-17T12:40:59Z</time><name>PT5973</name></trkpt>
<trkpt lat="53.455466" lon="05.649095"><ele>3.9</ele><time>2021-02-17T12:41:00Z</time><name>PT5974</name></trkpt>
<trkpt lat="53.455471" lon="05.649079"><ele>3.7</ele><time>2021-02-17T12:41:01Z</time><name>PT5975</name></trkpt>
<trkpt lat="53.455475" lon="05.649066"><ele>3.8</ele><time>2021-02-17T12:41:02Z</time><name>PT5976</name></trkpt>
<trkpt lat="53.455479" lon="05.649051"><ele>3.6</ele><time>2021-02-17T12:41:03Z</time><name>PT5977</name></trkpt>
<trkpt lat="53.455483" lon="05.649036"><ele>3.5</ele><time>2021-02-17T12:41:04Z</time><name>PT5978</name></trkpt>
<trkpt lat="53.455486" lon="05.649021"><ele>3.5</ele><time>2021-02-17T12:41:05Z</time><name>PT5979</name></trkpt>
<trkpt lat="53.455490" lon="05.649003"><ele>3.6</ele><time>2021-02-17T12:41:06Z</time><name>PT5980</name></trkpt>
<trkpt lat="53.455495" lon="05.648983"><ele>3.6</ele><time>2021-02-17T12:41:07Z</time><name>PT5981</name></trkpt>
<trkpt lat="53.455498" lon="05.648968"><ele>3.6</ele><time>2021-02-17T12:41:08Z</time><name>PT5982</name></trkpt>
<trkpt lat="53.455501" lon="05.648952"><ele>3.8</ele><time>2021-02-17T12:41:09Z</time><name>PT5983</name></trkpt>
<trkpt lat="53.455505" lon="05.648936"><ele>4</ele><time>2021-02-17T12:41:10Z</time><name>PT5984</name></trkpt>
<trkpt lat="53.455509" lon="05.648920"><ele>4.1</ele><time>2021-02-17T12:41:11Z</time><name>PT5985</name></trkpt>
<trkpt lat="53.455514" lon="05.648907"><ele>4.1</ele><time>2021-02-17T12:41:12Z</time><name>PT5986</name></trkpt>
<trkpt lat="53.455519" lon="05.648892"><ele>4.3</ele><time>2021-02-17T12:41:13Z</time><name>PT5987</name></trkpt>
<trkpt lat="53.455522" lon="05.648874"><ele>4.3</ele><time>2021-02-17T12:41:14Z</time><name>PT5988</name></trkpt>
<trkpt lat="53.455527" lon="05.648858"><ele>4.4</ele><time>2021-02-17T12:41:15Z</time><name>PT5989</name></trkpt>
<trkpt lat="53.455531" lon="05.648846"><ele>4.5</ele><time>2021-02-17T12:41:16Z</time><name>PT5990</name></trkpt>
<trkpt lat="53.455537" lon="05.648835"><ele>4.4</ele><time>2021-02-17T12:41:17Z</time><name>PT5991</name></trkpt>
<trkpt lat="53.455542" lon="05.648822"><ele>4.4</ele><time>2021-02-17T12:41:18Z</time><name>PT5992</name></trkpt>
<trkpt lat="53.455549" lon="05.648809"><ele>4.4</ele><time>2021-02-17T12:41:19Z</time><name>PT5993</name></trkpt>
<trkpt lat="53.455555" lon="05.648801"><ele>4.6</ele><time>2021-02-17T12:41:20Z</time><name>PT5994</name></trkpt>
<trkpt lat="53.455561" lon="05.648792"><ele>4.8</ele><time>2021-02-17T12:41:21Z</time><name>PT5995</name></trkpt>
<trkpt lat="53.455570" lon="05.648778"><ele>4.8</ele><time>2021-02-17T12:41:22Z</time><name>PT5996</name></trkpt>
<trkpt lat="53.455578" lon="05.648762"><ele>4.8</ele><time>2021-02-17T12:41:23Z</time><name>PT5997</name></trkpt>
<trkpt lat="53.455585" lon="05.648750"><ele>4.9</ele><time>2021-02-17T12:41:24Z</time><name>PT5998</name></trkpt>
<trkpt lat="53.455593" lon="05.648738"><ele>4.8</ele><time>2021-02-17T12:41:25Z</time><name>PT5999</name></trkpt>
<trkpt lat="53.455601" lon="05.648725"><ele>4.8</ele><time>2021-02-17T12:41:26Z</time><name>PT6000</name></trkpt>
<trkpt lat="53.455609" lon="05.648712"><ele>4.8</ele><time>2021-02-17T12:41:27Z</time><name>PT6001</name></trkpt>
<trkpt lat="53.455617" lon="05.648700"><ele>4.8</ele><time>2021-02-17T12:41:28Z</time><name>PT6002</name></trkpt>
<trkpt lat="53.455626" lon="05.648689"><ele>4.9</ele><time>2021-02-17T12:41:29Z</time><name>PT6003</name></trkpt>
<trkpt lat="53.455634" lon="05.648678"><ele>5.2</ele><time>2021-02-17T12:41:30Z</time><name>PT6004</name></trkpt>
<trkpt lat="53.455641" lon="05.648665"><ele>5.3</ele><time>2021-02-17T12:41:31Z</time><name>PT6005</name></trkpt>
<trkpt lat="53.455649" lon="05.648650"><ele>5.3</ele><time>2021-02-17T12:41:32Z</time><name>PT6006</name></trkpt>
<trkpt lat="53.455656" lon="05.648636"><ele>5.3</ele><time>2021-02-17T12:41:33Z</time><name>PT6007</name></trkpt>
<trkpt lat="53.455663" lon="05.648623"><ele>5.4</ele><time>2021-02-17T12:41:34Z</time><name>PT6008</name></trkpt>
<trkpt lat="53.455670" lon="05.648609"><ele>5.5</ele><time>2021-02-17T12:41:35Z</time><name>PT6009</name></trkpt>
<trkpt lat="53.455678" lon="05.648595"><ele>5.5</ele><time>2021-02-17T12:41:36Z</time><name>PT6010</name></trkpt>
<trkpt lat="53.455685" lon="05.648581"><ele>5.8</ele><time>2021-02-17T12:41:37Z</time><name>PT6011</name></trkpt>
<trkpt lat="53.455692" lon="05.648565"><ele>5.7</ele><time>2021-02-17T12:41:38Z</time><name>PT6012</name></trkpt>
<trkpt lat="53.455699" lon="05.648552"><ele>5.8</ele><time>2021-02-17T12:41:39Z</time><name>PT6013</name></trkpt>
<trkpt lat="53.455706" lon="05.648540"><ele>5.7</ele><time>2021-02-17T12:41:40Z</time><name>PT6014</name></trkpt>
<trkpt lat="53.455713" lon="05.648530"><ele>5.5</ele><time>2021-02-17T12:41:41Z</time><name>PT6015</name></trkpt>
<trkpt lat="53.455720" lon="05.648519"><ele>5.5</ele><time>2021-02-17T12:41:42Z</time><name>PT6016</name></trkpt>
<trkpt lat="53.455728" lon="05.648503"><ele>5.3</ele><time>2021-02-17T12:41:43Z</time><name>PT6017</name></trkpt>
<trkpt lat="53.455736" lon="05.648487"><ele>5.1</ele><time>2021-02-17T12:41:44Z</time><name>PT6018</name></trkpt>
<trkpt lat="53.455743" lon="05.648477"><ele>5.1</ele><time>2021-02-17T12:41:45Z</time><name>PT6019</name></trkpt>
<trkpt lat="53.455750" lon="05.648465"><ele>5.2</ele><time>2021-02-17T12:41:46Z</time><name>PT6020</name></trkpt>
<trkpt lat="53.455757" lon="05.648453"><ele>5.3</ele><time>2021-02-17T12:41:48Z</time><name>PT6021</name></trkpt>
<trkpt lat="53.455764" lon="05.648446"><ele>5.2</ele><time>2021-02-17T12:41:48Z</time><name>PT6022</name></trkpt>
<trkpt lat="53.455772" lon="05.648432"><ele>5.3</ele><time>2021-02-17T12:41:49Z</time><name>PT6023</name></trkpt>
<trkpt lat="53.455778" lon="05.648412"><ele>5</ele><time>2021-02-17T12:41:50Z</time><name>PT6024</name></trkpt>
<trkpt lat="53.455784" lon="05.648400"><ele>4.8</ele><time>2021-02-17T12:41:51Z</time><name>PT6025</name></trkpt>
<trkpt lat="53.455789" lon="05.648386"><ele>4.7</ele><time>2021-02-17T12:41:52Z</time><name>PT6026</name></trkpt>
<trkpt lat="53.455795" lon="05.648370"><ele>4.4</ele><time>2021-02-17T12:41:53Z</time><name>PT6027</name></trkpt>
<trkpt lat="53.455802" lon="05.648356"><ele>4.4</ele><time>2021-02-17T12:41:54Z</time><name>PT6028</name></trkpt>
<trkpt lat="53.455809" lon="05.648343"><ele>4.4</ele><time>2021-02-17T12:41:55Z</time><name>PT6029</name></trkpt>
<trkpt lat="53.455816" lon="05.648328"><ele>4.3</ele><time>2021-02-17T12:41:56Z</time><name>PT6030</name></trkpt>
<trkpt lat="53.455824" lon="05.648311"><ele>4.3</ele><time>2021-02-17T12:41:57Z</time><name>PT6031</name></trkpt>
<trkpt lat="53.455830" lon="05.648298"><ele>4.3</ele><time>2021-02-17T12:41:58Z</time><name>PT6032</name></trkpt>
<trkpt lat="53.455839" lon="05.648286"><ele>4.4</ele><time>2021-02-17T12:41:59Z</time><name>PT6033</name></trkpt>
<trkpt lat="53.455845" lon="05.648276"><ele>4.4</ele><time>2021-02-17T12:42:00Z</time><name>PT6034</name></trkpt>
<trkpt lat="53.455850" lon="05.648262"><ele>4.6</ele><time>2021-02-17T12:42:01Z</time><name>PT6035</name></trkpt>
<trkpt lat="53.455856" lon="05.648247"><ele>5</ele><time>2021-02-17T12:42:02Z</time><name>PT6036</name></trkpt>
<trkpt lat="53.455861" lon="05.648237"><ele>4.9</ele><time>2021-02-17T12:42:03Z</time><name>PT6037</name></trkpt>
<trkpt lat="53.455867" lon="05.648223"><ele>4.7</ele><time>2021-02-17T12:42:04Z</time><name>PT6038</name></trkpt>
<trkpt lat="53.455873" lon="05.648208"><ele>4.7</ele><time>2021-02-17T12:42:05Z</time><name>PT6039</name></trkpt>
<trkpt lat="53.455879" lon="05.648191"><ele>4.6</ele><time>2021-02-17T12:42:06Z</time><name>PT6040</name></trkpt>
<trkpt lat="53.455883" lon="05.648174"><ele>4.5</ele><time>2021-02-17T12:42:07Z</time><name>PT6041</name></trkpt>
<trkpt lat="53.455889" lon="05.648158"><ele>4.5</ele><time>2021-02-17T12:42:08Z</time><name>PT6042</name></trkpt>
<trkpt lat="53.455896" lon="05.648145"><ele>4.6</ele><time>2021-02-17T12:42:09Z</time><name>PT6043</name></trkpt>
<trkpt lat="53.455904" lon="05.648130"><ele>4.2</ele><time>2021-02-17T12:42:10Z</time><name>PT6044</name></trkpt>
<trkpt lat="53.455912" lon="05.648116"><ele>4.2</ele><time>2021-02-17T12:42:11Z</time><name>PT6045</name></trkpt>
<trkpt lat="53.455917" lon="05.648105"><ele>4.3</ele><time>2021-02-17T12:42:12Z</time><name>PT6046</name></trkpt>
<trkpt lat="53.455923" lon="05.648092"><ele>4.4</ele><time>2021-02-17T12:42:13Z</time><name>PT6047</name></trkpt>
<trkpt lat="53.455929" lon="05.648081"><ele>4.6</ele><time>2021-02-17T12:42:14Z</time><name>PT6048</name></trkpt>
<trkpt lat="53.455935" lon="05.648068"><ele>4.6</ele><time>2021-02-17T12:42:15Z</time><name>PT6049</name></trkpt>
<trkpt lat="53.455941" lon="05.648053"><ele>4.7</ele><time>2021-02-17T12:42:16Z</time><name>PT6050</name></trkpt>
<trkpt lat="53.455946" lon="05.648038"><ele>4.8</ele><time>2021-02-17T12:42:17Z</time><name>PT6051</name></trkpt>
<trkpt lat="53.455956" lon="05.648024"><ele>4.5</ele><time>2021-02-17T12:42:18Z</time><name>PT6052</name></trkpt>
<trkpt lat="53.455964" lon="05.648012"><ele>4.7</ele><time>2021-02-17T12:42:19Z</time><name>PT6053</name></trkpt>
<trkpt lat="53.455968" lon="05.648000"><ele>4.5</ele><time>2021-02-17T12:42:20Z</time><name>PT6054</name></trkpt>
<trkpt lat="53.455974" lon="05.647987"><ele>4.4</ele><time>2021-02-17T12:42:21Z</time><name>PT6055</name></trkpt>
<trkpt lat="53.455979" lon="05.647970"><ele>4.4</ele><time>2021-02-17T12:42:22Z</time><name>PT6056</name></trkpt>
<trkpt lat="53.455985" lon="05.647954"><ele>4.4</ele><time>2021-02-17T12:42:23Z</time><name>PT6057</name></trkpt>
<trkpt lat="53.455989" lon="05.647939"><ele>4.4</ele><time>2021-02-17T12:42:24Z</time><name>PT6058</name></trkpt>
<trkpt lat="53.455995" lon="05.647924"><ele>4.5</ele><time>2021-02-17T12:42:25Z</time><name>PT6059</name></trkpt>
<trkpt lat="53.456001" lon="05.647908"><ele>4.6</ele><time>2021-02-17T12:42:26Z</time><name>PT6060</name></trkpt>
<trkpt lat="53.456006" lon="05.647895"><ele>4.4</ele><time>2021-02-17T12:42:27Z</time><name>PT6061</name></trkpt>
<trkpt lat="53.456011" lon="05.647879"><ele>4.3</ele><time>2021-02-17T12:42:28Z</time><name>PT6062</name></trkpt>
<trkpt lat="53.456017" lon="05.647863"><ele>4.3</ele><time>2021-02-17T12:42:29Z</time><name>PT6063</name></trkpt>
<trkpt lat="53.456022" lon="05.647846"><ele>4.1</ele><time>2021-02-17T12:42:30Z</time><name>PT6064</name></trkpt>
<trkpt lat="53.456027" lon="05.647832"><ele>4.3</ele><time>2021-02-17T12:42:31Z</time><name>PT6065</name></trkpt>
<trkpt lat="53.456031" lon="05.647819"><ele>4.4</ele><time>2021-02-17T12:42:32Z</time><name>PT6066</name></trkpt>
<trkpt lat="53.456035" lon="05.647805"><ele>4.4</ele><time>2021-02-17T12:42:33Z</time><name>PT6067</name></trkpt>
<trkpt lat="53.456041" lon="05.647792"><ele>4.5</ele><time>2021-02-17T12:42:34Z</time><name>PT6068</name></trkpt>
<trkpt lat="53.456047" lon="05.647784"><ele>4.6</ele><time>2021-02-17T12:42:35Z</time><name>PT6069</name></trkpt>
<trkpt lat="53.456051" lon="05.647772"><ele>4.7</ele><time>2021-02-17T12:42:36Z</time><name>PT6070</name></trkpt>
<trkpt lat="53.456053" lon="05.647757"><ele>4.7</ele><time>2021-02-17T12:42:37Z</time><name>PT6071</name></trkpt>
<trkpt lat="53.456058" lon="05.647743"><ele>4.5</ele><time>2021-02-17T12:42:38Z</time><name>PT6072</name></trkpt>
<trkpt lat="53.456064" lon="05.647729"><ele>4.5</ele><time>2021-02-17T12:42:39Z</time><name>PT6073</name></trkpt>
<trkpt lat="53.456071" lon="05.647713"><ele>4.8</ele><time>2021-02-17T12:42:40Z</time><name>PT6074</name></trkpt>
<trkpt lat="53.456075" lon="05.647701"><ele>4.8</ele><time>2021-02-17T12:42:41Z</time><name>PT6075</name></trkpt>
<trkpt lat="53.456078" lon="05.647690"><ele>4.9</ele><time>2021-02-17T12:42:42Z</time><name>PT6076</name></trkpt>
<trkpt lat="53.456083" lon="05.647677"><ele>4.9</ele><time>2021-02-17T12:42:43Z</time><name>PT6077</name></trkpt>
<trkpt lat="53.456090" lon="05.647662"><ele>4.8</ele><time>2021-02-17T12:42:44Z</time><name>PT6078</name></trkpt>
<trkpt lat="53.456096" lon="05.647648"><ele>4.9</ele><time>2021-02-17T12:42:45Z</time><name>PT6079</name></trkpt>
<trkpt lat="53.456102" lon="05.647634"><ele>4.7</ele><time>2021-02-17T12:42:46Z</time><name>PT6080</name></trkpt>
<trkpt lat="53.456110" lon="05.647624"><ele>4.5</ele><time>2021-02-17T12:42:47Z</time><name>PT6081</name></trkpt>
<trkpt lat="53.456120" lon="05.647612"><ele>4.4</ele><time>2021-02-17T12:42:48Z</time><name>PT6082</name></trkpt>
<trkpt lat="53.456127" lon="05.647603"><ele>4.4</ele><time>2021-02-17T12:42:49Z</time><name>PT6083</name></trkpt>
<trkpt lat="53.456133" lon="05.647593"><ele>4.4</ele><time>2021-02-17T12:42:50Z</time><name>PT6084</name></trkpt>
<trkpt lat="53.456140" lon="05.647584"><ele>4.5</ele><time>2021-02-17T12:42:51Z</time><name>PT6085</name></trkpt>
<trkpt lat="53.456149" lon="05.647571"><ele>4.6</ele><time>2021-02-17T12:42:52Z</time><name>PT6086</name></trkpt>
<trkpt lat="53.456156" lon="05.647560"><ele>4.6</ele><time>2021-02-17T12:42:53Z</time><name>PT6087</name></trkpt>
<trkpt lat="53.456162" lon="05.647549"><ele>4.6</ele><time>2021-02-17T12:42:54Z</time><name>PT6088</name></trkpt>
<trkpt lat="53.456169" lon="05.647537"><ele>4.6</ele><time>2021-02-17T12:42:55Z</time><name>PT6089</name></trkpt>
<trkpt lat="53.456175" lon="05.647527"><ele>4.7</ele><time>2021-02-17T12:42:56Z</time><name>PT6090</name></trkpt>
<trkpt lat="53.456182" lon="05.647516"><ele>4.8</ele><time>2021-02-17T12:42:57Z</time><name>PT6091</name></trkpt>
<trkpt lat="53.456189" lon="05.647505"><ele>4.9</ele><time>2021-02-17T12:42:58Z</time><name>PT6092</name></trkpt>
<trkpt lat="53.456195" lon="05.647493"><ele>5.2</ele><time>2021-02-17T12:42:59Z</time><name>PT6093</name></trkpt>
<trkpt lat="53.456200" lon="05.647484"><ele>5.3</ele><time>2021-02-17T12:43:00Z</time><name>PT6094</name></trkpt>
<trkpt lat="53.456208" lon="05.647471"><ele>5.5</ele><time>2021-02-17T12:43:01Z</time><name>PT6095</name></trkpt>
<trkpt lat="53.456216" lon="05.647457"><ele>5.6</ele><time>2021-02-17T12:43:02Z</time><name>PT6096</name></trkpt>
<trkpt lat="53.456221" lon="05.647445"><ele>5.7</ele><time>2021-02-17T12:43:03Z</time><name>PT6097</name></trkpt>
<trkpt lat="53.456226" lon="05.647434"><ele>5.6</ele><time>2021-02-17T12:43:04Z</time><name>PT6098</name></trkpt>
<trkpt lat="53.456233" lon="05.647421"><ele>5.4</ele><time>2021-02-17T12:43:05Z</time><name>PT6099</name></trkpt>
<trkpt lat="53.456243" lon="05.647406"><ele>5.3</ele><time>2021-02-17T12:43:06Z</time><name>PT6100</name></trkpt>
<trkpt lat="53.456250" lon="05.647393"><ele>4.9</ele><time>2021-02-17T12:43:07Z</time><name>PT6101</name></trkpt>
<trkpt lat="53.456257" lon="05.647381"><ele>4.6</ele><time>2021-02-17T12:43:08Z</time><name>PT6102</name></trkpt>
<trkpt lat="53.456265" lon="05.647369"><ele>4.4</ele><time>2021-02-17T12:43:09Z</time><name>PT6103</name></trkpt>
<trkpt lat="53.456274" lon="05.647356"><ele>4.1</ele><time>2021-02-17T12:43:10Z</time><name>PT6104</name></trkpt>
<trkpt lat="53.456280" lon="05.647341"><ele>4.2</ele><time>2021-02-17T12:43:11Z</time><name>PT6105</name></trkpt>
<trkpt lat="53.456284" lon="05.647325"><ele>4</ele><time>2021-02-17T12:43:12Z</time><name>PT6106</name></trkpt>
<trkpt lat="53.456287" lon="05.647306"><ele>3.9</ele><time>2021-02-17T12:43:13Z</time><name>PT6107</name></trkpt>
<trkpt lat="53.456288" lon="05.647292"><ele>3.7</ele><time>2021-02-17T12:43:14Z</time><name>PT6108</name></trkpt>
<trkpt lat="53.456292" lon="05.647280"><ele>3.7</ele><time>2021-02-17T12:43:15Z</time><name>PT6109</name></trkpt>
<trkpt lat="53.456296" lon="05.647269"><ele>3.4</ele><time>2021-02-17T12:43:16Z</time><name>PT6110</name></trkpt>
<trkpt lat="53.456299" lon="05.647256"><ele>3.3</ele><time>2021-02-17T12:43:17Z</time><name>PT6111</name></trkpt>
<trkpt lat="53.456302" lon="05.647246"><ele>3.4</ele><time>2021-02-17T12:43:18Z</time><name>PT6112</name></trkpt>
<trkpt lat="53.456306" lon="05.647238"><ele>3.4</ele><time>2021-02-17T12:43:19Z</time><name>PT6113</name></trkpt>
<trkpt lat="53.456309" lon="05.647236"><ele>3.7</ele><time>2021-02-17T12:43:20Z</time><name>PT6114</name></trkpt>
<trkpt lat="53.456310" lon="05.647233"><ele>3.8</ele><time>2021-02-17T12:43:21Z</time><name>PT6115</name></trkpt>
<trkpt lat="53.456308" lon="05.647226"><ele>4.2</ele><time>2021-02-17T12:43:25Z</time><name>PT6116</name></trkpt>
<trkpt lat="53.456312" lon="05.647224"><ele>4.1</ele><time>2021-02-17T12:43:26Z</time><name>PT6117</name></trkpt>
<trkpt lat="53.456317" lon="05.647212"><ele>4.2</ele><time>2021-02-17T12:43:27Z</time><name>PT6118</name></trkpt>
<trkpt lat="53.456325" lon="05.647207"><ele>4.4</ele><time>2021-02-17T12:43:28Z</time><name>PT6119</name></trkpt>
<trkpt lat="53.456327" lon="05.647207"><ele>4.4</ele><time>2021-02-17T12:43:29Z</time><name>PT6120</name></trkpt>
<trkpt lat="53.456324" lon="05.647204"><ele>4.6</ele><time>2021-02-17T12:43:30Z</time><name>PT6121</name></trkpt>
<trkpt lat="53.456322" lon="05.647205"><ele>4.6</ele><time>2021-02-17T12:43:31Z</time><name>PT6122</name></trkpt>
<trkpt lat="53.456324" lon="05.647203"><ele>4.4</ele><time>2021-02-17T12:43:32Z</time><name>PT6123</name></trkpt>
<trkpt lat="53.456326" lon="05.647200"><ele>4.4</ele><time>2021-02-17T12:43:33Z</time><name>PT6124</name></trkpt>
<trkpt lat="53.456328" lon="05.647200"><ele>4.4</ele><time>2021-02-17T12:43:34Z</time><name>PT6125</name></trkpt>
<trkpt lat="53.456329" lon="05.647198"><ele>4.2</ele><time>2021-02-17T12:43:35Z</time><name>PT6126</name></trkpt>
<trkpt lat="53.456331" lon="05.647199"><ele>4.4</ele><time>2021-02-17T12:43:36Z</time><name>PT6127</name></trkpt>
<trkpt lat="53.456331" lon="05.647198"><ele>4.6</ele><time>2021-02-17T12:43:37Z</time><name>PT6128</name></trkpt>
<trkpt lat="53.456330" lon="05.647198"><ele>4.6</ele><time>2021-02-17T12:43:38Z</time><name>PT6129</name></trkpt>
<trkpt lat="53.456328" lon="05.647198"><ele>4.7</ele><time>2021-02-17T12:43:39Z</time><name>PT6130</name></trkpt>
<trkpt lat="53.456329" lon="05.647203"><ele>4.8</ele><time>2021-02-17T12:43:40Z</time><name>PT6131</name></trkpt>
<trkpt lat="53.456330" lon="05.647205"><ele>4.7</ele><time>2021-02-17T12:43:41Z</time><name>PT6132</name></trkpt>
<trkpt lat="53.456331" lon="05.647205"><ele>4.5</ele><time>2021-02-17T12:43:42Z</time><name>PT6133</name></trkpt>
<trkpt lat="53.456331" lon="05.647204"><ele>4.7</ele><time>2021-02-17T12:43:43Z</time><name>PT6134</name></trkpt>
<trkpt lat="53.456330" lon="05.647203"><ele>4.6</ele><time>2021-02-17T12:43:49Z</time><name>PT6135</name></trkpt>
<trkpt lat="53.456332" lon="05.647208"><ele>4.7</ele><time>2021-02-17T12:43:50Z</time><name>PT6136</name></trkpt>
<trkpt lat="53.456335" lon="05.647208"><ele>4.7</ele><time>2021-02-17T12:43:51Z</time><name>PT6137</name></trkpt>
<trkpt lat="53.456336" lon="05.647213"><ele>4.8</ele><time>2021-02-17T12:43:52Z</time><name>PT6138</name></trkpt>
<trkpt lat="53.456338" lon="05.647212"><ele>4.6</ele><time>2021-02-17T12:43:53Z</time><name>PT6139</name></trkpt>
<trkpt lat="53.456340" lon="05.647211"><ele>4</ele><time>2021-02-17T12:44:04Z</time><name>PT6140</name></trkpt>
<trkpt lat="53.456339" lon="05.647201"><ele>4.1</ele><time>2021-02-17T12:44:05Z</time><name>PT6141</name></trkpt>
<trkpt lat="53.456336" lon="05.647196"><ele>4</ele><time>2021-02-17T12:44:06Z</time><name>PT6142</name></trkpt>
<trkpt lat="53.456332" lon="05.647197"><ele>4.2</ele><time>2021-02-17T12:44:07Z</time><name>PT6143</name></trkpt>
<trkpt lat="53.456332" lon="05.647194"><ele>4.8</ele><time>2021-02-17T12:44:12Z</time><name>PT6144</name></trkpt>
<trkpt lat="53.456332" lon="05.647193"><ele>4.8</ele><time>2021-02-17T12:44:13Z</time><name>PT6145</name></trkpt>
<trkpt lat="53.456333" lon="05.647193"><ele>4.8</ele><time>2021-02-17T12:44:14Z</time><name>PT6146</name></trkpt>
<trkpt lat="53.456333" lon="05.647206"><ele>4.4</ele><time>2021-02-17T12:44:30Z</time><name>PT6147</name></trkpt>
<trkpt lat="53.456334" lon="05.647215"><ele>4.3</ele><time>2021-02-17T12:44:31Z</time><name>PT6148</name></trkpt>
<trkpt lat="53.456335" lon="05.647220"><ele>4.1</ele><time>2021-02-17T12:44:32Z</time><name>PT6149</name></trkpt>
<trkpt lat="53.456334" lon="05.647219"><ele>3.9</ele><time>2021-02-17T12:44:33Z</time><name>PT6150</name></trkpt>
<trkpt lat="53.456337" lon="05.647218"><ele>3.9</ele><time>2021-02-17T12:44:34Z</time><name>PT6151</name></trkpt>
<trkpt lat="53.456336" lon="05.647221"><ele>3.9</ele><time>2021-02-17T12:44:35Z</time><name>PT6152</name></trkpt>
<trkpt lat="53.456337" lon="05.647220"><ele>3.9</ele><time>2021-02-17T12:44:36Z</time><name>PT6153</name></trkpt>
<trkpt lat="53.456337" lon="05.647220"><ele>4</ele><time>2021-02-17T12:44:37Z</time><name>PT6154</name></trkpt>
<trkpt lat="53.456338" lon="05.647212"><ele>4.8</ele><time>2021-02-17T12:45:01Z</time><name>PT6155</name></trkpt>
<trkpt lat="53.456339" lon="05.647208"><ele>4.8</ele><time>2021-02-17T12:45:02Z</time><name>PT6156</name></trkpt>
<trkpt lat="53.456341" lon="05.647209"><ele>4.6</ele><time>2021-02-17T12:45:03Z</time><name>PT6157</name></trkpt>
<trkpt lat="53.456349" lon="05.647211"><ele>5.6</ele><time>2021-02-17T12:45:56Z</time><name>PT6158</name></trkpt>
<trkpt lat="53.456355" lon="05.647211"><ele>5.8</ele><time>2021-02-17T12:45:57Z</time><name>PT6159</name></trkpt>
<trkpt lat="53.456360" lon="05.647209"><ele>7</ele><time>2021-02-17T12:46:05Z</time><name>PT6160</name></trkpt>
<trkpt lat="53.456366" lon="05.647209"><ele>6.8</ele><time>2021-02-17T12:46:06Z</time><name>PT6161</name></trkpt>
<trkpt lat="53.456372" lon="05.647217"><ele>6.8</ele><time>2021-02-17T12:46:07Z</time><name>PT6162</name></trkpt>
<trkpt lat="53.456373" lon="05.647215"><ele>6.4</ele><time>2021-02-17T12:46:08Z</time><name>PT6163</name></trkpt>
<trkpt lat="53.456376" lon="05.647214"><ele>6.5</ele><time>2021-02-17T12:46:09Z</time><name>PT6164</name></trkpt>
<trkpt lat="53.456378" lon="05.647217"><ele>6.5</ele><time>2021-02-17T12:46:10Z</time><name>PT6165</name></trkpt>
<trkpt lat="53.456382" lon="05.647218"><ele>6.4</ele><time>2021-02-17T12:46:11Z</time><name>PT6166</name></trkpt>
<trkpt lat="53.456389" lon="05.647216"><ele>6.4</ele><time>2021-02-17T12:46:12Z</time><name>PT6167</name></trkpt>
<trkpt lat="53.456394" lon="05.647216"><ele>6.5</ele><time>2021-02-17T12:46:13Z</time><name>PT6168</name></trkpt>
<trkpt lat="53.456403" lon="05.647213"><ele>6.3</ele><time>2021-02-17T12:46:14Z</time><name>PT6169</name></trkpt>
<trkpt lat="53.456413" lon="05.647211"><ele>6.2</ele><time>2021-02-17T12:46:15Z</time><name>PT6170</name></trkpt>
<trkpt lat="53.456421" lon="05.647210"><ele>6.3</ele><time>2021-02-17T12:46:16Z</time><name>PT6171</name></trkpt>
<trkpt lat="53.456428" lon="05.647212"><ele>6.1</ele><time>2021-02-17T12:46:17Z</time><name>PT6172</name></trkpt>
<trkpt lat="53.456437" lon="05.647208"><ele>6.1</ele><time>2021-02-17T12:46:18Z</time><name>PT6173</name></trkpt>
<trkpt lat="53.456447" lon="05.647202"><ele>6.1</ele><time>2021-02-17T12:46:19Z</time><name>PT6174</name></trkpt>
<trkpt lat="53.456466" lon="05.647192"><ele>6</ele><time>2021-02-17T12:46:20Z</time><name>PT6175</name></trkpt>
<trkpt lat="53.456475" lon="05.647181"><ele>5.8</ele><time>2021-02-17T12:46:21Z</time><name>PT6176</name></trkpt>
<trkpt lat="53.456484" lon="05.647173"><ele>5.8</ele><time>2021-02-17T12:46:22Z</time><name>PT6177</name></trkpt>
<trkpt lat="53.456493" lon="05.647169"><ele>5.8</ele><time>2021-02-17T12:46:23Z</time><name>PT6178</name></trkpt>
<trkpt lat="53.456499" lon="05.647160"><ele>5.8</ele><time>2021-02-17T12:46:24Z</time><name>PT6179</name></trkpt>
<trkpt lat="53.456504" lon="05.647153"><ele>6</ele><time>2021-02-17T12:46:25Z</time><name>PT6180</name></trkpt>
<trkpt lat="53.456506" lon="05.647140"><ele>6</ele><time>2021-02-17T12:46:26Z</time><name>PT6181</name></trkpt>
<trkpt lat="53.456511" lon="05.647133"><ele>6</ele><time>2021-02-17T12:46:27Z</time><name>PT6182</name></trkpt>
<trkpt lat="53.456515" lon="05.647126"><ele>5.8</ele><time>2021-02-17T12:46:28Z</time><name>PT6183</name></trkpt>
<trkpt lat="53.456521" lon="05.647119"><ele>5.8</ele><time>2021-02-17T12:46:29Z</time><name>PT6184</name></trkpt>
<trkpt lat="53.456526" lon="05.647109"><ele>5.8</ele><time>2021-02-17T12:46:30Z</time><name>PT6185</name></trkpt>
<trkpt lat="53.456531" lon="05.647098"><ele>5.7</ele><time>2021-02-17T12:46:31Z</time><name>PT6186</name></trkpt>
<trkpt lat="53.456535" lon="05.647088"><ele>5.7</ele><time>2021-02-17T12:46:32Z</time><name>PT6187</name></trkpt>
<trkpt lat="53.456541" lon="05.647080"><ele>5.6</ele><time>2021-02-17T12:46:33Z</time><name>PT6188</name></trkpt>
<trkpt lat="53.456547" lon="05.647070"><ele>5.5</ele><time>2021-02-17T12:46:34Z</time><name>PT6189</name></trkpt>
<trkpt lat="53.456551" lon="05.647063"><ele>5.6</ele><time>2021-02-17T12:46:35Z</time><name>PT6190</name></trkpt>
<trkpt lat="53.456552" lon="05.647057"><ele>5.8</ele><time>2021-02-17T12:46:36Z</time><name>PT6191</name></trkpt>
<trkpt lat="53.456556" lon="05.647049"><ele>5.8</ele><time>2021-02-17T12:46:37Z</time><name>PT6192</name></trkpt>
<trkpt lat="53.456561" lon="05.647039"><ele>5.9</ele><time>2021-02-17T12:46:38Z</time><name>PT6193</name></trkpt>
<trkpt lat="53.456568" lon="05.647027"><ele>6.1</ele><time>2021-02-17T12:46:39Z</time><name>PT6194</name></trkpt>
<trkpt lat="53.456572" lon="05.647018"><ele>6.2</ele><time>2021-02-17T12:46:40Z</time><name>PT6195</name></trkpt>
<trkpt lat="53.456575" lon="05.647012"><ele>6.4</ele><time>2021-02-17T12:46:41Z</time><name>PT6196</name></trkpt>
<trkpt lat="53.456580" lon="05.647004"><ele>6.7</ele><time>2021-02-17T12:46:42Z</time><name>PT6197</name></trkpt>
<trkpt lat="53.456586" lon="05.646991"><ele>6.8</ele><time>2021-02-17T12:46:43Z</time><name>PT6198</name></trkpt>
<trkpt lat="53.456594" lon="05.646978"><ele>6.8</ele><time>2021-02-17T12:46:44Z</time><name>PT6199</name></trkpt>
<trkpt lat="53.456603" lon="05.646968"><ele>6.8</ele><time>2021-02-17T12:46:45Z</time><name>PT6200</name></trkpt>
<trkpt lat="53.456610" lon="05.646954"><ele>6.5</ele><time>2021-02-17T12:46:46Z</time><name>PT6201</name></trkpt>
<trkpt lat="53.456615" lon="05.646939"><ele>6.4</ele><time>2021-02-17T12:46:47Z</time><name>PT6202</name></trkpt>
<trkpt lat="53.456619" lon="05.646926"><ele>6.3</ele><time>2021-02-17T12:46:48Z</time><name>PT6203</name></trkpt>
<trkpt lat="53.456623" lon="05.646916"><ele>6.3</ele><time>2021-02-17T12:46:49Z</time><name>PT6204</name></trkpt>
<trkpt lat="53.456630" lon="05.646906"><ele>6.3</ele><time>2021-02-17T12:46:50Z</time><name>PT6205</name></trkpt>
<trkpt lat="53.456640" lon="05.646897"><ele>6.5</ele><time>2021-02-17T12:46:51Z</time><name>PT6206</name></trkpt>
<trkpt lat="53.456649" lon="05.646890"><ele>6.4</ele><time>2021-02-17T12:46:52Z</time><name>PT6207</name></trkpt>
<trkpt lat="53.456656" lon="05.646883"><ele>6.6</ele><time>2021-02-17T12:46:53Z</time><name>PT6208</name></trkpt>
<trkpt lat="53.456663" lon="05.646878"><ele>6.7</ele><time>2021-02-17T12:46:54Z</time><name>PT6209</name></trkpt>
<trkpt lat="53.456671" lon="05.646875"><ele>6.9</ele><time>2021-02-17T12:46:55Z</time><name>PT6210</name></trkpt>
<trkpt lat="53.456678" lon="05.646874"><ele>6.9</ele><time>2021-02-17T12:46:56Z</time><name>PT6211</name></trkpt>
<trkpt lat="53.456688" lon="05.646871"><ele>7.1</ele><time>2021-02-17T12:46:57Z</time><name>PT6212</name></trkpt>
<trkpt lat="53.456698" lon="05.646868"><ele>6.9</ele><time>2021-02-17T12:46:58Z</time><name>PT6213</name></trkpt>
<trkpt lat="53.456711" lon="05.646863"><ele>6.9</ele><time>2021-02-17T12:46:59Z</time><name>PT6214</name></trkpt>
<trkpt lat="53.456722" lon="05.646857"><ele>6.8</ele><time>2021-02-17T12:47:00Z</time><name>PT6215</name></trkpt>
<trkpt lat="53.456729" lon="05.646852"><ele>6.5</ele><time>2021-02-17T12:47:01Z</time><name>PT6216</name></trkpt>
<trkpt lat="53.456736" lon="05.646846"><ele>6.6</ele><time>2021-02-17T12:47:02Z</time><name>PT6217</name></trkpt>
<trkpt lat="53.456742" lon="05.646840"><ele>6.5</ele><time>2021-02-17T12:47:03Z</time><name>PT6218</name></trkpt>
<trkpt lat="53.456748" lon="05.646836"><ele>6.5</ele><time>2021-02-17T12:47:04Z</time><name>PT6219</name></trkpt>
<trkpt lat="53.456755" lon="05.646835"><ele>6.8</ele><time>2021-02-17T12:47:05Z</time><name>PT6220</name></trkpt>
<trkpt lat="53.456763" lon="05.646834"><ele>6.7</ele><time>2021-02-17T12:47:06Z</time><name>PT6221</name></trkpt>
<trkpt lat="53.456772" lon="05.646832"><ele>6.5</ele><time>2021-02-17T12:47:07Z</time><name>PT6222</name></trkpt>
<trkpt lat="53.456783" lon="05.646830"><ele>6.3</ele><time>2021-02-17T12:47:08Z</time><name>PT6223</name></trkpt>
<trkpt lat="53.456792" lon="05.646826"><ele>6.2</ele><time>2021-02-17T12:47:09Z</time><name>PT6224</name></trkpt>
<trkpt lat="53.456798" lon="05.646824"><ele>6.1</ele><time>2021-02-17T12:47:10Z</time><name>PT6225</name></trkpt>
<trkpt lat="53.456808" lon="05.646823"><ele>6.1</ele><time>2021-02-17T12:47:11Z</time><name>PT6226</name></trkpt>
<trkpt lat="53.456818" lon="05.646822"><ele>6.1</ele><time>2021-02-17T12:47:12Z</time><name>PT6227</name></trkpt>
<trkpt lat="53.456827" lon="05.646821"><ele>5.9</ele><time>2021-02-17T12:47:13Z</time><name>PT6228</name></trkpt>
<trkpt lat="53.456836" lon="05.646818"><ele>5.8</ele><time>2021-02-17T12:47:14Z</time><name>PT6229</name></trkpt>
<trkpt lat="53.456849" lon="05.646813"><ele>5.8</ele><time>2021-02-17T12:47:15Z</time><name>PT6230</name></trkpt>
<trkpt lat="53.456859" lon="05.646809"><ele>5.4</ele><time>2021-02-17T12:47:16Z</time><name>PT6231</name></trkpt>
<trkpt lat="53.456869" lon="05.646804"><ele>5.5</ele><time>2021-02-17T12:47:17Z</time><name>PT6232</name></trkpt>
<trkpt lat="53.456877" lon="05.646802"><ele>5.4</ele><time>2021-02-17T12:47:18Z</time><name>PT6233</name></trkpt>
<trkpt lat="53.456886" lon="05.646801"><ele>5.5</ele><time>2021-02-17T12:47:19Z</time><name>PT6234</name></trkpt>
<trkpt lat="53.456896" lon="05.646798"><ele>5.3</ele><time>2021-02-17T12:47:20Z</time><name>PT6235</name></trkpt>
<trkpt lat="53.456904" lon="05.646794"><ele>5.3</ele><time>2021-02-17T12:47:21Z</time><name>PT6236</name></trkpt>
<trkpt lat="53.456910" lon="05.646788"><ele>5.2</ele><time>2021-02-17T12:47:22Z</time><name>PT6237</name></trkpt>
<trkpt lat="53.456916" lon="05.646786"><ele>5.1</ele><time>2021-02-17T12:47:23Z</time><name>PT6238</name></trkpt>
<trkpt lat="53.456923" lon="05.646783"><ele>5</ele><time>2021-02-17T12:47:24Z</time><name>PT6239</name></trkpt>
<trkpt lat="53.456930" lon="05.646779"><ele>5.1</ele><time>2021-02-17T12:47:25Z</time><name>PT6240</name></trkpt>
<trkpt lat="53.456938" lon="05.646771"><ele>5.1</ele><time>2021-02-17T12:47:26Z</time><name>PT6241</name></trkpt>
<trkpt lat="53.456944" lon="05.646767"><ele>5</ele><time>2021-02-17T12:47:27Z</time><name>PT6242</name></trkpt>
<trkpt lat="53.456946" lon="05.646767"><ele>4.9</ele><time>2021-02-17T12:47:28Z</time><name>PT6243</name></trkpt>
<trkpt lat="53.456948" lon="05.646765"><ele>4.8</ele><time>2021-02-17T12:47:29Z</time><name>PT6244</name></trkpt>
<trkpt lat="53.456950" lon="05.646766"><ele>4.8</ele><time>2021-02-17T12:47:30Z</time><name>PT6245</name></trkpt>
<trkpt lat="53.456950" lon="05.646766"><ele>4.6</ele><time>2021-02-17T12:47:31Z</time><name>PT6246</name></trkpt>
<trkpt lat="53.456953" lon="05.646763"><ele>5</ele><time>2021-02-17T12:47:34Z</time><name>PT6247</name></trkpt>
<trkpt lat="53.456962" lon="05.646757"><ele>5.2</ele><time>2021-02-17T12:47:35Z</time><name>PT6248</name></trkpt>
<trkpt lat="53.456970" lon="05.646751"><ele>5.3</ele><time>2021-02-17T12:47:36Z</time><name>PT6249</name></trkpt>
<trkpt lat="53.456977" lon="05.646747"><ele>5.1</ele><time>2021-02-17T12:47:37Z</time><name>PT6250</name></trkpt>
<trkpt lat="53.456985" lon="05.646743"><ele>5.1</ele><time>2021-02-17T12:47:38Z</time><name>PT6251</name></trkpt>
<trkpt lat="53.456992" lon="05.646734"><ele>5</ele><time>2021-02-17T12:47:39Z</time><name>PT6252</name></trkpt>
<trkpt lat="53.457001" lon="05.646726"><ele>4.8</ele><time>2021-02-17T12:47:40Z</time><name>PT6253</name></trkpt>
<trkpt lat="53.457008" lon="05.646720"><ele>4.7</ele><time>2021-02-17T12:47:41Z</time><name>PT6254</name></trkpt>
<trkpt lat="53.457016" lon="05.646713"><ele>4.6</ele><time>2021-02-17T12:47:42Z</time><name>PT6255</name></trkpt>
<trkpt lat="53.457022" lon="05.646708"><ele>4.5</ele><time>2021-02-17T12:47:43Z</time><name>PT6256</name></trkpt>
<trkpt lat="53.457027" lon="05.646702"><ele>4.6</ele><time>2021-02-17T12:47:44Z</time><name>PT6257</name></trkpt>
<trkpt lat="53.457034" lon="05.646696"><ele>4.7</ele><time>2021-02-17T12:47:45Z</time><name>PT6258</name></trkpt>
<trkpt lat="53.457039" lon="05.646691"><ele>4.8</ele><time>2021-02-17T12:47:46Z</time><name>PT6259</name></trkpt>
<trkpt lat="53.457045" lon="05.646688"><ele>4.7</ele><time>2021-02-17T12:47:47Z</time><name>PT6260</name></trkpt>
<trkpt lat="53.457054" lon="05.646682"><ele>4.6</ele><time>2021-02-17T12:47:48Z</time><name>PT6261</name></trkpt>
<trkpt lat="53.457063" lon="05.646679"><ele>4.4</ele><time>2021-02-17T12:47:49Z</time><name>PT6262</name></trkpt>
<trkpt lat="53.457072" lon="05.646673"><ele>4.4</ele><time>2021-02-17T12:47:50Z</time><name>PT6263</name></trkpt>
<trkpt lat="53.457082" lon="05.646669"><ele>4.4</ele><time>2021-02-17T12:47:51Z</time><name>PT6264</name></trkpt>
<trkpt lat="53.457092" lon="05.646665"><ele>4.4</ele><time>2021-02-17T12:47:52Z</time><name>PT6265</name></trkpt>
<trkpt lat="53.457102" lon="05.646663"><ele>4.3</ele><time>2021-02-17T12:47:53Z</time><name>PT6266</name></trkpt>
<trkpt lat="53.457111" lon="05.646663"><ele>4.2</ele><time>2021-02-17T12:47:54Z</time><name>PT6267</name></trkpt>
<trkpt lat="53.457121" lon="05.646664"><ele>3.9</ele><time>2021-02-17T12:47:55Z</time><name>PT6268</name></trkpt>
<trkpt lat="53.457131" lon="05.646665"><ele>4</ele><time>2021-02-17T12:47:56Z</time><name>PT6269</name></trkpt>
<trkpt lat="53.457140" lon="05.646667"><ele>4</ele><time>2021-02-17T12:47:57Z</time><name>PT6270</name></trkpt>
<trkpt lat="53.457149" lon="05.646666"><ele>4.3</ele><time>2021-02-17T12:47:58Z</time><name>PT6271</name></trkpt>
<trkpt lat="53.457160" lon="05.646664"><ele>4.3</ele><time>2021-02-17T12:47:59Z</time><name>PT6272</name></trkpt>
<trkpt lat="53.457171" lon="05.646659"><ele>4.3</ele><time>2021-02-17T12:48:00Z</time><name>PT6273</name></trkpt>
<trkpt lat="53.457181" lon="05.646655"><ele>4.2</ele><time>2021-02-17T12:48:01Z</time><name>PT6274</name></trkpt>
<trkpt lat="53.457190" lon="05.646651"><ele>4.2</ele><time>2021-02-17T12:48:02Z</time><name>PT6275</name></trkpt>
<trkpt lat="53.457201" lon="05.646646"><ele>4.2</ele><time>2021-02-17T12:48:03Z</time><name>PT6276</name></trkpt>
<trkpt lat="53.457210" lon="05.646641"><ele>4.1</ele><time>2021-02-17T12:48:04Z</time><name>PT6277</name></trkpt>
<trkpt lat="53.457218" lon="05.646635"><ele>4.3</ele><time>2021-02-17T12:48:05Z</time><name>PT6278</name></trkpt>
<trkpt lat="53.457229" lon="05.646627"><ele>4.4</ele><time>2021-02-17T12:48:06Z</time><name>PT6279</name></trkpt>
<trkpt lat="53.457238" lon="05.646620"><ele>4.4</ele><time>2021-02-17T12:48:07Z</time><name>PT6280</name></trkpt>
<trkpt lat="53.457245" lon="05.646614"><ele>4.6</ele><time>2021-02-17T12:48:08Z</time><name>PT6281</name></trkpt>
<trkpt lat="53.457254" lon="05.646610"><ele>4.7</ele><time>2021-02-17T12:48:09Z</time><name>PT6282</name></trkpt>
<trkpt lat="53.457263" lon="05.646606"><ele>4.6</ele><time>2021-02-17T12:48:10Z</time><name>PT6283</name></trkpt>
<trkpt lat="53.457271" lon="05.646603"><ele>4.6</ele><time>2021-02-17T12:48:11Z</time><name>PT6284</name></trkpt>
<trkpt lat="53.457281" lon="05.646601"><ele>4.6</ele><time>2021-02-17T12:48:12Z</time><name>PT6285</name></trkpt>
<trkpt lat="53.457291" lon="05.646599"><ele>4.7</ele><time>2021-02-17T12:48:13Z</time><name>PT6286</name></trkpt>
<trkpt lat="53.457301" lon="05.646597"><ele>4.8</ele><time>2021-02-17T12:48:14Z</time><name>PT6287</name></trkpt>
<trkpt lat="53.457311" lon="05.646596"><ele>4.9</ele><time>2021-02-17T12:48:15Z</time><name>PT6288</name></trkpt>
<trkpt lat="53.457319" lon="05.646599"><ele>5.2</ele><time>2021-02-17T12:48:16Z</time><name>PT6289</name></trkpt>
<trkpt lat="53.457330" lon="05.646600"><ele>5.3</ele><time>2021-02-17T12:48:17Z</time><name>PT6290</name></trkpt>
<trkpt lat="53.457340" lon="05.646599"><ele>5.4</ele><time>2021-02-17T12:48:18Z</time><name>PT6291</name></trkpt>
<trkpt lat="53.457350" lon="05.646597"><ele>5.5</ele><time>2021-02-17T12:48:19Z</time><name>PT6292</name></trkpt>
<trkpt lat="53.457359" lon="05.646595"><ele>5.5</ele><time>2021-02-17T12:48:20Z</time><name>PT6293</name></trkpt>
<trkpt lat="53.457363" lon="05.646596"><ele>5.5</ele><time>2021-02-17T12:48:21Z</time><name>PT6294</name></trkpt>
<trkpt lat="53.457371" lon="05.646600"><ele>5.5</ele><time>2021-02-17T12:48:22Z</time><name>PT6295</name></trkpt>
<trkpt lat="53.457381" lon="05.646600"><ele>5.6</ele><time>2021-02-17T12:48:23Z</time><name>PT6296</name></trkpt>
<trkpt lat="53.457393" lon="05.646597"><ele>5.6</ele><time>2021-02-17T12:48:24Z</time><name>PT6297</name></trkpt>
<trkpt lat="53.457401" lon="05.646597"><ele>5.5</ele><time>2021-02-17T12:48:25Z</time><name>PT6298</name></trkpt>
<trkpt lat="53.457412" lon="05.646595"><ele>5.5</ele><time>2021-02-17T12:48:26Z</time><name>PT6299</name></trkpt>
<trkpt lat="53.457420" lon="05.646593"><ele>5.4</ele><time>2021-02-17T12:48:27Z</time><name>PT6300</name></trkpt>
<trkpt lat="53.457428" lon="05.646594"><ele>5.6</ele><time>2021-02-17T12:48:28Z</time><name>PT6301</name></trkpt>
<trkpt lat="53.457437" lon="05.646593"><ele>5.7</ele><time>2021-02-17T12:48:29Z</time><name>PT6302</name></trkpt>
<trkpt lat="53.457446" lon="05.646591"><ele>5.6</ele><time>2021-02-17T12:48:30Z</time><name>PT6303</name></trkpt>
<trkpt lat="53.457454" lon="05.646586"><ele>5.4</ele><time>2021-02-17T12:48:31Z</time><name>PT6304</name></trkpt>
<trkpt lat="53.457465" lon="05.646580"><ele>5.2</ele><time>2021-02-17T12:48:32Z</time><name>PT6305</name></trkpt>
<trkpt lat="53.457474" lon="05.646576"><ele>5.3</ele><time>2021-02-17T12:48:33Z</time><name>PT6306</name></trkpt>
<trkpt lat="53.457484" lon="05.646572"><ele>5.7</ele><time>2021-02-17T12:48:34Z</time><name>PT6307</name></trkpt>
<trkpt lat="53.457490" lon="05.646572"><ele>5.9</ele><time>2021-02-17T12:48:35Z</time><name>PT6308</name></trkpt>
<trkpt lat="53.457498" lon="05.646573"><ele>5.9</ele><time>2021-02-17T12:48:36Z</time><name>PT6309</name></trkpt>
<trkpt lat="53.457506" lon="05.646576"><ele>6.2</ele><time>2021-02-17T12:48:37Z</time><name>PT6310</name></trkpt>
<trkpt lat="53.457518" lon="05.646578"><ele>6.2</ele><time>2021-02-17T12:48:38Z</time><name>PT6311</name></trkpt>
<trkpt lat="53.457530" lon="05.646578"><ele>6.4</ele><time>2021-02-17T12:48:39Z</time><name>PT6312</name></trkpt>
<trkpt lat="53.457539" lon="05.646579"><ele>6.6</ele><time>2021-02-17T12:48:40Z</time><name>PT6313</name></trkpt>
<trkpt lat="53.457546" lon="05.646582"><ele>6.8</ele><time>2021-02-17T12:48:41Z</time><name>PT6314</name></trkpt>
<trkpt lat="53.457556" lon="05.646584"><ele>6.7</ele><time>2021-02-17T12:48:42Z</time><name>PT6315</name></trkpt>
<trkpt lat="53.457564" lon="05.646580"><ele>6.8</ele><time>2021-02-17T12:48:43Z</time><name>PT6316</name></trkpt>
<trkpt lat="53.457574" lon="05.646577"><ele>6.8</ele><time>2021-02-17T12:48:44Z</time><name>PT6317</name></trkpt>
<trkpt lat="53.457583" lon="05.646576"><ele>6.8</ele><time>2021-02-17T12:48:45Z</time><name>PT6318</name></trkpt>
<trkpt lat="53.457592" lon="05.646572"><ele>6.8</ele><time>2021-02-17T12:48:46Z</time><name>PT6319</name></trkpt>
<trkpt lat="53.457602" lon="05.646569"><ele>6.8</ele><time>2021-02-17T12:48:47Z</time><name>PT6320</name></trkpt>
<trkpt lat="53.457611" lon="05.646563"><ele>6.8</ele><time>2021-02-17T12:48:48Z</time><name>PT6321</name></trkpt>
<trkpt lat="53.457619" lon="05.646555"><ele>6.8</ele><time>2021-02-17T12:48:49Z</time><name>PT6322</name></trkpt>
<trkpt lat="53.457628" lon="05.646546"><ele>7</ele><time>2021-02-17T12:48:50Z</time><name>PT6323</name></trkpt>
<trkpt lat="53.457637" lon="05.646540"><ele>7.1</ele><time>2021-02-17T12:48:51Z</time><name>PT6324</name></trkpt>
<trkpt lat="53.457645" lon="05.646537"><ele>7.4</ele><time>2021-02-17T12:48:52Z</time><name>PT6325</name></trkpt>
<trkpt lat="53.457654" lon="05.646535"><ele>7.8</ele><time>2021-02-17T12:48:53Z</time><name>PT6326</name></trkpt>
<trkpt lat="53.457663" lon="05.646531"><ele>7.9</ele><time>2021-02-17T12:48:54Z</time><name>PT6327</name></trkpt>
<trkpt lat="53.457671" lon="05.646528"><ele>8.1</ele><time>2021-02-17T12:48:55Z</time><name>PT6328</name></trkpt>
<trkpt lat="53.457681" lon="05.646523"><ele>8.1</ele><time>2021-02-17T12:48:56Z</time><name>PT6329</name></trkpt>
<trkpt lat="53.457689" lon="05.646522"><ele>8.2</ele><time>2021-02-17T12:48:57Z</time><name>PT6330</name></trkpt>
<trkpt lat="53.457698" lon="05.646520"><ele>8.2</ele><time>2021-02-17T12:48:58Z</time><name>PT6331</name></trkpt>
<trkpt lat="53.457708" lon="05.646517"><ele>8.4</ele><time>2021-02-17T12:48:59Z</time><name>PT6332</name></trkpt>
<trkpt lat="53.457717" lon="05.646512"><ele>8.7</ele><time>2021-02-17T12:49:00Z</time><name>PT6333</name></trkpt>
<trkpt lat="53.457726" lon="05.646508"><ele>8.8</ele><time>2021-02-17T12:49:01Z</time><name>PT6334</name></trkpt>
<trkpt lat="53.457735" lon="05.646503"><ele>9.1</ele><time>2021-02-17T12:49:02Z</time><name>PT6335</name></trkpt>
<trkpt lat="53.457743" lon="05.646500"><ele>9.2</ele><time>2021-02-17T12:49:03Z</time><name>PT6336</name></trkpt>
<trkpt lat="53.457751" lon="05.646499"><ele>9.3</ele><time>2021-02-17T12:49:04Z</time><name>PT6337</name></trkpt>
<trkpt lat="53.457760" lon="05.646498"><ele>9.6</ele><time>2021-02-17T12:49:05Z</time><name>PT6338</name></trkpt>
<trkpt lat="53.457769" lon="05.646497"><ele>9.6</ele><time>2021-02-17T12:49:06Z</time><name>PT6339</name></trkpt>
<trkpt lat="53.457779" lon="05.646495"><ele>9.7</ele><time>2021-02-17T12:49:07Z</time><name>PT6340</name></trkpt>
<trkpt lat="53.457789" lon="05.646497"><ele>9.7</ele><time>2021-02-17T12:49:08Z</time><name>PT6341</name></trkpt>
<trkpt lat="53.457796" lon="05.646497"><ele>9.7</ele><time>2021-02-17T12:49:09Z</time><name>PT6342</name></trkpt>
<trkpt lat="53.457806" lon="05.646495"><ele>9.8</ele><time>2021-02-17T12:49:10Z</time><name>PT6343</name></trkpt>
<trkpt lat="53.457815" lon="05.646490"><ele>9.7</ele><time>2021-02-17T12:49:11Z</time><name>PT6344</name></trkpt>
<trkpt lat="53.457822" lon="05.646485"><ele>9.8</ele><time>2021-02-17T12:49:12Z</time><name>PT6345</name></trkpt>
<trkpt lat="53.457830" lon="05.646483"><ele>10</ele><time>2021-02-17T12:49:13Z</time><name>PT6346</name></trkpt>
<trkpt lat="53.457839" lon="05.646484"><ele>10.2</ele><time>2021-02-17T12:49:14Z</time><name>PT6347</name></trkpt>
<trkpt lat="53.457845" lon="05.646487"><ele>10.5</ele><time>2021-02-17T12:49:15Z</time><name>PT6348</name></trkpt>
<trkpt lat="53.457854" lon="05.646488"><ele>10.7</ele><time>2021-02-17T12:49:16Z</time><name>PT6349</name></trkpt>
<trkpt lat="53.457862" lon="05.646489"><ele>11</ele><time>2021-02-17T12:49:17Z</time><name>PT6350</name></trkpt>
<trkpt lat="53.457869" lon="05.646491"><ele>11.1</ele><time>2021-02-17T12:49:18Z</time><name>PT6351</name></trkpt>
<trkpt lat="53.457879" lon="05.646489"><ele>11.2</ele><time>2021-02-17T12:49:19Z</time><name>PT6352</name></trkpt>
<trkpt lat="53.457889" lon="05.646488"><ele>11.2</ele><time>2021-02-17T12:49:20Z</time><name>PT6353</name></trkpt>
<trkpt lat="53.457897" lon="05.646486"><ele>11.5</ele><time>2021-02-17T12:49:21Z</time><name>PT6354</name></trkpt>
<trkpt lat="53.457905" lon="05.646483"><ele>11.7</ele><time>2021-02-17T12:49:22Z</time><name>PT6355</name></trkpt>
<trkpt lat="53.457911" lon="05.646479"><ele>11.7</ele><time>2021-02-17T12:49:23Z</time><name>PT6356</name></trkpt>
<trkpt lat="53.457919" lon="05.646473"><ele>11.9</ele><time>2021-02-17T12:49:24Z</time><name>PT6357</name></trkpt>
<trkpt lat="53.457926" lon="05.646469"><ele>12.1</ele><time>2021-02-17T12:49:25Z</time><name>PT6358</name></trkpt>
<trkpt lat="53.457933" lon="05.646465"><ele>12.1</ele><time>2021-02-17T12:49:26Z</time><name>PT6359</name></trkpt>
<trkpt lat="53.457941" lon="05.646460"><ele>12.1</ele><time>2021-02-17T12:49:27Z</time><name>PT6360</name></trkpt>
<trkpt lat="53.457947" lon="05.646454"><ele>12.2</ele><time>2021-02-17T12:49:28Z</time><name>PT6361</name></trkpt>
<trkpt lat="53.457954" lon="05.646449"><ele>12.3</ele><time>2021-02-17T12:49:29Z</time><name>PT6362</name></trkpt>
<trkpt lat="53.457962" lon="05.646443"><ele>12.4</ele><time>2021-02-17T12:49:30Z</time><name>PT6363</name></trkpt>
<trkpt lat="53.457968" lon="05.646437"><ele>12.2</ele><time>2021-02-17T12:49:31Z</time><name>PT6364</name></trkpt>
<trkpt lat="53.457969" lon="05.646436"><ele>12.1</ele><time>2021-02-17T12:49:32Z</time><name>PT6365</name></trkpt>
<trkpt lat="53.457973" lon="05.646433"><ele>12.2</ele><time>2021-02-17T12:49:33Z</time><name>PT6366</name></trkpt>
<trkpt lat="53.457979" lon="05.646428"><ele>12.2</ele><time>2021-02-17T12:49:34Z</time><name>PT6367</name></trkpt>
<trkpt lat="53.457984" lon="05.646424"><ele>12.2</ele><time>2021-02-17T12:49:35Z</time><name>PT6368</name></trkpt>
<trkpt lat="53.457990" lon="05.646421"><ele>12.5</ele><time>2021-02-17T12:49:36Z</time><name>PT6369</name></trkpt>
<trkpt lat="53.457994" lon="05.646415"><ele>12.8</ele><time>2021-02-17T12:49:37Z</time><name>PT6370</name></trkpt>
<trkpt lat="53.458000" lon="05.646411"><ele>13.1</ele><time>2021-02-17T12:49:38Z</time><name>PT6371</name></trkpt>
<trkpt lat="53.458004" lon="05.646408"><ele>13.3</ele><time>2021-02-17T12:49:39Z</time><name>PT6372</name></trkpt>
<trkpt lat="53.458007" lon="05.646408"><ele>13.7</ele><time>2021-02-17T12:49:40Z</time><name>PT6373</name></trkpt>
<trkpt lat="53.458011" lon="05.646406"><ele>14</ele><time>2021-02-17T12:49:41Z</time><name>PT6374</name></trkpt>
<trkpt lat="53.458012" lon="05.646406"><ele>14.1</ele><time>2021-02-17T12:49:42Z</time><name>PT6375</name></trkpt>
<trkpt lat="53.458016" lon="05.646407"><ele>14.3</ele><time>2021-02-17T12:49:43Z</time><name>PT6376</name></trkpt>
<trkpt lat="53.458020" lon="05.646407"><ele>14.1</ele><time>2021-02-17T12:49:44Z</time><name>PT6377</name></trkpt>
<trkpt lat="53.458029" lon="05.646403"><ele>14.7</ele><time>2021-02-17T12:49:50Z</time><name>PT6378</name></trkpt>
<trkpt lat="53.458039" lon="05.646394"><ele>14.8</ele><time>2021-02-17T12:49:51Z</time><name>PT6379</name></trkpt>
<trkpt lat="53.458045" lon="05.646383"><ele>14.6</ele><time>2021-02-17T12:49:52Z</time><name>PT6380</name></trkpt>
<trkpt lat="53.458049" lon="05.646375"><ele>14.1</ele><time>2021-02-17T12:49:53Z</time><name>PT6381</name></trkpt>
<trkpt lat="53.458051" lon="05.646368"><ele>14.1</ele><time>2021-02-17T12:49:54Z</time><name>PT6382</name></trkpt>
<trkpt lat="53.458056" lon="05.646365"><ele>13.8</ele><time>2021-02-17T12:49:55Z</time><name>PT6383</name></trkpt>
<trkpt lat="53.458062" lon="05.646360"><ele>13.9</ele><time>2021-02-17T12:49:56Z</time><name>PT6384</name></trkpt>
<trkpt lat="53.458070" lon="05.646351"><ele>13.9</ele><time>2021-02-17T12:49:57Z</time><name>PT6385</name></trkpt>
<trkpt lat="53.458077" lon="05.646345"><ele>13.7</ele><time>2021-02-17T12:49:58Z</time><name>PT6386</name></trkpt>
<trkpt lat="53.458082" lon="05.646339"><ele>13.5</ele><time>2021-02-17T12:49:59Z</time><name>PT6387</name></trkpt>
<trkpt lat="53.458088" lon="05.646334"><ele>13.4</ele><time>2021-02-17T12:50:00Z</time><name>PT6388</name></trkpt>
<trkpt lat="53.458094" lon="05.646326"><ele>13.1</ele><time>2021-02-17T12:50:01Z</time><name>PT6389</name></trkpt>
<trkpt lat="53.458100" lon="05.646317"><ele>13.2</ele><time>2021-02-17T12:50:02Z</time><name>PT6390</name></trkpt>
<trkpt lat="53.458106" lon="05.646306"><ele>12.8</ele><time>2021-02-17T12:50:03Z</time><name>PT6391</name></trkpt>
<trkpt lat="53.458111" lon="05.646299"><ele>12.4</ele><time>2021-02-17T12:50:04Z</time><name>PT6392</name></trkpt>
<trkpt lat="53.458116" lon="05.646290"><ele>12.3</ele><time>2021-02-17T12:50:05Z</time><name>PT6393</name></trkpt>
<trkpt lat="53.458119" lon="05.646280"><ele>11.9</ele><time>2021-02-17T12:50:06Z</time><name>PT6394</name></trkpt>
<trkpt lat="53.458124" lon="05.646266"><ele>11.7</ele><time>2021-02-17T12:50:07Z</time><name>PT6395</name></trkpt>
<trkpt lat="53.458130" lon="05.646253"><ele>11.5</ele><time>2021-02-17T12:50:08Z</time><name>PT6396</name></trkpt>
<trkpt lat="53.458136" lon="05.646242"><ele>11.3</ele><time>2021-02-17T12:50:09Z</time><name>PT6397</name></trkpt>
<trkpt lat="53.458141" lon="05.646233"><ele>11.1</ele><time>2021-02-17T12:50:10Z</time><name>PT6398</name></trkpt>
<trkpt lat="53.458146" lon="05.646226"><ele>11.1</ele><time>2021-02-17T12:50:11Z</time><name>PT6399</name></trkpt>
<trkpt lat="53.458151" lon="05.646221"><ele>10.8</ele><time>2021-02-17T12:50:12Z</time><name>PT6400</name></trkpt>
<trkpt lat="53.458155" lon="05.646215"><ele>10.8</ele><time>2021-02-17T12:50:13Z</time><name>PT6401</name></trkpt>
<trkpt lat="53.458159" lon="05.646210"><ele>10.7</ele><time>2021-02-17T12:50:14Z</time><name>PT6402</name></trkpt>
<trkpt lat="53.458165" lon="05.646205"><ele>10.7</ele><time>2021-02-17T12:50:15Z</time><name>PT6403</name></trkpt>
<trkpt lat="53.458173" lon="05.646198"><ele>10.4</ele><time>2021-02-17T12:50:16Z</time><name>PT6404</name></trkpt>
<trkpt lat="53.458177" lon="05.646190"><ele>10.2</ele><time>2021-02-17T12:50:17Z</time><name>PT6405</name></trkpt>
<trkpt lat="53.458185" lon="05.646181"><ele>9.9</ele><time>2021-02-17T12:50:18Z</time><name>PT6406</name></trkpt>
<trkpt lat="53.458193" lon="05.646171"><ele>9.7</ele><time>2021-02-17T12:50:19Z</time><name>PT6407</name></trkpt>
<trkpt lat="53.458195" lon="05.646168"><ele>9.7</ele><time>2021-02-17T12:50:20Z</time><name>PT6408</name></trkpt>
<trkpt lat="53.458199" lon="05.646163"><ele>9.5</ele><time>2021-02-17T12:50:21Z</time><name>PT6409</name></trkpt>
<trkpt lat="53.458203" lon="05.646156"><ele>9.6</ele><time>2021-02-17T12:50:22Z</time><name>PT6410</name></trkpt>
<trkpt lat="53.458209" lon="05.646150"><ele>9.3</ele><time>2021-02-17T12:50:23Z</time><name>PT6411</name></trkpt>
<trkpt lat="53.458216" lon="05.646145"><ele>9.2</ele><time>2021-02-17T12:50:24Z</time><name>PT6412</name></trkpt>
<trkpt lat="53.458221" lon="05.646142"><ele>8.8</ele><time>2021-02-17T12:50:25Z</time><name>PT6413</name></trkpt>
<trkpt lat="53.458226" lon="05.646136"><ele>8.7</ele><time>2021-02-17T12:50:26Z</time><name>PT6414</name></trkpt>
<trkpt lat="53.458230" lon="05.646128"><ele>8.7</ele><time>2021-02-17T12:50:27Z</time><name>PT6415</name></trkpt>
<trkpt lat="53.458236" lon="05.646122"><ele>8.6</ele><time>2021-02-17T12:50:28Z</time><name>PT6416</name></trkpt>
<trkpt lat="53.458243" lon="05.646119"><ele>8.6</ele><time>2021-02-17T12:50:29Z</time><name>PT6417</name></trkpt>
<trkpt lat="53.458251" lon="05.646116"><ele>8.7</ele><time>2021-02-17T12:50:30Z</time><name>PT6418</name></trkpt>
<trkpt lat="53.458260" lon="05.646109"><ele>8.5</ele><time>2021-02-17T12:50:31Z</time><name>PT6419</name></trkpt>
<trkpt lat="53.458270" lon="05.646102"><ele>8.7</ele><time>2021-02-17T12:50:32Z</time><name>PT6420</name></trkpt>
<trkpt lat="53.458279" lon="05.646095"><ele>8.6</ele><time>2021-02-17T12:50:33Z</time><name>PT6421</name></trkpt>
<trkpt lat="53.458287" lon="05.646088"><ele>8.3</ele><time>2021-02-17T12:50:34Z</time><name>PT6422</name></trkpt>
<trkpt lat="53.458295" lon="05.646083"><ele>8.5</ele><time>2021-02-17T12:50:35Z</time><name>PT6423</name></trkpt>
<trkpt lat="53.458302" lon="05.646080"><ele>8.6</ele><time>2021-02-17T12:50:36Z</time><name>PT6424</name></trkpt>
<trkpt lat="53.458309" lon="05.646079"><ele>8.7</ele><time>2021-02-17T12:50:37Z</time><name>PT6425</name></trkpt>
<trkpt lat="53.458316" lon="05.646076"><ele>9</ele><time>2021-02-17T12:50:38Z</time><name>PT6426</name></trkpt>
<trkpt lat="53.458325" lon="05.646073"><ele>9.1</ele><time>2021-02-17T12:50:39Z</time><name>PT6427</name></trkpt>
<trkpt lat="53.458335" lon="05.646068"><ele>8.8</ele><time>2021-02-17T12:50:40Z</time><name>PT6428</name></trkpt>
<trkpt lat="53.458347" lon="05.646059"><ele>8.6</ele><time>2021-02-17T12:50:41Z</time><name>PT6429</name></trkpt>
<trkpt lat="53.458359" lon="05.646046"><ele>8.2</ele><time>2021-02-17T12:50:42Z</time><name>PT6430</name></trkpt>
<trkpt lat="53.458365" lon="05.646034"><ele>7.8</ele><time>2021-02-17T12:50:43Z</time><name>PT6431</name></trkpt>
<trkpt lat="53.458372" lon="05.646019"><ele>7.6</ele><time>2021-02-17T12:50:44Z</time><name>PT6432</name></trkpt>
<trkpt lat="53.458380" lon="05.646003"><ele>7.3</ele><time>2021-02-17T12:50:45Z</time><name>PT6433</name></trkpt>
<trkpt lat="53.458387" lon="05.645990"><ele>7.2</ele><time>2021-02-17T12:50:46Z</time><name>PT6434</name></trkpt>
<trkpt lat="53.458394" lon="05.645982"><ele>7.1</ele><time>2021-02-17T12:50:47Z</time><name>PT6435</name></trkpt>
<trkpt lat="53.458400" lon="05.645976"><ele>7</ele><time>2021-02-17T12:50:48Z</time><name>PT6436</name></trkpt>
<trkpt lat="53.458405" lon="05.645972"><ele>6.9</ele><time>2021-02-17T12:50:49Z</time><name>PT6437</name></trkpt>
<trkpt lat="53.458413" lon="05.645966"><ele>7.2</ele><time>2021-02-17T12:50:50Z</time><name>PT6438</name></trkpt>
<trkpt lat="53.458420" lon="05.645960"><ele>7.3</ele><time>2021-02-17T12:50:51Z</time><name>PT6439</name></trkpt>
<trkpt lat="53.458428" lon="05.645956"><ele>7.7</ele><time>2021-02-17T12:50:52Z</time><name>PT6440</name></trkpt>
<trkpt lat="53.458438" lon="05.645951"><ele>7.9</ele><time>2021-02-17T12:50:53Z</time><name>PT6441</name></trkpt>
<trkpt lat="53.458447" lon="05.645948"><ele>8</ele><time>2021-02-17T12:50:54Z</time><name>PT6442</name></trkpt>
<trkpt lat="53.458458" lon="05.645943"><ele>8.1</ele><time>2021-02-17T12:50:55Z</time><name>PT6443</name></trkpt>
<trkpt lat="53.458467" lon="05.645937"><ele>7.9</ele><time>2021-02-17T12:50:56Z</time><name>PT6444</name></trkpt>
<trkpt lat="53.458476" lon="05.645931"><ele>7.9</ele><time>2021-02-17T12:50:57Z</time><name>PT6445</name></trkpt>
<trkpt lat="53.458484" lon="05.645926"><ele>7.9</ele><time>2021-02-17T12:50:58Z</time><name>PT6446</name></trkpt>
<trkpt lat="53.458491" lon="05.645923"><ele>7.8</ele><time>2021-02-17T12:50:59Z</time><name>PT6447</name></trkpt>
<trkpt lat="53.458501" lon="05.645921"><ele>7.8</ele><time>2021-02-17T12:51:00Z</time><name>PT6448</name></trkpt>
<trkpt lat="53.458511" lon="05.645920"><ele>7.9</ele><time>2021-02-17T12:51:01Z</time><name>PT6449</name></trkpt>
<trkpt lat="53.458519" lon="05.645918"><ele>8.1</ele><time>2021-02-17T12:51:02Z</time><name>PT6450</name></trkpt>
<trkpt lat="53.458527" lon="05.645916"><ele>8.4</ele><time>2021-02-17T12:51:03Z</time><name>PT6451</name></trkpt>
<trkpt lat="53.458537" lon="05.645912"><ele>8.6</ele><time>2021-02-17T12:51:04Z</time><name>PT6452</name></trkpt>
<trkpt lat="53.458545" lon="05.645908"><ele>8.9</ele><time>2021-02-17T12:51:05Z</time><name>PT6453</name></trkpt>
<trkpt lat="53.458553" lon="05.645907"><ele>9</ele><time>2021-02-17T12:51:06Z</time><name>PT6454</name></trkpt>
<trkpt lat="53.458562" lon="05.645908"><ele>9.1</ele><time>2021-02-17T12:51:07Z</time><name>PT6455</name></trkpt>
<trkpt lat="53.458573" lon="05.645905"><ele>9.2</ele><time>2021-02-17T12:51:08Z</time><name>PT6456</name></trkpt>
<trkpt lat="53.458582" lon="05.645902"><ele>9.2</ele><time>2021-02-17T12:51:09Z</time><name>PT6457</name></trkpt>
<trkpt lat="53.458592" lon="05.645899"><ele>9.3</ele><time>2021-02-17T12:51:10Z</time><name>PT6458</name></trkpt>
<trkpt lat="53.458599" lon="05.645894"><ele>9.4</ele><time>2021-02-17T12:51:11Z</time><name>PT6459</name></trkpt>
<trkpt lat="53.458605" lon="05.645892"><ele>9.3</ele><time>2021-02-17T12:51:12Z</time><name>PT6460</name></trkpt>
<trkpt lat="53.458611" lon="05.645889"><ele>9.6</ele><time>2021-02-17T12:51:13Z</time><name>PT6461</name></trkpt>
<trkpt lat="53.458617" lon="05.645885"><ele>9.8</ele><time>2021-02-17T12:51:14Z</time><name>PT6462</name></trkpt>
<trkpt lat="53.458623" lon="05.645878"><ele>10</ele><time>2021-02-17T12:51:15Z</time><name>PT6463</name></trkpt>
<trkpt lat="53.458631" lon="05.645874"><ele>10.2</ele><time>2021-02-17T12:51:16Z</time><name>PT6464</name></trkpt>
<trkpt lat="53.458639" lon="05.645872"><ele>10.6</ele><time>2021-02-17T12:51:17Z</time><name>PT6465</name></trkpt>
<trkpt lat="53.458649" lon="05.645868"><ele>10.7</ele><time>2021-02-17T12:51:18Z</time><name>PT6466</name></trkpt>
<trkpt lat="53.458658" lon="05.645863"><ele>10.6</ele><time>2021-02-17T12:51:19Z</time><name>PT6467</name></trkpt>
<trkpt lat="53.458669" lon="05.645858"><ele>10.2</ele><time>2021-02-17T12:51:20Z</time><name>PT6468</name></trkpt>
<trkpt lat="53.458682" lon="05.645853"><ele>10.1</ele><time>2021-02-17T12:51:21Z</time><name>PT6469</name></trkpt>
<trkpt lat="53.458696" lon="05.645848"><ele>9.7</ele><time>2021-02-17T12:51:22Z</time><name>PT6470</name></trkpt>
<trkpt lat="53.458707" lon="05.645844"><ele>9.3</ele><time>2021-02-17T12:51:23Z</time><name>PT6471</name></trkpt>
<trkpt lat="53.458716" lon="05.645840"><ele>9.3</ele><time>2021-02-17T12:51:24Z</time><name>PT6472</name></trkpt>
<trkpt lat="53.458723" lon="05.645835"><ele>9.3</ele><time>2021-02-17T12:51:25Z</time><name>PT6473</name></trkpt>
<trkpt lat="53.458729" lon="05.645831"><ele>9.3</ele><time>2021-02-17T12:51:26Z</time><name>PT6474</name></trkpt>
<trkpt lat="53.458735" lon="05.645827"><ele>9.5</ele><time>2021-02-17T12:51:27Z</time><name>PT6475</name></trkpt>
<trkpt lat="53.458743" lon="05.645824"><ele>9.6</ele><time>2021-02-17T12:51:28Z</time><name>PT6476</name></trkpt>
<trkpt lat="53.458749" lon="05.645818"><ele>9.7</ele><time>2021-02-17T12:51:29Z</time><name>PT6477</name></trkpt>
<trkpt lat="53.458757" lon="05.645808"><ele>9.7</ele><time>2021-02-17T12:51:30Z</time><name>PT6478</name></trkpt>
<trkpt lat="53.458765" lon="05.645799"><ele>9.5</ele><time>2021-02-17T12:51:31Z</time><name>PT6479</name></trkpt>
<trkpt lat="53.458771" lon="05.645790"><ele>9.2</ele><time>2021-02-17T12:51:32Z</time><name>PT6480</name></trkpt>
<trkpt lat="53.458779" lon="05.645782"><ele>9.2</ele><time>2021-02-17T12:51:33Z</time><name>PT6481</name></trkpt>
<trkpt lat="53.458788" lon="05.645776"><ele>9</ele><time>2021-02-17T12:51:34Z</time><name>PT6482</name></trkpt>
<trkpt lat="53.458795" lon="05.645771"><ele>9.1</ele><time>2021-02-17T12:51:35Z</time><name>PT6483</name></trkpt>
<trkpt lat="53.458800" lon="05.645765"><ele>9.1</ele><time>2021-02-17T12:51:36Z</time><name>PT6484</name></trkpt>
<trkpt lat="53.458811" lon="05.645757"><ele>9.2</ele><time>2021-02-17T12:51:37Z</time><name>PT6485</name></trkpt>
<trkpt lat="53.458820" lon="05.645749"><ele>9.3</ele><time>2021-02-17T12:51:38Z</time><name>PT6486</name></trkpt>
<trkpt lat="53.458827" lon="05.645745"><ele>9.2</ele><time>2021-02-17T12:51:39Z</time><name>PT6487</name></trkpt>
<trkpt lat="53.458835" lon="05.645745"><ele>9.4</ele><time>2021-02-17T12:51:40Z</time><name>PT6488</name></trkpt>
<trkpt lat="53.458844" lon="05.645740"><ele>9.2</ele><time>2021-02-17T12:51:41Z</time><name>PT6489</name></trkpt>
<trkpt lat="53.458849" lon="05.645735"><ele>9.2</ele><time>2021-02-17T12:51:42Z</time><name>PT6490</name></trkpt>
<trkpt lat="53.458856" lon="05.645728"><ele>9.2</ele><time>2021-02-17T12:51:43Z</time><name>PT6491</name></trkpt>
<trkpt lat="53.458860" lon="05.645716"><ele>9</ele><time>2021-02-17T12:51:44Z</time><name>PT6492</name></trkpt>
<trkpt lat="53.458864" lon="05.645706"><ele>8.9</ele><time>2021-02-17T12:51:45Z</time><name>PT6493</name></trkpt>
<trkpt lat="53.458870" lon="05.645698"><ele>8.9</ele><time>2021-02-17T12:51:46Z</time><name>PT6494</name></trkpt>
<trkpt lat="53.458876" lon="05.645690"><ele>8.9</ele><time>2021-02-17T12:51:47Z</time><name>PT6495</name></trkpt>
<trkpt lat="53.458882" lon="05.645684"><ele>8.9</ele><time>2021-02-17T12:51:48Z</time><name>PT6496</name></trkpt>
<trkpt lat="53.458889" lon="05.645678"><ele>9</ele><time>2021-02-17T12:51:49Z</time><name>PT6497</name></trkpt>
<trkpt lat="53.458898" lon="05.645669"><ele>9.3</ele><time>2021-02-17T12:51:50Z</time><name>PT6498</name></trkpt>
<trkpt lat="53.458906" lon="05.645661"><ele>9.2</ele><time>2021-02-17T12:51:51Z</time><name>PT6499</name></trkpt>
<trkpt lat="53.458916" lon="05.645649"><ele>9.3</ele><time>2021-02-17T12:51:52Z</time><name>PT6500</name></trkpt>
<trkpt lat="53.458924" lon="05.645644"><ele>9.4</ele><time>2021-02-17T12:51:53Z</time><name>PT6501</name></trkpt>
<trkpt lat="53.458930" lon="05.645643"><ele>9.2</ele><time>2021-02-17T12:51:54Z</time><name>PT6502</name></trkpt>
<trkpt lat="53.458935" lon="05.645638"><ele>9.3</ele><time>2021-02-17T12:51:55Z</time><name>PT6503</name></trkpt>
<trkpt lat="53.458943" lon="05.645630"><ele>9.3</ele><time>2021-02-17T12:51:56Z</time><name>PT6504</name></trkpt>
<trkpt lat="53.458947" lon="05.645626"><ele>9.3</ele><time>2021-02-17T12:51:57Z</time><name>PT6505</name></trkpt>
<trkpt lat="53.458951" lon="05.645623"><ele>9.3</ele><time>2021-02-17T12:51:58Z</time><name>PT6506</name></trkpt>
<trkpt lat="53.458957" lon="05.645623"><ele>9.4</ele><time>2021-02-17T12:51:59Z</time><name>PT6507</name></trkpt>
<trkpt lat="53.458963" lon="05.645623"><ele>9.3</ele><time>2021-02-17T12:52:00Z</time><name>PT6508</name></trkpt>
<trkpt lat="53.458967" lon="05.645621"><ele>9.3</ele><time>2021-02-17T12:52:01Z</time><name>PT6509</name></trkpt>
<trkpt lat="53.458970" lon="05.645620"><ele>9.6</ele><time>2021-02-17T12:52:02Z</time><name>PT6510</name></trkpt>
<trkpt lat="53.458972" lon="05.645622"><ele>9.4</ele><time>2021-02-17T12:52:03Z</time><name>PT6511</name></trkpt>
<trkpt lat="53.458973" lon="05.645622"><ele>9.2</ele><time>2021-02-17T12:52:04Z</time><name>PT6512</name></trkpt>
<trkpt lat="53.458973" lon="05.645623"><ele>9.2</ele><time>2021-02-17T12:52:05Z</time><name>PT6513</name></trkpt>
<trkpt lat="53.458977" lon="05.645621"><ele>8.9</ele><time>2021-02-17T12:52:06Z</time><name>PT6514</name></trkpt>
<trkpt lat="53.458979" lon="05.645623"><ele>8.7</ele><time>2021-02-17T12:52:07Z</time><name>PT6515</name></trkpt>
<trkpt lat="53.458982" lon="05.645624"><ele>9.2</ele><time>2021-02-17T12:52:08Z</time><name>PT6516</name></trkpt>
<trkpt lat="53.458984" lon="05.645626"><ele>9.2</ele><time>2021-02-17T12:52:09Z</time><name>PT6517</name></trkpt>
<trkpt lat="53.458989" lon="05.645629"><ele>9.3</ele><time>2021-02-17T12:52:10Z</time><name>PT6518</name></trkpt>
<trkpt lat="53.458991" lon="05.645630"><ele>9.5</ele><time>2021-02-17T12:52:11Z</time><name>PT6519</name></trkpt>
<trkpt lat="53.458993" lon="05.645634"><ele>9.4</ele><time>2021-02-17T12:52:12Z</time><name>PT6520</name></trkpt>
<trkpt lat="53.458995" lon="05.645636"><ele>9.2</ele><time>2021-02-17T12:52:13Z</time><name>PT6521</name></trkpt>
<trkpt lat="53.458997" lon="05.645641"><ele>9.1</ele><time>2021-02-17T12:52:14Z</time><name>PT6522</name></trkpt>
<trkpt lat="53.458998" lon="05.645645"><ele>9</ele><time>2021-02-17T12:52:15Z</time><name>PT6523</name></trkpt>
<trkpt lat="53.459000" lon="05.645650"><ele>8.8</ele><time>2021-02-17T12:52:16Z</time><name>PT6524</name></trkpt>
<trkpt lat="53.459001" lon="05.645652"><ele>8.7</ele><time>2021-02-17T12:52:17Z</time><name>PT6525</name></trkpt>
<trkpt lat="53.459002" lon="05.645653"><ele>8.7</ele><time>2021-02-17T12:52:18Z</time><name>PT6526</name></trkpt>
<trkpt lat="53.459002" lon="05.645654"><ele>8.6</ele><time>2021-02-17T12:52:19Z</time><name>PT6527</name></trkpt>
<trkpt lat="53.459000" lon="05.645656"><ele>8.7</ele><time>2021-02-17T12:52:20Z</time><name>PT6528</name></trkpt>
<trkpt lat="53.458998" lon="05.645659"><ele>8.7</ele><time>2021-02-17T12:52:21Z</time><name>PT6529</name></trkpt>
<trkpt lat="53.459000" lon="05.645663"><ele>8.7</ele><time>2021-02-17T12:52:23Z</time><name>PT6530</name></trkpt>
<trkpt lat="53.458998" lon="05.645672"><ele>8.7</ele><time>2021-02-17T12:52:24Z</time><name>PT6531</name></trkpt>
<trkpt lat="53.458999" lon="05.645671"><ele>8.3</ele><time>2021-02-17T12:52:25Z</time><name>PT6532</name></trkpt>
<trkpt lat="53.458999" lon="05.645671"><ele>8.2</ele><time>2021-02-17T12:52:26Z</time><name>PT6533</name></trkpt>
<trkpt lat="53.458999" lon="05.645670"><ele>8</ele><time>2021-02-17T12:52:27Z</time><name>PT6534</name></trkpt>
<trkpt lat="53.458998" lon="05.645671"><ele>7.9</ele><time>2021-02-17T12:52:28Z</time><name>PT6535</name></trkpt>
<trkpt lat="53.459013" lon="05.645681"><ele>6.2</ele><time>2021-02-17T12:52:57Z</time><name>PT6536</name></trkpt>
<trkpt lat="53.459027" lon="05.645684"><ele>5.9</ele><time>2021-02-17T12:52:58Z</time><name>PT6537</name></trkpt>
<trkpt lat="53.459033" lon="05.645692"><ele>5.8</ele><time>2021-02-17T12:52:59Z</time><name>PT6538</name></trkpt>
<trkpt lat="53.459045" lon="05.645694"><ele>5.7</ele><time>2021-02-17T12:53:00Z</time><name>PT6539</name></trkpt>
<trkpt lat="53.459059" lon="05.645691"><ele>5.4</ele><time>2021-02-17T12:53:01Z</time><name>PT6540</name></trkpt>
<trkpt lat="53.459073" lon="05.645690"><ele>5.1</ele><time>2021-02-17T12:53:02Z</time><name>PT6541</name></trkpt>
<trkpt lat="53.459088" lon="05.645695"><ele>5</ele><time>2021-02-17T12:53:03Z</time><name>PT6542</name></trkpt>
<trkpt lat="53.459097" lon="05.645697"><ele>4.9</ele><time>2021-02-17T12:53:04Z</time><name>PT6543</name></trkpt>
<trkpt lat="53.459108" lon="05.645700"><ele>4.9</ele><time>2021-02-17T12:53:05Z</time><name>PT6544</name></trkpt>
<trkpt lat="53.459117" lon="05.645701"><ele>5.1</ele><time>2021-02-17T12:53:06Z</time><name>PT6545</name></trkpt>
<trkpt lat="53.459124" lon="05.645703"><ele>4.9</ele><time>2021-02-17T12:53:07Z</time><name>PT6546</name></trkpt>
<trkpt lat="53.459129" lon="05.645703"><ele>5</ele><time>2021-02-17T12:53:08Z</time><name>PT6547</name></trkpt>
<trkpt lat="53.459135" lon="05.645701"><ele>5.1</ele><time>2021-02-17T12:53:09Z</time><name>PT6548</name></trkpt>
<trkpt lat="53.459142" lon="05.645696"><ele>5.3</ele><time>2021-02-17T12:53:10Z</time><name>PT6549</name></trkpt>
<trkpt lat="53.459151" lon="05.645692"><ele>5.4</ele><time>2021-02-17T12:53:11Z</time><name>PT6550</name></trkpt>
<trkpt lat="53.459158" lon="05.645689"><ele>5.4</ele><time>2021-02-17T12:53:12Z</time><name>PT6551</name></trkpt>
<trkpt lat="53.459162" lon="05.645683"><ele>5.3</ele><time>2021-02-17T12:53:13Z</time><name>PT6552</name></trkpt>
<trkpt lat="53.459168" lon="05.645681"><ele>5.2</ele><time>2021-02-17T12:53:14Z</time><name>PT6553</name></trkpt>
<trkpt lat="53.459174" lon="05.645683"><ele>5.3</ele><time>2021-02-17T12:53:15Z</time><name>PT6554</name></trkpt>
<trkpt lat="53.459179" lon="05.645683"><ele>5.1</ele><time>2021-02-17T12:53:16Z</time><name>PT6555</name></trkpt>
<trkpt lat="53.459184" lon="05.645683"><ele>5.1</ele><time>2021-02-17T12:53:17Z</time><name>PT6556</name></trkpt>
<trkpt lat="53.459189" lon="05.645684"><ele>5.3</ele><time>2021-02-17T12:53:18Z</time><name>PT6557</name></trkpt>
<trkpt lat="53.459194" lon="05.645686"><ele>5.2</ele><time>2021-02-17T12:53:19Z</time><name>PT6558</name></trkpt>
<trkpt lat="53.459199" lon="05.645688"><ele>5.2</ele><time>2021-02-17T12:53:20Z</time><name>PT6559</name></trkpt>
<trkpt lat="53.459205" lon="05.645689"><ele>5</ele><time>2021-02-17T12:53:21Z</time><name>PT6560</name></trkpt>
<trkpt lat="53.459211" lon="05.645694"><ele>4.4</ele><time>2021-02-17T12:53:25Z</time><name>PT6561</name></trkpt>
<trkpt lat="53.459222" lon="05.645698"><ele>4.6</ele><time>2021-02-17T12:53:26Z</time><name>PT6562</name></trkpt>
<trkpt lat="53.459234" lon="05.645706"><ele>4.5</ele><time>2021-02-17T12:53:27Z</time><name>PT6563</name></trkpt>
<trkpt lat="53.459240" lon="05.645718"><ele>4.4</ele><time>2021-02-17T12:53:28Z</time><name>PT6564</name></trkpt>
<trkpt lat="53.459246" lon="05.645725"><ele>4.3</ele><time>2021-02-17T12:53:29Z</time><name>PT6565</name></trkpt>
<trkpt lat="53.459254" lon="05.645734"><ele>4.1</ele><time>2021-02-17T12:53:30Z</time><name>PT6566</name></trkpt>
<trkpt lat="53.459261" lon="05.645744"><ele>3.9</ele><time>2021-02-17T12:53:31Z</time><name>PT6567</name></trkpt>
<trkpt lat="53.459270" lon="05.645751"><ele>3.9</ele><time>2021-02-17T12:53:32Z</time><name>PT6568</name></trkpt>
<trkpt lat="53.459278" lon="05.645756"><ele>3.8</ele><time>2021-02-17T12:53:33Z</time><name>PT6569</name></trkpt>
<trkpt lat="53.459286" lon="05.645760"><ele>3.8</ele><time>2021-02-17T12:53:34Z</time><name>PT6570</name></trkpt>
<trkpt lat="53.459295" lon="05.645761"><ele>3.6</ele><time>2021-02-17T12:53:35Z</time><name>PT6571</name></trkpt>
<trkpt lat="53.459304" lon="05.645758"><ele>3.4</ele><time>2021-02-17T12:53:36Z</time><name>PT6572</name></trkpt>
<trkpt lat="53.459315" lon="05.645753"><ele>3.5</ele><time>2021-02-17T12:53:37Z</time><name>PT6573</name></trkpt>
<trkpt lat="53.459324" lon="05.645749"><ele>3.5</ele><time>2021-02-17T12:53:38Z</time><name>PT6574</name></trkpt>
<trkpt lat="53.459332" lon="05.645754"><ele>3.5</ele><time>2021-02-17T12:53:39Z</time><name>PT6575</name></trkpt>
<trkpt lat="53.459339" lon="05.645762"><ele>3.4</ele><time>2021-02-17T12:53:40Z</time><name>PT6576</name></trkpt>
<trkpt lat="53.459342" lon="05.645769"><ele>3.2</ele><time>2021-02-17T12:53:41Z</time><name>PT6577</name></trkpt>
<trkpt lat="53.459349" lon="05.645780"><ele>3</ele><time>2021-02-17T12:53:42Z</time><name>PT6578</name></trkpt>
<trkpt lat="53.459351" lon="05.645796"><ele>2.9</ele><time>2021-02-17T12:53:43Z</time><name>PT6579</name></trkpt>
<trkpt lat="53.459352" lon="05.645812"><ele>3.2</ele><time>2021-02-17T12:53:44Z</time><name>PT6580</name></trkpt>
<trkpt lat="53.459355" lon="05.645824"><ele>3.4</ele><time>2021-02-17T12:53:45Z</time><name>PT6581</name></trkpt>
<trkpt lat="53.459357" lon="05.645840"><ele>3.5</ele><time>2021-02-17T12:53:46Z</time><name>PT6582</name></trkpt>
<trkpt lat="53.459359" lon="05.645855"><ele>3.4</ele><time>2021-02-17T12:53:47Z</time><name>PT6583</name></trkpt>
<trkpt lat="53.459359" lon="05.645870"><ele>3.4</ele><time>2021-02-17T12:53:48Z</time><name>PT6584</name></trkpt>
<trkpt lat="53.459361" lon="05.645886"><ele>3.1</ele><time>2021-02-17T12:53:49Z</time><name>PT6585</name></trkpt>
<trkpt lat="53.459363" lon="05.645899"><ele>3</ele><time>2021-02-17T12:53:50Z</time><name>PT6586</name></trkpt>
<trkpt lat="53.459365" lon="05.645916"><ele>3</ele><time>2021-02-17T12:53:51Z</time><name>PT6587</name></trkpt>
<trkpt lat="53.459365" lon="05.645934"><ele>2.9</ele><time>2021-02-17T12:53:52Z</time><name>PT6588</name></trkpt>
<trkpt lat="53.459365" lon="05.645951"><ele>2.9</ele><time>2021-02-17T12:53:53Z</time><name>PT6589</name></trkpt>
<trkpt lat="53.459364" lon="05.645967"><ele>3</ele><time>2021-02-17T12:53:54Z</time><name>PT6590</name></trkpt>
<trkpt lat="53.459364" lon="05.645983"><ele>3</ele><time>2021-02-17T12:53:55Z</time><name>PT6591</name></trkpt>
<trkpt lat="53.459366" lon="05.646003"><ele>3.1</ele><time>2021-02-17T12:53:56Z</time><name>PT6592</name></trkpt>
<trkpt lat="53.459365" lon="05.646019"><ele>3.2</ele><time>2021-02-17T12:53:57Z</time><name>PT6593</name></trkpt>
<trkpt lat="53.459363" lon="05.646035"><ele>3.2</ele><time>2021-02-17T12:53:58Z</time><name>PT6594</name></trkpt>
<trkpt lat="53.459365" lon="05.646052"><ele>3.2</ele><time>2021-02-17T12:53:59Z</time><name>PT6595</name></trkpt>
<trkpt lat="53.459365" lon="05.646068"><ele>3.2</ele><time>2021-02-17T12:54:00Z</time><name>PT6596</name></trkpt>
<trkpt lat="53.459363" lon="05.646087"><ele>3.2</ele><time>2021-02-17T12:54:01Z</time><name>PT6597</name></trkpt>
<trkpt lat="53.459364" lon="05.646103"><ele>3.2</ele><time>2021-02-17T12:54:02Z</time><name>PT6598</name></trkpt>
<trkpt lat="53.459364" lon="05.646116"><ele>3.1</ele><time>2021-02-17T12:54:03Z</time><name>PT6599</name></trkpt>
<trkpt lat="53.459362" lon="05.646131"><ele>3.1</ele><time>2021-02-17T12:54:04Z</time><name>PT6600</name></trkpt>
<trkpt lat="53.459361" lon="05.646148"><ele>3.3</ele><time>2021-02-17T12:54:05Z</time><name>PT6601</name></trkpt>
<trkpt lat="53.459358" lon="05.646165"><ele>3.4</ele><time>2021-02-17T12:54:06Z</time><name>PT6602</name></trkpt>
<trkpt lat="53.459355" lon="05.646180"><ele>3.7</ele><time>2021-02-17T12:54:07Z</time><name>PT6603</name></trkpt>
<trkpt lat="53.459354" lon="05.646195"><ele>3.6</ele><time>2021-02-17T12:54:08Z</time><name>PT6604</name></trkpt>
<trkpt lat="53.459354" lon="05.646208"><ele>3.4</ele><time>2021-02-17T12:54:09Z</time><name>PT6605</name></trkpt>
<trkpt lat="53.459355" lon="05.646221"><ele>3.5</ele><time>2021-02-17T12:54:10Z</time><name>PT6606</name></trkpt>
<trkpt lat="53.459354" lon="05.646237"><ele>3.4</ele><time>2021-02-17T12:54:11Z</time><name>PT6607</name></trkpt>
<trkpt lat="53.459353" lon="05.646253"><ele>3.4</ele><time>2021-02-17T12:54:12Z</time><name>PT6608</name></trkpt>
<trkpt lat="53.459352" lon="05.646271"><ele>3.5</ele><time>2021-02-17T12:54:13Z</time><name>PT6609</name></trkpt>
<trkpt lat="53.459353" lon="05.646287"><ele>3.4</ele><time>2021-02-17T12:54:14Z</time><name>PT6610</name></trkpt>
<trkpt lat="53.459353" lon="05.646301"><ele>3.5</ele><time>2021-02-17T12:54:15Z</time><name>PT6611</name></trkpt>
<trkpt lat="53.459355" lon="05.646316"><ele>3.5</ele><time>2021-02-17T12:54:16Z</time><name>PT6612</name></trkpt>
<trkpt lat="53.459356" lon="05.646332"><ele>3.5</ele><time>2021-02-17T12:54:17Z</time><name>PT6613</name></trkpt>
<trkpt lat="53.459355" lon="05.646348"><ele>3.5</ele><time>2021-02-17T12:54:18Z</time><name>PT6614</name></trkpt>
<trkpt lat="53.459353" lon="05.646362"><ele>3.6</ele><time>2021-02-17T12:54:19Z</time><name>PT6615</name></trkpt>
<trkpt lat="53.459353" lon="05.646376"><ele>3.7</ele><time>2021-02-17T12:54:20Z</time><name>PT6616</name></trkpt>
<trkpt lat="53.459353" lon="05.646396"><ele>3.7</ele><time>2021-02-17T12:54:21Z</time><name>PT6617</name></trkpt>
<trkpt lat="53.459355" lon="05.646414"><ele>3.9</ele><time>2021-02-17T12:54:22Z</time><name>PT6618</name></trkpt>
<trkpt lat="53.459356" lon="05.646431"><ele>3.9</ele><time>2021-02-17T12:54:23Z</time><name>PT6619</name></trkpt>
<trkpt lat="53.459356" lon="05.646449"><ele>3.9</ele><time>2021-02-17T12:54:24Z</time><name>PT6620</name></trkpt>
<trkpt lat="53.459357" lon="05.646466"><ele>3.8</ele><time>2021-02-17T12:54:25Z</time><name>PT6621</name></trkpt>
<trkpt lat="53.459358" lon="05.646482"><ele>3.5</ele><time>2021-02-17T12:54:26Z</time><name>PT6622</name></trkpt>
<trkpt lat="53.459358" lon="05.646502"><ele>3.4</ele><time>2021-02-17T12:54:27Z</time><name>PT6623</name></trkpt>
<trkpt lat="53.459359" lon="05.646521"><ele>3</ele><time>2021-02-17T12:54:28Z</time><name>PT6624</name></trkpt>
<trkpt lat="53.459361" lon="05.646537"><ele>3</ele><time>2021-02-17T12:54:29Z</time><name>PT6625</name></trkpt>
<trkpt lat="53.459363" lon="05.646555"><ele>3.1</ele><time>2021-02-17T12:54:30Z</time><name>PT6626</name></trkpt>
<trkpt lat="53.459364" lon="05.646572"><ele>3.5</ele><time>2021-02-17T12:54:31Z</time><name>PT6627</name></trkpt>
<trkpt lat="53.459366" lon="05.646588"><ele>3.6</ele><time>2021-02-17T12:54:32Z</time><name>PT6628</name></trkpt>
<trkpt lat="53.459367" lon="05.646604"><ele>3.6</ele><time>2021-02-17T12:54:33Z</time><name>PT6629</name></trkpt>
<trkpt lat="53.459369" lon="05.646622"><ele>3.6</ele><time>2021-02-17T12:54:34Z</time><name>PT6630</name></trkpt>
<trkpt lat="53.459371" lon="05.646638"><ele>3.4</ele><time>2021-02-17T12:54:35Z</time><name>PT6631</name></trkpt>
<trkpt lat="53.459373" lon="05.646656"><ele>3.4</ele><time>2021-02-17T12:54:36Z</time><name>PT6632</name></trkpt>
<trkpt lat="53.459377" lon="05.646674"><ele>3.4</ele><time>2021-02-17T12:54:37Z</time><name>PT6633</name></trkpt>
<trkpt lat="53.459380" lon="05.646689"><ele>3.4</ele><time>2021-02-17T12:54:38Z</time><name>PT6634</name></trkpt>
<trkpt lat="53.459380" lon="05.646708"><ele>3.4</ele><time>2021-02-17T12:54:39Z</time><name>PT6635</name></trkpt>
<trkpt lat="53.459381" lon="05.646728"><ele>3.3</ele><time>2021-02-17T12:54:40Z</time><name>PT6636</name></trkpt>
<trkpt lat="53.459384" lon="05.646747"><ele>3.3</ele><time>2021-02-17T12:54:41Z</time><name>PT6637</name></trkpt>
<trkpt lat="53.459387" lon="05.646763"><ele>3.4</ele><time>2021-02-17T12:54:42Z</time><name>PT6638</name></trkpt>
<trkpt lat="53.459388" lon="05.646779"><ele>3.5</ele><time>2021-02-17T12:54:43Z</time><name>PT6639</name></trkpt>
<trkpt lat="53.459391" lon="05.646795"><ele>3.8</ele><time>2021-02-17T12:54:44Z</time><name>PT6640</name></trkpt>
<trkpt lat="53.459393" lon="05.646813"><ele>3.8</ele><time>2021-02-17T12:54:45Z</time><name>PT6641</name></trkpt>
<trkpt lat="53.459395" lon="05.646832"><ele>3.9</ele><time>2021-02-17T12:54:46Z</time><name>PT6642</name></trkpt>
<trkpt lat="53.459396" lon="05.646846"><ele>3.7</ele><time>2021-02-17T12:54:47Z</time><name>PT6643</name></trkpt>
<trkpt lat="53.459397" lon="05.646864"><ele>3.7</ele><time>2021-02-17T12:54:48Z</time><name>PT6644</name></trkpt>
<trkpt lat="53.459397" lon="05.646881"><ele>3.5</ele><time>2021-02-17T12:54:49Z</time><name>PT6645</name></trkpt>
<trkpt lat="53.459397" lon="05.646899"><ele>3.5</ele><time>2021-02-17T12:54:50Z</time><name>PT6646</name></trkpt>
<trkpt lat="53.459398" lon="05.646916"><ele>3.6</ele><time>2021-02-17T12:54:51Z</time><name>PT6647</name></trkpt>
<trkpt lat="53.459399" lon="05.646933"><ele>3.4</ele><time>2021-02-17T12:54:52Z</time><name>PT6648</name></trkpt>
<trkpt lat="53.459400" lon="05.646951"><ele>3.4</ele><time>2021-02-17T12:54:53Z</time><name>PT6649</name></trkpt>
<trkpt lat="53.459400" lon="05.646969"><ele>3.4</ele><time>2021-02-17T12:54:54Z</time><name>PT6650</name></trkpt>
<trkpt lat="53.459401" lon="05.646987"><ele>3.3</ele><time>2021-02-17T12:54:55Z</time><name>PT6651</name></trkpt>
<trkpt lat="53.459402" lon="05.647004"><ele>3.4</ele><time>2021-02-17T12:54:56Z</time><name>PT6652</name></trkpt>
<trkpt lat="53.459403" lon="05.647016"><ele>3.3</ele><time>2021-02-17T12:54:57Z</time><name>PT6653</name></trkpt>
<trkpt lat="53.459405" lon="05.647037"><ele>3.4</ele><time>2021-02-17T12:54:58Z</time><name>PT6654</name></trkpt>
<trkpt lat="53.459407" lon="05.647053"><ele>3.4</ele><time>2021-02-17T12:54:59Z</time><name>PT6655</name></trkpt>
<trkpt lat="53.459408" lon="05.647069"><ele>3.4</ele><time>2021-02-17T12:55:00Z</time><name>PT6656</name></trkpt>
<trkpt lat="53.459409" lon="05.647088"><ele>3.4</ele><time>2021-02-17T12:55:01Z</time><name>PT6657</name></trkpt>
<trkpt lat="53.459410" lon="05.647109"><ele>3.2</ele><time>2021-02-17T12:55:02Z</time><name>PT6658</name></trkpt>
<trkpt lat="53.459411" lon="05.647129"><ele>3.1</ele><time>2021-02-17T12:55:03Z</time><name>PT6659</name></trkpt>
<trkpt lat="53.459412" lon="05.647144"><ele>3.2</ele><time>2021-02-17T12:55:04Z</time><name>PT6660</name></trkpt>
<trkpt lat="53.459412" lon="05.647162"><ele>3.3</ele><time>2021-02-17T12:55:05Z</time><name>PT6661</name></trkpt>
<trkpt lat="53.459410" lon="05.647182"><ele>3.4</ele><time>2021-02-17T12:55:06Z</time><name>PT6662</name></trkpt>
<trkpt lat="53.459411" lon="05.647206"><ele>3.4</ele><time>2021-02-17T12:55:07Z</time><name>PT6663</name></trkpt>
<trkpt lat="53.459411" lon="05.647225"><ele>3.4</ele><time>2021-02-17T12:55:08Z</time><name>PT6664</name></trkpt>
<trkpt lat="53.459411" lon="05.647243"><ele>3.4</ele><time>2021-02-17T12:55:09Z</time><name>PT6665</name></trkpt>
<trkpt lat="53.459414" lon="05.647260"><ele>3.3</ele><time>2021-02-17T12:55:10Z</time><name>PT6666</name></trkpt>
<trkpt lat="53.459416" lon="05.647280"><ele>3.2</ele><time>2021-02-17T12:55:11Z</time><name>PT6667</name></trkpt>
<trkpt lat="53.459418" lon="05.647297"><ele>3.1</ele><time>2021-02-17T12:55:12Z</time><name>PT6668</name></trkpt>
<trkpt lat="53.459420" lon="05.647312"><ele>3.1</ele><time>2021-02-17T12:55:13Z</time><name>PT6669</name></trkpt>
<trkpt lat="53.459422" lon="05.647327"><ele>3</ele><time>2021-02-17T12:55:14Z</time><name>PT6670</name></trkpt>
<trkpt lat="53.459423" lon="05.647344"><ele>3.1</ele><time>2021-02-17T12:55:15Z</time><name>PT6671</name></trkpt>
<trkpt lat="53.459422" lon="05.647361"><ele>3.2</ele><time>2021-02-17T12:55:16Z</time><name>PT6672</name></trkpt>
<trkpt lat="53.459422" lon="05.647380"><ele>3.4</ele><time>2021-02-17T12:55:17Z</time><name>PT6673</name></trkpt>
<trkpt lat="53.459421" lon="05.647400"><ele>3.5</ele><time>2021-02-17T12:55:18Z</time><name>PT6674</name></trkpt>
<trkpt lat="53.459422" lon="05.647418"><ele>3.4</ele><time>2021-02-17T12:55:19Z</time><name>PT6675</name></trkpt>
<trkpt lat="53.459423" lon="05.647435"><ele>3.3</ele><time>2021-02-17T12:55:20Z</time><name>PT6676</name></trkpt>
<trkpt lat="53.459423" lon="05.647454"><ele>3.2</ele><time>2021-02-17T12:55:21Z</time><name>PT6677</name></trkpt>
<trkpt lat="53.459422" lon="05.647473"><ele>3.2</ele><time>2021-02-17T12:55:22Z</time><name>PT6678</name></trkpt>
<trkpt lat="53.459421" lon="05.647489"><ele>3.2</ele><time>2021-02-17T12:55:23Z</time><name>PT6679</name></trkpt>
<trkpt lat="53.459421" lon="05.647508"><ele>3.2</ele><time>2021-02-17T12:55:24Z</time><name>PT6680</name></trkpt>
<trkpt lat="53.459419" lon="05.647527"><ele>3.3</ele><time>2021-02-17T12:55:25Z</time><name>PT6681</name></trkpt>
<trkpt lat="53.459417" lon="05.647547"><ele>3.4</ele><time>2021-02-17T12:55:26Z</time><name>PT6682</name></trkpt>
<trkpt lat="53.459417" lon="05.647566"><ele>3.4</ele><time>2021-02-17T12:55:27Z</time><name>PT6683</name></trkpt>
<trkpt lat="53.459418" lon="05.647584"><ele>3.5</ele><time>2021-02-17T12:55:28Z</time><name>PT6684</name></trkpt>
<trkpt lat="53.459417" lon="05.647601"><ele>3.4</ele><time>2021-02-17T12:55:29Z</time><name>PT6685</name></trkpt>
<trkpt lat="53.459416" lon="05.647619"><ele>3.4</ele><time>2021-02-17T12:55:30Z</time><name>PT6686</name></trkpt>
<trkpt lat="53.459416" lon="05.647637"><ele>3.3</ele><time>2021-02-17T12:55:31Z</time><name>PT6687</name></trkpt>
<trkpt lat="53.459416" lon="05.647651"><ele>3.3</ele><time>2021-02-17T12:55:32Z</time><name>PT6688</name></trkpt>
<trkpt lat="53.459415" lon="05.647668"><ele>3.3</ele><time>2021-02-17T12:55:33Z</time><name>PT6689</name></trkpt>
<trkpt lat="53.459415" lon="05.647687"><ele>3.4</ele><time>2021-02-17T12:55:34Z</time><name>PT6690</name></trkpt>
<trkpt lat="53.459415" lon="05.647703"><ele>3.4</ele><time>2021-02-17T12:55:35Z</time><name>PT6691</name></trkpt>
<trkpt lat="53.459417" lon="05.647707"><ele>3.4</ele><time>2021-02-17T12:55:36Z</time><name>PT6692</name></trkpt>
<trkpt lat="53.459417" lon="05.647720"><ele>3.4</ele><time>2021-02-17T12:55:37Z</time><name>PT6693</name></trkpt>
<trkpt lat="53.459416" lon="05.647738"><ele>3.4</ele><time>2021-02-17T12:55:38Z</time><name>PT6694</name></trkpt>
<trkpt lat="53.459415" lon="05.647755"><ele>3.5</ele><time>2021-02-17T12:55:39Z</time><name>PT6695</name></trkpt>
<trkpt lat="53.459414" lon="05.647773"><ele>3.6</ele><time>2021-02-17T12:55:40Z</time><name>PT6696</name></trkpt>
<trkpt lat="53.459414" lon="05.647794"><ele>3.6</ele><time>2021-02-17T12:55:41Z</time><name>PT6697</name></trkpt>
<trkpt lat="53.459412" lon="05.647815"><ele>3.5</ele><time>2021-02-17T12:55:42Z</time><name>PT6698</name></trkpt>
<trkpt lat="53.459410" lon="05.647831"><ele>3.6</ele><time>2021-02-17T12:55:43Z</time><name>PT6699</name></trkpt>
<trkpt lat="53.459410" lon="05.647850"><ele>3.6</ele><time>2021-02-17T12:55:44Z</time><name>PT6700</name></trkpt>
<trkpt lat="53.459410" lon="05.647870"><ele>3.5</ele><time>2021-02-17T12:55:45Z</time><name>PT6701</name></trkpt>
<trkpt lat="53.459410" lon="05.647888"><ele>3.4</ele><time>2021-02-17T12:55:46Z</time><name>PT6702</name></trkpt>
<trkpt lat="53.459411" lon="05.647905"><ele>3.2</ele><time>2021-02-17T12:55:47Z</time><name>PT6703</name></trkpt>
<trkpt lat="53.459411" lon="05.647922"><ele>3.1</ele><time>2021-02-17T12:55:48Z</time><name>PT6704</name></trkpt>
<trkpt lat="53.459410" lon="05.647939"><ele>3</ele><time>2021-02-17T12:55:49Z</time><name>PT6705</name></trkpt>
<trkpt lat="53.459409" lon="05.647955"><ele>3.1</ele><time>2021-02-17T12:55:50Z</time><name>PT6706</name></trkpt>
<trkpt lat="53.459408" lon="05.647972"><ele>3.2</ele><time>2021-02-17T12:55:51Z</time><name>PT6707</name></trkpt>
<trkpt lat="53.459409" lon="05.647991"><ele>3</ele><time>2021-02-17T12:55:52Z</time><name>PT6708</name></trkpt>
<trkpt lat="53.459411" lon="05.648008"><ele>3.1</ele><time>2021-02-17T12:55:53Z</time><name>PT6709</name></trkpt>
<trkpt lat="53.459412" lon="05.648028"><ele>3</ele><time>2021-02-17T12:55:54Z</time><name>PT6710</name></trkpt>
<trkpt lat="53.459412" lon="05.648045"><ele>3.1</ele><time>2021-02-17T12:55:55Z</time><name>PT6711</name></trkpt>
<trkpt lat="53.459414" lon="05.648062"><ele>3.1</ele><time>2021-02-17T12:55:56Z</time><name>PT6712</name></trkpt>
<trkpt lat="53.459416" lon="05.648080"><ele>3.2</ele><time>2021-02-17T12:55:57Z</time><name>PT6713</name></trkpt>
<trkpt lat="53.459415" lon="05.648095"><ele>3.5</ele><time>2021-02-17T12:55:58Z</time><name>PT6714</name></trkpt>
<trkpt lat="53.459415" lon="05.648112"><ele>3.6</ele><time>2021-02-17T12:55:59Z</time><name>PT6715</name></trkpt>
<trkpt lat="53.459415" lon="05.648129"><ele>3.8</ele><time>2021-02-17T12:56:00Z</time><name>PT6716</name></trkpt>
<trkpt lat="53.459418" lon="05.648147"><ele>3.9</ele><time>2021-02-17T12:56:01Z</time><name>PT6717</name></trkpt>
<trkpt lat="53.459421" lon="05.648165"><ele>3.8</ele><time>2021-02-17T12:56:02Z</time><name>PT6718</name></trkpt>
<trkpt lat="53.459422" lon="05.648181"><ele>3.8</ele><time>2021-02-17T12:56:03Z</time><name>PT6719</name></trkpt>
<trkpt lat="53.459423" lon="05.648198"><ele>3.8</ele><time>2021-02-17T12:56:04Z</time><name>PT6720</name></trkpt>
<trkpt lat="53.459423" lon="05.648213"><ele>3.9</ele><time>2021-02-17T12:56:05Z</time><name>PT6721</name></trkpt>
<trkpt lat="53.459424" lon="05.648229"><ele>3.9</ele><time>2021-02-17T12:56:06Z</time><name>PT6722</name></trkpt>
<trkpt lat="53.459425" lon="05.648245"><ele>3.8</ele><time>2021-02-17T12:56:07Z</time><name>PT6723</name></trkpt>
<trkpt lat="53.459425" lon="05.648263"><ele>3.9</ele><time>2021-02-17T12:56:08Z</time><name>PT6724</name></trkpt>
<trkpt lat="53.459426" lon="05.648279"><ele>3.9</ele><time>2021-02-17T12:56:09Z</time><name>PT6725</name></trkpt>
<trkpt lat="53.459428" lon="05.648296"><ele>3.7</ele><time>2021-02-17T12:56:10Z</time><name>PT6726</name></trkpt>
<trkpt lat="53.459429" lon="05.648314"><ele>3.5</ele><time>2021-02-17T12:56:11Z</time><name>PT6727</name></trkpt>
<trkpt lat="53.459430" lon="05.648331"><ele>3.4</ele><time>2021-02-17T12:56:12Z</time><name>PT6728</name></trkpt>
<trkpt lat="53.459429" lon="05.648349"><ele>3.2</ele><time>2021-02-17T12:56:13Z</time><name>PT6729</name></trkpt>
<trkpt lat="53.459428" lon="05.648364"><ele>3.2</ele><time>2021-02-17T12:56:14Z</time><name>PT6730</name></trkpt>
<trkpt lat="53.459430" lon="05.648382"><ele>3.3</ele><time>2021-02-17T12:56:15Z</time><name>PT6731</name></trkpt>
<trkpt lat="53.459431" lon="05.648402"><ele>3.1</ele><time>2021-02-17T12:56:16Z</time><name>PT6732</name></trkpt>
<trkpt lat="53.459431" lon="05.648418"><ele>3</ele><time>2021-02-17T12:56:17Z</time><name>PT6733</name></trkpt>
<trkpt lat="53.459431" lon="05.648438"><ele>3.1</ele><time>2021-02-17T12:56:18Z</time><name>PT6734</name></trkpt>
<trkpt lat="53.459431" lon="05.648454"><ele>3.2</ele><time>2021-02-17T12:56:19Z</time><name>PT6735</name></trkpt>
<trkpt lat="53.459431" lon="05.648473"><ele>3.4</ele><time>2021-02-17T12:56:20Z</time><name>PT6736</name></trkpt>
<trkpt lat="53.459432" lon="05.648490"><ele>3.6</ele><time>2021-02-17T12:56:21Z</time><name>PT6737</name></trkpt>
<trkpt lat="53.459434" lon="05.648507"><ele>3.5</ele><time>2021-02-17T12:56:22Z</time><name>PT6738</name></trkpt>
<trkpt lat="53.459433" lon="05.648528"><ele>3.4</ele><time>2021-02-17T12:56:23Z</time><name>PT6739</name></trkpt>
<trkpt lat="53.459433" lon="05.648549"><ele>3.3</ele><time>2021-02-17T12:56:24Z</time><name>PT6740</name></trkpt>
<trkpt lat="53.459432" lon="05.648570"><ele>3.2</ele><time>2021-02-17T12:56:25Z</time><name>PT6741</name></trkpt>
<trkpt lat="53.459432" lon="05.648588"><ele>3.2</ele><time>2021-02-17T12:56:26Z</time><name>PT6742</name></trkpt>
<trkpt lat="53.459432" lon="05.648604"><ele>3.4</ele><time>2021-02-17T12:56:27Z</time><name>PT6743</name></trkpt>
<trkpt lat="53.459432" lon="05.648621"><ele>3.4</ele><time>2021-02-17T12:56:28Z</time><name>PT6744</name></trkpt>
<trkpt lat="53.459432" lon="05.648636"><ele>3.4</ele><time>2021-02-17T12:56:29Z</time><name>PT6745</name></trkpt>
<trkpt lat="53.459433" lon="05.648650"><ele>3.4</ele><time>2021-02-17T12:56:30Z</time><name>PT6746</name></trkpt>
<trkpt lat="53.459435" lon="05.648667"><ele>3.5</ele><time>2021-02-17T12:56:31Z</time><name>PT6747</name></trkpt>
<trkpt lat="53.459437" lon="05.648684"><ele>3.6</ele><time>2021-02-17T12:56:32Z</time><name>PT6748</name></trkpt>
<trkpt lat="53.459438" lon="05.648701"><ele>3.6</ele><time>2021-02-17T12:56:33Z</time><name>PT6749</name></trkpt>
<trkpt lat="53.459441" lon="05.648720"><ele>3.4</ele><time>2021-02-17T12:56:34Z</time><name>PT6750</name></trkpt>
<trkpt lat="53.459442" lon="05.648737"><ele>3.3</ele><time>2021-02-17T12:56:35Z</time><name>PT6751</name></trkpt>
<trkpt lat="53.459443" lon="05.648754"><ele>3.3</ele><time>2021-02-17T12:56:36Z</time><name>PT6752</name></trkpt>
<trkpt lat="53.459444" lon="05.648773"><ele>3.4</ele><time>2021-02-17T12:56:37Z</time><name>PT6753</name></trkpt>
<trkpt lat="53.459444" lon="05.648790"><ele>3.6</ele><time>2021-02-17T12:56:38Z</time><name>PT6754</name></trkpt>
<trkpt lat="53.459444" lon="05.648808"><ele>3.8</ele><time>2021-02-17T12:56:39Z</time><name>PT6755</name></trkpt>
<trkpt lat="53.459444" lon="05.648823"><ele>3.8</ele><time>2021-02-17T12:56:40Z</time><name>PT6756</name></trkpt>
<trkpt lat="53.459443" lon="05.648841"><ele>3.8</ele><time>2021-02-17T12:56:41Z</time><name>PT6757</name></trkpt>
<trkpt lat="53.459443" lon="05.648857"><ele>3.8</ele><time>2021-02-17T12:56:42Z</time><name>PT6758</name></trkpt>
<trkpt lat="53.459444" lon="05.648876"><ele>3.9</ele><time>2021-02-17T12:56:43Z</time><name>PT6759</name></trkpt>
<trkpt lat="53.459443" lon="05.648894"><ele>3.9</ele><time>2021-02-17T12:56:44Z</time><name>PT6760</name></trkpt>
<trkpt lat="53.459441" lon="05.648911"><ele>3.9</ele><time>2021-02-17T12:56:45Z</time><name>PT6761</name></trkpt>
<trkpt lat="53.459439" lon="05.648931"><ele>3.8</ele><time>2021-02-17T12:56:46Z</time><name>PT6762</name></trkpt>
<trkpt lat="53.459438" lon="05.648949"><ele>3.6</ele><time>2021-02-17T12:56:47Z</time><name>PT6763</name></trkpt>
<trkpt lat="53.459439" lon="05.648965"><ele>3.7</ele><time>2021-02-17T12:56:48Z</time><name>PT6764</name></trkpt>
<trkpt lat="53.459438" lon="05.648980"><ele>3.4</ele><time>2021-02-17T12:56:49Z</time><name>PT6765</name></trkpt>
<trkpt lat="53.459438" lon="05.649002"><ele>3.4</ele><time>2021-02-17T12:56:50Z</time><name>PT6766</name></trkpt>
<trkpt lat="53.459436" lon="05.649019"><ele>3.5</ele><time>2021-02-17T12:56:51Z</time><name>PT6767</name></trkpt>
<trkpt lat="53.459434" lon="05.649035"><ele>3.5</ele><time>2021-02-17T12:56:52Z</time><name>PT6768</name></trkpt>
<trkpt lat="53.459433" lon="05.649053"><ele>3.6</ele><time>2021-02-17T12:56:53Z</time><name>PT6769</name></trkpt>
<trkpt lat="53.459431" lon="05.649074"><ele>3.4</ele><time>2021-02-17T12:56:54Z</time><name>PT6770</name></trkpt>
<trkpt lat="53.459431" lon="05.649093"><ele>3.3</ele><time>2021-02-17T12:56:55Z</time><name>PT6771</name></trkpt>
<trkpt lat="53.459432" lon="05.649110"><ele>2.9</ele><time>2021-02-17T12:56:56Z</time><name>PT6772</name></trkpt>
<trkpt lat="53.459433" lon="05.649129"><ele>2.9</ele><time>2021-02-17T12:56:57Z</time><name>PT6773</name></trkpt>
<trkpt lat="53.459434" lon="05.649149"><ele>3.1</ele><time>2021-02-17T12:56:58Z</time><name>PT6774</name></trkpt>
<trkpt lat="53.459435" lon="05.649166"><ele>3.1</ele><time>2021-02-17T12:56:59Z</time><name>PT6775</name></trkpt>
<trkpt lat="53.459435" lon="05.649181"><ele>3.2</ele><time>2021-02-17T12:57:00Z</time><name>PT6776</name></trkpt>
<trkpt lat="53.459436" lon="05.649196"><ele>3.3</ele><time>2021-02-17T12:57:01Z</time><name>PT6777</name></trkpt>
<trkpt lat="53.459437" lon="05.649213"><ele>3.4</ele><time>2021-02-17T12:57:02Z</time><name>PT6778</name></trkpt>
<trkpt lat="53.459437" lon="05.649227"><ele>3.4</ele><time>2021-02-17T12:57:03Z</time><name>PT6779</name></trkpt>
<trkpt lat="53.459436" lon="05.649243"><ele>3.5</ele><time>2021-02-17T12:57:04Z</time><name>PT6780</name></trkpt>
<trkpt lat="53.459436" lon="05.649261"><ele>3.4</ele><time>2021-02-17T12:57:05Z</time><name>PT6781</name></trkpt>
<trkpt lat="53.459437" lon="05.649280"><ele>3.5</ele><time>2021-02-17T12:57:06Z</time><name>PT6782</name></trkpt>
<trkpt lat="53.459438" lon="05.649299"><ele>3.4</ele><time>2021-02-17T12:57:07Z</time><name>PT6783</name></trkpt>
<trkpt lat="53.459438" lon="05.649316"><ele>3.4</ele><time>2021-02-17T12:57:08Z</time><name>PT6784</name></trkpt>
<trkpt lat="53.459437" lon="05.649334"><ele>3.4</ele><time>2021-02-17T12:57:09Z</time><name>PT6785</name></trkpt>
<trkpt lat="53.459436" lon="05.649352"><ele>3.4</ele><time>2021-02-17T12:57:10Z</time><name>PT6786</name></trkpt>
<trkpt lat="53.459436" lon="05.649371"><ele>3.4</ele><time>2021-02-17T12:57:11Z</time><name>PT6787</name></trkpt>
<trkpt lat="53.459435" lon="05.649392"><ele>3.4</ele><time>2021-02-17T12:57:12Z</time><name>PT6788</name></trkpt>
<trkpt lat="53.459436" lon="05.649410"><ele>3.5</ele><time>2021-02-17T12:57:13Z</time><name>PT6789</name></trkpt>
<trkpt lat="53.459435" lon="05.649430"><ele>3.6</ele><time>2021-02-17T12:57:14Z</time><name>PT6790</name></trkpt>
<trkpt lat="53.459434" lon="05.649448"><ele>3.6</ele><time>2021-02-17T12:57:15Z</time><name>PT6791</name></trkpt>
<trkpt lat="53.459434" lon="05.649467"><ele>3.6</ele><time>2021-02-17T12:57:16Z</time><name>PT6792</name></trkpt>
<trkpt lat="53.459436" lon="05.649489"><ele>3.6</ele><time>2021-02-17T12:57:17Z</time><name>PT6793</name></trkpt>
<trkpt lat="53.459436" lon="05.649510"><ele>3.6</ele><time>2021-02-17T12:57:18Z</time><name>PT6794</name></trkpt>
<trkpt lat="53.459437" lon="05.649527"><ele>3.6</ele><time>2021-02-17T12:57:19Z</time><name>PT6795</name></trkpt>
<trkpt lat="53.459436" lon="05.649545"><ele>3.4</ele><time>2021-02-17T12:57:20Z</time><name>PT6796</name></trkpt>
<trkpt lat="53.459435" lon="05.649564"><ele>3.5</ele><time>2021-02-17T12:57:21Z</time><name>PT6797</name></trkpt>
<trkpt lat="53.459433" lon="05.649583"><ele>3.6</ele><time>2021-02-17T12:57:22Z</time><name>PT6798</name></trkpt>
<trkpt lat="53.459432" lon="05.649604"><ele>3.4</ele><time>2021-02-17T12:57:23Z</time><name>PT6799</name></trkpt>
<trkpt lat="53.459435" lon="05.649618"><ele>3.4</ele><time>2021-02-17T12:57:24Z</time><name>PT6800</name></trkpt>
<trkpt lat="53.459438" lon="05.649637"><ele>3.5</ele><time>2021-02-17T12:57:25Z</time><name>PT6801</name></trkpt>
<trkpt lat="53.459440" lon="05.649653"><ele>3.4</ele><time>2021-02-17T12:57:26Z</time><name>PT6802</name></trkpt>
<trkpt lat="53.459442" lon="05.649671"><ele>3.5</ele><time>2021-02-17T12:57:27Z</time><name>PT6803</name></trkpt>
<trkpt lat="53.459442" lon="05.649690"><ele>3.4</ele><time>2021-02-17T12:57:28Z</time><name>PT6804</name></trkpt>
<trkpt lat="53.459441" lon="05.649709"><ele>3.4</ele><time>2021-02-17T12:57:29Z</time><name>PT6805</name></trkpt>
<trkpt lat="53.459438" lon="05.649725"><ele>3.4</ele><time>2021-02-17T12:57:30Z</time><name>PT6806</name></trkpt>
<trkpt lat="53.459435" lon="05.649744"><ele>3.4</ele><time>2021-02-17T12:57:31Z</time><name>PT6807</name></trkpt>
<trkpt lat="53.459433" lon="05.649764"><ele>3.4</ele><time>2021-02-17T12:57:32Z</time><name>PT6808</name></trkpt>
<trkpt lat="53.459433" lon="05.649785"><ele>3.3</ele><time>2021-02-17T12:57:33Z</time><name>PT6809</name></trkpt>
<trkpt lat="53.459433" lon="05.649804"><ele>3.2</ele><time>2021-02-17T12:57:34Z</time><name>PT6810</name></trkpt>
<trkpt lat="53.459433" lon="05.649824"><ele>3.1</ele><time>2021-02-17T12:57:35Z</time><name>PT6811</name></trkpt>
<trkpt lat="53.459434" lon="05.649846"><ele>3.2</ele><time>2021-02-17T12:57:36Z</time><name>PT6812</name></trkpt>
<trkpt lat="53.459433" lon="05.649866"><ele>3.3</ele><time>2021-02-17T12:57:37Z</time><name>PT6813</name></trkpt>
<trkpt lat="53.459433" lon="05.649882"><ele>3.4</ele><time>2021-02-17T12:57:38Z</time><name>PT6814</name></trkpt>
<trkpt lat="53.459432" lon="05.649903"><ele>3.3</ele><time>2021-02-17T12:57:39Z</time><name>PT6815</name></trkpt>
<trkpt lat="53.459431" lon="05.649923"><ele>3.2</ele><time>2021-02-17T12:57:40Z</time><name>PT6816</name></trkpt>
<trkpt lat="53.459429" lon="05.649944"><ele>3.4</ele><time>2021-02-17T12:57:41Z</time><name>PT6817</name></trkpt>
<trkpt lat="53.459426" lon="05.649966"><ele>3.3</ele><time>2021-02-17T12:57:42Z</time><name>PT6818</name></trkpt>
<trkpt lat="53.459425" lon="05.649987"><ele>3.4</ele><time>2021-02-17T12:57:43Z</time><name>PT6819</name></trkpt>
<trkpt lat="53.459424" lon="05.650006"><ele>3.6</ele><time>2021-02-17T12:57:44Z</time><name>PT6820</name></trkpt>
<trkpt lat="53.459424" lon="05.650024"><ele>3.4</ele><time>2021-02-17T12:57:45Z</time><name>PT6821</name></trkpt>
<trkpt lat="53.459423" lon="05.650042"><ele>3.4</ele><time>2021-02-17T12:57:46Z</time><name>PT6822</name></trkpt>
<trkpt lat="53.459424" lon="05.650061"><ele>3.3</ele><time>2021-02-17T12:57:47Z</time><name>PT6823</name></trkpt>
<trkpt lat="53.459423" lon="05.650080"><ele>3.1</ele><time>2021-02-17T12:57:48Z</time><name>PT6824</name></trkpt>
<trkpt lat="53.459422" lon="05.650103"><ele>3.2</ele><time>2021-02-17T12:57:49Z</time><name>PT6825</name></trkpt>
<trkpt lat="53.459422" lon="05.650121"><ele>3.4</ele><time>2021-02-17T12:57:50Z</time><name>PT6826</name></trkpt>
<trkpt lat="53.459421" lon="05.650137"><ele>3.2</ele><time>2021-02-17T12:57:51Z</time><name>PT6827</name></trkpt>
<trkpt lat="53.459419" lon="05.650156"><ele>3.5</ele><time>2021-02-17T12:57:52Z</time><name>PT6828</name></trkpt>
<trkpt lat="53.459417" lon="05.650175"><ele>3.6</ele><time>2021-02-17T12:57:53Z</time><name>PT6829</name></trkpt>
<trkpt lat="53.459417" lon="05.650192"><ele>3.7</ele><time>2021-02-17T12:57:54Z</time><name>PT6830</name></trkpt>
<trkpt lat="53.459417" lon="05.650211"><ele>3.9</ele><time>2021-02-17T12:57:55Z</time><name>PT6831</name></trkpt>
<trkpt lat="53.459419" lon="05.650230"><ele>3.9</ele><time>2021-02-17T12:57:56Z</time><name>PT6832</name></trkpt>
<trkpt lat="53.459420" lon="05.650249"><ele>3.9</ele><time>2021-02-17T12:57:57Z</time><name>PT6833</name></trkpt>
<trkpt lat="53.459420" lon="05.650270"><ele>3.9</ele><time>2021-02-17T12:57:58Z</time><name>PT6834</name></trkpt>
<trkpt lat="53.459419" lon="05.650290"><ele>4.1</ele><time>2021-02-17T12:57:59Z</time><name>PT6835</name></trkpt>
<trkpt lat="53.459418" lon="05.650311"><ele>4.3</ele><time>2021-02-17T12:58:00Z</time><name>PT6836</name></trkpt>
<trkpt lat="53.459419" lon="05.650327"><ele>4.3</ele><time>2021-02-17T12:58:01Z</time><name>PT6837</name></trkpt>
<trkpt lat="53.459420" lon="05.650344"><ele>3.9</ele><time>2021-02-17T12:58:02Z</time><name>PT6838</name></trkpt>
<trkpt lat="53.459419" lon="05.650362"><ele>3.7</ele><time>2021-02-17T12:58:03Z</time><name>PT6839</name></trkpt>
<trkpt lat="53.459418" lon="05.650380"><ele>3.5</ele><time>2021-02-17T12:58:04Z</time><name>PT6840</name></trkpt>
<trkpt lat="53.459417" lon="05.650398"><ele>3.4</ele><time>2021-02-17T12:58:05Z</time><name>PT6841</name></trkpt>
<trkpt lat="53.459418" lon="05.650415"><ele>3.5</ele><time>2021-02-17T12:58:06Z</time><name>PT6842</name></trkpt>
<trkpt lat="53.459420" lon="05.650431"><ele>3.6</ele><time>2021-02-17T12:58:07Z</time><name>PT6843</name></trkpt>
<trkpt lat="53.459421" lon="05.650451"><ele>3.4</ele><time>2021-02-17T12:58:08Z</time><name>PT6844</name></trkpt>
<trkpt lat="53.459422" lon="05.650471"><ele>3.3</ele><time>2021-02-17T12:58:09Z</time><name>PT6845</name></trkpt>
<trkpt lat="53.459422" lon="05.650486"><ele>3.2</ele><time>2021-02-17T12:58:10Z</time><name>PT6846</name></trkpt>
<trkpt lat="53.459423" lon="05.650503"><ele>3.1</ele><time>2021-02-17T12:58:11Z</time><name>PT6847</name></trkpt>
<trkpt lat="53.459422" lon="05.650521"><ele>3.2</ele><time>2021-02-17T12:58:12Z</time><name>PT6848</name></trkpt>
<trkpt lat="53.459421" lon="05.650542"><ele>3.2</ele><time>2021-02-17T12:58:13Z</time><name>PT6849</name></trkpt>
<trkpt lat="53.459421" lon="05.650560"><ele>3.2</ele><time>2021-02-17T12:58:14Z</time><name>PT6850</name></trkpt>
<trkpt lat="53.459421" lon="05.650579"><ele>3.2</ele><time>2021-02-17T12:58:15Z</time><name>PT6851</name></trkpt>
<trkpt lat="53.459421" lon="05.650599"><ele>3.4</ele><time>2021-02-17T12:58:16Z</time><name>PT6852</name></trkpt>
<trkpt lat="53.459422" lon="05.650617"><ele>3.5</ele><time>2021-02-17T12:58:17Z</time><name>PT6853</name></trkpt>
<trkpt lat="53.459422" lon="05.650639"><ele>3.7</ele><time>2021-02-17T12:58:18Z</time><name>PT6854</name></trkpt>
<trkpt lat="53.459422" lon="05.650658"><ele>3.6</ele><time>2021-02-17T12:58:19Z</time><name>PT6855</name></trkpt>
<trkpt lat="53.459422" lon="05.650674"><ele>3.7</ele><time>2021-02-17T12:58:20Z</time><name>PT6856</name></trkpt>
<trkpt lat="53.459421" lon="05.650690"><ele>3.6</ele><time>2021-02-17T12:58:21Z</time><name>PT6857</name></trkpt>
<trkpt lat="53.459421" lon="05.650708"><ele>3.4</ele><time>2021-02-17T12:58:22Z</time><name>PT6858</name></trkpt>
<trkpt lat="53.459420" lon="05.650728"><ele>3.4</ele><time>2021-02-17T12:58:23Z</time><name>PT6859</name></trkpt>
<trkpt lat="53.459419" lon="05.650751"><ele>3.4</ele><time>2021-02-17T12:58:24Z</time><name>PT6860</name></trkpt>
<trkpt lat="53.459418" lon="05.650771"><ele>3.5</ele><time>2021-02-17T12:58:25Z</time><name>PT6861</name></trkpt>
<trkpt lat="53.459420" lon="05.650789"><ele>3.5</ele><time>2021-02-17T12:58:26Z</time><name>PT6862</name></trkpt>
<trkpt lat="53.459421" lon="05.650807"><ele>3.5</ele><time>2021-02-17T12:58:27Z</time><name>PT6863</name></trkpt>
<trkpt lat="53.459420" lon="05.650828"><ele>3.7</ele><time>2021-02-17T12:58:28Z</time><name>PT6864</name></trkpt>
<trkpt lat="53.459419" lon="05.650848"><ele>3.7</ele><time>2021-02-17T12:58:29Z</time><name>PT6865</name></trkpt>
<trkpt lat="53.459418" lon="05.650866"><ele>3.7</ele><time>2021-02-17T12:58:30Z</time><name>PT6866</name></trkpt>
<trkpt lat="53.459416" lon="05.650883"><ele>3.9</ele><time>2021-02-17T12:58:31Z</time><name>PT6867</name></trkpt>
<trkpt lat="53.459412" lon="05.650903"><ele>3.8</ele><time>2021-02-17T12:58:32Z</time><name>PT6868</name></trkpt>
<trkpt lat="53.459410" lon="05.650923"><ele>3.8</ele><time>2021-02-17T12:58:33Z</time><name>PT6869</name></trkpt>
<trkpt lat="53.459409" lon="05.650940"><ele>3.7</ele><time>2021-02-17T12:58:34Z</time><name>PT6870</name></trkpt>
<trkpt lat="53.459409" lon="05.650959"><ele>3.6</ele><time>2021-02-17T12:58:35Z</time><name>PT6871</name></trkpt>
<trkpt lat="53.459408" lon="05.650980"><ele>3.5</ele><time>2021-02-17T12:58:36Z</time><name>PT6872</name></trkpt>
<trkpt lat="53.459408" lon="05.650996"><ele>3.7</ele><time>2021-02-17T12:58:37Z</time><name>PT6873</name></trkpt>
<trkpt lat="53.459406" lon="05.651012"><ele>3.5</ele><time>2021-02-17T12:58:38Z</time><name>PT6874</name></trkpt>
<trkpt lat="53.459406" lon="05.651031"><ele>3.5</ele><time>2021-02-17T12:58:39Z</time><name>PT6875</name></trkpt>
<trkpt lat="53.459407" lon="05.651051"><ele>3.7</ele><time>2021-02-17T12:58:40Z</time><name>PT6876</name></trkpt>
<trkpt lat="53.459406" lon="05.651066"><ele>3.4</ele><time>2021-02-17T12:58:41Z</time><name>PT6877</name></trkpt>
<trkpt lat="53.459407" lon="05.651084"><ele>3.4</ele><time>2021-02-17T12:58:42Z</time><name>PT6878</name></trkpt>
<trkpt lat="53.459408" lon="05.651102"><ele>3.5</ele><time>2021-02-17T12:58:43Z</time><name>PT6879</name></trkpt>
<trkpt lat="53.459408" lon="05.651119"><ele>3.6</ele><time>2021-02-17T12:58:44Z</time><name>PT6880</name></trkpt>
<trkpt lat="53.459405" lon="05.651137"><ele>3.7</ele><time>2021-02-17T12:58:45Z</time><name>PT6881</name></trkpt>
<trkpt lat="53.459401" lon="05.651151"><ele>3.9</ele><time>2021-02-17T12:58:46Z</time><name>PT6882</name></trkpt>
<trkpt lat="53.459398" lon="05.651168"><ele>4</ele><time>2021-02-17T12:58:47Z</time><name>PT6883</name></trkpt>
<trkpt lat="53.459397" lon="05.651190"><ele>3.9</ele><time>2021-02-17T12:58:48Z</time><name>PT6884</name></trkpt>
<trkpt lat="53.459397" lon="05.651211"><ele>3.9</ele><time>2021-02-17T12:58:49Z</time><name>PT6885</name></trkpt>
<trkpt lat="53.459397" lon="05.651228"><ele>3.6</ele><time>2021-02-17T12:58:50Z</time><name>PT6886</name></trkpt>
<trkpt lat="53.459397" lon="05.651247"><ele>3.4</ele><time>2021-02-17T12:58:51Z</time><name>PT6887</name></trkpt>
<trkpt lat="53.459398" lon="05.651268"><ele>3.2</ele><time>2021-02-17T12:58:52Z</time><name>PT6888</name></trkpt>
<trkpt lat="53.459397" lon="05.651290"><ele>3.4</ele><time>2021-02-17T12:58:53Z</time><name>PT6889</name></trkpt>
<trkpt lat="53.459396" lon="05.651310"><ele>3.4</ele><time>2021-02-17T12:58:54Z</time><name>PT6890</name></trkpt>
<trkpt lat="53.459394" lon="05.651328"><ele>3.4</ele><time>2021-02-17T12:58:55Z</time><name>PT6891</name></trkpt>
<trkpt lat="53.459392" lon="05.651347"><ele>3.5</ele><time>2021-02-17T12:58:56Z</time><name>PT6892</name></trkpt>
<trkpt lat="53.459390" lon="05.651366"><ele>3.6</ele><time>2021-02-17T12:58:57Z</time><name>PT6893</name></trkpt>
<trkpt lat="53.459388" lon="05.651387"><ele>3.4</ele><time>2021-02-17T12:58:58Z</time><name>PT6894</name></trkpt>
<trkpt lat="53.459387" lon="05.651407"><ele>3.6</ele><time>2021-02-17T12:58:59Z</time><name>PT6895</name></trkpt>
<trkpt lat="53.459385" lon="05.651427"><ele>3.7</ele><time>2021-02-17T12:59:00Z</time><name>PT6896</name></trkpt>
<trkpt lat="53.459383" lon="05.651444"><ele>3.5</ele><time>2021-02-17T12:59:01Z</time><name>PT6897</name></trkpt>
<trkpt lat="53.459383" lon="05.651464"><ele>3.6</ele><time>2021-02-17T12:59:02Z</time><name>PT6898</name></trkpt>
<trkpt lat="53.459383" lon="05.651482"><ele>3.5</ele><time>2021-02-17T12:59:03Z</time><name>PT6899</name></trkpt>
<trkpt lat="53.459382" lon="05.651498"><ele>3.4</ele><time>2021-02-17T12:59:04Z</time><name>PT6900</name></trkpt>
<trkpt lat="53.459381" lon="05.651516"><ele>3.4</ele><time>2021-02-17T12:59:05Z</time><name>PT6901</name></trkpt>
<trkpt lat="53.459381" lon="05.651535"><ele>3.4</ele><time>2021-02-17T12:59:06Z</time><name>PT6902</name></trkpt>
<trkpt lat="53.459381" lon="05.651557"><ele>3.4</ele><time>2021-02-17T12:59:07Z</time><name>PT6903</name></trkpt>
<trkpt lat="53.459381" lon="05.651576"><ele>3.4</ele><time>2021-02-17T12:59:08Z</time><name>PT6904</name></trkpt>
<trkpt lat="53.459381" lon="05.651592"><ele>3.5</ele><time>2021-02-17T12:59:09Z</time><name>PT6905</name></trkpt>
<trkpt lat="53.459381" lon="05.651611"><ele>3.7</ele><time>2021-02-17T12:59:10Z</time><name>PT6906</name></trkpt>
<trkpt lat="53.459380" lon="05.651629"><ele>3.8</ele><time>2021-02-17T12:59:11Z</time><name>PT6907</name></trkpt>
<trkpt lat="53.459380" lon="05.651647"><ele>3.8</ele><time>2021-02-17T12:59:12Z</time><name>PT6908</name></trkpt>
<trkpt lat="53.459379" lon="05.651665"><ele>3.6</ele><time>2021-02-17T12:59:13Z</time><name>PT6909</name></trkpt>
<trkpt lat="53.459377" lon="05.651685"><ele>3.4</ele><time>2021-02-17T12:59:14Z</time><name>PT6910</name></trkpt>
<trkpt lat="53.459374" lon="05.651705"><ele>3.4</ele><time>2021-02-17T12:59:15Z</time><name>PT6911</name></trkpt>
<trkpt lat="53.459372" lon="05.651728"><ele>3.1</ele><time>2021-02-17T12:59:16Z</time><name>PT6912</name></trkpt>
<trkpt lat="53.459370" lon="05.651748"><ele>3.1</ele><time>2021-02-17T12:59:17Z</time><name>PT6913</name></trkpt>
<trkpt lat="53.459370" lon="05.651765"><ele>3.1</ele><time>2021-02-17T12:59:18Z</time><name>PT6914</name></trkpt>
<trkpt lat="53.459371" lon="05.651781"><ele>3.2</ele><time>2021-02-17T12:59:19Z</time><name>PT6915</name></trkpt>
<trkpt lat="53.459370" lon="05.651801"><ele>3.2</ele><time>2021-02-17T12:59:20Z</time><name>PT6916</name></trkpt>
<trkpt lat="53.459369" lon="05.651822"><ele>3.2</ele><time>2021-02-17T12:59:21Z</time><name>PT6917</name></trkpt>
<trkpt lat="53.459366" lon="05.651841"><ele>3.3</ele><time>2021-02-17T12:59:22Z</time><name>PT6918</name></trkpt>
<trkpt lat="53.459364" lon="05.651858"><ele>3.4</ele><time>2021-02-17T12:59:23Z</time><name>PT6919</name></trkpt>
<trkpt lat="53.459362" lon="05.651876"><ele>3.4</ele><time>2021-02-17T12:59:24Z</time><name>PT6920</name></trkpt>
<trkpt lat="53.459362" lon="05.651895"><ele>3.4</ele><time>2021-02-17T12:59:25Z</time><name>PT6921</name></trkpt>
<trkpt lat="53.459361" lon="05.651910"><ele>3.5</ele><time>2021-02-17T12:59:26Z</time><name>PT6922</name></trkpt>
<trkpt lat="53.459360" lon="05.651926"><ele>3.4</ele><time>2021-02-17T12:59:27Z</time><name>PT6923</name></trkpt>
<trkpt lat="53.459359" lon="05.651943"><ele>3.5</ele><time>2021-02-17T12:59:28Z</time><name>PT6924</name></trkpt>
<trkpt lat="53.459359" lon="05.651963"><ele>3.8</ele><time>2021-02-17T12:59:29Z</time><name>PT6925</name></trkpt>
<trkpt lat="53.459357" lon="05.651986"><ele>3.9</ele><time>2021-02-17T12:59:30Z</time><name>PT6926</name></trkpt>
<trkpt lat="53.459354" lon="05.652005"><ele>3.9</ele><time>2021-02-17T12:59:31Z</time><name>PT6927</name></trkpt>
<trkpt lat="53.459352" lon="05.652023"><ele>3.9</ele><time>2021-02-17T12:59:32Z</time><name>PT6928</name></trkpt>
<trkpt lat="53.459350" lon="05.652042"><ele>3.8</ele><time>2021-02-17T12:59:33Z</time><name>PT6929</name></trkpt>
<trkpt lat="53.459349" lon="05.652062"><ele>3.5</ele><time>2021-02-17T12:59:34Z</time><name>PT6930</name></trkpt>
<trkpt lat="53.459348" lon="05.652081"><ele>3.7</ele><time>2021-02-17T12:59:35Z</time><name>PT6931</name></trkpt>
<trkpt lat="53.459348" lon="05.652099"><ele>3.7</ele><time>2021-02-17T12:59:36Z</time><name>PT6932</name></trkpt>
<trkpt lat="53.459347" lon="05.652117"><ele>3.8</ele><time>2021-02-17T12:59:37Z</time><name>PT6933</name></trkpt>
<trkpt lat="53.459346" lon="05.652134"><ele>3.6</ele><time>2021-02-17T12:59:38Z</time><name>PT6934</name></trkpt>
<trkpt lat="53.459346" lon="05.652154"><ele>3.6</ele><time>2021-02-17T12:59:39Z</time><name>PT6935</name></trkpt>
<trkpt lat="53.459345" lon="05.652172"><ele>3.5</ele><time>2021-02-17T12:59:40Z</time><name>PT6936</name></trkpt>
<trkpt lat="53.459346" lon="05.652188"><ele>3.4</ele><time>2021-02-17T12:59:41Z</time><name>PT6937</name></trkpt>
<trkpt lat="53.459344" lon="05.652206"><ele>3.4</ele><time>2021-02-17T12:59:42Z</time><name>PT6938</name></trkpt>
<trkpt lat="53.459342" lon="05.652224"><ele>3.4</ele><time>2021-02-17T12:59:43Z</time><name>PT6939</name></trkpt>
<trkpt lat="53.459340" lon="05.652241"><ele>3.5</ele><time>2021-02-17T12:59:44Z</time><name>PT6940</name></trkpt>
<trkpt lat="53.459339" lon="05.652259"><ele>3.7</ele><time>2021-02-17T12:59:45Z</time><name>PT6941</name></trkpt>
<trkpt lat="53.459339" lon="05.652277"><ele>3.6</ele><time>2021-02-17T12:59:46Z</time><name>PT6942</name></trkpt>
<trkpt lat="53.459339" lon="05.652296"><ele>3.4</ele><time>2021-02-17T12:59:47Z</time><name>PT6943</name></trkpt>
<trkpt lat="53.459341" lon="05.652313"><ele>3.5</ele><time>2021-02-17T12:59:48Z</time><name>PT6944</name></trkpt>
<trkpt lat="53.459341" lon="05.652329"><ele>3.4</ele><time>2021-02-17T12:59:49Z</time><name>PT6945</name></trkpt>
<trkpt lat="53.459340" lon="05.652346"><ele>3.4</ele><time>2021-02-17T12:59:50Z</time><name>PT6946</name></trkpt>
<trkpt lat="53.459339" lon="05.652366"><ele>3.4</ele><time>2021-02-17T12:59:51Z</time><name>PT6947</name></trkpt>
<trkpt lat="53.459340" lon="05.652383"><ele>3.4</ele><time>2021-02-17T12:59:52Z</time><name>PT6948</name></trkpt>
<trkpt lat="53.459339" lon="05.652398"><ele>3.4</ele><time>2021-02-17T12:59:53Z</time><name>PT6949</name></trkpt>
<trkpt lat="53.459338" lon="05.652414"><ele>3.4</ele><time>2021-02-17T12:59:54Z</time><name>PT6950</name></trkpt>
<trkpt lat="53.459336" lon="05.652432"><ele>3.4</ele><time>2021-02-17T12:59:55Z</time><name>PT6951</name></trkpt>
<trkpt lat="53.459332" lon="05.652450"><ele>3.4</ele><time>2021-02-17T12:59:56Z</time><name>PT6952</name></trkpt>
<trkpt lat="53.459330" lon="05.652471"><ele>3.4</ele><time>2021-02-17T12:59:57Z</time><name>PT6953</name></trkpt>
<trkpt lat="53.459327" lon="05.652490"><ele>3.4</ele><time>2021-02-17T12:59:58Z</time><name>PT6954</name></trkpt>
<trkpt lat="53.459327" lon="05.652509"><ele>3.6</ele><time>2021-02-17T12:59:59Z</time><name>PT6955</name></trkpt>
<trkpt lat="53.459328" lon="05.652525"><ele>3.7</ele><time>2021-02-17T13:00:00Z</time><name>PT6956</name></trkpt>
<trkpt lat="53.459329" lon="05.652543"><ele>3.6</ele><time>2021-02-17T13:00:01Z</time><name>PT6957</name></trkpt>
<trkpt lat="53.459329" lon="05.652561"><ele>3.6</ele><time>2021-02-17T13:00:02Z</time><name>PT6958</name></trkpt>
<trkpt lat="53.459329" lon="05.652581"><ele>3.6</ele><time>2021-02-17T13:00:03Z</time><name>PT6959</name></trkpt>
<trkpt lat="53.459328" lon="05.652597"><ele>3.6</ele><time>2021-02-17T13:00:04Z</time><name>PT6960</name></trkpt>
<trkpt lat="53.459329" lon="05.652613"><ele>3.7</ele><time>2021-02-17T13:00:05Z</time><name>PT6961</name></trkpt>
<trkpt lat="53.459327" lon="05.652636"><ele>3.7</ele><time>2021-02-17T13:00:06Z</time><name>PT6962</name></trkpt>
<trkpt lat="53.459326" lon="05.652655"><ele>3.5</ele><time>2021-02-17T13:00:07Z</time><name>PT6963</name></trkpt>
<trkpt lat="53.459326" lon="05.652676"><ele>3.4</ele><time>2021-02-17T13:00:08Z</time><name>PT6964</name></trkpt>
<trkpt lat="53.459325" lon="05.652696"><ele>3.4</ele><time>2021-02-17T13:00:09Z</time><name>PT6965</name></trkpt>
<trkpt lat="53.459326" lon="05.652709"><ele>3.3</ele><time>2021-02-17T13:00:10Z</time><name>PT6966</name></trkpt>
<trkpt lat="53.459327" lon="05.652724"><ele>3.3</ele><time>2021-02-17T13:00:11Z</time><name>PT6967</name></trkpt>
<trkpt lat="53.459327" lon="05.652740"><ele>3.3</ele><time>2021-02-17T13:00:12Z</time><name>PT6968</name></trkpt>
<trkpt lat="53.459327" lon="05.652757"><ele>3.4</ele><time>2021-02-17T13:00:13Z</time><name>PT6969</name></trkpt>
<trkpt lat="53.459324" lon="05.652772"><ele>3.6</ele><time>2021-02-17T13:00:14Z</time><name>PT6970</name></trkpt>
<trkpt lat="53.459322" lon="05.652790"><ele>3.7</ele><time>2021-02-17T13:00:15Z</time><name>PT6971</name></trkpt>
<trkpt lat="53.459320" lon="05.652808"><ele>3.8</ele><time>2021-02-17T13:00:16Z</time><name>PT6972</name></trkpt>
<trkpt lat="53.459320" lon="05.652829"><ele>3.9</ele><time>2021-02-17T13:00:17Z</time><name>PT6973</name></trkpt>
<trkpt lat="53.459320" lon="05.652848"><ele>3.9</ele><time>2021-02-17T13:00:18Z</time><name>PT6974</name></trkpt>
<trkpt lat="53.459321" lon="05.652864"><ele>3.9</ele><time>2021-02-17T13:00:19Z</time><name>PT6975</name></trkpt>
<trkpt lat="53.459321" lon="05.652880"><ele>3.9</ele><time>2021-02-17T13:00:20Z</time><name>PT6976</name></trkpt>
<trkpt lat="53.459322" lon="05.652897"><ele>3.9</ele><time>2021-02-17T13:00:21Z</time><name>PT6977</name></trkpt>
<trkpt lat="53.459322" lon="05.652915"><ele>3.7</ele><time>2021-02-17T13:00:22Z</time><name>PT6978</name></trkpt>
<trkpt lat="53.459322" lon="05.652934"><ele>3.5</ele><time>2021-02-17T13:00:23Z</time><name>PT6979</name></trkpt>
<trkpt lat="53.459320" lon="05.652953"><ele>3.6</ele><time>2021-02-17T13:00:24Z</time><name>PT6980</name></trkpt>
<trkpt lat="53.459319" lon="05.652972"><ele>3.6</ele><time>2021-02-17T13:00:25Z</time><name>PT6981</name></trkpt>
<trkpt lat="53.459318" lon="05.652993"><ele>3.5</ele><time>2021-02-17T13:00:26Z</time><name>PT6982</name></trkpt>
<trkpt lat="53.459318" lon="05.653011"><ele>3.4</ele><time>2021-02-17T13:00:27Z</time><name>PT6983</name></trkpt>
<trkpt lat="53.459317" lon="05.653028"><ele>3.5</ele><time>2021-02-17T13:00:28Z</time><name>PT6984</name></trkpt>
<trkpt lat="53.459318" lon="05.653044"><ele>3.4</ele><time>2021-02-17T13:00:29Z</time><name>PT6985</name></trkpt>
<trkpt lat="53.459319" lon="05.653062"><ele>3.4</ele><time>2021-02-17T13:00:30Z</time><name>PT6986</name></trkpt>
<trkpt lat="53.459318" lon="05.653078"><ele>3.4</ele><time>2021-02-17T13:00:31Z</time><name>PT6987</name></trkpt>
<trkpt lat="53.459318" lon="05.653096"><ele>3.4</ele><time>2021-02-17T13:00:32Z</time><name>PT6988</name></trkpt>
<trkpt lat="53.459318" lon="05.653114"><ele>3.4</ele><time>2021-02-17T13:00:33Z</time><name>PT6989</name></trkpt>
<trkpt lat="53.459320" lon="05.653133"><ele>3.7</ele><time>2021-02-17T13:00:34Z</time><name>PT6990</name></trkpt>
<trkpt lat="53.459322" lon="05.653151"><ele>4</ele><time>2021-02-17T13:00:35Z</time><name>PT6991</name></trkpt>
<trkpt lat="53.459324" lon="05.653166"><ele>4.2</ele><time>2021-02-17T13:00:36Z</time><name>PT6992</name></trkpt>
<trkpt lat="53.459325" lon="05.653182"><ele>4.3</ele><time>2021-02-17T13:00:37Z</time><name>PT6993</name></trkpt>
<trkpt lat="53.459325" lon="05.653198"><ele>4</ele><time>2021-02-17T13:00:38Z</time><name>PT6994</name></trkpt>
<trkpt lat="53.459323" lon="05.653219"><ele>3.9</ele><time>2021-02-17T13:00:39Z</time><name>PT6995</name></trkpt>
<trkpt lat="53.459320" lon="05.653238"><ele>3.9</ele><time>2021-02-17T13:00:40Z</time><name>PT6996</name></trkpt>
<trkpt lat="53.459319" lon="05.653255"><ele>3.9</ele><time>2021-02-17T13:00:41Z</time><name>PT6997</name></trkpt>
<trkpt lat="53.459320" lon="05.653272"><ele>3.9</ele><time>2021-02-17T13:00:42Z</time><name>PT6998</name></trkpt>
<trkpt lat="53.459321" lon="05.653286"><ele>3.9</ele><time>2021-02-17T13:00:43Z</time><name>PT6999</name></trkpt>
<trkpt lat="53.459323" lon="05.653293"><ele>4</ele><time>2021-02-17T13:00:44Z</time><name>PT7000</name></trkpt>
<trkpt lat="53.459324" lon="05.653298"><ele>3.8</ele><time>2021-02-17T13:00:45Z</time><name>PT7001</name></trkpt>
<trkpt lat="53.459324" lon="05.653300"><ele>3.8</ele><time>2021-02-17T13:00:46Z</time><name>PT7002</name></trkpt>
<trkpt lat="53.459323" lon="05.653303"><ele>3.7</ele><time>2021-02-17T13:00:47Z</time><name>PT7003</name></trkpt>
<trkpt lat="53.459326" lon="05.653313"><ele>3.8</ele><time>2021-02-17T13:00:53Z</time><name>PT7004</name></trkpt>
<trkpt lat="53.459332" lon="05.653328"><ele>3.8</ele><time>2021-02-17T13:00:54Z</time><name>PT7005</name></trkpt>
<trkpt lat="53.459338" lon="05.653341"><ele>3.8</ele><time>2021-02-17T13:00:55Z</time><name>PT7006</name></trkpt>
<trkpt lat="53.459343" lon="05.653352"><ele>3.6</ele><time>2021-02-17T13:00:56Z</time><name>PT7007</name></trkpt>
<trkpt lat="53.459348" lon="05.653366"><ele>3.5</ele><time>2021-02-17T13:00:57Z</time><name>PT7008</name></trkpt>
<trkpt lat="53.459354" lon="05.653379"><ele>3.7</ele><time>2021-02-17T13:00:58Z</time><name>PT7009</name></trkpt>
<trkpt lat="53.459361" lon="05.653391"><ele>3.6</ele><time>2021-02-17T13:00:59Z</time><name>PT7010</name></trkpt>
<trkpt lat="53.459368" lon="05.653401"><ele>3.6</ele><time>2021-02-17T13:01:00Z</time><name>PT7011</name></trkpt>
<trkpt lat="53.459373" lon="05.653407"><ele>3.7</ele><time>2021-02-17T13:01:01Z</time><name>PT7012</name></trkpt>
<trkpt lat="53.459378" lon="05.653415"><ele>3.9</ele><time>2021-02-17T13:01:02Z</time><name>PT7013</name></trkpt>
<trkpt lat="53.459383" lon="05.653422"><ele>3.9</ele><time>2021-02-17T13:01:03Z</time><name>PT7014</name></trkpt>
<trkpt lat="53.459390" lon="05.653430"><ele>4.3</ele><time>2021-02-17T13:01:04Z</time><name>PT7015</name></trkpt>
<trkpt lat="53.459396" lon="05.653439"><ele>4.4</ele><time>2021-02-17T13:01:05Z</time><name>PT7016</name></trkpt>
<trkpt lat="53.459404" lon="05.653447"><ele>4.3</ele><time>2021-02-17T13:01:06Z</time><name>PT7017</name></trkpt>
<trkpt lat="53.459412" lon="05.653451"><ele>4.4</ele><time>2021-02-17T13:01:07Z</time><name>PT7018</name></trkpt>
<trkpt lat="53.459420" lon="05.653453"><ele>4.1</ele><time>2021-02-17T13:01:08Z</time><name>PT7019</name></trkpt>
<trkpt lat="53.459426" lon="05.653456"><ele>4.2</ele><time>2021-02-17T13:01:09Z</time><name>PT7020</name></trkpt>
<trkpt lat="53.459433" lon="05.653462"><ele>4.1</ele><time>2021-02-17T13:01:10Z</time><name>PT7021</name></trkpt>
<trkpt lat="53.459438" lon="05.653469"><ele>4</ele><time>2021-02-17T13:01:11Z</time><name>PT7022</name></trkpt>
<trkpt lat="53.459443" lon="05.653472"><ele>3.9</ele><time>2021-02-17T13:01:12Z</time><name>PT7023</name></trkpt>
<trkpt lat="53.459448" lon="05.653474"><ele>3.9</ele><time>2021-02-17T13:01:13Z</time><name>PT7024</name></trkpt>
<trkpt lat="53.459454" lon="05.653480"><ele>3.8</ele><time>2021-02-17T13:01:14Z</time><name>PT7025</name></trkpt>
<trkpt lat="53.459459" lon="05.653483"><ele>3.8</ele><time>2021-02-17T13:01:15Z</time><name>PT7026</name></trkpt>
<trkpt lat="53.459462" lon="05.653485"><ele>3.5</ele><time>2021-02-17T13:01:16Z</time><name>PT7027</name></trkpt>
<trkpt lat="53.459465" lon="05.653492"><ele>3.7</ele><time>2021-02-17T13:01:17Z</time><name>PT7028</name></trkpt>
<trkpt lat="53.459469" lon="05.653497"><ele>3.8</ele><time>2021-02-17T13:01:18Z</time><name>PT7029</name></trkpt>
<trkpt lat="53.459473" lon="05.653499"><ele>4</ele><time>2021-02-17T13:01:19Z</time><name>PT7030</name></trkpt>
<trkpt lat="53.459478" lon="05.653505"><ele>4.3</ele><time>2021-02-17T13:01:20Z</time><name>PT7031</name></trkpt>
<trkpt lat="53.459485" lon="05.653512"><ele>4.2</ele><time>2021-02-17T13:01:21Z</time><name>PT7032</name></trkpt>
<trkpt lat="53.459492" lon="05.653518"><ele>4.3</ele><time>2021-02-17T13:01:22Z</time><name>PT7033</name></trkpt>
<trkpt lat="53.459493" lon="05.653526"><ele>3.9</ele><time>2021-02-17T13:01:27Z</time><name>PT7034</name></trkpt>
<trkpt lat="53.459508" lon="05.653526"><ele>3.6</ele><time>2021-02-17T13:01:28Z</time><name>PT7035</name></trkpt>
<trkpt lat="53.459521" lon="05.653528"><ele>3.5</ele><time>2021-02-17T13:01:29Z</time><name>PT7036</name></trkpt>
<trkpt lat="53.459533" lon="05.653524"><ele>3.5</ele><time>2021-02-17T13:01:30Z</time><name>PT7037</name></trkpt>
<trkpt lat="53.459543" lon="05.653520"><ele>3.6</ele><time>2021-02-17T13:01:31Z</time><name>PT7038</name></trkpt>
<trkpt lat="53.459558" lon="05.653518"><ele>3.6</ele><time>2021-02-17T13:01:32Z</time><name>PT7039</name></trkpt>
<trkpt lat="53.459566" lon="05.653508"><ele>3.6</ele><time>2021-02-17T13:01:33Z</time><name>PT7040</name></trkpt>
<trkpt lat="53.459574" lon="05.653496"><ele>3.6</ele><time>2021-02-17T13:01:34Z</time><name>PT7041</name></trkpt>
<trkpt lat="53.459582" lon="05.653497"><ele>3.4</ele><time>2021-02-17T13:01:35Z</time><name>PT7042</name></trkpt>
<trkpt lat="53.459589" lon="05.653493"><ele>3.4</ele><time>2021-02-17T13:01:36Z</time><name>PT7043</name></trkpt>
<trkpt lat="53.459598" lon="05.653485"><ele>3.4</ele><time>2021-02-17T13:01:37Z</time><name>PT7044</name></trkpt>
<trkpt lat="53.459605" lon="05.653480"><ele>3.6</ele><time>2021-02-17T13:01:38Z</time><name>PT7045</name></trkpt>
<trkpt lat="53.459609" lon="05.653474"><ele>3.6</ele><time>2021-02-17T13:01:39Z</time><name>PT7046</name></trkpt>
<trkpt lat="53.459616" lon="05.653469"><ele>3.5</ele><time>2021-02-17T13:01:40Z</time><name>PT7047</name></trkpt>
<trkpt lat="53.459625" lon="05.653465"><ele>3.4</ele><time>2021-02-17T13:01:41Z</time><name>PT7048</name></trkpt>
<trkpt lat="53.459631" lon="05.653463"><ele>3.4</ele><time>2021-02-17T13:01:42Z</time><name>PT7049</name></trkpt>
<trkpt lat="53.459638" lon="05.653457"><ele>3.4</ele><time>2021-02-17T13:01:43Z</time><name>PT7050</name></trkpt>
<trkpt lat="53.459645" lon="05.653453"><ele>3.3</ele><time>2021-02-17T13:01:44Z</time><name>PT7051</name></trkpt>
<trkpt lat="53.459653" lon="05.653448"><ele>3.4</ele><time>2021-02-17T13:01:45Z</time><name>PT7052</name></trkpt>
<trkpt lat="53.459660" lon="05.653443"><ele>3.4</ele><time>2021-02-17T13:01:46Z</time><name>PT7053</name></trkpt>
<trkpt lat="53.459668" lon="05.653436"><ele>3.4</ele><time>2021-02-17T13:01:47Z</time><name>PT7054</name></trkpt>
<trkpt lat="53.459675" lon="05.653428"><ele>3.4</ele><time>2021-02-17T13:01:48Z</time><name>PT7055</name></trkpt>
<trkpt lat="53.459680" lon="05.653424"><ele>3.4</ele><time>2021-02-17T13:01:49Z</time><name>PT7056</name></trkpt>
<trkpt lat="53.459686" lon="05.653416"><ele>3.5</ele><time>2021-02-17T13:01:50Z</time><name>PT7057</name></trkpt>
<trkpt lat="53.459694" lon="05.653417"><ele>3.8</ele><time>2021-02-17T13:01:51Z</time><name>PT7058</name></trkpt>
<trkpt lat="53.459703" lon="05.653421"><ele>3.9</ele><time>2021-02-17T13:01:52Z</time><name>PT7059</name></trkpt>
<trkpt lat="53.459712" lon="05.653420"><ele>3.9</ele><time>2021-02-17T13:01:53Z</time><name>PT7060</name></trkpt>
<trkpt lat="53.459722" lon="05.653422"><ele>4</ele><time>2021-02-17T13:01:54Z</time><name>PT7061</name></trkpt>
<trkpt lat="53.459730" lon="05.653419"><ele>3.9</ele><time>2021-02-17T13:01:55Z</time><name>PT7062</name></trkpt>
<trkpt lat="53.459739" lon="05.653419"><ele>3.8</ele><time>2021-02-17T13:01:56Z</time><name>PT7063</name></trkpt>
<trkpt lat="53.459748" lon="05.653421"><ele>3.8</ele><time>2021-02-17T13:01:57Z</time><name>PT7064</name></trkpt>
<trkpt lat="53.459756" lon="05.653421"><ele>3.9</ele><time>2021-02-17T13:01:58Z</time><name>PT7065</name></trkpt>
<trkpt lat="53.459765" lon="05.653422"><ele>3.9</ele><time>2021-02-17T13:01:59Z</time><name>PT7066</name></trkpt>
<trkpt lat="53.459775" lon="05.653423"><ele>3.9</ele><time>2021-02-17T13:02:00Z</time><name>PT7067</name></trkpt>
<trkpt lat="53.459785" lon="05.653421"><ele>3.9</ele><time>2021-02-17T13:02:01Z</time><name>PT7068</name></trkpt>
<trkpt lat="53.459794" lon="05.653420"><ele>3.8</ele><time>2021-02-17T13:02:02Z</time><name>PT7069</name></trkpt>
<trkpt lat="53.459803" lon="05.653423"><ele>3.8</ele><time>2021-02-17T13:02:03Z</time><name>PT7070</name></trkpt>
<trkpt lat="53.459811" lon="05.653423"><ele>3.8</ele><time>2021-02-17T13:02:04Z</time><name>PT7071</name></trkpt>
<trkpt lat="53.459821" lon="05.653425"><ele>3.7</ele><time>2021-02-17T13:02:05Z</time><name>PT7072</name></trkpt>
<trkpt lat="53.459830" lon="05.653428"><ele>3.6</ele><time>2021-02-17T13:02:06Z</time><name>PT7073</name></trkpt>
<trkpt lat="53.459841" lon="05.653431"><ele>3.5</ele><time>2021-02-17T13:02:07Z</time><name>PT7074</name></trkpt>
<trkpt lat="53.459852" lon="05.653434"><ele>3.7</ele><time>2021-02-17T13:02:08Z</time><name>PT7075</name></trkpt>
<trkpt lat="53.459863" lon="05.653440"><ele>3.6</ele><time>2021-02-17T13:02:09Z</time><name>PT7076</name></trkpt>
<trkpt lat="53.459873" lon="05.653441"><ele>3.6</ele><time>2021-02-17T13:02:10Z</time><name>PT7077</name></trkpt>
<trkpt lat="53.459883" lon="05.653439"><ele>3.6</ele><time>2021-02-17T13:02:11Z</time><name>PT7078</name></trkpt>
<trkpt lat="53.459894" lon="05.653437"><ele>3.8</ele><time>2021-02-17T13:02:12Z</time><name>PT7079</name></trkpt>
<trkpt lat="53.459903" lon="05.653438"><ele>3.7</ele><time>2021-02-17T13:02:13Z</time><name>PT7080</name></trkpt>
<trkpt lat="53.459914" lon="05.653433"><ele>3.5</ele><time>2021-02-17T13:02:14Z</time><name>PT7081</name></trkpt>
<trkpt lat="53.459926" lon="05.653428"><ele>3.7</ele><time>2021-02-17T13:02:15Z</time><name>PT7082</name></trkpt>
<trkpt lat="53.459936" lon="05.653425"><ele>3.4</ele><time>2021-02-17T13:02:16Z</time><name>PT7083</name></trkpt>
<trkpt lat="53.459944" lon="05.653423"><ele>3.5</ele><time>2021-02-17T13:02:17Z</time><name>PT7084</name></trkpt>
<trkpt lat="53.459953" lon="05.653421"><ele>3.5</ele><time>2021-02-17T13:02:18Z</time><name>PT7085</name></trkpt>
<trkpt lat="53.459963" lon="05.653419"><ele>3.4</ele><time>2021-02-17T13:02:19Z</time><name>PT7086</name></trkpt>
<trkpt lat="53.459972" lon="05.653415"><ele>3.5</ele><time>2021-02-17T13:02:20Z</time><name>PT7087</name></trkpt>
<trkpt lat="53.459980" lon="05.653410"><ele>3.4</ele><time>2021-02-17T13:02:21Z</time><name>PT7088</name></trkpt>
<trkpt lat="53.459989" lon="05.653408"><ele>3.4</ele><time>2021-02-17T13:02:22Z</time><name>PT7089</name></trkpt>
<trkpt lat="53.459995" lon="05.653406"><ele>3.4</ele><time>2021-02-17T13:02:23Z</time><name>PT7090</name></trkpt>
<trkpt lat="53.460004" lon="05.653405"><ele>3.3</ele><time>2021-02-17T13:02:24Z</time><name>PT7091</name></trkpt>
<trkpt lat="53.460014" lon="05.653401"><ele>3.3</ele><time>2021-02-17T13:02:25Z</time><name>PT7092</name></trkpt>
<trkpt lat="53.460026" lon="05.653395"><ele>3.3</ele><time>2021-02-17T13:02:26Z</time><name>PT7093</name></trkpt>
<trkpt lat="53.460036" lon="05.653391"><ele>3.4</ele><time>2021-02-17T13:02:27Z</time><name>PT7094</name></trkpt>
<trkpt lat="53.460047" lon="05.653387"><ele>3.6</ele><time>2021-02-17T13:02:28Z</time><name>PT7095</name></trkpt>
<trkpt lat="53.460056" lon="05.653383"><ele>3.6</ele><time>2021-02-17T13:02:29Z</time><name>PT7096</name></trkpt>
<trkpt lat="53.460064" lon="05.653380"><ele>3.7</ele><time>2021-02-17T13:02:30Z</time><name>PT7097</name></trkpt>
<trkpt lat="53.460075" lon="05.653377"><ele>3.7</ele><time>2021-02-17T13:02:31Z</time><name>PT7098</name></trkpt>
<trkpt lat="53.460084" lon="05.653373"><ele>3.6</ele><time>2021-02-17T13:02:32Z</time><name>PT7099</name></trkpt>
<trkpt lat="53.460093" lon="05.653368"><ele>3.7</ele><time>2021-02-17T13:02:33Z</time><name>PT7100</name></trkpt>
<trkpt lat="53.460100" lon="05.653362"><ele>3.7</ele><time>2021-02-17T13:02:34Z</time><name>PT7101</name></trkpt>
<trkpt lat="53.460110" lon="05.653356"><ele>3.8</ele><time>2021-02-17T13:02:35Z</time><name>PT7102</name></trkpt>
<trkpt lat="53.460121" lon="05.653350"><ele>3.8</ele><time>2021-02-17T13:02:36Z</time><name>PT7103</name></trkpt>
<trkpt lat="53.460130" lon="05.653343"><ele>3.7</ele><time>2021-02-17T13:02:37Z</time><name>PT7104</name></trkpt>
<trkpt lat="53.460140" lon="05.653337"><ele>3.8</ele><time>2021-02-17T13:02:38Z</time><name>PT7105</name></trkpt>
<trkpt lat="53.460148" lon="05.653327"><ele>3.6</ele><time>2021-02-17T13:02:39Z</time><name>PT7106</name></trkpt>
<trkpt lat="53.460168" lon="05.653313"><ele>3.8</ele><time>2021-02-17T13:02:40Z</time><name>PT7107</name></trkpt>
<trkpt lat="53.460177" lon="05.653299"><ele>3.7</ele><time>2021-02-17T13:02:41Z</time><name>PT7108</name></trkpt>
<trkpt lat="53.460186" lon="05.653290"><ele>3.6</ele><time>2021-02-17T13:02:42Z</time><name>PT7109</name></trkpt>
<trkpt lat="53.460192" lon="05.653281"><ele>3.4</ele><time>2021-02-17T13:02:43Z</time><name>PT7110</name></trkpt>
<trkpt lat="53.460200" lon="05.653270"><ele>3.2</ele><time>2021-02-17T13:02:44Z</time><name>PT7111</name></trkpt>
<trkpt lat="53.460209" lon="05.653260"><ele>3.1</ele><time>2021-02-17T13:02:45Z</time><name>PT7112</name></trkpt>
<trkpt lat="53.460216" lon="05.653251"><ele>3</ele><time>2021-02-17T13:02:46Z</time><name>PT7113</name></trkpt>
<trkpt lat="53.460224" lon="05.653246"><ele>3.2</ele><time>2021-02-17T13:02:47Z</time><name>PT7114</name></trkpt>
<trkpt lat="53.460232" lon="05.653238"><ele>3.3</ele><time>2021-02-17T13:02:48Z</time><name>PT7115</name></trkpt>
<trkpt lat="53.460241" lon="05.653232"><ele>3.3</ele><time>2021-02-17T13:02:49Z</time><name>PT7116</name></trkpt>
<trkpt lat="53.460251" lon="05.653229"><ele>3.3</ele><time>2021-02-17T13:02:50Z</time><name>PT7117</name></trkpt>
<trkpt lat="53.460259" lon="05.653226"><ele>3.3</ele><time>2021-02-17T13:02:51Z</time><name>PT7118</name></trkpt>
<trkpt lat="53.460269" lon="05.653222"><ele>3.2</ele><time>2021-02-17T13:02:52Z</time><name>PT7119</name></trkpt>
<trkpt lat="53.460277" lon="05.653218"><ele>3.3</ele><time>2021-02-17T13:02:53Z</time><name>PT7120</name></trkpt>
<trkpt lat="53.460284" lon="05.653213"><ele>3.4</ele><time>2021-02-17T13:02:54Z</time><name>PT7121</name></trkpt>
<trkpt lat="53.460291" lon="05.653209"><ele>3.6</ele><time>2021-02-17T13:02:55Z</time><name>PT7122</name></trkpt>
<trkpt lat="53.460298" lon="05.653206"><ele>3.6</ele><time>2021-02-17T13:02:56Z</time><name>PT7123</name></trkpt>
<trkpt lat="53.460306" lon="05.653201"><ele>3.7</ele><time>2021-02-17T13:02:57Z</time><name>PT7124</name></trkpt>
<trkpt lat="53.460312" lon="05.653198"><ele>3.6</ele><time>2021-02-17T13:02:58Z</time><name>PT7125</name></trkpt>
<trkpt lat="53.460319" lon="05.653197"><ele>3.6</ele><time>2021-02-17T13:02:59Z</time><name>PT7126</name></trkpt>
<trkpt lat="53.460327" lon="05.653196"><ele>3.7</ele><time>2021-02-17T13:03:00Z</time><name>PT7127</name></trkpt>
<trkpt lat="53.460334" lon="05.653193"><ele>3.5</ele><time>2021-02-17T13:03:01Z</time><name>PT7128</name></trkpt>
<trkpt lat="53.460342" lon="05.653189"><ele>3.6</ele><time>2021-02-17T13:03:02Z</time><name>PT7129</name></trkpt>
<trkpt lat="53.460351" lon="05.653186"><ele>3.6</ele><time>2021-02-17T13:03:03Z</time><name>PT7130</name></trkpt>
<trkpt lat="53.460359" lon="05.653182"><ele>3.6</ele><time>2021-02-17T13:03:04Z</time><name>PT7131</name></trkpt>
<trkpt lat="53.460370" lon="05.653182"><ele>3.7</ele><time>2021-02-17T13:03:05Z</time><name>PT7132</name></trkpt>
<trkpt lat="53.460379" lon="05.653178"><ele>3.7</ele><time>2021-02-17T13:03:06Z</time><name>PT7133</name></trkpt>
<trkpt lat="53.460385" lon="05.653175"><ele>3.8</ele><time>2021-02-17T13:03:07Z</time><name>PT7134</name></trkpt>
<trkpt lat="53.460391" lon="05.653172"><ele>3.8</ele><time>2021-02-17T13:03:08Z</time><name>PT7135</name></trkpt>
<trkpt lat="53.460398" lon="05.653167"><ele>3.8</ele><time>2021-02-17T13:03:09Z</time><name>PT7136</name></trkpt>
<trkpt lat="53.460401" lon="05.653165"><ele>3.9</ele><time>2021-02-17T13:03:10Z</time><name>PT7137</name></trkpt>
<trkpt lat="53.460405" lon="05.653164"><ele>3.9</ele><time>2021-02-17T13:03:11Z</time><name>PT7138</name></trkpt>
<trkpt lat="53.460409" lon="05.653161"><ele>3.9</ele><time>2021-02-17T13:03:12Z</time><name>PT7139</name></trkpt>
<trkpt lat="53.460413" lon="05.653149"><ele>3.7</ele><time>2021-02-17T13:03:18Z</time><name>PT7140</name></trkpt>
<trkpt lat="53.460417" lon="05.653133"><ele>3.6</ele><time>2021-02-17T13:03:19Z</time><name>PT7141</name></trkpt>
<trkpt lat="53.460428" lon="05.653101"><ele>4.4</ele><time>2021-02-17T13:03:51Z</time><name>PT7142</name></trkpt>
<trkpt lat="53.460437" lon="05.653083"><ele>4.4</ele><time>2021-02-17T13:03:52Z</time><name>PT7143</name></trkpt>
<trkpt lat="53.460445" lon="05.653065"><ele>4.4</ele><time>2021-02-17T13:03:53Z</time><name>PT7144</name></trkpt>
<trkpt lat="53.460455" lon="05.653051"><ele>4.4</ele><time>2021-02-17T13:03:54Z</time><name>PT7145</name></trkpt>
<trkpt lat="53.460466" lon="05.653039"><ele>4.3</ele><time>2021-02-17T13:03:55Z</time><name>PT7146</name></trkpt>
<trkpt lat="53.460469" lon="05.653033"><ele>4.3</ele><time>2021-02-17T13:03:56Z</time><name>PT7147</name></trkpt>
<trkpt lat="53.460474" lon="05.653029"><ele>4.3</ele><time>2021-02-17T13:03:57Z</time><name>PT7148</name></trkpt>
<trkpt lat="53.460479" lon="05.653027"><ele>4.3</ele><time>2021-02-17T13:03:58Z</time><name>PT7149</name></trkpt>
<trkpt lat="53.460484" lon="05.653031"><ele>3.6</ele><time>2021-02-17T13:04:14Z</time><name>PT7150</name></trkpt>
<trkpt lat="53.460482" lon="05.653026"><ele>3.7</ele><time>2021-02-17T13:04:15Z</time><name>PT7151</name></trkpt>
<trkpt lat="53.460486" lon="05.653021"><ele>4</ele><time>2021-02-17T13:04:16Z</time><name>PT7152</name></trkpt>
<trkpt lat="53.460488" lon="05.653019"><ele>4.3</ele><time>2021-02-17T13:04:17Z</time><name>PT7153</name></trkpt>
<trkpt lat="53.460490" lon="05.653017"><ele>4.4</ele><time>2021-02-17T13:04:18Z</time><name>PT7154</name></trkpt>
<trkpt lat="53.460490" lon="05.653018"><ele>4.5</ele><time>2021-02-17T13:04:36Z</time><name>PT7155</name></trkpt>
<trkpt lat="53.460488" lon="05.653021"><ele>4.5</ele><time>2021-02-17T13:04:37Z</time><name>PT7156</name></trkpt>
<trkpt lat="53.460491" lon="05.653018"><ele>4.4</ele><time>2021-02-17T13:04:38Z</time><name>PT7157</name></trkpt>
<trkpt lat="53.460490" lon="05.653018"><ele>4.4</ele><time>2021-02-17T13:04:39Z</time><name>PT7158</name></trkpt>
<trkpt lat="53.460490" lon="05.653021"><ele>4.6</ele><time>2021-02-17T13:04:40Z</time><name>PT7159</name></trkpt>
<trkpt lat="53.460490" lon="05.653023"><ele>4.4</ele><time>2021-02-17T13:04:41Z</time><name>PT7160</name></trkpt>
<trkpt lat="53.460494" lon="05.653016"><ele>3.9</ele><time>2021-02-17T13:05:37Z</time><name>PT7161</name></trkpt>
<trkpt lat="53.460494" lon="05.653013"><ele>3.9</ele><time>2021-02-17T13:05:38Z</time><name>PT7162</name></trkpt>
<trkpt lat="53.460498" lon="05.653016"><ele>3.7</ele><time>2021-02-17T13:07:07Z</time><name>PT7163</name></trkpt>
<trkpt lat="53.460512" lon="05.653015"><ele>3.9</ele><time>2021-02-17T13:07:08Z</time><name>PT7164</name></trkpt>
<trkpt lat="53.460517" lon="05.653013"><ele>4</ele><time>2021-02-17T13:07:09Z</time><name>PT7165</name></trkpt>
<trkpt lat="53.460523" lon="05.653010"><ele>4.3</ele><time>2021-02-17T13:07:10Z</time><name>PT7166</name></trkpt>
<trkpt lat="53.460527" lon="05.653008"><ele>4.4</ele><time>2021-02-17T13:07:11Z</time><name>PT7167</name></trkpt>
<trkpt lat="53.460536" lon="05.652999"><ele>4.5</ele><time>2021-02-17T13:07:12Z</time><name>PT7168</name></trkpt>
<trkpt lat="53.460538" lon="05.653000"><ele>4.6</ele><time>2021-02-17T13:07:13Z</time><name>PT7169</name></trkpt>
<trkpt lat="53.460545" lon="05.652998"><ele>4.6</ele><time>2021-02-17T13:07:14Z</time><name>PT7170</name></trkpt>
<trkpt lat="53.460551" lon="05.652995"><ele>4.7</ele><time>2021-02-17T13:07:15Z</time><name>PT7171</name></trkpt>
<trkpt lat="53.460555" lon="05.653001"><ele>4.3</ele><time>2021-02-17T13:07:16Z</time><name>PT7172</name></trkpt>
<trkpt lat="53.460567" lon="05.653000"><ele>3.9</ele><time>2021-02-17T13:07:18Z</time><name>PT7173</name></trkpt>
<trkpt lat="53.460566" lon="05.653008"><ele>3.9</ele><time>2021-02-17T13:07:19Z</time><name>PT7174</name></trkpt>
<trkpt lat="53.460568" lon="05.653013"><ele>3.9</ele><time>2021-02-17T13:07:20Z</time><name>PT7175</name></trkpt>
<trkpt lat="53.460567" lon="05.653014"><ele>4</ele><time>2021-02-17T13:07:21Z</time><name>PT7176</name></trkpt>
<trkpt lat="53.460570" lon="05.653014"><ele>4.3</ele><time>2021-02-17T13:07:22Z</time><name>PT7177</name></trkpt>
<trkpt lat="53.460574" lon="05.653017"><ele>4.4</ele><time>2021-02-17T13:07:23Z</time><name>PT7178</name></trkpt>
<trkpt lat="53.460575" lon="05.653018"><ele>4.6</ele><time>2021-02-17T13:07:24Z</time><name>PT7179</name></trkpt>
<trkpt lat="53.460581" lon="05.653033"><ele>4.8</ele><time>2021-02-17T13:07:28Z</time><name>PT7180</name></trkpt>
<trkpt lat="53.460582" lon="05.653033"><ele>4.9</ele><time>2021-02-17T13:07:29Z</time><name>PT7181</name></trkpt>
<trkpt lat="53.460583" lon="05.653026"><ele>5</ele><time>2021-02-17T13:07:30Z</time><name>PT7182</name></trkpt>
<trkpt lat="53.460587" lon="05.653026"><ele>4.8</ele><time>2021-02-17T13:07:31Z</time><name>PT7183</name></trkpt>
<trkpt lat="53.460596" lon="05.653015"><ele>4.6</ele><time>2021-02-17T13:07:32Z</time><name>PT7184</name></trkpt>
<trkpt lat="53.460600" lon="05.653010"><ele>4.4</ele><time>2021-02-17T13:07:33Z</time><name>PT7185</name></trkpt>
<trkpt lat="53.460604" lon="05.653006"><ele>4.3</ele><time>2021-02-17T13:07:34Z</time><name>PT7186</name></trkpt>
<trkpt lat="53.460607" lon="05.652994"><ele>4.4</ele><time>2021-02-17T13:07:54Z</time><name>PT7187</name></trkpt>
<trkpt lat="53.460609" lon="05.652989"><ele>4.8</ele><time>2021-02-17T13:07:55Z</time><name>PT7188</name></trkpt>
<trkpt lat="53.460610" lon="05.652989"><ele>4.6</ele><time>2021-02-17T13:07:56Z</time><name>PT7189</name></trkpt>
<trkpt lat="53.460606" lon="05.652993"><ele>3.9</ele><time>2021-02-17T13:08:05Z</time><name>PT7190</name></trkpt>
<trkpt lat="53.460609" lon="05.652999"><ele>3.9</ele><time>2021-02-17T13:08:06Z</time><name>PT7191</name></trkpt>
<trkpt lat="53.460609" lon="05.653004"><ele>4</ele><time>2021-02-17T13:08:07Z</time><name>PT7192</name></trkpt>
<trkpt lat="53.460607" lon="05.653013"><ele>4.1</ele><time>2021-02-17T13:08:08Z</time><name>PT7193</name></trkpt>
<trkpt lat="53.460608" lon="05.653018"><ele>4.3</ele><time>2021-02-17T13:08:09Z</time><name>PT7194</name></trkpt>
<trkpt lat="53.460609" lon="05.653019"><ele>4.5</ele><time>2021-02-17T13:08:10Z</time><name>PT7195</name></trkpt>
<trkpt lat="53.460608" lon="05.653021"><ele>4.7</ele><time>2021-02-17T13:08:11Z</time><name>PT7196</name></trkpt>
<trkpt lat="53.460607" lon="05.653028"><ele>4.8</ele><time>2021-02-17T13:08:16Z</time><name>PT7197</name></trkpt>
<trkpt lat="53.460603" lon="05.653032"><ele>4.6</ele><time>2021-02-17T13:08:17Z</time><name>PT7198</name></trkpt>
<trkpt lat="53.460603" lon="05.653036"><ele>4.8</ele><time>2021-02-17T13:08:18Z</time><name>PT7199</name></trkpt>
<trkpt lat="53.460601" lon="05.653040"><ele>4.8</ele><time>2021-02-17T13:08:19Z</time><name>PT7200</name></trkpt>
<trkpt lat="53.460602" lon="05.653044"><ele>5</ele><time>2021-02-17T13:08:20Z</time><name>PT7201</name></trkpt>
<trkpt lat="53.459809" lon="05.653445"><ele>0.1</ele><time>2021-02-17T13:47:37Z</time><name>PT7202</name></trkpt>
<trkpt lat="53.459809" lon="05.653443"><ele>0.3</ele><time>2021-02-17T13:47:38Z</time><name>PT7203</name></trkpt>
<trkpt lat="53.459808" lon="05.653447"><ele>0</ele><time>2021-02-17T13:47:42Z</time><name>PT7204</name></trkpt>
<trkpt lat="53.459810" lon="05.653444"><ele>0</ele><time>2021-02-17T13:47:43Z</time><name>PT7205</name></trkpt>
<trkpt lat="53.459812" lon="05.653444"><ele>0.1</ele><time>2021-02-17T13:47:44Z</time><name>PT7206</name></trkpt>
<trkpt lat="53.459815" lon="05.653447"><ele>0</ele><time>2021-02-17T13:47:50Z</time><name>PT7207</name></trkpt>
<trkpt lat="53.459819" lon="05.653462"><ele>0.1</ele><time>2021-02-17T13:47:51Z</time><name>PT7208</name></trkpt>
<trkpt lat="53.459825" lon="05.653477"><ele>0</ele><time>2021-02-17T13:47:52Z</time><name>PT7209</name></trkpt>
<trkpt lat="53.459833" lon="05.653496"><ele>0</ele><time>2021-02-17T13:47:53Z</time><name>PT7210</name></trkpt>
<trkpt lat="53.459841" lon="05.653513"><ele>0</ele><time>2021-02-17T13:47:54Z</time><name>PT7211</name></trkpt>
<trkpt lat="53.459848" lon="05.653527"><ele>0.1</ele><time>2021-02-17T13:47:55Z</time><name>PT7212</name></trkpt>
<trkpt lat="53.459857" lon="05.653537"><ele>0.2</ele><time>2021-02-17T13:47:56Z</time><name>PT7213</name></trkpt>
<trkpt lat="53.459866" lon="05.653547"><ele>0.2</ele><time>2021-02-17T13:47:57Z</time><name>PT7214</name></trkpt>
<trkpt lat="53.459873" lon="05.653560"><ele>0.3</ele><time>2021-02-17T13:47:58Z</time><name>PT7215</name></trkpt>
<trkpt lat="53.459880" lon="05.653577"><ele>0.3</ele><time>2021-02-17T13:47:59Z</time><name>PT7216</name></trkpt>
<trkpt lat="53.459887" lon="05.653594"><ele>0.1</ele><time>2021-02-17T13:48:00Z</time><name>PT7217</name></trkpt>
<trkpt lat="53.459891" lon="05.653607"><ele>0.1</ele><time>2021-02-17T13:48:01Z</time><name>PT7218</name></trkpt>
<trkpt lat="53.459897" lon="05.653621"><ele>0.2</ele><time>2021-02-17T13:48:02Z</time><name>PT7219</name></trkpt>
<trkpt lat="53.459903" lon="05.653635"><ele>0.1</ele><time>2021-02-17T13:48:03Z</time><name>PT7220</name></trkpt>
<trkpt lat="53.459908" lon="05.653648"><ele>0.3</ele><time>2021-02-17T13:48:04Z</time><name>PT7221</name></trkpt>
<trkpt lat="53.459916" lon="05.653660"><ele>0.4</ele><time>2021-02-17T13:48:05Z</time><name>PT7222</name></trkpt>
<trkpt lat="53.459923" lon="05.653674"><ele>0.4</ele><time>2021-02-17T13:48:06Z</time><name>PT7223</name></trkpt>
<trkpt lat="53.459929" lon="05.653686"><ele>0.5</ele><time>2021-02-17T13:48:07Z</time><name>PT7224</name></trkpt>
<trkpt lat="53.459935" lon="05.653697"><ele>0.9</ele><time>2021-02-17T13:48:08Z</time><name>PT7225</name></trkpt>
<trkpt lat="53.459945" lon="05.653703"><ele>0.9</ele><time>2021-02-17T13:48:09Z</time><name>PT7226</name></trkpt>
<trkpt lat="53.459956" lon="05.653712"><ele>0.5</ele><time>2021-02-17T13:48:10Z</time><name>PT7227</name></trkpt>
<trkpt lat="53.459964" lon="05.653727"><ele>0.2</ele><time>2021-02-17T13:48:11Z</time><name>PT7228</name></trkpt>
<trkpt lat="53.459980" lon="05.653741"><ele>0.2</ele><time>2021-02-17T13:48:12Z</time><name>PT7229</name></trkpt>
<trkpt lat="53.459991" lon="05.653752"><ele>0.6</ele><time>2021-02-17T13:48:13Z</time><name>PT7230</name></trkpt>
<trkpt lat="53.459998" lon="05.653767"><ele>0.4</ele><time>2021-02-17T13:48:14Z</time><name>PT7231</name></trkpt>
<trkpt lat="53.460006" lon="05.653780"><ele>0.2</ele><time>2021-02-17T13:48:15Z</time><name>PT7232</name></trkpt>
<trkpt lat="53.460014" lon="05.653792"><ele>0.4</ele><time>2021-02-17T13:48:16Z</time><name>PT7233</name></trkpt>
<trkpt lat="53.460020" lon="05.653805"><ele>0.7</ele><time>2021-02-17T13:48:17Z</time><name>PT7234</name></trkpt>
<trkpt lat="53.460027" lon="05.653820"><ele>0.6</ele><time>2021-02-17T13:48:18Z</time><name>PT7235</name></trkpt>
<trkpt lat="53.460032" lon="05.653833"><ele>0.5</ele><time>2021-02-17T13:48:19Z</time><name>PT7236</name></trkpt>
<trkpt lat="53.460035" lon="05.653848"><ele>0</ele><time>2021-02-17T13:48:20Z</time><name>PT7237</name></trkpt>
<trkpt lat="53.460040" lon="05.653860"><ele>0.1</ele><time>2021-02-17T13:48:21Z</time><name>PT7238</name></trkpt>
<trkpt lat="53.460044" lon="05.653875"><ele>0.1</ele><time>2021-02-17T13:48:22Z</time><name>PT7239</name></trkpt>
<trkpt lat="53.460049" lon="05.653889"><ele>0.2</ele><time>2021-02-17T13:48:23Z</time><name>PT7240</name></trkpt>
<trkpt lat="53.460053" lon="05.653902"><ele>0.2</ele><time>2021-02-17T13:48:24Z</time><name>PT7241</name></trkpt>
<trkpt lat="53.460058" lon="05.653916"><ele>0.3</ele><time>2021-02-17T13:48:25Z</time><name>PT7242</name></trkpt>
<trkpt lat="53.460063" lon="05.653932"><ele>0</ele><time>2021-02-17T13:48:26Z</time><name>PT7243</name></trkpt>
<trkpt lat="53.460066" lon="05.653948"><ele>0</ele><time>2021-02-17T13:48:27Z</time><name>PT7244</name></trkpt>
<trkpt lat="53.460070" lon="05.653963"><ele>0</ele><time>2021-02-17T13:48:28Z</time><name>PT7245</name></trkpt>
<trkpt lat="53.460074" lon="05.653980"><ele>0.1</ele><time>2021-02-17T13:48:29Z</time><name>PT7246</name></trkpt>
<trkpt lat="53.460077" lon="05.653998"><ele>0</ele><time>2021-02-17T13:48:30Z</time><name>PT7247</name></trkpt>
<trkpt lat="53.460080" lon="05.654015"><ele>0.1</ele><time>2021-02-17T13:48:31Z</time><name>PT7248</name></trkpt>
<trkpt lat="53.460082" lon="05.654033"><ele>0.2</ele><time>2021-02-17T13:48:32Z</time><name>PT7249</name></trkpt>
<trkpt lat="53.460084" lon="05.654052"><ele>0.4</ele><time>2021-02-17T13:48:33Z</time><name>PT7250</name></trkpt>
<trkpt lat="53.460085" lon="05.654072"><ele>0.4</ele><time>2021-02-17T13:48:34Z</time><name>PT7251</name></trkpt>
<trkpt lat="53.460087" lon="05.654091"><ele>0.4</ele><time>2021-02-17T13:48:35Z</time><name>PT7252</name></trkpt>
<trkpt lat="53.460085" lon="05.654108"><ele>0.3</ele><time>2021-02-17T13:48:36Z</time><name>PT7253</name></trkpt>
<trkpt lat="53.460084" lon="05.654122"><ele>0.1</ele><time>2021-02-17T13:48:37Z</time><name>PT7254</name></trkpt>
<trkpt lat="53.460083" lon="05.654137"><ele>0.2</ele><time>2021-02-17T13:48:38Z</time><name>PT7255</name></trkpt>
<trkpt lat="53.460082" lon="05.654153"><ele>0.2</ele><time>2021-02-17T13:48:39Z</time><name>PT7256</name></trkpt>
<trkpt lat="53.460082" lon="05.654170"><ele>0.2</ele><time>2021-02-17T13:48:40Z</time><name>PT7257</name></trkpt>
<trkpt lat="53.460083" lon="05.654189"><ele>0.4</ele><time>2021-02-17T13:48:41Z</time><name>PT7258</name></trkpt>
<trkpt lat="53.460085" lon="05.654209"><ele>0.6</ele><time>2021-02-17T13:48:42Z</time><name>PT7259</name></trkpt>
<trkpt lat="53.460086" lon="05.654226"><ele>0.6</ele><time>2021-02-17T13:48:43Z</time><name>PT7260</name></trkpt>
<trkpt lat="53.460089" lon="05.654238"><ele>0.4</ele><time>2021-02-17T13:48:44Z</time><name>PT7261</name></trkpt>
<trkpt lat="53.460090" lon="05.654254"><ele>0.3</ele><time>2021-02-17T13:48:45Z</time><name>PT7262</name></trkpt>
<trkpt lat="53.460094" lon="05.654269"><ele>0.2</ele><time>2021-02-17T13:48:46Z</time><name>PT7263</name></trkpt>
<trkpt lat="53.460097" lon="05.654282"><ele>0.1</ele><time>2021-02-17T13:48:47Z</time><name>PT7264</name></trkpt>
<trkpt lat="53.460100" lon="05.654292"><ele>0.1</ele><time>2021-02-17T13:48:48Z</time><name>PT7265</name></trkpt>
<trkpt lat="53.460104" lon="05.654304"><ele>0</ele><time>2021-02-17T13:48:49Z</time><name>PT7266</name></trkpt>
<trkpt lat="53.460107" lon="05.654319"><ele>0</ele><time>2021-02-17T13:48:50Z</time><name>PT7267</name></trkpt>
<trkpt lat="53.460110" lon="05.654334"><ele>0</ele><time>2021-02-17T13:48:51Z</time><name>PT7268</name></trkpt>
<trkpt lat="53.460113" lon="05.654346"><ele>0</ele><time>2021-02-17T13:48:52Z</time><name>PT7269</name></trkpt>
<trkpt lat="53.460115" lon="05.654358"><ele>0.2</ele><time>2021-02-17T13:48:53Z</time><name>PT7270</name></trkpt>
<trkpt lat="53.460114" lon="05.654371"><ele>0.2</ele><time>2021-02-17T13:48:54Z</time><name>PT7271</name></trkpt>
<trkpt lat="53.460114" lon="05.654385"><ele>0.1</ele><time>2021-02-17T13:48:55Z</time><name>PT7272</name></trkpt>
<trkpt lat="53.460114" lon="05.654401"><ele>0.2</ele><time>2021-02-17T13:48:56Z</time><name>PT7273</name></trkpt>
<trkpt lat="53.460117" lon="05.654415"><ele>0</ele><time>2021-02-17T13:48:57Z</time><name>PT7274</name></trkpt>
<trkpt lat="53.460118" lon="05.654430"><ele>0.2</ele><time>2021-02-17T13:48:58Z</time><name>PT7275</name></trkpt>
<trkpt lat="53.460120" lon="05.654445"><ele>0.4</ele><time>2021-02-17T13:48:59Z</time><name>PT7276</name></trkpt>
<trkpt lat="53.460122" lon="05.654462"><ele>0.4</ele><time>2021-02-17T13:49:00Z</time><name>PT7277</name></trkpt>
<trkpt lat="53.460124" lon="05.654478"><ele>0.4</ele><time>2021-02-17T13:49:01Z</time><name>PT7278</name></trkpt>
<trkpt lat="53.460125" lon="05.654494"><ele>0.2</ele><time>2021-02-17T13:49:02Z</time><name>PT7279</name></trkpt>
<trkpt lat="53.460126" lon="05.654503"><ele>0</ele><time>2021-02-17T13:49:03Z</time><name>PT7280</name></trkpt>
<trkpt lat="53.460127" lon="05.654506"><ele>0.1</ele><time>2021-02-17T13:49:04Z</time><name>PT7281</name></trkpt>
<trkpt lat="53.460128" lon="05.654505"><ele>0.2</ele><time>2021-02-17T13:49:05Z</time><name>PT7282</name></trkpt>
<trkpt lat="53.460128" lon="05.654506"><ele>0.1</ele><time>2021-02-17T13:49:06Z</time><name>PT7283</name></trkpt>
<trkpt lat="53.460129" lon="05.654517"><ele>0.1</ele><time>2021-02-17T13:49:09Z</time><name>PT7284</name></trkpt>
<trkpt lat="53.460131" lon="05.654533"><ele>0</ele><time>2021-02-17T13:49:10Z</time><name>PT7285</name></trkpt>
<trkpt lat="53.460133" lon="05.654543"><ele>0.3</ele><time>2021-02-17T13:49:11Z</time><name>PT7286</name></trkpt>
<trkpt lat="53.460137" lon="05.654558"><ele>0.2</ele><time>2021-02-17T13:49:12Z</time><name>PT7287</name></trkpt>
<trkpt lat="53.460143" lon="05.654576"><ele>0.2</ele><time>2021-02-17T13:49:13Z</time><name>PT7288</name></trkpt>
<trkpt lat="53.460148" lon="05.654591"><ele>0.2</ele><time>2021-02-17T13:49:14Z</time><name>PT7289</name></trkpt>
<trkpt lat="53.460152" lon="05.654603"><ele>0.1</ele><time>2021-02-17T13:49:15Z</time><name>PT7290</name></trkpt>
<trkpt lat="53.460154" lon="05.654617"><ele>0</ele><time>2021-02-17T13:49:16Z</time><name>PT7291</name></trkpt>
<trkpt lat="53.460155" lon="05.654633"><ele>0</ele><time>2021-02-17T13:49:17Z</time><name>PT7292</name></trkpt>
<trkpt lat="53.460155" lon="05.654649"><ele>0</ele><time>2021-02-17T13:49:18Z</time><name>PT7293</name></trkpt>
<trkpt lat="53.460152" lon="05.654663"><ele>0.2</ele><time>2021-02-17T13:49:19Z</time><name>PT7294</name></trkpt>
<trkpt lat="53.460152" lon="05.654676"><ele>0.1</ele><time>2021-02-17T13:49:20Z</time><name>PT7295</name></trkpt>
<trkpt lat="53.460151" lon="05.654692"><ele>0.1</ele><time>2021-02-17T13:49:21Z</time><name>PT7296</name></trkpt>
<trkpt lat="53.460150" lon="05.654708"><ele>0.1</ele><time>2021-02-17T13:49:22Z</time><name>PT7297</name></trkpt>
<trkpt lat="53.460151" lon="05.654721"><ele>0.6</ele><time>2021-02-17T13:49:23Z</time><name>PT7298</name></trkpt>
<trkpt lat="53.460150" lon="05.654735"><ele>0.3</ele><time>2021-02-17T13:49:24Z</time><name>PT7299</name></trkpt>
<trkpt lat="53.460150" lon="05.654747"><ele>0.6</ele><time>2021-02-17T13:49:25Z</time><name>PT7300</name></trkpt>
<trkpt lat="53.460150" lon="05.654761"><ele>0.2</ele><time>2021-02-17T13:49:26Z</time><name>PT7301</name></trkpt>
<trkpt lat="53.460150" lon="05.654776"><ele>0.5</ele><time>2021-02-17T13:49:27Z</time><name>PT7302</name></trkpt>
<trkpt lat="53.460149" lon="05.654790"><ele>1.1</ele><time>2021-02-17T13:49:28Z</time><name>PT7303</name></trkpt>
<trkpt lat="53.460150" lon="05.654805"><ele>0.9</ele><time>2021-02-17T13:49:29Z</time><name>PT7304</name></trkpt>
<trkpt lat="53.460151" lon="05.654819"><ele>0.4</ele><time>2021-02-17T13:49:30Z</time><name>PT7305</name></trkpt>
<trkpt lat="53.460155" lon="05.654830"><ele>0</ele><time>2021-02-17T13:49:31Z</time><name>PT7306</name></trkpt>
<trkpt lat="53.460156" lon="05.654842"><ele>0.1</ele><time>2021-02-17T13:49:32Z</time><name>PT7307</name></trkpt>
<trkpt lat="53.460156" lon="05.654857"><ele>0.3</ele><time>2021-02-17T13:49:33Z</time><name>PT7308</name></trkpt>
<trkpt lat="53.460155" lon="05.654872"><ele>0.4</ele><time>2021-02-17T13:49:34Z</time><name>PT7309</name></trkpt>
<trkpt lat="53.460155" lon="05.654886"><ele>0.3</ele><time>2021-02-17T13:49:35Z</time><name>PT7310</name></trkpt>
<trkpt lat="53.460153" lon="05.654898"><ele>0.4</ele><time>2021-02-17T13:49:36Z</time><name>PT7311</name></trkpt>
<trkpt lat="53.460150" lon="05.654908"><ele>0.4</ele><time>2021-02-17T13:49:37Z</time><name>PT7312</name></trkpt>
<trkpt lat="53.460150" lon="05.654919"><ele>0.4</ele><time>2021-02-17T13:49:38Z</time><name>PT7313</name></trkpt>
<trkpt lat="53.460149" lon="05.654928"><ele>0.4</ele><time>2021-02-17T13:49:39Z</time><name>PT7314</name></trkpt>
<trkpt lat="53.460147" lon="05.654939"><ele>0.3</ele><time>2021-02-17T13:49:40Z</time><name>PT7315</name></trkpt>
<trkpt lat="53.460142" lon="05.654953"><ele>0.2</ele><time>2021-02-17T13:49:41Z</time><name>PT7316</name></trkpt>
<trkpt lat="53.460136" lon="05.654965"><ele>0.1</ele><time>2021-02-17T13:49:42Z</time><name>PT7317</name></trkpt>
<trkpt lat="53.460132" lon="05.654978"><ele>0.1</ele><time>2021-02-17T13:49:43Z</time><name>PT7318</name></trkpt>
<trkpt lat="53.460128" lon="05.654990"><ele>0</ele><time>2021-02-17T13:49:44Z</time><name>PT7319</name></trkpt>
<trkpt lat="53.460124" lon="05.655006"><ele>0</ele><time>2021-02-17T13:49:45Z</time><name>PT7320</name></trkpt>
<trkpt lat="53.460120" lon="05.655020"><ele>0</ele><time>2021-02-17T13:49:46Z</time><name>PT7321</name></trkpt>
<trkpt lat="53.460115" lon="05.655035"><ele>0</ele><time>2021-02-17T13:49:47Z</time><name>PT7322</name></trkpt>
<trkpt lat="53.460111" lon="05.655054"><ele>0</ele><time>2021-02-17T13:49:48Z</time><name>PT7323</name></trkpt>
<trkpt lat="53.460105" lon="05.655064"><ele>0.2</ele><time>2021-02-17T13:49:49Z</time><name>PT7324</name></trkpt>
<trkpt lat="53.460103" lon="05.655076"><ele>0</ele><time>2021-02-17T13:49:50Z</time><name>PT7325</name></trkpt>
<trkpt lat="53.460100" lon="05.655091"><ele>0</ele><time>2021-02-17T13:49:51Z</time><name>PT7326</name></trkpt>
<trkpt lat="53.460094" lon="05.655109"><ele>0.1</ele><time>2021-02-17T13:49:52Z</time><name>PT7327</name></trkpt>
<trkpt lat="53.460094" lon="05.655127"><ele>0.3</ele><time>2021-02-17T13:49:53Z</time><name>PT7328</name></trkpt>
<trkpt lat="53.460096" lon="05.655148"><ele>0.3</ele><time>2021-02-17T13:49:54Z</time><name>PT7329</name></trkpt>
<trkpt lat="53.460098" lon="05.655171"><ele>0.4</ele><time>2021-02-17T13:49:55Z</time><name>PT7330</name></trkpt>
<trkpt lat="53.460099" lon="05.655190"><ele>0.5</ele><time>2021-02-17T13:49:56Z</time><name>PT7331</name></trkpt>
<trkpt lat="53.460102" lon="05.655212"><ele>0.5</ele><time>2021-02-17T13:49:57Z</time><name>PT7332</name></trkpt>
<trkpt lat="53.460106" lon="05.655230"><ele>0.5</ele><time>2021-02-17T13:49:58Z</time><name>PT7333</name></trkpt>
<trkpt lat="53.460107" lon="05.655250"><ele>0.6</ele><time>2021-02-17T13:49:59Z</time><name>PT7334</name></trkpt>
<trkpt lat="53.460110" lon="05.655270"><ele>0.5</ele><time>2021-02-17T13:50:00Z</time><name>PT7335</name></trkpt>
<trkpt lat="53.460113" lon="05.655291"><ele>0.7</ele><time>2021-02-17T13:50:01Z</time><name>PT7336</name></trkpt>
<trkpt lat="53.460117" lon="05.655307"><ele>0.6</ele><time>2021-02-17T13:50:02Z</time><name>PT7337</name></trkpt>
<trkpt lat="53.460118" lon="05.655327"><ele>0.6</ele><time>2021-02-17T13:50:03Z</time><name>PT7338</name></trkpt>
<trkpt lat="53.460120" lon="05.655345"><ele>0.6</ele><time>2021-02-17T13:50:04Z</time><name>PT7339</name></trkpt>
<trkpt lat="53.460123" lon="05.655361"><ele>0.6</ele><time>2021-02-17T13:50:05Z</time><name>PT7340</name></trkpt>
<trkpt lat="53.460128" lon="05.655380"><ele>0.4</ele><time>2021-02-17T13:50:06Z</time><name>PT7341</name></trkpt>
<trkpt lat="53.460130" lon="05.655398"><ele>0.4</ele><time>2021-02-17T13:50:07Z</time><name>PT7342</name></trkpt>
<trkpt lat="53.460132" lon="05.655413"><ele>0.4</ele><time>2021-02-17T13:50:08Z</time><name>PT7343</name></trkpt>
<trkpt lat="53.460130" lon="05.655429"><ele>0.4</ele><time>2021-02-17T13:50:09Z</time><name>PT7344</name></trkpt>
<trkpt lat="53.460131" lon="05.655445"><ele>0.4</ele><time>2021-02-17T13:50:10Z</time><name>PT7345</name></trkpt>
<trkpt lat="53.460129" lon="05.655462"><ele>0.4</ele><time>2021-02-17T13:50:11Z</time><name>PT7346</name></trkpt>
<trkpt lat="53.460128" lon="05.655479"><ele>0.4</ele><time>2021-02-17T13:50:12Z</time><name>PT7347</name></trkpt>
<trkpt lat="53.460126" lon="05.655497"><ele>0.5</ele><time>2021-02-17T13:50:13Z</time><name>PT7348</name></trkpt>
<trkpt lat="53.460126" lon="05.655514"><ele>0.7</ele><time>2021-02-17T13:50:14Z</time><name>PT7349</name></trkpt>
<trkpt lat="53.460126" lon="05.655531"><ele>0.8</ele><time>2021-02-17T13:50:15Z</time><name>PT7350</name></trkpt>
<trkpt lat="53.460125" lon="05.655550"><ele>0.9</ele><time>2021-02-17T13:50:16Z</time><name>PT7351</name></trkpt>
<trkpt lat="53.460125" lon="05.655567"><ele>0.8</ele><time>2021-02-17T13:50:17Z</time><name>PT7352</name></trkpt>
<trkpt lat="53.460122" lon="05.655582"><ele>0.8</ele><time>2021-02-17T13:50:18Z</time><name>PT7353</name></trkpt>
<trkpt lat="53.460120" lon="05.655596"><ele>0.7</ele><time>2021-02-17T13:50:19Z</time><name>PT7354</name></trkpt>
<trkpt lat="53.460116" lon="05.655607"><ele>0.6</ele><time>2021-02-17T13:50:20Z</time><name>PT7355</name></trkpt>
<trkpt lat="53.460112" lon="05.655620"><ele>0.8</ele><time>2021-02-17T13:50:21Z</time><name>PT7356</name></trkpt>
<trkpt lat="53.460110" lon="05.655632"><ele>0.9</ele><time>2021-02-17T13:50:22Z</time><name>PT7357</name></trkpt>
<trkpt lat="53.460105" lon="05.655647"><ele>0.9</ele><time>2021-02-17T13:50:23Z</time><name>PT7358</name></trkpt>
<trkpt lat="53.460102" lon="05.655658"><ele>0.8</ele><time>2021-02-17T13:50:24Z</time><name>PT7359</name></trkpt>
<trkpt lat="53.460101" lon="05.655671"><ele>0.7</ele><time>2021-02-17T13:50:25Z</time><name>PT7360</name></trkpt>
<trkpt lat="53.460100" lon="05.655687"><ele>0.4</ele><time>2021-02-17T13:50:26Z</time><name>PT7361</name></trkpt>
<trkpt lat="53.460097" lon="05.655704"><ele>0.4</ele><time>2021-02-17T13:50:27Z</time><name>PT7362</name></trkpt>
<trkpt lat="53.460095" lon="05.655718"><ele>0.4</ele><time>2021-02-17T13:50:28Z</time><name>PT7363</name></trkpt>
<trkpt lat="53.460095" lon="05.655736"><ele>0.3</ele><time>2021-02-17T13:50:29Z</time><name>PT7364</name></trkpt>
<trkpt lat="53.460097" lon="05.655754"><ele>0.4</ele><time>2021-02-17T13:50:30Z</time><name>PT7365</name></trkpt>
<trkpt lat="53.460097" lon="05.655773"><ele>0.3</ele><time>2021-02-17T13:50:31Z</time><name>PT7366</name></trkpt>
<trkpt lat="53.460097" lon="05.655790"><ele>0.4</ele><time>2021-02-17T13:50:32Z</time><name>PT7367</name></trkpt>
<trkpt lat="53.460098" lon="05.655808"><ele>0.4</ele><time>2021-02-17T13:50:33Z</time><name>PT7368</name></trkpt>
<trkpt lat="53.460097" lon="05.655825"><ele>0.5</ele><time>2021-02-17T13:50:34Z</time><name>PT7369</name></trkpt>
<trkpt lat="53.460096" lon="05.655843"><ele>0.4</ele><time>2021-02-17T13:50:35Z</time><name>PT7370</name></trkpt>
<trkpt lat="53.460095" lon="05.655861"><ele>0.5</ele><time>2021-02-17T13:50:36Z</time><name>PT7371</name></trkpt>
<trkpt lat="53.460095" lon="05.655878"><ele>0.4</ele><time>2021-02-17T13:50:37Z</time><name>PT7372</name></trkpt>
<trkpt lat="53.460097" lon="05.655898"><ele>0.3</ele><time>2021-02-17T13:50:38Z</time><name>PT7373</name></trkpt>
<trkpt lat="53.460096" lon="05.655918"><ele>0.3</ele><time>2021-02-17T13:50:39Z</time><name>PT7374</name></trkpt>
<trkpt lat="53.460097" lon="05.655936"><ele>0.4</ele><time>2021-02-17T13:50:40Z</time><name>PT7375</name></trkpt>
<trkpt lat="53.460100" lon="05.655955"><ele>0.4</ele><time>2021-02-17T13:50:41Z</time><name>PT7376</name></trkpt>
<trkpt lat="53.460101" lon="05.655973"><ele>0.3</ele><time>2021-02-17T13:50:42Z</time><name>PT7377</name></trkpt>
<trkpt lat="53.460101" lon="05.655990"><ele>0.2</ele><time>2021-02-17T13:50:43Z</time><name>PT7378</name></trkpt>
<trkpt lat="53.460101" lon="05.656009"><ele>0.1</ele><time>2021-02-17T13:50:44Z</time><name>PT7379</name></trkpt>
<trkpt lat="53.460103" lon="05.656027"><ele>0.1</ele><time>2021-02-17T13:50:45Z</time><name>PT7380</name></trkpt>
<trkpt lat="53.460105" lon="05.656044"><ele>0.2</ele><time>2021-02-17T13:50:46Z</time><name>PT7381</name></trkpt>
<trkpt lat="53.460106" lon="05.656061"><ele>0.1</ele><time>2021-02-17T13:50:47Z</time><name>PT7382</name></trkpt>
<trkpt lat="53.460108" lon="05.656082"><ele>0.2</ele><time>2021-02-17T13:50:48Z</time><name>PT7383</name></trkpt>
<trkpt lat="53.460109" lon="05.656102"><ele>0</ele><time>2021-02-17T13:50:49Z</time><name>PT7384</name></trkpt>
<trkpt lat="53.460109" lon="05.656121"><ele>0.3</ele><time>2021-02-17T13:50:50Z</time><name>PT7385</name></trkpt>
<trkpt lat="53.460109" lon="05.656139"><ele>0.4</ele><time>2021-02-17T13:50:51Z</time><name>PT7386</name></trkpt>
<trkpt lat="53.460111" lon="05.656154"><ele>0.4</ele><time>2021-02-17T13:50:52Z</time><name>PT7387</name></trkpt>
<trkpt lat="53.460113" lon="05.656172"><ele>0.6</ele><time>2021-02-17T13:50:53Z</time><name>PT7388</name></trkpt>
<trkpt lat="53.460113" lon="05.656189"><ele>0.6</ele><time>2021-02-17T13:50:54Z</time><name>PT7389</name></trkpt>
<trkpt lat="53.460114" lon="05.656207"><ele>0.4</ele><time>2021-02-17T13:50:55Z</time><name>PT7390</name></trkpt>
<trkpt lat="53.460115" lon="05.656226"><ele>0.4</ele><time>2021-02-17T13:50:56Z</time><name>PT7391</name></trkpt>
<trkpt lat="53.460116" lon="05.656241"><ele>0.4</ele><time>2021-02-17T13:50:57Z</time><name>PT7392</name></trkpt>
<trkpt lat="53.460119" lon="05.656256"><ele>0.4</ele><time>2021-02-17T13:50:58Z</time><name>PT7393</name></trkpt>
<trkpt lat="53.460121" lon="05.656271"><ele>0.4</ele><time>2021-02-17T13:50:59Z</time><name>PT7394</name></trkpt>
<trkpt lat="53.460121" lon="05.656289"><ele>0.4</ele><time>2021-02-17T13:51:00Z</time><name>PT7395</name></trkpt>
<trkpt lat="53.460121" lon="05.656304"><ele>0.4</ele><time>2021-02-17T13:51:01Z</time><name>PT7396</name></trkpt>
<trkpt lat="53.460124" lon="05.656322"><ele>0.4</ele><time>2021-02-17T13:51:02Z</time><name>PT7397</name></trkpt>
<trkpt lat="53.460127" lon="05.656335"><ele>0.3</ele><time>2021-02-17T13:51:03Z</time><name>PT7398</name></trkpt>
<trkpt lat="53.460127" lon="05.656348"><ele>0</ele><time>2021-02-17T13:51:04Z</time><name>PT7399</name></trkpt>
<trkpt lat="53.460128" lon="05.656361"><ele>0</ele><time>2021-02-17T13:51:05Z</time><name>PT7400</name></trkpt>
<trkpt lat="53.460129" lon="05.656378"><ele>0.1</ele><time>2021-02-17T13:51:06Z</time><name>PT7401</name></trkpt>
<trkpt lat="53.460129" lon="05.656392"><ele>0.2</ele><time>2021-02-17T13:51:07Z</time><name>PT7402</name></trkpt>
<trkpt lat="53.460129" lon="05.656406"><ele>0</ele><time>2021-02-17T13:51:08Z</time><name>PT7403</name></trkpt>
<trkpt lat="53.460130" lon="05.656420"><ele>0</ele><time>2021-02-17T13:51:09Z</time><name>PT7404</name></trkpt>
<trkpt lat="53.460129" lon="05.656435"><ele>0</ele><time>2021-02-17T13:51:10Z</time><name>PT7405</name></trkpt>
<trkpt lat="53.460131" lon="05.656456"><ele>0</ele><time>2021-02-17T13:51:11Z</time><name>PT7406</name></trkpt>
<trkpt lat="53.460130" lon="05.656476"><ele>0</ele><time>2021-02-17T13:51:12Z</time><name>PT7407</name></trkpt>
<trkpt lat="53.460132" lon="05.656498"><ele>0.3</ele><time>2021-02-17T13:51:13Z</time><name>PT7408</name></trkpt>
<trkpt lat="53.460133" lon="05.656518"><ele>0.4</ele><time>2021-02-17T13:51:14Z</time><name>PT7409</name></trkpt>
<trkpt lat="53.460139" lon="05.656536"><ele>0.4</ele><time>2021-02-17T13:51:15Z</time><name>PT7410</name></trkpt>
<trkpt lat="53.460143" lon="05.656553"><ele>0.3</ele><time>2021-02-17T13:51:16Z</time><name>PT7411</name></trkpt>
<trkpt lat="53.460147" lon="05.656574"><ele>0.2</ele><time>2021-02-17T13:51:17Z</time><name>PT7412</name></trkpt>
<trkpt lat="53.460150" lon="05.656592"><ele>0.1</ele><time>2021-02-17T13:51:18Z</time><name>PT7413</name></trkpt>
<trkpt lat="53.460151" lon="05.656611"><ele>0</ele><time>2021-02-17T13:51:19Z</time><name>PT7414</name></trkpt>
<trkpt lat="53.460154" lon="05.656630"><ele>0</ele><time>2021-02-17T13:51:20Z</time><name>PT7415</name></trkpt>
<trkpt lat="53.460155" lon="05.656645"><ele>0.2</ele><time>2021-02-17T13:51:21Z</time><name>PT7416</name></trkpt>
<trkpt lat="53.460155" lon="05.656660"><ele>0.3</ele><time>2021-02-17T13:51:22Z</time><name>PT7417</name></trkpt>
<trkpt lat="53.460155" lon="05.656678"><ele>0.4</ele><time>2021-02-17T13:51:23Z</time><name>PT7418</name></trkpt>
<trkpt lat="53.460154" lon="05.656697"><ele>0.4</ele><time>2021-02-17T13:51:24Z</time><name>PT7419</name></trkpt>
<trkpt lat="53.460151" lon="05.656714"><ele>0.5</ele><time>2021-02-17T13:51:25Z</time><name>PT7420</name></trkpt>
<trkpt lat="53.460149" lon="05.656732"><ele>0.5</ele><time>2021-02-17T13:51:26Z</time><name>PT7421</name></trkpt>
<trkpt lat="53.460149" lon="05.656750"><ele>0.5</ele><time>2021-02-17T13:51:27Z</time><name>PT7422</name></trkpt>
<trkpt lat="53.460150" lon="05.656768"><ele>0.5</ele><time>2021-02-17T13:51:28Z</time><name>PT7423</name></trkpt>
<trkpt lat="53.460152" lon="05.656788"><ele>0.5</ele><time>2021-02-17T13:51:29Z</time><name>PT7424</name></trkpt>
<trkpt lat="53.460155" lon="05.656810"><ele>0.5</ele><time>2021-02-17T13:51:30Z</time><name>PT7425</name></trkpt>
<trkpt lat="53.460155" lon="05.656825"><ele>0.6</ele><time>2021-02-17T13:51:31Z</time><name>PT7426</name></trkpt>
<trkpt lat="53.460156" lon="05.656841"><ele>0.6</ele><time>2021-02-17T13:51:32Z</time><name>PT7427</name></trkpt>
<trkpt lat="53.460160" lon="05.656862"><ele>0.6</ele><time>2021-02-17T13:51:33Z</time><name>PT7428</name></trkpt>
<trkpt lat="53.460161" lon="05.656880"><ele>0.5</ele><time>2021-02-17T13:51:34Z</time><name>PT7429</name></trkpt>
<trkpt lat="53.460160" lon="05.656894"><ele>0.6</ele><time>2021-02-17T13:51:35Z</time><name>PT7430</name></trkpt>
<trkpt lat="53.460160" lon="05.656912"><ele>0.6</ele><time>2021-02-17T13:51:36Z</time><name>PT7431</name></trkpt>
<trkpt lat="53.460160" lon="05.656928"><ele>0.6</ele><time>2021-02-17T13:51:37Z</time><name>PT7432</name></trkpt>
<trkpt lat="53.460160" lon="05.656944"><ele>0.7</ele><time>2021-02-17T13:51:38Z</time><name>PT7433</name></trkpt>
<trkpt lat="53.460161" lon="05.656960"><ele>0.7</ele><time>2021-02-17T13:51:39Z</time><name>PT7434</name></trkpt>
<trkpt lat="53.460163" lon="05.656976"><ele>0.7</ele><time>2021-02-17T13:51:40Z</time><name>PT7435</name></trkpt>
<trkpt lat="53.460168" lon="05.656991"><ele>0.7</ele><time>2021-02-17T13:51:41Z</time><name>PT7436</name></trkpt>
<trkpt lat="53.460168" lon="05.657009"><ele>0.9</ele><time>2021-02-17T13:51:42Z</time><name>PT7437</name></trkpt>
<trkpt lat="53.460173" lon="05.657022"><ele>0.7</ele><time>2021-02-17T13:51:43Z</time><name>PT7438</name></trkpt>
<trkpt lat="53.460176" lon="05.657037"><ele>0.7</ele><time>2021-02-17T13:51:44Z</time><name>PT7439</name></trkpt>
<trkpt lat="53.460180" lon="05.657052"><ele>0.7</ele><time>2021-02-17T13:51:45Z</time><name>PT7440</name></trkpt>
<trkpt lat="53.460185" lon="05.657068"><ele>0.5</ele><time>2021-02-17T13:51:46Z</time><name>PT7441</name></trkpt>
<trkpt lat="53.460188" lon="05.657081"><ele>0.4</ele><time>2021-02-17T13:51:47Z</time><name>PT7442</name></trkpt>
<trkpt lat="53.460191" lon="05.657097"><ele>0.4</ele><time>2021-02-17T13:51:48Z</time><name>PT7443</name></trkpt>
<trkpt lat="53.460195" lon="05.657114"><ele>0.3</ele><time>2021-02-17T13:51:49Z</time><name>PT7444</name></trkpt>
<trkpt lat="53.460200" lon="05.657131"><ele>0.3</ele><time>2021-02-17T13:51:50Z</time><name>PT7445</name></trkpt>
<trkpt lat="53.460206" lon="05.657148"><ele>0.4</ele><time>2021-02-17T13:51:51Z</time><name>PT7446</name></trkpt>
<trkpt lat="53.460211" lon="05.657165"><ele>0.3</ele><time>2021-02-17T13:51:52Z</time><name>PT7447</name></trkpt>
<trkpt lat="53.460215" lon="05.657176"><ele>0.2</ele><time>2021-02-17T13:51:53Z</time><name>PT7448</name></trkpt>
<trkpt lat="53.460223" lon="05.657187"><ele>0.2</ele><time>2021-02-17T13:51:54Z</time><name>PT7449</name></trkpt>
<trkpt lat="53.460233" lon="05.657197"><ele>0.2</ele><time>2021-02-17T13:51:55Z</time><name>PT7450</name></trkpt>
<trkpt lat="53.460244" lon="05.657211"><ele>0.3</ele><time>2021-02-17T13:51:56Z</time><name>PT7451</name></trkpt>
<trkpt lat="53.460254" lon="05.657219"><ele>0.3</ele><time>2021-02-17T13:51:57Z</time><name>PT7452</name></trkpt>
<trkpt lat="53.460264" lon="05.657229"><ele>0.5</ele><time>2021-02-17T13:51:58Z</time><name>PT7453</name></trkpt>
<trkpt lat="53.460274" lon="05.657239"><ele>0.7</ele><time>2021-02-17T13:51:59Z</time><name>PT7454</name></trkpt>
<trkpt lat="53.460284" lon="05.657251"><ele>0.8</ele><time>2021-02-17T13:52:00Z</time><name>PT7455</name></trkpt>
<trkpt lat="53.460290" lon="05.657261"><ele>0.8</ele><time>2021-02-17T13:52:01Z</time><name>PT7456</name></trkpt>
<trkpt lat="53.460299" lon="05.657270"><ele>0.7</ele><time>2021-02-17T13:52:02Z</time><name>PT7457</name></trkpt>
<trkpt lat="53.460307" lon="05.657281"><ele>0.5</ele><time>2021-02-17T13:52:03Z</time><name>PT7458</name></trkpt>
<trkpt lat="53.460316" lon="05.657291"><ele>0.4</ele><time>2021-02-17T13:52:04Z</time><name>PT7459</name></trkpt>
<trkpt lat="53.460325" lon="05.657300"><ele>0.4</ele><time>2021-02-17T13:52:05Z</time><name>PT7460</name></trkpt>
<trkpt lat="53.460334" lon="05.657308"><ele>0.4</ele><time>2021-02-17T13:52:06Z</time><name>PT7461</name></trkpt>
<trkpt lat="53.460342" lon="05.657316"><ele>0.3</ele><time>2021-02-17T13:52:07Z</time><name>PT7462</name></trkpt>
<trkpt lat="53.460351" lon="05.657326"><ele>0.2</ele><time>2021-02-17T13:52:08Z</time><name>PT7463</name></trkpt>
<trkpt lat="53.460359" lon="05.657338"><ele>0.2</ele><time>2021-02-17T13:52:09Z</time><name>PT7464</name></trkpt>
<trkpt lat="53.460368" lon="05.657348"><ele>0.1</ele><time>2021-02-17T13:52:10Z</time><name>PT7465</name></trkpt>
<trkpt lat="53.460376" lon="05.657359"><ele>0.4</ele><time>2021-02-17T13:52:11Z</time><name>PT7466</name></trkpt>
<trkpt lat="53.460382" lon="05.657371"><ele>0.4</ele><time>2021-02-17T13:52:12Z</time><name>PT7467</name></trkpt>
<trkpt lat="53.460388" lon="05.657383"><ele>0.5</ele><time>2021-02-17T13:52:13Z</time><name>PT7468</name></trkpt>
<trkpt lat="53.460394" lon="05.657395"><ele>0.6</ele><time>2021-02-17T13:52:14Z</time><name>PT7469</name></trkpt>
<trkpt lat="53.460402" lon="05.657408"><ele>0.7</ele><time>2021-02-17T13:52:15Z</time><name>PT7470</name></trkpt>
<trkpt lat="53.460409" lon="05.657421"><ele>0.5</ele><time>2021-02-17T13:52:16Z</time><name>PT7471</name></trkpt>
<trkpt lat="53.460415" lon="05.657436"><ele>0.6</ele><time>2021-02-17T13:52:17Z</time><name>PT7472</name></trkpt>
<trkpt lat="53.460419" lon="05.657447"><ele>0.5</ele><time>2021-02-17T13:52:18Z</time><name>PT7473</name></trkpt>
<trkpt lat="53.460424" lon="05.657457"><ele>0.6</ele><time>2021-02-17T13:52:19Z</time><name>PT7474</name></trkpt>
<trkpt lat="53.460431" lon="05.657467"><ele>0.7</ele><time>2021-02-17T13:52:20Z</time><name>PT7475</name></trkpt>
<trkpt lat="53.460437" lon="05.657478"><ele>0.7</ele><time>2021-02-17T13:52:21Z</time><name>PT7476</name></trkpt>
<trkpt lat="53.460444" lon="05.657491"><ele>0.9</ele><time>2021-02-17T13:52:22Z</time><name>PT7477</name></trkpt>
<trkpt lat="53.460447" lon="05.657503"><ele>0.7</ele><time>2021-02-17T13:52:23Z</time><name>PT7478</name></trkpt>
<trkpt lat="53.460453" lon="05.657516"><ele>0.7</ele><time>2021-02-17T13:52:24Z</time><name>PT7479</name></trkpt>
<trkpt lat="53.460459" lon="05.657528"><ele>0.4</ele><time>2021-02-17T13:52:25Z</time><name>PT7480</name></trkpt>
<trkpt lat="53.460467" lon="05.657541"><ele>0.4</ele><time>2021-02-17T13:52:26Z</time><name>PT7481</name></trkpt>
<trkpt lat="53.460476" lon="05.657551"><ele>0.4</ele><time>2021-02-17T13:52:27Z</time><name>PT7482</name></trkpt>
<trkpt lat="53.460485" lon="05.657562"><ele>0.4</ele><time>2021-02-17T13:52:28Z</time><name>PT7483</name></trkpt>
<trkpt lat="53.460493" lon="05.657569"><ele>0.5</ele><time>2021-02-17T13:52:29Z</time><name>PT7484</name></trkpt>
<trkpt lat="53.460499" lon="05.657579"><ele>0.7</ele><time>2021-02-17T13:52:30Z</time><name>PT7485</name></trkpt>
<trkpt lat="53.460504" lon="05.657589"><ele>0.8</ele><time>2021-02-17T13:52:31Z</time><name>PT7486</name></trkpt>
<trkpt lat="53.460507" lon="05.657598"><ele>0.9</ele><time>2021-02-17T13:52:32Z</time><name>PT7487</name></trkpt>
<trkpt lat="53.460508" lon="05.657608"><ele>0.8</ele><time>2021-02-17T13:52:33Z</time><name>PT7488</name></trkpt>
<trkpt lat="53.460510" lon="05.657614"><ele>0.7</ele><time>2021-02-17T13:52:34Z</time><name>PT7489</name></trkpt>
<trkpt lat="53.460516" lon="05.657621"><ele>0.4</ele><time>2021-02-17T13:52:35Z</time><name>PT7490</name></trkpt>
<trkpt lat="53.460517" lon="05.657626"><ele>0.2</ele><time>2021-02-17T13:52:36Z</time><name>PT7491</name></trkpt>
<trkpt lat="53.460518" lon="05.657629"><ele>0.1</ele><time>2021-02-17T13:52:37Z</time><name>PT7492</name></trkpt>
<trkpt lat="53.460519" lon="05.657633"><ele>0.4</ele><time>2021-02-17T13:52:38Z</time><name>PT7493</name></trkpt>
<trkpt lat="53.460520" lon="05.657638"><ele>0.4</ele><time>2021-02-17T13:52:39Z</time><name>PT7494</name></trkpt>
<trkpt lat="53.460524" lon="05.657641"><ele>0.5</ele><time>2021-02-17T13:52:40Z</time><name>PT7495</name></trkpt>
<trkpt lat="53.460528" lon="05.657646"><ele>0.5</ele><time>2021-02-17T13:52:41Z</time><name>PT7496</name></trkpt>
<trkpt lat="53.460531" lon="05.657649"><ele>0.5</ele><time>2021-02-17T13:52:42Z</time><name>PT7497</name></trkpt>
<trkpt lat="53.460533" lon="05.657654"><ele>0.7</ele><time>2021-02-17T13:52:49Z</time><name>PT7498</name></trkpt>
<trkpt lat="53.460536" lon="05.657657"><ele>0.7</ele><time>2021-02-17T13:52:50Z</time><name>PT7499</name></trkpt>
<trkpt lat="53.460538" lon="05.657676"><ele>0.6</ele><time>2021-02-17T13:52:54Z</time><name>PT7500</name></trkpt>
<trkpt lat="53.460540" lon="05.657677"><ele>0.5</ele><time>2021-02-17T13:52:55Z</time><name>PT7501</name></trkpt>
<trkpt lat="53.460541" lon="05.657679"><ele>0.4</ele><time>2021-02-17T13:52:56Z</time><name>PT7502</name></trkpt>
<trkpt lat="53.460542" lon="05.657683"><ele>0.5</ele><time>2021-02-17T13:52:57Z</time><name>PT7503</name></trkpt>
<trkpt lat="53.460544" lon="05.657690"><ele>0.4</ele><time>2021-02-17T13:52:58Z</time><name>PT7504</name></trkpt>
<trkpt lat="53.460547" lon="05.657689"><ele>0.4</ele><time>2021-02-17T13:52:59Z</time><name>PT7505</name></trkpt>
<trkpt lat="53.460548" lon="05.657698"><ele>0.6</ele><time>2021-02-17T13:53:00Z</time><name>PT7506</name></trkpt>
<trkpt lat="53.460550" lon="05.657699"><ele>0.7</ele><time>2021-02-17T13:53:01Z</time><name>PT7507</name></trkpt>
<trkpt lat="53.460551" lon="05.657698"><ele>0.7</ele><time>2021-02-17T13:53:02Z</time><name>PT7508</name></trkpt>
<trkpt lat="53.460550" lon="05.657699"><ele>0.7</ele><time>2021-02-17T13:53:03Z</time><name>PT7509</name></trkpt>
<trkpt lat="53.460552" lon="05.657701"><ele>0.8</ele><time>2021-02-17T13:53:04Z</time><name>PT7510</name></trkpt>
<trkpt lat="53.460555" lon="05.657705"><ele>0.9</ele><time>2021-02-17T13:53:05Z</time><name>PT7511</name></trkpt>
<trkpt lat="53.460561" lon="05.657712"><ele>0.9</ele><time>2021-02-17T13:53:06Z</time><name>PT7512</name></trkpt>
<trkpt lat="53.460564" lon="05.657718"><ele>0.9</ele><time>2021-02-17T13:53:07Z</time><name>PT7513</name></trkpt>
<trkpt lat="53.460567" lon="05.657725"><ele>-1.2</ele><time>2021-02-17T13:53:08Z</time><name>PT7514</name></trkpt>
<trkpt lat="53.460568" lon="05.657727"><ele>-1.1</ele><time>2021-02-17T13:53:09Z</time><name>PT7515</name></trkpt>
<trkpt lat="53.460567" lon="05.657728"><ele>-1</ele><time>2021-02-17T13:53:10Z</time><name>PT7516</name></trkpt>
<trkpt lat="53.460568" lon="05.657730"><ele>0.9</ele><time>2021-02-17T13:53:11Z</time><name>PT7517</name></trkpt>
<trkpt lat="53.460566" lon="05.657730"><ele>-1</ele><time>2021-02-17T13:53:12Z</time><name>PT7518</name></trkpt>
<trkpt lat="53.460566" lon="05.657735"><ele>-1.1</ele><time>2021-02-17T13:53:13Z</time><name>PT7519</name></trkpt>
<trkpt lat="53.460571" lon="05.657740"><ele>-1.3</ele><time>2021-02-17T13:53:14Z</time><name>PT7520</name></trkpt>
<trkpt lat="53.460572" lon="05.657745"><ele>-1.4</ele><time>2021-02-17T13:53:15Z</time><name>PT7521</name></trkpt>
<trkpt lat="53.460571" lon="05.657749"><ele>-1.2</ele><time>2021-02-17T13:53:16Z</time><name>PT7522</name></trkpt>
<trkpt lat="53.460569" lon="05.657751"><ele>0.9</ele><time>2021-02-17T13:53:17Z</time><name>PT7523</name></trkpt>
<trkpt lat="53.460568" lon="05.657759"><ele>0.9</ele><time>2021-02-17T13:53:25Z</time><name>PT7524</name></trkpt>
<trkpt lat="53.460577" lon="05.657769"><ele>0.9</ele><time>2021-02-17T13:53:26Z</time><name>PT7525</name></trkpt>
<trkpt lat="53.460581" lon="05.657774"><ele>0.9</ele><time>2021-02-17T13:53:27Z</time><name>PT7526</name></trkpt>
<trkpt lat="53.460581" lon="05.657771"><ele>0.9</ele><time>2021-02-17T13:53:28Z</time><name>PT7527</name></trkpt>
<trkpt lat="53.460589" lon="05.657784"><ele>0.9</ele><time>2021-02-17T13:53:29Z</time><name>PT7528</name></trkpt>
<trkpt lat="53.460592" lon="05.657800"><ele>0.9</ele><time>2021-02-17T13:53:30Z</time><name>PT7529</name></trkpt>
<trkpt lat="53.460595" lon="05.657810"><ele>0.8</ele><time>2021-02-17T13:53:31Z</time><name>PT7530</name></trkpt>
<trkpt lat="53.460599" lon="05.657818"><ele>0.7</ele><time>2021-02-17T13:53:32Z</time><name>PT7531</name></trkpt>
<trkpt lat="53.460607" lon="05.657821"><ele>0.6</ele><time>2021-02-17T13:53:33Z</time><name>PT7532</name></trkpt>
<trkpt lat="53.460610" lon="05.657834"><ele>0.5</ele><time>2021-02-17T13:53:34Z</time><name>PT7533</name></trkpt>
<trkpt lat="53.460611" lon="05.657845"><ele>0.6</ele><time>2021-02-17T13:53:35Z</time><name>PT7534</name></trkpt>
<trkpt lat="53.460615" lon="05.657856"><ele>0.6</ele><time>2021-02-17T13:53:36Z</time><name>PT7535</name></trkpt>
<trkpt lat="53.460620" lon="05.657865"><ele>0.6</ele><time>2021-02-17T13:53:37Z</time><name>PT7536</name></trkpt>
<trkpt lat="53.460622" lon="05.657878"><ele>0.4</ele><time>2021-02-17T13:53:38Z</time><name>PT7537</name></trkpt>
<trkpt lat="53.460626" lon="05.657890"><ele>0.5</ele><time>2021-02-17T13:53:39Z</time><name>PT7538</name></trkpt>
<trkpt lat="53.460633" lon="05.657901"><ele>0.4</ele><time>2021-02-17T13:53:40Z</time><name>PT7539</name></trkpt>
<trkpt lat="53.460639" lon="05.657910"><ele>0.5</ele><time>2021-02-17T13:53:41Z</time><name>PT7540</name></trkpt>
<trkpt lat="53.460643" lon="05.657914"><ele>0.6</ele><time>2021-02-17T13:53:42Z</time><name>PT7541</name></trkpt>
<trkpt lat="53.460645" lon="05.657919"><ele>0.7</ele><time>2021-02-17T13:53:43Z</time><name>PT7542</name></trkpt>
<trkpt lat="53.460649" lon="05.657924"><ele>0.8</ele><time>2021-02-17T13:53:44Z</time><name>PT7543</name></trkpt>
<trkpt lat="53.460655" lon="05.657927"><ele>0.8</ele><time>2021-02-17T13:53:45Z</time><name>PT7544</name></trkpt>
<trkpt lat="53.460658" lon="05.657931"><ele>0.9</ele><time>2021-02-17T13:53:46Z</time><name>PT7545</name></trkpt>
<trkpt lat="53.460659" lon="05.657934"><ele>0.6</ele><time>2021-02-17T13:53:47Z</time><name>PT7546</name></trkpt>
<trkpt lat="53.460659" lon="05.657936"><ele>0.5</ele><time>2021-02-17T13:53:48Z</time><name>PT7547</name></trkpt>
<trkpt lat="53.460662" lon="05.657938"><ele>0.6</ele><time>2021-02-17T13:53:49Z</time><name>PT7548</name></trkpt>
<trkpt lat="53.460666" lon="05.657942"><ele>0.5</ele><time>2021-02-17T13:53:50Z</time><name>PT7549</name></trkpt>
<trkpt lat="53.460671" lon="05.657946"><ele>0.7</ele><time>2021-02-17T13:53:51Z</time><name>PT7550</name></trkpt>
<trkpt lat="53.460674" lon="05.657956"><ele>0.9</ele><time>2021-02-17T13:53:52Z</time><name>PT7551</name></trkpt>
<trkpt lat="53.460677" lon="05.657961"><ele>-1</ele><time>2021-02-17T13:53:53Z</time><name>PT7552</name></trkpt>
<trkpt lat="53.460679" lon="05.657963"><ele>-1</ele><time>2021-02-17T13:53:54Z</time><name>PT7553</name></trkpt>
<trkpt lat="53.460683" lon="05.657963"><ele>0.9</ele><time>2021-02-17T13:53:55Z</time><name>PT7554</name></trkpt>
<trkpt lat="53.460687" lon="05.657963"><ele>0.9</ele><time>2021-02-17T13:53:56Z</time><name>PT7555</name></trkpt>
<trkpt lat="53.460691" lon="05.657964"><ele>0.9</ele><time>2021-02-17T13:53:57Z</time><name>PT7556</name></trkpt>
<trkpt lat="53.460692" lon="05.657964"><ele>0.9</ele><time>2021-02-17T13:53:58Z</time><name>PT7557</name></trkpt>
<trkpt lat="53.460710" lon="05.657957"><ele>-1.3</ele><time>2021-02-17T13:56:53Z</time><name>PT7558</name></trkpt>
<trkpt lat="53.460742" lon="05.657962"><ele>-1.4</ele><time>2021-02-17T13:56:54Z</time><name>PT7559</name></trkpt>
<trkpt lat="53.460770" lon="05.657981"><ele>-1.4</ele><time>2021-02-17T13:56:55Z</time><name>PT7560</name></trkpt>
<trkpt lat="53.460793" lon="05.657998"><ele>-1.5</ele><time>2021-02-17T13:56:56Z</time><name>PT7561</name></trkpt>
<trkpt lat="53.460827" lon="05.658072"><ele>-1.8</ele><time>2021-02-17T13:57:33Z</time><name>PT7562</name></trkpt>
<trkpt lat="53.460844" lon="05.658084"><ele>-1.7</ele><time>2021-02-17T13:57:34Z</time><name>PT7563</name></trkpt>
<trkpt lat="53.460874" lon="05.658118"><ele>-1.6</ele><time>2021-02-17T13:57:36Z</time><name>PT7564</name></trkpt>
<trkpt lat="53.460909" lon="05.658126"><ele>-1.4</ele><time>2021-02-17T13:57:37Z</time><name>PT7565</name></trkpt>
<trkpt lat="53.460927" lon="05.658137"><ele>-1.4</ele><time>2021-02-17T13:57:38Z</time><name>PT7566</name></trkpt>
<trkpt lat="53.460940" lon="05.658144"><ele>-1.2</ele><time>2021-02-17T13:57:39Z</time><name>PT7567</name></trkpt>
<trkpt lat="53.460951" lon="05.658150"><ele>0.9</ele><time>2021-02-17T13:57:40Z</time><name>PT7568</name></trkpt>
<trkpt lat="53.460963" lon="05.658156"><ele>0.9</ele><time>2021-02-17T13:57:41Z</time><name>PT7569</name></trkpt>
<trkpt lat="53.460980" lon="05.658164"><ele>-1</ele><time>2021-02-17T13:57:42Z</time><name>PT7570</name></trkpt>
<trkpt lat="53.460994" lon="05.658171"><ele>-1.1</ele><time>2021-02-17T13:57:43Z</time><name>PT7571</name></trkpt>
<trkpt lat="53.461012" lon="05.658176"><ele>-1.2</ele><time>2021-02-17T13:57:44Z</time><name>PT7572</name></trkpt>
<trkpt lat="53.461024" lon="05.658179"><ele>-1.4</ele><time>2021-02-17T13:57:45Z</time><name>PT7573</name></trkpt>
<trkpt lat="53.461042" lon="05.658182"><ele>-1.2</ele><time>2021-02-17T13:57:46Z</time><name>PT7574</name></trkpt>
<trkpt lat="53.461057" lon="05.658182"><ele>-1</ele><time>2021-02-17T13:57:47Z</time><name>PT7575</name></trkpt>
<trkpt lat="53.461074" lon="05.658182"><ele>-1</ele><time>2021-02-17T13:57:48Z</time><name>PT7576</name></trkpt>
<trkpt lat="53.461090" lon="05.658183"><ele>-1.2</ele><time>2021-02-17T13:57:49Z</time><name>PT7577</name></trkpt>
<trkpt lat="53.461100" lon="05.658188"><ele>-1.3</ele><time>2021-02-17T13:57:50Z</time><name>PT7578</name></trkpt>
<trkpt lat="53.461111" lon="05.658193"><ele>-1.3</ele><time>2021-02-17T13:57:51Z</time><name>PT7579</name></trkpt>
<trkpt lat="53.461122" lon="05.658199"><ele>-1.3</ele><time>2021-02-17T13:57:52Z</time><name>PT7580</name></trkpt>
<trkpt lat="53.461138" lon="05.658201"><ele>-1.3</ele><time>2021-02-17T13:57:53Z</time><name>PT7581</name></trkpt>
<trkpt lat="53.461149" lon="05.658208"><ele>-1.2</ele><time>2021-02-17T13:57:54Z</time><name>PT7582</name></trkpt>
<trkpt lat="53.461163" lon="05.658217"><ele>-1.3</ele><time>2021-02-17T13:57:55Z</time><name>PT7583</name></trkpt>
<trkpt lat="53.461174" lon="05.658220"><ele>-1.3</ele><time>2021-02-17T13:57:56Z</time><name>PT7584</name></trkpt>
<trkpt lat="53.461182" lon="05.658220"><ele>-1.4</ele><time>2021-02-17T13:57:57Z</time><name>PT7585</name></trkpt>
<trkpt lat="53.461190" lon="05.658220"><ele>-1.2</ele><time>2021-02-17T13:57:58Z</time><name>PT7586</name></trkpt>
<trkpt lat="53.461198" lon="05.658222"><ele>-1.2</ele><time>2021-02-17T13:57:59Z</time><name>PT7587</name></trkpt>
<trkpt lat="53.461206" lon="05.658225"><ele>-1.2</ele><time>2021-02-17T13:58:00Z</time><name>PT7588</name></trkpt>
<trkpt lat="53.461212" lon="05.658229"><ele>-1.4</ele><time>2021-02-17T13:58:01Z</time><name>PT7589</name></trkpt>
<trkpt lat="53.461218" lon="05.658230"><ele>-1.4</ele><time>2021-02-17T13:58:02Z</time><name>PT7590</name></trkpt>
<trkpt lat="53.461224" lon="05.658229"><ele>-1.4</ele><time>2021-02-17T13:58:03Z</time><name>PT7591</name></trkpt>
<trkpt lat="53.461234" lon="05.658223"><ele>-1.4</ele><time>2021-02-17T13:58:04Z</time><name>PT7592</name></trkpt>
<trkpt lat="53.461239" lon="05.658222"><ele>-1.3</ele><time>2021-02-17T13:58:05Z</time><name>PT7593</name></trkpt>
<trkpt lat="53.461245" lon="05.658220"><ele>-1.2</ele><time>2021-02-17T13:58:06Z</time><name>PT7594</name></trkpt>
<trkpt lat="53.461260" lon="05.658252"><ele>-1.1</ele><time>2021-02-17T13:58:54Z</time><name>PT7595</name></trkpt>
<trkpt lat="53.461276" lon="05.658264"><ele>-1</ele><time>2021-02-17T13:58:55Z</time><name>PT7596</name></trkpt>
<trkpt lat="53.461286" lon="05.658271"><ele>0.9</ele><time>2021-02-17T13:58:56Z</time><name>PT7597</name></trkpt>
<trkpt lat="53.461300" lon="05.658264"><ele>0.7</ele><time>2021-02-17T13:58:57Z</time><name>PT7598</name></trkpt>
<trkpt lat="53.461307" lon="05.658269"><ele>0.4</ele><time>2021-02-17T13:58:58Z</time><name>PT7599</name></trkpt>
<trkpt lat="53.461313" lon="05.658275"><ele>0.2</ele><time>2021-02-17T13:58:59Z</time><name>PT7600</name></trkpt>
<trkpt lat="53.461322" lon="05.658285"><ele>0.3</ele><time>2021-02-17T13:59:00Z</time><name>PT7601</name></trkpt>
<trkpt lat="53.461327" lon="05.658283"><ele>0.2</ele><time>2021-02-17T13:59:01Z</time><name>PT7602</name></trkpt>
<trkpt lat="53.461333" lon="05.658287"><ele>-1.4</ele><time>2021-02-17T13:59:09Z</time><name>PT7603</name></trkpt>
<trkpt lat="53.461347" lon="05.658280"><ele>-1.4</ele><time>2021-02-17T13:59:10Z</time><name>PT7604</name></trkpt>
<trkpt lat="53.461348" lon="05.658284"><ele>-1.5</ele><time>2021-02-17T13:59:22Z</time><name>PT7605</name></trkpt>
<trkpt lat="53.461354" lon="05.658292"><ele>-1.5</ele><time>2021-02-17T13:59:23Z</time><name>PT7606</name></trkpt>
<trkpt lat="53.461358" lon="05.658298"><ele>-1.4</ele><time>2021-02-17T13:59:24Z</time><name>PT7607</name></trkpt>
<trkpt lat="53.461360" lon="05.658304"><ele>-1.5</ele><time>2021-02-17T13:59:25Z</time><name>PT7608</name></trkpt>
<trkpt lat="53.461369" lon="05.658302"><ele>-1.5</ele><time>2021-02-17T13:59:26Z</time><name>PT7609</name></trkpt>
<trkpt lat="53.461373" lon="05.658304"><ele>-1.5</ele><time>2021-02-17T13:59:27Z</time><name>PT7610</name></trkpt>
<trkpt lat="53.461380" lon="05.658307"><ele>-1.3</ele><time>2021-02-17T13:59:28Z</time><name>PT7611</name></trkpt>
<trkpt lat="53.461386" lon="05.658309"><ele>-1.1</ele><time>2021-02-17T13:59:29Z</time><name>PT7612</name></trkpt>
<trkpt lat="53.461393" lon="05.658312"><ele>-1.1</ele><time>2021-02-17T13:59:30Z</time><name>PT7613</name></trkpt>
<trkpt lat="53.461399" lon="05.658319"><ele>-1.2</ele><time>2021-02-17T13:59:31Z</time><name>PT7614</name></trkpt>
<trkpt lat="53.461403" lon="05.658326"><ele>-1.3</ele><time>2021-02-17T13:59:32Z</time><name>PT7615</name></trkpt>
<trkpt lat="53.461408" lon="05.658326"><ele>-1.2</ele><time>2021-02-17T13:59:33Z</time><name>PT7616</name></trkpt>
<trkpt lat="53.461415" lon="05.658333"><ele>-1.3</ele><time>2021-02-17T13:59:34Z</time><name>PT7617</name></trkpt>
<trkpt lat="53.461427" lon="05.658333"><ele>-1</ele><time>2021-02-17T13:59:35Z</time><name>PT7618</name></trkpt>
<trkpt lat="53.461437" lon="05.658332"><ele>-1</ele><time>2021-02-17T13:59:36Z</time><name>PT7619</name></trkpt>
<trkpt lat="53.461444" lon="05.658339"><ele>-1.1</ele><time>2021-02-17T13:59:37Z</time><name>PT7620</name></trkpt>
<trkpt lat="53.461450" lon="05.658341"><ele>0.9</ele><time>2021-02-17T13:59:38Z</time><name>PT7621</name></trkpt>
<trkpt lat="53.461458" lon="05.658342"><ele>-1.2</ele><time>2021-02-17T13:59:39Z</time><name>PT7622</name></trkpt>
<trkpt lat="53.461465" lon="05.658346"><ele>-1.3</ele><time>2021-02-17T13:59:40Z</time><name>PT7623</name></trkpt>
<trkpt lat="53.461474" lon="05.658353"><ele>-1.1</ele><time>2021-02-17T13:59:41Z</time><name>PT7624</name></trkpt>
<trkpt lat="53.461482" lon="05.658365"><ele>-1.1</ele><time>2021-02-17T13:59:42Z</time><name>PT7625</name></trkpt>
<trkpt lat="53.461492" lon="05.658374"><ele>-1.2</ele><time>2021-02-17T13:59:43Z</time><name>PT7626</name></trkpt>
<trkpt lat="53.461500" lon="05.658382"><ele>-1</ele><time>2021-02-17T13:59:44Z</time><name>PT7627</name></trkpt>
<trkpt lat="53.461510" lon="05.658392"><ele>-1.2</ele><time>2021-02-17T13:59:45Z</time><name>PT7628</name></trkpt>
<trkpt lat="53.461520" lon="05.658402"><ele>-1.2</ele><time>2021-02-17T13:59:46Z</time><name>PT7629</name></trkpt>
<trkpt lat="53.461530" lon="05.658411"><ele>-1.2</ele><time>2021-02-17T13:59:47Z</time><name>PT7630</name></trkpt>
<trkpt lat="53.461537" lon="05.658417"><ele>-1.1</ele><time>2021-02-17T13:59:48Z</time><name>PT7631</name></trkpt>
<trkpt lat="53.461544" lon="05.658423"><ele>-1.2</ele><time>2021-02-17T13:59:49Z</time><name>PT7632</name></trkpt>
<trkpt lat="53.461552" lon="05.658429"><ele>-1.2</ele><time>2021-02-17T13:59:50Z</time><name>PT7633</name></trkpt>
<trkpt lat="53.461559" lon="05.658436"><ele>-1.1</ele><time>2021-02-17T13:59:51Z</time><name>PT7634</name></trkpt>
<trkpt lat="53.461567" lon="05.658442"><ele>-1.2</ele><time>2021-02-17T13:59:52Z</time><name>PT7635</name></trkpt>
<trkpt lat="53.461576" lon="05.658444"><ele>-1.1</ele><time>2021-02-17T13:59:53Z</time><name>PT7636</name></trkpt>
<trkpt lat="53.461588" lon="05.658448"><ele>-1.2</ele><time>2021-02-17T13:59:54Z</time><name>PT7637</name></trkpt>
<trkpt lat="53.461595" lon="05.658454"><ele>-1.2</ele><time>2021-02-17T13:59:55Z</time><name>PT7638</name></trkpt>
<trkpt lat="53.461602" lon="05.658460"><ele>-1.4</ele><time>2021-02-17T13:59:56Z</time><name>PT7639</name></trkpt>
<trkpt lat="53.461608" lon="05.658467"><ele>-1.4</ele><time>2021-02-17T13:59:57Z</time><name>PT7640</name></trkpt>
<trkpt lat="53.461615" lon="05.658477"><ele>-1.6</ele><time>2021-02-17T13:59:58Z</time><name>PT7641</name></trkpt>
<trkpt lat="53.461623" lon="05.658487"><ele>-1.9</ele><time>2021-02-17T13:59:59Z</time><name>PT7642</name></trkpt>
<trkpt lat="53.461631" lon="05.658498"><ele>-1.9</ele><time>2021-02-17T14:00:00Z</time><name>PT7643</name></trkpt>
<trkpt lat="53.461638" lon="05.658508"><ele>-1.9</ele><time>2021-02-17T14:00:01Z</time><name>PT7644</name></trkpt>
<trkpt lat="53.461646" lon="05.658515"><ele>-1.9</ele><time>2021-02-17T14:00:02Z</time><name>PT7645</name></trkpt>
<trkpt lat="53.461653" lon="05.658526"><ele>-2</ele><time>2021-02-17T14:00:03Z</time><name>PT7646</name></trkpt>
<trkpt lat="53.461657" lon="05.658534"><ele>-1.9</ele><time>2021-02-17T14:00:04Z</time><name>PT7647</name></trkpt>
<trkpt lat="53.461662" lon="05.658541"><ele>-1.8</ele><time>2021-02-17T14:00:05Z</time><name>PT7648</name></trkpt>
<trkpt lat="53.461667" lon="05.658550"><ele>-1.8</ele><time>2021-02-17T14:00:06Z</time><name>PT7649</name></trkpt>
<trkpt lat="53.461673" lon="05.658561"><ele>-1.6</ele><time>2021-02-17T14:00:07Z</time><name>PT7650</name></trkpt>
<trkpt lat="53.461679" lon="05.658571"><ele>-1.4</ele><time>2021-02-17T14:00:08Z</time><name>PT7651</name></trkpt>
<trkpt lat="53.461688" lon="05.658581"><ele>-1.5</ele><time>2021-02-17T14:00:09Z</time><name>PT7652</name></trkpt>
<trkpt lat="53.461696" lon="05.658592"><ele>-1.4</ele><time>2021-02-17T14:00:10Z</time><name>PT7653</name></trkpt>
<trkpt lat="53.461704" lon="05.658605"><ele>-1.3</ele><time>2021-02-17T14:00:11Z</time><name>PT7654</name></trkpt>
<trkpt lat="53.461713" lon="05.658616"><ele>-1.3</ele><time>2021-02-17T14:00:12Z</time><name>PT7655</name></trkpt>
<trkpt lat="53.461721" lon="05.658626"><ele>-1.3</ele><time>2021-02-17T14:00:13Z</time><name>PT7656</name></trkpt>
<trkpt lat="53.461730" lon="05.658633"><ele>-1.3</ele><time>2021-02-17T14:00:14Z</time><name>PT7657</name></trkpt>
<trkpt lat="53.461740" lon="05.658635"><ele>-1.3</ele><time>2021-02-17T14:00:15Z</time><name>PT7658</name></trkpt>
<trkpt lat="53.461755" lon="05.658636"><ele>-1.5</ele><time>2021-02-17T14:00:16Z</time><name>PT7659</name></trkpt>
<trkpt lat="53.461767" lon="05.658642"><ele>-1.5</ele><time>2021-02-17T14:00:17Z</time><name>PT7660</name></trkpt>
<trkpt lat="53.461777" lon="05.658649"><ele>-1.5</ele><time>2021-02-17T14:00:18Z</time><name>PT7661</name></trkpt>
<trkpt lat="53.461787" lon="05.658654"><ele>-1.8</ele><time>2021-02-17T14:00:19Z</time><name>PT7662</name></trkpt>
<trkpt lat="53.461795" lon="05.658666"><ele>-1.6</ele><time>2021-02-17T14:00:20Z</time><name>PT7663</name></trkpt>
<trkpt lat="53.461804" lon="05.658674"><ele>-1.6</ele><time>2021-02-17T14:00:21Z</time><name>PT7664</name></trkpt>
<trkpt lat="53.461813" lon="05.658681"><ele>-1.6</ele><time>2021-02-17T14:00:22Z</time><name>PT7665</name></trkpt>
<trkpt lat="53.461817" lon="05.658685"><ele>-1.6</ele><time>2021-02-17T14:00:23Z</time><name>PT7666</name></trkpt>
<trkpt lat="53.461824" lon="05.658688"><ele>-1.6</ele><time>2021-02-17T14:00:24Z</time><name>PT7667</name></trkpt>
<trkpt lat="53.461833" lon="05.658696"><ele>-1.6</ele><time>2021-02-17T14:00:25Z</time><name>PT7668</name></trkpt>
<trkpt lat="53.461842" lon="05.658703"><ele>-1.6</ele><time>2021-02-17T14:00:26Z</time><name>PT7669</name></trkpt>
<trkpt lat="53.461853" lon="05.658709"><ele>-1.8</ele><time>2021-02-17T14:00:27Z</time><name>PT7670</name></trkpt>
<trkpt lat="53.461859" lon="05.658714"><ele>-1.8</ele><time>2021-02-17T14:00:28Z</time><name>PT7671</name></trkpt>
<trkpt lat="53.461869" lon="05.658720"><ele>-1.7</ele><time>2021-02-17T14:00:29Z</time><name>PT7672</name></trkpt>
<trkpt lat="53.461878" lon="05.658725"><ele>-1.6</ele><time>2021-02-17T14:00:30Z</time><name>PT7673</name></trkpt>
<trkpt lat="53.461884" lon="05.658736"><ele>-1.6</ele><time>2021-02-17T14:00:31Z</time><name>PT7674</name></trkpt>
<trkpt lat="53.461895" lon="05.658740"><ele>-1.5</ele><time>2021-02-17T14:00:32Z</time><name>PT7675</name></trkpt>
<trkpt lat="53.461905" lon="05.658739"><ele>-1.4</ele><time>2021-02-17T14:00:33Z</time><name>PT7676</name></trkpt>
<trkpt lat="53.461912" lon="05.658737"><ele>-1.4</ele><time>2021-02-17T14:00:34Z</time><name>PT7677</name></trkpt>
<trkpt lat="53.461916" lon="05.658740"><ele>-1.4</ele><time>2021-02-17T14:00:35Z</time><name>PT7678</name></trkpt>
<trkpt lat="53.461925" lon="05.658743"><ele>-1.4</ele><time>2021-02-17T14:00:36Z</time><name>PT7679</name></trkpt>
<trkpt lat="53.461936" lon="05.658744"><ele>-1.5</ele><time>2021-02-17T14:00:37Z</time><name>PT7680</name></trkpt>
<trkpt lat="53.461945" lon="05.658745"><ele>-1.6</ele><time>2021-02-17T14:00:38Z</time><name>PT7681</name></trkpt>
<trkpt lat="53.461955" lon="05.658745"><ele>-1.6</ele><time>2021-02-17T14:00:39Z</time><name>PT7682</name></trkpt>
<trkpt lat="53.461962" lon="05.658749"><ele>-1.5</ele><time>2021-02-17T14:00:40Z</time><name>PT7683</name></trkpt>
<trkpt lat="53.461970" lon="05.658756"><ele>-1.4</ele><time>2021-02-17T14:00:41Z</time><name>PT7684</name></trkpt>
<trkpt lat="53.461974" lon="05.658766"><ele>-1.4</ele><time>2021-02-17T14:00:42Z</time><name>PT7685</name></trkpt>
<trkpt lat="53.461985" lon="05.658774"><ele>-1.5</ele><time>2021-02-17T14:00:43Z</time><name>PT7686</name></trkpt>
<trkpt lat="53.461994" lon="05.658779"><ele>-1.4</ele><time>2021-02-17T14:00:44Z</time><name>PT7687</name></trkpt>
<trkpt lat="53.462003" lon="05.658785"><ele>-1.5</ele><time>2021-02-17T14:00:45Z</time><name>PT7688</name></trkpt>
<trkpt lat="53.462013" lon="05.658790"><ele>-1.4</ele><time>2021-02-17T14:00:46Z</time><name>PT7689</name></trkpt>
<trkpt lat="53.462020" lon="05.658795"><ele>-1.3</ele><time>2021-02-17T14:00:47Z</time><name>PT7690</name></trkpt>
<trkpt lat="53.462030" lon="05.658799"><ele>-1.4</ele><time>2021-02-17T14:00:48Z</time><name>PT7691</name></trkpt>
<trkpt lat="53.462040" lon="05.658802"><ele>-1.3</ele><time>2021-02-17T14:00:49Z</time><name>PT7692</name></trkpt>
<trkpt lat="53.462052" lon="05.658804"><ele>-1.3</ele><time>2021-02-17T14:00:50Z</time><name>PT7693</name></trkpt>
<trkpt lat="53.462057" lon="05.658809"><ele>-1.3</ele><time>2021-02-17T14:00:51Z</time><name>PT7694</name></trkpt>
<trkpt lat="53.462062" lon="05.658820"><ele>-1.2</ele><time>2021-02-17T14:00:52Z</time><name>PT7695</name></trkpt>
<trkpt lat="53.462067" lon="05.658828"><ele>-1.4</ele><time>2021-02-17T14:00:53Z</time><name>PT7696</name></trkpt>
<trkpt lat="53.462069" lon="05.658840"><ele>-1.4</ele><time>2021-02-17T14:00:54Z</time><name>PT7697</name></trkpt>
<trkpt lat="53.462073" lon="05.658844"><ele>-1.3</ele><time>2021-02-17T14:00:55Z</time><name>PT7698</name></trkpt>
<trkpt lat="53.462084" lon="05.658845"><ele>-1.4</ele><time>2021-02-17T14:00:56Z</time><name>PT7699</name></trkpt>
<trkpt lat="53.462088" lon="05.658854"><ele>-1.3</ele><time>2021-02-17T14:00:57Z</time><name>PT7700</name></trkpt>
<trkpt lat="53.462095" lon="05.658858"><ele>-1.2</ele><time>2021-02-17T14:00:58Z</time><name>PT7701</name></trkpt>
<trkpt lat="53.462101" lon="05.658865"><ele>-1.4</ele><time>2021-02-17T14:00:59Z</time><name>PT7702</name></trkpt>
<trkpt lat="53.462107" lon="05.658872"><ele>-1.4</ele><time>2021-02-17T14:01:00Z</time><name>PT7703</name></trkpt>
<trkpt lat="53.462117" lon="05.658880"><ele>-1.4</ele><time>2021-02-17T14:01:01Z</time><name>PT7704</name></trkpt>
<trkpt lat="53.462127" lon="05.658888"><ele>-1.4</ele><time>2021-02-17T14:01:02Z</time><name>PT7705</name></trkpt>
<trkpt lat="53.462136" lon="05.658894"><ele>-1.4</ele><time>2021-02-17T14:01:03Z</time><name>PT7706</name></trkpt>
<trkpt lat="53.462147" lon="05.658898"><ele>-1.3</ele><time>2021-02-17T14:01:04Z</time><name>PT7707</name></trkpt>
<trkpt lat="53.462154" lon="05.658906"><ele>-1.2</ele><time>2021-02-17T14:01:05Z</time><name>PT7708</name></trkpt>
<trkpt lat="53.462163" lon="05.658912"><ele>-1</ele><time>2021-02-17T14:01:06Z</time><name>PT7709</name></trkpt>
<trkpt lat="53.462175" lon="05.658917"><ele>0.9</ele><time>2021-02-17T14:01:07Z</time><name>PT7710</name></trkpt>
<trkpt lat="53.462184" lon="05.658925"><ele>0.7</ele><time>2021-02-17T14:01:08Z</time><name>PT7711</name></trkpt>
<trkpt lat="53.462192" lon="05.658932"><ele>0.7</ele><time>2021-02-17T14:01:09Z</time><name>PT7712</name></trkpt>
<trkpt lat="53.462200" lon="05.658939"><ele>0.7</ele><time>2021-02-17T14:01:10Z</time><name>PT7713</name></trkpt>
<trkpt lat="53.462207" lon="05.658942"><ele>0.6</ele><time>2021-02-17T14:01:11Z</time><name>PT7714</name></trkpt>
<trkpt lat="53.462218" lon="05.658946"><ele>0.5</ele><time>2021-02-17T14:01:12Z</time><name>PT7715</name></trkpt>
<trkpt lat="53.462227" lon="05.658948"><ele>0.4</ele><time>2021-02-17T14:01:13Z</time><name>PT7716</name></trkpt>
<trkpt lat="53.462237" lon="05.658952"><ele>0.2</ele><time>2021-02-17T14:01:14Z</time><name>PT7717</name></trkpt>
<trkpt lat="53.462246" lon="05.658957"><ele>0.3</ele><time>2021-02-17T14:01:15Z</time><name>PT7718</name></trkpt>
<trkpt lat="53.462257" lon="05.658961"><ele>0</ele><time>2021-02-17T14:01:16Z</time><name>PT7719</name></trkpt>
<trkpt lat="53.462269" lon="05.658967"><ele>0.2</ele><time>2021-02-17T14:01:17Z</time><name>PT7720</name></trkpt>
<trkpt lat="53.462279" lon="05.658971"><ele>0.4</ele><time>2021-02-17T14:01:18Z</time><name>PT7721</name></trkpt>
<trkpt lat="53.462288" lon="05.658976"><ele>0.5</ele><time>2021-02-17T14:01:19Z</time><name>PT7722</name></trkpt>
<trkpt lat="53.462298" lon="05.658980"><ele>0.6</ele><time>2021-02-17T14:01:20Z</time><name>PT7723</name></trkpt>
<trkpt lat="53.462310" lon="05.658986"><ele>0.7</ele><time>2021-02-17T14:01:21Z</time><name>PT7724</name></trkpt>
<trkpt lat="53.462319" lon="05.658992"><ele>0.8</ele><time>2021-02-17T14:01:22Z</time><name>PT7725</name></trkpt>
<trkpt lat="53.462327" lon="05.658997"><ele>0.9</ele><time>2021-02-17T14:01:23Z</time><name>PT7726</name></trkpt>
<trkpt lat="53.462335" lon="05.659000"><ele>1.1</ele><time>2021-02-17T14:01:24Z</time><name>PT7727</name></trkpt>
<trkpt lat="53.462345" lon="05.659006"><ele>1.1</ele><time>2021-02-17T14:01:25Z</time><name>PT7728</name></trkpt>
<trkpt lat="53.462356" lon="05.659012"><ele>1.2</ele><time>2021-02-17T14:01:26Z</time><name>PT7729</name></trkpt>
<trkpt lat="53.462365" lon="05.659016"><ele>1.2</ele><time>2021-02-17T14:01:27Z</time><name>PT7730</name></trkpt>
<trkpt lat="53.462376" lon="05.659019"><ele>1.3</ele><time>2021-02-17T14:01:28Z</time><name>PT7731</name></trkpt>
<trkpt lat="53.462385" lon="05.659025"><ele>1.4</ele><time>2021-02-17T14:01:29Z</time><name>PT7732</name></trkpt>
<trkpt lat="53.462391" lon="05.659031"><ele>1.5</ele><time>2021-02-17T14:01:30Z</time><name>PT7733</name></trkpt>
<trkpt lat="53.462396" lon="05.659031"><ele>1.7</ele><time>2021-02-17T14:01:31Z</time><name>PT7734</name></trkpt>
<trkpt lat="53.462400" lon="05.659034"><ele>1.9</ele><time>2021-02-17T14:01:32Z</time><name>PT7735</name></trkpt>
<trkpt lat="53.462403" lon="05.659036"><ele>1.9</ele><time>2021-02-17T14:01:33Z</time><name>PT7736</name></trkpt>
<trkpt lat="53.462405" lon="05.659037"><ele>1.6</ele><time>2021-02-17T14:01:34Z</time><name>PT7737</name></trkpt>
<trkpt lat="53.462405" lon="05.659038"><ele>1.9</ele><time>2021-02-17T14:01:35Z</time><name>PT7738</name></trkpt>
<trkpt lat="53.462408" lon="05.659057"><ele>1.8</ele><time>2021-02-17T14:01:40Z</time><name>PT7739</name></trkpt>
<trkpt lat="53.462422" lon="05.659062"><ele>1.7</ele><time>2021-02-17T14:01:41Z</time><name>PT7740</name></trkpt>
<trkpt lat="53.462432" lon="05.659058"><ele>1.8</ele><time>2021-02-17T14:01:42Z</time><name>PT7741</name></trkpt>
<trkpt lat="53.462444" lon="05.659059"><ele>1.8</ele><time>2021-02-17T14:01:43Z</time><name>PT7742</name></trkpt>
<trkpt lat="53.462453" lon="05.659064"><ele>1.9</ele><time>2021-02-17T14:01:44Z</time><name>PT7743</name></trkpt>
<trkpt lat="53.462465" lon="05.659065"><ele>2</ele><time>2021-02-17T14:01:45Z</time><name>PT7744</name></trkpt>
<trkpt lat="53.462475" lon="05.659071"><ele>2.1</ele><time>2021-02-17T14:01:46Z</time><name>PT7745</name></trkpt>
<trkpt lat="53.462483" lon="05.659075"><ele>2.2</ele><time>2021-02-17T14:01:47Z</time><name>PT7746</name></trkpt>
<trkpt lat="53.462496" lon="05.659076"><ele>2.3</ele><time>2021-02-17T14:01:48Z</time><name>PT7747</name></trkpt>
<trkpt lat="53.462508" lon="05.659080"><ele>2.1</ele><time>2021-02-17T14:01:49Z</time><name>PT7748</name></trkpt>
<trkpt lat="53.462519" lon="05.659085"><ele>2.2</ele><time>2021-02-17T14:01:50Z</time><name>PT7749</name></trkpt>
<trkpt lat="53.462531" lon="05.659089"><ele>2.1</ele><time>2021-02-17T14:01:51Z</time><name>PT7750</name></trkpt>
<trkpt lat="53.462542" lon="05.659091"><ele>2.2</ele><time>2021-02-17T14:01:52Z</time><name>PT7751</name></trkpt>
<trkpt lat="53.462552" lon="05.659093"><ele>2.2</ele><time>2021-02-17T14:01:53Z</time><name>PT7752</name></trkpt>
<trkpt lat="53.462564" lon="05.659093"><ele>2.3</ele><time>2021-02-17T14:01:54Z</time><name>PT7753</name></trkpt>
<trkpt lat="53.462576" lon="05.659094"><ele>2.2</ele><time>2021-02-17T14:01:55Z</time><name>PT7754</name></trkpt>
<trkpt lat="53.462587" lon="05.659095"><ele>2.4</ele><time>2021-02-17T14:01:56Z</time><name>PT7755</name></trkpt>
<trkpt lat="53.462597" lon="05.659096"><ele>2.7</ele><time>2021-02-17T14:01:57Z</time><name>PT7756</name></trkpt>
<trkpt lat="53.462607" lon="05.659097"><ele>3</ele><time>2021-02-17T14:01:58Z</time><name>PT7757</name></trkpt>
<trkpt lat="53.462618" lon="05.659099"><ele>3.5</ele><time>2021-02-17T14:01:59Z</time><name>PT7758</name></trkpt>
<trkpt lat="53.462627" lon="05.659103"><ele>3.7</ele><time>2021-02-17T14:02:00Z</time><name>PT7759</name></trkpt>
<trkpt lat="53.462637" lon="05.659106"><ele>3.8</ele><time>2021-02-17T14:02:01Z</time><name>PT7760</name></trkpt>
<trkpt lat="53.462646" lon="05.659109"><ele>4.1</ele><time>2021-02-17T14:02:02Z</time><name>PT7761</name></trkpt>
<trkpt lat="53.462657" lon="05.659112"><ele>4.1</ele><time>2021-02-17T14:02:03Z</time><name>PT7762</name></trkpt>
<trkpt lat="53.462666" lon="05.659116"><ele>4.2</ele><time>2021-02-17T14:02:04Z</time><name>PT7763</name></trkpt>
<trkpt lat="53.462678" lon="05.659120"><ele>4.3</ele><time>2021-02-17T14:02:05Z</time><name>PT7764</name></trkpt>
<trkpt lat="53.462686" lon="05.659125"><ele>4.3</ele><time>2021-02-17T14:02:06Z</time><name>PT7765</name></trkpt>
<trkpt lat="53.462695" lon="05.659129"><ele>4.4</ele><time>2021-02-17T14:02:07Z</time><name>PT7766</name></trkpt>
<trkpt lat="53.462704" lon="05.659133"><ele>4.3</ele><time>2021-02-17T14:02:08Z</time><name>PT7767</name></trkpt>
<trkpt lat="53.462714" lon="05.659137"><ele>4.2</ele><time>2021-02-17T14:02:09Z</time><name>PT7768</name></trkpt>
<trkpt lat="53.462722" lon="05.659143"><ele>4.3</ele><time>2021-02-17T14:02:10Z</time><name>PT7769</name></trkpt>
<trkpt lat="53.462731" lon="05.659147"><ele>4.2</ele><time>2021-02-17T14:02:11Z</time><name>PT7770</name></trkpt>
<trkpt lat="53.462739" lon="05.659151"><ele>4.3</ele><time>2021-02-17T14:02:12Z</time><name>PT7771</name></trkpt>
<trkpt lat="53.462750" lon="05.659155"><ele>4.8</ele><time>2021-02-17T14:02:13Z</time><name>PT7772</name></trkpt>
<trkpt lat="53.462760" lon="05.659158"><ele>4.8</ele><time>2021-02-17T14:02:14Z</time><name>PT7773</name></trkpt>
<trkpt lat="53.462769" lon="05.659160"><ele>4.8</ele><time>2021-02-17T14:02:15Z</time><name>PT7774</name></trkpt>
<trkpt lat="53.462780" lon="05.659162"><ele>4.8</ele><time>2021-02-17T14:02:16Z</time><name>PT7775</name></trkpt>
<trkpt lat="53.462790" lon="05.659164"><ele>4.8</ele><time>2021-02-17T14:02:17Z</time><name>PT7776</name></trkpt>
<trkpt lat="53.462797" lon="05.659170"><ele>4.6</ele><time>2021-02-17T14:02:18Z</time><name>PT7777</name></trkpt>
<trkpt lat="53.462805" lon="05.659174"><ele>4.4</ele><time>2021-02-17T14:02:19Z</time><name>PT7778</name></trkpt>
<trkpt lat="53.462815" lon="05.659176"><ele>4.3</ele><time>2021-02-17T14:02:20Z</time><name>PT7779</name></trkpt>
<trkpt lat="53.462825" lon="05.659178"><ele>4.3</ele><time>2021-02-17T14:02:21Z</time><name>PT7780</name></trkpt>
<trkpt lat="53.462835" lon="05.659179"><ele>4.3</ele><time>2021-02-17T14:02:22Z</time><name>PT7781</name></trkpt>
<trkpt lat="53.462846" lon="05.659181"><ele>4.4</ele><time>2021-02-17T14:02:23Z</time><name>PT7782</name></trkpt>
<trkpt lat="53.462855" lon="05.659187"><ele>4.4</ele><time>2021-02-17T14:02:24Z</time><name>PT7783</name></trkpt>
<trkpt lat="53.462864" lon="05.659193"><ele>4.4</ele><time>2021-02-17T14:02:25Z</time><name>PT7784</name></trkpt>
<trkpt lat="53.462873" lon="05.659198"><ele>4.7</ele><time>2021-02-17T14:02:26Z</time><name>PT7785</name></trkpt>
<trkpt lat="53.462882" lon="05.659204"><ele>4.7</ele><time>2021-02-17T14:02:27Z</time><name>PT7786</name></trkpt>
<trkpt lat="53.462892" lon="05.659210"><ele>4.9</ele><time>2021-02-17T14:02:28Z</time><name>PT7787</name></trkpt>
<trkpt lat="53.462901" lon="05.659214"><ele>4.9</ele><time>2021-02-17T14:02:29Z</time><name>PT7788</name></trkpt>
<trkpt lat="53.462909" lon="05.659219"><ele>4.8</ele><time>2021-02-17T14:02:30Z</time><name>PT7789</name></trkpt>
<trkpt lat="53.462917" lon="05.659224"><ele>4.6</ele><time>2021-02-17T14:02:31Z</time><name>PT7790</name></trkpt>
<trkpt lat="53.462925" lon="05.659229"><ele>4.3</ele><time>2021-02-17T14:02:32Z</time><name>PT7791</name></trkpt>
<trkpt lat="53.462933" lon="05.659232"><ele>4.3</ele><time>2021-02-17T14:02:33Z</time><name>PT7792</name></trkpt>
<trkpt lat="53.462941" lon="05.659234"><ele>4.3</ele><time>2021-02-17T14:02:34Z</time><name>PT7793</name></trkpt>
<trkpt lat="53.462949" lon="05.659237"><ele>4.4</ele><time>2021-02-17T14:02:35Z</time><name>PT7794</name></trkpt>
<trkpt lat="53.462955" lon="05.659236"><ele>4.5</ele><time>2021-02-17T14:02:36Z</time><name>PT7795</name></trkpt>
<trkpt lat="53.462961" lon="05.659238"><ele>4.4</ele><time>2021-02-17T14:02:37Z</time><name>PT7796</name></trkpt>
<trkpt lat="53.462967" lon="05.659243"><ele>4.3</ele><time>2021-02-17T14:02:38Z</time><name>PT7797</name></trkpt>
<trkpt lat="53.462973" lon="05.659246"><ele>4.3</ele><time>2021-02-17T14:02:39Z</time><name>PT7798</name></trkpt>
<trkpt lat="53.462978" lon="05.659248"><ele>4.1</ele><time>2021-02-17T14:02:40Z</time><name>PT7799</name></trkpt>
<trkpt lat="53.462984" lon="05.659252"><ele>4</ele><time>2021-02-17T14:02:41Z</time><name>PT7800</name></trkpt>
<trkpt lat="53.462991" lon="05.659255"><ele>4</ele><time>2021-02-17T14:02:42Z</time><name>PT7801</name></trkpt>
<trkpt lat="53.462997" lon="05.659261"><ele>3.6</ele><time>2021-02-17T14:02:43Z</time><name>PT7802</name></trkpt>
<trkpt lat="53.463006" lon="05.659263"><ele>3.4</ele><time>2021-02-17T14:02:44Z</time><name>PT7803</name></trkpt>
<trkpt lat="53.463014" lon="05.659266"><ele>3.4</ele><time>2021-02-17T14:02:45Z</time><name>PT7804</name></trkpt>
<trkpt lat="53.463020" lon="05.659270"><ele>3.4</ele><time>2021-02-17T14:02:46Z</time><name>PT7805</name></trkpt>
<trkpt lat="53.463027" lon="05.659273"><ele>3.3</ele><time>2021-02-17T14:02:47Z</time><name>PT7806</name></trkpt>
<trkpt lat="53.463033" lon="05.659276"><ele>3.2</ele><time>2021-02-17T14:02:48Z</time><name>PT7807</name></trkpt>
<trkpt lat="53.463037" lon="05.659279"><ele>2.9</ele><time>2021-02-17T14:02:49Z</time><name>PT7808</name></trkpt>
<trkpt lat="53.463037" lon="05.659281"><ele>2.7</ele><time>2021-02-17T14:02:50Z</time><name>PT7809</name></trkpt>
<trkpt lat="53.463037" lon="05.659283"><ele>2.5</ele><time>2021-02-17T14:02:51Z</time><name>PT7810</name></trkpt>
<trkpt lat="53.463042" lon="05.659285"><ele>2.4</ele><time>2021-02-17T14:02:52Z</time><name>PT7811</name></trkpt>
<trkpt lat="53.463048" lon="05.659287"><ele>2.3</ele><time>2021-02-17T14:02:53Z</time><name>PT7812</name></trkpt>
<trkpt lat="53.463053" lon="05.659289"><ele>2.2</ele><time>2021-02-17T14:02:54Z</time><name>PT7813</name></trkpt>
<trkpt lat="53.463058" lon="05.659294"><ele>2.1</ele><time>2021-02-17T14:02:55Z</time><name>PT7814</name></trkpt>
<trkpt lat="53.463064" lon="05.659298"><ele>1.9</ele><time>2021-02-17T14:02:56Z</time><name>PT7815</name></trkpt>
<trkpt lat="53.463071" lon="05.659304"><ele>1.9</ele><time>2021-02-17T14:02:57Z</time><name>PT7816</name></trkpt>
<trkpt lat="53.463077" lon="05.659311"><ele>2</ele><time>2021-02-17T14:02:58Z</time><name>PT7817</name></trkpt>
<trkpt lat="53.463082" lon="05.659316"><ele>1.8</ele><time>2021-02-17T14:02:59Z</time><name>PT7818</name></trkpt>
<trkpt lat="53.463088" lon="05.659320"><ele>1.8</ele><time>2021-02-17T14:03:00Z</time><name>PT7819</name></trkpt>
<trkpt lat="53.463094" lon="05.659324"><ele>1.8</ele><time>2021-02-17T14:03:01Z</time><name>PT7820</name></trkpt>
<trkpt lat="53.463100" lon="05.659329"><ele>1.4</ele><time>2021-02-17T14:03:02Z</time><name>PT7821</name></trkpt>
<trkpt lat="53.463104" lon="05.659333"><ele>1.4</ele><time>2021-02-17T14:03:03Z</time><name>PT7822</name></trkpt>
<trkpt lat="53.463109" lon="05.659337"><ele>1.1</ele><time>2021-02-17T14:03:04Z</time><name>PT7823</name></trkpt>
<trkpt lat="53.463116" lon="05.659343"><ele>0.9</ele><time>2021-02-17T14:03:05Z</time><name>PT7824</name></trkpt>
<trkpt lat="53.463124" lon="05.659345"><ele>0.8</ele><time>2021-02-17T14:03:06Z</time><name>PT7825</name></trkpt>
<trkpt lat="53.463131" lon="05.659345"><ele>0.6</ele><time>2021-02-17T14:03:07Z</time><name>PT7826</name></trkpt>
<trkpt lat="53.463137" lon="05.659344"><ele>0.3</ele><time>2021-02-17T14:03:08Z</time><name>PT7827</name></trkpt>
<trkpt lat="53.463143" lon="05.659345"><ele>0.2</ele><time>2021-02-17T14:03:09Z</time><name>PT7828</name></trkpt>
<trkpt lat="53.463148" lon="05.659352"><ele>0.2</ele><time>2021-02-17T14:03:10Z</time><name>PT7829</name></trkpt>
<trkpt lat="53.463154" lon="05.659359"><ele>0.4</ele><time>2021-02-17T14:03:11Z</time><name>PT7830</name></trkpt>
<trkpt lat="53.463162" lon="05.659363"><ele>0.4</ele><time>2021-02-17T14:03:12Z</time><name>PT7831</name></trkpt>
<trkpt lat="53.463169" lon="05.659367"><ele>0.7</ele><time>2021-02-17T14:03:13Z</time><name>PT7832</name></trkpt>
<trkpt lat="53.463178" lon="05.659370"><ele>0.9</ele><time>2021-02-17T14:03:14Z</time><name>PT7833</name></trkpt>
<trkpt lat="53.463187" lon="05.659375"><ele>0.9</ele><time>2021-02-17T14:03:15Z</time><name>PT7834</name></trkpt>
<trkpt lat="53.463197" lon="05.659379"><ele>-1</ele><time>2021-02-17T14:03:16Z</time><name>PT7835</name></trkpt>
<trkpt lat="53.463207" lon="05.659386"><ele>-1</ele><time>2021-02-17T14:03:17Z</time><name>PT7836</name></trkpt>
<trkpt lat="53.463214" lon="05.659395"><ele>-1.4</ele><time>2021-02-17T14:03:18Z</time><name>PT7837</name></trkpt>
<trkpt lat="53.463223" lon="05.659403"><ele>-1.2</ele><time>2021-02-17T14:03:19Z</time><name>PT7838</name></trkpt>
<trkpt lat="53.463234" lon="05.659411"><ele>-1.4</ele><time>2021-02-17T14:03:20Z</time><name>PT7839</name></trkpt>
<trkpt lat="53.463243" lon="05.659419"><ele>-1.4</ele><time>2021-02-17T14:03:21Z</time><name>PT7840</name></trkpt>
<trkpt lat="53.463252" lon="05.659426"><ele>-1.4</ele><time>2021-02-17T14:03:22Z</time><name>PT7841</name></trkpt>
<trkpt lat="53.463260" lon="05.659434"><ele>-1.4</ele><time>2021-02-17T14:03:23Z</time><name>PT7842</name></trkpt>
<trkpt lat="53.463268" lon="05.659444"><ele>-1.5</ele><time>2021-02-17T14:03:24Z</time><name>PT7843</name></trkpt>
<trkpt lat="53.463274" lon="05.659451"><ele>-1.6</ele><time>2021-02-17T14:03:25Z</time><name>PT7844</name></trkpt>
<trkpt lat="53.463280" lon="05.659457"><ele>-1.7</ele><time>2021-02-17T14:03:26Z</time><name>PT7845</name></trkpt>
<trkpt lat="53.463290" lon="05.659461"><ele>-1.6</ele><time>2021-02-17T14:03:27Z</time><name>PT7846</name></trkpt>
<trkpt lat="53.463296" lon="05.659463"><ele>-1.7</ele><time>2021-02-17T14:03:28Z</time><name>PT7847</name></trkpt>
<trkpt lat="53.463302" lon="05.659466"><ele>-1.8</ele><time>2021-02-17T14:03:29Z</time><name>PT7848</name></trkpt>
<trkpt lat="53.463307" lon="05.659473"><ele>-1.9</ele><time>2021-02-17T14:03:30Z</time><name>PT7849</name></trkpt>
<trkpt lat="53.463314" lon="05.659477"><ele>-2</ele><time>2021-02-17T14:03:31Z</time><name>PT7850</name></trkpt>
<trkpt lat="53.463322" lon="05.659479"><ele>-2</ele><time>2021-02-17T14:03:32Z</time><name>PT7851</name></trkpt>
<trkpt lat="53.463328" lon="05.659482"><ele>-2</ele><time>2021-02-17T14:03:33Z</time><name>PT7852</name></trkpt>
<trkpt lat="53.463335" lon="05.659485"><ele>-1.9</ele><time>2021-02-17T14:03:34Z</time><name>PT7853</name></trkpt>
<trkpt lat="53.463342" lon="05.659485"><ele>-1.7</ele><time>2021-02-17T14:03:35Z</time><name>PT7854</name></trkpt>
<trkpt lat="53.463346" lon="05.659488"><ele>-1.7</ele><time>2021-02-17T14:03:36Z</time><name>PT7855</name></trkpt>
<trkpt lat="53.463348" lon="05.659491"><ele>-1.9</ele><time>2021-02-17T14:03:37Z</time><name>PT7856</name></trkpt>
<trkpt lat="53.463347" lon="05.659496"><ele>-1.8</ele><time>2021-02-17T14:03:38Z</time><name>PT7857</name></trkpt>
<trkpt lat="53.463345" lon="05.659504"><ele>-2</ele><time>2021-02-17T14:03:39Z</time><name>PT7858</name></trkpt>
<trkpt lat="53.463344" lon="05.659516"><ele>-2.1</ele><time>2021-02-17T14:03:40Z</time><name>PT7859</name></trkpt>
<trkpt lat="53.463342" lon="05.659529"><ele>-2.2</ele><time>2021-02-17T14:03:41Z</time><name>PT7860</name></trkpt>
<trkpt lat="53.463340" lon="05.659543"><ele>-2.3</ele><time>2021-02-17T14:03:42Z</time><name>PT7861</name></trkpt>
<trkpt lat="53.463337" lon="05.659557"><ele>-2.4</ele><time>2021-02-17T14:03:43Z</time><name>PT7862</name></trkpt>
<trkpt lat="53.463335" lon="05.659571"><ele>-2.3</ele><time>2021-02-17T14:03:44Z</time><name>PT7863</name></trkpt>
<trkpt lat="53.463332" lon="05.659586"><ele>-2.3</ele><time>2021-02-17T14:03:45Z</time><name>PT7864</name></trkpt>
<trkpt lat="53.463329" lon="05.659604"><ele>-2.3</ele><time>2021-02-17T14:03:46Z</time><name>PT7865</name></trkpt>
<trkpt lat="53.463326" lon="05.659622"><ele>-2.2</ele><time>2021-02-17T14:03:47Z</time><name>PT7866</name></trkpt>
<trkpt lat="53.463325" lon="05.659637"><ele>-2.1</ele><time>2021-02-17T14:03:48Z</time><name>PT7867</name></trkpt>
<trkpt lat="53.463323" lon="05.659653"><ele>-2.2</ele><time>2021-02-17T14:03:49Z</time><name>PT7868</name></trkpt>
<trkpt lat="53.463321" lon="05.659672"><ele>-2.1</ele><time>2021-02-17T14:03:50Z</time><name>PT7869</name></trkpt>
<trkpt lat="53.463319" lon="05.659689"><ele>-2.1</ele><time>2021-02-17T14:03:51Z</time><name>PT7870</name></trkpt>
<trkpt lat="53.463315" lon="05.659705"><ele>-2.2</ele><time>2021-02-17T14:03:52Z</time><name>PT7871</name></trkpt>
<trkpt lat="53.463310" lon="05.659718"><ele>-2</ele><time>2021-02-17T14:03:53Z</time><name>PT7872</name></trkpt>
<trkpt lat="53.463306" lon="05.659734"><ele>-2.1</ele><time>2021-02-17T14:03:54Z</time><name>PT7873</name></trkpt>
<trkpt lat="53.463302" lon="05.659749"><ele>-2</ele><time>2021-02-17T14:03:55Z</time><name>PT7874</name></trkpt>
<trkpt lat="53.463299" lon="05.659765"><ele>-2.1</ele><time>2021-02-17T14:03:56Z</time><name>PT7875</name></trkpt>
<trkpt lat="53.463296" lon="05.659779"><ele>-2.2</ele><time>2021-02-17T14:03:57Z</time><name>PT7876</name></trkpt>
<trkpt lat="53.463295" lon="05.659794"><ele>-2.1</ele><time>2021-02-17T14:03:58Z</time><name>PT7877</name></trkpt>
<trkpt lat="53.463294" lon="05.659812"><ele>-2.2</ele><time>2021-02-17T14:03:59Z</time><name>PT7878</name></trkpt>
<trkpt lat="53.463291" lon="05.659829"><ele>-2.3</ele><time>2021-02-17T14:04:00Z</time><name>PT7879</name></trkpt>
<trkpt lat="53.463288" lon="05.659846"><ele>-2.2</ele><time>2021-02-17T14:04:01Z</time><name>PT7880</name></trkpt>
<trkpt lat="53.463285" lon="05.659862"><ele>-2.2</ele><time>2021-02-17T14:04:02Z</time><name>PT7881</name></trkpt>
<trkpt lat="53.463281" lon="05.659878"><ele>-2.2</ele><time>2021-02-17T14:04:03Z</time><name>PT7882</name></trkpt>
<trkpt lat="53.463278" lon="05.659895"><ele>-2.3</ele><time>2021-02-17T14:04:04Z</time><name>PT7883</name></trkpt>
<trkpt lat="53.463275" lon="05.659912"><ele>-2.4</ele><time>2021-02-17T14:04:05Z</time><name>PT7884</name></trkpt>
<trkpt lat="53.463273" lon="05.659929"><ele>-2.1</ele><time>2021-02-17T14:04:06Z</time><name>PT7885</name></trkpt>
<trkpt lat="53.463270" lon="05.659945"><ele>-2.1</ele><time>2021-02-17T14:04:07Z</time><name>PT7886</name></trkpt>
<trkpt lat="53.463267" lon="05.659962"><ele>-2.1</ele><time>2021-02-17T14:04:08Z</time><name>PT7887</name></trkpt>
<trkpt lat="53.463263" lon="05.659978"><ele>-1.9</ele><time>2021-02-17T14:04:09Z</time><name>PT7888</name></trkpt>
<trkpt lat="53.463258" lon="05.659998"><ele>-2</ele><time>2021-02-17T14:04:10Z</time><name>PT7889</name></trkpt>
<trkpt lat="53.463254" lon="05.660016"><ele>-2</ele><time>2021-02-17T14:04:11Z</time><name>PT7890</name></trkpt>
<trkpt lat="53.463251" lon="05.660030"><ele>-1.9</ele><time>2021-02-17T14:04:12Z</time><name>PT7891</name></trkpt>
<trkpt lat="53.463248" lon="05.660045"><ele>-1.9</ele><time>2021-02-17T14:04:13Z</time><name>PT7892</name></trkpt>
<trkpt lat="53.463243" lon="05.660062"><ele>-1.9</ele><time>2021-02-17T14:04:14Z</time><name>PT7893</name></trkpt>
<trkpt lat="53.463238" lon="05.660078"><ele>-1.9</ele><time>2021-02-17T14:04:15Z</time><name>PT7894</name></trkpt>
<trkpt lat="53.463232" lon="05.660095"><ele>-1.9</ele><time>2021-02-17T14:04:16Z</time><name>PT7895</name></trkpt>
<trkpt lat="53.463227" lon="05.660112"><ele>-1.8</ele><time>2021-02-17T14:04:17Z</time><name>PT7896</name></trkpt>
<trkpt lat="53.463223" lon="05.660128"><ele>-1.6</ele><time>2021-02-17T14:04:18Z</time><name>PT7897</name></trkpt>
<trkpt lat="53.463220" lon="05.660142"><ele>-1.4</ele><time>2021-02-17T14:04:19Z</time><name>PT7898</name></trkpt>
<trkpt lat="53.463217" lon="05.660157"><ele>-1.5</ele><time>2021-02-17T14:04:20Z</time><name>PT7899</name></trkpt>
<trkpt lat="53.463215" lon="05.660172"><ele>-1.5</ele><time>2021-02-17T14:04:21Z</time><name>PT7900</name></trkpt>
<trkpt lat="53.463211" lon="05.660189"><ele>-1.9</ele><time>2021-02-17T14:04:22Z</time><name>PT7901</name></trkpt>
<trkpt lat="53.463206" lon="05.660204"><ele>-1.9</ele><time>2021-02-17T14:04:23Z</time><name>PT7902</name></trkpt>
<trkpt lat="53.463203" lon="05.660221"><ele>-2</ele><time>2021-02-17T14:04:24Z</time><name>PT7903</name></trkpt>
<trkpt lat="53.463199" lon="05.660237"><ele>-2</ele><time>2021-02-17T14:04:25Z</time><name>PT7904</name></trkpt>
<trkpt lat="53.463194" lon="05.660254"><ele>-2</ele><time>2021-02-17T14:04:26Z</time><name>PT7905</name></trkpt>
<trkpt lat="53.463190" lon="05.660271"><ele>-2.2</ele><time>2021-02-17T14:04:27Z</time><name>PT7906</name></trkpt>
<trkpt lat="53.463186" lon="05.660289"><ele>-2</ele><time>2021-02-17T14:04:28Z</time><name>PT7907</name></trkpt>
<trkpt lat="53.463183" lon="05.660306"><ele>-1.9</ele><time>2021-02-17T14:04:29Z</time><name>PT7908</name></trkpt>
<trkpt lat="53.463182" lon="05.660322"><ele>-1.9</ele><time>2021-02-17T14:04:30Z</time><name>PT7909</name></trkpt>
<trkpt lat="53.463180" lon="05.660337"><ele>-1.9</ele><time>2021-02-17T14:04:31Z</time><name>PT7910</name></trkpt>
<trkpt lat="53.463176" lon="05.660354"><ele>-1.9</ele><time>2021-02-17T14:04:32Z</time><name>PT7911</name></trkpt>
<trkpt lat="53.463174" lon="05.660370"><ele>-1.9</ele><time>2021-02-17T14:04:33Z</time><name>PT7912</name></trkpt>
<trkpt lat="53.463171" lon="05.660379"><ele>-1.9</ele><time>2021-02-17T14:04:34Z</time><name>PT7913</name></trkpt>
<trkpt lat="53.463167" lon="05.660391"><ele>-1.8</ele><time>2021-02-17T14:04:35Z</time><name>PT7914</name></trkpt>
<trkpt lat="53.463164" lon="05.660404"><ele>-1.8</ele><time>2021-02-17T14:04:36Z</time><name>PT7915</name></trkpt>
<trkpt lat="53.463163" lon="05.660421"><ele>-1.9</ele><time>2021-02-17T14:04:37Z</time><name>PT7916</name></trkpt>
<trkpt lat="53.463163" lon="05.660435"><ele>-1.9</ele><time>2021-02-17T14:04:38Z</time><name>PT7917</name></trkpt>
<trkpt lat="53.463161" lon="05.660453"><ele>-1.9</ele><time>2021-02-17T14:04:39Z</time><name>PT7918</name></trkpt>
<trkpt lat="53.463159" lon="05.660470"><ele>-2</ele><time>2021-02-17T14:04:40Z</time><name>PT7919</name></trkpt>
<trkpt lat="53.463154" lon="05.660486"><ele>-2.2</ele><time>2021-02-17T14:04:41Z</time><name>PT7920</name></trkpt>
<trkpt lat="53.463148" lon="05.660501"><ele>-2.1</ele><time>2021-02-17T14:04:42Z</time><name>PT7921</name></trkpt>
<trkpt lat="53.463146" lon="05.660517"><ele>-2.1</ele><time>2021-02-17T14:04:43Z</time><name>PT7922</name></trkpt>
<trkpt lat="53.463143" lon="05.660535"><ele>-1.9</ele><time>2021-02-17T14:04:44Z</time><name>PT7923</name></trkpt>
<trkpt lat="53.463141" lon="05.660553"><ele>-1.9</ele><time>2021-02-17T14:04:45Z</time><name>PT7924</name></trkpt>
<trkpt lat="53.463137" lon="05.660571"><ele>-1.7</ele><time>2021-02-17T14:04:46Z</time><name>PT7925</name></trkpt>
<trkpt lat="53.463136" lon="05.660589"><ele>-1.7</ele><time>2021-02-17T14:04:47Z</time><name>PT7926</name></trkpt>
<trkpt lat="53.463134" lon="05.660608"><ele>-1.8</ele><time>2021-02-17T14:04:48Z</time><name>PT7927</name></trkpt>
<trkpt lat="53.463133" lon="05.660625"><ele>-1.9</ele><time>2021-02-17T14:04:49Z</time><name>PT7928</name></trkpt>
<trkpt lat="53.463130" lon="05.660639"><ele>-2</ele><time>2021-02-17T14:04:50Z</time><name>PT7929</name></trkpt>
<trkpt lat="53.463126" lon="05.660650"><ele>-1.9</ele><time>2021-02-17T14:04:51Z</time><name>PT7930</name></trkpt>
<trkpt lat="53.463122" lon="05.660665"><ele>-1.9</ele><time>2021-02-17T14:04:52Z</time><name>PT7931</name></trkpt>
<trkpt lat="53.463118" lon="05.660680"><ele>-2.1</ele><time>2021-02-17T14:04:53Z</time><name>PT7932</name></trkpt>
<trkpt lat="53.463115" lon="05.660695"><ele>-2.1</ele><time>2021-02-17T14:04:54Z</time><name>PT7933</name></trkpt>
<trkpt lat="53.463111" lon="05.660709"><ele>-2.4</ele><time>2021-02-17T14:04:55Z</time><name>PT7934</name></trkpt>
<trkpt lat="53.463108" lon="05.660724"><ele>-2.3</ele><time>2021-02-17T14:04:56Z</time><name>PT7935</name></trkpt>
<trkpt lat="53.463105" lon="05.660740"><ele>-2.3</ele><time>2021-02-17T14:04:57Z</time><name>PT7936</name></trkpt>
<trkpt lat="53.463099" lon="05.660754"><ele>-2.4</ele><time>2021-02-17T14:04:58Z</time><name>PT7937</name></trkpt>
<trkpt lat="53.463095" lon="05.660770"><ele>-2.4</ele><time>2021-02-17T14:04:59Z</time><name>PT7938</name></trkpt>
<trkpt lat="53.463090" lon="05.660783"><ele>-2.3</ele><time>2021-02-17T14:05:00Z</time><name>PT7939</name></trkpt>
<trkpt lat="53.463085" lon="05.660798"><ele>-2.3</ele><time>2021-02-17T14:05:01Z</time><name>PT7940</name></trkpt>
<trkpt lat="53.463083" lon="05.660814"><ele>-2.2</ele><time>2021-02-17T14:05:02Z</time><name>PT7941</name></trkpt>
<trkpt lat="53.463081" lon="05.660828"><ele>-2.1</ele><time>2021-02-17T14:05:03Z</time><name>PT7942</name></trkpt>
<trkpt lat="53.463076" lon="05.660842"><ele>-2.2</ele><time>2021-02-17T14:05:04Z</time><name>PT7943</name></trkpt>
<trkpt lat="53.463070" lon="05.660856"><ele>-2.1</ele><time>2021-02-17T14:05:05Z</time><name>PT7944</name></trkpt>
<trkpt lat="53.463066" lon="05.660868"><ele>-2.2</ele><time>2021-02-17T14:05:06Z</time><name>PT7945</name></trkpt>
<trkpt lat="53.463065" lon="05.660878"><ele>-2.2</ele><time>2021-02-17T14:05:07Z</time><name>PT7946</name></trkpt>
<trkpt lat="53.463062" lon="05.660885"><ele>-1.9</ele><time>2021-02-17T14:05:08Z</time><name>PT7947</name></trkpt>
<trkpt lat="53.463060" lon="05.660892"><ele>-1.9</ele><time>2021-02-17T14:05:09Z</time><name>PT7948</name></trkpt>
<trkpt lat="53.463055" lon="05.660898"><ele>-1.9</ele><time>2021-02-17T14:05:10Z</time><name>PT7949</name></trkpt>
<trkpt lat="53.463058" lon="05.660911"><ele>-1.9</ele><time>2021-02-17T14:05:12Z</time><name>PT7950</name></trkpt>
<trkpt lat="53.463054" lon="05.660914"><ele>-1.9</ele><time>2021-02-17T14:05:13Z</time><name>PT7951</name></trkpt>
<trkpt lat="53.463050" lon="05.660912"><ele>-2.1</ele><time>2021-02-17T14:05:14Z</time><name>PT7952</name></trkpt>
<trkpt lat="53.463047" lon="05.660906"><ele>-2.1</ele><time>2021-02-17T14:05:15Z</time><name>PT7953</name></trkpt>
<trkpt lat="53.463044" lon="05.660901"><ele>-2.2</ele><time>2021-02-17T14:05:16Z</time><name>PT7954</name></trkpt>
<trkpt lat="53.463044" lon="05.660899"><ele>-2.2</ele><time>2021-02-17T14:05:17Z</time><name>PT7955</name></trkpt>
<trkpt lat="53.463043" lon="05.660903"><ele>-2.1</ele><time>2021-02-17T14:05:18Z</time><name>PT7956</name></trkpt>
<trkpt lat="53.463042" lon="05.660904"><ele>-2</ele><time>2021-02-17T14:05:19Z</time><name>PT7957</name></trkpt>
<trkpt lat="53.463045" lon="05.660910"><ele>-1.6</ele><time>2021-02-17T14:06:57Z</time><name>PT7958</name></trkpt>
<trkpt lat="53.463044" lon="05.660915"><ele>-1.4</ele><time>2021-02-17T14:06:58Z</time><name>PT7959</name></trkpt>
<trkpt lat="53.463044" lon="05.660914"><ele>-1.4</ele><time>2021-02-17T14:06:59Z</time><name>PT7960</name></trkpt>
<trkpt lat="53.463044" lon="05.660925"><ele>-2.1</ele><time>2021-02-17T14:07:42Z</time><name>PT7961</name></trkpt>
<trkpt lat="53.463042" lon="05.660940"><ele>-2</ele><time>2021-02-17T14:07:43Z</time><name>PT7962</name></trkpt>
<trkpt lat="53.463040" lon="05.660955"><ele>-2.1</ele><time>2021-02-17T14:07:44Z</time><name>PT7963</name></trkpt>
<trkpt lat="53.463040" lon="05.660971"><ele>-2</ele><time>2021-02-17T14:07:45Z</time><name>PT7964</name></trkpt>
<trkpt lat="53.463034" lon="05.660986"><ele>-1.9</ele><time>2021-02-17T14:07:46Z</time><name>PT7965</name></trkpt>
<trkpt lat="53.463030" lon="05.661002"><ele>-1.8</ele><time>2021-02-17T14:07:47Z</time><name>PT7966</name></trkpt>
<trkpt lat="53.463026" lon="05.661019"><ele>-1.9</ele><time>2021-02-17T14:07:48Z</time><name>PT7967</name></trkpt>
<trkpt lat="53.463024" lon="05.661032"><ele>-1.9</ele><time>2021-02-17T14:07:49Z</time><name>PT7968</name></trkpt>
<trkpt lat="53.463020" lon="05.661045"><ele>-2.1</ele><time>2021-02-17T14:07:50Z</time><name>PT7969</name></trkpt>
<trkpt lat="53.463017" lon="05.661058"><ele>-2</ele><time>2021-02-17T14:07:51Z</time><name>PT7970</name></trkpt>
<trkpt lat="53.463015" lon="05.661073"><ele>-1.8</ele><time>2021-02-17T14:07:52Z</time><name>PT7971</name></trkpt>
<trkpt lat="53.463011" lon="05.661088"><ele>-1.7</ele><time>2021-02-17T14:07:53Z</time><name>PT7972</name></trkpt>
<trkpt lat="53.463005" lon="05.661107"><ele>-1.7</ele><time>2021-02-17T14:07:54Z</time><name>PT7973</name></trkpt>
<trkpt lat="53.463000" lon="05.661124"><ele>-1.6</ele><time>2021-02-17T14:07:55Z</time><name>PT7974</name></trkpt>
<trkpt lat="53.462995" lon="05.661135"><ele>-1.7</ele><time>2021-02-17T14:07:56Z</time><name>PT7975</name></trkpt>
<trkpt lat="53.462991" lon="05.661153"><ele>-1.8</ele><time>2021-02-17T14:07:57Z</time><name>PT7976</name></trkpt>
<trkpt lat="53.462990" lon="05.661169"><ele>-1.9</ele><time>2021-02-17T14:07:58Z</time><name>PT7977</name></trkpt>
<trkpt lat="53.462986" lon="05.661185"><ele>-1.9</ele><time>2021-02-17T14:07:59Z</time><name>PT7978</name></trkpt>
<trkpt lat="53.462981" lon="05.661201"><ele>-1.9</ele><time>2021-02-17T14:08:00Z</time><name>PT7979</name></trkpt>
<trkpt lat="53.462977" lon="05.661219"><ele>-1.9</ele><time>2021-02-17T14:08:01Z</time><name>PT7980</name></trkpt>
<trkpt lat="53.462975" lon="05.661236"><ele>-1.9</ele><time>2021-02-17T14:08:02Z</time><name>PT7981</name></trkpt>
<trkpt lat="53.462970" lon="05.661253"><ele>-2</ele><time>2021-02-17T14:08:03Z</time><name>PT7982</name></trkpt>
<trkpt lat="53.462967" lon="05.661270"><ele>-2.1</ele><time>2021-02-17T14:08:04Z</time><name>PT7983</name></trkpt>
<trkpt lat="53.462963" lon="05.661288"><ele>-2</ele><time>2021-02-17T14:08:05Z</time><name>PT7984</name></trkpt>
<trkpt lat="53.462961" lon="05.661303"><ele>-2.1</ele><time>2021-02-17T14:08:06Z</time><name>PT7985</name></trkpt>
<trkpt lat="53.462959" lon="05.661322"><ele>-2</ele><time>2021-02-17T14:08:07Z</time><name>PT7986</name></trkpt>
<trkpt lat="53.462955" lon="05.661343"><ele>-1.9</ele><time>2021-02-17T14:08:08Z</time><name>PT7987</name></trkpt>
<trkpt lat="53.462952" lon="05.661364"><ele>-2.1</ele><time>2021-02-17T14:08:09Z</time><name>PT7988</name></trkpt>
<trkpt lat="53.462948" lon="05.661383"><ele>-1.9</ele><time>2021-02-17T14:08:10Z</time><name>PT7989</name></trkpt>
<trkpt lat="53.462943" lon="05.661400"><ele>-2</ele><time>2021-02-17T14:08:11Z</time><name>PT7990</name></trkpt>
<trkpt lat="53.462939" lon="05.661416"><ele>-2</ele><time>2021-02-17T14:08:12Z</time><name>PT7991</name></trkpt>
<trkpt lat="53.462934" lon="05.661433"><ele>-2.1</ele><time>2021-02-17T14:08:13Z</time><name>PT7992</name></trkpt>
<trkpt lat="53.462936" lon="05.661448"><ele>-2.1</ele><time>2021-02-17T14:08:14Z</time><name>PT7993</name></trkpt>
<trkpt lat="53.462937" lon="05.661463"><ele>-2.1</ele><time>2021-02-17T14:08:15Z</time><name>PT7994</name></trkpt>
<trkpt lat="53.462933" lon="05.661480"><ele>-2.2</ele><time>2021-02-17T14:08:16Z</time><name>PT7995</name></trkpt>
<trkpt lat="53.462930" lon="05.661494"><ele>-2.1</ele><time>2021-02-17T14:08:17Z</time><name>PT7996</name></trkpt>
<trkpt lat="53.462927" lon="05.661511"><ele>-2.1</ele><time>2021-02-17T14:08:18Z</time><name>PT7997</name></trkpt>
<trkpt lat="53.462923" lon="05.661526"><ele>-2.1</ele><time>2021-02-17T14:08:19Z</time><name>PT7998</name></trkpt>
<trkpt lat="53.462919" lon="05.661539"><ele>-2.1</ele><time>2021-02-17T14:08:20Z</time><name>PT7999</name></trkpt>
<trkpt lat="53.462917" lon="05.661554"><ele>-2.1</ele><time>2021-02-17T14:08:21Z</time><name>PT8000</name></trkpt>
<trkpt lat="53.462915" lon="05.661571"><ele>-2.2</ele><time>2021-02-17T14:08:22Z</time><name>PT8001</name></trkpt>
<trkpt lat="53.462909" lon="05.661589"><ele>-2.2</ele><time>2021-02-17T14:08:23Z</time><name>PT8002</name></trkpt>
<trkpt lat="53.462903" lon="05.661606"><ele>-2.1</ele><time>2021-02-17T14:08:24Z</time><name>PT8003</name></trkpt>
<trkpt lat="53.462897" lon="05.661621"><ele>-2</ele><time>2021-02-17T14:08:25Z</time><name>PT8004</name></trkpt>
<trkpt lat="53.462895" lon="05.661633"><ele>-2.1</ele><time>2021-02-17T14:08:26Z</time><name>PT8005</name></trkpt>
<trkpt lat="53.462889" lon="05.661649"><ele>-2.2</ele><time>2021-02-17T14:08:27Z</time><name>PT8006</name></trkpt>
<trkpt lat="53.462888" lon="05.661661"><ele>-2.2</ele><time>2021-02-17T14:08:28Z</time><name>PT8007</name></trkpt>
<trkpt lat="53.462885" lon="05.661674"><ele>-2.3</ele><time>2021-02-17T14:08:29Z</time><name>PT8008</name></trkpt>
<trkpt lat="53.462882" lon="05.661688"><ele>-2.3</ele><time>2021-02-17T14:08:30Z</time><name>PT8009</name></trkpt>
<trkpt lat="53.462879" lon="05.661702"><ele>-2.3</ele><time>2021-02-17T14:08:31Z</time><name>PT8010</name></trkpt>
<trkpt lat="53.462875" lon="05.661716"><ele>-2.1</ele><time>2021-02-17T14:08:32Z</time><name>PT8011</name></trkpt>
<trkpt lat="53.462873" lon="05.661732"><ele>-2.1</ele><time>2021-02-17T14:08:33Z</time><name>PT8012</name></trkpt>
<trkpt lat="53.462870" lon="05.661746"><ele>-2.2</ele><time>2021-02-17T14:08:34Z</time><name>PT8013</name></trkpt>
<trkpt lat="53.462867" lon="05.661758"><ele>-2.1</ele><time>2021-02-17T14:08:35Z</time><name>PT8014</name></trkpt>
<trkpt lat="53.462863" lon="05.661770"><ele>-2.2</ele><time>2021-02-17T14:08:36Z</time><name>PT8015</name></trkpt>
<trkpt lat="53.462862" lon="05.661780"><ele>-2.3</ele><time>2021-02-17T14:08:37Z</time><name>PT8016</name></trkpt>
<trkpt lat="53.462859" lon="05.661794"><ele>-2</ele><time>2021-02-17T14:08:38Z</time><name>PT8017</name></trkpt>
<trkpt lat="53.462856" lon="05.661807"><ele>-1.9</ele><time>2021-02-17T14:08:39Z</time><name>PT8018</name></trkpt>
<trkpt lat="53.462852" lon="05.661817"><ele>-1.8</ele><time>2021-02-17T14:08:40Z</time><name>PT8019</name></trkpt>
<trkpt lat="53.462854" lon="05.661823"><ele>-1.9</ele><time>2021-02-17T14:08:41Z</time><name>PT8020</name></trkpt>
<trkpt lat="53.462851" lon="05.661837"><ele>-1.9</ele><time>2021-02-17T14:08:42Z</time><name>PT8021</name></trkpt>
<trkpt lat="53.462851" lon="05.661853"><ele>-1.7</ele><time>2021-02-17T14:08:43Z</time><name>PT8022</name></trkpt>
<trkpt lat="53.462850" lon="05.661869"><ele>-1.8</ele><time>2021-02-17T14:08:44Z</time><name>PT8023</name></trkpt>
<trkpt lat="53.462846" lon="05.661884"><ele>-1.7</ele><time>2021-02-17T14:08:45Z</time><name>PT8024</name></trkpt>
<trkpt lat="53.462843" lon="05.661901"><ele>-1.7</ele><time>2021-02-17T14:08:46Z</time><name>PT8025</name></trkpt>
<trkpt lat="53.462842" lon="05.661917"><ele>-2</ele><time>2021-02-17T14:08:47Z</time><name>PT8026</name></trkpt>
<trkpt lat="53.462840" lon="05.661932"><ele>-2.2</ele><time>2021-02-17T14:08:48Z</time><name>PT8027</name></trkpt>
<trkpt lat="53.462837" lon="05.661948"><ele>-2.2</ele><time>2021-02-17T14:08:49Z</time><name>PT8028</name></trkpt>
<trkpt lat="53.462833" lon="05.661963"><ele>-2.2</ele><time>2021-02-17T14:08:50Z</time><name>PT8029</name></trkpt>
<trkpt lat="53.462830" lon="05.661980"><ele>-2.2</ele><time>2021-02-17T14:08:51Z</time><name>PT8030</name></trkpt>
<trkpt lat="53.462825" lon="05.661997"><ele>-1.9</ele><time>2021-02-17T14:08:52Z</time><name>PT8031</name></trkpt>
<trkpt lat="53.462825" lon="05.662013"><ele>-1.7</ele><time>2021-02-17T14:08:53Z</time><name>PT8032</name></trkpt>
<trkpt lat="53.462822" lon="05.662029"><ele>-1.6</ele><time>2021-02-17T14:08:54Z</time><name>PT8033</name></trkpt>
<trkpt lat="53.462820" lon="05.662047"><ele>-1.5</ele><time>2021-02-17T14:08:55Z</time><name>PT8034</name></trkpt>
<trkpt lat="53.462820" lon="05.662062"><ele>-1.6</ele><time>2021-02-17T14:08:56Z</time><name>PT8035</name></trkpt>
<trkpt lat="53.462818" lon="05.662078"><ele>-1.6</ele><time>2021-02-17T14:08:57Z</time><name>PT8036</name></trkpt>
<trkpt lat="53.462815" lon="05.662094"><ele>-1.8</ele><time>2021-02-17T14:08:58Z</time><name>PT8037</name></trkpt>
<trkpt lat="53.462810" lon="05.662107"><ele>-1.7</ele><time>2021-02-17T14:08:59Z</time><name>PT8038</name></trkpt>
<trkpt lat="53.462808" lon="05.662118"><ele>-1.9</ele><time>2021-02-17T14:09:00Z</time><name>PT8039</name></trkpt>
<trkpt lat="53.462802" lon="05.662133"><ele>-1.8</ele><time>2021-02-17T14:09:01Z</time><name>PT8040</name></trkpt>
<trkpt lat="53.462796" lon="05.662148"><ele>-1.8</ele><time>2021-02-17T14:09:02Z</time><name>PT8041</name></trkpt>
<trkpt lat="53.462792" lon="05.662163"><ele>-1.8</ele><time>2021-02-17T14:09:03Z</time><name>PT8042</name></trkpt>
<trkpt lat="53.462789" lon="05.662181"><ele>-1.9</ele><time>2021-02-17T14:09:04Z</time><name>PT8043</name></trkpt>
<trkpt lat="53.462787" lon="05.662197"><ele>-2</ele><time>2021-02-17T14:09:05Z</time><name>PT8044</name></trkpt>
<trkpt lat="53.462785" lon="05.662214"><ele>-2</ele><time>2021-02-17T14:09:06Z</time><name>PT8045</name></trkpt>
<trkpt lat="53.462782" lon="05.662229"><ele>-2</ele><time>2021-02-17T14:09:07Z</time><name>PT8046</name></trkpt>
<trkpt lat="53.462776" lon="05.662244"><ele>-1.9</ele><time>2021-02-17T14:09:08Z</time><name>PT8047</name></trkpt>
<trkpt lat="53.462768" lon="05.662262"><ele>-1.8</ele><time>2021-02-17T14:09:09Z</time><name>PT8048</name></trkpt>
<trkpt lat="53.462768" lon="05.662273"><ele>-1.8</ele><time>2021-02-17T14:09:10Z</time><name>PT8049</name></trkpt>
<trkpt lat="53.462765" lon="05.662287"><ele>-1.9</ele><time>2021-02-17T14:09:11Z</time><name>PT8050</name></trkpt>
<trkpt lat="53.462763" lon="05.662300"><ele>-2</ele><time>2021-02-17T14:09:12Z</time><name>PT8051</name></trkpt>
<trkpt lat="53.462760" lon="05.662314"><ele>-2.1</ele><time>2021-02-17T14:09:13Z</time><name>PT8052</name></trkpt>
<trkpt lat="53.462757" lon="05.662328"><ele>-1.9</ele><time>2021-02-17T14:09:14Z</time><name>PT8053</name></trkpt>
<trkpt lat="53.462752" lon="05.662342"><ele>-1.8</ele><time>2021-02-17T14:09:15Z</time><name>PT8054</name></trkpt>
<trkpt lat="53.462750" lon="05.662356"><ele>-1.8</ele><time>2021-02-17T14:09:16Z</time><name>PT8055</name></trkpt>
<trkpt lat="53.462748" lon="05.662368"><ele>-1.7</ele><time>2021-02-17T14:09:17Z</time><name>PT8056</name></trkpt>
<trkpt lat="53.462751" lon="05.662376"><ele>-1.8</ele><time>2021-02-17T14:09:18Z</time><name>PT8057</name></trkpt>
<trkpt lat="53.462751" lon="05.662379"><ele>-1.8</ele><time>2021-02-17T14:09:19Z</time><name>PT8058</name></trkpt>
<trkpt lat="53.462751" lon="05.662380"><ele>-1.9</ele><time>2021-02-17T14:09:20Z</time><name>PT8059</name></trkpt>
<trkpt lat="53.462751" lon="05.662382"><ele>-1.9</ele><time>2021-02-17T14:09:21Z</time><name>PT8060</name></trkpt>
<trkpt lat="53.462750" lon="05.662392"><ele>-2</ele><time>2021-02-17T14:09:31Z</time><name>PT8061</name></trkpt>
<trkpt lat="53.462746" lon="05.662413"><ele>-2</ele><time>2021-02-17T14:09:32Z</time><name>PT8062</name></trkpt>
<trkpt lat="53.462745" lon="05.662433"><ele>-2.1</ele><time>2021-02-17T14:09:33Z</time><name>PT8063</name></trkpt>
<trkpt lat="53.462744" lon="05.662452"><ele>-2.1</ele><time>2021-02-17T14:09:34Z</time><name>PT8064</name></trkpt>
<trkpt lat="53.462742" lon="05.662471"><ele>-1.9</ele><time>2021-02-17T14:09:35Z</time><name>PT8065</name></trkpt>
<trkpt lat="53.462738" lon="05.662489"><ele>-1.9</ele><time>2021-02-17T14:09:36Z</time><name>PT8066</name></trkpt>
<trkpt lat="53.462735" lon="05.662508"><ele>-1.9</ele><time>2021-02-17T14:09:37Z</time><name>PT8067</name></trkpt>
<trkpt lat="53.462732" lon="05.662524"><ele>-1.9</ele><time>2021-02-17T14:09:38Z</time><name>PT8068</name></trkpt>
<trkpt lat="53.462729" lon="05.662538"><ele>-2</ele><time>2021-02-17T14:09:39Z</time><name>PT8069</name></trkpt>
<trkpt lat="53.462725" lon="05.662554"><ele>-2.1</ele><time>2021-02-17T14:09:40Z</time><name>PT8070</name></trkpt>
<trkpt lat="53.462722" lon="05.662570"><ele>-2.3</ele><time>2021-02-17T14:09:41Z</time><name>PT8071</name></trkpt>
<trkpt lat="53.462719" lon="05.662588"><ele>-2.4</ele><time>2021-02-17T14:09:42Z</time><name>PT8072</name></trkpt>
<trkpt lat="53.462716" lon="05.662602"><ele>-2.5</ele><time>2021-02-17T14:09:43Z</time><name>PT8073</name></trkpt>
<trkpt lat="53.462713" lon="05.662618"><ele>-2.7</ele><time>2021-02-17T14:09:44Z</time><name>PT8074</name></trkpt>
<trkpt lat="53.462709" lon="05.662636"><ele>-2.8</ele><time>2021-02-17T14:09:45Z</time><name>PT8075</name></trkpt>
<trkpt lat="53.462706" lon="05.662650"><ele>-2.7</ele><time>2021-02-17T14:09:46Z</time><name>PT8076</name></trkpt>
<trkpt lat="53.462703" lon="05.662667"><ele>-2.5</ele><time>2021-02-17T14:09:47Z</time><name>PT8077</name></trkpt>
<trkpt lat="53.462701" lon="05.662682"><ele>-2.4</ele><time>2021-02-17T14:09:48Z</time><name>PT8078</name></trkpt>
<trkpt lat="53.462697" lon="05.662697"><ele>-2</ele><time>2021-02-17T14:09:49Z</time><name>PT8079</name></trkpt>
<trkpt lat="53.462693" lon="05.662713"><ele>-1.9</ele><time>2021-02-17T14:09:50Z</time><name>PT8080</name></trkpt>
<trkpt lat="53.462688" lon="05.662733"><ele>-1.9</ele><time>2021-02-17T14:09:51Z</time><name>PT8081</name></trkpt>
<trkpt lat="53.462685" lon="05.662751"><ele>-1.8</ele><time>2021-02-17T14:09:52Z</time><name>PT8082</name></trkpt>
<trkpt lat="53.462682" lon="05.662769"><ele>-1.9</ele><time>2021-02-17T14:09:53Z</time><name>PT8083</name></trkpt>
<trkpt lat="53.462681" lon="05.662790"><ele>-1.9</ele><time>2021-02-17T14:09:54Z</time><name>PT8084</name></trkpt>
<trkpt lat="53.462681" lon="05.662807"><ele>-1.7</ele><time>2021-02-17T14:09:55Z</time><name>PT8085</name></trkpt>
<trkpt lat="53.462680" lon="05.662824"><ele>-1.8</ele><time>2021-02-17T14:09:56Z</time><name>PT8086</name></trkpt>
<trkpt lat="53.462677" lon="05.662843"><ele>-1.8</ele><time>2021-02-17T14:09:57Z</time><name>PT8087</name></trkpt>
<trkpt lat="53.462675" lon="05.662860"><ele>-1.8</ele><time>2021-02-17T14:09:58Z</time><name>PT8088</name></trkpt>
<trkpt lat="53.462674" lon="05.662876"><ele>-1.9</ele><time>2021-02-17T14:09:59Z</time><name>PT8089</name></trkpt>
<trkpt lat="53.462671" lon="05.662891"><ele>-1.9</ele><time>2021-02-17T14:10:00Z</time><name>PT8090</name></trkpt>
<trkpt lat="53.462667" lon="05.662907"><ele>-1.9</ele><time>2021-02-17T14:10:01Z</time><name>PT8091</name></trkpt>
<trkpt lat="53.462661" lon="05.662925"><ele>-1.9</ele><time>2021-02-17T14:10:02Z</time><name>PT8092</name></trkpt>
<trkpt lat="53.462655" lon="05.662940"><ele>-1.8</ele><time>2021-02-17T14:10:03Z</time><name>PT8093</name></trkpt>
<trkpt lat="53.462649" lon="05.662955"><ele>-1.8</ele><time>2021-02-17T14:10:04Z</time><name>PT8094</name></trkpt>
<trkpt lat="53.462646" lon="05.662974"><ele>-1.9</ele><time>2021-02-17T14:10:05Z</time><name>PT8095</name></trkpt>
<trkpt lat="53.462639" lon="05.662990"><ele>-1.9</ele><time>2021-02-17T14:10:06Z</time><name>PT8096</name></trkpt>
<trkpt lat="53.462634" lon="05.663000"><ele>-2</ele><time>2021-02-17T14:10:07Z</time><name>PT8097</name></trkpt>
<trkpt lat="53.462634" lon="05.663031"><ele>-2</ele><time>2021-02-17T14:10:08Z</time><name>PT8098</name></trkpt>
<trkpt lat="53.462630" lon="05.663050"><ele>-2</ele><time>2021-02-17T14:10:09Z</time><name>PT8099</name></trkpt>
<trkpt lat="53.462627" lon="05.663066"><ele>-2.4</ele><time>2021-02-17T14:10:10Z</time><name>PT8100</name></trkpt>
<trkpt lat="53.462623" lon="05.663089"><ele>-2.3</ele><time>2021-02-17T14:10:11Z</time><name>PT8101</name></trkpt>
<trkpt lat="53.462622" lon="05.663103"><ele>-2.2</ele><time>2021-02-17T14:10:12Z</time><name>PT8102</name></trkpt>
<trkpt lat="53.462621" lon="05.663120"><ele>-2</ele><time>2021-02-17T14:10:13Z</time><name>PT8103</name></trkpt>
<trkpt lat="53.462618" lon="05.663136"><ele>-1.9</ele><time>2021-02-17T14:10:14Z</time><name>PT8104</name></trkpt>
<trkpt lat="53.462614" lon="05.663151"><ele>-1.8</ele><time>2021-02-17T14:10:15Z</time><name>PT8105</name></trkpt>
<trkpt lat="53.462609" lon="05.663167"><ele>-2.5</ele><time>2021-02-17T14:10:16Z</time><name>PT8106</name></trkpt>
<trkpt lat="53.462604" lon="05.663182"><ele>-2.8</ele><time>2021-02-17T14:10:17Z</time><name>PT8107</name></trkpt>
<trkpt lat="53.462600" lon="05.663198"><ele>-3.6</ele><time>2021-02-17T14:10:18Z</time><name>PT8108</name></trkpt>
<trkpt lat="53.462597" lon="05.663215"><ele>-4.1</ele><time>2021-02-17T14:10:19Z</time><name>PT8109</name></trkpt>
<trkpt lat="53.462593" lon="05.663231"><ele>-3.4</ele><time>2021-02-17T14:10:20Z</time><name>PT8110</name></trkpt>
<trkpt lat="53.462590" lon="05.663245"><ele>-3.3</ele><time>2021-02-17T14:10:21Z</time><name>PT8111</name></trkpt>
<trkpt lat="53.462587" lon="05.663261"><ele>-2.7</ele><time>2021-02-17T14:10:22Z</time><name>PT8112</name></trkpt>
<trkpt lat="53.462584" lon="05.663276"><ele>-1.4</ele><time>2021-02-17T14:10:23Z</time><name>PT8113</name></trkpt>
<trkpt lat="53.462581" lon="05.663293"><ele>0.8</ele><time>2021-02-17T14:10:24Z</time><name>PT8114</name></trkpt>
<trkpt lat="53.462576" lon="05.663309"><ele>0.3</ele><time>2021-02-17T14:10:25Z</time><name>PT8115</name></trkpt>
<trkpt lat="53.462571" lon="05.663325"><ele>0.1</ele><time>2021-02-17T14:10:26Z</time><name>PT8116</name></trkpt>
<trkpt lat="53.462567" lon="05.663341"><ele>0.1</ele><time>2021-02-17T14:10:27Z</time><name>PT8117</name></trkpt>
<trkpt lat="53.462564" lon="05.663358"><ele>0.3</ele><time>2021-02-17T14:10:28Z</time><name>PT8118</name></trkpt>
<trkpt lat="53.462559" lon="05.663375"><ele>0.6</ele><time>2021-02-17T14:10:29Z</time><name>PT8119</name></trkpt>
<trkpt lat="53.462554" lon="05.663391"><ele>0.9</ele><time>2021-02-17T14:10:30Z</time><name>PT8120</name></trkpt>
<trkpt lat="53.462550" lon="05.663405"><ele>-1.3</ele><time>2021-02-17T14:10:31Z</time><name>PT8121</name></trkpt>
<trkpt lat="53.462547" lon="05.663420"><ele>-1.5</ele><time>2021-02-17T14:10:32Z</time><name>PT8122</name></trkpt>
<trkpt lat="53.462543" lon="05.663436"><ele>-1.6</ele><time>2021-02-17T14:10:33Z</time><name>PT8123</name></trkpt>
<trkpt lat="53.462537" lon="05.663452"><ele>-1.7</ele><time>2021-02-17T14:10:34Z</time><name>PT8124</name></trkpt>
<trkpt lat="53.462531" lon="05.663466"><ele>-1.9</ele><time>2021-02-17T14:10:35Z</time><name>PT8125</name></trkpt>
<trkpt lat="53.462528" lon="05.663481"><ele>-2</ele><time>2021-02-17T14:10:36Z</time><name>PT8126</name></trkpt>
<trkpt lat="53.462525" lon="05.663494"><ele>-2.1</ele><time>2021-02-17T14:10:37Z</time><name>PT8127</name></trkpt>
<trkpt lat="53.462522" lon="05.663508"><ele>-2.3</ele><time>2021-02-17T14:10:38Z</time><name>PT8128</name></trkpt>
<trkpt lat="53.462521" lon="05.663521"><ele>-2.4</ele><time>2021-02-17T14:10:39Z</time><name>PT8129</name></trkpt>
<trkpt lat="53.462519" lon="05.663534"><ele>-2.5</ele><time>2021-02-17T14:10:40Z</time><name>PT8130</name></trkpt>
<trkpt lat="53.462516" lon="05.663548"><ele>-2.4</ele><time>2021-02-17T14:10:41Z</time><name>PT8131</name></trkpt>
<trkpt lat="53.462512" lon="05.663561"><ele>-2.3</ele><time>2021-02-17T14:10:42Z</time><name>PT8132</name></trkpt>
<trkpt lat="53.462507" lon="05.663577"><ele>-2.3</ele><time>2021-02-17T14:10:43Z</time><name>PT8133</name></trkpt>
<trkpt lat="53.462505" lon="05.663592"><ele>-1.9</ele><time>2021-02-17T14:10:44Z</time><name>PT8134</name></trkpt>
<trkpt lat="53.462503" lon="05.663608"><ele>-1.9</ele><time>2021-02-17T14:10:45Z</time><name>PT8135</name></trkpt>
<trkpt lat="53.462501" lon="05.663625"><ele>-1.9</ele><time>2021-02-17T14:10:46Z</time><name>PT8136</name></trkpt>
<trkpt lat="53.462497" lon="05.663641"><ele>-2</ele><time>2021-02-17T14:10:47Z</time><name>PT8137</name></trkpt>
<trkpt lat="53.462495" lon="05.663658"><ele>-2.1</ele><time>2021-02-17T14:10:48Z</time><name>PT8138</name></trkpt>
<trkpt lat="53.462492" lon="05.663675"><ele>-2.3</ele><time>2021-02-17T14:10:49Z</time><name>PT8139</name></trkpt>
<trkpt lat="53.462490" lon="05.663692"><ele>-2.2</ele><time>2021-02-17T14:10:50Z</time><name>PT8140</name></trkpt>
<trkpt lat="53.462488" lon="05.663707"><ele>-2.1</ele><time>2021-02-17T14:10:51Z</time><name>PT8141</name></trkpt>
<trkpt lat="53.462486" lon="05.663721"><ele>-2.2</ele><time>2021-02-17T14:10:52Z</time><name>PT8142</name></trkpt>
<trkpt lat="53.462480" lon="05.663741"><ele>-2.1</ele><time>2021-02-17T14:10:53Z</time><name>PT8143</name></trkpt>
<trkpt lat="53.462478" lon="05.663759"><ele>-2.2</ele><time>2021-02-17T14:10:54Z</time><name>PT8144</name></trkpt>
<trkpt lat="53.462474" lon="05.663779"><ele>-2.4</ele><time>2021-02-17T14:10:55Z</time><name>PT8145</name></trkpt>
<trkpt lat="53.462472" lon="05.663799"><ele>-2.3</ele><time>2021-02-17T14:10:56Z</time><name>PT8146</name></trkpt>
<trkpt lat="53.462469" lon="05.663819"><ele>-2.2</ele><time>2021-02-17T14:10:57Z</time><name>PT8147</name></trkpt>
<trkpt lat="53.462469" lon="05.663832"><ele>-2.4</ele><time>2021-02-17T14:10:58Z</time><name>PT8148</name></trkpt>
<trkpt lat="53.462467" lon="05.663848"><ele>-2.3</ele><time>2021-02-17T14:10:59Z</time><name>PT8149</name></trkpt>
<trkpt lat="53.462465" lon="05.663864"><ele>-2</ele><time>2021-02-17T14:11:00Z</time><name>PT8150</name></trkpt>
<trkpt lat="53.462463" lon="05.663881"><ele>-2.1</ele><time>2021-02-17T14:11:01Z</time><name>PT8151</name></trkpt>
<trkpt lat="53.462463" lon="05.663899"><ele>-2</ele><time>2021-02-17T14:11:02Z</time><name>PT8152</name></trkpt>
<trkpt lat="53.462461" lon="05.663919"><ele>-1.9</ele><time>2021-02-17T14:11:03Z</time><name>PT8153</name></trkpt>
<trkpt lat="53.462460" lon="05.663935"><ele>-2</ele><time>2021-02-17T14:11:04Z</time><name>PT8154</name></trkpt>
<trkpt lat="53.462456" lon="05.663952"><ele>-2.1</ele><time>2021-02-17T14:11:05Z</time><name>PT8155</name></trkpt>
<trkpt lat="53.462454" lon="05.663966"><ele>-2</ele><time>2021-02-17T14:11:06Z</time><name>PT8156</name></trkpt>
<trkpt lat="53.462449" lon="05.663982"><ele>-2.2</ele><time>2021-02-17T14:11:07Z</time><name>PT8157</name></trkpt>
<trkpt lat="53.462447" lon="05.663998"><ele>-2</ele><time>2021-02-17T14:11:08Z</time><name>PT8158</name></trkpt>
<trkpt lat="53.462444" lon="05.664014"><ele>-2</ele><time>2021-02-17T14:11:09Z</time><name>PT8159</name></trkpt>
<trkpt lat="53.462439" lon="05.664032"><ele>-2.2</ele><time>2021-02-17T14:11:10Z</time><name>PT8160</name></trkpt>
<trkpt lat="53.462435" lon="05.664049"><ele>-2.4</ele><time>2021-02-17T14:11:11Z</time><name>PT8161</name></trkpt>
<trkpt lat="53.462431" lon="05.664066"><ele>-2.3</ele><time>2021-02-17T14:11:12Z</time><name>PT8162</name></trkpt>
<trkpt lat="53.462428" lon="05.664084"><ele>-2.4</ele><time>2021-02-17T14:11:13Z</time><name>PT8163</name></trkpt>
<trkpt lat="53.462427" lon="05.664102"><ele>-2.2</ele><time>2021-02-17T14:11:14Z</time><name>PT8164</name></trkpt>
<trkpt lat="53.462424" lon="05.664119"><ele>-2.1</ele><time>2021-02-17T14:11:15Z</time><name>PT8165</name></trkpt>
<trkpt lat="53.462422" lon="05.664135"><ele>-2.2</ele><time>2021-02-17T14:11:16Z</time><name>PT8166</name></trkpt>
<trkpt lat="53.462420" lon="05.664151"><ele>-2.2</ele><time>2021-02-17T14:11:17Z</time><name>PT8167</name></trkpt>
<trkpt lat="53.462417" lon="05.664168"><ele>-2.3</ele><time>2021-02-17T14:11:18Z</time><name>PT8168</name></trkpt>
<trkpt lat="53.462416" lon="05.664184"><ele>-2.2</ele><time>2021-02-17T14:11:19Z</time><name>PT8169</name></trkpt>
<trkpt lat="53.462413" lon="05.664202"><ele>-1.9</ele><time>2021-02-17T14:11:20Z</time><name>PT8170</name></trkpt>
<trkpt lat="53.462412" lon="05.664221"><ele>-1.9</ele><time>2021-02-17T14:11:21Z</time><name>PT8171</name></trkpt>
<trkpt lat="53.462410" lon="05.664240"><ele>-1.8</ele><time>2021-02-17T14:11:22Z</time><name>PT8172</name></trkpt>
<trkpt lat="53.462408" lon="05.664259"><ele>-1.9</ele><time>2021-02-17T14:11:23Z</time><name>PT8173</name></trkpt>
<trkpt lat="53.462407" lon="05.664277"><ele>-2</ele><time>2021-02-17T14:11:24Z</time><name>PT8174</name></trkpt>
<trkpt lat="53.462406" lon="05.664294"><ele>-2.1</ele><time>2021-02-17T14:11:25Z</time><name>PT8175</name></trkpt>
<trkpt lat="53.462403" lon="05.664309"><ele>-2.3</ele><time>2021-02-17T14:11:26Z</time><name>PT8176</name></trkpt>
<trkpt lat="53.462400" lon="05.664327"><ele>-2.4</ele><time>2021-02-17T14:11:27Z</time><name>PT8177</name></trkpt>
<trkpt lat="53.462396" lon="05.664346"><ele>-2.4</ele><time>2021-02-17T14:11:28Z</time><name>PT8178</name></trkpt>
<trkpt lat="53.462392" lon="05.664366"><ele>-2.4</ele><time>2021-02-17T14:11:29Z</time><name>PT8179</name></trkpt>
<trkpt lat="53.462388" lon="05.664386"><ele>-2.3</ele><time>2021-02-17T14:11:30Z</time><name>PT8180</name></trkpt>
<trkpt lat="53.462384" lon="05.664406"><ele>-2.3</ele><time>2021-02-17T14:11:31Z</time><name>PT8181</name></trkpt>
<trkpt lat="53.462379" lon="05.664426"><ele>-2.1</ele><time>2021-02-17T14:11:32Z</time><name>PT8182</name></trkpt>
<trkpt lat="53.462376" lon="05.664447"><ele>-2</ele><time>2021-02-17T14:11:33Z</time><name>PT8183</name></trkpt>
<trkpt lat="53.462373" lon="05.664469"><ele>-1.9</ele><time>2021-02-17T14:11:34Z</time><name>PT8184</name></trkpt>
<trkpt lat="53.462370" lon="05.664489"><ele>-1.9</ele><time>2021-02-17T14:11:35Z</time><name>PT8185</name></trkpt>
<trkpt lat="53.462367" lon="05.664509"><ele>-2.1</ele><time>2021-02-17T14:11:36Z</time><name>PT8186</name></trkpt>
<trkpt lat="53.462364" lon="05.664528"><ele>-2.3</ele><time>2021-02-17T14:11:37Z</time><name>PT8187</name></trkpt>
<trkpt lat="53.462362" lon="05.664549"><ele>-2.1</ele><time>2021-02-17T14:11:38Z</time><name>PT8188</name></trkpt>
<trkpt lat="53.462360" lon="05.664568"><ele>-2.1</ele><time>2021-02-17T14:11:39Z</time><name>PT8189</name></trkpt>
<trkpt lat="53.462357" lon="05.664585"><ele>-1.9</ele><time>2021-02-17T14:11:40Z</time><name>PT8190</name></trkpt>
<trkpt lat="53.462354" lon="05.664603"><ele>-1.9</ele><time>2021-02-17T14:11:41Z</time><name>PT8191</name></trkpt>
<trkpt lat="53.462351" lon="05.664623"><ele>-1.8</ele><time>2021-02-17T14:11:42Z</time><name>PT8192</name></trkpt>
<trkpt lat="53.462348" lon="05.664642"><ele>-2</ele><time>2021-02-17T14:11:43Z</time><name>PT8193</name></trkpt>
<trkpt lat="53.462344" lon="05.664662"><ele>-2.1</ele><time>2021-02-17T14:11:44Z</time><name>PT8194</name></trkpt>
<trkpt lat="53.462343" lon="05.664682"><ele>-2.2</ele><time>2021-02-17T14:11:45Z</time><name>PT8195</name></trkpt>
<trkpt lat="53.462340" lon="05.664702"><ele>-2.4</ele><time>2021-02-17T14:11:46Z</time><name>PT8196</name></trkpt>
<trkpt lat="53.462336" lon="05.664722"><ele>-2.3</ele><time>2021-02-17T14:11:47Z</time><name>PT8197</name></trkpt>
<trkpt lat="53.462333" lon="05.664741"><ele>-2.2</ele><time>2021-02-17T14:11:48Z</time><name>PT8198</name></trkpt>
<trkpt lat="53.462330" lon="05.664760"><ele>-2</ele><time>2021-02-17T14:11:49Z</time><name>PT8199</name></trkpt>
<trkpt lat="53.462327" lon="05.664780"><ele>-2</ele><time>2021-02-17T14:11:50Z</time><name>PT8200</name></trkpt>
<trkpt lat="53.462325" lon="05.664799"><ele>-2</ele><time>2021-02-17T14:11:51Z</time><name>PT8201</name></trkpt>
<trkpt lat="53.462323" lon="05.664815"><ele>-2.1</ele><time>2021-02-17T14:11:52Z</time><name>PT8202</name></trkpt>
<trkpt lat="53.462321" lon="05.664834"><ele>-2.2</ele><time>2021-02-17T14:11:53Z</time><name>PT8203</name></trkpt>
<trkpt lat="53.462319" lon="05.664854"><ele>-2.4</ele><time>2021-02-17T14:11:54Z</time><name>PT8204</name></trkpt>
<trkpt lat="53.462316" lon="05.664874"><ele>-2.4</ele><time>2021-02-17T14:11:55Z</time><name>PT8205</name></trkpt>
<trkpt lat="53.462313" lon="05.664896"><ele>-2.4</ele><time>2021-02-17T14:11:56Z</time><name>PT8206</name></trkpt>
<trkpt lat="53.462310" lon="05.664916"><ele>-2.4</ele><time>2021-02-17T14:11:57Z</time><name>PT8207</name></trkpt>
<trkpt lat="53.462307" lon="05.664936"><ele>-2.4</ele><time>2021-02-17T14:11:58Z</time><name>PT8208</name></trkpt>
<trkpt lat="53.462305" lon="05.664956"><ele>-2.3</ele><time>2021-02-17T14:11:59Z</time><name>PT8209</name></trkpt>
<trkpt lat="53.462304" lon="05.664975"><ele>-2.3</ele><time>2021-02-17T14:12:00Z</time><name>PT8210</name></trkpt>
<trkpt lat="53.462302" lon="05.664994"><ele>-2.2</ele><time>2021-02-17T14:12:01Z</time><name>PT8211</name></trkpt>
<trkpt lat="53.462298" lon="05.665014"><ele>-2.2</ele><time>2021-02-17T14:12:02Z</time><name>PT8212</name></trkpt>
<trkpt lat="53.462295" lon="05.665032"><ele>-2</ele><time>2021-02-17T14:12:03Z</time><name>PT8213</name></trkpt>
<trkpt lat="53.462291" lon="05.665052"><ele>-2</ele><time>2021-02-17T14:12:04Z</time><name>PT8214</name></trkpt>
<trkpt lat="53.462285" lon="05.665069"><ele>-2</ele><time>2021-02-17T14:12:05Z</time><name>PT8215</name></trkpt>
<trkpt lat="53.462282" lon="05.665089"><ele>-1.9</ele><time>2021-02-17T14:12:06Z</time><name>PT8216</name></trkpt>
<trkpt lat="53.462280" lon="05.665108"><ele>-1.6</ele><time>2021-02-17T14:12:07Z</time><name>PT8217</name></trkpt>
<trkpt lat="53.462277" lon="05.665129"><ele>-1.4</ele><time>2021-02-17T14:12:08Z</time><name>PT8218</name></trkpt>
<trkpt lat="53.462274" lon="05.665149"><ele>-1.4</ele><time>2021-02-17T14:12:09Z</time><name>PT8219</name></trkpt>
<trkpt lat="53.462269" lon="05.665166"><ele>-1.6</ele><time>2021-02-17T14:12:10Z</time><name>PT8220</name></trkpt>
<trkpt lat="53.462265" lon="05.665183"><ele>-1.8</ele><time>2021-02-17T14:12:11Z</time><name>PT8221</name></trkpt>
<trkpt lat="53.462263" lon="05.665199"><ele>-1.9</ele><time>2021-02-17T14:12:12Z</time><name>PT8222</name></trkpt>
<trkpt lat="53.462258" lon="05.665217"><ele>-2</ele><time>2021-02-17T14:12:13Z</time><name>PT8223</name></trkpt>
<trkpt lat="53.462256" lon="05.665235"><ele>-2</ele><time>2021-02-17T14:12:14Z</time><name>PT8224</name></trkpt>
<trkpt lat="53.462252" lon="05.665254"><ele>-2</ele><time>2021-02-17T14:12:15Z</time><name>PT8225</name></trkpt>
<trkpt lat="53.462246" lon="05.665274"><ele>-1.9</ele><time>2021-02-17T14:12:16Z</time><name>PT8226</name></trkpt>
<trkpt lat="53.462240" lon="05.665293"><ele>-1.9</ele><time>2021-02-17T14:12:17Z</time><name>PT8227</name></trkpt>
<trkpt lat="53.462235" lon="05.665311"><ele>-1.9</ele><time>2021-02-17T14:12:18Z</time><name>PT8228</name></trkpt>
<trkpt lat="53.462229" lon="05.665330"><ele>-1.9</ele><time>2021-02-17T14:12:19Z</time><name>PT8229</name></trkpt>
<trkpt lat="53.462226" lon="05.665349"><ele>-1.9</ele><time>2021-02-17T14:12:20Z</time><name>PT8230</name></trkpt>
<trkpt lat="53.462224" lon="05.665368"><ele>-1.8</ele><time>2021-02-17T14:12:21Z</time><name>PT8231</name></trkpt>
<trkpt lat="53.462220" lon="05.665389"><ele>-1.8</ele><time>2021-02-17T14:12:22Z</time><name>PT8232</name></trkpt>
<trkpt lat="53.462216" lon="05.665408"><ele>-1.7</ele><time>2021-02-17T14:12:23Z</time><name>PT8233</name></trkpt>
<trkpt lat="53.462212" lon="05.665427"><ele>-1.8</ele><time>2021-02-17T14:12:24Z</time><name>PT8234</name></trkpt>
<trkpt lat="53.462208" lon="05.665448"><ele>-1.8</ele><time>2021-02-17T14:12:25Z</time><name>PT8235</name></trkpt>
<trkpt lat="53.462206" lon="05.665467"><ele>-1.9</ele><time>2021-02-17T14:12:26Z</time><name>PT8236</name></trkpt>
<trkpt lat="53.462203" lon="05.665488"><ele>-1.8</ele><time>2021-02-17T14:12:27Z</time><name>PT8237</name></trkpt>
<trkpt lat="53.462200" lon="05.665508"><ele>-1.9</ele><time>2021-02-17T14:12:28Z</time><name>PT8238</name></trkpt>
<trkpt lat="53.462197" lon="05.665527"><ele>-1.9</ele><time>2021-02-17T14:12:29Z</time><name>PT8239</name></trkpt>
<trkpt lat="53.462194" lon="05.665548"><ele>-1.9</ele><time>2021-02-17T14:12:30Z</time><name>PT8240</name></trkpt>
<trkpt lat="53.462192" lon="05.665568"><ele>-1.9</ele><time>2021-02-17T14:12:31Z</time><name>PT8241</name></trkpt>
<trkpt lat="53.462190" lon="05.665587"><ele>-2</ele><time>2021-02-17T14:12:32Z</time><name>PT8242</name></trkpt>
<trkpt lat="53.462190" lon="05.665597"><ele>-2.1</ele><time>2021-02-17T14:12:33Z</time><name>PT8243</name></trkpt>
<trkpt lat="53.462189" lon="05.665612"><ele>-2</ele><time>2021-02-17T14:12:34Z</time><name>PT8244</name></trkpt>
<trkpt lat="53.462187" lon="05.665629"><ele>-2.2</ele><time>2021-02-17T14:12:35Z</time><name>PT8245</name></trkpt>
<trkpt lat="53.462184" lon="05.665646"><ele>-2.1</ele><time>2021-02-17T14:12:36Z</time><name>PT8246</name></trkpt>
<trkpt lat="53.462180" lon="05.665664"><ele>-1.9</ele><time>2021-02-17T14:12:37Z</time><name>PT8247</name></trkpt>
<trkpt lat="53.462173" lon="05.665682"><ele>-2</ele><time>2021-02-17T14:12:38Z</time><name>PT8248</name></trkpt>
<trkpt lat="53.462169" lon="05.665700"><ele>-2.1</ele><time>2021-02-17T14:12:39Z</time><name>PT8249</name></trkpt>
<trkpt lat="53.462168" lon="05.665721"><ele>-2.1</ele><time>2021-02-17T14:12:40Z</time><name>PT8250</name></trkpt>
<trkpt lat="53.462164" lon="05.665739"><ele>-2.3</ele><time>2021-02-17T14:12:41Z</time><name>PT8251</name></trkpt>
<trkpt lat="53.462161" lon="05.665757"><ele>-2.4</ele><time>2021-02-17T14:12:42Z</time><name>PT8252</name></trkpt>
<trkpt lat="53.462158" lon="05.665775"><ele>-2.2</ele><time>2021-02-17T14:12:43Z</time><name>PT8253</name></trkpt>
<trkpt lat="53.462153" lon="05.665793"><ele>-2.1</ele><time>2021-02-17T14:12:44Z</time><name>PT8254</name></trkpt>
<trkpt lat="53.462145" lon="05.665814"><ele>-2.2</ele><time>2021-02-17T14:12:45Z</time><name>PT8255</name></trkpt>
<trkpt lat="53.462143" lon="05.665833"><ele>-2.3</ele><time>2021-02-17T14:12:46Z</time><name>PT8256</name></trkpt>
<trkpt lat="53.462141" lon="05.665852"><ele>-2.1</ele><time>2021-02-17T14:12:47Z</time><name>PT8257</name></trkpt>
<trkpt lat="53.462138" lon="05.665870"><ele>-2</ele><time>2021-02-17T14:12:48Z</time><name>PT8258</name></trkpt>
<trkpt lat="53.462137" lon="05.665890"><ele>-2.1</ele><time>2021-02-17T14:12:49Z</time><name>PT8259</name></trkpt>
<trkpt lat="53.462135" lon="05.665907"><ele>-1.9</ele><time>2021-02-17T14:12:50Z</time><name>PT8260</name></trkpt>
<trkpt lat="53.462133" lon="05.665925"><ele>-1.7</ele><time>2021-02-17T14:12:51Z</time><name>PT8261</name></trkpt>
<trkpt lat="53.462131" lon="05.665943"><ele>-1.9</ele><time>2021-02-17T14:12:52Z</time><name>PT8262</name></trkpt>
<trkpt lat="53.462130" lon="05.665963"><ele>-1.9</ele><time>2021-02-17T14:12:53Z</time><name>PT8263</name></trkpt>
<trkpt lat="53.462128" lon="05.665984"><ele>-1.9</ele><time>2021-02-17T14:12:54Z</time><name>PT8264</name></trkpt>
<trkpt lat="53.462124" lon="05.666004"><ele>-2</ele><time>2021-02-17T14:12:55Z</time><name>PT8265</name></trkpt>
<trkpt lat="53.462120" lon="05.666026"><ele>-1.9</ele><time>2021-02-17T14:12:56Z</time><name>PT8266</name></trkpt>
<trkpt lat="53.462117" lon="05.666048"><ele>-1.9</ele><time>2021-02-17T14:12:57Z</time><name>PT8267</name></trkpt>
<trkpt lat="53.462112" lon="05.666068"><ele>-1.9</ele><time>2021-02-17T14:12:58Z</time><name>PT8268</name></trkpt>
<trkpt lat="53.462108" lon="05.666083"><ele>-1.9</ele><time>2021-02-17T14:12:59Z</time><name>PT8269</name></trkpt>
<trkpt lat="53.462105" lon="05.666103"><ele>-2</ele><time>2021-02-17T14:13:00Z</time><name>PT8270</name></trkpt>
<trkpt lat="53.462101" lon="05.666123"><ele>-2</ele><time>2021-02-17T14:13:01Z</time><name>PT8271</name></trkpt>
<trkpt lat="53.462100" lon="05.666141"><ele>-2.1</ele><time>2021-02-17T14:13:02Z</time><name>PT8272</name></trkpt>
<trkpt lat="53.462098" lon="05.666158"><ele>-2</ele><time>2021-02-17T14:13:03Z</time><name>PT8273</name></trkpt>
<trkpt lat="53.462095" lon="05.666175"><ele>-1.9</ele><time>2021-02-17T14:13:04Z</time><name>PT8274</name></trkpt>
<trkpt lat="53.462091" lon="05.666194"><ele>-2</ele><time>2021-02-17T14:13:05Z</time><name>PT8275</name></trkpt>
<trkpt lat="53.462087" lon="05.666212"><ele>-2.1</ele><time>2021-02-17T14:13:06Z</time><name>PT8276</name></trkpt>
<trkpt lat="53.462083" lon="05.666230"><ele>-2.3</ele><time>2021-02-17T14:13:07Z</time><name>PT8277</name></trkpt>
<trkpt lat="53.462079" lon="05.666248"><ele>-2.3</ele><time>2021-02-17T14:13:08Z</time><name>PT8278</name></trkpt>
<trkpt lat="53.462076" lon="05.666265"><ele>-2.2</ele><time>2021-02-17T14:13:09Z</time><name>PT8279</name></trkpt>
<trkpt lat="53.462074" lon="05.666283"><ele>-2</ele><time>2021-02-17T14:13:10Z</time><name>PT8280</name></trkpt>
<trkpt lat="53.462071" lon="05.666301"><ele>-1.9</ele><time>2021-02-17T14:13:11Z</time><name>PT8281</name></trkpt>
<trkpt lat="53.462068" lon="05.666318"><ele>-2</ele><time>2021-02-17T14:13:12Z</time><name>PT8282</name></trkpt>
<trkpt lat="53.462065" lon="05.666334"><ele>-2.3</ele><time>2021-02-17T14:13:13Z</time><name>PT8283</name></trkpt>
<trkpt lat="53.462064" lon="05.666350"><ele>-2.4</ele><time>2021-02-17T14:13:14Z</time><name>PT8284</name></trkpt>
<trkpt lat="53.462063" lon="05.666364"><ele>-2.4</ele><time>2021-02-17T14:13:15Z</time><name>PT8285</name></trkpt>
<trkpt lat="53.462060" lon="05.666381"><ele>-2.3</ele><time>2021-02-17T14:13:16Z</time><name>PT8286</name></trkpt>
<trkpt lat="53.462058" lon="05.666395"><ele>-2.1</ele><time>2021-02-17T14:13:17Z</time><name>PT8287</name></trkpt>
<trkpt lat="53.462059" lon="05.666403"><ele>-2.1</ele><time>2021-02-17T14:13:18Z</time><name>PT8288</name></trkpt>
<trkpt lat="53.462060" lon="05.666404"><ele>-2.2</ele><time>2021-02-17T14:13:19Z</time><name>PT8289</name></trkpt>
<trkpt lat="53.462060" lon="05.666407"><ele>-2.3</ele><time>2021-02-17T14:13:20Z</time><name>PT8290</name></trkpt>
<trkpt lat="53.462058" lon="05.666413"><ele>-2.2</ele><time>2021-02-17T14:13:22Z</time><name>PT8291</name></trkpt>
<trkpt lat="53.462055" lon="05.666432"><ele>-2</ele><time>2021-02-17T14:13:23Z</time><name>PT8292</name></trkpt>
<trkpt lat="53.462056" lon="05.666450"><ele>-1.9</ele><time>2021-02-17T14:13:24Z</time><name>PT8293</name></trkpt>
<trkpt lat="53.462054" lon="05.666467"><ele>-1.9</ele><time>2021-02-17T14:13:25Z</time><name>PT8294</name></trkpt>
<trkpt lat="53.462049" lon="05.666482"><ele>-2</ele><time>2021-02-17T14:13:26Z</time><name>PT8295</name></trkpt>
<trkpt lat="53.462046" lon="05.666499"><ele>-2</ele><time>2021-02-17T14:13:27Z</time><name>PT8296</name></trkpt>
<trkpt lat="53.462043" lon="05.666517"><ele>-2</ele><time>2021-02-17T14:13:28Z</time><name>PT8297</name></trkpt>
<trkpt lat="53.462040" lon="05.666537"><ele>-2.1</ele><time>2021-02-17T14:13:29Z</time><name>PT8298</name></trkpt>
<trkpt lat="53.462040" lon="05.666555"><ele>-2.2</ele><time>2021-02-17T14:13:30Z</time><name>PT8299</name></trkpt>
<trkpt lat="53.462036" lon="05.666573"><ele>-2.3</ele><time>2021-02-17T14:13:31Z</time><name>PT8300</name></trkpt>
<trkpt lat="53.462036" lon="05.666589"><ele>-2.3</ele><time>2021-02-17T14:13:32Z</time><name>PT8301</name></trkpt>
<trkpt lat="53.462034" lon="05.666606"><ele>-2.2</ele><time>2021-02-17T14:13:33Z</time><name>PT8302</name></trkpt>
<trkpt lat="53.462032" lon="05.666625"><ele>-2.3</ele><time>2021-02-17T14:13:34Z</time><name>PT8303</name></trkpt>
<trkpt lat="53.462028" lon="05.666644"><ele>-2.1</ele><time>2021-02-17T14:13:35Z</time><name>PT8304</name></trkpt>
<trkpt lat="53.462025" lon="05.666664"><ele>-2.2</ele><time>2021-02-17T14:13:36Z</time><name>PT8305</name></trkpt>
<trkpt lat="53.462025" lon="05.666677"><ele>-2.2</ele><time>2021-02-17T14:13:37Z</time><name>PT8306</name></trkpt>
<trkpt lat="53.462022" lon="05.666696"><ele>-2.3</ele><time>2021-02-17T14:13:38Z</time><name>PT8307</name></trkpt>
<trkpt lat="53.462018" lon="05.666715"><ele>-2.2</ele><time>2021-02-17T14:13:39Z</time><name>PT8308</name></trkpt>
<trkpt lat="53.462012" lon="05.666729"><ele>-2.1</ele><time>2021-02-17T14:13:40Z</time><name>PT8309</name></trkpt>
<trkpt lat="53.462008" lon="05.666747"><ele>-2</ele><time>2021-02-17T14:13:41Z</time><name>PT8310</name></trkpt>
<trkpt lat="53.462006" lon="05.666765"><ele>-2</ele><time>2021-02-17T14:13:42Z</time><name>PT8311</name></trkpt>
<trkpt lat="53.462004" lon="05.666782"><ele>-2</ele><time>2021-02-17T14:13:43Z</time><name>PT8312</name></trkpt>
<trkpt lat="53.462002" lon="05.666801"><ele>-2.1</ele><time>2021-02-17T14:13:44Z</time><name>PT8313</name></trkpt>
<trkpt lat="53.462001" lon="05.666819"><ele>-2.1</ele><time>2021-02-17T14:13:45Z</time><name>PT8314</name></trkpt>
<trkpt lat="53.461999" lon="05.666833"><ele>-2.2</ele><time>2021-02-17T14:13:46Z</time><name>PT8315</name></trkpt>
<trkpt lat="53.461995" lon="05.666851"><ele>-2.4</ele><time>2021-02-17T14:13:47Z</time><name>PT8316</name></trkpt>
<trkpt lat="53.461992" lon="05.666868"><ele>-2.4</ele><time>2021-02-17T14:13:48Z</time><name>PT8317</name></trkpt>
<trkpt lat="53.461987" lon="05.666886"><ele>-2.4</ele><time>2021-02-17T14:13:49Z</time><name>PT8318</name></trkpt>
<trkpt lat="53.461985" lon="05.666902"><ele>-2.5</ele><time>2021-02-17T14:13:50Z</time><name>PT8319</name></trkpt>
<trkpt lat="53.461982" lon="05.666918"><ele>-2.5</ele><time>2021-02-17T14:13:51Z</time><name>PT8320</name></trkpt>
<trkpt lat="53.461983" lon="05.666938"><ele>-2.4</ele><time>2021-02-17T14:13:52Z</time><name>PT8321</name></trkpt>
<trkpt lat="53.461983" lon="05.666951"><ele>-2.3</ele><time>2021-02-17T14:13:53Z</time><name>PT8322</name></trkpt>
<trkpt lat="53.461980" lon="05.666966"><ele>-2.2</ele><time>2021-02-17T14:13:54Z</time><name>PT8323</name></trkpt>
<trkpt lat="53.461977" lon="05.666983"><ele>-2</ele><time>2021-02-17T14:13:55Z</time><name>PT8324</name></trkpt>
<trkpt lat="53.461973" lon="05.667004"><ele>-2</ele><time>2021-02-17T14:13:56Z</time><name>PT8325</name></trkpt>
<trkpt lat="53.461971" lon="05.667025"><ele>-2.1</ele><time>2021-02-17T14:13:57Z</time><name>PT8326</name></trkpt>
<trkpt lat="53.461970" lon="05.667040"><ele>-1.9</ele><time>2021-02-17T14:13:58Z</time><name>PT8327</name></trkpt>
<trkpt lat="53.461968" lon="05.667060"><ele>-1.9</ele><time>2021-02-17T14:13:59Z</time><name>PT8328</name></trkpt>
<trkpt lat="53.461965" lon="05.667081"><ele>-1.9</ele><time>2021-02-17T14:14:00Z</time><name>PT8329</name></trkpt>
<trkpt lat="53.461962" lon="05.667101"><ele>-1.9</ele><time>2021-02-17T14:14:01Z</time><name>PT8330</name></trkpt>
<trkpt lat="53.461959" lon="05.667122"><ele>-1.9</ele><time>2021-02-17T14:14:02Z</time><name>PT8331</name></trkpt>
<trkpt lat="53.461954" lon="05.667143"><ele>-1.9</ele><time>2021-02-17T14:14:03Z</time><name>PT8332</name></trkpt>
<trkpt lat="53.461951" lon="05.667162"><ele>-1.9</ele><time>2021-02-17T14:14:04Z</time><name>PT8333</name></trkpt>
<trkpt lat="53.461947" lon="05.667184"><ele>-2.2</ele><time>2021-02-17T14:14:05Z</time><name>PT8334</name></trkpt>
<trkpt lat="53.461946" lon="05.667202"><ele>-2.2</ele><time>2021-02-17T14:14:06Z</time><name>PT8335</name></trkpt>
<trkpt lat="53.461945" lon="05.667218"><ele>-2.2</ele><time>2021-02-17T14:14:07Z</time><name>PT8336</name></trkpt>
<trkpt lat="53.461945" lon="05.667235"><ele>-2.3</ele><time>2021-02-17T14:14:08Z</time><name>PT8337</name></trkpt>
<trkpt lat="53.461945" lon="05.667253"><ele>-2.2</ele><time>2021-02-17T14:14:09Z</time><name>PT8338</name></trkpt>
<trkpt lat="53.461942" lon="05.667272"><ele>-2.1</ele><time>2021-02-17T14:14:10Z</time><name>PT8339</name></trkpt>
<trkpt lat="53.461941" lon="05.667291"><ele>-2.3</ele><time>2021-02-17T14:14:11Z</time><name>PT8340</name></trkpt>
<trkpt lat="53.461941" lon="05.667309"><ele>-2.4</ele><time>2021-02-17T14:14:12Z</time><name>PT8341</name></trkpt>
<trkpt lat="53.461936" lon="05.667327"><ele>-2.3</ele><time>2021-02-17T14:14:13Z</time><name>PT8342</name></trkpt>
<trkpt lat="53.461933" lon="05.667347"><ele>-2.2</ele><time>2021-02-17T14:14:14Z</time><name>PT8343</name></trkpt>
<trkpt lat="53.461929" lon="05.667366"><ele>-2.2</ele><time>2021-02-17T14:14:15Z</time><name>PT8344</name></trkpt>
<trkpt lat="53.461926" lon="05.667385"><ele>-2</ele><time>2021-02-17T14:14:16Z</time><name>PT8345</name></trkpt>
<trkpt lat="53.461924" lon="05.667406"><ele>-1.9</ele><time>2021-02-17T14:14:17Z</time><name>PT8346</name></trkpt>
<trkpt lat="53.461923" lon="05.667423"><ele>-1.8</ele><time>2021-02-17T14:14:18Z</time><name>PT8347</name></trkpt>
<trkpt lat="53.461920" lon="05.667441"><ele>-1.9</ele><time>2021-02-17T14:14:19Z</time><name>PT8348</name></trkpt>
<trkpt lat="53.461916" lon="05.667461"><ele>-2</ele><time>2021-02-17T14:14:20Z</time><name>PT8349</name></trkpt>
<trkpt lat="53.461914" lon="05.667481"><ele>-1.9</ele><time>2021-02-17T14:14:21Z</time><name>PT8350</name></trkpt>
<trkpt lat="53.461911" lon="05.667499"><ele>-2</ele><time>2021-02-17T14:14:22Z</time><name>PT8351</name></trkpt>
<trkpt lat="53.461909" lon="05.667517"><ele>-2.2</ele><time>2021-02-17T14:14:23Z</time><name>PT8352</name></trkpt>
<trkpt lat="53.461906" lon="05.667535"><ele>-2</ele><time>2021-02-17T14:14:24Z</time><name>PT8353</name></trkpt>
<trkpt lat="53.461905" lon="05.667553"><ele>-2.1</ele><time>2021-02-17T14:14:25Z</time><name>PT8354</name></trkpt>
<trkpt lat="53.461905" lon="05.667571"><ele>-2.1</ele><time>2021-02-17T14:14:26Z</time><name>PT8355</name></trkpt>
<trkpt lat="53.461907" lon="05.667582"><ele>-2.2</ele><time>2021-02-17T14:14:27Z</time><name>PT8356</name></trkpt>
<trkpt lat="53.461906" lon="05.667595"><ele>-2.3</ele><time>2021-02-17T14:14:28Z</time><name>PT8357</name></trkpt>
<trkpt lat="53.461905" lon="05.667617"><ele>-2.4</ele><time>2021-02-17T14:14:29Z</time><name>PT8358</name></trkpt>
<trkpt lat="53.461904" lon="05.667638"><ele>-2.4</ele><time>2021-02-17T14:14:30Z</time><name>PT8359</name></trkpt>
<trkpt lat="53.461901" lon="05.667656"><ele>-2.3</ele><time>2021-02-17T14:14:31Z</time><name>PT8360</name></trkpt>
<trkpt lat="53.461898" lon="05.667676"><ele>-2.4</ele><time>2021-02-17T14:14:32Z</time><name>PT8361</name></trkpt>
<trkpt lat="53.461896" lon="05.667694"><ele>-2.3</ele><time>2021-02-17T14:14:33Z</time><name>PT8362</name></trkpt>
<trkpt lat="53.461894" lon="05.667713"><ele>-2.1</ele><time>2021-02-17T14:14:34Z</time><name>PT8363</name></trkpt>
<trkpt lat="53.461891" lon="05.667730"><ele>-2.1</ele><time>2021-02-17T14:14:35Z</time><name>PT8364</name></trkpt>
<trkpt lat="53.461888" lon="05.667749"><ele>-2</ele><time>2021-02-17T14:14:36Z</time><name>PT8365</name></trkpt>
<trkpt lat="53.461885" lon="05.667767"><ele>-2.1</ele><time>2021-02-17T14:14:37Z</time><name>PT8366</name></trkpt>
<trkpt lat="53.461883" lon="05.667783"><ele>-2.3</ele><time>2021-02-17T14:14:38Z</time><name>PT8367</name></trkpt>
<trkpt lat="53.461883" lon="05.667801"><ele>-2.3</ele><time>2021-02-17T14:14:39Z</time><name>PT8368</name></trkpt>
<trkpt lat="53.461881" lon="05.667817"><ele>-2.2</ele><time>2021-02-17T14:14:40Z</time><name>PT8369</name></trkpt>
<trkpt lat="53.461878" lon="05.667835"><ele>-2.2</ele><time>2021-02-17T14:14:41Z</time><name>PT8370</name></trkpt>
<trkpt lat="53.461874" lon="05.667853"><ele>-2</ele><time>2021-02-17T14:14:42Z</time><name>PT8371</name></trkpt>
<trkpt lat="53.461869" lon="05.667875"><ele>-2.2</ele><time>2021-02-17T14:14:43Z</time><name>PT8372</name></trkpt>
<trkpt lat="53.461864" lon="05.667897"><ele>-2.3</ele><time>2021-02-17T14:14:44Z</time><name>PT8373</name></trkpt>
<trkpt lat="53.461860" lon="05.667918"><ele>-2.3</ele><time>2021-02-17T14:14:45Z</time><name>PT8374</name></trkpt>
<trkpt lat="53.461856" lon="05.667936"><ele>-2.2</ele><time>2021-02-17T14:14:46Z</time><name>PT8375</name></trkpt>
<trkpt lat="53.461853" lon="05.667955"><ele>-2.1</ele><time>2021-02-17T14:14:47Z</time><name>PT8376</name></trkpt>
<trkpt lat="53.461851" lon="05.667973"><ele>-2.2</ele><time>2021-02-17T14:14:48Z</time><name>PT8377</name></trkpt>
<trkpt lat="53.461848" lon="05.667990"><ele>-2.2</ele><time>2021-02-17T14:14:49Z</time><name>PT8378</name></trkpt>
<trkpt lat="53.461846" lon="05.668007"><ele>-2.2</ele><time>2021-02-17T14:14:50Z</time><name>PT8379</name></trkpt>
<trkpt lat="53.461841" lon="05.668031"><ele>-2.2</ele><time>2021-02-17T14:14:51Z</time><name>PT8380</name></trkpt>
<trkpt lat="53.461840" lon="05.668049"><ele>-2.2</ele><time>2021-02-17T14:14:52Z</time><name>PT8381</name></trkpt>
<trkpt lat="53.461840" lon="05.668067"><ele>-2.1</ele><time>2021-02-17T14:14:53Z</time><name>PT8382</name></trkpt>
<trkpt lat="53.461840" lon="05.668088"><ele>-2.1</ele><time>2021-02-17T14:14:54Z</time><name>PT8383</name></trkpt>
<trkpt lat="53.461837" lon="05.668104"><ele>-2</ele><time>2021-02-17T14:14:55Z</time><name>PT8384</name></trkpt>
<trkpt lat="53.461835" lon="05.668121"><ele>-2.1</ele><time>2021-02-17T14:14:56Z</time><name>PT8385</name></trkpt>
<trkpt lat="53.461831" lon="05.668139"><ele>-2.2</ele><time>2021-02-17T14:14:57Z</time><name>PT8386</name></trkpt>
<trkpt lat="53.461828" lon="05.668157"><ele>-2.2</ele><time>2021-02-17T14:14:58Z</time><name>PT8387</name></trkpt>
<trkpt lat="53.461826" lon="05.668176"><ele>-2.1</ele><time>2021-02-17T14:14:59Z</time><name>PT8388</name></trkpt>
<trkpt lat="53.461827" lon="05.668195"><ele>-2.2</ele><time>2021-02-17T14:15:00Z</time><name>PT8389</name></trkpt>
<trkpt lat="53.461825" lon="05.668213"><ele>-2.1</ele><time>2021-02-17T14:15:01Z</time><name>PT8390</name></trkpt>
<trkpt lat="53.461823" lon="05.668232"><ele>-2.1</ele><time>2021-02-17T14:15:02Z</time><name>PT8391</name></trkpt>
<trkpt lat="53.461821" lon="05.668249"><ele>-2.2</ele><time>2021-02-17T14:15:03Z</time><name>PT8392</name></trkpt>
<trkpt lat="53.461820" lon="05.668267"><ele>-2.3</ele><time>2021-02-17T14:15:04Z</time><name>PT8393</name></trkpt>
<trkpt lat="53.461819" lon="05.668286"><ele>-2</ele><time>2021-02-17T14:15:05Z</time><name>PT8394</name></trkpt>
<trkpt lat="53.461818" lon="05.668305"><ele>-2</ele><time>2021-02-17T14:15:06Z</time><name>PT8395</name></trkpt>
<trkpt lat="53.461818" lon="05.668320"><ele>-2.3</ele><time>2021-02-17T14:15:07Z</time><name>PT8396</name></trkpt>
<trkpt lat="53.461816" lon="05.668335"><ele>-2.3</ele><time>2021-02-17T14:15:08Z</time><name>PT8397</name></trkpt>
<trkpt lat="53.461812" lon="05.668351"><ele>-2.4</ele><time>2021-02-17T14:15:09Z</time><name>PT8398</name></trkpt>
<trkpt lat="53.461810" lon="05.668369"><ele>-2.4</ele><time>2021-02-17T14:15:10Z</time><name>PT8399</name></trkpt>
<trkpt lat="53.461808" lon="05.668387"><ele>-2.4</ele><time>2021-02-17T14:15:11Z</time><name>PT8400</name></trkpt>
<trkpt lat="53.461807" lon="05.668406"><ele>-2.4</ele><time>2021-02-17T14:15:12Z</time><name>PT8401</name></trkpt>
<trkpt lat="53.461805" lon="05.668424"><ele>-2.4</ele><time>2021-02-17T14:15:13Z</time><name>PT8402</name></trkpt>
<trkpt lat="53.461802" lon="05.668442"><ele>-2.4</ele><time>2021-02-17T14:15:14Z</time><name>PT8403</name></trkpt>
<trkpt lat="53.461800" lon="05.668458"><ele>-2.6</ele><time>2021-02-17T14:15:15Z</time><name>PT8404</name></trkpt>
<trkpt lat="53.461800" lon="05.668474"><ele>-2.4</ele><time>2021-02-17T14:15:16Z</time><name>PT8405</name></trkpt>
<trkpt lat="53.461799" lon="05.668491"><ele>-2.4</ele><time>2021-02-17T14:15:17Z</time><name>PT8406</name></trkpt>
<trkpt lat="53.461798" lon="05.668509"><ele>-2.4</ele><time>2021-02-17T14:15:18Z</time><name>PT8407</name></trkpt>
<trkpt lat="53.461796" lon="05.668526"><ele>-2.1</ele><time>2021-02-17T14:15:19Z</time><name>PT8408</name></trkpt>
<trkpt lat="53.461796" lon="05.668543"><ele>-2.2</ele><time>2021-02-17T14:15:20Z</time><name>PT8409</name></trkpt>
<trkpt lat="53.461794" lon="05.668562"><ele>-1.9</ele><time>2021-02-17T14:15:21Z</time><name>PT8410</name></trkpt>
<trkpt lat="53.461792" lon="05.668582"><ele>-1.9</ele><time>2021-02-17T14:15:22Z</time><name>PT8411</name></trkpt>
<trkpt lat="53.461792" lon="05.668600"><ele>-2.1</ele><time>2021-02-17T14:15:23Z</time><name>PT8412</name></trkpt>
<trkpt lat="53.461791" lon="05.668615"><ele>-2.2</ele><time>2021-02-17T14:15:24Z</time><name>PT8413</name></trkpt>
<trkpt lat="53.461790" lon="05.668635"><ele>-2.2</ele><time>2021-02-17T14:15:25Z</time><name>PT8414</name></trkpt>
<trkpt lat="53.461788" lon="05.668653"><ele>-2.3</ele><time>2021-02-17T14:15:26Z</time><name>PT8415</name></trkpt>
<trkpt lat="53.461785" lon="05.668675"><ele>-2.3</ele><time>2021-02-17T14:15:27Z</time><name>PT8416</name></trkpt>
<trkpt lat="53.461784" lon="05.668693"><ele>-2.2</ele><time>2021-02-17T14:15:28Z</time><name>PT8417</name></trkpt>
<trkpt lat="53.461782" lon="05.668708"><ele>-2.4</ele><time>2021-02-17T14:15:29Z</time><name>PT8418</name></trkpt>
<trkpt lat="53.461777" lon="05.668723"><ele>-2.4</ele><time>2021-02-17T14:15:30Z</time><name>PT8419</name></trkpt>
<trkpt lat="53.461773" lon="05.668741"><ele>-2.6</ele><time>2021-02-17T14:15:31Z</time><name>PT8420</name></trkpt>
<trkpt lat="53.461771" lon="05.668758"><ele>-2.5</ele><time>2021-02-17T14:15:32Z</time><name>PT8421</name></trkpt>
<trkpt lat="53.461772" lon="05.668772"><ele>-2.5</ele><time>2021-02-17T14:15:33Z</time><name>PT8422</name></trkpt>
<trkpt lat="53.461773" lon="05.668786"><ele>-2.5</ele><time>2021-02-17T14:15:34Z</time><name>PT8423</name></trkpt>
<trkpt lat="53.461771" lon="05.668805"><ele>-2.4</ele><time>2021-02-17T14:15:35Z</time><name>PT8424</name></trkpt>
<trkpt lat="53.461770" lon="05.668823"><ele>-2.5</ele><time>2021-02-17T14:15:36Z</time><name>PT8425</name></trkpt>
<trkpt lat="53.461766" lon="05.668839"><ele>-2.4</ele><time>2021-02-17T14:15:37Z</time><name>PT8426</name></trkpt>
<trkpt lat="53.461763" lon="05.668855"><ele>-2.4</ele><time>2021-02-17T14:15:38Z</time><name>PT8427</name></trkpt>
<trkpt lat="53.461761" lon="05.668874"><ele>-2.1</ele><time>2021-02-17T14:15:39Z</time><name>PT8428</name></trkpt>
<trkpt lat="53.461759" lon="05.668892"><ele>-1.9</ele><time>2021-02-17T14:15:40Z</time><name>PT8429</name></trkpt>
<trkpt lat="53.461758" lon="05.668911"><ele>-1.6</ele><time>2021-02-17T14:15:41Z</time><name>PT8430</name></trkpt>
<trkpt lat="53.461756" lon="05.668928"><ele>-1.7</ele><time>2021-02-17T14:15:42Z</time><name>PT8431</name></trkpt>
<trkpt lat="53.461755" lon="05.668947"><ele>-1.8</ele><time>2021-02-17T14:15:43Z</time><name>PT8432</name></trkpt>
<trkpt lat="53.461753" lon="05.668965"><ele>-1.9</ele><time>2021-02-17T14:15:44Z</time><name>PT8433</name></trkpt>
<trkpt lat="53.461752" lon="05.668979"><ele>-1.9</ele><time>2021-02-17T14:15:45Z</time><name>PT8434</name></trkpt>
<trkpt lat="53.461751" lon="05.668993"><ele>-2.2</ele><time>2021-02-17T14:15:46Z</time><name>PT8435</name></trkpt>
<trkpt lat="53.461751" lon="05.669010"><ele>-2.2</ele><time>2021-02-17T14:15:47Z</time><name>PT8436</name></trkpt>
<trkpt lat="53.461751" lon="05.669026"><ele>-2.2</ele><time>2021-02-17T14:15:48Z</time><name>PT8437</name></trkpt>
<trkpt lat="53.461748" lon="05.669043"><ele>-2.4</ele><time>2021-02-17T14:15:49Z</time><name>PT8438</name></trkpt>
<trkpt lat="53.461746" lon="05.669059"><ele>-2.2</ele><time>2021-02-17T14:15:50Z</time><name>PT8439</name></trkpt>
<trkpt lat="53.461744" lon="05.669079"><ele>-2.2</ele><time>2021-02-17T14:15:51Z</time><name>PT8440</name></trkpt>
<trkpt lat="53.461743" lon="05.669097"><ele>-2.2</ele><time>2021-02-17T14:15:52Z</time><name>PT8441</name></trkpt>
<trkpt lat="53.461741" lon="05.669113"><ele>-2.3</ele><time>2021-02-17T14:15:53Z</time><name>PT8442</name></trkpt>
<trkpt lat="53.461739" lon="05.669132"><ele>-2.3</ele><time>2021-02-17T14:15:54Z</time><name>PT8443</name></trkpt>
<trkpt lat="53.461733" lon="05.669148"><ele>-2.3</ele><time>2021-02-17T14:15:55Z</time><name>PT8444</name></trkpt>
<trkpt lat="53.461728" lon="05.669162"><ele>-2.3</ele><time>2021-02-17T14:15:56Z</time><name>PT8445</name></trkpt>
<trkpt lat="53.461726" lon="05.669176"><ele>-2.3</ele><time>2021-02-17T14:15:57Z</time><name>PT8446</name></trkpt>
<trkpt lat="53.461726" lon="05.669190"><ele>-2.3</ele><time>2021-02-17T14:15:58Z</time><name>PT8447</name></trkpt>
<trkpt lat="53.461725" lon="05.669210"><ele>-2.3</ele><time>2021-02-17T14:15:59Z</time><name>PT8448</name></trkpt>
<trkpt lat="53.461726" lon="05.669230"><ele>-2.1</ele><time>2021-02-17T14:16:00Z</time><name>PT8449</name></trkpt>
<trkpt lat="53.461725" lon="05.669249"><ele>-1.9</ele><time>2021-02-17T14:16:01Z</time><name>PT8450</name></trkpt>
<trkpt lat="53.461722" lon="05.669268"><ele>-1.9</ele><time>2021-02-17T14:16:02Z</time><name>PT8451</name></trkpt>
<trkpt lat="53.461720" lon="05.669284"><ele>-2</ele><time>2021-02-17T14:16:03Z</time><name>PT8452</name></trkpt>
<trkpt lat="53.461718" lon="05.669298"><ele>-2</ele><time>2021-02-17T14:16:04Z</time><name>PT8453</name></trkpt>
<trkpt lat="53.461717" lon="05.669315"><ele>-2.3</ele><time>2021-02-17T14:16:05Z</time><name>PT8454</name></trkpt>
<trkpt lat="53.461715" lon="05.669334"><ele>-2.4</ele><time>2021-02-17T14:16:06Z</time><name>PT8455</name></trkpt>
<trkpt lat="53.461713" lon="05.669354"><ele>-2.5</ele><time>2021-02-17T14:16:07Z</time><name>PT8456</name></trkpt>
<trkpt lat="53.461712" lon="05.669370"><ele>-2.4</ele><time>2021-02-17T14:16:08Z</time><name>PT8457</name></trkpt>
<trkpt lat="53.461709" lon="05.669387"><ele>-2.3</ele><time>2021-02-17T14:16:09Z</time><name>PT8458</name></trkpt>
<trkpt lat="53.461707" lon="05.669406"><ele>-2.3</ele><time>2021-02-17T14:16:10Z</time><name>PT8459</name></trkpt>
<trkpt lat="53.461704" lon="05.669424"><ele>-2.3</ele><time>2021-02-17T14:16:11Z</time><name>PT8460</name></trkpt>
<trkpt lat="53.461703" lon="05.669440"><ele>-2.2</ele><time>2021-02-17T14:16:12Z</time><name>PT8461</name></trkpt>
<trkpt lat="53.461703" lon="05.669458"><ele>-2.3</ele><time>2021-02-17T14:16:13Z</time><name>PT8462</name></trkpt>
<trkpt lat="53.461701" lon="05.669479"><ele>-2.3</ele><time>2021-02-17T14:16:14Z</time><name>PT8463</name></trkpt>
<trkpt lat="53.461700" lon="05.669499"><ele>-2.3</ele><time>2021-02-17T14:16:15Z</time><name>PT8464</name></trkpt>
<trkpt lat="53.461698" lon="05.669519"><ele>-2.2</ele><time>2021-02-17T14:16:16Z</time><name>PT8465</name></trkpt>
<trkpt lat="53.461696" lon="05.669537"><ele>-2.4</ele><time>2021-02-17T14:16:17Z</time><name>PT8466</name></trkpt>
<trkpt lat="53.461693" lon="05.669556"><ele>-2.4</ele><time>2021-02-17T14:16:18Z</time><name>PT8467</name></trkpt>
<trkpt lat="53.461689" lon="05.669575"><ele>-2.4</ele><time>2021-02-17T14:16:19Z</time><name>PT8468</name></trkpt>
<trkpt lat="53.461689" lon="05.669592"><ele>-2.4</ele><time>2021-02-17T14:16:20Z</time><name>PT8469</name></trkpt>
<trkpt lat="53.461688" lon="05.669608"><ele>-2.4</ele><time>2021-02-17T14:16:21Z</time><name>PT8470</name></trkpt>
<trkpt lat="53.461686" lon="05.669626"><ele>-2.6</ele><time>2021-02-17T14:16:22Z</time><name>PT8471</name></trkpt>
<trkpt lat="53.461685" lon="05.669643"><ele>-2.5</ele><time>2021-02-17T14:16:23Z</time><name>PT8472</name></trkpt>
<trkpt lat="53.461684" lon="05.669660"><ele>-2.5</ele><time>2021-02-17T14:16:24Z</time><name>PT8473</name></trkpt>
<trkpt lat="53.461684" lon="05.669679"><ele>-2.5</ele><time>2021-02-17T14:16:25Z</time><name>PT8474</name></trkpt>
<trkpt lat="53.461683" lon="05.669697"><ele>-2.4</ele><time>2021-02-17T14:16:26Z</time><name>PT8475</name></trkpt>
<trkpt lat="53.461680" lon="05.669715"><ele>-2.4</ele><time>2021-02-17T14:16:27Z</time><name>PT8476</name></trkpt>
<trkpt lat="53.461679" lon="05.669734"><ele>-2.3</ele><time>2021-02-17T14:16:28Z</time><name>PT8477</name></trkpt>
<trkpt lat="53.461679" lon="05.669751"><ele>-2.4</ele><time>2021-02-17T14:16:29Z</time><name>PT8478</name></trkpt>
<trkpt lat="53.461677" lon="05.669771"><ele>-2.4</ele><time>2021-02-17T14:16:30Z</time><name>PT8479</name></trkpt>
<trkpt lat="53.461675" lon="05.669789"><ele>-2.4</ele><time>2021-02-17T14:16:31Z</time><name>PT8480</name></trkpt>
<trkpt lat="53.461672" lon="05.669806"><ele>-2.4</ele><time>2021-02-17T14:16:32Z</time><name>PT8481</name></trkpt>
<trkpt lat="53.461672" lon="05.669824"><ele>-2.5</ele><time>2021-02-17T14:16:33Z</time><name>PT8482</name></trkpt>
<trkpt lat="53.461669" lon="05.669841"><ele>-2.5</ele><time>2021-02-17T14:16:34Z</time><name>PT8483</name></trkpt>
<trkpt lat="53.461666" lon="05.669857"><ele>-2.4</ele><time>2021-02-17T14:16:35Z</time><name>PT8484</name></trkpt>
<trkpt lat="53.461664" lon="05.669876"><ele>-2.5</ele><time>2021-02-17T14:16:36Z</time><name>PT8485</name></trkpt>
<trkpt lat="53.461662" lon="05.669898"><ele>-2.4</ele><time>2021-02-17T14:16:37Z</time><name>PT8486</name></trkpt>
<trkpt lat="53.461661" lon="05.669918"><ele>-2.4</ele><time>2021-02-17T14:16:38Z</time><name>PT8487</name></trkpt>
<trkpt lat="53.461661" lon="05.669940"><ele>-2.4</ele><time>2021-02-17T14:16:39Z</time><name>PT8488</name></trkpt>
<trkpt lat="53.461661" lon="05.669961"><ele>-2.4</ele><time>2021-02-17T14:16:40Z</time><name>PT8489</name></trkpt>
<trkpt lat="53.461659" lon="05.669981"><ele>-2.5</ele><time>2021-02-17T14:16:41Z</time><name>PT8490</name></trkpt>
<trkpt lat="53.461659" lon="05.669998"><ele>-2.5</ele><time>2021-02-17T14:16:42Z</time><name>PT8491</name></trkpt>
<trkpt lat="53.461657" lon="05.670015"><ele>-2.3</ele><time>2021-02-17T14:16:43Z</time><name>PT8492</name></trkpt>
<trkpt lat="53.461652" lon="05.670033"><ele>-2.5</ele><time>2021-02-17T14:16:44Z</time><name>PT8493</name></trkpt>
<trkpt lat="53.461649" lon="05.670051"><ele>-2.5</ele><time>2021-02-17T14:16:45Z</time><name>PT8494</name></trkpt>
<trkpt lat="53.461646" lon="05.670068"><ele>-2.6</ele><time>2021-02-17T14:16:46Z</time><name>PT8495</name></trkpt>
<trkpt lat="53.461644" lon="05.670084"><ele>-2.6</ele><time>2021-02-17T14:16:47Z</time><name>PT8496</name></trkpt>
<trkpt lat="53.461643" lon="05.670102"><ele>-2.5</ele><time>2021-02-17T14:16:48Z</time><name>PT8497</name></trkpt>
<trkpt lat="53.461641" lon="05.670119"><ele>-2.2</ele><time>2021-02-17T14:16:49Z</time><name>PT8498</name></trkpt>
<trkpt lat="53.461640" lon="05.670136"><ele>-2.2</ele><time>2021-02-17T14:16:50Z</time><name>PT8499</name></trkpt>
<trkpt lat="53.461639" lon="05.670154"><ele>-2.1</ele><time>2021-02-17T14:16:51Z</time><name>PT8500</name></trkpt>
<trkpt lat="53.461638" lon="05.670172"><ele>-2.2</ele><time>2021-02-17T14:16:52Z</time><name>PT8501</name></trkpt>
<trkpt lat="53.461637" lon="05.670188"><ele>-2.2</ele><time>2021-02-17T14:16:53Z</time><name>PT8502</name></trkpt>
<trkpt lat="53.461633" lon="05.670205"><ele>-2.2</ele><time>2021-02-17T14:16:54Z</time><name>PT8503</name></trkpt>
<trkpt lat="53.461633" lon="05.670224"><ele>-2.2</ele><time>2021-02-17T14:16:55Z</time><name>PT8504</name></trkpt>
<trkpt lat="53.461631" lon="05.670240"><ele>-2.2</ele><time>2021-02-17T14:16:56Z</time><name>PT8505</name></trkpt>
<trkpt lat="53.461630" lon="05.670259"><ele>-2.2</ele><time>2021-02-17T14:16:57Z</time><name>PT8506</name></trkpt>
<trkpt lat="53.461628" lon="05.670276"><ele>-2.4</ele><time>2021-02-17T14:16:58Z</time><name>PT8507</name></trkpt>
<trkpt lat="53.461627" lon="05.670290"><ele>-2.4</ele><time>2021-02-17T14:16:59Z</time><name>PT8508</name></trkpt>
<trkpt lat="53.461624" lon="05.670306"><ele>-2.2</ele><time>2021-02-17T14:17:00Z</time><name>PT8509</name></trkpt>
<trkpt lat="53.461619" lon="05.670323"><ele>-2</ele><time>2021-02-17T14:17:01Z</time><name>PT8510</name></trkpt>
<trkpt lat="53.461617" lon="05.670339"><ele>-2</ele><time>2021-02-17T14:17:02Z</time><name>PT8511</name></trkpt>
<trkpt lat="53.461617" lon="05.670358"><ele>-2.1</ele><time>2021-02-17T14:17:03Z</time><name>PT8512</name></trkpt>
<trkpt lat="53.461617" lon="05.670377"><ele>-2.1</ele><time>2021-02-17T14:17:04Z</time><name>PT8513</name></trkpt>
<trkpt lat="53.461616" lon="05.670396"><ele>-2.4</ele><time>2021-02-17T14:17:05Z</time><name>PT8514</name></trkpt>
<trkpt lat="53.461615" lon="05.670413"><ele>-2.3</ele><time>2021-02-17T14:17:06Z</time><name>PT8515</name></trkpt>
<trkpt lat="53.461614" lon="05.670430"><ele>-2.3</ele><time>2021-02-17T14:17:07Z</time><name>PT8516</name></trkpt>
<trkpt lat="53.461612" lon="05.670448"><ele>-2.3</ele><time>2021-02-17T14:17:08Z</time><name>PT8517</name></trkpt>
<trkpt lat="53.461610" lon="05.670469"><ele>-2.4</ele><time>2021-02-17T14:17:09Z</time><name>PT8518</name></trkpt>
<trkpt lat="53.461609" lon="05.670486"><ele>-2.4</ele><time>2021-02-17T14:17:10Z</time><name>PT8519</name></trkpt>
<trkpt lat="53.461605" lon="05.670504"><ele>-2.5</ele><time>2021-02-17T14:17:11Z</time><name>PT8520</name></trkpt>
<trkpt lat="53.461602" lon="05.670522"><ele>-2.7</ele><time>2021-02-17T14:17:12Z</time><name>PT8521</name></trkpt>
<trkpt lat="53.461601" lon="05.670541"><ele>-2.6</ele><time>2021-02-17T14:17:13Z</time><name>PT8522</name></trkpt>
<trkpt lat="53.461600" lon="05.670562"><ele>-2.8</ele><time>2021-02-17T14:17:14Z</time><name>PT8523</name></trkpt>
<trkpt lat="53.461602" lon="05.670582"><ele>-2.6</ele><time>2021-02-17T14:17:15Z</time><name>PT8524</name></trkpt>
<trkpt lat="53.461601" lon="05.670602"><ele>-2.7</ele><time>2021-02-17T14:17:16Z</time><name>PT8525</name></trkpt>
<trkpt lat="53.461599" lon="05.670618"><ele>-2.6</ele><time>2021-02-17T14:17:17Z</time><name>PT8526</name></trkpt>
<trkpt lat="53.461596" lon="05.670634"><ele>-2.4</ele><time>2021-02-17T14:17:18Z</time><name>PT8527</name></trkpt>
<trkpt lat="53.461593" lon="05.670650"><ele>-2.4</ele><time>2021-02-17T14:17:19Z</time><name>PT8528</name></trkpt>
<trkpt lat="53.461590" lon="05.670666"><ele>-2.2</ele><time>2021-02-17T14:17:20Z</time><name>PT8529</name></trkpt>
<trkpt lat="53.461588" lon="05.670682"><ele>-2.1</ele><time>2021-02-17T14:17:21Z</time><name>PT8530</name></trkpt>
<trkpt lat="53.461587" lon="05.670700"><ele>-2.3</ele><time>2021-02-17T14:17:22Z</time><name>PT8531</name></trkpt>
<trkpt lat="53.461586" lon="05.670717"><ele>-2.3</ele><time>2021-02-17T14:17:23Z</time><name>PT8532</name></trkpt>
<trkpt lat="53.461585" lon="05.670731"><ele>-2.4</ele><time>2021-02-17T14:17:24Z</time><name>PT8533</name></trkpt>
<trkpt lat="53.461583" lon="05.670736"><ele>-2.4</ele><time>2021-02-17T14:17:25Z</time><name>PT8534</name></trkpt>
<trkpt lat="53.461583" lon="05.670750"><ele>-2.5</ele><time>2021-02-17T14:17:26Z</time><name>PT8535</name></trkpt>
<trkpt lat="53.461582" lon="05.670766"><ele>-2.5</ele><time>2021-02-17T14:17:27Z</time><name>PT8536</name></trkpt>
<trkpt lat="53.461580" lon="05.670782"><ele>-2.6</ele><time>2021-02-17T14:17:28Z</time><name>PT8537</name></trkpt>
<trkpt lat="53.461579" lon="05.670800"><ele>-2.6</ele><time>2021-02-17T14:17:29Z</time><name>PT8538</name></trkpt>
<trkpt lat="53.461576" lon="05.670823"><ele>-2.6</ele><time>2021-02-17T14:17:30Z</time><name>PT8539</name></trkpt>
<trkpt lat="53.461575" lon="05.670842"><ele>-2.7</ele><time>2021-02-17T14:17:31Z</time><name>PT8540</name></trkpt>
<trkpt lat="53.461575" lon="05.670855"><ele>-2.5</ele><time>2021-02-17T14:17:32Z</time><name>PT8541</name></trkpt>
<trkpt lat="53.461574" lon="05.670872"><ele>-2.4</ele><time>2021-02-17T14:17:33Z</time><name>PT8542</name></trkpt>
<trkpt lat="53.461571" lon="05.670888"><ele>-2.5</ele><time>2021-02-17T14:17:34Z</time><name>PT8543</name></trkpt>
<trkpt lat="53.461571" lon="05.670896"><ele>-2.4</ele><time>2021-02-17T14:17:35Z</time><name>PT8544</name></trkpt>
<trkpt lat="53.461569" lon="05.670916"><ele>-2.4</ele><time>2021-02-17T14:17:36Z</time><name>PT8545</name></trkpt>
<trkpt lat="53.461568" lon="05.670933"><ele>-2.4</ele><time>2021-02-17T14:17:37Z</time><name>PT8546</name></trkpt>
<trkpt lat="53.461567" lon="05.670951"><ele>-2.3</ele><time>2021-02-17T14:17:38Z</time><name>PT8547</name></trkpt>
<trkpt lat="53.461566" lon="05.670969"><ele>-2.2</ele><time>2021-02-17T14:17:39Z</time><name>PT8548</name></trkpt>
<trkpt lat="53.461566" lon="05.670987"><ele>-2</ele><time>2021-02-17T14:17:40Z</time><name>PT8549</name></trkpt>
<trkpt lat="53.461566" lon="05.671005"><ele>-2.1</ele><time>2021-02-17T14:17:41Z</time><name>PT8550</name></trkpt>
<trkpt lat="53.461566" lon="05.671021"><ele>-2.2</ele><time>2021-02-17T14:17:42Z</time><name>PT8551</name></trkpt>
<trkpt lat="53.461564" lon="05.671037"><ele>-2.1</ele><time>2021-02-17T14:17:43Z</time><name>PT8552</name></trkpt>
<trkpt lat="53.461560" lon="05.671052"><ele>-2.2</ele><time>2021-02-17T14:17:44Z</time><name>PT8553</name></trkpt>
<trkpt lat="53.461558" lon="05.671069"><ele>-2.4</ele><time>2021-02-17T14:17:45Z</time><name>PT8554</name></trkpt>
<trkpt lat="53.461556" lon="05.671085"><ele>-2.3</ele><time>2021-02-17T14:17:46Z</time><name>PT8555</name></trkpt>
<trkpt lat="53.461552" lon="05.671104"><ele>-2.4</ele><time>2021-02-17T14:17:47Z</time><name>PT8556</name></trkpt>
<trkpt lat="53.461550" lon="05.671122"><ele>-2.5</ele><time>2021-02-17T14:17:48Z</time><name>PT8557</name></trkpt>
<trkpt lat="53.461546" lon="05.671139"><ele>-2.5</ele><time>2021-02-17T14:17:49Z</time><name>PT8558</name></trkpt>
<trkpt lat="53.461541" lon="05.671155"><ele>-2.2</ele><time>2021-02-17T14:17:50Z</time><name>PT8559</name></trkpt>
<trkpt lat="53.461536" lon="05.671171"><ele>-2.4</ele><time>2021-02-17T14:17:51Z</time><name>PT8560</name></trkpt>
<trkpt lat="53.461530" lon="05.671189"><ele>-2.4</ele><time>2021-02-17T14:17:52Z</time><name>PT8561</name></trkpt>
<trkpt lat="53.461524" lon="05.671207"><ele>-2.5</ele><time>2021-02-17T14:17:53Z</time><name>PT8562</name></trkpt>
<trkpt lat="53.461523" lon="05.671224"><ele>-2.5</ele><time>2021-02-17T14:17:54Z</time><name>PT8563</name></trkpt>
<trkpt lat="53.461520" lon="05.671243"><ele>-2.8</ele><time>2021-02-17T14:17:55Z</time><name>PT8564</name></trkpt>
<trkpt lat="53.461515" lon="05.671261"><ele>-2.5</ele><time>2021-02-17T14:17:56Z</time><name>PT8565</name></trkpt>
<trkpt lat="53.461512" lon="05.671277"><ele>-2.5</ele><time>2021-02-17T14:17:57Z</time><name>PT8566</name></trkpt>
<trkpt lat="53.461509" lon="05.671292"><ele>-2.6</ele><time>2021-02-17T14:17:58Z</time><name>PT8567</name></trkpt>
<trkpt lat="53.461509" lon="05.671300"><ele>-2.7</ele><time>2021-02-17T14:17:59Z</time><name>PT8568</name></trkpt>
<trkpt lat="53.461509" lon="05.671309"><ele>-2.8</ele><time>2021-02-17T14:18:00Z</time><name>PT8569</name></trkpt>
<trkpt lat="53.461507" lon="05.671326"><ele>-2.9</ele><time>2021-02-17T14:18:01Z</time><name>PT8570</name></trkpt>
<trkpt lat="53.461505" lon="05.671342"><ele>-2.8</ele><time>2021-02-17T14:18:02Z</time><name>PT8571</name></trkpt>
<trkpt lat="53.461502" lon="05.671360"><ele>-2.9</ele><time>2021-02-17T14:18:03Z</time><name>PT8572</name></trkpt>
<trkpt lat="53.461499" lon="05.671378"><ele>-2.9</ele><time>2021-02-17T14:18:04Z</time><name>PT8573</name></trkpt>
<trkpt lat="53.461494" lon="05.671394"><ele>-2.9</ele><time>2021-02-17T14:18:05Z</time><name>PT8574</name></trkpt>
<trkpt lat="53.461488" lon="05.671410"><ele>-2.9</ele><time>2021-02-17T14:18:06Z</time><name>PT8575</name></trkpt>
<trkpt lat="53.461482" lon="05.671426"><ele>-2.9</ele><time>2021-02-17T14:18:07Z</time><name>PT8576</name></trkpt>
<trkpt lat="53.461477" lon="05.671440"><ele>-2.8</ele><time>2021-02-17T14:18:08Z</time><name>PT8577</name></trkpt>
<trkpt lat="53.461474" lon="05.671454"><ele>-2.6</ele><time>2021-02-17T14:18:09Z</time><name>PT8578</name></trkpt>
<trkpt lat="53.461472" lon="05.671472"><ele>-2.5</ele><time>2021-02-17T14:18:10Z</time><name>PT8579</name></trkpt>
<trkpt lat="53.461468" lon="05.671493"><ele>-2.6</ele><time>2021-02-17T14:18:11Z</time><name>PT8580</name></trkpt>
<trkpt lat="53.461460" lon="05.671510"><ele>-2.7</ele><time>2021-02-17T14:18:12Z</time><name>PT8581</name></trkpt>
<trkpt lat="53.461457" lon="05.671526"><ele>-2.6</ele><time>2021-02-17T14:18:13Z</time><name>PT8582</name></trkpt>
<trkpt lat="53.461451" lon="05.671542"><ele>-2.6</ele><time>2021-02-17T14:18:14Z</time><name>PT8583</name></trkpt>
<trkpt lat="53.461446" lon="05.671558"><ele>-2.6</ele><time>2021-02-17T14:18:15Z</time><name>PT8584</name></trkpt>
<trkpt lat="53.461442" lon="05.671574"><ele>-2.7</ele><time>2021-02-17T14:18:16Z</time><name>PT8585</name></trkpt>
<trkpt lat="53.461438" lon="05.671588"><ele>-2.6</ele><time>2021-02-17T14:18:17Z</time><name>PT8586</name></trkpt>
<trkpt lat="53.461436" lon="05.671606"><ele>-2.8</ele><time>2021-02-17T14:18:18Z</time><name>PT8587</name></trkpt>
<trkpt lat="53.461435" lon="05.671622"><ele>-2.6</ele><time>2021-02-17T14:18:19Z</time><name>PT8588</name></trkpt>
<trkpt lat="53.461434" lon="05.671637"><ele>-2.5</ele><time>2021-02-17T14:18:20Z</time><name>PT8589</name></trkpt>
<trkpt lat="53.461433" lon="05.671656"><ele>-2.5</ele><time>2021-02-17T14:18:21Z</time><name>PT8590</name></trkpt>
<trkpt lat="53.461431" lon="05.671674"><ele>-2.4</ele><time>2021-02-17T14:18:22Z</time><name>PT8591</name></trkpt>
<trkpt lat="53.461430" lon="05.671689"><ele>-2.3</ele><time>2021-02-17T14:18:23Z</time><name>PT8592</name></trkpt>
<trkpt lat="53.461427" lon="05.671703"><ele>-2.2</ele><time>2021-02-17T14:18:24Z</time><name>PT8593</name></trkpt>
<trkpt lat="53.461422" lon="05.671717"><ele>-2.1</ele><time>2021-02-17T14:18:25Z</time><name>PT8594</name></trkpt>
<trkpt lat="53.461419" lon="05.671735"><ele>-2.1</ele><time>2021-02-17T14:18:26Z</time><name>PT8595</name></trkpt>
<trkpt lat="53.461416" lon="05.671750"><ele>-2.1</ele><time>2021-02-17T14:18:27Z</time><name>PT8596</name></trkpt>
<trkpt lat="53.461412" lon="05.671765"><ele>-2.4</ele><time>2021-02-17T14:18:28Z</time><name>PT8597</name></trkpt>
<trkpt lat="53.461410" lon="05.671781"><ele>-2.4</ele><time>2021-02-17T14:18:29Z</time><name>PT8598</name></trkpt>
<trkpt lat="53.461409" lon="05.671797"><ele>-2.5</ele><time>2021-02-17T14:18:30Z</time><name>PT8599</name></trkpt>
<trkpt lat="53.461406" lon="05.671815"><ele>-2.5</ele><time>2021-02-17T14:18:31Z</time><name>PT8600</name></trkpt>
<trkpt lat="53.461406" lon="05.671830"><ele>-2.6</ele><time>2021-02-17T14:18:32Z</time><name>PT8601</name></trkpt>
<trkpt lat="53.461406" lon="05.671845"><ele>-2.5</ele><time>2021-02-17T14:18:33Z</time><name>PT8602</name></trkpt>
<trkpt lat="53.461402" lon="05.671856"><ele>-2.6</ele><time>2021-02-17T14:18:34Z</time><name>PT8603</name></trkpt>
<trkpt lat="53.461398" lon="05.671871"><ele>-2.6</ele><time>2021-02-17T14:18:35Z</time><name>PT8604</name></trkpt>
<trkpt lat="53.461394" lon="05.671887"><ele>-2.5</ele><time>2021-02-17T14:18:36Z</time><name>PT8605</name></trkpt>
<trkpt lat="53.461393" lon="05.671904"><ele>-2.8</ele><time>2021-02-17T14:18:37Z</time><name>PT8606</name></trkpt>
<trkpt lat="53.461393" lon="05.671914"><ele>-2.7</ele><time>2021-02-17T14:18:38Z</time><name>PT8607</name></trkpt>
<trkpt lat="53.461390" lon="05.671929"><ele>-2.8</ele><time>2021-02-17T14:18:39Z</time><name>PT8608</name></trkpt>
<trkpt lat="53.461387" lon="05.671944"><ele>-2.7</ele><time>2021-02-17T14:18:40Z</time><name>PT8609</name></trkpt>
<trkpt lat="53.461386" lon="05.671959"><ele>-2.8</ele><time>2021-02-17T14:18:41Z</time><name>PT8610</name></trkpt>
<trkpt lat="53.461385" lon="05.671967"><ele>-2.8</ele><time>2021-02-17T14:18:42Z</time><name>PT8611</name></trkpt>
<trkpt lat="53.461384" lon="05.671978"><ele>-2.7</ele><time>2021-02-17T14:18:43Z</time><name>PT8612</name></trkpt>
<trkpt lat="53.461383" lon="05.671990"><ele>-2.6</ele><time>2021-02-17T14:18:44Z</time><name>PT8613</name></trkpt>
<trkpt lat="53.461381" lon="05.672004"><ele>-2.6</ele><time>2021-02-17T14:18:45Z</time><name>PT8614</name></trkpt>
<trkpt lat="53.461379" lon="05.672019"><ele>-2.5</ele><time>2021-02-17T14:18:46Z</time><name>PT8615</name></trkpt>
<trkpt lat="53.461378" lon="05.672034"><ele>-2.5</ele><time>2021-02-17T14:18:47Z</time><name>PT8616</name></trkpt>
<trkpt lat="53.461377" lon="05.672049"><ele>-2.5</ele><time>2021-02-17T14:18:48Z</time><name>PT8617</name></trkpt>
<trkpt lat="53.461371" lon="05.672067"><ele>-2.6</ele><time>2021-02-17T14:18:49Z</time><name>PT8618</name></trkpt>
<trkpt lat="53.461369" lon="05.672081"><ele>-2.7</ele><time>2021-02-17T14:18:50Z</time><name>PT8619</name></trkpt>
<trkpt lat="53.461371" lon="05.672095"><ele>-2.8</ele><time>2021-02-17T14:18:51Z</time><name>PT8620</name></trkpt>
<trkpt lat="53.461370" lon="05.672110"><ele>-2.7</ele><time>2021-02-17T14:18:52Z</time><name>PT8621</name></trkpt>
<trkpt lat="53.461367" lon="05.672126"><ele>-2.5</ele><time>2021-02-17T14:18:53Z</time><name>PT8622</name></trkpt>
<trkpt lat="53.461365" lon="05.672144"><ele>-2.6</ele><time>2021-02-17T14:18:54Z</time><name>PT8623</name></trkpt>
<trkpt lat="53.461364" lon="05.672162"><ele>-2.4</ele><time>2021-02-17T14:18:55Z</time><name>PT8624</name></trkpt>
<trkpt lat="53.461363" lon="05.672180"><ele>-2.4</ele><time>2021-02-17T14:18:56Z</time><name>PT8625</name></trkpt>
<trkpt lat="53.461363" lon="05.672198"><ele>-2.4</ele><time>2021-02-17T14:18:57Z</time><name>PT8626</name></trkpt>
<trkpt lat="53.461364" lon="05.672209"><ele>-2.5</ele><time>2021-02-17T14:18:58Z</time><name>PT8627</name></trkpt>
<trkpt lat="53.461362" lon="05.672218"><ele>-2.4</ele><time>2021-02-17T14:18:59Z</time><name>PT8628</name></trkpt>
<trkpt lat="53.461360" lon="05.672232"><ele>-2.4</ele><time>2021-02-17T14:19:00Z</time><name>PT8629</name></trkpt>
<trkpt lat="53.461362" lon="05.672242"><ele>-2.4</ele><time>2021-02-17T14:19:01Z</time><name>PT8630</name></trkpt>
<trkpt lat="53.461363" lon="05.672251"><ele>-2.5</ele><time>2021-02-17T14:19:02Z</time><name>PT8631</name></trkpt>
<trkpt lat="53.461366" lon="05.672265"><ele>-2.5</ele><time>2021-02-17T14:19:03Z</time><name>PT8632</name></trkpt>
<trkpt lat="53.461369" lon="05.672276"><ele>-2.6</ele><time>2021-02-17T14:19:04Z</time><name>PT8633</name></trkpt>
<trkpt lat="53.461371" lon="05.672286"><ele>-2.7</ele><time>2021-02-17T14:19:05Z</time><name>PT8634</name></trkpt>
<trkpt lat="53.461372" lon="05.672292"><ele>-2.8</ele><time>2021-02-17T14:19:06Z</time><name>PT8635</name></trkpt>
<trkpt lat="53.461374" lon="05.672293"><ele>-2.9</ele><time>2021-02-17T14:19:07Z</time><name>PT8636</name></trkpt>
<trkpt lat="53.461372" lon="05.672292"><ele>-2.9</ele><time>2021-02-17T14:19:08Z</time><name>PT8637</name></trkpt>
<trkpt lat="53.461369" lon="05.672298"><ele>-2.9</ele><time>2021-02-17T14:19:09Z</time><name>PT8638</name></trkpt>
<trkpt lat="53.461365" lon="05.672299"><ele>-2.9</ele><time>2021-02-17T14:19:10Z</time><name>PT8639</name></trkpt>
<trkpt lat="53.461361" lon="05.672309"><ele>-2.7</ele><time>2021-02-17T14:19:11Z</time><name>PT8640</name></trkpt>
<trkpt lat="53.461359" lon="05.672317"><ele>-2.8</ele><time>2021-02-17T14:19:12Z</time><name>PT8641</name></trkpt>
<trkpt lat="53.461357" lon="05.672327"><ele>-2.8</ele><time>2021-02-17T14:19:13Z</time><name>PT8642</name></trkpt>
<trkpt lat="53.461355" lon="05.672338"><ele>-2.7</ele><time>2021-02-17T14:19:14Z</time><name>PT8643</name></trkpt>
<trkpt lat="53.461351" lon="05.672349"><ele>-2.8</ele><time>2021-02-17T14:19:15Z</time><name>PT8644</name></trkpt>
<trkpt lat="53.461349" lon="05.672362"><ele>-2.7</ele><time>2021-02-17T14:19:16Z</time><name>PT8645</name></trkpt>
<trkpt lat="53.461346" lon="05.672374"><ele>-2.5</ele><time>2021-02-17T14:19:17Z</time><name>PT8646</name></trkpt>
<trkpt lat="53.461345" lon="05.672385"><ele>-2.4</ele><time>2021-02-17T14:19:18Z</time><name>PT8647</name></trkpt>
<trkpt lat="53.461344" lon="05.672395"><ele>-2.4</ele><time>2021-02-17T14:19:19Z</time><name>PT8648</name></trkpt>
<trkpt lat="53.461337" lon="05.672408"><ele>-2.4</ele><time>2021-02-17T14:19:20Z</time><name>PT8649</name></trkpt>
<trkpt lat="53.461336" lon="05.672420"><ele>-2.4</ele><time>2021-02-17T14:19:21Z</time><name>PT8650</name></trkpt>
<trkpt lat="53.461338" lon="05.672429"><ele>-2.4</ele><time>2021-02-17T14:19:22Z</time><name>PT8651</name></trkpt>
<trkpt lat="53.461338" lon="05.672444"><ele>-2.6</ele><time>2021-02-17T14:19:23Z</time><name>PT8652</name></trkpt>
<trkpt lat="53.461337" lon="05.672460"><ele>-2.6</ele><time>2021-02-17T14:19:24Z</time><name>PT8653</name></trkpt>
<trkpt lat="53.461336" lon="05.672475"><ele>-2.6</ele><time>2021-02-17T14:19:25Z</time><name>PT8654</name></trkpt>
<trkpt lat="53.461334" lon="05.672490"><ele>-2.6</ele><time>2021-02-17T14:19:26Z</time><name>PT8655</name></trkpt>
<trkpt lat="53.461332" lon="05.672504"><ele>-2.5</ele><time>2021-02-17T14:19:27Z</time><name>PT8656</name></trkpt>
<trkpt lat="53.461330" lon="05.672517"><ele>-2.5</ele><time>2021-02-17T14:19:28Z</time><name>PT8657</name></trkpt>
<trkpt lat="53.461331" lon="05.672526"><ele>-2.6</ele><time>2021-02-17T14:19:29Z</time><name>PT8658</name></trkpt>
<trkpt lat="53.461331" lon="05.672543"><ele>-2.7</ele><time>2021-02-17T14:19:30Z</time><name>PT8659</name></trkpt>
<trkpt lat="53.461330" lon="05.672553"><ele>-2.9</ele><time>2021-02-17T14:19:31Z</time><name>PT8660</name></trkpt>
<trkpt lat="53.461329" lon="05.672558"><ele>-2.9</ele><time>2021-02-17T14:19:32Z</time><name>PT8661</name></trkpt>
<trkpt lat="53.461328" lon="05.672570"><ele>-3</ele><time>2021-02-17T14:19:33Z</time><name>PT8662</name></trkpt>
<trkpt lat="53.461328" lon="05.672584"><ele>-3</ele><time>2021-02-17T14:19:34Z</time><name>PT8663</name></trkpt>
<trkpt lat="53.461327" lon="05.672596"><ele>-2.9</ele><time>2021-02-17T14:19:35Z</time><name>PT8664</name></trkpt>
<trkpt lat="53.461324" lon="05.672610"><ele>-2.9</ele><time>2021-02-17T14:19:36Z</time><name>PT8665</name></trkpt>
<trkpt lat="53.461323" lon="05.672621"><ele>-2.8</ele><time>2021-02-17T14:19:37Z</time><name>PT8666</name></trkpt>
<trkpt lat="53.461322" lon="05.672635"><ele>-2.8</ele><time>2021-02-17T14:19:38Z</time><name>PT8667</name></trkpt>
<trkpt lat="53.461326" lon="05.672641"><ele>-2.7</ele><time>2021-02-17T14:19:39Z</time><name>PT8668</name></trkpt>
<trkpt lat="53.461329" lon="05.672649"><ele>-2.6</ele><time>2021-02-17T14:19:40Z</time><name>PT8669</name></trkpt>
<trkpt lat="53.461329" lon="05.672658"><ele>-2.6</ele><time>2021-02-17T14:19:41Z</time><name>PT8670</name></trkpt>
<trkpt lat="53.461327" lon="05.672670"><ele>-2.8</ele><time>2021-02-17T14:19:42Z</time><name>PT8671</name></trkpt>
<trkpt lat="53.461325" lon="05.672684"><ele>-2.7</ele><time>2021-02-17T14:19:43Z</time><name>PT8672</name></trkpt>
<trkpt lat="53.461323" lon="05.672698"><ele>-2.7</ele><time>2021-02-17T14:19:44Z</time><name>PT8673</name></trkpt>
<trkpt lat="53.461321" lon="05.672713"><ele>-2.7</ele><time>2021-02-17T14:19:45Z</time><name>PT8674</name></trkpt>
<trkpt lat="53.461318" lon="05.672729"><ele>-2.8</ele><time>2021-02-17T14:19:46Z</time><name>PT8675</name></trkpt>
<trkpt lat="53.461314" lon="05.672744"><ele>-2.9</ele><time>2021-02-17T14:19:47Z</time><name>PT8676</name></trkpt>
<trkpt lat="53.461312" lon="05.672755"><ele>-2.9</ele><time>2021-02-17T14:19:48Z</time><name>PT8677</name></trkpt>
<trkpt lat="53.461311" lon="05.672770"><ele>-3</ele><time>2021-02-17T14:19:49Z</time><name>PT8678</name></trkpt>
<trkpt lat="53.461312" lon="05.672783"><ele>-3</ele><time>2021-02-17T14:19:50Z</time><name>PT8679</name></trkpt>
<trkpt lat="53.461311" lon="05.672799"><ele>-3.1</ele><time>2021-02-17T14:19:51Z</time><name>PT8680</name></trkpt>
<trkpt lat="53.461310" lon="05.672813"><ele>-2.9</ele><time>2021-02-17T14:19:52Z</time><name>PT8681</name></trkpt>
<trkpt lat="53.461309" lon="05.672827"><ele>-2.6</ele><time>2021-02-17T14:19:53Z</time><name>PT8682</name></trkpt>
<trkpt lat="53.461308" lon="05.672840"><ele>-2.8</ele><time>2021-02-17T14:19:54Z</time><name>PT8683</name></trkpt>
<trkpt lat="53.461308" lon="05.672855"><ele>-2.6</ele><time>2021-02-17T14:19:55Z</time><name>PT8684</name></trkpt>
<trkpt lat="53.461307" lon="05.672872"><ele>-2.7</ele><time>2021-02-17T14:19:56Z</time><name>PT8685</name></trkpt>
<trkpt lat="53.461305" lon="05.672889"><ele>-2.8</ele><time>2021-02-17T14:19:57Z</time><name>PT8686</name></trkpt>
<trkpt lat="53.461301" lon="05.672905"><ele>-2.8</ele><time>2021-02-17T14:19:58Z</time><name>PT8687</name></trkpt>
<trkpt lat="53.461299" lon="05.672917"><ele>-2.7</ele><time>2021-02-17T14:19:59Z</time><name>PT8688</name></trkpt>
<trkpt lat="53.461296" lon="05.672931"><ele>-2.6</ele><time>2021-02-17T14:20:00Z</time><name>PT8689</name></trkpt>
<trkpt lat="53.461293" lon="05.672948"><ele>-2.6</ele><time>2021-02-17T14:20:01Z</time><name>PT8690</name></trkpt>
<trkpt lat="53.461291" lon="05.672965"><ele>-2.6</ele><time>2021-02-17T14:20:02Z</time><name>PT8691</name></trkpt>
<trkpt lat="53.461289" lon="05.672981"><ele>-2.6</ele><time>2021-02-17T14:20:03Z</time><name>PT8692</name></trkpt>
<trkpt lat="53.461285" lon="05.672996"><ele>-2.7</ele><time>2021-02-17T14:20:04Z</time><name>PT8693</name></trkpt>
<trkpt lat="53.461281" lon="05.673012"><ele>-2.7</ele><time>2021-02-17T14:20:05Z</time><name>PT8694</name></trkpt>
<trkpt lat="53.461276" lon="05.673035"><ele>-2.7</ele><time>2021-02-17T14:20:06Z</time><name>PT8695</name></trkpt>
<trkpt lat="53.461275" lon="05.673053"><ele>-2.7</ele><time>2021-02-17T14:20:07Z</time><name>PT8696</name></trkpt>
<trkpt lat="53.461273" lon="05.673069"><ele>-2.6</ele><time>2021-02-17T14:20:08Z</time><name>PT8697</name></trkpt>
<trkpt lat="53.461273" lon="05.673085"><ele>-2.5</ele><time>2021-02-17T14:20:09Z</time><name>PT8698</name></trkpt>
<trkpt lat="53.461273" lon="05.673104"><ele>-2.7</ele><time>2021-02-17T14:20:10Z</time><name>PT8699</name></trkpt>
<trkpt lat="53.461274" lon="05.673123"><ele>-2.8</ele><time>2021-02-17T14:20:11Z</time><name>PT8700</name></trkpt>
<trkpt lat="53.461272" lon="05.673138"><ele>-2.8</ele><time>2021-02-17T14:20:12Z</time><name>PT8701</name></trkpt>
<trkpt lat="53.461269" lon="05.673155"><ele>-2.9</ele><time>2021-02-17T14:20:13Z</time><name>PT8702</name></trkpt>
<trkpt lat="53.461265" lon="05.673172"><ele>-2.8</ele><time>2021-02-17T14:20:14Z</time><name>PT8703</name></trkpt>
<trkpt lat="53.461263" lon="05.673185"><ele>-2.8</ele><time>2021-02-17T14:20:15Z</time><name>PT8704</name></trkpt>
<trkpt lat="53.461259" lon="05.673203"><ele>-2.7</ele><time>2021-02-17T14:20:16Z</time><name>PT8705</name></trkpt>
<trkpt lat="53.461257" lon="05.673220"><ele>-2.6</ele><time>2021-02-17T14:20:17Z</time><name>PT8706</name></trkpt>
<trkpt lat="53.461256" lon="05.673237"><ele>-2.5</ele><time>2021-02-17T14:20:18Z</time><name>PT8707</name></trkpt>
<trkpt lat="53.461254" lon="05.673256"><ele>-2.4</ele><time>2021-02-17T14:20:19Z</time><name>PT8708</name></trkpt>
<trkpt lat="53.461250" lon="05.673273"><ele>-2.5</ele><time>2021-02-17T14:20:20Z</time><name>PT8709</name></trkpt>
<trkpt lat="53.461248" lon="05.673289"><ele>-2.6</ele><time>2021-02-17T14:20:21Z</time><name>PT8710</name></trkpt>
<trkpt lat="53.461245" lon="05.673304"><ele>-2.9</ele><time>2021-02-17T14:20:22Z</time><name>PT8711</name></trkpt>
<trkpt lat="53.461244" lon="05.673319"><ele>-2.8</ele><time>2021-02-17T14:20:23Z</time><name>PT8712</name></trkpt>
<trkpt lat="53.461243" lon="05.673336"><ele>-2.9</ele><time>2021-02-17T14:20:24Z</time><name>PT8713</name></trkpt>
<trkpt lat="53.461243" lon="05.673352"><ele>-2.8</ele><time>2021-02-17T14:20:25Z</time><name>PT8714</name></trkpt>
<trkpt lat="53.461243" lon="05.673370"><ele>-2.6</ele><time>2021-02-17T14:20:26Z</time><name>PT8715</name></trkpt>
<trkpt lat="53.461244" lon="05.673385"><ele>-2.6</ele><time>2021-02-17T14:20:27Z</time><name>PT8716</name></trkpt>
<trkpt lat="53.461242" lon="05.673403"><ele>-2.5</ele><time>2021-02-17T14:20:28Z</time><name>PT8717</name></trkpt>
<trkpt lat="53.461241" lon="05.673422"><ele>-2.5</ele><time>2021-02-17T14:20:29Z</time><name>PT8718</name></trkpt>
<trkpt lat="53.461240" lon="05.673441"><ele>-2.5</ele><time>2021-02-17T14:20:30Z</time><name>PT8719</name></trkpt>
<trkpt lat="53.461239" lon="05.673456"><ele>-2.6</ele><time>2021-02-17T14:20:31Z</time><name>PT8720</name></trkpt>
<trkpt lat="53.461237" lon="05.673473"><ele>-2.8</ele><time>2021-02-17T14:20:32Z</time><name>PT8721</name></trkpt>
<trkpt lat="53.461235" lon="05.673491"><ele>-2.9</ele><time>2021-02-17T14:20:33Z</time><name>PT8722</name></trkpt>
<trkpt lat="53.461233" lon="05.673508"><ele>-2.9</ele><time>2021-02-17T14:20:34Z</time><name>PT8723</name></trkpt>
<trkpt lat="53.461232" lon="05.673523"><ele>-3</ele><time>2021-02-17T14:20:35Z</time><name>PT8724</name></trkpt>
<trkpt lat="53.461229" lon="05.673541"><ele>-2.9</ele><time>2021-02-17T14:20:36Z</time><name>PT8725</name></trkpt>
<trkpt lat="53.461227" lon="05.673559"><ele>-2.6</ele><time>2021-02-17T14:20:37Z</time><name>PT8726</name></trkpt>
<trkpt lat="53.461225" lon="05.673577"><ele>-2.7</ele><time>2021-02-17T14:20:38Z</time><name>PT8727</name></trkpt>
<trkpt lat="53.461228" lon="05.673597"><ele>-2.6</ele><time>2021-02-17T14:20:39Z</time><name>PT8728</name></trkpt>
<trkpt lat="53.461227" lon="05.673616"><ele>-2.7</ele><time>2021-02-17T14:20:40Z</time><name>PT8729</name></trkpt>
<trkpt lat="53.461228" lon="05.673633"><ele>-2.8</ele><time>2021-02-17T14:20:41Z</time><name>PT8730</name></trkpt>
<trkpt lat="53.461225" lon="05.673648"><ele>-2.8</ele><time>2021-02-17T14:20:42Z</time><name>PT8731</name></trkpt>
<trkpt lat="53.461222" lon="05.673665"><ele>-2.8</ele><time>2021-02-17T14:20:43Z</time><name>PT8732</name></trkpt>
<trkpt lat="53.461219" lon="05.673684"><ele>-2.7</ele><time>2021-02-17T14:20:44Z</time><name>PT8733</name></trkpt>
<trkpt lat="53.461218" lon="05.673701"><ele>-2.6</ele><time>2021-02-17T14:20:45Z</time><name>PT8734</name></trkpt>
<trkpt lat="53.461217" lon="05.673718"><ele>-2.7</ele><time>2021-02-17T14:20:46Z</time><name>PT8735</name></trkpt>
<trkpt lat="53.461213" lon="05.673736"><ele>-2.8</ele><time>2021-02-17T14:20:47Z</time><name>PT8736</name></trkpt>
<trkpt lat="53.461212" lon="05.673750"><ele>-2.9</ele><time>2021-02-17T14:20:48Z</time><name>PT8737</name></trkpt>
<trkpt lat="53.461211" lon="05.673765"><ele>-2.9</ele><time>2021-02-17T14:20:49Z</time><name>PT8738</name></trkpt>
<trkpt lat="53.461208" lon="05.673783"><ele>-2.9</ele><time>2021-02-17T14:20:50Z</time><name>PT8739</name></trkpt>
<trkpt lat="53.461206" lon="05.673800"><ele>-2.9</ele><time>2021-02-17T14:20:51Z</time><name>PT8740</name></trkpt>
<trkpt lat="53.461204" lon="05.673816"><ele>-2.9</ele><time>2021-02-17T14:20:52Z</time><name>PT8741</name></trkpt>
<trkpt lat="53.461202" lon="05.673832"><ele>-2.9</ele><time>2021-02-17T14:20:53Z</time><name>PT8742</name></trkpt>
<trkpt lat="53.461196" lon="05.673846"><ele>-2.9</ele><time>2021-02-17T14:20:54Z</time><name>PT8743</name></trkpt>
<trkpt lat="53.461195" lon="05.673862"><ele>-2.9</ele><time>2021-02-17T14:20:55Z</time><name>PT8744</name></trkpt>
<trkpt lat="53.461193" lon="05.673878"><ele>-2.8</ele><time>2021-02-17T14:20:56Z</time><name>PT8745</name></trkpt>
<trkpt lat="53.461190" lon="05.673896"><ele>-2.9</ele><time>2021-02-17T14:20:57Z</time><name>PT8746</name></trkpt>
<trkpt lat="53.461188" lon="05.673913"><ele>-2.9</ele><time>2021-02-17T14:20:58Z</time><name>PT8747</name></trkpt>
<trkpt lat="53.461186" lon="05.673930"><ele>-2.7</ele><time>2021-02-17T14:20:59Z</time><name>PT8748</name></trkpt>
<trkpt lat="53.461185" lon="05.673949"><ele>-2.6</ele><time>2021-02-17T14:21:00Z</time><name>PT8749</name></trkpt>
<trkpt lat="53.461185" lon="05.673965"><ele>-2.4</ele><time>2021-02-17T14:21:01Z</time><name>PT8750</name></trkpt>
<trkpt lat="53.461183" lon="05.673982"><ele>-2.5</ele><time>2021-02-17T14:21:02Z</time><name>PT8751</name></trkpt>
<trkpt lat="53.461182" lon="05.674001"><ele>-2.6</ele><time>2021-02-17T14:21:03Z</time><name>PT8752</name></trkpt>
<trkpt lat="53.461182" lon="05.674022"><ele>-2.8</ele><time>2021-02-17T14:21:04Z</time><name>PT8753</name></trkpt>
<trkpt lat="53.461181" lon="05.674040"><ele>-2.8</ele><time>2021-02-17T14:21:05Z</time><name>PT8754</name></trkpt>
<trkpt lat="53.461180" lon="05.674057"><ele>-2.8</ele><time>2021-02-17T14:21:06Z</time><name>PT8755</name></trkpt>
<trkpt lat="53.461179" lon="05.674074"><ele>-2.8</ele><time>2021-02-17T14:21:07Z</time><name>PT8756</name></trkpt>
<trkpt lat="53.461179" lon="05.674093"><ele>-2.6</ele><time>2021-02-17T14:21:08Z</time><name>PT8757</name></trkpt>
<trkpt lat="53.461179" lon="05.674112"><ele>-2.8</ele><time>2021-02-17T14:21:09Z</time><name>PT8758</name></trkpt>
<trkpt lat="53.461177" lon="05.674130"><ele>-2.9</ele><time>2021-02-17T14:21:10Z</time><name>PT8759</name></trkpt>
<trkpt lat="53.461174" lon="05.674147"><ele>-2.9</ele><time>2021-02-17T14:21:11Z</time><name>PT8760</name></trkpt>
<trkpt lat="53.461173" lon="05.674162"><ele>-2.8</ele><time>2021-02-17T14:21:12Z</time><name>PT8761</name></trkpt>
<trkpt lat="53.461171" lon="05.674180"><ele>-2.6</ele><time>2021-02-17T14:21:13Z</time><name>PT8762</name></trkpt>
<trkpt lat="53.461171" lon="05.674197"><ele>-2.5</ele><time>2021-02-17T14:21:14Z</time><name>PT8763</name></trkpt>
<trkpt lat="53.461170" lon="05.674216"><ele>-2.7</ele><time>2021-02-17T14:21:15Z</time><name>PT8764</name></trkpt>
<trkpt lat="53.461168" lon="05.674233"><ele>-2.7</ele><time>2021-02-17T14:21:16Z</time><name>PT8765</name></trkpt>
<trkpt lat="53.461166" lon="05.674249"><ele>-2.8</ele><time>2021-02-17T14:21:17Z</time><name>PT8766</name></trkpt>
<trkpt lat="53.461164" lon="05.674268"><ele>-2.8</ele><time>2021-02-17T14:21:18Z</time><name>PT8767</name></trkpt>
<trkpt lat="53.461163" lon="05.674287"><ele>-2.9</ele><time>2021-02-17T14:21:19Z</time><name>PT8768</name></trkpt>
<trkpt lat="53.461161" lon="05.674304"><ele>-3.1</ele><time>2021-02-17T14:21:20Z</time><name>PT8769</name></trkpt>
<trkpt lat="53.461158" lon="05.674322"><ele>-3</ele><time>2021-02-17T14:21:21Z</time><name>PT8770</name></trkpt>
<trkpt lat="53.461157" lon="05.674342"><ele>-3.1</ele><time>2021-02-17T14:21:22Z</time><name>PT8771</name></trkpt>
<trkpt lat="53.461158" lon="05.674358"><ele>-3</ele><time>2021-02-17T14:21:23Z</time><name>PT8772</name></trkpt>
<trkpt lat="53.461159" lon="05.674367"><ele>-2.9</ele><time>2021-02-17T14:21:24Z</time><name>PT8773</name></trkpt>
<trkpt lat="53.461158" lon="05.674386"><ele>-2.8</ele><time>2021-02-17T14:21:25Z</time><name>PT8774</name></trkpt>
<trkpt lat="53.461157" lon="05.674406"><ele>-2.8</ele><time>2021-02-17T14:21:26Z</time><name>PT8775</name></trkpt>
<trkpt lat="53.461157" lon="05.674426"><ele>-2.8</ele><time>2021-02-17T14:21:27Z</time><name>PT8776</name></trkpt>
<trkpt lat="53.461158" lon="05.674445"><ele>-2.6</ele><time>2021-02-17T14:21:28Z</time><name>PT8777</name></trkpt>
<trkpt lat="53.461156" lon="05.674461"><ele>-2.6</ele><time>2021-02-17T14:21:29Z</time><name>PT8778</name></trkpt>
<trkpt lat="53.461154" lon="05.674480"><ele>-2.6</ele><time>2021-02-17T14:21:30Z</time><name>PT8779</name></trkpt>
<trkpt lat="53.461151" lon="05.674503"><ele>-2.6</ele><time>2021-02-17T14:21:31Z</time><name>PT8780</name></trkpt>
<trkpt lat="53.461149" lon="05.674522"><ele>-2.9</ele><time>2021-02-17T14:21:32Z</time><name>PT8781</name></trkpt>
<trkpt lat="53.461148" lon="05.674538"><ele>-2.9</ele><time>2021-02-17T14:21:33Z</time><name>PT8782</name></trkpt>
<trkpt lat="53.461147" lon="05.674556"><ele>-3</ele><time>2021-02-17T14:21:34Z</time><name>PT8783</name></trkpt>
<trkpt lat="53.461147" lon="05.674574"><ele>-3</ele><time>2021-02-17T14:21:35Z</time><name>PT8784</name></trkpt>
<trkpt lat="53.461146" lon="05.674593"><ele>-2.9</ele><time>2021-02-17T14:21:36Z</time><name>PT8785</name></trkpt>
<trkpt lat="53.461145" lon="05.674615"><ele>-2.7</ele><time>2021-02-17T14:21:37Z</time><name>PT8786</name></trkpt>
<trkpt lat="53.461144" lon="05.674636"><ele>-2.6</ele><time>2021-02-17T14:21:38Z</time><name>PT8787</name></trkpt>
<trkpt lat="53.461146" lon="05.674647"><ele>-2.7</ele><time>2021-02-17T14:21:39Z</time><name>PT8788</name></trkpt>
<trkpt lat="53.461147" lon="05.674661"><ele>-2.9</ele><time>2021-02-17T14:21:40Z</time><name>PT8789</name></trkpt>
<trkpt lat="53.461147" lon="05.674682"><ele>-3</ele><time>2021-02-17T14:21:41Z</time><name>PT8790</name></trkpt>
<trkpt lat="53.461143" lon="05.674700"><ele>-2.9</ele><time>2021-02-17T14:21:42Z</time><name>PT8791</name></trkpt>
<trkpt lat="53.461143" lon="05.674717"><ele>-2.9</ele><time>2021-02-17T14:21:43Z</time><name>PT8792</name></trkpt>
<trkpt lat="53.461142" lon="05.674735"><ele>-2.7</ele><time>2021-02-17T14:21:44Z</time><name>PT8793</name></trkpt>
<trkpt lat="53.461141" lon="05.674751"><ele>-2.6</ele><time>2021-02-17T14:21:45Z</time><name>PT8794</name></trkpt>
<trkpt lat="53.461139" lon="05.674766"><ele>-2.7</ele><time>2021-02-17T14:21:46Z</time><name>PT8795</name></trkpt>
<trkpt lat="53.461138" lon="05.674786"><ele>-2.8</ele><time>2021-02-17T14:21:47Z</time><name>PT8796</name></trkpt>
<trkpt lat="53.461137" lon="05.674803"><ele>-2.9</ele><time>2021-02-17T14:21:48Z</time><name>PT8797</name></trkpt>
<trkpt lat="53.461135" lon="05.674818"><ele>-2.8</ele><time>2021-02-17T14:21:49Z</time><name>PT8798</name></trkpt>
<trkpt lat="53.461132" lon="05.674833"><ele>-2.8</ele><time>2021-02-17T14:21:50Z</time><name>PT8799</name></trkpt>
<trkpt lat="53.461130" lon="05.674851"><ele>-2.8</ele><time>2021-02-17T14:21:51Z</time><name>PT8800</name></trkpt>
<trkpt lat="53.461130" lon="05.674868"><ele>-2.9</ele><time>2021-02-17T14:21:52Z</time><name>PT8801</name></trkpt>
<trkpt lat="53.461126" lon="05.674886"><ele>-2.9</ele><time>2021-02-17T14:21:53Z</time><name>PT8802</name></trkpt>
<trkpt lat="53.461122" lon="05.674904"><ele>-3</ele><time>2021-02-17T14:21:54Z</time><name>PT8803</name></trkpt>
<trkpt lat="53.461121" lon="05.674920"><ele>-3.1</ele><time>2021-02-17T14:21:55Z</time><name>PT8804</name></trkpt>
<trkpt lat="53.461119" lon="05.674938"><ele>-3</ele><time>2021-02-17T14:21:56Z</time><name>PT8805</name></trkpt>
<trkpt lat="53.461118" lon="05.674956"><ele>-3</ele><time>2021-02-17T14:21:57Z</time><name>PT8806</name></trkpt>
<trkpt lat="53.461117" lon="05.674977"><ele>-3</ele><time>2021-02-17T14:21:58Z</time><name>PT8807</name></trkpt>
<trkpt lat="53.461116" lon="05.674994"><ele>-2.9</ele><time>2021-02-17T14:21:59Z</time><name>PT8808</name></trkpt>
<trkpt lat="53.461117" lon="05.675009"><ele>-2.9</ele><time>2021-02-17T14:22:00Z</time><name>PT8809</name></trkpt>
<trkpt lat="53.461115" lon="05.675023"><ele>-2.9</ele><time>2021-02-17T14:22:01Z</time><name>PT8810</name></trkpt>
<trkpt lat="53.461112" lon="05.675040"><ele>-2.8</ele><time>2021-02-17T14:22:02Z</time><name>PT8811</name></trkpt>
<trkpt lat="53.461109" lon="05.675058"><ele>-2.9</ele><time>2021-02-17T14:22:03Z</time><name>PT8812</name></trkpt>
<trkpt lat="53.461108" lon="05.675076"><ele>-2.9</ele><time>2021-02-17T14:22:04Z</time><name>PT8813</name></trkpt>
<trkpt lat="53.461108" lon="05.675094"><ele>-2.9</ele><time>2021-02-17T14:22:05Z</time><name>PT8814</name></trkpt>
<trkpt lat="53.461108" lon="05.675111"><ele>-2.9</ele><time>2021-02-17T14:22:06Z</time><name>PT8815</name></trkpt>
<trkpt lat="53.461108" lon="05.675126"><ele>-2.9</ele><time>2021-02-17T14:22:07Z</time><name>PT8816</name></trkpt>
<trkpt lat="53.461107" lon="05.675143"><ele>-2.9</ele><time>2021-02-17T14:22:08Z</time><name>PT8817</name></trkpt>
<trkpt lat="53.461107" lon="05.675161"><ele>-2.9</ele><time>2021-02-17T14:22:09Z</time><name>PT8818</name></trkpt>
<trkpt lat="53.461106" lon="05.675182"><ele>-2.7</ele><time>2021-02-17T14:22:10Z</time><name>PT8819</name></trkpt>
<trkpt lat="53.461106" lon="05.675200"><ele>-2.4</ele><time>2021-02-17T14:22:11Z</time><name>PT8820</name></trkpt>
<trkpt lat="53.461106" lon="05.675217"><ele>-2.4</ele><time>2021-02-17T14:22:12Z</time><name>PT8821</name></trkpt>
<trkpt lat="53.461104" lon="05.675235"><ele>-2.4</ele><time>2021-02-17T14:22:13Z</time><name>PT8822</name></trkpt>
<trkpt lat="53.461103" lon="05.675249"><ele>-2.4</ele><time>2021-02-17T14:22:14Z</time><name>PT8823</name></trkpt>
<trkpt lat="53.461101" lon="05.675264"><ele>-2.6</ele><time>2021-02-17T14:22:15Z</time><name>PT8824</name></trkpt>
<trkpt lat="53.461098" lon="05.675280"><ele>-2.8</ele><time>2021-02-17T14:22:16Z</time><name>PT8825</name></trkpt>
<trkpt lat="53.461096" lon="05.675296"><ele>-2.9</ele><time>2021-02-17T14:22:17Z</time><name>PT8826</name></trkpt>
<trkpt lat="53.461093" lon="05.675312"><ele>-2.9</ele><time>2021-02-17T14:22:18Z</time><name>PT8827</name></trkpt>
<trkpt lat="53.461091" lon="05.675327"><ele>-2.9</ele><time>2021-02-17T14:22:19Z</time><name>PT8828</name></trkpt>
<trkpt lat="53.461089" lon="05.675344"><ele>-3.1</ele><time>2021-02-17T14:22:20Z</time><name>PT8829</name></trkpt>
<trkpt lat="53.461087" lon="05.675362"><ele>-3.1</ele><time>2021-02-17T14:22:21Z</time><name>PT8830</name></trkpt>
<trkpt lat="53.461084" lon="05.675379"><ele>-3.1</ele><time>2021-02-17T14:22:22Z</time><name>PT8831</name></trkpt>
<trkpt lat="53.461082" lon="05.675395"><ele>-3</ele><time>2021-02-17T14:22:23Z</time><name>PT8832</name></trkpt>
<trkpt lat="53.461078" lon="05.675411"><ele>-2.9</ele><time>2021-02-17T14:22:24Z</time><name>PT8833</name></trkpt>
<trkpt lat="53.461076" lon="05.675428"><ele>-2.7</ele><time>2021-02-17T14:22:25Z</time><name>PT8834</name></trkpt>
<trkpt lat="53.461074" lon="05.675444"><ele>-2.5</ele><time>2021-02-17T14:22:26Z</time><name>PT8835</name></trkpt>
<trkpt lat="53.461072" lon="05.675461"><ele>-2.5</ele><time>2021-02-17T14:22:27Z</time><name>PT8836</name></trkpt>
<trkpt lat="53.461071" lon="05.675477"><ele>-2.4</ele><time>2021-02-17T14:22:28Z</time><name>PT8837</name></trkpt>
<trkpt lat="53.461070" lon="05.675493"><ele>-2.6</ele><time>2021-02-17T14:22:29Z</time><name>PT8838</name></trkpt>
<trkpt lat="53.461068" lon="05.675514"><ele>-2.7</ele><time>2021-02-17T14:22:30Z</time><name>PT8839</name></trkpt>
<trkpt lat="53.461066" lon="05.675531"><ele>-2.8</ele><time>2021-02-17T14:22:31Z</time><name>PT8840</name></trkpt>
<trkpt lat="53.461066" lon="05.675547"><ele>-2.9</ele><time>2021-02-17T14:22:32Z</time><name>PT8841</name></trkpt>
<trkpt lat="53.461065" lon="05.675564"><ele>-2.7</ele><time>2021-02-17T14:22:33Z</time><name>PT8842</name></trkpt>
<trkpt lat="53.461063" lon="05.675581"><ele>-2.7</ele><time>2021-02-17T14:22:34Z</time><name>PT8843</name></trkpt>
<trkpt lat="53.461062" lon="05.675598"><ele>-2.9</ele><time>2021-02-17T14:22:35Z</time><name>PT8844</name></trkpt>
<trkpt lat="53.461060" lon="05.675613"><ele>-2.8</ele><time>2021-02-17T14:22:36Z</time><name>PT8845</name></trkpt>
<trkpt lat="53.461058" lon="05.675628"><ele>-3</ele><time>2021-02-17T14:22:37Z</time><name>PT8846</name></trkpt>
<trkpt lat="53.461055" lon="05.675645"><ele>-3</ele><time>2021-02-17T14:22:38Z</time><name>PT8847</name></trkpt>
<trkpt lat="53.461053" lon="05.675663"><ele>-2.9</ele><time>2021-02-17T14:22:39Z</time><name>PT8848</name></trkpt>
<trkpt lat="53.461053" lon="05.675683"><ele>-2.8</ele><time>2021-02-17T14:22:40Z</time><name>PT8849</name></trkpt>
<trkpt lat="53.461053" lon="05.675700"><ele>-2.6</ele><time>2021-02-17T14:22:41Z</time><name>PT8850</name></trkpt>
<trkpt lat="53.461052" lon="05.675714"><ele>-2.6</ele><time>2021-02-17T14:22:42Z</time><name>PT8851</name></trkpt>
<trkpt lat="53.461049" lon="05.675730"><ele>-2.9</ele><time>2021-02-17T14:22:43Z</time><name>PT8852</name></trkpt>
<trkpt lat="53.461045" lon="05.675744"><ele>-2.9</ele><time>2021-02-17T14:22:44Z</time><name>PT8853</name></trkpt>
<trkpt lat="53.461042" lon="05.675761"><ele>-3</ele><time>2021-02-17T14:22:45Z</time><name>PT8854</name></trkpt>
<trkpt lat="53.461041" lon="05.675777"><ele>-3</ele><time>2021-02-17T14:22:46Z</time><name>PT8855</name></trkpt>
<trkpt lat="53.461041" lon="05.675792"><ele>-2.9</ele><time>2021-02-17T14:22:47Z</time><name>PT8856</name></trkpt>
<trkpt lat="53.461040" lon="05.675809"><ele>-2.9</ele><time>2021-02-17T14:22:48Z</time><name>PT8857</name></trkpt>
<trkpt lat="53.461041" lon="05.675825"><ele>-2.8</ele><time>2021-02-17T14:22:49Z</time><name>PT8858</name></trkpt>
<trkpt lat="53.461042" lon="05.675841"><ele>-2.9</ele><time>2021-02-17T14:22:50Z</time><name>PT8859</name></trkpt>
<trkpt lat="53.461041" lon="05.675851"><ele>-2.8</ele><time>2021-02-17T14:22:51Z</time><name>PT8860</name></trkpt>
<trkpt lat="53.461039" lon="05.675871"><ele>-2.7</ele><time>2021-02-17T14:22:52Z</time><name>PT8861</name></trkpt>
<trkpt lat="53.461039" lon="05.675888"><ele>-2.8</ele><time>2021-02-17T14:22:53Z</time><name>PT8862</name></trkpt>
<trkpt lat="53.461038" lon="05.675902"><ele>-2.9</ele><time>2021-02-17T14:22:54Z</time><name>PT8863</name></trkpt>
<trkpt lat="53.461036" lon="05.675917"><ele>-3.1</ele><time>2021-02-17T14:22:55Z</time><name>PT8864</name></trkpt>
<trkpt lat="53.461036" lon="05.675933"><ele>-3.1</ele><time>2021-02-17T14:22:56Z</time><name>PT8865</name></trkpt>
<trkpt lat="53.461037" lon="05.675948"><ele>-3.1</ele><time>2021-02-17T14:22:57Z</time><name>PT8866</name></trkpt>
<trkpt lat="53.461037" lon="05.675963"><ele>-2.9</ele><time>2021-02-17T14:22:58Z</time><name>PT8867</name></trkpt>
<trkpt lat="53.461036" lon="05.675980"><ele>-3</ele><time>2021-02-17T14:22:59Z</time><name>PT8868</name></trkpt>
<trkpt lat="53.461035" lon="05.675996"><ele>-2.9</ele><time>2021-02-17T14:23:00Z</time><name>PT8869</name></trkpt>
<trkpt lat="53.461034" lon="05.676012"><ele>-3.1</ele><time>2021-02-17T14:23:01Z</time><name>PT8870</name></trkpt>
<trkpt lat="53.461034" lon="05.676027"><ele>-3.2</ele><time>2021-02-17T14:23:02Z</time><name>PT8871</name></trkpt>
<trkpt lat="53.461033" lon="05.676044"><ele>-3.1</ele><time>2021-02-17T14:23:03Z</time><name>PT8872</name></trkpt>
<trkpt lat="53.461031" lon="05.676061"><ele>-3</ele><time>2021-02-17T14:23:04Z</time><name>PT8873</name></trkpt>
<trkpt lat="53.461028" lon="05.676075"><ele>-3</ele><time>2021-02-17T14:23:05Z</time><name>PT8874</name></trkpt>
<trkpt lat="53.461027" lon="05.676089"><ele>-2.9</ele><time>2021-02-17T14:23:06Z</time><name>PT8875</name></trkpt>
<trkpt lat="53.461024" lon="05.676104"><ele>-2.9</ele><time>2021-02-17T14:23:07Z</time><name>PT8876</name></trkpt>
<trkpt lat="53.461023" lon="05.676118"><ele>-2.9</ele><time>2021-02-17T14:23:08Z</time><name>PT8877</name></trkpt>
<trkpt lat="53.461022" lon="05.676132"><ele>-2.9</ele><time>2021-02-17T14:23:09Z</time><name>PT8878</name></trkpt>
<trkpt lat="53.461019" lon="05.676147"><ele>-2.8</ele><time>2021-02-17T14:23:10Z</time><name>PT8879</name></trkpt>
<trkpt lat="53.461015" lon="05.676163"><ele>-2.8</ele><time>2021-02-17T14:23:11Z</time><name>PT8880</name></trkpt>
<trkpt lat="53.461016" lon="05.676180"><ele>-2.8</ele><time>2021-02-17T14:23:12Z</time><name>PT8881</name></trkpt>
<trkpt lat="53.461018" lon="05.676197"><ele>-2.9</ele><time>2021-02-17T14:23:13Z</time><name>PT8882</name></trkpt>
<trkpt lat="53.461017" lon="05.676214"><ele>-2.9</ele><time>2021-02-17T14:23:14Z</time><name>PT8883</name></trkpt>
<trkpt lat="53.461016" lon="05.676232"><ele>-2.9</ele><time>2021-02-17T14:23:15Z</time><name>PT8884</name></trkpt>
<trkpt lat="53.461015" lon="05.676246"><ele>-2.9</ele><time>2021-02-17T14:23:16Z</time><name>PT8885</name></trkpt>
<trkpt lat="53.461013" lon="05.676262"><ele>-3</ele><time>2021-02-17T14:23:17Z</time><name>PT8886</name></trkpt>
<trkpt lat="53.461012" lon="05.676279"><ele>-3.2</ele><time>2021-02-17T14:23:18Z</time><name>PT8887</name></trkpt>
<trkpt lat="53.461013" lon="05.676298"><ele>-3.1</ele><time>2021-02-17T14:23:19Z</time><name>PT8888</name></trkpt>
<trkpt lat="53.461013" lon="05.676315"><ele>-3</ele><time>2021-02-17T14:23:20Z</time><name>PT8889</name></trkpt>
<trkpt lat="53.461013" lon="05.676337"><ele>-2.9</ele><time>2021-02-17T14:23:21Z</time><name>PT8890</name></trkpt>
<trkpt lat="53.461012" lon="05.676356"><ele>-2.8</ele><time>2021-02-17T14:23:22Z</time><name>PT8891</name></trkpt>
<trkpt lat="53.461008" lon="05.676373"><ele>-2.8</ele><time>2021-02-17T14:23:23Z</time><name>PT8892</name></trkpt>
<trkpt lat="53.461007" lon="05.676389"><ele>-2.9</ele><time>2021-02-17T14:23:24Z</time><name>PT8893</name></trkpt>
<trkpt lat="53.461007" lon="05.676405"><ele>-2.7</ele><time>2021-02-17T14:23:25Z</time><name>PT8894</name></trkpt>
<trkpt lat="53.461006" lon="05.676421"><ele>-2.7</ele><time>2021-02-17T14:23:26Z</time><name>PT8895</name></trkpt>
<trkpt lat="53.461005" lon="05.676440"><ele>-2.8</ele><time>2021-02-17T14:23:27Z</time><name>PT8896</name></trkpt>
<trkpt lat="53.461005" lon="05.676459"><ele>-2.9</ele><time>2021-02-17T14:23:28Z</time><name>PT8897</name></trkpt>
<trkpt lat="53.461006" lon="05.676478"><ele>-2.9</ele><time>2021-02-17T14:23:29Z</time><name>PT8898</name></trkpt>
<trkpt lat="53.461005" lon="05.676494"><ele>-3</ele><time>2021-02-17T14:23:30Z</time><name>PT8899</name></trkpt>
<trkpt lat="53.461003" lon="05.676513"><ele>-3</ele><time>2021-02-17T14:23:31Z</time><name>PT8900</name></trkpt>
<trkpt lat="53.461003" lon="05.676527"><ele>-3</ele><time>2021-02-17T14:23:32Z</time><name>PT8901</name></trkpt>
<trkpt lat="53.461001" lon="05.676547"><ele>-3</ele><time>2021-02-17T14:23:33Z</time><name>PT8902</name></trkpt>
<trkpt lat="53.460999" lon="05.676568"><ele>-2.9</ele><time>2021-02-17T14:23:34Z</time><name>PT8903</name></trkpt>
<trkpt lat="53.460999" lon="05.676588"><ele>-2.9</ele><time>2021-02-17T14:23:35Z</time><name>PT8904</name></trkpt>
<trkpt lat="53.460997" lon="05.676606"><ele>-2.8</ele><time>2021-02-17T14:23:36Z</time><name>PT8905</name></trkpt>
<trkpt lat="53.460996" lon="05.676622"><ele>-2.7</ele><time>2021-02-17T14:23:37Z</time><name>PT8906</name></trkpt>
<trkpt lat="53.460997" lon="05.676640"><ele>-2.6</ele><time>2021-02-17T14:23:38Z</time><name>PT8907</name></trkpt>
<trkpt lat="53.460999" lon="05.676659"><ele>-2.6</ele><time>2021-02-17T14:23:39Z</time><name>PT8908</name></trkpt>
<trkpt lat="53.460999" lon="05.676675"><ele>-2.4</ele><time>2021-02-17T14:23:40Z</time><name>PT8909</name></trkpt>
<trkpt lat="53.460999" lon="05.676689"><ele>-2.4</ele><time>2021-02-17T14:23:41Z</time><name>PT8910</name></trkpt>
<trkpt lat="53.460996" lon="05.676706"><ele>-2.4</ele><time>2021-02-17T14:23:42Z</time><name>PT8911</name></trkpt>
<trkpt lat="53.460993" lon="05.676719"><ele>-2.6</ele><time>2021-02-17T14:23:43Z</time><name>PT8912</name></trkpt>
<trkpt lat="53.460992" lon="05.676734"><ele>-2.7</ele><time>2021-02-17T14:23:44Z</time><name>PT8913</name></trkpt>
<trkpt lat="53.460992" lon="05.676749"><ele>-2.9</ele><time>2021-02-17T14:23:45Z</time><name>PT8914</name></trkpt>
<trkpt lat="53.460993" lon="05.676766"><ele>-2.9</ele><time>2021-02-17T14:23:46Z</time><name>PT8915</name></trkpt>
<trkpt lat="53.460992" lon="05.676783"><ele>-2.7</ele><time>2021-02-17T14:23:47Z</time><name>PT8916</name></trkpt>
<trkpt lat="53.460991" lon="05.676800"><ele>-2.7</ele><time>2021-02-17T14:23:48Z</time><name>PT8917</name></trkpt>
<trkpt lat="53.460989" lon="05.676817"><ele>-2.8</ele><time>2021-02-17T14:23:49Z</time><name>PT8918</name></trkpt>
<trkpt lat="53.460984" lon="05.676837"><ele>-3</ele><time>2021-02-17T14:23:50Z</time><name>PT8919</name></trkpt>
<trkpt lat="53.460981" lon="05.676854"><ele>-3.2</ele><time>2021-02-17T14:23:51Z</time><name>PT8920</name></trkpt>
<trkpt lat="53.460979" lon="05.676870"><ele>-3.3</ele><time>2021-02-17T14:23:52Z</time><name>PT8921</name></trkpt>
<trkpt lat="53.460978" lon="05.676887"><ele>-3.5</ele><time>2021-02-17T14:23:53Z</time><name>PT8922</name></trkpt>
<trkpt lat="53.460979" lon="05.676905"><ele>-3.5</ele><time>2021-02-17T14:23:54Z</time><name>PT8923</name></trkpt>
<trkpt lat="53.460979" lon="05.676924"><ele>-3.2</ele><time>2021-02-17T14:23:55Z</time><name>PT8924</name></trkpt>
<trkpt lat="53.460978" lon="05.676940"><ele>-3.2</ele><time>2021-02-17T14:23:56Z</time><name>PT8925</name></trkpt>
<trkpt lat="53.460976" lon="05.676957"><ele>-3.1</ele><time>2021-02-17T14:23:57Z</time><name>PT8926</name></trkpt>
<trkpt lat="53.460974" lon="05.676974"><ele>-3</ele><time>2021-02-17T14:23:58Z</time><name>PT8927</name></trkpt>
<trkpt lat="53.460972" lon="05.676990"><ele>-3.2</ele><time>2021-02-17T14:23:59Z</time><name>PT8928</name></trkpt>
<trkpt lat="53.460971" lon="05.677007"><ele>-3.2</ele><time>2021-02-17T14:24:00Z</time><name>PT8929</name></trkpt>
<trkpt lat="53.460969" lon="05.677024"><ele>-2.9</ele><time>2021-02-17T14:24:01Z</time><name>PT8930</name></trkpt>
<trkpt lat="53.460967" lon="05.677042"><ele>-3.1</ele><time>2021-02-17T14:24:02Z</time><name>PT8931</name></trkpt>
<trkpt lat="53.460964" lon="05.677057"><ele>-3.2</ele><time>2021-02-17T14:24:03Z</time><name>PT8932</name></trkpt>
<trkpt lat="53.460963" lon="05.677077"><ele>-3.1</ele><time>2021-02-17T14:24:04Z</time><name>PT8933</name></trkpt>
<trkpt lat="53.460962" lon="05.677093"><ele>-3.1</ele><time>2021-02-17T14:24:05Z</time><name>PT8934</name></trkpt>
<trkpt lat="53.460960" lon="05.677110"><ele>-3</ele><time>2021-02-17T14:24:06Z</time><name>PT8935</name></trkpt>
<trkpt lat="53.460958" lon="05.677129"><ele>-3</ele><time>2021-02-17T14:24:07Z</time><name>PT8936</name></trkpt>
<trkpt lat="53.460956" lon="05.677146"><ele>-3.1</ele><time>2021-02-17T14:24:08Z</time><name>PT8937</name></trkpt>
<trkpt lat="53.460954" lon="05.677163"><ele>-3</ele><time>2021-02-17T14:24:09Z</time><name>PT8938</name></trkpt>
<trkpt lat="53.460953" lon="05.677175"><ele>-2.9</ele><time>2021-02-17T14:24:10Z</time><name>PT8939</name></trkpt>
<trkpt lat="53.460954" lon="05.677191"><ele>-2.9</ele><time>2021-02-17T14:24:11Z</time><name>PT8940</name></trkpt>
<trkpt lat="53.460954" lon="05.677205"><ele>-2.7</ele><time>2021-02-17T14:24:12Z</time><name>PT8941</name></trkpt>
<trkpt lat="53.460954" lon="05.677220"><ele>-2.6</ele><time>2021-02-17T14:24:13Z</time><name>PT8942</name></trkpt>
<trkpt lat="53.460952" lon="05.677235"><ele>-2.7</ele><time>2021-02-17T14:24:14Z</time><name>PT8943</name></trkpt>
<trkpt lat="53.460949" lon="05.677253"><ele>-2.7</ele><time>2021-02-17T14:24:15Z</time><name>PT8944</name></trkpt>
<trkpt lat="53.460948" lon="05.677269"><ele>-2.9</ele><time>2021-02-17T14:24:16Z</time><name>PT8945</name></trkpt>
<trkpt lat="53.460948" lon="05.677285"><ele>-2.9</ele><time>2021-02-17T14:24:17Z</time><name>PT8946</name></trkpt>
<trkpt lat="53.460948" lon="05.677299"><ele>-2.9</ele><time>2021-02-17T14:24:18Z</time><name>PT8947</name></trkpt>
<trkpt lat="53.460948" lon="05.677311"><ele>-2.9</ele><time>2021-02-17T14:24:19Z</time><name>PT8948</name></trkpt>
<trkpt lat="53.460948" lon="05.677324"><ele>-2.8</ele><time>2021-02-17T14:24:20Z</time><name>PT8949</name></trkpt>
<trkpt lat="53.460947" lon="05.677342"><ele>-2.9</ele><time>2021-02-17T14:24:21Z</time><name>PT8950</name></trkpt>
<trkpt lat="53.460945" lon="05.677357"><ele>-2.9</ele><time>2021-02-17T14:24:22Z</time><name>PT8951</name></trkpt>
<trkpt lat="53.460943" lon="05.677375"><ele>-3</ele><time>2021-02-17T14:24:23Z</time><name>PT8952</name></trkpt>
<trkpt lat="53.460942" lon="05.677392"><ele>-3.1</ele><time>2021-02-17T14:24:24Z</time><name>PT8953</name></trkpt>
<trkpt lat="53.460941" lon="05.677408"><ele>-3</ele><time>2021-02-17T14:24:25Z</time><name>PT8954</name></trkpt>
<trkpt lat="53.460940" lon="05.677426"><ele>-3</ele><time>2021-02-17T14:24:26Z</time><name>PT8955</name></trkpt>
<trkpt lat="53.460941" lon="05.677446"><ele>-2.9</ele><time>2021-02-17T14:24:27Z</time><name>PT8956</name></trkpt>
<trkpt lat="53.460940" lon="05.677464"><ele>-2.9</ele><time>2021-02-17T14:24:28Z</time><name>PT8957</name></trkpt>
<trkpt lat="53.460938" lon="05.677480"><ele>-2.8</ele><time>2021-02-17T14:24:29Z</time><name>PT8958</name></trkpt>
<trkpt lat="53.460934" lon="05.677496"><ele>-2.8</ele><time>2021-02-17T14:24:30Z</time><name>PT8959</name></trkpt>
<trkpt lat="53.460932" lon="05.677516"><ele>-3.1</ele><time>2021-02-17T14:24:31Z</time><name>PT8960</name></trkpt>
<trkpt lat="53.460932" lon="05.677531"><ele>-3.1</ele><time>2021-02-17T14:24:32Z</time><name>PT8961</name></trkpt>
<trkpt lat="53.460930" lon="05.677550"><ele>-3</ele><time>2021-02-17T14:24:33Z</time><name>PT8962</name></trkpt>
<trkpt lat="53.460927" lon="05.677568"><ele>-2.9</ele><time>2021-02-17T14:24:34Z</time><name>PT8963</name></trkpt>
<trkpt lat="53.460926" lon="05.677588"><ele>-2.9</ele><time>2021-02-17T14:24:35Z</time><name>PT8964</name></trkpt>
<trkpt lat="53.460924" lon="05.677607"><ele>-2.9</ele><time>2021-02-17T14:24:36Z</time><name>PT8965</name></trkpt>
<trkpt lat="53.460923" lon="05.677626"><ele>-3</ele><time>2021-02-17T14:24:37Z</time><name>PT8966</name></trkpt>
<trkpt lat="53.460921" lon="05.677642"><ele>-3</ele><time>2021-02-17T14:24:38Z</time><name>PT8967</name></trkpt>
<trkpt lat="53.460917" lon="05.677659"><ele>-3</ele><time>2021-02-17T14:24:39Z</time><name>PT8968</name></trkpt>
<trkpt lat="53.460913" lon="05.677677"><ele>-2.9</ele><time>2021-02-17T14:24:40Z</time><name>PT8969</name></trkpt>
<trkpt lat="53.460911" lon="05.677696"><ele>-3</ele><time>2021-02-17T14:24:41Z</time><name>PT8970</name></trkpt>
<trkpt lat="53.460910" lon="05.677714"><ele>-2.9</ele><time>2021-02-17T14:24:42Z</time><name>PT8971</name></trkpt>
<trkpt lat="53.460909" lon="05.677729"><ele>-2.9</ele><time>2021-02-17T14:24:43Z</time><name>PT8972</name></trkpt>
<trkpt lat="53.460907" lon="05.677749"><ele>-2.9</ele><time>2021-02-17T14:24:44Z</time><name>PT8973</name></trkpt>
<trkpt lat="53.460905" lon="05.677770"><ele>-2.9</ele><time>2021-02-17T14:24:45Z</time><name>PT8974</name></trkpt>
<trkpt lat="53.460905" lon="05.677791"><ele>-2.9</ele><time>2021-02-17T14:24:46Z</time><name>PT8975</name></trkpt>
<trkpt lat="53.460903" lon="05.677810"><ele>-3</ele><time>2021-02-17T14:24:47Z</time><name>PT8976</name></trkpt>
<trkpt lat="53.460903" lon="05.677823"><ele>-3</ele><time>2021-02-17T14:24:48Z</time><name>PT8977</name></trkpt>
<trkpt lat="53.460902" lon="05.677837"><ele>-3.1</ele><time>2021-02-17T14:24:49Z</time><name>PT8978</name></trkpt>
<trkpt lat="53.460898" lon="05.677857"><ele>-3.2</ele><time>2021-02-17T14:24:50Z</time><name>PT8979</name></trkpt>
<trkpt lat="53.460897" lon="05.677874"><ele>-3.3</ele><time>2021-02-17T14:24:51Z</time><name>PT8980</name></trkpt>
<trkpt lat="53.460896" lon="05.677891"><ele>-3.3</ele><time>2021-02-17T14:24:52Z</time><name>PT8981</name></trkpt>
<trkpt lat="53.460894" lon="05.677909"><ele>-3.3</ele><time>2021-02-17T14:24:53Z</time><name>PT8982</name></trkpt>
<trkpt lat="53.460890" lon="05.677927"><ele>-3.2</ele><time>2021-02-17T14:24:54Z</time><name>PT8983</name></trkpt>
<trkpt lat="53.460888" lon="05.677945"><ele>-2.9</ele><time>2021-02-17T14:24:55Z</time><name>PT8984</name></trkpt>
<trkpt lat="53.460886" lon="05.677964"><ele>-2.9</ele><time>2021-02-17T14:24:56Z</time><name>PT8985</name></trkpt>
<trkpt lat="53.460885" lon="05.677982"><ele>-3</ele><time>2021-02-17T14:24:57Z</time><name>PT8986</name></trkpt>
<trkpt lat="53.460883" lon="05.677996"><ele>-3</ele><time>2021-02-17T14:24:58Z</time><name>PT8987</name></trkpt>
<trkpt lat="53.460886" lon="05.678014"><ele>-3</ele><time>2021-02-17T14:24:59Z</time><name>PT8988</name></trkpt>
<trkpt lat="53.460884" lon="05.678035"><ele>-3</ele><time>2021-02-17T14:25:00Z</time><name>PT8989</name></trkpt>
<trkpt lat="53.460881" lon="05.678054"><ele>-2.9</ele><time>2021-02-17T14:25:01Z</time><name>PT8990</name></trkpt>
<trkpt lat="53.460878" lon="05.678070"><ele>-3</ele><time>2021-02-17T14:25:02Z</time><name>PT8991</name></trkpt>
<trkpt lat="53.460878" lon="05.678087"><ele>-3</ele><time>2021-02-17T14:25:03Z</time><name>PT8992</name></trkpt>
<trkpt lat="53.460876" lon="05.678106"><ele>-3</ele><time>2021-02-17T14:25:04Z</time><name>PT8993</name></trkpt>
<trkpt lat="53.460876" lon="05.678121"><ele>-3.1</ele><time>2021-02-17T14:25:05Z</time><name>PT8994</name></trkpt>
<trkpt lat="53.460874" lon="05.678134"><ele>-3.2</ele><time>2021-02-17T14:25:06Z</time><name>PT8995</name></trkpt>
<trkpt lat="53.460871" lon="05.678149"><ele>-3.2</ele><time>2021-02-17T14:25:07Z</time><name>PT8996</name></trkpt>
<trkpt lat="53.460869" lon="05.678165"><ele>-3.3</ele><time>2021-02-17T14:25:08Z</time><name>PT8997</name></trkpt>
<trkpt lat="53.460865" lon="05.678180"><ele>-3.3</ele><time>2021-02-17T14:25:09Z</time><name>PT8998</name></trkpt>
<trkpt lat="53.460862" lon="05.678194"><ele>-3.2</ele><time>2021-02-17T14:25:10Z</time><name>PT8999</name></trkpt>
<trkpt lat="53.460859" lon="05.678210"><ele>-3.2</ele><time>2021-02-17T14:25:11Z</time><name>PT9000</name></trkpt>
<trkpt lat="53.460856" lon="05.678226"><ele>-3.1</ele><time>2021-02-17T14:25:12Z</time><name>PT9001</name></trkpt>
<trkpt lat="53.460856" lon="05.678243"><ele>-2.9</ele><time>2021-02-17T14:25:13Z</time><name>PT9002</name></trkpt>
<trkpt lat="53.460856" lon="05.678260"><ele>-2.7</ele><time>2021-02-17T14:25:14Z</time><name>PT9003</name></trkpt>
<trkpt lat="53.460855" lon="05.678277"><ele>-2.4</ele><time>2021-02-17T14:25:15Z</time><name>PT9004</name></trkpt>
<trkpt lat="53.460854" lon="05.678293"><ele>-2.4</ele><time>2021-02-17T14:25:16Z</time><name>PT9005</name></trkpt>
<trkpt lat="53.460851" lon="05.678310"><ele>-2.4</ele><time>2021-02-17T14:25:17Z</time><name>PT9006</name></trkpt>
<trkpt lat="53.460848" lon="05.678327"><ele>-2.4</ele><time>2021-02-17T14:25:18Z</time><name>PT9007</name></trkpt>
<trkpt lat="53.460845" lon="05.678343"><ele>-2.5</ele><time>2021-02-17T14:25:19Z</time><name>PT9008</name></trkpt>
<trkpt lat="53.460840" lon="05.678359"><ele>-2.5</ele><time>2021-02-17T14:25:20Z</time><name>PT9009</name></trkpt>
<trkpt lat="53.460834" lon="05.678375"><ele>-2.7</ele><time>2021-02-17T14:25:21Z</time><name>PT9010</name></trkpt>
<trkpt lat="53.460830" lon="05.678390"><ele>-2.7</ele><time>2021-02-17T14:25:22Z</time><name>PT9011</name></trkpt>
<trkpt lat="53.460828" lon="05.678406"><ele>-2.8</ele><time>2021-02-17T14:25:23Z</time><name>PT9012</name></trkpt>
<trkpt lat="53.460827" lon="05.678425"><ele>-2.9</ele><time>2021-02-17T14:25:24Z</time><name>PT9013</name></trkpt>
<trkpt lat="53.460825" lon="05.678443"><ele>-3</ele><time>2021-02-17T14:25:25Z</time><name>PT9014</name></trkpt>
<trkpt lat="53.460825" lon="05.678462"><ele>-3.3</ele><time>2021-02-17T14:25:26Z</time><name>PT9015</name></trkpt>
<trkpt lat="53.460823" lon="05.678480"><ele>-3.3</ele><time>2021-02-17T14:25:27Z</time><name>PT9016</name></trkpt>
<trkpt lat="53.460821" lon="05.678497"><ele>-3</ele><time>2021-02-17T14:25:28Z</time><name>PT9017</name></trkpt>
<trkpt lat="53.460818" lon="05.678513"><ele>-3.1</ele><time>2021-02-17T14:25:29Z</time><name>PT9018</name></trkpt>
<trkpt lat="53.460816" lon="05.678532"><ele>-3</ele><time>2021-02-17T14:25:30Z</time><name>PT9019</name></trkpt>
<trkpt lat="53.460813" lon="05.678549"><ele>-2.9</ele><time>2021-02-17T14:25:31Z</time><name>PT9020</name></trkpt>
<trkpt lat="53.460812" lon="05.678566"><ele>-2.9</ele><time>2021-02-17T14:25:32Z</time><name>PT9021</name></trkpt>
<trkpt lat="53.460809" lon="05.678582"><ele>-2.8</ele><time>2021-02-17T14:25:33Z</time><name>PT9022</name></trkpt>
<trkpt lat="53.460807" lon="05.678599"><ele>-2.9</ele><time>2021-02-17T14:25:34Z</time><name>PT9023</name></trkpt>
<trkpt lat="53.460806" lon="05.678614"><ele>-3</ele><time>2021-02-17T14:25:35Z</time><name>PT9024</name></trkpt>
<trkpt lat="53.460803" lon="05.678630"><ele>-2.9</ele><time>2021-02-17T14:25:36Z</time><name>PT9025</name></trkpt>
<trkpt lat="53.460800" lon="05.678647"><ele>-3</ele><time>2021-02-17T14:25:37Z</time><name>PT9026</name></trkpt>
<trkpt lat="53.460797" lon="05.678664"><ele>-2.9</ele><time>2021-02-17T14:25:38Z</time><name>PT9027</name></trkpt>
<trkpt lat="53.460796" lon="05.678681"><ele>-2.8</ele><time>2021-02-17T14:25:39Z</time><name>PT9028</name></trkpt>
<trkpt lat="53.460796" lon="05.678697"><ele>-2.6</ele><time>2021-02-17T14:25:40Z</time><name>PT9029</name></trkpt>
<trkpt lat="53.460794" lon="05.678715"><ele>-2.5</ele><time>2021-02-17T14:25:41Z</time><name>PT9030</name></trkpt>
<trkpt lat="53.460794" lon="05.678732"><ele>-2.5</ele><time>2021-02-17T14:25:42Z</time><name>PT9031</name></trkpt>
<trkpt lat="53.460796" lon="05.678748"><ele>-2.5</ele><time>2021-02-17T14:25:43Z</time><name>PT9032</name></trkpt>
<trkpt lat="53.460792" lon="05.678765"><ele>-2.6</ele><time>2021-02-17T14:25:44Z</time><name>PT9033</name></trkpt>
<trkpt lat="53.460789" lon="05.678781"><ele>-2.7</ele><time>2021-02-17T14:25:45Z</time><name>PT9034</name></trkpt>
<trkpt lat="53.460786" lon="05.678797"><ele>-3</ele><time>2021-02-17T14:25:46Z</time><name>PT9035</name></trkpt>
<trkpt lat="53.460785" lon="05.678814"><ele>-3.2</ele><time>2021-02-17T14:25:47Z</time><name>PT9036</name></trkpt>
<trkpt lat="53.460783" lon="05.678833"><ele>-3.1</ele><time>2021-02-17T14:25:48Z</time><name>PT9037</name></trkpt>
<trkpt lat="53.460777" lon="05.678851"><ele>-3.1</ele><time>2021-02-17T14:25:49Z</time><name>PT9038</name></trkpt>
<trkpt lat="53.460775" lon="05.678868"><ele>-3</ele><time>2021-02-17T14:25:50Z</time><name>PT9039</name></trkpt>
<trkpt lat="53.460773" lon="05.678882"><ele>-3.1</ele><time>2021-02-17T14:25:51Z</time><name>PT9040</name></trkpt>
<trkpt lat="53.460771" lon="05.678897"><ele>-3.1</ele><time>2021-02-17T14:25:52Z</time><name>PT9041</name></trkpt>
<trkpt lat="53.460769" lon="05.678915"><ele>-3</ele><time>2021-02-17T14:25:53Z</time><name>PT9042</name></trkpt>
<trkpt lat="53.460767" lon="05.678931"><ele>-2.9</ele><time>2021-02-17T14:25:54Z</time><name>PT9043</name></trkpt>
<trkpt lat="53.460766" lon="05.678948"><ele>-2.9</ele><time>2021-02-17T14:25:55Z</time><name>PT9044</name></trkpt>
<trkpt lat="53.460763" lon="05.678966"><ele>-2.7</ele><time>2021-02-17T14:25:56Z</time><name>PT9045</name></trkpt>
<trkpt lat="53.460761" lon="05.678984"><ele>-2.7</ele><time>2021-02-17T14:25:57Z</time><name>PT9046</name></trkpt>
<trkpt lat="53.460758" lon="05.679002"><ele>-2.9</ele><time>2021-02-17T14:25:58Z</time><name>PT9047</name></trkpt>
<trkpt lat="53.460756" lon="05.679014"><ele>-3.1</ele><time>2021-02-17T14:25:59Z</time><name>PT9048</name></trkpt>
<trkpt lat="53.460752" lon="05.679027"><ele>-3.2</ele><time>2021-02-17T14:26:00Z</time><name>PT9049</name></trkpt>
<trkpt lat="53.460749" lon="05.679041"><ele>-3.3</ele><time>2021-02-17T14:26:01Z</time><name>PT9050</name></trkpt>
<trkpt lat="53.460746" lon="05.679059"><ele>-3.1</ele><time>2021-02-17T14:26:02Z</time><name>PT9051</name></trkpt>
<trkpt lat="53.460744" lon="05.679076"><ele>-2.9</ele><time>2021-02-17T14:26:03Z</time><name>PT9052</name></trkpt>
<trkpt lat="53.460743" lon="05.679093"><ele>-2.8</ele><time>2021-02-17T14:26:04Z</time><name>PT9053</name></trkpt>
<trkpt lat="53.460744" lon="05.679102"><ele>-2.9</ele><time>2021-02-17T14:26:05Z</time><name>PT9054</name></trkpt>
<trkpt lat="53.460742" lon="05.679120"><ele>-2.9</ele><time>2021-02-17T14:26:06Z</time><name>PT9055</name></trkpt>
<trkpt lat="53.460741" lon="05.679139"><ele>-3</ele><time>2021-02-17T14:26:07Z</time><name>PT9056</name></trkpt>
<trkpt lat="53.460740" lon="05.679158"><ele>-2.9</ele><time>2021-02-17T14:26:08Z</time><name>PT9057</name></trkpt>
<trkpt lat="53.460740" lon="05.679174"><ele>-3.1</ele><time>2021-02-17T14:26:09Z</time><name>PT9058</name></trkpt>
<trkpt lat="53.460738" lon="05.679190"><ele>-3</ele><time>2021-02-17T14:26:10Z</time><name>PT9059</name></trkpt>
<trkpt lat="53.460735" lon="05.679204"><ele>-3</ele><time>2021-02-17T14:26:11Z</time><name>PT9060</name></trkpt>
<trkpt lat="53.460732" lon="05.679222"><ele>-3.2</ele><time>2021-02-17T14:26:12Z</time><name>PT9061</name></trkpt>
<trkpt lat="53.460728" lon="05.679239"><ele>-2.9</ele><time>2021-02-17T14:26:13Z</time><name>PT9062</name></trkpt>
<trkpt lat="53.460725" lon="05.679256"><ele>-2.8</ele><time>2021-02-17T14:26:14Z</time><name>PT9063</name></trkpt>
<trkpt lat="53.460721" lon="05.679273"><ele>-2.7</ele><time>2021-02-17T14:26:15Z</time><name>PT9064</name></trkpt>
<trkpt lat="53.460719" lon="05.679291"><ele>-2.6</ele><time>2021-02-17T14:26:16Z</time><name>PT9065</name></trkpt>
<trkpt lat="53.460716" lon="05.679308"><ele>-2.7</ele><time>2021-02-17T14:26:17Z</time><name>PT9066</name></trkpt>
<trkpt lat="53.460712" lon="05.679325"><ele>-2.8</ele><time>2021-02-17T14:26:18Z</time><name>PT9067</name></trkpt>
<trkpt lat="53.460712" lon="05.679340"><ele>-2.9</ele><time>2021-02-17T14:26:19Z</time><name>PT9068</name></trkpt>
<trkpt lat="53.460710" lon="05.679357"><ele>-2.9</ele><time>2021-02-17T14:26:20Z</time><name>PT9069</name></trkpt>
<trkpt lat="53.460707" lon="05.679373"><ele>-3.1</ele><time>2021-02-17T14:26:21Z</time><name>PT9070</name></trkpt>
<trkpt lat="53.460704" lon="05.679391"><ele>-3.2</ele><time>2021-02-17T14:26:22Z</time><name>PT9071</name></trkpt>
<trkpt lat="53.460701" lon="05.679405"><ele>-3.2</ele><time>2021-02-17T14:26:23Z</time><name>PT9072</name></trkpt>
<trkpt lat="53.460698" lon="05.679421"><ele>-3.3</ele><time>2021-02-17T14:26:24Z</time><name>PT9073</name></trkpt>
<trkpt lat="53.460697" lon="05.679438"><ele>-3.1</ele><time>2021-02-17T14:26:25Z</time><name>PT9074</name></trkpt>
<trkpt lat="53.460695" lon="05.679455"><ele>-3</ele><time>2021-02-17T14:26:26Z</time><name>PT9075</name></trkpt>
<trkpt lat="53.460691" lon="05.679469"><ele>-2.9</ele><time>2021-02-17T14:26:27Z</time><name>PT9076</name></trkpt>
<trkpt lat="53.460688" lon="05.679485"><ele>-2.9</ele><time>2021-02-17T14:26:28Z</time><name>PT9077</name></trkpt>
<trkpt lat="53.460686" lon="05.679501"><ele>-2.9</ele><time>2021-02-17T14:26:29Z</time><name>PT9078</name></trkpt>
<trkpt lat="53.460685" lon="05.679514"><ele>-2.9</ele><time>2021-02-17T14:26:30Z</time><name>PT9079</name></trkpt>
<trkpt lat="53.460683" lon="05.679530"><ele>-2.9</ele><time>2021-02-17T14:26:31Z</time><name>PT9080</name></trkpt>
<trkpt lat="53.460680" lon="05.679545"><ele>-2.9</ele><time>2021-02-17T14:26:32Z</time><name>PT9081</name></trkpt>
<trkpt lat="53.460676" lon="05.679561"><ele>-3</ele><time>2021-02-17T14:26:33Z</time><name>PT9082</name></trkpt>
<trkpt lat="53.460673" lon="05.679577"><ele>-2.9</ele><time>2021-02-17T14:26:34Z</time><name>PT9083</name></trkpt>
<trkpt lat="53.460671" lon="05.679593"><ele>-2.9</ele><time>2021-02-17T14:26:35Z</time><name>PT9084</name></trkpt>
<trkpt lat="53.460668" lon="05.679607"><ele>-2.8</ele><time>2021-02-17T14:26:36Z</time><name>PT9085</name></trkpt>
<trkpt lat="53.460666" lon="05.679625"><ele>-2.7</ele><time>2021-02-17T14:26:37Z</time><name>PT9086</name></trkpt>
<trkpt lat="53.460665" lon="05.679643"><ele>-2.9</ele><time>2021-02-17T14:26:38Z</time><name>PT9087</name></trkpt>
<trkpt lat="53.460662" lon="05.679655"><ele>-2.9</ele><time>2021-02-17T14:26:39Z</time><name>PT9088</name></trkpt>
<trkpt lat="53.460660" lon="05.679667"><ele>-2.9</ele><time>2021-02-17T14:26:40Z</time><name>PT9089</name></trkpt>
<trkpt lat="53.460659" lon="05.679680"><ele>-2.9</ele><time>2021-02-17T14:26:41Z</time><name>PT9090</name></trkpt>
<trkpt lat="53.460656" lon="05.679696"><ele>-2.8</ele><time>2021-02-17T14:26:42Z</time><name>PT9091</name></trkpt>
<trkpt lat="53.460654" lon="05.679712"><ele>-2.8</ele><time>2021-02-17T14:26:43Z</time><name>PT9092</name></trkpt>
<trkpt lat="53.460653" lon="05.679726"><ele>-2.9</ele><time>2021-02-17T14:26:44Z</time><name>PT9093</name></trkpt>
<trkpt lat="53.460651" lon="05.679740"><ele>-2.8</ele><time>2021-02-17T14:26:45Z</time><name>PT9094</name></trkpt>
<trkpt lat="53.460647" lon="05.679755"><ele>-2.8</ele><time>2021-02-17T14:26:46Z</time><name>PT9095</name></trkpt>
<trkpt lat="53.460645" lon="05.679766"><ele>-2.7</ele><time>2021-02-17T14:26:47Z</time><name>PT9096</name></trkpt>
<trkpt lat="53.460645" lon="05.679773"><ele>-2.6</ele><time>2021-02-17T14:26:48Z</time><name>PT9097</name></trkpt>
<trkpt lat="53.460641" lon="05.679783"><ele>-2.8</ele><time>2021-02-17T14:26:49Z</time><name>PT9098</name></trkpt>
<trkpt lat="53.460637" lon="05.679799"><ele>-2.7</ele><time>2021-02-17T14:26:50Z</time><name>PT9099</name></trkpt>
<trkpt lat="53.460634" lon="05.679815"><ele>-2.7</ele><time>2021-02-17T14:26:51Z</time><name>PT9100</name></trkpt>
<trkpt lat="53.460633" lon="05.679826"><ele>-2.7</ele><time>2021-02-17T14:26:52Z</time><name>PT9101</name></trkpt>
<trkpt lat="53.460631" lon="05.679838"><ele>-2.5</ele><time>2021-02-17T14:26:53Z</time><name>PT9102</name></trkpt>
<trkpt lat="53.460625" lon="05.679850"><ele>-2.5</ele><time>2021-02-17T14:26:54Z</time><name>PT9103</name></trkpt>
<trkpt lat="53.460620" lon="05.679862"><ele>-2.6</ele><time>2021-02-17T14:26:55Z</time><name>PT9104</name></trkpt>
<trkpt lat="53.460617" lon="05.679878"><ele>-2.6</ele><time>2021-02-17T14:26:56Z</time><name>PT9105</name></trkpt>
<trkpt lat="53.460615" lon="05.679895"><ele>-2.6</ele><time>2021-02-17T14:26:57Z</time><name>PT9106</name></trkpt>
<trkpt lat="53.460611" lon="05.679910"><ele>-2.7</ele><time>2021-02-17T14:26:58Z</time><name>PT9107</name></trkpt>
<trkpt lat="53.460607" lon="05.679925"><ele>-2.9</ele><time>2021-02-17T14:26:59Z</time><name>PT9108</name></trkpt>
<trkpt lat="53.460601" lon="05.679939"><ele>-2.9</ele><time>2021-02-17T14:27:00Z</time><name>PT9109</name></trkpt>
<trkpt lat="53.460595" lon="05.679953"><ele>-3</ele><time>2021-02-17T14:27:01Z</time><name>PT9110</name></trkpt>
<trkpt lat="53.460591" lon="05.679970"><ele>-3.1</ele><time>2021-02-17T14:27:02Z</time><name>PT9111</name></trkpt>
<trkpt lat="53.460586" lon="05.679984"><ele>-3.2</ele><time>2021-02-17T14:27:03Z</time><name>PT9112</name></trkpt>
<trkpt lat="53.460582" lon="05.679999"><ele>-3</ele><time>2021-02-17T14:27:04Z</time><name>PT9113</name></trkpt>
<trkpt lat="53.460580" lon="05.680013"><ele>-2.8</ele><time>2021-02-17T14:27:05Z</time><name>PT9114</name></trkpt>
<trkpt lat="53.460576" lon="05.680026"><ele>-2.7</ele><time>2021-02-17T14:27:06Z</time><name>PT9115</name></trkpt>
<trkpt lat="53.460571" lon="05.680040"><ele>-2.6</ele><time>2021-02-17T14:27:07Z</time><name>PT9116</name></trkpt>
<trkpt lat="53.460567" lon="05.680053"><ele>-2.5</ele><time>2021-02-17T14:27:08Z</time><name>PT9117</name></trkpt>
<trkpt lat="53.460563" lon="05.680067"><ele>-2.7</ele><time>2021-02-17T14:27:09Z</time><name>PT9118</name></trkpt>
<trkpt lat="53.460560" lon="05.680082"><ele>-2.7</ele><time>2021-02-17T14:27:10Z</time><name>PT9119</name></trkpt>
<trkpt lat="53.460557" lon="05.680096"><ele>-2.8</ele><time>2021-02-17T14:27:11Z</time><name>PT9120</name></trkpt>
<trkpt lat="53.460553" lon="05.680111"><ele>-2.9</ele><time>2021-02-17T14:27:12Z</time><name>PT9121</name></trkpt>
<trkpt lat="53.460549" lon="05.680124"><ele>-2.9</ele><time>2021-02-17T14:27:13Z</time><name>PT9122</name></trkpt>
<trkpt lat="53.460547" lon="05.680138"><ele>-2.7</ele><time>2021-02-17T14:27:14Z</time><name>PT9123</name></trkpt>
<trkpt lat="53.460545" lon="05.680151"><ele>-2.7</ele><time>2021-02-17T14:27:15Z</time><name>PT9124</name></trkpt>
<trkpt lat="53.460542" lon="05.680160"><ele>-2.4</ele><time>2021-02-17T14:27:16Z</time><name>PT9125</name></trkpt>
<trkpt lat="53.460539" lon="05.680172"><ele>-2.4</ele><time>2021-02-17T14:27:17Z</time><name>PT9126</name></trkpt>
<trkpt lat="53.460536" lon="05.680184"><ele>-2.4</ele><time>2021-02-17T14:27:18Z</time><name>PT9127</name></trkpt>
<trkpt lat="53.460533" lon="05.680195"><ele>-2.4</ele><time>2021-02-17T14:27:19Z</time><name>PT9128</name></trkpt>
<trkpt lat="53.460531" lon="05.680208"><ele>-2.4</ele><time>2021-02-17T14:27:20Z</time><name>PT9129</name></trkpt>
<trkpt lat="53.460529" lon="05.680222"><ele>-2.4</ele><time>2021-02-17T14:27:21Z</time><name>PT9130</name></trkpt>
<trkpt lat="53.460527" lon="05.680235"><ele>-2.6</ele><time>2021-02-17T14:27:22Z</time><name>PT9131</name></trkpt>
<trkpt lat="53.460524" lon="05.680247"><ele>-2.7</ele><time>2021-02-17T14:27:23Z</time><name>PT9132</name></trkpt>
<trkpt lat="53.460520" lon="05.680261"><ele>-2.8</ele><time>2021-02-17T14:27:24Z</time><name>PT9133</name></trkpt>
<trkpt lat="53.460517" lon="05.680277"><ele>-2.9</ele><time>2021-02-17T14:27:25Z</time><name>PT9134</name></trkpt>
<trkpt lat="53.460517" lon="05.680289"><ele>-2.9</ele><time>2021-02-17T14:27:26Z</time><name>PT9135</name></trkpt>
<trkpt lat="53.460519" lon="05.680294"><ele>-2.9</ele><time>2021-02-17T14:27:27Z</time><name>PT9136</name></trkpt>
<trkpt lat="53.460518" lon="05.680308"><ele>-3.1</ele><time>2021-02-17T14:27:28Z</time><name>PT9137</name></trkpt>
<trkpt lat="53.460514" lon="05.680320"><ele>-3.2</ele><time>2021-02-17T14:27:29Z</time><name>PT9138</name></trkpt>
<trkpt lat="53.460511" lon="05.680334"><ele>-3.2</ele><time>2021-02-17T14:27:30Z</time><name>PT9139</name></trkpt>
<trkpt lat="53.460509" lon="05.680348"><ele>-3.2</ele><time>2021-02-17T14:27:31Z</time><name>PT9140</name></trkpt>
<trkpt lat="53.460503" lon="05.680363"><ele>-3</ele><time>2021-02-17T14:27:32Z</time><name>PT9141</name></trkpt>
<trkpt lat="53.460499" lon="05.680376"><ele>-2.9</ele><time>2021-02-17T14:27:33Z</time><name>PT9142</name></trkpt>
<trkpt lat="53.460497" lon="05.680391"><ele>-2.9</ele><time>2021-02-17T14:27:34Z</time><name>PT9143</name></trkpt>
<trkpt lat="53.460495" lon="05.680407"><ele>-2.7</ele><time>2021-02-17T14:27:35Z</time><name>PT9144</name></trkpt>
<trkpt lat="53.460493" lon="05.680421"><ele>-2.7</ele><time>2021-02-17T14:27:36Z</time><name>PT9145</name></trkpt>
<trkpt lat="53.460489" lon="05.680436"><ele>-2.5</ele><time>2021-02-17T14:27:37Z</time><name>PT9146</name></trkpt>
<trkpt lat="53.460485" lon="05.680452"><ele>-2.5</ele><time>2021-02-17T14:27:38Z</time><name>PT9147</name></trkpt>
<trkpt lat="53.460483" lon="05.680467"><ele>-2.7</ele><time>2021-02-17T14:27:39Z</time><name>PT9148</name></trkpt>
<trkpt lat="53.460480" lon="05.680482"><ele>-2.7</ele><time>2021-02-17T14:27:40Z</time><name>PT9149</name></trkpt>
<trkpt lat="53.460478" lon="05.680496"><ele>-2.8</ele><time>2021-02-17T14:27:41Z</time><name>PT9150</name></trkpt>
<trkpt lat="53.460475" lon="05.680510"><ele>-2.7</ele><time>2021-02-17T14:27:42Z</time><name>PT9151</name></trkpt>
<trkpt lat="53.460472" lon="05.680522"><ele>-2.8</ele><time>2021-02-17T14:27:43Z</time><name>PT9152</name></trkpt>
<trkpt lat="53.460470" lon="05.680535"><ele>-2.9</ele><time>2021-02-17T14:27:44Z</time><name>PT9153</name></trkpt>
<trkpt lat="53.460468" lon="05.680547"><ele>-2.8</ele><time>2021-02-17T14:27:45Z</time><name>PT9154</name></trkpt>
<trkpt lat="53.460467" lon="05.680563"><ele>-2.9</ele><time>2021-02-17T14:27:46Z</time><name>PT9155</name></trkpt>
<trkpt lat="53.460465" lon="05.680581"><ele>-2.7</ele><time>2021-02-17T14:27:47Z</time><name>PT9156</name></trkpt>
<trkpt lat="53.460461" lon="05.680597"><ele>-2.6</ele><time>2021-02-17T14:27:48Z</time><name>PT9157</name></trkpt>
<trkpt lat="53.460457" lon="05.680614"><ele>-2.6</ele><time>2021-02-17T14:27:49Z</time><name>PT9158</name></trkpt>
<trkpt lat="53.460455" lon="05.680629"><ele>-2.5</ele><time>2021-02-17T14:27:50Z</time><name>PT9159</name></trkpt>
<trkpt lat="53.460454" lon="05.680644"><ele>-2.4</ele><time>2021-02-17T14:27:51Z</time><name>PT9160</name></trkpt>
<trkpt lat="53.460450" lon="05.680660"><ele>-2.5</ele><time>2021-02-17T14:27:52Z</time><name>PT9161</name></trkpt>
<trkpt lat="53.460446" lon="05.680675"><ele>-2.5</ele><time>2021-02-17T14:27:53Z</time><name>PT9162</name></trkpt>
<trkpt lat="53.460444" lon="05.680690"><ele>-2.5</ele><time>2021-02-17T14:27:54Z</time><name>PT9163</name></trkpt>
<trkpt lat="53.460443" lon="05.680706"><ele>-2.6</ele><time>2021-02-17T14:27:55Z</time><name>PT9164</name></trkpt>
<trkpt lat="53.460442" lon="05.680718"><ele>-2.7</ele><time>2021-02-17T14:27:56Z</time><name>PT9165</name></trkpt>
<trkpt lat="53.460439" lon="05.680731"><ele>-2.7</ele><time>2021-02-17T14:27:57Z</time><name>PT9166</name></trkpt>
<trkpt lat="53.460437" lon="05.680744"><ele>-2.6</ele><time>2021-02-17T14:27:58Z</time><name>PT9167</name></trkpt>
<trkpt lat="53.460435" lon="05.680757"><ele>-2.6</ele><time>2021-02-17T14:27:59Z</time><name>PT9168</name></trkpt>
<trkpt lat="53.460432" lon="05.680769"><ele>-2.6</ele><time>2021-02-17T14:28:00Z</time><name>PT9169</name></trkpt>
<trkpt lat="53.460430" lon="05.680781"><ele>-2.4</ele><time>2021-02-17T14:28:01Z</time><name>PT9170</name></trkpt>
<trkpt lat="53.460426" lon="05.680798"><ele>-2.4</ele><time>2021-02-17T14:28:02Z</time><name>PT9171</name></trkpt>
<trkpt lat="53.460424" lon="05.680813"><ele>-2.5</ele><time>2021-02-17T14:28:03Z</time><name>PT9172</name></trkpt>
<trkpt lat="53.460422" lon="05.680827"><ele>-2.6</ele><time>2021-02-17T14:28:04Z</time><name>PT9173</name></trkpt>
<trkpt lat="53.460420" lon="05.680843"><ele>-2.8</ele><time>2021-02-17T14:28:05Z</time><name>PT9174</name></trkpt>
<trkpt lat="53.460417" lon="05.680854"><ele>-2.8</ele><time>2021-02-17T14:28:06Z</time><name>PT9175</name></trkpt>
<trkpt lat="53.460414" lon="05.680869"><ele>-2.8</ele><time>2021-02-17T14:28:07Z</time><name>PT9176</name></trkpt>
<trkpt lat="53.460411" lon="05.680884"><ele>-2.8</ele><time>2021-02-17T14:28:08Z</time><name>PT9177</name></trkpt>
<trkpt lat="53.460409" lon="05.680895"><ele>-2.9</ele><time>2021-02-17T14:28:09Z</time><name>PT9178</name></trkpt>
<trkpt lat="53.460406" lon="05.680908"><ele>-3</ele><time>2021-02-17T14:28:10Z</time><name>PT9179</name></trkpt>
<trkpt lat="53.460404" lon="05.680920"><ele>-3</ele><time>2021-02-17T14:28:11Z</time><name>PT9180</name></trkpt>
<trkpt lat="53.460401" lon="05.680932"><ele>-3.1</ele><time>2021-02-17T14:28:12Z</time><name>PT9181</name></trkpt>
<trkpt lat="53.460399" lon="05.680943"><ele>-3</ele><time>2021-02-17T14:28:13Z</time><name>PT9182</name></trkpt>
<trkpt lat="53.460398" lon="05.680952"><ele>-3.1</ele><time>2021-02-17T14:28:14Z</time><name>PT9183</name></trkpt>
<trkpt lat="53.460398" lon="05.680957"><ele>-3.3</ele><time>2021-02-17T14:28:15Z</time><name>PT9184</name></trkpt>
<trkpt lat="53.460398" lon="05.680958"><ele>-3</ele><time>2021-02-17T14:28:16Z</time><name>PT9185</name></trkpt>
<trkpt lat="53.460398" lon="05.680959"><ele>-2.9</ele><time>2021-02-17T14:28:17Z</time><name>PT9186</name></trkpt>
<trkpt lat="53.460397" lon="05.680968"><ele>-2.2</ele><time>2021-02-17T14:28:20Z</time><name>PT9187</name></trkpt>
<trkpt lat="53.460396" lon="05.680983"><ele>-2.1</ele><time>2021-02-17T14:28:21Z</time><name>PT9188</name></trkpt>
<trkpt lat="53.460393" lon="05.681000"><ele>-1.9</ele><time>2021-02-17T14:28:22Z</time><name>PT9189</name></trkpt>
<trkpt lat="53.460390" lon="05.681016"><ele>-1.9</ele><time>2021-02-17T14:28:23Z</time><name>PT9190</name></trkpt>
<trkpt lat="53.460387" lon="05.681032"><ele>-1.9</ele><time>2021-02-17T14:28:24Z</time><name>PT9191</name></trkpt>
<trkpt lat="53.460386" lon="05.681050"><ele>-1.9</ele><time>2021-02-17T14:28:25Z</time><name>PT9192</name></trkpt>
<trkpt lat="53.460385" lon="05.681065"><ele>-1.7</ele><time>2021-02-17T14:28:26Z</time><name>PT9193</name></trkpt>
<trkpt lat="53.460383" lon="05.681079"><ele>-1.5</ele><time>2021-02-17T14:28:27Z</time><name>PT9194</name></trkpt>
<trkpt lat="53.460379" lon="05.681094"><ele>-1.1</ele><time>2021-02-17T14:28:28Z</time><name>PT9195</name></trkpt>
<trkpt lat="53.460374" lon="05.681108"><ele>0.9</ele><time>2021-02-17T14:28:29Z</time><name>PT9196</name></trkpt>
<trkpt lat="53.460371" lon="05.681122"><ele>-1</ele><time>2021-02-17T14:28:30Z</time><name>PT9197</name></trkpt>
<trkpt lat="53.460375" lon="05.681136"><ele>-1.1</ele><time>2021-02-17T14:28:31Z</time><name>PT9198</name></trkpt>
<trkpt lat="53.460372" lon="05.681153"><ele>-1.4</ele><time>2021-02-17T14:28:32Z</time><name>PT9199</name></trkpt>
<trkpt lat="53.460370" lon="05.681169"><ele>-1.5</ele><time>2021-02-17T14:28:33Z</time><name>PT9200</name></trkpt>
<trkpt lat="53.460370" lon="05.681187"><ele>-1.5</ele><time>2021-02-17T14:28:34Z</time><name>PT9201</name></trkpt>
<trkpt lat="53.460369" lon="05.681211"><ele>-1.6</ele><time>2021-02-17T14:28:35Z</time><name>PT9202</name></trkpt>
<trkpt lat="53.460369" lon="05.681232"><ele>-1.7</ele><time>2021-02-17T14:28:36Z</time><name>PT9203</name></trkpt>
<trkpt lat="53.460368" lon="05.681249"><ele>-1.8</ele><time>2021-02-17T14:28:37Z</time><name>PT9204</name></trkpt>
<trkpt lat="53.460366" lon="05.681267"><ele>-1.9</ele><time>2021-02-17T14:28:38Z</time><name>PT9205</name></trkpt>
<trkpt lat="53.460364" lon="05.681282"><ele>-2.1</ele><time>2021-02-17T14:28:39Z</time><name>PT9206</name></trkpt>
<trkpt lat="53.460360" lon="05.681297"><ele>-2.2</ele><time>2021-02-17T14:28:40Z</time><name>PT9207</name></trkpt>
<trkpt lat="53.460357" lon="05.681313"><ele>-2.4</ele><time>2021-02-17T14:28:41Z</time><name>PT9208</name></trkpt>
<trkpt lat="53.460355" lon="05.681332"><ele>-2.3</ele><time>2021-02-17T14:28:42Z</time><name>PT9209</name></trkpt>
<trkpt lat="53.460350" lon="05.681349"><ele>-2.4</ele><time>2021-02-17T14:28:43Z</time><name>PT9210</name></trkpt>
<trkpt lat="53.460348" lon="05.681366"><ele>-2.3</ele><time>2021-02-17T14:28:44Z</time><name>PT9211</name></trkpt>
<trkpt lat="53.460347" lon="05.681382"><ele>-2.3</ele><time>2021-02-17T14:28:45Z</time><name>PT9212</name></trkpt>
<trkpt lat="53.460344" lon="05.681399"><ele>-2</ele><time>2021-02-17T14:28:46Z</time><name>PT9213</name></trkpt>
<trkpt lat="53.460342" lon="05.681415"><ele>-1.9</ele><time>2021-02-17T14:28:47Z</time><name>PT9214</name></trkpt>
<trkpt lat="53.460339" lon="05.681431"><ele>-2</ele><time>2021-02-17T14:28:48Z</time><name>PT9215</name></trkpt>
<trkpt lat="53.460337" lon="05.681449"><ele>-2</ele><time>2021-02-17T14:28:49Z</time><name>PT9216</name></trkpt>
<trkpt lat="53.460333" lon="05.681464"><ele>-2</ele><time>2021-02-17T14:28:50Z</time><name>PT9217</name></trkpt>
<trkpt lat="53.460329" lon="05.681482"><ele>-1.9</ele><time>2021-02-17T14:28:51Z</time><name>PT9218</name></trkpt>
<trkpt lat="53.460327" lon="05.681500"><ele>-1.8</ele><time>2021-02-17T14:28:52Z</time><name>PT9219</name></trkpt>
<trkpt lat="53.460325" lon="05.681515"><ele>-1.8</ele><time>2021-02-17T14:28:53Z</time><name>PT9220</name></trkpt>
<trkpt lat="53.460325" lon="05.681529"><ele>-1.7</ele><time>2021-02-17T14:28:54Z</time><name>PT9221</name></trkpt>
<trkpt lat="53.460323" lon="05.681547"><ele>-1.6</ele><time>2021-02-17T14:28:55Z</time><name>PT9222</name></trkpt>
<trkpt lat="53.460322" lon="05.681559"><ele>-1.7</ele><time>2021-02-17T14:28:56Z</time><name>PT9223</name></trkpt>
<trkpt lat="53.460320" lon="05.681575"><ele>-1.6</ele><time>2021-02-17T14:28:57Z</time><name>PT9224</name></trkpt>
<trkpt lat="53.460318" lon="05.681596"><ele>-1.8</ele><time>2021-02-17T14:28:58Z</time><name>PT9225</name></trkpt>
<trkpt lat="53.460315" lon="05.681615"><ele>-1.9</ele><time>2021-02-17T14:28:59Z</time><name>PT9226</name></trkpt>
<trkpt lat="53.460313" lon="05.681631"><ele>-1.9</ele><time>2021-02-17T14:29:00Z</time><name>PT9227</name></trkpt>
<trkpt lat="53.460313" lon="05.681649"><ele>-1.8</ele><time>2021-02-17T14:29:01Z</time><name>PT9228</name></trkpt>
<trkpt lat="53.460313" lon="05.681668"><ele>-1.7</ele><time>2021-02-17T14:29:02Z</time><name>PT9229</name></trkpt>
<trkpt lat="53.460313" lon="05.681687"><ele>-1.7</ele><time>2021-02-17T14:29:03Z</time><name>PT9230</name></trkpt>
<trkpt lat="53.460312" lon="05.681703"><ele>-1.7</ele><time>2021-02-17T14:29:04Z</time><name>PT9231</name></trkpt>
<trkpt lat="53.460308" lon="05.681718"><ele>-1.9</ele><time>2021-02-17T14:29:05Z</time><name>PT9232</name></trkpt>
<trkpt lat="53.460307" lon="05.681734"><ele>-2</ele><time>2021-02-17T14:29:06Z</time><name>PT9233</name></trkpt>
<trkpt lat="53.460308" lon="05.681750"><ele>-2.4</ele><time>2021-02-17T14:29:07Z</time><name>PT9234</name></trkpt>
<trkpt lat="53.460307" lon="05.681767"><ele>-2.4</ele><time>2021-02-17T14:29:08Z</time><name>PT9235</name></trkpt>
<trkpt lat="53.460308" lon="05.681785"><ele>-2.4</ele><time>2021-02-17T14:29:09Z</time><name>PT9236</name></trkpt>
<trkpt lat="53.460306" lon="05.681806"><ele>-2.2</ele><time>2021-02-17T14:29:10Z</time><name>PT9237</name></trkpt>
<trkpt lat="53.460304" lon="05.681824"><ele>-1.9</ele><time>2021-02-17T14:29:11Z</time><name>PT9238</name></trkpt>
<trkpt lat="53.460303" lon="05.681835"><ele>-1.7</ele><time>2021-02-17T14:29:12Z</time><name>PT9239</name></trkpt>
<trkpt lat="53.460303" lon="05.681844"><ele>-1.4</ele><time>2021-02-17T14:29:13Z</time><name>PT9240</name></trkpt>
<trkpt lat="53.460300" lon="05.681857"><ele>-1.5</ele><time>2021-02-17T14:29:14Z</time><name>PT9241</name></trkpt>
<trkpt lat="53.460297" lon="05.681869"><ele>-2</ele><time>2021-02-17T14:29:15Z</time><name>PT9242</name></trkpt>
<trkpt lat="53.460294" lon="05.681882"><ele>-2</ele><time>2021-02-17T14:29:16Z</time><name>PT9243</name></trkpt>
<trkpt lat="53.460291" lon="05.681894"><ele>-2.2</ele><time>2021-02-17T14:29:17Z</time><name>PT9244</name></trkpt>
<trkpt lat="53.460288" lon="05.681906"><ele>-2.1</ele><time>2021-02-17T14:29:18Z</time><name>PT9245</name></trkpt>
<trkpt lat="53.460285" lon="05.681918"><ele>-1.9</ele><time>2021-02-17T14:29:19Z</time><name>PT9246</name></trkpt>
<trkpt lat="53.460283" lon="05.681931"><ele>-1.8</ele><time>2021-02-17T14:29:20Z</time><name>PT9247</name></trkpt>
<trkpt lat="53.460281" lon="05.681939"><ele>-1.6</ele><time>2021-02-17T14:29:21Z</time><name>PT9248</name></trkpt>
<trkpt lat="53.460280" lon="05.681940"><ele>-1.6</ele><time>2021-02-17T14:29:22Z</time><name>PT9249</name></trkpt>
<trkpt lat="53.460279" lon="05.681940"><ele>-1.4</ele><time>2021-02-17T14:29:23Z</time><name>PT9250</name></trkpt>
<trkpt lat="53.460280" lon="05.681939"><ele>-1.4</ele><time>2021-02-17T14:29:24Z</time><name>PT9251</name></trkpt>
<trkpt lat="53.460281" lon="05.681940"><ele>-1.5</ele><time>2021-02-17T14:29:25Z</time><name>PT9252</name></trkpt>
<trkpt lat="53.460280" lon="05.681940"><ele>-1.7</ele><time>2021-02-17T14:29:26Z</time><name>PT9253</name></trkpt>
<trkpt lat="53.460279" lon="05.681940"><ele>-1.8</ele><time>2021-02-17T14:29:27Z</time><name>PT9254</name></trkpt>
<trkpt lat="53.460279" lon="05.681941"><ele>-2.1</ele><time>2021-02-17T14:29:28Z</time><name>PT9255</name></trkpt>
<trkpt lat="53.460279" lon="05.681947"><ele>0</ele><time>2021-02-17T14:29:51Z</time><name>PT9256</name></trkpt>
<trkpt lat="53.460275" lon="05.681963"><ele>0.3</ele><time>2021-02-17T14:29:52Z</time><name>PT9257</name></trkpt>
<trkpt lat="53.460272" lon="05.681980"><ele>0.6</ele><time>2021-02-17T14:29:53Z</time><name>PT9258</name></trkpt>
<trkpt lat="53.460270" lon="05.682000"><ele>0.6</ele><time>2021-02-17T14:29:54Z</time><name>PT9259</name></trkpt>
<trkpt lat="53.460267" lon="05.682019"><ele>0.8</ele><time>2021-02-17T14:29:55Z</time><name>PT9260</name></trkpt>
<trkpt lat="53.460264" lon="05.682037"><ele>0.7</ele><time>2021-02-17T14:29:56Z</time><name>PT9261</name></trkpt>
<trkpt lat="53.460261" lon="05.682053"><ele>0.4</ele><time>2021-02-17T14:29:57Z</time><name>PT9262</name></trkpt>
<trkpt lat="53.460257" lon="05.682069"><ele>0.3</ele><time>2021-02-17T14:29:58Z</time><name>PT9263</name></trkpt>
<trkpt lat="53.460253" lon="05.682082"><ele>0.2</ele><time>2021-02-17T14:29:59Z</time><name>PT9264</name></trkpt>
<trkpt lat="53.460250" lon="05.682094"><ele>0.2</ele><time>2021-02-17T14:30:00Z</time><name>PT9265</name></trkpt>
<trkpt lat="53.460246" lon="05.682103"><ele>0</ele><time>2021-02-17T14:30:01Z</time><name>PT9266</name></trkpt>
<trkpt lat="53.460243" lon="05.682113"><ele>0</ele><time>2021-02-17T14:30:02Z</time><name>PT9267</name></trkpt>
<trkpt lat="53.460243" lon="05.682117"><ele>0.2</ele><time>2021-02-17T14:30:03Z</time><name>PT9268</name></trkpt>
<trkpt lat="53.460243" lon="05.682115"><ele>0.2</ele><time>2021-02-17T14:30:04Z</time><name>PT9269</name></trkpt>
<trkpt lat="53.460243" lon="05.682114"><ele>0.1</ele><time>2021-02-17T14:30:05Z</time><name>PT9270</name></trkpt>
<trkpt lat="53.460243" lon="05.682111"><ele>0</ele><time>2021-02-17T14:30:06Z</time><name>PT9271</name></trkpt>
<trkpt lat="53.460243" lon="05.682114"><ele>0.4</ele><time>2021-02-17T14:30:10Z</time><name>PT9272</name></trkpt>
<trkpt lat="53.460243" lon="05.682118"><ele>0.5</ele><time>2021-02-17T14:30:11Z</time><name>PT9273</name></trkpt>
<trkpt lat="53.460241" lon="05.682126"><ele>0.5</ele><time>2021-02-17T14:30:12Z</time><name>PT9274</name></trkpt>
<trkpt lat="53.460239" lon="05.682140"><ele>0.9</ele><time>2021-02-17T14:30:13Z</time><name>PT9275</name></trkpt>
<trkpt lat="53.460238" lon="05.682154"><ele>-1</ele><time>2021-02-17T14:30:14Z</time><name>PT9276</name></trkpt>
<trkpt lat="53.460238" lon="05.682161"><ele>-1</ele><time>2021-02-17T14:30:15Z</time><name>PT9277</name></trkpt>
<trkpt lat="53.460237" lon="05.682174"><ele>-1</ele><time>2021-02-17T14:30:16Z</time><name>PT9278</name></trkpt>
<trkpt lat="53.460235" lon="05.682187"><ele>-1.1</ele><time>2021-02-17T14:30:17Z</time><name>PT9279</name></trkpt>
<trkpt lat="53.460232" lon="05.682202"><ele>-1</ele><time>2021-02-17T14:30:18Z</time><name>PT9280</name></trkpt>
<trkpt lat="53.460231" lon="05.682216"><ele>-1.1</ele><time>2021-02-17T14:30:19Z</time><name>PT9281</name></trkpt>
<trkpt lat="53.460230" lon="05.682228"><ele>0.9</ele><time>2021-02-17T14:30:20Z</time><name>PT9282</name></trkpt>
<trkpt lat="53.460228" lon="05.682239"><ele>-1</ele><time>2021-02-17T14:30:21Z</time><name>PT9283</name></trkpt>
<trkpt lat="53.460226" lon="05.682253"><ele>0.8</ele><time>2021-02-17T14:30:22Z</time><name>PT9284</name></trkpt>
<trkpt lat="53.460223" lon="05.682266"><ele>0.7</ele><time>2021-02-17T14:30:23Z</time><name>PT9285</name></trkpt>
<trkpt lat="53.460222" lon="05.682279"><ele>0.6</ele><time>2021-02-17T14:30:24Z</time><name>PT9286</name></trkpt>
<trkpt lat="53.460221" lon="05.682294"><ele>0.6</ele><time>2021-02-17T14:30:25Z</time><name>PT9287</name></trkpt>
<trkpt lat="53.460220" lon="05.682306"><ele>0.5</ele><time>2021-02-17T14:30:26Z</time><name>PT9288</name></trkpt>
<trkpt lat="53.460222" lon="05.682314"><ele>0.8</ele><time>2021-02-17T14:30:27Z</time><name>PT9289</name></trkpt>
<trkpt lat="53.460222" lon="05.682327"><ele>0.9</ele><time>2021-02-17T14:30:28Z</time><name>PT9290</name></trkpt>
<trkpt lat="53.460222" lon="05.682343"><ele>0.9</ele><time>2021-02-17T14:30:29Z</time><name>PT9291</name></trkpt>
<trkpt lat="53.460221" lon="05.682361"><ele>0.9</ele><time>2021-02-17T14:30:30Z</time><name>PT9292</name></trkpt>
<trkpt lat="53.460220" lon="05.682376"><ele>0.9</ele><time>2021-02-17T14:30:31Z</time><name>PT9293</name></trkpt>
<trkpt lat="53.460221" lon="05.682391"><ele>0.7</ele><time>2021-02-17T14:30:32Z</time><name>PT9294</name></trkpt>
<trkpt lat="53.460221" lon="05.682406"><ele>0.7</ele><time>2021-02-17T14:30:33Z</time><name>PT9295</name></trkpt>
<trkpt lat="53.460220" lon="05.682418"><ele>0.7</ele><time>2021-02-17T14:30:34Z</time><name>PT9296</name></trkpt>
<trkpt lat="53.460216" lon="05.682431"><ele>0.7</ele><time>2021-02-17T14:30:35Z</time><name>PT9297</name></trkpt>
<trkpt lat="53.460213" lon="05.682445"><ele>0.8</ele><time>2021-02-17T14:30:36Z</time><name>PT9298</name></trkpt>
<trkpt lat="53.460210" lon="05.682459"><ele>0.9</ele><time>2021-02-17T14:30:37Z</time><name>PT9299</name></trkpt>
<trkpt lat="53.460209" lon="05.682476"><ele>0.9</ele><time>2021-02-17T14:30:38Z</time><name>PT9300</name></trkpt>
<trkpt lat="53.460209" lon="05.682495"><ele>0.9</ele><time>2021-02-17T14:30:39Z</time><name>PT9301</name></trkpt>
<trkpt lat="53.460206" lon="05.682515"><ele>0.7</ele><time>2021-02-17T14:30:40Z</time><name>PT9302</name></trkpt>
<trkpt lat="53.460206" lon="05.682531"><ele>0.6</ele><time>2021-02-17T14:30:41Z</time><name>PT9303</name></trkpt>
<trkpt lat="53.460204" lon="05.682546"><ele>0.4</ele><time>2021-02-17T14:30:42Z</time><name>PT9304</name></trkpt>
<trkpt lat="53.460202" lon="05.682560"><ele>0.5</ele><time>2021-02-17T14:30:43Z</time><name>PT9305</name></trkpt>
<trkpt lat="53.460200" lon="05.682576"><ele>0.4</ele><time>2021-02-17T14:30:44Z</time><name>PT9306</name></trkpt>
<trkpt lat="53.460197" lon="05.682591"><ele>0.5</ele><time>2021-02-17T14:30:45Z</time><name>PT9307</name></trkpt>
<trkpt lat="53.460195" lon="05.682605"><ele>0.7</ele><time>2021-02-17T14:30:46Z</time><name>PT9308</name></trkpt>
<trkpt lat="53.460193" lon="05.682622"><ele>0.6</ele><time>2021-02-17T14:30:47Z</time><name>PT9309</name></trkpt>
<trkpt lat="53.460191" lon="05.682639"><ele>0.6</ele><time>2021-02-17T14:30:48Z</time><name>PT9310</name></trkpt>
<trkpt lat="53.460188" lon="05.682655"><ele>0.4</ele><time>2021-02-17T14:30:49Z</time><name>PT9311</name></trkpt>
<trkpt lat="53.460186" lon="05.682667"><ele>0.4</ele><time>2021-02-17T14:30:50Z</time><name>PT9312</name></trkpt>
<trkpt lat="53.460183" lon="05.682682"><ele>0</ele><time>2021-02-17T14:30:51Z</time><name>PT9313</name></trkpt>
<trkpt lat="53.460181" lon="05.682697"><ele>0</ele><time>2021-02-17T14:30:52Z</time><name>PT9314</name></trkpt>
<trkpt lat="53.460180" lon="05.682712"><ele>0.4</ele><time>2021-02-17T14:30:53Z</time><name>PT9315</name></trkpt>
<trkpt lat="53.460179" lon="05.682725"><ele>0.4</ele><time>2021-02-17T14:30:54Z</time><name>PT9316</name></trkpt>
<trkpt lat="53.460179" lon="05.682740"><ele>0.2</ele><time>2021-02-17T14:30:55Z</time><name>PT9317</name></trkpt>
<trkpt lat="53.460179" lon="05.682753"><ele>0.4</ele><time>2021-02-17T14:30:56Z</time><name>PT9318</name></trkpt>
<trkpt lat="53.460178" lon="05.682767"><ele>0.2</ele><time>2021-02-17T14:30:57Z</time><name>PT9319</name></trkpt>
<trkpt lat="53.460178" lon="05.682785"><ele>0</ele><time>2021-02-17T14:30:58Z</time><name>PT9320</name></trkpt>
<trkpt lat="53.460176" lon="05.682803"><ele>0.4</ele><time>2021-02-17T14:30:59Z</time><name>PT9321</name></trkpt>
<trkpt lat="53.460175" lon="05.682823"><ele>0.5</ele><time>2021-02-17T14:31:00Z</time><name>PT9322</name></trkpt>
<trkpt lat="53.460174" lon="05.682842"><ele>0.6</ele><time>2021-02-17T14:31:01Z</time><name>PT9323</name></trkpt>
<trkpt lat="53.460172" lon="05.682861"><ele>0.9</ele><time>2021-02-17T14:31:02Z</time><name>PT9324</name></trkpt>
<trkpt lat="53.460171" lon="05.682879"><ele>0.9</ele><time>2021-02-17T14:31:03Z</time><name>PT9325</name></trkpt>
<trkpt lat="53.460171" lon="05.682897"><ele>0.9</ele><time>2021-02-17T14:31:04Z</time><name>PT9326</name></trkpt>
<trkpt lat="53.460172" lon="05.682915"><ele>0.9</ele><time>2021-02-17T14:31:05Z</time><name>PT9327</name></trkpt>
<trkpt lat="53.460171" lon="05.682932"><ele>0.9</ele><time>2021-02-17T14:31:06Z</time><name>PT9328</name></trkpt>
<trkpt lat="53.460170" lon="05.682948"><ele>0.7</ele><time>2021-02-17T14:31:07Z</time><name>PT9329</name></trkpt>
<trkpt lat="53.460169" lon="05.682965"><ele>0.6</ele><time>2021-02-17T14:31:08Z</time><name>PT9330</name></trkpt>
<trkpt lat="53.460168" lon="05.682985"><ele>0.5</ele><time>2021-02-17T14:31:09Z</time><name>PT9331</name></trkpt>
<trkpt lat="53.460168" lon="05.683006"><ele>0.5</ele><time>2021-02-17T14:31:10Z</time><name>PT9332</name></trkpt>
<trkpt lat="53.460168" lon="05.683026"><ele>0.5</ele><time>2021-02-17T14:31:11Z</time><name>PT9333</name></trkpt>
<trkpt lat="53.460167" lon="05.683047"><ele>0.7</ele><time>2021-02-17T14:31:12Z</time><name>PT9334</name></trkpt>
<trkpt lat="53.460169" lon="05.683066"><ele>0.7</ele><time>2021-02-17T14:31:13Z</time><name>PT9335</name></trkpt>
<trkpt lat="53.460173" lon="05.683083"><ele>0.5</ele><time>2021-02-17T14:31:14Z</time><name>PT9336</name></trkpt>
<trkpt lat="53.460176" lon="05.683101"><ele>0.4</ele><time>2021-02-17T14:31:15Z</time><name>PT9337</name></trkpt>
<trkpt lat="53.460178" lon="05.683118"><ele>0.4</ele><time>2021-02-17T14:31:16Z</time><name>PT9338</name></trkpt>
<trkpt lat="53.460178" lon="05.683134"><ele>0.5</ele><time>2021-02-17T14:31:17Z</time><name>PT9339</name></trkpt>
<trkpt lat="53.460176" lon="05.683152"><ele>0.5</ele><time>2021-02-17T14:31:18Z</time><name>PT9340</name></trkpt>
<trkpt lat="53.460176" lon="05.683172"><ele>0.6</ele><time>2021-02-17T14:31:19Z</time><name>PT9341</name></trkpt>
<trkpt lat="53.460176" lon="05.683192"><ele>0.7</ele><time>2021-02-17T14:31:20Z</time><name>PT9342</name></trkpt>
<trkpt lat="53.460177" lon="05.683212"><ele>0.8</ele><time>2021-02-17T14:31:21Z</time><name>PT9343</name></trkpt>
<trkpt lat="53.460177" lon="05.683230"><ele>0.9</ele><time>2021-02-17T14:31:22Z</time><name>PT9344</name></trkpt>
<trkpt lat="53.460179" lon="05.683248"><ele>0.8</ele><time>2021-02-17T14:31:23Z</time><name>PT9345</name></trkpt>
<trkpt lat="53.460180" lon="05.683265"><ele>0.6</ele><time>2021-02-17T14:31:24Z</time><name>PT9346</name></trkpt>
<trkpt lat="53.460181" lon="05.683282"><ele>0.6</ele><time>2021-02-17T14:31:25Z</time><name>PT9347</name></trkpt>
<trkpt lat="53.460184" lon="05.683296"><ele>0.5</ele><time>2021-02-17T14:31:26Z</time><name>PT9348</name></trkpt>
<trkpt lat="53.460185" lon="05.683312"><ele>0.5</ele><time>2021-02-17T14:31:27Z</time><name>PT9349</name></trkpt>
<trkpt lat="53.460185" lon="05.683331"><ele>0.8</ele><time>2021-02-17T14:31:28Z</time><name>PT9350</name></trkpt>
<trkpt lat="53.460184" lon="05.683347"><ele>-1.1</ele><time>2021-02-17T14:31:29Z</time><name>PT9351</name></trkpt>
<trkpt lat="53.460183" lon="05.683367"><ele>-1.2</ele><time>2021-02-17T14:31:30Z</time><name>PT9352</name></trkpt>
<trkpt lat="53.460181" lon="05.683387"><ele>-1.1</ele><time>2021-02-17T14:31:31Z</time><name>PT9353</name></trkpt>
<trkpt lat="53.460180" lon="05.683407"><ele>-1.2</ele><time>2021-02-17T14:31:32Z</time><name>PT9354</name></trkpt>
<trkpt lat="53.460180" lon="05.683424"><ele>0.9</ele><time>2021-02-17T14:31:33Z</time><name>PT9355</name></trkpt>
<trkpt lat="53.460183" lon="05.683442"><ele>0.9</ele><time>2021-02-17T14:31:34Z</time><name>PT9356</name></trkpt>
<trkpt lat="53.460186" lon="05.683462"><ele>0.9</ele><time>2021-02-17T14:31:35Z</time><name>PT9357</name></trkpt>
<trkpt lat="53.460189" lon="05.683481"><ele>0.9</ele><time>2021-02-17T14:31:36Z</time><name>PT9358</name></trkpt>
<trkpt lat="53.460191" lon="05.683498"><ele>-1</ele><time>2021-02-17T14:31:37Z</time><name>PT9359</name></trkpt>
<trkpt lat="53.460192" lon="05.683514"><ele>-1.2</ele><time>2021-02-17T14:31:38Z</time><name>PT9360</name></trkpt>
<trkpt lat="53.460193" lon="05.683532"><ele>-1.2</ele><time>2021-02-17T14:31:39Z</time><name>PT9361</name></trkpt>
<trkpt lat="53.460195" lon="05.683550"><ele>-1.4</ele><time>2021-02-17T14:31:40Z</time><name>PT9362</name></trkpt>
<trkpt lat="53.460197" lon="05.683569"><ele>-1.4</ele><time>2021-02-17T14:31:41Z</time><name>PT9363</name></trkpt>
<trkpt lat="53.460200" lon="05.683587"><ele>-1.2</ele><time>2021-02-17T14:31:42Z</time><name>PT9364</name></trkpt>
<trkpt lat="53.460203" lon="05.683607"><ele>-1.2</ele><time>2021-02-17T14:31:43Z</time><name>PT9365</name></trkpt>
<trkpt lat="53.460204" lon="05.683626"><ele>-1.2</ele><time>2021-02-17T14:31:44Z</time><name>PT9366</name></trkpt>
<trkpt lat="53.460206" lon="05.683643"><ele>-1.1</ele><time>2021-02-17T14:31:45Z</time><name>PT9367</name></trkpt>
<trkpt lat="53.460206" lon="05.683660"><ele>-1.3</ele><time>2021-02-17T14:31:46Z</time><name>PT9368</name></trkpt>
<trkpt lat="53.460206" lon="05.683679"><ele>-1.4</ele><time>2021-02-17T14:31:47Z</time><name>PT9369</name></trkpt>
<trkpt lat="53.460206" lon="05.683697"><ele>-1.5</ele><time>2021-02-17T14:31:48Z</time><name>PT9370</name></trkpt>
<trkpt lat="53.460205" lon="05.683717"><ele>-1.6</ele><time>2021-02-17T14:31:49Z</time><name>PT9371</name></trkpt>
<trkpt lat="53.460206" lon="05.683737"><ele>-1.7</ele><time>2021-02-17T14:31:50Z</time><name>PT9372</name></trkpt>
<trkpt lat="53.460206" lon="05.683757"><ele>-1.7</ele><time>2021-02-17T14:31:51Z</time><name>PT9373</name></trkpt>
<trkpt lat="53.460208" lon="05.683776"><ele>-1.8</ele><time>2021-02-17T14:31:52Z</time><name>PT9374</name></trkpt>
<trkpt lat="53.460210" lon="05.683795"><ele>-1.8</ele><time>2021-02-17T14:31:53Z</time><name>PT9375</name></trkpt>
<trkpt lat="53.460212" lon="05.683815"><ele>-1.8</ele><time>2021-02-17T14:31:54Z</time><name>PT9376</name></trkpt>
<trkpt lat="53.460214" lon="05.683836"><ele>-1.8</ele><time>2021-02-17T14:31:55Z</time><name>PT9377</name></trkpt>
<trkpt lat="53.460215" lon="05.683855"><ele>-1.6</ele><time>2021-02-17T14:31:56Z</time><name>PT9378</name></trkpt>
<trkpt lat="53.460215" lon="05.683873"><ele>-1.6</ele><time>2021-02-17T14:31:57Z</time><name>PT9379</name></trkpt>
<trkpt lat="53.460214" lon="05.683891"><ele>-1.4</ele><time>2021-02-17T14:31:58Z</time><name>PT9380</name></trkpt>
<trkpt lat="53.460213" lon="05.683909"><ele>-1.5</ele><time>2021-02-17T14:31:59Z</time><name>PT9381</name></trkpt>
<trkpt lat="53.460210" lon="05.683926"><ele>-1.6</ele><time>2021-02-17T14:32:00Z</time><name>PT9382</name></trkpt>
<trkpt lat="53.460207" lon="05.683944"><ele>-1.7</ele><time>2021-02-17T14:32:01Z</time><name>PT9383</name></trkpt>
<trkpt lat="53.460206" lon="05.683962"><ele>-1.7</ele><time>2021-02-17T14:32:02Z</time><name>PT9384</name></trkpt>
<trkpt lat="53.460204" lon="05.683984"><ele>-1.8</ele><time>2021-02-17T14:32:03Z</time><name>PT9385</name></trkpt>
<trkpt lat="53.460202" lon="05.684006"><ele>-1.7</ele><time>2021-02-17T14:32:04Z</time><name>PT9386</name></trkpt>
<trkpt lat="53.460202" lon="05.684025"><ele>-1.6</ele><time>2021-02-17T14:32:05Z</time><name>PT9387</name></trkpt>
<trkpt lat="53.460199" lon="05.684035"><ele>-1.7</ele><time>2021-02-17T14:32:06Z</time><name>PT9388</name></trkpt>
<trkpt lat="53.460196" lon="05.684036"><ele>-1.5</ele><time>2021-02-17T14:32:07Z</time><name>PT9389</name></trkpt>
<trkpt lat="53.460197" lon="05.684037"><ele>-1.4</ele><time>2021-02-17T14:32:08Z</time><name>PT9390</name></trkpt>
<trkpt lat="53.460199" lon="05.684039"><ele>-1.5</ele><time>2021-02-17T14:32:09Z</time><name>PT9391</name></trkpt>
<trkpt lat="53.460199" lon="05.684048"><ele>-1.7</ele><time>2021-02-17T14:32:10Z</time><name>PT9392</name></trkpt>
<trkpt lat="53.460199" lon="05.684064"><ele>-1.6</ele><time>2021-02-17T14:32:11Z</time><name>PT9393</name></trkpt>
<trkpt lat="53.460199" lon="05.684082"><ele>-1.5</ele><time>2021-02-17T14:32:12Z</time><name>PT9394</name></trkpt>
<trkpt lat="53.460197" lon="05.684102"><ele>-1.4</ele><time>2021-02-17T14:32:13Z</time><name>PT9395</name></trkpt>
<trkpt lat="53.460194" lon="05.684126"><ele>-1.3</ele><time>2021-02-17T14:32:14Z</time><name>PT9396</name></trkpt>
<trkpt lat="53.460194" lon="05.684143"><ele>-1.3</ele><time>2021-02-17T14:32:15Z</time><name>PT9397</name></trkpt>
<trkpt lat="53.460194" lon="05.684156"><ele>-1.4</ele><time>2021-02-17T14:32:16Z</time><name>PT9398</name></trkpt>
<trkpt lat="53.460193" lon="05.684165"><ele>-1.6</ele><time>2021-02-17T14:32:17Z</time><name>PT9399</name></trkpt>
<trkpt lat="53.460188" lon="05.684175"><ele>-1.6</ele><time>2021-02-17T14:32:18Z</time><name>PT9400</name></trkpt>
<trkpt lat="53.460184" lon="05.684191"><ele>-1.9</ele><time>2021-02-17T14:32:19Z</time><name>PT9401</name></trkpt>
<trkpt lat="53.460182" lon="05.684213"><ele>-1.8</ele><time>2021-02-17T14:32:20Z</time><name>PT9402</name></trkpt>
<trkpt lat="53.460180" lon="05.684243"><ele>-1.9</ele><time>2021-02-17T14:32:21Z</time><name>PT9403</name></trkpt>
<trkpt lat="53.460176" lon="05.684273"><ele>-1.9</ele><time>2021-02-17T14:32:22Z</time><name>PT9404</name></trkpt>
<trkpt lat="53.460172" lon="05.684301"><ele>-1.8</ele><time>2021-02-17T14:32:23Z</time><name>PT9405</name></trkpt>
<trkpt lat="53.460170" lon="05.684329"><ele>-1.8</ele><time>2021-02-17T14:32:24Z</time><name>PT9406</name></trkpt>
<trkpt lat="53.460169" lon="05.684357"><ele>-1.8</ele><time>2021-02-17T14:32:25Z</time><name>PT9407</name></trkpt>
<trkpt lat="53.460170" lon="05.684382"><ele>-1.9</ele><time>2021-02-17T14:32:26Z</time><name>PT9408</name></trkpt>
<trkpt lat="53.460171" lon="05.684399"><ele>-1.7</ele><time>2021-02-17T14:32:27Z</time><name>PT9409</name></trkpt>
<trkpt lat="53.460173" lon="05.684412"><ele>-2</ele><time>2021-02-17T14:32:28Z</time><name>PT9410</name></trkpt>
<trkpt lat="53.460173" lon="05.684424"><ele>-2.1</ele><time>2021-02-17T14:32:29Z</time><name>PT9411</name></trkpt>
<trkpt lat="53.460175" lon="05.684438"><ele>-2.1</ele><time>2021-02-17T14:32:30Z</time><name>PT9412</name></trkpt>
<trkpt lat="53.460175" lon="05.684452"><ele>-2.3</ele><time>2021-02-17T14:32:31Z</time><name>PT9413</name></trkpt>
<trkpt lat="53.460174" lon="05.684467"><ele>-2.3</ele><time>2021-02-17T14:32:32Z</time><name>PT9414</name></trkpt>
<trkpt lat="53.460175" lon="05.684487"><ele>-2.3</ele><time>2021-02-17T14:32:33Z</time><name>PT9415</name></trkpt>
<trkpt lat="53.460174" lon="05.684509"><ele>-2.1</ele><time>2021-02-17T14:32:34Z</time><name>PT9416</name></trkpt>
<trkpt lat="53.460172" lon="05.684534"><ele>-1.9</ele><time>2021-02-17T14:32:35Z</time><name>PT9417</name></trkpt>
<trkpt lat="53.460169" lon="05.684556"><ele>-1.9</ele><time>2021-02-17T14:32:36Z</time><name>PT9418</name></trkpt>
<trkpt lat="53.460167" lon="05.684579"><ele>-1.9</ele><time>2021-02-17T14:32:37Z</time><name>PT9419</name></trkpt>
<trkpt lat="53.460166" lon="05.684602"><ele>-1.8</ele><time>2021-02-17T14:32:38Z</time><name>PT9420</name></trkpt>
<trkpt lat="53.460165" lon="05.684623"><ele>-1.9</ele><time>2021-02-17T14:32:39Z</time><name>PT9421</name></trkpt>
<trkpt lat="53.460162" lon="05.684641"><ele>-1.7</ele><time>2021-02-17T14:32:40Z</time><name>PT9422</name></trkpt>
<trkpt lat="53.460161" lon="05.684656"><ele>-1.6</ele><time>2021-02-17T14:32:41Z</time><name>PT9423</name></trkpt>
<trkpt lat="53.460160" lon="05.684672"><ele>-1.6</ele><time>2021-02-17T14:32:42Z</time><name>PT9424</name></trkpt>
<trkpt lat="53.460157" lon="05.684688"><ele>-1.8</ele><time>2021-02-17T14:32:43Z</time><name>PT9425</name></trkpt>
<trkpt lat="53.460156" lon="05.684700"><ele>-1.9</ele><time>2021-02-17T14:32:44Z</time><name>PT9426</name></trkpt>
<trkpt lat="53.460154" lon="05.684707"><ele>-2</ele><time>2021-02-17T14:32:45Z</time><name>PT9427</name></trkpt>
<trkpt lat="53.460154" lon="05.684714"><ele>-2</ele><time>2021-02-17T14:32:46Z</time><name>PT9428</name></trkpt>
<trkpt lat="53.460154" lon="05.684726"><ele>-2</ele><time>2021-02-17T14:32:47Z</time><name>PT9429</name></trkpt>
<trkpt lat="53.460152" lon="05.684740"><ele>-1.9</ele><time>2021-02-17T14:32:48Z</time><name>PT9430</name></trkpt>
<trkpt lat="53.460150" lon="05.684758"><ele>-1.9</ele><time>2021-02-17T14:32:49Z</time><name>PT9431</name></trkpt>
<trkpt lat="53.460147" lon="05.684778"><ele>-1.9</ele><time>2021-02-17T14:32:50Z</time><name>PT9432</name></trkpt>
<trkpt lat="53.460145" lon="05.684802"><ele>-2</ele><time>2021-02-17T14:32:51Z</time><name>PT9433</name></trkpt>
<trkpt lat="53.460143" lon="05.684827"><ele>-2.3</ele><time>2021-02-17T14:32:52Z</time><name>PT9434</name></trkpt>
<trkpt lat="53.460140" lon="05.684851"><ele>-2.4</ele><time>2021-02-17T14:32:53Z</time><name>PT9435</name></trkpt>
<trkpt lat="53.460140" lon="05.684875"><ele>-2.4</ele><time>2021-02-17T14:32:54Z</time><name>PT9436</name></trkpt>
<trkpt lat="53.460139" lon="05.684894"><ele>-2.7</ele><time>2021-02-17T14:32:55Z</time><name>PT9437</name></trkpt>
<trkpt lat="53.460137" lon="05.684909"><ele>-2.8</ele><time>2021-02-17T14:32:56Z</time><name>PT9438</name></trkpt>
<trkpt lat="53.460133" lon="05.684925"><ele>-2.7</ele><time>2021-02-17T14:32:57Z</time><name>PT9439</name></trkpt>
<trkpt lat="53.460130" lon="05.684939"><ele>-2.7</ele><time>2021-02-17T14:32:58Z</time><name>PT9440</name></trkpt>
<trkpt lat="53.460127" lon="05.684950"><ele>-2.6</ele><time>2021-02-17T14:32:59Z</time><name>PT9441</name></trkpt>
<trkpt lat="53.460126" lon="05.684967"><ele>-2.4</ele><time>2021-02-17T14:33:00Z</time><name>PT9442</name></trkpt>
<trkpt lat="53.460123" lon="05.684987"><ele>-2.4</ele><time>2021-02-17T14:33:01Z</time><name>PT9443</name></trkpt>
<trkpt lat="53.460120" lon="05.685010"><ele>-2</ele><time>2021-02-17T14:33:02Z</time><name>PT9444</name></trkpt>
<trkpt lat="53.460115" lon="05.685034"><ele>-1.9</ele><time>2021-02-17T14:33:03Z</time><name>PT9445</name></trkpt>
<trkpt lat="53.460111" lon="05.685057"><ele>-1.7</ele><time>2021-02-17T14:33:04Z</time><name>PT9446</name></trkpt>
<trkpt lat="53.460108" lon="05.685078"><ele>-1.6</ele><time>2021-02-17T14:33:05Z</time><name>PT9447</name></trkpt>
<trkpt lat="53.460107" lon="05.685092"><ele>-1.6</ele><time>2021-02-17T14:33:06Z</time><name>PT9448</name></trkpt>
<trkpt lat="53.460105" lon="05.685109"><ele>-1.7</ele><time>2021-02-17T14:33:07Z</time><name>PT9449</name></trkpt>
<trkpt lat="53.460106" lon="05.685120"><ele>-1.9</ele><time>2021-02-17T14:33:08Z</time><name>PT9450</name></trkpt>
<trkpt lat="53.460105" lon="05.685129"><ele>-1.7</ele><time>2021-02-17T14:33:09Z</time><name>PT9451</name></trkpt>
<trkpt lat="53.460105" lon="05.685147"><ele>-1.5</ele><time>2021-02-17T14:33:10Z</time><name>PT9452</name></trkpt>
<trkpt lat="53.460100" lon="05.685169"><ele>-1.5</ele><time>2021-02-17T14:33:11Z</time><name>PT9453</name></trkpt>
<trkpt lat="53.460100" lon="05.685191"><ele>-1.4</ele><time>2021-02-17T14:33:12Z</time><name>PT9454</name></trkpt>
<trkpt lat="53.460096" lon="05.685217"><ele>-1.5</ele><time>2021-02-17T14:33:13Z</time><name>PT9455</name></trkpt>
<trkpt lat="53.460091" lon="05.685237"><ele>-1.5</ele><time>2021-02-17T14:33:14Z</time><name>PT9456</name></trkpt>
<trkpt lat="53.460090" lon="05.685258"><ele>-1.7</ele><time>2021-02-17T14:33:15Z</time><name>PT9457</name></trkpt>
<trkpt lat="53.460089" lon="05.685278"><ele>-1.9</ele><time>2021-02-17T14:33:16Z</time><name>PT9458</name></trkpt>
<trkpt lat="53.460088" lon="05.685296"><ele>-2</ele><time>2021-02-17T14:33:17Z</time><name>PT9459</name></trkpt>
<trkpt lat="53.460088" lon="05.685310"><ele>-2.2</ele><time>2021-02-17T14:33:18Z</time><name>PT9460</name></trkpt>
<trkpt lat="53.460088" lon="05.685322"><ele>-2.2</ele><time>2021-02-17T14:33:19Z</time><name>PT9461</name></trkpt>
<trkpt lat="53.460091" lon="05.685333"><ele>-2.4</ele><time>2021-02-17T14:33:20Z</time><name>PT9462</name></trkpt>
<trkpt lat="53.460092" lon="05.685344"><ele>-2.4</ele><time>2021-02-17T14:33:21Z</time><name>PT9463</name></trkpt>
<trkpt lat="53.460090" lon="05.685355"><ele>-2.1</ele><time>2021-02-17T14:33:22Z</time><name>PT9464</name></trkpt>
<trkpt lat="53.460087" lon="05.685369"><ele>-1.9</ele><time>2021-02-17T14:33:23Z</time><name>PT9465</name></trkpt>
<trkpt lat="53.460086" lon="05.685380"><ele>-2</ele><time>2021-02-17T14:33:24Z</time><name>PT9466</name></trkpt>
<trkpt lat="53.460084" lon="05.685398"><ele>-1.9</ele><time>2021-02-17T14:33:25Z</time><name>PT9467</name></trkpt>
<trkpt lat="53.460081" lon="05.685416"><ele>-1.9</ele><time>2021-02-17T14:33:26Z</time><name>PT9468</name></trkpt>
<trkpt lat="53.460085" lon="05.685422"><ele>-2</ele><time>2021-02-17T14:33:27Z</time><name>PT9469</name></trkpt>
<trkpt lat="53.460084" lon="05.685432"><ele>-2.2</ele><time>2021-02-17T14:33:28Z</time><name>PT9470</name></trkpt>
<trkpt lat="53.460080" lon="05.685450"><ele>-2.4</ele><time>2021-02-17T14:33:29Z</time><name>PT9471</name></trkpt>
<trkpt lat="53.460079" lon="05.685473"><ele>-2.4</ele><time>2021-02-17T14:33:30Z</time><name>PT9472</name></trkpt>
<trkpt lat="53.460077" lon="05.685499"><ele>-2.4</ele><time>2021-02-17T14:33:31Z</time><name>PT9473</name></trkpt>
<trkpt lat="53.460075" lon="05.685520"><ele>-2.3</ele><time>2021-02-17T14:33:32Z</time><name>PT9474</name></trkpt>
<trkpt lat="53.460075" lon="05.685531"><ele>-2.4</ele><time>2021-02-17T14:33:33Z</time><name>PT9475</name></trkpt>
<trkpt lat="53.460076" lon="05.685543"><ele>-2.3</ele><time>2021-02-17T14:33:34Z</time><name>PT9476</name></trkpt>
<trkpt lat="53.460074" lon="05.685552"><ele>-2.4</ele><time>2021-02-17T14:33:35Z</time><name>PT9477</name></trkpt>
<trkpt lat="53.460074" lon="05.685565"><ele>-2.4</ele><time>2021-02-17T14:33:36Z</time><name>PT9478</name></trkpt>
<trkpt lat="53.460070" lon="05.685579"><ele>-2</ele><time>2021-02-17T14:33:37Z</time><name>PT9479</name></trkpt>
<trkpt lat="53.460069" lon="05.685598"><ele>-2</ele><time>2021-02-17T14:33:38Z</time><name>PT9480</name></trkpt>
<trkpt lat="53.460060" lon="05.685620"><ele>-2</ele><time>2021-02-17T14:33:39Z</time><name>PT9481</name></trkpt>
<trkpt lat="53.460056" lon="05.685640"><ele>-2</ele><time>2021-02-17T14:33:40Z</time><name>PT9482</name></trkpt>
<trkpt lat="53.460055" lon="05.685654"><ele>-2</ele><time>2021-02-17T14:33:41Z</time><name>PT9483</name></trkpt>
<trkpt lat="53.460055" lon="05.685666"><ele>-1.9</ele><time>2021-02-17T14:33:42Z</time><name>PT9484</name></trkpt>
<trkpt lat="53.460056" lon="05.685677"><ele>-1.6</ele><time>2021-02-17T14:33:43Z</time><name>PT9485</name></trkpt>
<trkpt lat="53.460055" lon="05.685688"><ele>-1.5</ele><time>2021-02-17T14:33:44Z</time><name>PT9486</name></trkpt>
<trkpt lat="53.460052" lon="05.685700"><ele>-1.6</ele><time>2021-02-17T14:33:45Z</time><name>PT9487</name></trkpt>
<trkpt lat="53.460050" lon="05.685718"><ele>-1.9</ele><time>2021-02-17T14:33:46Z</time><name>PT9488</name></trkpt>
<trkpt lat="53.460047" lon="05.685745"><ele>-2</ele><time>2021-02-17T14:33:47Z</time><name>PT9489</name></trkpt>
<trkpt lat="53.460044" lon="05.685773"><ele>-2.2</ele><time>2021-02-17T14:33:48Z</time><name>PT9490</name></trkpt>
<trkpt lat="53.460043" lon="05.685798"><ele>-2.3</ele><time>2021-02-17T14:33:49Z</time><name>PT9491</name></trkpt>
<trkpt lat="53.460043" lon="05.685818"><ele>-2.4</ele><time>2021-02-17T14:33:50Z</time><name>PT9492</name></trkpt>
<trkpt lat="53.460043" lon="05.685830"><ele>-2.4</ele><time>2021-02-17T14:33:51Z</time><name>PT9493</name></trkpt>
<trkpt lat="53.460041" lon="05.685840"><ele>-2.5</ele><time>2021-02-17T14:33:52Z</time><name>PT9494</name></trkpt>
<trkpt lat="53.460039" lon="05.685853"><ele>-2.5</ele><time>2021-02-17T14:33:53Z</time><name>PT9495</name></trkpt>
<trkpt lat="53.460036" lon="05.685866"><ele>-2.4</ele><time>2021-02-17T14:33:54Z</time><name>PT9496</name></trkpt>
<trkpt lat="53.460032" lon="05.685877"><ele>-2.3</ele><time>2021-02-17T14:33:55Z</time><name>PT9497</name></trkpt>
<trkpt lat="53.460026" lon="05.685891"><ele>-2.2</ele><time>2021-02-17T14:33:56Z</time><name>PT9498</name></trkpt>
<trkpt lat="53.460020" lon="05.685911"><ele>-2.3</ele><time>2021-02-17T14:33:57Z</time><name>PT9499</name></trkpt>
<trkpt lat="53.460011" lon="05.685934"><ele>-2.2</ele><time>2021-02-17T14:33:58Z</time><name>PT9500</name></trkpt>
<trkpt lat="53.460001" lon="05.685960"><ele>-2.2</ele><time>2021-02-17T14:33:59Z</time><name>PT9501</name></trkpt>
<trkpt lat="53.459999" lon="05.685970"><ele>-2.2</ele><time>2021-02-17T14:34:00Z</time><name>PT9502</name></trkpt>
<trkpt lat="53.459994" lon="05.685979"><ele>-2.2</ele><time>2021-02-17T14:34:01Z</time><name>PT9503</name></trkpt>
<trkpt lat="53.459985" lon="05.685987"><ele>-2.2</ele><time>2021-02-17T14:34:02Z</time><name>PT9504</name></trkpt>
<trkpt lat="53.459971" lon="05.685997"><ele>-2.3</ele><time>2021-02-17T14:34:03Z</time><name>PT9505</name></trkpt>
<trkpt lat="53.459958" lon="05.686012"><ele>-2.4</ele><time>2021-02-17T14:34:04Z</time><name>PT9506</name></trkpt>
<trkpt lat="53.459946" lon="05.686028"><ele>-2.4</ele><time>2021-02-17T14:34:05Z</time><name>PT9507</name></trkpt>
<trkpt lat="53.459939" lon="05.686042"><ele>-2.4</ele><time>2021-02-17T14:34:06Z</time><name>PT9508</name></trkpt>
<trkpt lat="53.459935" lon="05.686051"><ele>-2.5</ele><time>2021-02-17T14:34:07Z</time><name>PT9509</name></trkpt>
<trkpt lat="53.459930" lon="05.686053"><ele>-2.4</ele><time>2021-02-17T14:34:08Z</time><name>PT9510</name></trkpt>
<trkpt lat="53.459922" lon="05.686060"><ele>-2.4</ele><time>2021-02-17T14:34:09Z</time><name>PT9511</name></trkpt>
<trkpt lat="53.459908" lon="05.686070"><ele>-2.5</ele><time>2021-02-17T14:34:10Z</time><name>PT9512</name></trkpt>
<trkpt lat="53.459899" lon="05.686080"><ele>-2.4</ele><time>2021-02-17T14:34:11Z</time><name>PT9513</name></trkpt>
<trkpt lat="53.459893" lon="05.686085"><ele>-2.4</ele><time>2021-02-17T14:34:12Z</time><name>PT9514</name></trkpt>
<trkpt lat="53.459888" lon="05.686085"><ele>-2.6</ele><time>2021-02-17T14:34:13Z</time><name>PT9515</name></trkpt>
<trkpt lat="53.459880" lon="05.686075"><ele>-2.4</ele><time>2021-02-17T14:34:14Z</time><name>PT9516</name></trkpt>
<trkpt lat="53.459872" lon="05.686073"><ele>-2.3</ele><time>2021-02-17T14:34:15Z</time><name>PT9517</name></trkpt>
<trkpt lat="53.459863" lon="05.686073"><ele>-2.3</ele><time>2021-02-17T14:34:16Z</time><name>PT9518</name></trkpt>
<trkpt lat="53.459858" lon="05.686073"><ele>-1.9</ele><time>2021-02-17T14:34:17Z</time><name>PT9519</name></trkpt>
<trkpt lat="53.459855" lon="05.686068"><ele>-1.8</ele><time>2021-02-17T14:34:18Z</time><name>PT9520</name></trkpt>
<trkpt lat="53.459847" lon="05.686052"><ele>-1.6</ele><time>2021-02-17T14:34:19Z</time><name>PT9521</name></trkpt>
<trkpt lat="53.459839" lon="05.686037"><ele>-1.4</ele><time>2021-02-17T14:34:20Z</time><name>PT9522</name></trkpt>
<trkpt lat="53.459835" lon="05.686031"><ele>-1.4</ele><time>2021-02-17T14:34:21Z</time><name>PT9523</name></trkpt>
<trkpt lat="53.459831" lon="05.686029"><ele>-1.2</ele><time>2021-02-17T14:34:22Z</time><name>PT9524</name></trkpt>
<trkpt lat="53.459826" lon="05.686022"><ele>-1.2</ele><time>2021-02-17T14:34:23Z</time><name>PT9525</name></trkpt>
<trkpt lat="53.459825" lon="05.686007"><ele>-1.2</ele><time>2021-02-17T14:34:24Z</time><name>PT9526</name></trkpt>
<trkpt lat="53.459820" lon="05.685985"><ele>-1.1</ele><time>2021-02-17T14:34:25Z</time><name>PT9527</name></trkpt>
<trkpt lat="53.459816" lon="05.685957"><ele>-1.2</ele><time>2021-02-17T14:34:26Z</time><name>PT9528</name></trkpt>
<trkpt lat="53.459810" lon="05.685930"><ele>-1.2</ele><time>2021-02-17T14:34:27Z</time><name>PT9529</name></trkpt>
<trkpt lat="53.459803" lon="05.685906"><ele>-1.1</ele><time>2021-02-17T14:34:28Z</time><name>PT9530</name></trkpt>
<trkpt lat="53.459801" lon="05.685888"><ele>0.9</ele><time>2021-02-17T14:34:29Z</time><name>PT9531</name></trkpt>
<trkpt lat="53.459798" lon="05.685880"><ele>0.8</ele><time>2021-02-17T14:34:30Z</time><name>PT9532</name></trkpt>
<trkpt lat="53.459796" lon="05.685876"><ele>0.6</ele><time>2021-02-17T14:34:31Z</time><name>PT9533</name></trkpt>
<trkpt lat="53.459794" lon="05.685873"><ele>0.3</ele><time>2021-02-17T14:34:32Z</time><name>PT9534</name></trkpt>
<trkpt lat="53.459793" lon="05.685864"><ele>0.1</ele><time>2021-02-17T14:34:33Z</time><name>PT9535</name></trkpt>
<trkpt lat="53.459790" lon="05.685853"><ele>0</ele><time>2021-02-17T14:34:34Z</time><name>PT9536</name></trkpt>
<trkpt lat="53.459788" lon="05.685836"><ele>0.2</ele><time>2021-02-17T14:34:35Z</time><name>PT9537</name></trkpt>
<trkpt lat="53.459785" lon="05.685815"><ele>0.2</ele><time>2021-02-17T14:34:36Z</time><name>PT9538</name></trkpt>
<trkpt lat="53.459781" lon="05.685793"><ele>0.3</ele><time>2021-02-17T14:34:37Z</time><name>PT9539</name></trkpt>
<trkpt lat="53.459775" lon="05.685774"><ele>0.5</ele><time>2021-02-17T14:34:38Z</time><name>PT9540</name></trkpt>
<trkpt lat="53.459770" lon="05.685763"><ele>0.6</ele><time>2021-02-17T14:34:39Z</time><name>PT9541</name></trkpt>
<trkpt lat="53.459769" lon="05.685757"><ele>0.6</ele><time>2021-02-17T14:34:40Z</time><name>PT9542</name></trkpt>
<trkpt lat="53.459767" lon="05.685756"><ele>1</ele><time>2021-02-17T14:34:41Z</time><name>PT9543</name></trkpt>
<trkpt lat="53.459767" lon="05.685753"><ele>0.9</ele><time>2021-02-17T14:34:42Z</time><name>PT9544</name></trkpt>
<trkpt lat="53.459764" lon="05.685740"><ele>0.9</ele><time>2021-02-17T14:34:43Z</time><name>PT9545</name></trkpt>
<trkpt lat="53.459760" lon="05.685719"><ele>1.1</ele><time>2021-02-17T14:34:44Z</time><name>PT9546</name></trkpt>
<trkpt lat="53.459754" lon="05.685701"><ele>1</ele><time>2021-02-17T14:34:45Z</time><name>PT9547</name></trkpt>
<trkpt lat="53.459750" lon="05.685688"><ele>1.3</ele><time>2021-02-17T14:34:46Z</time><name>PT9548</name></trkpt>
<trkpt lat="53.459746" lon="05.685684"><ele>1.5</ele><time>2021-02-17T14:34:47Z</time><name>PT9549</name></trkpt>
<trkpt lat="53.459741" lon="05.685681"><ele>1.6</ele><time>2021-02-17T14:34:48Z</time><name>PT9550</name></trkpt>
<trkpt lat="53.459736" lon="05.685673"><ele>1.7</ele><time>2021-02-17T14:34:49Z</time><name>PT9551</name></trkpt>
<trkpt lat="53.459727" lon="05.685659"><ele>1.7</ele><time>2021-02-17T14:34:50Z</time><name>PT9552</name></trkpt>
<trkpt lat="53.459719" lon="05.685641"><ele>1.8</ele><time>2021-02-17T14:34:51Z</time><name>PT9553</name></trkpt>
<trkpt lat="53.459715" lon="05.685630"><ele>1.8</ele><time>2021-02-17T14:34:52Z</time><name>PT9554</name></trkpt>
<trkpt lat="53.459714" lon="05.685624"><ele>1.7</ele><time>2021-02-17T14:34:53Z</time><name>PT9555</name></trkpt>
<trkpt lat="53.459713" lon="05.685616"><ele>1.6</ele><time>2021-02-17T14:34:54Z</time><name>PT9556</name></trkpt>
<trkpt lat="53.459713" lon="05.685602"><ele>1.4</ele><time>2021-02-17T14:34:55Z</time><name>PT9557</name></trkpt>
<trkpt lat="53.459714" lon="05.685581"><ele>1.2</ele><time>2021-02-17T14:34:56Z</time><name>PT9558</name></trkpt>
<trkpt lat="53.459712" lon="05.685562"><ele>1.3</ele><time>2021-02-17T14:34:57Z</time><name>PT9559</name></trkpt>
<trkpt lat="53.459711" lon="05.685553"><ele>1.3</ele><time>2021-02-17T14:34:58Z</time><name>PT9560</name></trkpt>
<trkpt lat="53.459708" lon="05.685548"><ele>1.4</ele><time>2021-02-17T14:34:59Z</time><name>PT9561</name></trkpt>
<trkpt lat="53.459712" lon="05.685533"><ele>1.4</ele><time>2021-02-17T14:35:00Z</time><name>PT9562</name></trkpt>
<trkpt lat="53.459712" lon="05.685524"><ele>1.5</ele><time>2021-02-17T14:35:01Z</time><name>PT9563</name></trkpt>
<trkpt lat="53.459717" lon="05.685523"><ele>1.7</ele><time>2021-02-17T14:35:02Z</time><name>PT9564</name></trkpt>
<trkpt lat="53.459721" lon="05.685523"><ele>1.8</ele><time>2021-02-17T14:35:03Z</time><name>PT9565</name></trkpt>
<trkpt lat="53.459720" lon="05.685525"><ele>1.9</ele><time>2021-02-17T14:35:04Z</time><name>PT9566</name></trkpt>
<trkpt lat="53.459719" lon="05.685521"><ele>2.4</ele><time>2021-02-17T14:35:05Z</time><name>PT9567</name></trkpt>
<trkpt lat="53.459722" lon="05.685516"><ele>2.4</ele><time>2021-02-17T14:35:06Z</time><name>PT9568</name></trkpt>
<trkpt lat="53.459724" lon="05.685516"><ele>2.4</ele><time>2021-02-17T14:35:07Z</time><name>PT9569</name></trkpt>
<trkpt lat="53.459726" lon="05.685517"><ele>2.5</ele><time>2021-02-17T14:35:08Z</time><name>PT9570</name></trkpt>
<trkpt lat="53.459726" lon="05.685518"><ele>2.6</ele><time>2021-02-17T14:35:09Z</time><name>PT9571</name></trkpt>
<trkpt lat="53.459728" lon="05.685520"><ele>2.7</ele><time>2021-02-17T14:35:10Z</time><name>PT9572</name></trkpt>
<trkpt lat="53.459728" lon="05.685521"><ele>2.8</ele><time>2021-02-17T14:35:11Z</time><name>PT9573</name></trkpt>
<trkpt lat="53.459727" lon="05.685523"><ele>2.9</ele><time>2021-02-17T14:35:12Z</time><name>PT9574</name></trkpt>
<trkpt lat="53.459727" lon="05.685524"><ele>2.9</ele><time>2021-02-17T14:35:13Z</time><name>PT9575</name></trkpt>
<trkpt lat="53.459730" lon="05.685524"><ele>3</ele><time>2021-02-17T14:35:14Z</time><name>PT9576</name></trkpt>
<trkpt lat="53.459727" lon="05.685526"><ele>2.9</ele><time>2021-02-17T14:35:15Z</time><name>PT9577</name></trkpt>
<trkpt lat="53.459728" lon="05.685526"><ele>2.4</ele><time>2021-02-17T14:35:17Z</time><name>PT9578</name></trkpt>
<trkpt lat="53.459728" lon="05.685519"><ele>2.3</ele><time>2021-02-17T14:35:18Z</time><name>PT9579</name></trkpt>
<trkpt lat="53.459729" lon="05.685514"><ele>2.2</ele><time>2021-02-17T14:35:19Z</time><name>PT9580</name></trkpt>
<trkpt lat="53.459729" lon="05.685513"><ele>2.1</ele><time>2021-02-17T14:35:20Z</time><name>PT9581</name></trkpt>
<trkpt lat="53.459727" lon="05.685515"><ele>1.5</ele><time>2021-02-17T14:42:05Z</time><name>PT9582</name></trkpt>
<trkpt lat="53.459728" lon="05.685520"><ele>1.4</ele><time>2021-02-17T14:42:06Z</time><name>PT9583</name></trkpt>
<trkpt lat="53.459728" lon="05.685526"><ele>1.3</ele><time>2021-02-17T14:42:07Z</time><name>PT9584</name></trkpt>
<trkpt lat="53.459726" lon="05.685532"><ele>1.8</ele><time>2021-02-17T14:42:08Z</time><name>PT9585</name></trkpt>
<trkpt lat="53.459727" lon="05.685535"><ele>1.9</ele><time>2021-02-17T14:42:09Z</time><name>PT9586</name></trkpt>
<trkpt lat="53.459726" lon="05.685520"><ele>2.4</ele><time>2021-02-17T14:42:10Z</time><name>PT9587</name></trkpt>
<trkpt lat="53.459722" lon="05.685520"><ele>3</ele><time>2021-02-17T14:42:11Z</time><name>PT9588</name></trkpt>
<trkpt lat="53.459722" lon="05.685521"><ele>3.4</ele><time>2021-02-17T14:42:12Z</time><name>PT9589</name></trkpt>
<trkpt lat="53.459720" lon="05.685519"><ele>3.7</ele><time>2021-02-17T14:42:13Z</time><name>PT9590</name></trkpt>
<trkpt lat="53.459719" lon="05.685520"><ele>3.8</ele><time>2021-02-17T14:42:14Z</time><name>PT9591</name></trkpt>
<trkpt lat="53.459718" lon="05.685513"><ele>2.9</ele><time>2021-02-17T14:42:51Z</time><name>PT9592</name></trkpt>
<trkpt lat="53.459715" lon="05.685513"><ele>2.7</ele><time>2021-02-17T14:42:52Z</time><name>PT9593</name></trkpt>
<trkpt lat="53.459711" lon="05.685509"><ele>2.9</ele><time>2021-02-17T14:42:53Z</time><name>PT9594</name></trkpt>
<trkpt lat="53.459703" lon="05.685514"><ele>2.9</ele><time>2021-02-17T14:44:04Z</time><name>PT9595</name></trkpt>
<trkpt lat="53.459696" lon="05.685509"><ele>2.9</ele><time>2021-02-17T14:44:05Z</time><name>PT9596</name></trkpt>
<trkpt lat="53.459693" lon="05.685507"><ele>2.8</ele><time>2021-02-17T14:44:06Z</time><name>PT9597</name></trkpt>
<trkpt lat="53.459692" lon="05.685505"><ele>2.9</ele><time>2021-02-17T14:44:07Z</time><name>PT9598</name></trkpt>
<trkpt lat="53.459690" lon="05.685503"><ele>3.7</ele><time>2021-02-17T14:44:12Z</time><name>PT9599</name></trkpt>
<trkpt lat="53.459692" lon="05.685508"><ele>3.4</ele><time>2021-02-17T14:44:13Z</time><name>PT9600</name></trkpt>
<trkpt lat="53.459691" lon="05.685509"><ele>3.4</ele><time>2021-02-17T14:44:14Z</time><name>PT9601</name></trkpt>
<trkpt lat="53.459689" lon="05.685512"><ele>2.8</ele><time>2021-02-17T14:44:31Z</time><name>PT9602</name></trkpt>
<trkpt lat="53.459687" lon="05.685515"><ele>2.8</ele><time>2021-02-17T14:44:32Z</time><name>PT9603</name></trkpt>
<trkpt lat="53.459686" lon="05.685520"><ele>2.6</ele><time>2021-02-17T14:45:01Z</time><name>PT9604</name></trkpt>
<trkpt lat="53.459683" lon="05.685523"><ele>2.6</ele><time>2021-02-17T14:45:02Z</time><name>PT9605</name></trkpt>
<trkpt lat="53.459681" lon="05.685524"><ele>2.4</ele><time>2021-02-17T14:45:03Z</time><name>PT9606</name></trkpt>
<trkpt lat="53.459681" lon="05.685526"><ele>2.6</ele><time>2021-02-17T14:45:04Z</time><name>PT9607</name></trkpt>
<trkpt lat="53.459680" lon="05.685529"><ele>2.6</ele><time>2021-02-17T14:45:32Z</time><name>PT9608</name></trkpt>
<trkpt lat="53.459684" lon="05.685537"><ele>2.7</ele><time>2021-02-17T14:45:33Z</time><name>PT9609</name></trkpt>
<trkpt lat="53.459685" lon="05.685540"><ele>3</ele><time>2021-02-17T14:45:35Z</time><name>PT9610</name></trkpt>
<trkpt lat="53.459679" lon="05.685542"><ele>2.9</ele><time>2021-02-17T14:45:36Z</time><name>PT9611</name></trkpt>
<trkpt lat="53.459673" lon="05.685541"><ele>3</ele><time>2021-02-17T14:45:37Z</time><name>PT9612</name></trkpt>
<trkpt lat="53.459667" lon="05.685539"><ele>2.9</ele><time>2021-02-17T14:45:38Z</time><name>PT9613</name></trkpt>
<trkpt lat="53.459658" lon="05.685537"><ele>2.7</ele><time>2021-02-17T14:45:39Z</time><name>PT9614</name></trkpt>
<trkpt lat="53.459649" lon="05.685538"><ele>2.7</ele><time>2021-02-17T14:45:40Z</time><name>PT9615</name></trkpt>
<trkpt lat="53.459642" lon="05.685539"><ele>2.5</ele><time>2021-02-17T14:45:41Z</time><name>PT9616</name></trkpt>
<trkpt lat="53.459635" lon="05.685542"><ele>2.6</ele><time>2021-02-17T14:45:42Z</time><name>PT9617</name></trkpt>
<trkpt lat="53.459628" lon="05.685547"><ele>2.8</ele><time>2021-02-17T14:45:43Z</time><name>PT9618</name></trkpt>
<trkpt lat="53.459621" lon="05.685552"><ele>2.9</ele><time>2021-02-17T14:45:44Z</time><name>PT9619</name></trkpt>
<trkpt lat="53.459613" lon="05.685553"><ele>2.9</ele><time>2021-02-17T14:45:45Z</time><name>PT9620</name></trkpt>
<trkpt lat="53.459605" lon="05.685553"><ele>3</ele><time>2021-02-17T14:45:46Z</time><name>PT9621</name></trkpt>
<trkpt lat="53.459597" lon="05.685553"><ele>2.9</ele><time>2021-02-17T14:45:47Z</time><name>PT9622</name></trkpt>
<trkpt lat="53.459588" lon="05.685552"><ele>2.9</ele><time>2021-02-17T14:45:48Z</time><name>PT9623</name></trkpt>
<trkpt lat="53.459579" lon="05.685554"><ele>2.9</ele><time>2021-02-17T14:45:49Z</time><name>PT9624</name></trkpt>
<trkpt lat="53.459569" lon="05.685555"><ele>2.9</ele><time>2021-02-17T14:45:50Z</time><name>PT9625</name></trkpt>
<trkpt lat="53.459559" lon="05.685555"><ele>2.8</ele><time>2021-02-17T14:45:51Z</time><name>PT9626</name></trkpt>
<trkpt lat="53.459550" lon="05.685555"><ele>2.7</ele><time>2021-02-17T14:45:52Z</time><name>PT9627</name></trkpt>
<trkpt lat="53.459541" lon="05.685556"><ele>2.9</ele><time>2021-02-17T14:45:53Z</time><name>PT9628</name></trkpt>
<trkpt lat="53.459533" lon="05.685557"><ele>2.7</ele><time>2021-02-17T14:45:54Z</time><name>PT9629</name></trkpt>
<trkpt lat="53.459524" lon="05.685557"><ele>2.6</ele><time>2021-02-17T14:45:55Z</time><name>PT9630</name></trkpt>
<trkpt lat="53.459515" lon="05.685556"><ele>2.5</ele><time>2021-02-17T14:45:56Z</time><name>PT9631</name></trkpt>
<trkpt lat="53.459507" lon="05.685557"><ele>2.4</ele><time>2021-02-17T14:45:57Z</time><name>PT9632</name></trkpt>
<trkpt lat="53.459498" lon="05.685558"><ele>2.5</ele><time>2021-02-17T14:45:58Z</time><name>PT9633</name></trkpt>
<trkpt lat="53.459489" lon="05.685561"><ele>2.5</ele><time>2021-02-17T14:45:59Z</time><name>PT9634</name></trkpt>
<trkpt lat="53.459480" lon="05.685563"><ele>2.6</ele><time>2021-02-17T14:46:00Z</time><name>PT9635</name></trkpt>
<trkpt lat="53.459471" lon="05.685564"><ele>2.8</ele><time>2021-02-17T14:46:01Z</time><name>PT9636</name></trkpt>
<trkpt lat="53.459462" lon="05.685563"><ele>2.8</ele><time>2021-02-17T14:46:02Z</time><name>PT9637</name></trkpt>
<trkpt lat="53.459453" lon="05.685563"><ele>2.9</ele><time>2021-02-17T14:46:03Z</time><name>PT9638</name></trkpt>
<trkpt lat="53.459441" lon="05.685567"><ele>2.9</ele><time>2021-02-17T14:46:04Z</time><name>PT9639</name></trkpt>
<trkpt lat="53.459434" lon="05.685567"><ele>2.8</ele><time>2021-02-17T14:46:05Z</time><name>PT9640</name></trkpt>
<trkpt lat="53.459426" lon="05.685564"><ele>2.4</ele><time>2021-02-17T14:46:06Z</time><name>PT9641</name></trkpt>
<trkpt lat="53.459418" lon="05.685563"><ele>2.5</ele><time>2021-02-17T14:46:07Z</time><name>PT9642</name></trkpt>
<trkpt lat="53.459410" lon="05.685563"><ele>2.5</ele><time>2021-02-17T14:46:08Z</time><name>PT9643</name></trkpt>
<trkpt lat="53.459401" lon="05.685568"><ele>2.8</ele><time>2021-02-17T14:46:09Z</time><name>PT9644</name></trkpt>
<trkpt lat="53.459400" lon="05.685571"><ele>3.4</ele><time>2021-02-17T14:46:10Z</time><name>PT9645</name></trkpt>
<trkpt lat="53.459395" lon="05.685569"><ele>4</ele><time>2021-02-17T14:46:11Z</time><name>PT9646</name></trkpt>
<trkpt lat="53.459392" lon="05.685562"><ele>4.3</ele><time>2021-02-17T14:46:12Z</time><name>PT9647</name></trkpt>
<trkpt lat="53.459384" lon="05.685562"><ele>4.9</ele><time>2021-02-17T14:46:13Z</time><name>PT9648</name></trkpt>
<trkpt lat="53.459375" lon="05.685562"><ele>4.8</ele><time>2021-02-17T14:46:14Z</time><name>PT9649</name></trkpt>
<trkpt lat="53.459367" lon="05.685562"><ele>4.7</ele><time>2021-02-17T14:46:15Z</time><name>PT9650</name></trkpt>
<trkpt lat="53.459358" lon="05.685559"><ele>4.7</ele><time>2021-02-17T14:46:16Z</time><name>PT9651</name></trkpt>
<trkpt lat="53.459349" lon="05.685557"><ele>3.8</ele><time>2021-02-17T14:46:17Z</time><name>PT9652</name></trkpt>
<trkpt lat="53.459338" lon="05.685556"><ele>3.4</ele><time>2021-02-17T14:46:18Z</time><name>PT9653</name></trkpt>
<trkpt lat="53.459329" lon="05.685556"><ele>3</ele><time>2021-02-17T14:46:19Z</time><name>PT9654</name></trkpt>
<trkpt lat="53.459317" lon="05.685556"><ele>3</ele><time>2021-02-17T14:46:20Z</time><name>PT9655</name></trkpt>
<trkpt lat="53.459308" lon="05.685555"><ele>2.9</ele><time>2021-02-17T14:46:21Z</time><name>PT9656</name></trkpt>
<trkpt lat="53.459300" lon="05.685555"><ele>3.3</ele><time>2021-02-17T14:46:22Z</time><name>PT9657</name></trkpt>
<trkpt lat="53.459292" lon="05.685557"><ele>3.4</ele><time>2021-02-17T14:46:23Z</time><name>PT9658</name></trkpt>
<trkpt lat="53.459283" lon="05.685558"><ele>3.1</ele><time>2021-02-17T14:46:24Z</time><name>PT9659</name></trkpt>
<trkpt lat="53.459274" lon="05.685558"><ele>2.8</ele><time>2021-02-17T14:46:25Z</time><name>PT9660</name></trkpt>
<trkpt lat="53.459265" lon="05.685557"><ele>2.4</ele><time>2021-02-17T14:46:26Z</time><name>PT9661</name></trkpt>
<trkpt lat="53.459255" lon="05.685556"><ele>2.3</ele><time>2021-02-17T14:46:27Z</time><name>PT9662</name></trkpt>
<trkpt lat="53.459244" lon="05.685553"><ele>2.3</ele><time>2021-02-17T14:46:28Z</time><name>PT9663</name></trkpt>
<trkpt lat="53.459238" lon="05.685548"><ele>2.5</ele><time>2021-02-17T14:46:29Z</time><name>PT9664</name></trkpt>
<trkpt lat="53.459229" lon="05.685546"><ele>2.7</ele><time>2021-02-17T14:46:30Z</time><name>PT9665</name></trkpt>
<trkpt lat="53.459219" lon="05.685546"><ele>3</ele><time>2021-02-17T14:46:31Z</time><name>PT9666</name></trkpt>
<trkpt lat="53.459208" lon="05.685548"><ele>3</ele><time>2021-02-17T14:46:32Z</time><name>PT9667</name></trkpt>
<trkpt lat="53.459201" lon="05.685548"><ele>3</ele><time>2021-02-17T14:46:33Z</time><name>PT9668</name></trkpt>
<trkpt lat="53.459192" lon="05.685551"><ele>3</ele><time>2021-02-17T14:46:34Z</time><name>PT9669</name></trkpt>
<trkpt lat="53.459183" lon="05.685553"><ele>3</ele><time>2021-02-17T14:46:35Z</time><name>PT9670</name></trkpt>
<trkpt lat="53.459173" lon="05.685557"><ele>2.9</ele><time>2021-02-17T14:46:36Z</time><name>PT9671</name></trkpt>
<trkpt lat="53.459161" lon="05.685557"><ele>3</ele><time>2021-02-17T14:46:37Z</time><name>PT9672</name></trkpt>
<trkpt lat="53.459149" lon="05.685556"><ele>3.1</ele><time>2021-02-17T14:46:38Z</time><name>PT9673</name></trkpt>
<trkpt lat="53.459137" lon="05.685555"><ele>3.2</ele><time>2021-02-17T14:46:39Z</time><name>PT9674</name></trkpt>
<trkpt lat="53.459128" lon="05.685553"><ele>3</ele><time>2021-02-17T14:46:40Z</time><name>PT9675</name></trkpt>
<trkpt lat="53.459116" lon="05.685554"><ele>3.1</ele><time>2021-02-17T14:46:41Z</time><name>PT9676</name></trkpt>
<trkpt lat="53.459106" lon="05.685554"><ele>3.1</ele><time>2021-02-17T14:46:42Z</time><name>PT9677</name></trkpt>
<trkpt lat="53.459096" lon="05.685554"><ele>2.9</ele><time>2021-02-17T14:46:43Z</time><name>PT9678</name></trkpt>
<trkpt lat="53.459086" lon="05.685553"><ele>2.9</ele><time>2021-02-17T14:46:44Z</time><name>PT9679</name></trkpt>
<trkpt lat="53.459076" lon="05.685554"><ele>2.9</ele><time>2021-02-17T14:46:45Z</time><name>PT9680</name></trkpt>
<trkpt lat="53.459065" lon="05.685556"><ele>2.8</ele><time>2021-02-17T14:46:46Z</time><name>PT9681</name></trkpt>
<trkpt lat="53.459054" lon="05.685558"><ele>2.8</ele><time>2021-02-17T14:46:47Z</time><name>PT9682</name></trkpt>
<trkpt lat="53.459043" lon="05.685559"><ele>2.6</ele><time>2021-02-17T14:46:48Z</time><name>PT9683</name></trkpt>
<trkpt lat="53.459032" lon="05.685558"><ele>2.4</ele><time>2021-02-17T14:46:49Z</time><name>PT9684</name></trkpt>
<trkpt lat="53.459022" lon="05.685557"><ele>2.1</ele><time>2021-02-17T14:46:50Z</time><name>PT9685</name></trkpt>
<trkpt lat="53.459012" lon="05.685558"><ele>1.8</ele><time>2021-02-17T14:46:51Z</time><name>PT9686</name></trkpt>
<trkpt lat="53.459001" lon="05.685557"><ele>1.4</ele><time>2021-02-17T14:46:52Z</time><name>PT9687</name></trkpt>
<trkpt lat="53.458990" lon="05.685559"><ele>1.1</ele><time>2021-02-17T14:46:53Z</time><name>PT9688</name></trkpt>
<trkpt lat="53.458977" lon="05.685562"><ele>1</ele><time>2021-02-17T14:46:54Z</time><name>PT9689</name></trkpt>
<trkpt lat="53.458965" lon="05.685563"><ele>1.2</ele><time>2021-02-17T14:46:55Z</time><name>PT9690</name></trkpt>
<trkpt lat="53.458952" lon="05.685565"><ele>1.4</ele><time>2021-02-17T14:46:56Z</time><name>PT9691</name></trkpt>
<trkpt lat="53.458941" lon="05.685565"><ele>1.4</ele><time>2021-02-17T14:46:57Z</time><name>PT9692</name></trkpt>
<trkpt lat="53.458931" lon="05.685562"><ele>1.2</ele><time>2021-02-17T14:46:58Z</time><name>PT9693</name></trkpt>
<trkpt lat="53.458919" lon="05.685561"><ele>1.1</ele><time>2021-02-17T14:46:59Z</time><name>PT9694</name></trkpt>
<trkpt lat="53.458908" lon="05.685560"><ele>0.9</ele><time>2021-02-17T14:47:00Z</time><name>PT9695</name></trkpt>
<trkpt lat="53.458897" lon="05.685561"><ele>1</ele><time>2021-02-17T14:47:01Z</time><name>PT9696</name></trkpt>
<trkpt lat="53.458886" lon="05.685560"><ele>1.2</ele><time>2021-02-17T14:47:02Z</time><name>PT9697</name></trkpt>
<trkpt lat="53.458875" lon="05.685558"><ele>1.2</ele><time>2021-02-17T14:47:03Z</time><name>PT9698</name></trkpt>
<trkpt lat="53.458864" lon="05.685559"><ele>1.2</ele><time>2021-02-17T14:47:04Z</time><name>PT9699</name></trkpt>
<trkpt lat="53.458854" lon="05.685558"><ele>0.9</ele><time>2021-02-17T14:47:05Z</time><name>PT9700</name></trkpt>
<trkpt lat="53.458843" lon="05.685558"><ele>0.9</ele><time>2021-02-17T14:47:06Z</time><name>PT9701</name></trkpt>
<trkpt lat="53.458831" lon="05.685557"><ele>0.9</ele><time>2021-02-17T14:47:07Z</time><name>PT9702</name></trkpt>
<trkpt lat="53.458819" lon="05.685557"><ele>1.3</ele><time>2021-02-17T14:47:08Z</time><name>PT9703</name></trkpt>
<trkpt lat="53.458807" lon="05.685555"><ele>1.4</ele><time>2021-02-17T14:47:09Z</time><name>PT9704</name></trkpt>
<trkpt lat="53.458796" lon="05.685555"><ele>1.6</ele><time>2021-02-17T14:47:10Z</time><name>PT9705</name></trkpt>
<trkpt lat="53.458785" lon="05.685553"><ele>1.6</ele><time>2021-02-17T14:47:11Z</time><name>PT9706</name></trkpt>
<trkpt lat="53.458774" lon="05.685549"><ele>1.5</ele><time>2021-02-17T14:47:12Z</time><name>PT9707</name></trkpt>
<trkpt lat="53.458762" lon="05.685546"><ele>1.2</ele><time>2021-02-17T14:47:13Z</time><name>PT9708</name></trkpt>
<trkpt lat="53.458749" lon="05.685545"><ele>1.1</ele><time>2021-02-17T14:47:14Z</time><name>PT9709</name></trkpt>
<trkpt lat="53.458737" lon="05.685544"><ele>1.2</ele><time>2021-02-17T14:47:15Z</time><name>PT9710</name></trkpt>
<trkpt lat="53.458724" lon="05.685543"><ele>1.3</ele><time>2021-02-17T14:47:16Z</time><name>PT9711</name></trkpt>
<trkpt lat="53.458712" lon="05.685543"><ele>1.3</ele><time>2021-02-17T14:47:17Z</time><name>PT9712</name></trkpt>
<trkpt lat="53.458699" lon="05.685543"><ele>1.4</ele><time>2021-02-17T14:47:18Z</time><name>PT9713</name></trkpt>
<trkpt lat="53.458687" lon="05.685544"><ele>1.3</ele><time>2021-02-17T14:47:19Z</time><name>PT9714</name></trkpt>
<trkpt lat="53.458675" lon="05.685544"><ele>1.1</ele><time>2021-02-17T14:47:20Z</time><name>PT9715</name></trkpt>
<trkpt lat="53.458664" lon="05.685545"><ele>0.9</ele><time>2021-02-17T14:47:21Z</time><name>PT9716</name></trkpt>
<trkpt lat="53.458652" lon="05.685545"><ele>0.9</ele><time>2021-02-17T14:47:22Z</time><name>PT9717</name></trkpt>
<trkpt lat="53.458640" lon="05.685542"><ele>0.9</ele><time>2021-02-17T14:47:23Z</time><name>PT9718</name></trkpt>
<trkpt lat="53.458628" lon="05.685539"><ele>1</ele><time>2021-02-17T14:47:24Z</time><name>PT9719</name></trkpt>
<trkpt lat="53.458616" lon="05.685537"><ele>1.2</ele><time>2021-02-17T14:47:25Z</time><name>PT9720</name></trkpt>
<trkpt lat="53.458603" lon="05.685532"><ele>1.3</ele><time>2021-02-17T14:47:26Z</time><name>PT9721</name></trkpt>
<trkpt lat="53.458591" lon="05.685528"><ele>1.4</ele><time>2021-02-17T14:47:27Z</time><name>PT9722</name></trkpt>
<trkpt lat="53.458579" lon="05.685524"><ele>1.4</ele><time>2021-02-17T14:47:28Z</time><name>PT9723</name></trkpt>
<trkpt lat="53.458565" lon="05.685520"><ele>1.3</ele><time>2021-02-17T14:47:29Z</time><name>PT9724</name></trkpt>
<trkpt lat="53.458553" lon="05.685518"><ele>1.4</ele><time>2021-02-17T14:47:30Z</time><name>PT9725</name></trkpt>
<trkpt lat="53.458541" lon="05.685515"><ele>1.1</ele><time>2021-02-17T14:47:31Z</time><name>PT9726</name></trkpt>
<trkpt lat="53.458532" lon="05.685509"><ele>0.9</ele><time>2021-02-17T14:47:32Z</time><name>PT9727</name></trkpt>
<trkpt lat="53.458522" lon="05.685505"><ele>0.9</ele><time>2021-02-17T14:47:33Z</time><name>PT9728</name></trkpt>
<trkpt lat="53.458508" lon="05.685503"><ele>0.9</ele><time>2021-02-17T14:47:34Z</time><name>PT9729</name></trkpt>
<trkpt lat="53.458496" lon="05.685500"><ele>1</ele><time>2021-02-17T14:47:35Z</time><name>PT9730</name></trkpt>
<trkpt lat="53.458484" lon="05.685498"><ele>0.9</ele><time>2021-02-17T14:47:36Z</time><name>PT9731</name></trkpt>
<trkpt lat="53.458471" lon="05.685498"><ele>1.1</ele><time>2021-02-17T14:47:37Z</time><name>PT9732</name></trkpt>
<trkpt lat="53.458458" lon="05.685499"><ele>1</ele><time>2021-02-17T14:47:38Z</time><name>PT9733</name></trkpt>
<trkpt lat="53.458446" lon="05.685500"><ele>1</ele><time>2021-02-17T14:47:39Z</time><name>PT9734</name></trkpt>
<trkpt lat="53.458436" lon="05.685497"><ele>0.9</ele><time>2021-02-17T14:47:40Z</time><name>PT9735</name></trkpt>
<trkpt lat="53.458426" lon="05.685494"><ele>0.9</ele><time>2021-02-17T14:47:41Z</time><name>PT9736</name></trkpt>
<trkpt lat="53.458415" lon="05.685492"><ele>0.6</ele><time>2021-02-17T14:47:42Z</time><name>PT9737</name></trkpt>
<trkpt lat="53.458402" lon="05.685493"><ele>0.6</ele><time>2021-02-17T14:47:43Z</time><name>PT9738</name></trkpt>
<trkpt lat="53.458391" lon="05.685489"><ele>0.4</ele><time>2021-02-17T14:47:44Z</time><name>PT9739</name></trkpt>
<trkpt lat="53.458380" lon="05.685485"><ele>0.4</ele><time>2021-02-17T14:47:45Z</time><name>PT9740</name></trkpt>
<trkpt lat="53.458367" lon="05.685481"><ele>0.1</ele><time>2021-02-17T14:47:46Z</time><name>PT9741</name></trkpt>
<trkpt lat="53.458354" lon="05.685476"><ele>0.2</ele><time>2021-02-17T14:47:47Z</time><name>PT9742</name></trkpt>
<trkpt lat="53.458341" lon="05.685474"><ele>0.2</ele><time>2021-02-17T14:47:48Z</time><name>PT9743</name></trkpt>
<trkpt lat="53.458330" lon="05.685470"><ele>0.2</ele><time>2021-02-17T14:47:49Z</time><name>PT9744</name></trkpt>
<trkpt lat="53.458318" lon="05.685467"><ele>0.3</ele><time>2021-02-17T14:47:50Z</time><name>PT9745</name></trkpt>
<trkpt lat="53.458306" lon="05.685464"><ele>0.4</ele><time>2021-02-17T14:47:51Z</time><name>PT9746</name></trkpt>
<trkpt lat="53.458295" lon="05.685462"><ele>0.3</ele><time>2021-02-17T14:47:52Z</time><name>PT9747</name></trkpt>
<trkpt lat="53.458283" lon="05.685460"><ele>0.4</ele><time>2021-02-17T14:47:53Z</time><name>PT9748</name></trkpt>
<trkpt lat="53.458271" lon="05.685458"><ele>0.4</ele><time>2021-02-17T14:47:54Z</time><name>PT9749</name></trkpt>
<trkpt lat="53.458260" lon="05.685457"><ele>0</ele><time>2021-02-17T14:47:55Z</time><name>PT9750</name></trkpt>
<trkpt lat="53.458249" lon="05.685459"><ele>0</ele><time>2021-02-17T14:47:56Z</time><name>PT9751</name></trkpt>
<trkpt lat="53.458237" lon="05.685461"><ele>0</ele><time>2021-02-17T14:47:57Z</time><name>PT9752</name></trkpt>
<trkpt lat="53.458226" lon="05.685461"><ele>0</ele><time>2021-02-17T14:47:58Z</time><name>PT9753</name></trkpt>
<trkpt lat="53.458216" lon="05.685458"><ele>0</ele><time>2021-02-17T14:47:59Z</time><name>PT9754</name></trkpt>
<trkpt lat="53.458206" lon="05.685452"><ele>0.1</ele><time>2021-02-17T14:48:00Z</time><name>PT9755</name></trkpt>
<trkpt lat="53.458195" lon="05.685447"><ele>0</ele><time>2021-02-17T14:48:01Z</time><name>PT9756</name></trkpt>
<trkpt lat="53.458184" lon="05.685443"><ele>0</ele><time>2021-02-17T14:48:02Z</time><name>PT9757</name></trkpt>
<trkpt lat="53.458175" lon="05.685440"><ele>0.2</ele><time>2021-02-17T14:48:03Z</time><name>PT9758</name></trkpt>
<trkpt lat="53.458166" lon="05.685438"><ele>0.4</ele><time>2021-02-17T14:48:04Z</time><name>PT9759</name></trkpt>
<trkpt lat="53.458156" lon="05.685437"><ele>0.6</ele><time>2021-02-17T14:48:05Z</time><name>PT9760</name></trkpt>
<trkpt lat="53.458148" lon="05.685437"><ele>0.6</ele><time>2021-02-17T14:48:06Z</time><name>PT9761</name></trkpt>
<trkpt lat="53.458141" lon="05.685437"><ele>0.7</ele><time>2021-02-17T14:48:07Z</time><name>PT9762</name></trkpt>
<trkpt lat="53.458135" lon="05.685437"><ele>0.8</ele><time>2021-02-17T14:48:08Z</time><name>PT9763</name></trkpt>
<trkpt lat="53.458134" lon="05.685441"><ele>0.9</ele><time>2021-02-17T14:48:09Z</time><name>PT9764</name></trkpt>
<trkpt lat="53.458129" lon="05.685449"><ele>1.3</ele><time>2021-02-17T14:48:10Z</time><name>PT9765</name></trkpt>
<trkpt lat="53.458122" lon="05.685455"><ele>1.8</ele><time>2021-02-17T14:48:11Z</time><name>PT9766</name></trkpt>
<trkpt lat="53.458116" lon="05.685461"><ele>2</ele><time>2021-02-17T14:48:12Z</time><name>PT9767</name></trkpt>
<trkpt lat="53.458108" lon="05.685464"><ele>2.3</ele><time>2021-02-17T14:48:13Z</time><name>PT9768</name></trkpt>
<trkpt lat="53.458099" lon="05.685464"><ele>2.3</ele><time>2021-02-17T14:48:14Z</time><name>PT9769</name></trkpt>
<trkpt lat="53.458091" lon="05.685459"><ele>2</ele><time>2021-02-17T14:48:15Z</time><name>PT9770</name></trkpt>
<trkpt lat="53.458083" lon="05.685449"><ele>1.8</ele><time>2021-02-17T14:48:16Z</time><name>PT9771</name></trkpt>
<trkpt lat="53.458073" lon="05.685442"><ele>1.2</ele><time>2021-02-17T14:48:17Z</time><name>PT9772</name></trkpt>
<trkpt lat="53.458065" lon="05.685436"><ele>0.7</ele><time>2021-02-17T14:48:18Z</time><name>PT9773</name></trkpt>
<trkpt lat="53.458057" lon="05.685427"><ele>0.2</ele><time>2021-02-17T14:48:19Z</time><name>PT9774</name></trkpt>
<trkpt lat="53.458047" lon="05.685420"><ele>0</ele><time>2021-02-17T14:48:20Z</time><name>PT9775</name></trkpt>
<trkpt lat="53.458036" lon="05.685414"><ele>0.1</ele><time>2021-02-17T14:48:21Z</time><name>PT9776</name></trkpt>
<trkpt lat="53.458025" lon="05.685409"><ele>0.3</ele><time>2021-02-17T14:48:22Z</time><name>PT9777</name></trkpt>
<trkpt lat="53.458014" lon="05.685407"><ele>0.1</ele><time>2021-02-17T14:48:23Z</time><name>PT9778</name></trkpt>
<trkpt lat="53.458004" lon="05.685403"><ele>0</ele><time>2021-02-17T14:48:24Z</time><name>PT9779</name></trkpt>
<trkpt lat="53.457993" lon="05.685400"><ele>0.1</ele><time>2021-02-17T14:48:25Z</time><name>PT9780</name></trkpt>
<trkpt lat="53.457983" lon="05.685397"><ele>0.4</ele><time>2021-02-17T14:48:26Z</time><name>PT9781</name></trkpt>
<trkpt lat="53.457973" lon="05.685394"><ele>0.7</ele><time>2021-02-17T14:48:27Z</time><name>PT9782</name></trkpt>
<trkpt lat="53.457966" lon="05.685388"><ele>1</ele><time>2021-02-17T14:48:28Z</time><name>PT9783</name></trkpt>
<trkpt lat="53.457957" lon="05.685382"><ele>0.9</ele><time>2021-02-17T14:48:29Z</time><name>PT9784</name></trkpt>
<trkpt lat="53.457947" lon="05.685377"><ele>1</ele><time>2021-02-17T14:48:30Z</time><name>PT9785</name></trkpt>
<trkpt lat="53.457935" lon="05.685370"><ele>1.2</ele><time>2021-02-17T14:48:31Z</time><name>PT9786</name></trkpt>
<trkpt lat="53.457925" lon="05.685365"><ele>1.3</ele><time>2021-02-17T14:48:32Z</time><name>PT9787</name></trkpt>
<trkpt lat="53.457915" lon="05.685361"><ele>1.2</ele><time>2021-02-17T14:48:33Z</time><name>PT9788</name></trkpt>
<trkpt lat="53.457904" lon="05.685360"><ele>1.2</ele><time>2021-02-17T14:48:34Z</time><name>PT9789</name></trkpt>
<trkpt lat="53.457892" lon="05.685360"><ele>0.9</ele><time>2021-02-17T14:48:35Z</time><name>PT9790</name></trkpt>
<trkpt lat="53.457879" lon="05.685357"><ele>0.7</ele><time>2021-02-17T14:48:36Z</time><name>PT9791</name></trkpt>
<trkpt lat="53.457868" lon="05.685352"><ele>0.6</ele><time>2021-02-17T14:48:37Z</time><name>PT9792</name></trkpt>
<trkpt lat="53.457857" lon="05.685348"><ele>0.4</ele><time>2021-02-17T14:48:38Z</time><name>PT9793</name></trkpt>
<trkpt lat="53.457845" lon="05.685342"><ele>0.4</ele><time>2021-02-17T14:48:39Z</time><name>PT9794</name></trkpt>
<trkpt lat="53.457833" lon="05.685338"><ele>0.4</ele><time>2021-02-17T14:48:40Z</time><name>PT9795</name></trkpt>
<trkpt lat="53.457821" lon="05.685335"><ele>0.2</ele><time>2021-02-17T14:48:41Z</time><name>PT9796</name></trkpt>
<trkpt lat="53.457810" lon="05.685332"><ele>0</ele><time>2021-02-17T14:48:42Z</time><name>PT9797</name></trkpt>
<trkpt lat="53.457798" lon="05.685327"><ele>0.1</ele><time>2021-02-17T14:48:43Z</time><name>PT9798</name></trkpt>
<trkpt lat="53.457787" lon="05.685321"><ele>0.1</ele><time>2021-02-17T14:48:44Z</time><name>PT9799</name></trkpt>
<trkpt lat="53.457776" lon="05.685311"><ele>0</ele><time>2021-02-17T14:48:45Z</time><name>PT9800</name></trkpt>
<trkpt lat="53.457765" lon="05.685305"><ele>0</ele><time>2021-02-17T14:48:46Z</time><name>PT9801</name></trkpt>
<trkpt lat="53.457754" lon="05.685296"><ele>0.1</ele><time>2021-02-17T14:48:47Z</time><name>PT9802</name></trkpt>
<trkpt lat="53.457743" lon="05.685290"><ele>0.2</ele><time>2021-02-17T14:48:48Z</time><name>PT9803</name></trkpt>
<trkpt lat="53.457734" lon="05.685282"><ele>0</ele><time>2021-02-17T14:48:49Z</time><name>PT9804</name></trkpt>
<trkpt lat="53.457724" lon="05.685279"><ele>0.1</ele><time>2021-02-17T14:48:50Z</time><name>PT9805</name></trkpt>
<trkpt lat="53.457714" lon="05.685280"><ele>0</ele><time>2021-02-17T14:48:51Z</time><name>PT9806</name></trkpt>
<trkpt lat="53.457706" lon="05.685285"><ele>0</ele><time>2021-02-17T14:48:52Z</time><name>PT9807</name></trkpt>
<trkpt lat="53.457698" lon="05.685294"><ele>0</ele><time>2021-02-17T14:48:53Z</time><name>PT9808</name></trkpt>
<trkpt lat="53.457698" lon="05.685311"><ele>0</ele><time>2021-02-17T14:48:54Z</time><name>PT9809</name></trkpt>
<trkpt lat="53.457693" lon="05.685324"><ele>0.1</ele><time>2021-02-17T14:48:55Z</time><name>PT9810</name></trkpt>
<trkpt lat="53.457686" lon="05.685338"><ele>0.2</ele><time>2021-02-17T14:48:56Z</time><name>PT9811</name></trkpt>
<trkpt lat="53.457681" lon="05.685353"><ele>0.4</ele><time>2021-02-17T14:48:57Z</time><name>PT9812</name></trkpt>
<trkpt lat="53.457675" lon="05.685372"><ele>0.3</ele><time>2021-02-17T14:48:58Z</time><name>PT9813</name></trkpt>
<trkpt lat="53.457668" lon="05.685389"><ele>0.2</ele><time>2021-02-17T14:48:59Z</time><name>PT9814</name></trkpt>
<trkpt lat="53.457663" lon="05.685406"><ele>0.1</ele><time>2021-02-17T14:49:00Z</time><name>PT9815</name></trkpt>
<trkpt lat="53.457660" lon="05.685423"><ele>0</ele><time>2021-02-17T14:49:01Z</time><name>PT9816</name></trkpt>
<trkpt lat="53.457656" lon="05.685440"><ele>0</ele><time>2021-02-17T14:49:02Z</time><name>PT9817</name></trkpt>
<trkpt lat="53.457655" lon="05.685458"><ele>0</ele><time>2021-02-17T14:49:03Z</time><name>PT9818</name></trkpt>
<trkpt lat="53.457651" lon="05.685477"><ele>0.1</ele><time>2021-02-17T14:49:04Z</time><name>PT9819</name></trkpt>
<trkpt lat="53.457649" lon="05.685498"><ele>0.4</ele><time>2021-02-17T14:49:05Z</time><name>PT9820</name></trkpt>
<trkpt lat="53.457648" lon="05.685520"><ele>0.5</ele><time>2021-02-17T14:49:06Z</time><name>PT9821</name></trkpt>
<trkpt lat="53.457647" lon="05.685540"><ele>0.8</ele><time>2021-02-17T14:49:07Z</time><name>PT9822</name></trkpt>
<trkpt lat="53.457647" lon="05.685560"><ele>0.9</ele><time>2021-02-17T14:49:08Z</time><name>PT9823</name></trkpt>
<trkpt lat="53.457647" lon="05.685579"><ele>-1.1</ele><time>2021-02-17T14:49:09Z</time><name>PT9824</name></trkpt>
<trkpt lat="53.457647" lon="05.685598"><ele>-1.2</ele><time>2021-02-17T14:49:10Z</time><name>PT9825</name></trkpt>
<trkpt lat="53.457646" lon="05.685616"><ele>-1.2</ele><time>2021-02-17T14:49:11Z</time><name>PT9826</name></trkpt>
<trkpt lat="53.457646" lon="05.685637"><ele>-1.2</ele><time>2021-02-17T14:49:12Z</time><name>PT9827</name></trkpt>
<trkpt lat="53.457647" lon="05.685657"><ele>-1.3</ele><time>2021-02-17T14:49:13Z</time><name>PT9828</name></trkpt>
<trkpt lat="53.457645" lon="05.685676"><ele>-1.3</ele><time>2021-02-17T14:49:14Z</time><name>PT9829</name></trkpt>
<trkpt lat="53.457643" lon="05.685697"><ele>-1.3</ele><time>2021-02-17T14:49:15Z</time><name>PT9830</name></trkpt>
<trkpt lat="53.457643" lon="05.685716"><ele>-1.2</ele><time>2021-02-17T14:49:16Z</time><name>PT9831</name></trkpt>
<trkpt lat="53.457645" lon="05.685737"><ele>-1.2</ele><time>2021-02-17T14:49:17Z</time><name>PT9832</name></trkpt>
<trkpt lat="53.457645" lon="05.685759"><ele>-1.3</ele><time>2021-02-17T14:49:18Z</time><name>PT9833</name></trkpt>
<trkpt lat="53.457645" lon="05.685780"><ele>-1.3</ele><time>2021-02-17T14:49:19Z</time><name>PT9834</name></trkpt>
<trkpt lat="53.457643" lon="05.685796"><ele>-1.4</ele><time>2021-02-17T14:49:20Z</time><name>PT9835</name></trkpt>
<trkpt lat="53.457643" lon="05.685813"><ele>-1.3</ele><time>2021-02-17T14:49:21Z</time><name>PT9836</name></trkpt>
<trkpt lat="53.457642" lon="05.685832"><ele>-1.4</ele><time>2021-02-17T14:49:22Z</time><name>PT9837</name></trkpt>
<trkpt lat="53.457641" lon="05.685851"><ele>-1.4</ele><time>2021-02-17T14:49:23Z</time><name>PT9838</name></trkpt>
<trkpt lat="53.457639" lon="05.685872"><ele>-1.5</ele><time>2021-02-17T14:49:24Z</time><name>PT9839</name></trkpt>
<trkpt lat="53.457639" lon="05.685891"><ele>-1.4</ele><time>2021-02-17T14:49:25Z</time><name>PT9840</name></trkpt>
<trkpt lat="53.457637" lon="05.685912"><ele>-1.4</ele><time>2021-02-17T14:49:26Z</time><name>PT9841</name></trkpt>
<trkpt lat="53.457635" lon="05.685930"><ele>-1.4</ele><time>2021-02-17T14:49:27Z</time><name>PT9842</name></trkpt>
<trkpt lat="53.457634" lon="05.685951"><ele>-1.1</ele><time>2021-02-17T14:49:28Z</time><name>PT9843</name></trkpt>
<trkpt lat="53.457633" lon="05.685967"><ele>-1.4</ele><time>2021-02-17T14:49:29Z</time><name>PT9844</name></trkpt>
<trkpt lat="53.457632" lon="05.685987"><ele>-1.4</ele><time>2021-02-17T14:49:30Z</time><name>PT9845</name></trkpt>
<trkpt lat="53.457631" lon="05.686006"><ele>-1.4</ele><time>2021-02-17T14:49:31Z</time><name>PT9846</name></trkpt>
<trkpt lat="53.457629" lon="05.686026"><ele>-1.5</ele><time>2021-02-17T14:49:32Z</time><name>PT9847</name></trkpt>
<trkpt lat="53.457631" lon="05.686046"><ele>-1.8</ele><time>2021-02-17T14:49:33Z</time><name>PT9848</name></trkpt>
<trkpt lat="53.457631" lon="05.686069"><ele>-1.6</ele><time>2021-02-17T14:49:34Z</time><name>PT9849</name></trkpt>
<trkpt lat="53.457631" lon="05.686090"><ele>-1.5</ele><time>2021-02-17T14:49:35Z</time><name>PT9850</name></trkpt>
<trkpt lat="53.457631" lon="05.686111"><ele>-1.4</ele><time>2021-02-17T14:49:36Z</time><name>PT9851</name></trkpt>
<trkpt lat="53.457630" lon="05.686131"><ele>-1.2</ele><time>2021-02-17T14:49:37Z</time><name>PT9852</name></trkpt>
<trkpt lat="53.457630" lon="05.686151"><ele>-1.3</ele><time>2021-02-17T14:49:38Z</time><name>PT9853</name></trkpt>
<trkpt lat="53.457630" lon="05.686175"><ele>-1.4</ele><time>2021-02-17T14:49:39Z</time><name>PT9854</name></trkpt>
<trkpt lat="53.457628" lon="05.686198"><ele>-1.4</ele><time>2021-02-17T14:49:40Z</time><name>PT9855</name></trkpt>
<trkpt lat="53.457627" lon="05.686216"><ele>-1.5</ele><time>2021-02-17T14:49:41Z</time><name>PT9856</name></trkpt>
<trkpt lat="53.457627" lon="05.686236"><ele>-1.5</ele><time>2021-02-17T14:49:42Z</time><name>PT9857</name></trkpt>
<trkpt lat="53.457627" lon="05.686254"><ele>-1.5</ele><time>2021-02-17T14:49:43Z</time><name>PT9858</name></trkpt>
<trkpt lat="53.457627" lon="05.686272"><ele>-1.4</ele><time>2021-02-17T14:49:44Z</time><name>PT9859</name></trkpt>
<trkpt lat="53.457627" lon="05.686291"><ele>-1.4</ele><time>2021-02-17T14:49:45Z</time><name>PT9860</name></trkpt>
<trkpt lat="53.457627" lon="05.686312"><ele>-1.4</ele><time>2021-02-17T14:49:46Z</time><name>PT9861</name></trkpt>
<trkpt lat="53.457628" lon="05.686333"><ele>-1.3</ele><time>2021-02-17T14:49:47Z</time><name>PT9862</name></trkpt>
<trkpt lat="53.457628" lon="05.686351"><ele>-1.4</ele><time>2021-02-17T14:49:48Z</time><name>PT9863</name></trkpt>
<trkpt lat="53.457625" lon="05.686371"><ele>-1.5</ele><time>2021-02-17T14:49:49Z</time><name>PT9864</name></trkpt>
<trkpt lat="53.457626" lon="05.686389"><ele>-1.6</ele><time>2021-02-17T14:49:50Z</time><name>PT9865</name></trkpt>
<trkpt lat="53.457628" lon="05.686404"><ele>-1.6</ele><time>2021-02-17T14:49:51Z</time><name>PT9866</name></trkpt>
<trkpt lat="53.457628" lon="05.686423"><ele>-1.6</ele><time>2021-02-17T14:49:52Z</time><name>PT9867</name></trkpt>
<trkpt lat="53.457629" lon="05.686442"><ele>-1.2</ele><time>2021-02-17T14:49:53Z</time><name>PT9868</name></trkpt>
<trkpt lat="53.457628" lon="05.686462"><ele>-1.2</ele><time>2021-02-17T14:49:54Z</time><name>PT9869</name></trkpt>
<trkpt lat="53.457626" lon="05.686485"><ele>-1</ele><time>2021-02-17T14:49:55Z</time><name>PT9870</name></trkpt>
<trkpt lat="53.457624" lon="05.686506"><ele>-1</ele><time>2021-02-17T14:49:56Z</time><name>PT9871</name></trkpt>
<trkpt lat="53.457623" lon="05.686527"><ele>-1.1</ele><time>2021-02-17T14:49:57Z</time><name>PT9872</name></trkpt>
<trkpt lat="53.457623" lon="05.686549"><ele>-1.2</ele><time>2021-02-17T14:49:58Z</time><name>PT9873</name></trkpt>
<trkpt lat="53.457620" lon="05.686573"><ele>-1.3</ele><time>2021-02-17T14:49:59Z</time><name>PT9874</name></trkpt>
<trkpt lat="53.457616" lon="05.686600"><ele>-1.4</ele><time>2021-02-17T14:50:00Z</time><name>PT9875</name></trkpt>
<trkpt lat="53.457614" lon="05.686619"><ele>-1.4</ele><time>2021-02-17T14:50:01Z</time><name>PT9876</name></trkpt>
<trkpt lat="53.457614" lon="05.686642"><ele>-1.4</ele><time>2021-02-17T14:50:02Z</time><name>PT9877</name></trkpt>
<trkpt lat="53.457613" lon="05.686664"><ele>-1.4</ele><time>2021-02-17T14:50:03Z</time><name>PT9878</name></trkpt>
<trkpt lat="53.457609" lon="05.686688"><ele>-1.3</ele><time>2021-02-17T14:50:04Z</time><name>PT9879</name></trkpt>
<trkpt lat="53.457608" lon="05.686710"><ele>-1.4</ele><time>2021-02-17T14:50:05Z</time><name>PT9880</name></trkpt>
<trkpt lat="53.457606" lon="05.686732"><ele>-1.4</ele><time>2021-02-17T14:50:06Z</time><name>PT9881</name></trkpt>
<trkpt lat="53.457605" lon="05.686752"><ele>-1.5</ele><time>2021-02-17T14:50:07Z</time><name>PT9882</name></trkpt>
<trkpt lat="53.457602" lon="05.686771"><ele>-1.5</ele><time>2021-02-17T14:50:08Z</time><name>PT9883</name></trkpt>
<trkpt lat="53.457600" lon="05.686790"><ele>-1.4</ele><time>2021-02-17T14:50:09Z</time><name>PT9884</name></trkpt>
<trkpt lat="53.457599" lon="05.686810"><ele>-1.6</ele><time>2021-02-17T14:50:10Z</time><name>PT9885</name></trkpt>
<trkpt lat="53.457598" lon="05.686831"><ele>-1.6</ele><time>2021-02-17T14:50:11Z</time><name>PT9886</name></trkpt>
<trkpt lat="53.457597" lon="05.686850"><ele>-1.4</ele><time>2021-02-17T14:50:12Z</time><name>PT9887</name></trkpt>
<trkpt lat="53.457597" lon="05.686871"><ele>-1.5</ele><time>2021-02-17T14:50:13Z</time><name>PT9888</name></trkpt>
<trkpt lat="53.457596" lon="05.686890"><ele>-1.3</ele><time>2021-02-17T14:50:14Z</time><name>PT9889</name></trkpt>
<trkpt lat="53.457594" lon="05.686910"><ele>-1.4</ele><time>2021-02-17T14:50:15Z</time><name>PT9890</name></trkpt>
<trkpt lat="53.457592" lon="05.686929"><ele>-1.2</ele><time>2021-02-17T14:50:16Z</time><name>PT9891</name></trkpt>
<trkpt lat="53.457590" lon="05.686947"><ele>-1</ele><time>2021-02-17T14:50:17Z</time><name>PT9892</name></trkpt>
<trkpt lat="53.457591" lon="05.686963"><ele>0.9</ele><time>2021-02-17T14:50:18Z</time><name>PT9893</name></trkpt>
<trkpt lat="53.457589" lon="05.686983"><ele>0.9</ele><time>2021-02-17T14:50:19Z</time><name>PT9894</name></trkpt>
<trkpt lat="53.457585" lon="05.687002"><ele>0.9</ele><time>2021-02-17T14:50:20Z</time><name>PT9895</name></trkpt>
<trkpt lat="53.457580" lon="05.687022"><ele>-1</ele><time>2021-02-17T14:50:21Z</time><name>PT9896</name></trkpt>
<trkpt lat="53.457574" lon="05.687041"><ele>-1.1</ele><time>2021-02-17T14:50:22Z</time><name>PT9897</name></trkpt>
<trkpt lat="53.457570" lon="05.687059"><ele>-1.2</ele><time>2021-02-17T14:50:23Z</time><name>PT9898</name></trkpt>
<trkpt lat="53.457566" lon="05.687077"><ele>-1.2</ele><time>2021-02-17T14:50:24Z</time><name>PT9899</name></trkpt>
<trkpt lat="53.457563" lon="05.687097"><ele>-1.2</ele><time>2021-02-17T14:50:25Z</time><name>PT9900</name></trkpt>
<trkpt lat="53.457558" lon="05.687116"><ele>-1.3</ele><time>2021-02-17T14:50:26Z</time><name>PT9901</name></trkpt>
<trkpt lat="53.457554" lon="05.687134"><ele>-1.1</ele><time>2021-02-17T14:50:27Z</time><name>PT9902</name></trkpt>
<trkpt lat="53.457549" lon="05.687151"><ele>-1</ele><time>2021-02-17T14:50:28Z</time><name>PT9903</name></trkpt>
<trkpt lat="53.457543" lon="05.687167"><ele>-1</ele><time>2021-02-17T14:50:29Z</time><name>PT9904</name></trkpt>
<trkpt lat="53.457536" lon="05.687182"><ele>-1</ele><time>2021-02-17T14:50:30Z</time><name>PT9905</name></trkpt>
<trkpt lat="53.457528" lon="05.687197"><ele>-1.1</ele><time>2021-02-17T14:50:31Z</time><name>PT9906</name></trkpt>
<trkpt lat="53.457523" lon="05.687213"><ele>-1.3</ele><time>2021-02-17T14:50:32Z</time><name>PT9907</name></trkpt>
<trkpt lat="53.457517" lon="05.687229"><ele>-1.4</ele><time>2021-02-17T14:50:33Z</time><name>PT9908</name></trkpt>
<trkpt lat="53.457510" lon="05.687247"><ele>-1.4</ele><time>2021-02-17T14:50:34Z</time><name>PT9909</name></trkpt>
<trkpt lat="53.457503" lon="05.687264"><ele>-1.6</ele><time>2021-02-17T14:50:35Z</time><name>PT9910</name></trkpt>
<trkpt lat="53.457495" lon="05.687280"><ele>-1.4</ele><time>2021-02-17T14:50:36Z</time><name>PT9911</name></trkpt>
<trkpt lat="53.457486" lon="05.687294"><ele>-1.4</ele><time>2021-02-17T14:50:37Z</time><name>PT9912</name></trkpt>
<trkpt lat="53.457478" lon="05.687306"><ele>-1.4</ele><time>2021-02-17T14:50:38Z</time><name>PT9913</name></trkpt>
<trkpt lat="53.457469" lon="05.687318"><ele>-1.4</ele><time>2021-02-17T14:50:39Z</time><name>PT9914</name></trkpt>
<trkpt lat="53.457462" lon="05.687333"><ele>-1.3</ele><time>2021-02-17T14:50:40Z</time><name>PT9915</name></trkpt>
<trkpt lat="53.457454" lon="05.687348"><ele>-1.4</ele><time>2021-02-17T14:50:41Z</time><name>PT9916</name></trkpt>
<trkpt lat="53.457446" lon="05.687361"><ele>-1.5</ele><time>2021-02-17T14:50:42Z</time><name>PT9917</name></trkpt>
<trkpt lat="53.457437" lon="05.687376"><ele>-1.6</ele><time>2021-02-17T14:50:43Z</time><name>PT9918</name></trkpt>
<trkpt lat="53.457430" lon="05.687389"><ele>-1.7</ele><time>2021-02-17T14:50:44Z</time><name>PT9919</name></trkpt>
<trkpt lat="53.457423" lon="05.687402"><ele>-1.6</ele><time>2021-02-17T14:50:45Z</time><name>PT9920</name></trkpt>
<trkpt lat="53.457415" lon="05.687415"><ele>-1.8</ele><time>2021-02-17T14:50:46Z</time><name>PT9921</name></trkpt>
<trkpt lat="53.457405" lon="05.687425"><ele>-1.8</ele><time>2021-02-17T14:50:47Z</time><name>PT9922</name></trkpt>
<trkpt lat="53.457396" lon="05.687437"><ele>-1.8</ele><time>2021-02-17T14:50:48Z</time><name>PT9923</name></trkpt>
<trkpt lat="53.457385" lon="05.687449"><ele>-1.9</ele><time>2021-02-17T14:50:49Z</time><name>PT9924</name></trkpt>
<trkpt lat="53.457375" lon="05.687461"><ele>-1.6</ele><time>2021-02-17T14:50:50Z</time><name>PT9925</name></trkpt>
<trkpt lat="53.457365" lon="05.687475"><ele>-1.5</ele><time>2021-02-17T14:50:51Z</time><name>PT9926</name></trkpt>
<trkpt lat="53.457355" lon="05.687488"><ele>-1.7</ele><time>2021-02-17T14:50:52Z</time><name>PT9927</name></trkpt>
<trkpt lat="53.457344" lon="05.687502"><ele>-1.9</ele><time>2021-02-17T14:50:53Z</time><name>PT9928</name></trkpt>
<trkpt lat="53.457332" lon="05.687515"><ele>-1.9</ele><time>2021-02-17T14:50:54Z</time><name>PT9929</name></trkpt>
<trkpt lat="53.457322" lon="05.687527"><ele>-1.9</ele><time>2021-02-17T14:50:55Z</time><name>PT9930</name></trkpt>
<trkpt lat="53.457312" lon="05.687539"><ele>-1.9</ele><time>2021-02-17T14:50:56Z</time><name>PT9931</name></trkpt>
<trkpt lat="53.457301" lon="05.687551"><ele>-1.8</ele><time>2021-02-17T14:50:57Z</time><name>PT9932</name></trkpt>
<trkpt lat="53.457291" lon="05.687563"><ele>-1.7</ele><time>2021-02-17T14:50:58Z</time><name>PT9933</name></trkpt>
<trkpt lat="53.457281" lon="05.687574"><ele>-1.6</ele><time>2021-02-17T14:50:59Z</time><name>PT9934</name></trkpt>
<trkpt lat="53.457271" lon="05.687585"><ele>-1.4</ele><time>2021-02-17T14:51:00Z</time><name>PT9935</name></trkpt>
<trkpt lat="53.457260" lon="05.687597"><ele>-1.4</ele><time>2021-02-17T14:51:01Z</time><name>PT9936</name></trkpt>
<trkpt lat="53.457252" lon="05.687609"><ele>-1.5</ele><time>2021-02-17T14:51:02Z</time><name>PT9937</name></trkpt>
<trkpt lat="53.457243" lon="05.687622"><ele>-1.4</ele><time>2021-02-17T14:51:03Z</time><name>PT9938</name></trkpt>
<trkpt lat="53.457234" lon="05.687634"><ele>-1.4</ele><time>2021-02-17T14:51:04Z</time><name>PT9939</name></trkpt>
<trkpt lat="53.457224" lon="05.687647"><ele>-1.5</ele><time>2021-02-17T14:51:05Z</time><name>PT9940</name></trkpt>
<trkpt lat="53.457215" lon="05.687660"><ele>-1.5</ele><time>2021-02-17T14:51:06Z</time><name>PT9941</name></trkpt>
<trkpt lat="53.457205" lon="05.687673"><ele>-1.4</ele><time>2021-02-17T14:51:07Z</time><name>PT9942</name></trkpt>
<trkpt lat="53.457195" lon="05.687684"><ele>-1.4</ele><time>2021-02-17T14:51:08Z</time><name>PT9943</name></trkpt>
<trkpt lat="53.457186" lon="05.687696"><ele>-1.5</ele><time>2021-02-17T14:51:09Z</time><name>PT9944</name></trkpt>
<trkpt lat="53.457176" lon="05.687707"><ele>-1.5</ele><time>2021-02-17T14:51:10Z</time><name>PT9945</name></trkpt>
<trkpt lat="53.457167" lon="05.687722"><ele>-1.6</ele><time>2021-02-17T14:51:11Z</time><name>PT9946</name></trkpt>
<trkpt lat="53.457157" lon="05.687735"><ele>-1.7</ele><time>2021-02-17T14:51:12Z</time><name>PT9947</name></trkpt>
<trkpt lat="53.457147" lon="05.687746"><ele>-1.8</ele><time>2021-02-17T14:51:13Z</time><name>PT9948</name></trkpt>
<trkpt lat="53.457138" lon="05.687759"><ele>-1.6</ele><time>2021-02-17T14:51:14Z</time><name>PT9949</name></trkpt>
<trkpt lat="53.457130" lon="05.687773"><ele>-1.5</ele><time>2021-02-17T14:51:15Z</time><name>PT9950</name></trkpt>
<trkpt lat="53.457122" lon="05.687785"><ele>-1.4</ele><time>2021-02-17T14:51:16Z</time><name>PT9951</name></trkpt>
<trkpt lat="53.457112" lon="05.687796"><ele>-1.2</ele><time>2021-02-17T14:51:17Z</time><name>PT9952</name></trkpt>
<trkpt lat="53.457103" lon="05.687807"><ele>-1.1</ele><time>2021-02-17T14:51:18Z</time><name>PT9953</name></trkpt>
<trkpt lat="53.457094" lon="05.687819"><ele>-1.1</ele><time>2021-02-17T14:51:19Z</time><name>PT9954</name></trkpt>
<trkpt lat="53.457086" lon="05.687833"><ele>-1.4</ele><time>2021-02-17T14:51:20Z</time><name>PT9955</name></trkpt>
<trkpt lat="53.457078" lon="05.687846"><ele>-1.4</ele><time>2021-02-17T14:51:21Z</time><name>PT9956</name></trkpt>
<trkpt lat="53.457072" lon="05.687859"><ele>-1.5</ele><time>2021-02-17T14:51:22Z</time><name>PT9957</name></trkpt>
<trkpt lat="53.457062" lon="05.687871"><ele>-1.7</ele><time>2021-02-17T14:51:23Z</time><name>PT9958</name></trkpt>
<trkpt lat="53.457053" lon="05.687881"><ele>-1.8</ele><time>2021-02-17T14:51:24Z</time><name>PT9959</name></trkpt>
<trkpt lat="53.457044" lon="05.687891"><ele>-1.8</ele><time>2021-02-17T14:51:25Z</time><name>PT9960</name></trkpt>
<trkpt lat="53.457034" lon="05.687900"><ele>-1.7</ele><time>2021-02-17T14:51:26Z</time><name>PT9961</name></trkpt>
<trkpt lat="53.457024" lon="05.687909"><ele>-1.8</ele><time>2021-02-17T14:51:27Z</time><name>PT9962</name></trkpt>
<trkpt lat="53.457013" lon="05.687917"><ele>-1.8</ele><time>2021-02-17T14:51:28Z</time><name>PT9963</name></trkpt>
<trkpt lat="53.457004" lon="05.687925"><ele>-1.9</ele><time>2021-02-17T14:51:29Z</time><name>PT9964</name></trkpt>
<trkpt lat="53.456993" lon="05.687933"><ele>-1.9</ele><time>2021-02-17T14:51:30Z</time><name>PT9965</name></trkpt>
<trkpt lat="53.456982" lon="05.687941"><ele>-2.2</ele><time>2021-02-17T14:51:31Z</time><name>PT9966</name></trkpt>
<trkpt lat="53.456971" lon="05.687948"><ele>-2.3</ele><time>2021-02-17T14:51:32Z</time><name>PT9967</name></trkpt>
<trkpt lat="53.456960" lon="05.687954"><ele>-2.5</ele><time>2021-02-17T14:51:33Z</time><name>PT9968</name></trkpt>
<trkpt lat="53.456950" lon="05.687959"><ele>-2.4</ele><time>2021-02-17T14:51:34Z</time><name>PT9969</name></trkpt>
<trkpt lat="53.456940" lon="05.687966"><ele>-2.3</ele><time>2021-02-17T14:51:35Z</time><name>PT9970</name></trkpt>
<trkpt lat="53.456930" lon="05.687974"><ele>-2.2</ele><time>2021-02-17T14:51:36Z</time><name>PT9971</name></trkpt>
<trkpt lat="53.456918" lon="05.687980"><ele>-2</ele><time>2021-02-17T14:51:37Z</time><name>PT9972</name></trkpt>
<trkpt lat="53.456908" lon="05.687986"><ele>-1.7</ele><time>2021-02-17T14:51:38Z</time><name>PT9973</name></trkpt>
<trkpt lat="53.456897" lon="05.687992"><ele>-1.6</ele><time>2021-02-17T14:51:39Z</time><name>PT9974</name></trkpt>
<trkpt lat="53.456885" lon="05.687999"><ele>-1.4</ele><time>2021-02-17T14:51:40Z</time><name>PT9975</name></trkpt>
<trkpt lat="53.456874" lon="05.688005"><ele>-1.4</ele><time>2021-02-17T14:51:41Z</time><name>PT9976</name></trkpt>
<trkpt lat="53.456864" lon="05.688010"><ele>-1.4</ele><time>2021-02-17T14:51:42Z</time><name>PT9977</name></trkpt>
<trkpt lat="53.456853" lon="05.688016"><ele>-1.5</ele><time>2021-02-17T14:51:43Z</time><name>PT9978</name></trkpt>
<trkpt lat="53.456842" lon="05.688022"><ele>-1.5</ele><time>2021-02-17T14:51:44Z</time><name>PT9979</name></trkpt>
<trkpt lat="53.456832" lon="05.688029"><ele>-1.4</ele><time>2021-02-17T14:51:45Z</time><name>PT9980</name></trkpt>
<trkpt lat="53.456821" lon="05.688037"><ele>-1.3</ele><time>2021-02-17T14:51:46Z</time><name>PT9981</name></trkpt>
<trkpt lat="53.456810" lon="05.688045"><ele>-1.5</ele><time>2021-02-17T14:51:47Z</time><name>PT9982</name></trkpt>
<trkpt lat="53.456799" lon="05.688052"><ele>-1.4</ele><time>2021-02-17T14:51:48Z</time><name>PT9983</name></trkpt>
<trkpt lat="53.456788" lon="05.688059"><ele>-1.4</ele><time>2021-02-17T14:51:49Z</time><name>PT9984</name></trkpt>
<trkpt lat="53.456778" lon="05.688065"><ele>-1.4</ele><time>2021-02-17T14:51:50Z</time><name>PT9985</name></trkpt>
<trkpt lat="53.456768" lon="05.688072"><ele>-1.4</ele><time>2021-02-17T14:51:51Z</time><name>PT9986</name></trkpt>
<trkpt lat="53.456758" lon="05.688080"><ele>-1.4</ele><time>2021-02-17T14:51:52Z</time><name>PT9987</name></trkpt>
<trkpt lat="53.456749" lon="05.688087"><ele>-1.5</ele><time>2021-02-17T14:51:53Z</time><name>PT9988</name></trkpt>
<trkpt lat="53.456740" lon="05.688090"><ele>-1.7</ele><time>2021-02-17T14:51:54Z</time><name>PT9989</name></trkpt>
<trkpt lat="53.456731" lon="05.688095"><ele>-1.9</ele><time>2021-02-17T14:51:55Z</time><name>PT9990</name></trkpt>
<trkpt lat="53.456723" lon="05.688098"><ele>-1.9</ele><time>2021-02-17T14:51:56Z</time><name>PT9991</name></trkpt>
<trkpt lat="53.456714" lon="05.688097"><ele>-1.9</ele><time>2021-02-17T14:51:57Z</time><name>PT9992</name></trkpt>
<trkpt lat="53.456704" lon="05.688098"><ele>-2</ele><time>2021-02-17T14:51:58Z</time><name>PT9993</name></trkpt>
<trkpt lat="53.456696" lon="05.688102"><ele>-2.2</ele><time>2021-02-17T14:51:59Z</time><name>PT9994</name></trkpt>
<trkpt lat="53.456686" lon="05.688109"><ele>-2.2</ele><time>2021-02-17T14:52:00Z</time><name>PT9995</name></trkpt>
<trkpt lat="53.456677" lon="05.688114"><ele>-2.2</ele><time>2021-02-17T14:52:01Z</time><name>PT9996</name></trkpt>
<trkpt lat="53.456667" lon="05.688119"><ele>-2.3</ele><time>2021-02-17T14:52:02Z</time><name>PT9997</name></trkpt>
<trkpt lat="53.456658" lon="05.688120"><ele>-2.3</ele><time>2021-02-17T14:52:03Z</time><name>PT9998</name></trkpt>
<trkpt lat="53.456648" lon="05.688122"><ele>-2.2</ele><time>2021-02-17T14:52:04Z</time><name>PT9999</name></trkpt>
<trkpt lat="53.456638" lon="05.688125"><ele>-2.3</ele><time>2021-02-17T14:52:05Z</time><name>PT10000</name></trkpt>
<trkpt lat="53.456626" lon="05.688126"><ele>-2.3</ele><time>2021-02-17T14:52:06Z</time><name>PT10001</name></trkpt>
<trkpt lat="53.456614" lon="05.688127"><ele>-2.3</ele><time>2021-02-17T14:52:07Z</time><name>PT10002</name></trkpt>
<trkpt lat="53.456603" lon="05.688126"><ele>-2.3</ele><time>2021-02-17T14:52:08Z</time><name>PT10003</name></trkpt>
<trkpt lat="53.456593" lon="05.688126"><ele>-2.4</ele><time>2021-02-17T14:52:09Z</time><name>PT10004</name></trkpt>
<trkpt lat="53.456584" lon="05.688127"><ele>-2.6</ele><time>2021-02-17T14:52:10Z</time><name>PT10005</name></trkpt>
<trkpt lat="53.456574" lon="05.688130"><ele>-2.7</ele><time>2021-02-17T14:52:11Z</time><name>PT10006</name></trkpt>
<trkpt lat="53.456564" lon="05.688131"><ele>-2.7</ele><time>2021-02-17T14:52:12Z</time><name>PT10007</name></trkpt>
<trkpt lat="53.456554" lon="05.688130"><ele>-2.7</ele><time>2021-02-17T14:52:13Z</time><name>PT10008</name></trkpt>
<trkpt lat="53.456543" lon="05.688130"><ele>-2.6</ele><time>2021-02-17T14:52:14Z</time><name>PT10009</name></trkpt>
<trkpt lat="53.456532" lon="05.688128"><ele>-2.7</ele><time>2021-02-17T14:52:15Z</time><name>PT10010</name></trkpt>
<trkpt lat="53.456521" lon="05.688126"><ele>-2.4</ele><time>2021-02-17T14:52:16Z</time><name>PT10011</name></trkpt>
<trkpt lat="53.456510" lon="05.688123"><ele>-2.2</ele><time>2021-02-17T14:52:17Z</time><name>PT10012</name></trkpt>
<trkpt lat="53.456500" lon="05.688119"><ele>-1.9</ele><time>2021-02-17T14:52:18Z</time><name>PT10013</name></trkpt>
<trkpt lat="53.456490" lon="05.688117"><ele>-1.7</ele><time>2021-02-17T14:52:19Z</time><name>PT10014</name></trkpt>
<trkpt lat="53.456479" lon="05.688116"><ele>-1.7</ele><time>2021-02-17T14:52:20Z</time><name>PT10015</name></trkpt>
<trkpt lat="53.456468" lon="05.688116"><ele>-1.8</ele><time>2021-02-17T14:52:21Z</time><name>PT10016</name></trkpt>
<trkpt lat="53.456459" lon="05.688116"><ele>-1.9</ele><time>2021-02-17T14:52:22Z</time><name>PT10017</name></trkpt>
<trkpt lat="53.456447" lon="05.688114"><ele>-2.1</ele><time>2021-02-17T14:52:23Z</time><name>PT10018</name></trkpt>
<trkpt lat="53.456436" lon="05.688113"><ele>-2.1</ele><time>2021-02-17T14:52:24Z</time><name>PT10019</name></trkpt>
<trkpt lat="53.456425" lon="05.688111"><ele>-2</ele><time>2021-02-17T14:52:25Z</time><name>PT10020</name></trkpt>
<trkpt lat="53.456415" lon="05.688106"><ele>-2.1</ele><time>2021-02-17T14:52:26Z</time><name>PT10021</name></trkpt>
<trkpt lat="53.456403" lon="05.688102"><ele>-2</ele><time>2021-02-17T14:52:27Z</time><name>PT10022</name></trkpt>
<trkpt lat="53.456390" lon="05.688097"><ele>-2</ele><time>2021-02-17T14:52:28Z</time><name>PT10023</name></trkpt>
<trkpt lat="53.456379" lon="05.688095"><ele>-2</ele><time>2021-02-17T14:52:29Z</time><name>PT10024</name></trkpt>
<trkpt lat="53.456366" lon="05.688092"><ele>-2.1</ele><time>2021-02-17T14:52:30Z</time><name>PT10025</name></trkpt>
<trkpt lat="53.456354" lon="05.688091"><ele>-1.9</ele><time>2021-02-17T14:52:31Z</time><name>PT10026</name></trkpt>
<trkpt lat="53.456343" lon="05.688092"><ele>-1.9</ele><time>2021-02-17T14:52:32Z</time><name>PT10027</name></trkpt>
<trkpt lat="53.456332" lon="05.688090"><ele>-1.9</ele><time>2021-02-17T14:52:33Z</time><name>PT10028</name></trkpt>
<trkpt lat="53.456324" lon="05.688089"><ele>-1.7</ele><time>2021-02-17T14:52:34Z</time><name>PT10029</name></trkpt>
<trkpt lat="53.456314" lon="05.688087"><ele>-1.8</ele><time>2021-02-17T14:52:35Z</time><name>PT10030</name></trkpt>
<trkpt lat="53.456304" lon="05.688084"><ele>-1.9</ele><time>2021-02-17T14:52:36Z</time><name>PT10031</name></trkpt>
<trkpt lat="53.456293" lon="05.688081"><ele>-2</ele><time>2021-02-17T14:52:37Z</time><name>PT10032</name></trkpt>
<trkpt lat="53.456283" lon="05.688079"><ele>-2.1</ele><time>2021-02-17T14:52:38Z</time><name>PT10033</name></trkpt>
<trkpt lat="53.456273" lon="05.688077"><ele>-2</ele><time>2021-02-17T14:52:39Z</time><name>PT10034</name></trkpt>
<trkpt lat="53.456264" lon="05.688074"><ele>-1.9</ele><time>2021-02-17T14:52:40Z</time><name>PT10035</name></trkpt>
<trkpt lat="53.456253" lon="05.688073"><ele>-1.9</ele><time>2021-02-17T14:52:41Z</time><name>PT10036</name></trkpt>
<trkpt lat="53.456244" lon="05.688069"><ele>-1.7</ele><time>2021-02-17T14:52:42Z</time><name>PT10037</name></trkpt>
<trkpt lat="53.456235" lon="05.688067"><ele>-1.9</ele><time>2021-02-17T14:52:43Z</time><name>PT10038</name></trkpt>
<trkpt lat="53.456224" lon="05.688066"><ele>-2.1</ele><time>2021-02-17T14:52:44Z</time><name>PT10039</name></trkpt>
<trkpt lat="53.456213" lon="05.688064"><ele>-2.1</ele><time>2021-02-17T14:52:45Z</time><name>PT10040</name></trkpt>
<trkpt lat="53.456202" lon="05.688062"><ele>-1.9</ele><time>2021-02-17T14:52:46Z</time><name>PT10041</name></trkpt>
<trkpt lat="53.456190" lon="05.688060"><ele>-1.9</ele><time>2021-02-17T14:52:47Z</time><name>PT10042</name></trkpt>
<trkpt lat="53.456180" lon="05.688058"><ele>-1.9</ele><time>2021-02-17T14:52:48Z</time><name>PT10043</name></trkpt>
<trkpt lat="53.456170" lon="05.688056"><ele>-1.9</ele><time>2021-02-17T14:52:49Z</time><name>PT10044</name></trkpt>
<trkpt lat="53.456159" lon="05.688055"><ele>-2.2</ele><time>2021-02-17T14:52:50Z</time><name>PT10045</name></trkpt>
<trkpt lat="53.456147" lon="05.688055"><ele>-2.4</ele><time>2021-02-17T14:52:51Z</time><name>PT10046</name></trkpt>
<trkpt lat="53.456137" lon="05.688055"><ele>-2.4</ele><time>2021-02-17T14:52:52Z</time><name>PT10047</name></trkpt>
<trkpt lat="53.456127" lon="05.688053"><ele>-2.4</ele><time>2021-02-17T14:52:53Z</time><name>PT10048</name></trkpt>
<trkpt lat="53.456116" lon="05.688050"><ele>-2.4</ele><time>2021-02-17T14:52:54Z</time><name>PT10049</name></trkpt>
<trkpt lat="53.456104" lon="05.688048"><ele>-2.4</ele><time>2021-02-17T14:52:55Z</time><name>PT10050</name></trkpt>
<trkpt lat="53.456092" lon="05.688048"><ele>-2.3</ele><time>2021-02-17T14:52:56Z</time><name>PT10051</name></trkpt>
<trkpt lat="53.456082" lon="05.688047"><ele>-2.2</ele><time>2021-02-17T14:52:57Z</time><name>PT10052</name></trkpt>
<trkpt lat="53.456073" lon="05.688044"><ele>-2.2</ele><time>2021-02-17T14:52:58Z</time><name>PT10053</name></trkpt>
<trkpt lat="53.456061" lon="05.688042"><ele>-2.2</ele><time>2021-02-17T14:52:59Z</time><name>PT10054</name></trkpt>
<trkpt lat="53.456051" lon="05.688043"><ele>-2.3</ele><time>2021-02-17T14:53:00Z</time><name>PT10055</name></trkpt>
<trkpt lat="53.456041" lon="05.688043"><ele>-2.3</ele><time>2021-02-17T14:53:01Z</time><name>PT10056</name></trkpt>
<trkpt lat="53.456032" lon="05.688043"><ele>-2.3</ele><time>2021-02-17T14:53:02Z</time><name>PT10057</name></trkpt>
<trkpt lat="53.456022" lon="05.688041"><ele>-2.2</ele><time>2021-02-17T14:53:03Z</time><name>PT10058</name></trkpt>
<trkpt lat="53.456012" lon="05.688038"><ele>-2.3</ele><time>2021-02-17T14:53:04Z</time><name>PT10059</name></trkpt>
<trkpt lat="53.456000" lon="05.688038"><ele>-2.4</ele><time>2021-02-17T14:53:05Z</time><name>PT10060</name></trkpt>
<trkpt lat="53.455989" lon="05.688038"><ele>-2.4</ele><time>2021-02-17T14:53:06Z</time><name>PT10061</name></trkpt>
<trkpt lat="53.455980" lon="05.688038"><ele>-2.3</ele><time>2021-02-17T14:53:07Z</time><name>PT10062</name></trkpt>
<trkpt lat="53.455970" lon="05.688037"><ele>-2.4</ele><time>2021-02-17T14:53:08Z</time><name>PT10063</name></trkpt>
<trkpt lat="53.455959" lon="05.688037"><ele>-2.2</ele><time>2021-02-17T14:53:09Z</time><name>PT10064</name></trkpt>
<trkpt lat="53.455948" lon="05.688037"><ele>-2</ele><time>2021-02-17T14:53:10Z</time><name>PT10065</name></trkpt>
<trkpt lat="53.455938" lon="05.688039"><ele>-2.1</ele><time>2021-02-17T14:53:11Z</time><name>PT10066</name></trkpt>
<trkpt lat="53.455928" lon="05.688039"><ele>-2.3</ele><time>2021-02-17T14:53:12Z</time><name>PT10067</name></trkpt>
<trkpt lat="53.455917" lon="05.688037"><ele>-2.4</ele><time>2021-02-17T14:53:13Z</time><name>PT10068</name></trkpt>
<trkpt lat="53.455906" lon="05.688036"><ele>-2.5</ele><time>2021-02-17T14:53:14Z</time><name>PT10069</name></trkpt>
<trkpt lat="53.455895" lon="05.688034"><ele>-2.5</ele><time>2021-02-17T14:53:15Z</time><name>PT10070</name></trkpt>
<trkpt lat="53.455884" lon="05.688033"><ele>-2.4</ele><time>2021-02-17T14:53:16Z</time><name>PT10071</name></trkpt>
<trkpt lat="53.455876" lon="05.688035"><ele>-2.3</ele><time>2021-02-17T14:53:17Z</time><name>PT10072</name></trkpt>
<trkpt lat="53.455866" lon="05.688036"><ele>-2.4</ele><time>2021-02-17T14:53:18Z</time><name>PT10073</name></trkpt>
<trkpt lat="53.455856" lon="05.688039"><ele>-2.3</ele><time>2021-02-17T14:53:19Z</time><name>PT10074</name></trkpt>
<trkpt lat="53.455845" lon="05.688039"><ele>-2.4</ele><time>2021-02-17T14:53:20Z</time><name>PT10075</name></trkpt>
<trkpt lat="53.455834" lon="05.688039"><ele>-2.4</ele><time>2021-02-17T14:53:21Z</time><name>PT10076</name></trkpt>
<trkpt lat="53.455823" lon="05.688040"><ele>-2.1</ele><time>2021-02-17T14:53:22Z</time><name>PT10077</name></trkpt>
<trkpt lat="53.455811" lon="05.688039"><ele>-2.2</ele><time>2021-02-17T14:53:23Z</time><name>PT10078</name></trkpt>
<trkpt lat="53.455800" lon="05.688039"><ele>-2.3</ele><time>2021-02-17T14:53:24Z</time><name>PT10079</name></trkpt>
<trkpt lat="53.455788" lon="05.688039"><ele>-1.9</ele><time>2021-02-17T14:53:25Z</time><name>PT10080</name></trkpt>
<trkpt lat="53.455777" lon="05.688038"><ele>-2.3</ele><time>2021-02-17T14:53:26Z</time><name>PT10081</name></trkpt>
<trkpt lat="53.455766" lon="05.688036"><ele>-2.4</ele><time>2021-02-17T14:53:27Z</time><name>PT10082</name></trkpt>
<trkpt lat="53.455755" lon="05.688037"><ele>-2.5</ele><time>2021-02-17T14:53:28Z</time><name>PT10083</name></trkpt>
<trkpt lat="53.455744" lon="05.688038"><ele>-2.7</ele><time>2021-02-17T14:53:29Z</time><name>PT10084</name></trkpt>
<trkpt lat="53.455733" lon="05.688041"><ele>-2.9</ele><time>2021-02-17T14:53:30Z</time><name>PT10085</name></trkpt>
<trkpt lat="53.455722" lon="05.688043"><ele>-2.6</ele><time>2021-02-17T14:53:31Z</time><name>PT10086</name></trkpt>
<trkpt lat="53.455711" lon="05.688045"><ele>-2.6</ele><time>2021-02-17T14:53:32Z</time><name>PT10087</name></trkpt>
<trkpt lat="53.455700" lon="05.688048"><ele>-2.5</ele><time>2021-02-17T14:53:33Z</time><name>PT10088</name></trkpt>
<trkpt lat="53.455689" lon="05.688047"><ele>-2.5</ele><time>2021-02-17T14:53:34Z</time><name>PT10089</name></trkpt>
<trkpt lat="53.455678" lon="05.688047"><ele>-2.4</ele><time>2021-02-17T14:53:35Z</time><name>PT10090</name></trkpt>
<trkpt lat="53.455668" lon="05.688050"><ele>-2.4</ele><time>2021-02-17T14:53:36Z</time><name>PT10091</name></trkpt>
<trkpt lat="53.455658" lon="05.688051"><ele>-2.3</ele><time>2021-02-17T14:53:37Z</time><name>PT10092</name></trkpt>
<trkpt lat="53.455648" lon="05.688050"><ele>-2.1</ele><time>2021-02-17T14:53:38Z</time><name>PT10093</name></trkpt>
<trkpt lat="53.455637" lon="05.688049"><ele>-2</ele><time>2021-02-17T14:53:39Z</time><name>PT10094</name></trkpt>
<trkpt lat="53.455626" lon="05.688049"><ele>-1.9</ele><time>2021-02-17T14:53:40Z</time><name>PT10095</name></trkpt>
<trkpt lat="53.455616" lon="05.688048"><ele>-1.9</ele><time>2021-02-17T14:53:41Z</time><name>PT10096</name></trkpt>
<trkpt lat="53.455606" lon="05.688049"><ele>-1.9</ele><time>2021-02-17T14:53:42Z</time><name>PT10097</name></trkpt>
<trkpt lat="53.455596" lon="05.688051"><ele>-1.9</ele><time>2021-02-17T14:53:43Z</time><name>PT10098</name></trkpt>
<trkpt lat="53.455585" lon="05.688052"><ele>-1.9</ele><time>2021-02-17T14:53:44Z</time><name>PT10099</name></trkpt>
<trkpt lat="53.455574" lon="05.688053"><ele>-1.9</ele><time>2021-02-17T14:53:45Z</time><name>PT10100</name></trkpt>
<trkpt lat="53.455563" lon="05.688054"><ele>-1.8</ele><time>2021-02-17T14:53:46Z</time><name>PT10101</name></trkpt>
<trkpt lat="53.455554" lon="05.688054"><ele>-1.9</ele><time>2021-02-17T14:53:47Z</time><name>PT10102</name></trkpt>
<trkpt lat="53.455544" lon="05.688056"><ele>-1.9</ele><time>2021-02-17T14:53:48Z</time><name>PT10103</name></trkpt>
<trkpt lat="53.455533" lon="05.688057"><ele>-2</ele><time>2021-02-17T14:53:49Z</time><name>PT10104</name></trkpt>
<trkpt lat="53.455522" lon="05.688057"><ele>-2.1</ele><time>2021-02-17T14:53:50Z</time><name>PT10105</name></trkpt>
<trkpt lat="53.455513" lon="05.688058"><ele>-2.1</ele><time>2021-02-17T14:53:51Z</time><name>PT10106</name></trkpt>
<trkpt lat="53.455506" lon="05.688058"><ele>-2</ele><time>2021-02-17T14:53:52Z</time><name>PT10107</name></trkpt>
<trkpt lat="53.455497" lon="05.688057"><ele>-2.3</ele><time>2021-02-17T14:53:53Z</time><name>PT10108</name></trkpt>
<trkpt lat="53.455484" lon="05.688057"><ele>-2.3</ele><time>2021-02-17T14:53:54Z</time><name>PT10109</name></trkpt>
<trkpt lat="53.455473" lon="05.688057"><ele>-2.4</ele><time>2021-02-17T14:53:55Z</time><name>PT10110</name></trkpt>
<trkpt lat="53.455462" lon="05.688056"><ele>-2.1</ele><time>2021-02-17T14:53:56Z</time><name>PT10111</name></trkpt>
<trkpt lat="53.455451" lon="05.688056"><ele>-1.9</ele><time>2021-02-17T14:53:57Z</time><name>PT10112</name></trkpt>
<trkpt lat="53.455440" lon="05.688054"><ele>-1.4</ele><time>2021-02-17T14:53:58Z</time><name>PT10113</name></trkpt>
<trkpt lat="53.455431" lon="05.688053"><ele>-1</ele><time>2021-02-17T14:53:59Z</time><name>PT10114</name></trkpt>
<trkpt lat="53.455421" lon="05.688052"><ele>0.9</ele><time>2021-02-17T14:54:00Z</time><name>PT10115</name></trkpt>
<trkpt lat="53.455412" lon="05.688052"><ele>0.9</ele><time>2021-02-17T14:54:01Z</time><name>PT10116</name></trkpt>
<trkpt lat="53.455401" lon="05.688054"><ele>0.9</ele><time>2021-02-17T14:54:02Z</time><name>PT10117</name></trkpt>
<trkpt lat="53.455390" lon="05.688055"><ele>0.9</ele><time>2021-02-17T14:54:03Z</time><name>PT10118</name></trkpt>
<trkpt lat="53.455378" lon="05.688056"><ele>-1.1</ele><time>2021-02-17T14:54:04Z</time><name>PT10119</name></trkpt>
<trkpt lat="53.455367" lon="05.688056"><ele>-1.1</ele><time>2021-02-17T14:54:05Z</time><name>PT10120</name></trkpt>
<trkpt lat="53.455355" lon="05.688056"><ele>-1.1</ele><time>2021-02-17T14:54:06Z</time><name>PT10121</name></trkpt>
<trkpt lat="53.455342" lon="05.688059"><ele>-1.1</ele><time>2021-02-17T14:54:07Z</time><name>PT10122</name></trkpt>
<trkpt lat="53.455331" lon="05.688059"><ele>-1</ele><time>2021-02-17T14:54:08Z</time><name>PT10123</name></trkpt>
<trkpt lat="53.455323" lon="05.688058"><ele>-1</ele><time>2021-02-17T14:54:09Z</time><name>PT10124</name></trkpt>
<trkpt lat="53.455313" lon="05.688059"><ele>0.9</ele><time>2021-02-17T14:54:10Z</time><name>PT10125</name></trkpt>
<trkpt lat="53.455302" lon="05.688059"><ele>0.9</ele><time>2021-02-17T14:54:11Z</time><name>PT10126</name></trkpt>
<trkpt lat="53.455292" lon="05.688061"><ele>-1.2</ele><time>2021-02-17T14:54:12Z</time><name>PT10127</name></trkpt>
<trkpt lat="53.455281" lon="05.688066"><ele>-1.3</ele><time>2021-02-17T14:54:13Z</time><name>PT10128</name></trkpt>
<trkpt lat="53.455271" lon="05.688069"><ele>-1.3</ele><time>2021-02-17T14:54:14Z</time><name>PT10129</name></trkpt>
<trkpt lat="53.455262" lon="05.688070"><ele>-1.3</ele><time>2021-02-17T14:54:15Z</time><name>PT10130</name></trkpt>
<trkpt lat="53.455253" lon="05.688068"><ele>-1</ele><time>2021-02-17T14:54:16Z</time><name>PT10131</name></trkpt>
<trkpt lat="53.455244" lon="05.688068"><ele>0.9</ele><time>2021-02-17T14:54:17Z</time><name>PT10132</name></trkpt>
<trkpt lat="53.455234" lon="05.688068"><ele>0.7</ele><time>2021-02-17T14:54:18Z</time><name>PT10133</name></trkpt>
<trkpt lat="53.455222" lon="05.688069"><ele>0.7</ele><time>2021-02-17T14:54:19Z</time><name>PT10134</name></trkpt>
<trkpt lat="53.455211" lon="05.688070"><ele>0.7</ele><time>2021-02-17T14:54:20Z</time><name>PT10135</name></trkpt>
<trkpt lat="53.455201" lon="05.688069"><ele>0.7</ele><time>2021-02-17T14:54:21Z</time><name>PT10136</name></trkpt>
<trkpt lat="53.455191" lon="05.688071"><ele>0.9</ele><time>2021-02-17T14:54:22Z</time><name>PT10137</name></trkpt>
<trkpt lat="53.455180" lon="05.688074"><ele>-1.1</ele><time>2021-02-17T14:54:23Z</time><name>PT10138</name></trkpt>
<trkpt lat="53.455171" lon="05.688073"><ele>-1.2</ele><time>2021-02-17T14:54:24Z</time><name>PT10139</name></trkpt>
<trkpt lat="53.455160" lon="05.688074"><ele>-1.4</ele><time>2021-02-17T14:54:25Z</time><name>PT10140</name></trkpt>
<trkpt lat="53.455150" lon="05.688077"><ele>-1.4</ele><time>2021-02-17T14:54:26Z</time><name>PT10141</name></trkpt>
<trkpt lat="53.455142" lon="05.688080"><ele>-1.4</ele><time>2021-02-17T14:54:27Z</time><name>PT10142</name></trkpt>
<trkpt lat="53.455131" lon="05.688082"><ele>-1.2</ele><time>2021-02-17T14:54:28Z</time><name>PT10143</name></trkpt>
<trkpt lat="53.455119" lon="05.688082"><ele>0.9</ele><time>2021-02-17T14:54:29Z</time><name>PT10144</name></trkpt>
<trkpt lat="53.455108" lon="05.688083"><ele>0.9</ele><time>2021-02-17T14:54:30Z</time><name>PT10145</name></trkpt>
<trkpt lat="53.455097" lon="05.688082"><ele>0.9</ele><time>2021-02-17T14:54:31Z</time><name>PT10146</name></trkpt>
<trkpt lat="53.455086" lon="05.688080"><ele>-1</ele><time>2021-02-17T14:54:32Z</time><name>PT10147</name></trkpt>
<trkpt lat="53.455076" lon="05.688079"><ele>-1.2</ele><time>2021-02-17T14:54:33Z</time><name>PT10148</name></trkpt>
<trkpt lat="53.455067" lon="05.688079"><ele>-1.4</ele><time>2021-02-17T14:54:34Z</time><name>PT10149</name></trkpt>
<trkpt lat="53.455057" lon="05.688080"><ele>-1.2</ele><time>2021-02-17T14:54:35Z</time><name>PT10150</name></trkpt>
<trkpt lat="53.455046" lon="05.688081"><ele>-1.1</ele><time>2021-02-17T14:54:36Z</time><name>PT10151</name></trkpt>
<trkpt lat="53.455036" lon="05.688082"><ele>0.9</ele><time>2021-02-17T14:54:37Z</time><name>PT10152</name></trkpt>
<trkpt lat="53.455023" lon="05.688086"><ele>0.7</ele><time>2021-02-17T14:54:38Z</time><name>PT10153</name></trkpt>
<trkpt lat="53.455013" lon="05.688088"><ele>0.6</ele><time>2021-02-17T14:54:39Z</time><name>PT10154</name></trkpt>
<trkpt lat="53.455002" lon="05.688090"><ele>0.7</ele><time>2021-02-17T14:54:40Z</time><name>PT10155</name></trkpt>
<trkpt lat="53.454991" lon="05.688092"><ele>0.5</ele><time>2021-02-17T14:54:41Z</time><name>PT10156</name></trkpt>
<trkpt lat="53.454979" lon="05.688093"><ele>0.3</ele><time>2021-02-17T14:54:42Z</time><name>PT10157</name></trkpt>
<trkpt lat="53.454968" lon="05.688092"><ele>0.1</ele><time>2021-02-17T14:54:43Z</time><name>PT10158</name></trkpt>
<trkpt lat="53.454956" lon="05.688092"><ele>0.2</ele><time>2021-02-17T14:54:44Z</time><name>PT10159</name></trkpt>
<trkpt lat="53.454945" lon="05.688091"><ele>0.2</ele><time>2021-02-17T14:54:45Z</time><name>PT10160</name></trkpt>
<trkpt lat="53.454936" lon="05.688091"><ele>0.4</ele><time>2021-02-17T14:54:46Z</time><name>PT10161</name></trkpt>
<trkpt lat="53.454925" lon="05.688095"><ele>0.3</ele><time>2021-02-17T14:54:47Z</time><name>PT10162</name></trkpt>
<trkpt lat="53.454914" lon="05.688099"><ele>0.2</ele><time>2021-02-17T14:54:48Z</time><name>PT10163</name></trkpt>
<trkpt lat="53.454904" lon="05.688102"><ele>0.3</ele><time>2021-02-17T14:54:49Z</time><name>PT10164</name></trkpt>
<trkpt lat="53.454891" lon="05.688105"><ele>0.3</ele><time>2021-02-17T14:54:50Z</time><name>PT10165</name></trkpt>
<trkpt lat="53.454879" lon="05.688108"><ele>0.1</ele><time>2021-02-17T14:54:51Z</time><name>PT10166</name></trkpt>
<trkpt lat="53.454868" lon="05.688110"><ele>0</ele><time>2021-02-17T14:54:52Z</time><name>PT10167</name></trkpt>
<trkpt lat="53.454858" lon="05.688112"><ele>0.1</ele><time>2021-02-17T14:54:53Z</time><name>PT10168</name></trkpt>
<trkpt lat="53.454846" lon="05.688114"><ele>0.1</ele><time>2021-02-17T14:54:54Z</time><name>PT10169</name></trkpt>
<trkpt lat="53.454835" lon="05.688116"><ele>0.1</ele><time>2021-02-17T14:54:55Z</time><name>PT10170</name></trkpt>
<trkpt lat="53.454824" lon="05.688116"><ele>0.2</ele><time>2021-02-17T14:54:56Z</time><name>PT10171</name></trkpt>
<trkpt lat="53.454813" lon="05.688118"><ele>0.2</ele><time>2021-02-17T14:54:57Z</time><name>PT10172</name></trkpt>
<trkpt lat="53.454801" lon="05.688119"><ele>0.1</ele><time>2021-02-17T14:54:58Z</time><name>PT10173</name></trkpt>
<trkpt lat="53.454790" lon="05.688118"><ele>0.1</ele><time>2021-02-17T14:54:59Z</time><name>PT10174</name></trkpt>
<trkpt lat="53.454780" lon="05.688116"><ele>0.3</ele><time>2021-02-17T14:55:00Z</time><name>PT10175</name></trkpt>
<trkpt lat="53.454771" lon="05.688116"><ele>0.4</ele><time>2021-02-17T14:55:01Z</time><name>PT10176</name></trkpt>
<trkpt lat="53.454761" lon="05.688120"><ele>0.2</ele><time>2021-02-17T14:55:02Z</time><name>PT10177</name></trkpt>
<trkpt lat="53.454750" lon="05.688122"><ele>0.4</ele><time>2021-02-17T14:55:03Z</time><name>PT10178</name></trkpt>
<trkpt lat="53.454739" lon="05.688123"><ele>0.4</ele><time>2021-02-17T14:55:04Z</time><name>PT10179</name></trkpt>
<trkpt lat="53.454726" lon="05.688126"><ele>0.4</ele><time>2021-02-17T14:55:05Z</time><name>PT10180</name></trkpt>
<trkpt lat="53.454715" lon="05.688126"><ele>0.4</ele><time>2021-02-17T14:55:06Z</time><name>PT10181</name></trkpt>
<trkpt lat="53.454705" lon="05.688126"><ele>0.5</ele><time>2021-02-17T14:55:07Z</time><name>PT10182</name></trkpt>
<trkpt lat="53.454696" lon="05.688126"><ele>0.3</ele><time>2021-02-17T14:55:08Z</time><name>PT10183</name></trkpt>
<trkpt lat="53.454686" lon="05.688125"><ele>0.3</ele><time>2021-02-17T14:55:09Z</time><name>PT10184</name></trkpt>
<trkpt lat="53.454674" lon="05.688125"><ele>0</ele><time>2021-02-17T14:55:10Z</time><name>PT10185</name></trkpt>
<trkpt lat="53.454662" lon="05.688124"><ele>0</ele><time>2021-02-17T14:55:11Z</time><name>PT10186</name></trkpt>
<trkpt lat="53.454651" lon="05.688124"><ele>0</ele><time>2021-02-17T14:55:12Z</time><name>PT10187</name></trkpt>
<trkpt lat="53.454639" lon="05.688123"><ele>0.1</ele><time>2021-02-17T14:55:13Z</time><name>PT10188</name></trkpt>
<trkpt lat="53.454628" lon="05.688122"><ele>0.1</ele><time>2021-02-17T14:55:14Z</time><name>PT10189</name></trkpt>
<trkpt lat="53.454614" lon="05.688125"><ele>0.1</ele><time>2021-02-17T14:55:15Z</time><name>PT10190</name></trkpt>
<trkpt lat="53.454604" lon="05.688125"><ele>0</ele><time>2021-02-17T14:55:16Z</time><name>PT10191</name></trkpt>
<trkpt lat="53.454592" lon="05.688125"><ele>0</ele><time>2021-02-17T14:55:17Z</time><name>PT10192</name></trkpt>
<trkpt lat="53.454581" lon="05.688123"><ele>0.1</ele><time>2021-02-17T14:55:18Z</time><name>PT10193</name></trkpt>
<trkpt lat="53.454571" lon="05.688126"><ele>0.1</ele><time>2021-02-17T14:55:19Z</time><name>PT10194</name></trkpt>
<trkpt lat="53.454560" lon="05.688131"><ele>0</ele><time>2021-02-17T14:55:20Z</time><name>PT10195</name></trkpt>
<trkpt lat="53.454548" lon="05.688131"><ele>0</ele><time>2021-02-17T14:55:21Z</time><name>PT10196</name></trkpt>
<trkpt lat="53.454537" lon="05.688131"><ele>0.2</ele><time>2021-02-17T14:55:22Z</time><name>PT10197</name></trkpt>
<trkpt lat="53.454526" lon="05.688133"><ele>0.3</ele><time>2021-02-17T14:55:23Z</time><name>PT10198</name></trkpt>
<trkpt lat="53.454515" lon="05.688135"><ele>0.4</ele><time>2021-02-17T14:55:24Z</time><name>PT10199</name></trkpt>
<trkpt lat="53.454504" lon="05.688137"><ele>0.3</ele><time>2021-02-17T14:55:25Z</time><name>PT10200</name></trkpt>
<trkpt lat="53.454494" lon="05.688136"><ele>0.1</ele><time>2021-02-17T14:55:26Z</time><name>PT10201</name></trkpt>
<trkpt lat="53.454483" lon="05.688135"><ele>0.2</ele><time>2021-02-17T14:55:27Z</time><name>PT10202</name></trkpt>
<trkpt lat="53.454472" lon="05.688135"><ele>0.1</ele><time>2021-02-17T14:55:28Z</time><name>PT10203</name></trkpt>
<trkpt lat="53.454460" lon="05.688136"><ele>0</ele><time>2021-02-17T14:55:29Z</time><name>PT10204</name></trkpt>
<trkpt lat="53.454449" lon="05.688133"><ele>0</ele><time>2021-02-17T14:55:30Z</time><name>PT10205</name></trkpt>
<trkpt lat="53.454437" lon="05.688131"><ele>0</ele><time>2021-02-17T14:55:31Z</time><name>PT10206</name></trkpt>
<trkpt lat="53.454427" lon="05.688131"><ele>0.1</ele><time>2021-02-17T14:55:32Z</time><name>PT10207</name></trkpt>
<trkpt lat="53.454418" lon="05.688131"><ele>0.2</ele><time>2021-02-17T14:55:33Z</time><name>PT10208</name></trkpt>
<trkpt lat="53.454407" lon="05.688132"><ele>0.3</ele><time>2021-02-17T14:55:34Z</time><name>PT10209</name></trkpt>
<trkpt lat="53.454398" lon="05.688133"><ele>0.4</ele><time>2021-02-17T14:55:35Z</time><name>PT10210</name></trkpt>
<trkpt lat="53.454387" lon="05.688136"><ele>0.4</ele><time>2021-02-17T14:55:36Z</time><name>PT10211</name></trkpt>
<trkpt lat="53.454377" lon="05.688141"><ele>0.4</ele><time>2021-02-17T14:55:37Z</time><name>PT10212</name></trkpt>
<trkpt lat="53.454367" lon="05.688141"><ele>0.1</ele><time>2021-02-17T14:55:38Z</time><name>PT10213</name></trkpt>
<trkpt lat="53.454358" lon="05.688140"><ele>0.1</ele><time>2021-02-17T14:55:39Z</time><name>PT10214</name></trkpt>
<trkpt lat="53.454349" lon="05.688139"><ele>0.2</ele><time>2021-02-17T14:55:40Z</time><name>PT10215</name></trkpt>
<trkpt lat="53.454340" lon="05.688138"><ele>0.2</ele><time>2021-02-17T14:55:41Z</time><name>PT10216</name></trkpt>
<trkpt lat="53.454330" lon="05.688137"><ele>0.4</ele><time>2021-02-17T14:55:42Z</time><name>PT10217</name></trkpt>
<trkpt lat="53.454319" lon="05.688136"><ele>0.6</ele><time>2021-02-17T14:55:43Z</time><name>PT10218</name></trkpt>
<trkpt lat="53.454309" lon="05.688136"><ele>0.4</ele><time>2021-02-17T14:55:44Z</time><name>PT10219</name></trkpt>
<trkpt lat="53.454299" lon="05.688137"><ele>0.4</ele><time>2021-02-17T14:55:45Z</time><name>PT10220</name></trkpt>
<trkpt lat="53.454289" lon="05.688140"><ele>0.3</ele><time>2021-02-17T14:55:46Z</time><name>PT10221</name></trkpt>
<trkpt lat="53.454278" lon="05.688141"><ele>0.2</ele><time>2021-02-17T14:55:47Z</time><name>PT10222</name></trkpt>
<trkpt lat="53.454270" lon="05.688140"><ele>0.3</ele><time>2021-02-17T14:55:48Z</time><name>PT10223</name></trkpt>
<trkpt lat="53.454261" lon="05.688140"><ele>0.3</ele><time>2021-02-17T14:55:49Z</time><name>PT10224</name></trkpt>
<trkpt lat="53.454249" lon="05.688142"><ele>0.4</ele><time>2021-02-17T14:55:50Z</time><name>PT10225</name></trkpt>
<trkpt lat="53.454238" lon="05.688141"><ele>0.3</ele><time>2021-02-17T14:55:51Z</time><name>PT10226</name></trkpt>
<trkpt lat="53.454227" lon="05.688139"><ele>0.2</ele><time>2021-02-17T14:55:52Z</time><name>PT10227</name></trkpt>
<trkpt lat="53.454219" lon="05.688134"><ele>0.3</ele><time>2021-02-17T14:55:53Z</time><name>PT10228</name></trkpt>
<trkpt lat="53.454209" lon="05.688132"><ele>0.1</ele><time>2021-02-17T14:55:54Z</time><name>PT10229</name></trkpt>
<trkpt lat="53.454199" lon="05.688131"><ele>0</ele><time>2021-02-17T14:55:55Z</time><name>PT10230</name></trkpt>
<trkpt lat="53.454188" lon="05.688131"><ele>0</ele><time>2021-02-17T14:55:56Z</time><name>PT10231</name></trkpt>
<trkpt lat="53.454178" lon="05.688132"><ele>0</ele><time>2021-02-17T14:55:57Z</time><name>PT10232</name></trkpt>
<trkpt lat="53.454167" lon="05.688132"><ele>0</ele><time>2021-02-17T14:55:58Z</time><name>PT10233</name></trkpt>
<trkpt lat="53.454155" lon="05.688134"><ele>0</ele><time>2021-02-17T14:55:59Z</time><name>PT10234</name></trkpt>
<trkpt lat="53.454144" lon="05.688133"><ele>0</ele><time>2021-02-17T14:56:00Z</time><name>PT10235</name></trkpt>
<trkpt lat="53.454136" lon="05.688133"><ele>0.2</ele><time>2021-02-17T14:56:01Z</time><name>PT10236</name></trkpt>
<trkpt lat="53.454127" lon="05.688135"><ele>0.4</ele><time>2021-02-17T14:56:02Z</time><name>PT10237</name></trkpt>
<trkpt lat="53.454116" lon="05.688137"><ele>0.5</ele><time>2021-02-17T14:56:03Z</time><name>PT10238</name></trkpt>
<trkpt lat="53.454106" lon="05.688133"><ele>0.9</ele><time>2021-02-17T14:56:04Z</time><name>PT10239</name></trkpt>
<trkpt lat="53.454095" lon="05.688130"><ele>-1.1</ele><time>2021-02-17T14:56:05Z</time><name>PT10240</name></trkpt>
<trkpt lat="53.454081" lon="05.688130"><ele>-1.1</ele><time>2021-02-17T14:56:06Z</time><name>PT10241</name></trkpt>
<trkpt lat="53.454070" lon="05.688131"><ele>-1.1</ele><time>2021-02-17T14:56:07Z</time><name>PT10242</name></trkpt>
<trkpt lat="53.454061" lon="05.688134"><ele>-1.1</ele><time>2021-02-17T14:56:08Z</time><name>PT10243</name></trkpt>
<trkpt lat="53.454049" lon="05.688134"><ele>-1.1</ele><time>2021-02-17T14:56:09Z</time><name>PT10244</name></trkpt>
<trkpt lat="53.454037" lon="05.688135"><ele>-1</ele><time>2021-02-17T14:56:10Z</time><name>PT10245</name></trkpt>
<trkpt lat="53.454025" lon="05.688136"><ele>-1.1</ele><time>2021-02-17T14:56:11Z</time><name>PT10246</name></trkpt>
<trkpt lat="53.454013" lon="05.688135"><ele>-1.1</ele><time>2021-02-17T14:56:12Z</time><name>PT10247</name></trkpt>
<trkpt lat="53.454002" lon="05.688133"><ele>-1.3</ele><time>2021-02-17T14:56:13Z</time><name>PT10248</name></trkpt>
<trkpt lat="53.453990" lon="05.688132"><ele>-1.5</ele><time>2021-02-17T14:56:14Z</time><name>PT10249</name></trkpt>
<trkpt lat="53.453977" lon="05.688132"><ele>-1.7</ele><time>2021-02-17T14:56:15Z</time><name>PT10250</name></trkpt>
<trkpt lat="53.453966" lon="05.688131"><ele>-1.9</ele><time>2021-02-17T14:56:16Z</time><name>PT10251</name></trkpt>
<trkpt lat="53.453958" lon="05.688128"><ele>-1.6</ele><time>2021-02-17T14:56:17Z</time><name>PT10252</name></trkpt>
<trkpt lat="53.453946" lon="05.688128"><ele>-1.5</ele><time>2021-02-17T14:56:18Z</time><name>PT10253</name></trkpt>
<trkpt lat="53.453934" lon="05.688129"><ele>-1.5</ele><time>2021-02-17T14:56:19Z</time><name>PT10254</name></trkpt>
<trkpt lat="53.453924" lon="05.688130"><ele>-1.4</ele><time>2021-02-17T14:56:20Z</time><name>PT10255</name></trkpt>
<trkpt lat="53.453913" lon="05.688131"><ele>-1.4</ele><time>2021-02-17T14:56:21Z</time><name>PT10256</name></trkpt>
<trkpt lat="53.453903" lon="05.688130"><ele>-1.4</ele><time>2021-02-17T14:56:22Z</time><name>PT10257</name></trkpt>
<trkpt lat="53.453893" lon="05.688127"><ele>-1.2</ele><time>2021-02-17T14:56:23Z</time><name>PT10258</name></trkpt>
<trkpt lat="53.453881" lon="05.688126"><ele>-1.2</ele><time>2021-02-17T14:56:24Z</time><name>PT10259</name></trkpt>
<trkpt lat="53.453871" lon="05.688125"><ele>-1.1</ele><time>2021-02-17T14:56:25Z</time><name>PT10260</name></trkpt>
<trkpt lat="53.453860" lon="05.688125"><ele>-1.3</ele><time>2021-02-17T14:56:26Z</time><name>PT10261</name></trkpt>
<trkpt lat="53.453850" lon="05.688127"><ele>-1.3</ele><time>2021-02-17T14:56:27Z</time><name>PT10262</name></trkpt>
<trkpt lat="53.453840" lon="05.688128"><ele>-1.4</ele><time>2021-02-17T14:56:28Z</time><name>PT10263</name></trkpt>
<trkpt lat="53.453829" lon="05.688127"><ele>-1.3</ele><time>2021-02-17T14:56:29Z</time><name>PT10264</name></trkpt>
<trkpt lat="53.453821" lon="05.688126"><ele>-1.3</ele><time>2021-02-17T14:56:30Z</time><name>PT10265</name></trkpt>
<trkpt lat="53.453810" lon="05.688123"><ele>-1.3</ele><time>2021-02-17T14:56:31Z</time><name>PT10266</name></trkpt>
<trkpt lat="53.453796" lon="05.688123"><ele>-1.5</ele><time>2021-02-17T14:56:32Z</time><name>PT10267</name></trkpt>
<trkpt lat="53.453787" lon="05.688124"><ele>-1.7</ele><time>2021-02-17T14:56:33Z</time><name>PT10268</name></trkpt>
<trkpt lat="53.453777" lon="05.688124"><ele>-2</ele><time>2021-02-17T14:56:34Z</time><name>PT10269</name></trkpt>
<trkpt lat="53.453769" lon="05.688121"><ele>-2.2</ele><time>2021-02-17T14:56:35Z</time><name>PT10270</name></trkpt>
<trkpt lat="53.453760" lon="05.688120"><ele>-2.4</ele><time>2021-02-17T14:56:36Z</time><name>PT10271</name></trkpt>
<trkpt lat="53.453748" lon="05.688119"><ele>-2.5</ele><time>2021-02-17T14:56:37Z</time><name>PT10272</name></trkpt>
<trkpt lat="53.453738" lon="05.688122"><ele>-2.4</ele><time>2021-02-17T14:56:38Z</time><name>PT10273</name></trkpt>
<trkpt lat="53.453733" lon="05.688119"><ele>-2.2</ele><time>2021-02-17T14:56:39Z</time><name>PT10274</name></trkpt>
<trkpt lat="53.453720" lon="05.688117"><ele>-2.4</ele><time>2021-02-17T14:56:40Z</time><name>PT10275</name></trkpt>
<trkpt lat="53.453707" lon="05.688116"><ele>-2.2</ele><time>2021-02-17T14:56:41Z</time><name>PT10276</name></trkpt>
<trkpt lat="53.453696" lon="05.688115"><ele>-2.3</ele><time>2021-02-17T14:56:42Z</time><name>PT10277</name></trkpt>
<trkpt lat="53.453686" lon="05.688113"><ele>-2.2</ele><time>2021-02-17T14:56:43Z</time><name>PT10278</name></trkpt>
<trkpt lat="53.453676" lon="05.688112"><ele>-2.2</ele><time>2021-02-17T14:56:44Z</time><name>PT10279</name></trkpt>
<trkpt lat="53.453664" lon="05.688113"><ele>-2.3</ele><time>2021-02-17T14:56:45Z</time><name>PT10280</name></trkpt>
<trkpt lat="53.453654" lon="05.688112"><ele>-2</ele><time>2021-02-17T14:56:46Z</time><name>PT10281</name></trkpt>
<trkpt lat="53.453644" lon="05.688112"><ele>-2</ele><time>2021-02-17T14:56:47Z</time><name>PT10282</name></trkpt>
<trkpt lat="53.453634" lon="05.688110"><ele>-1.9</ele><time>2021-02-17T14:56:48Z</time><name>PT10283</name></trkpt>
<trkpt lat="53.453624" lon="05.688108"><ele>-1.8</ele><time>2021-02-17T14:56:49Z</time><name>PT10284</name></trkpt>
<trkpt lat="53.453612" lon="05.688107"><ele>-1.8</ele><time>2021-02-17T14:56:50Z</time><name>PT10285</name></trkpt>
<trkpt lat="53.453601" lon="05.688106"><ele>-1.7</ele><time>2021-02-17T14:56:51Z</time><name>PT10286</name></trkpt>
<trkpt lat="53.453589" lon="05.688106"><ele>-1.9</ele><time>2021-02-17T14:56:52Z</time><name>PT10287</name></trkpt>
<trkpt lat="53.453580" lon="05.688109"><ele>-1.9</ele><time>2021-02-17T14:56:53Z</time><name>PT10288</name></trkpt>
<trkpt lat="53.453570" lon="05.688112"><ele>-2</ele><time>2021-02-17T14:56:54Z</time><name>PT10289</name></trkpt>
<trkpt lat="53.453558" lon="05.688113"><ele>-1.9</ele><time>2021-02-17T14:56:55Z</time><name>PT10290</name></trkpt>
<trkpt lat="53.453547" lon="05.688113"><ele>-1.7</ele><time>2021-02-17T14:56:56Z</time><name>PT10291</name></trkpt>
<trkpt lat="53.453534" lon="05.688113"><ele>-1.5</ele><time>2021-02-17T14:56:57Z</time><name>PT10292</name></trkpt>
<trkpt lat="53.453523" lon="05.688112"><ele>-1.4</ele><time>2021-02-17T14:56:58Z</time><name>PT10293</name></trkpt>
<trkpt lat="53.453512" lon="05.688111"><ele>-1.6</ele><time>2021-02-17T14:56:59Z</time><name>PT10294</name></trkpt>
<trkpt lat="53.453502" lon="05.688111"><ele>-1.6</ele><time>2021-02-17T14:57:00Z</time><name>PT10295</name></trkpt>
<trkpt lat="53.453492" lon="05.688111"><ele>-1.4</ele><time>2021-02-17T14:57:01Z</time><name>PT10296</name></trkpt>
<trkpt lat="53.453482" lon="05.688110"><ele>-1.4</ele><time>2021-02-17T14:57:02Z</time><name>PT10297</name></trkpt>
<trkpt lat="53.453472" lon="05.688111"><ele>-1.4</ele><time>2021-02-17T14:57:03Z</time><name>PT10298</name></trkpt>
<trkpt lat="53.453462" lon="05.688112"><ele>-1.7</ele><time>2021-02-17T14:57:04Z</time><name>PT10299</name></trkpt>
<trkpt lat="53.453453" lon="05.688113"><ele>-1.9</ele><time>2021-02-17T14:57:05Z</time><name>PT10300</name></trkpt>
<trkpt lat="53.453443" lon="05.688112"><ele>-1.8</ele><time>2021-02-17T14:57:06Z</time><name>PT10301</name></trkpt>
<trkpt lat="53.453432" lon="05.688110"><ele>-1.4</ele><time>2021-02-17T14:57:07Z</time><name>PT10302</name></trkpt>
<trkpt lat="53.453421" lon="05.688106"><ele>-1.1</ele><time>2021-02-17T14:57:08Z</time><name>PT10303</name></trkpt>
<trkpt lat="53.453410" lon="05.688102"><ele>-1.1</ele><time>2021-02-17T14:57:09Z</time><name>PT10304</name></trkpt>
<trkpt lat="53.453399" lon="05.688100"><ele>-1.1</ele><time>2021-02-17T14:57:10Z</time><name>PT10305</name></trkpt>
<trkpt lat="53.453391" lon="05.688099"><ele>-1.4</ele><time>2021-02-17T14:57:11Z</time><name>PT10306</name></trkpt>
<trkpt lat="53.453380" lon="05.688098"><ele>-1.4</ele><time>2021-02-17T14:57:12Z</time><name>PT10307</name></trkpt>
<trkpt lat="53.453370" lon="05.688099"><ele>-1.4</ele><time>2021-02-17T14:57:13Z</time><name>PT10308</name></trkpt>
<trkpt lat="53.453362" lon="05.688101"><ele>-1.4</ele><time>2021-02-17T14:57:14Z</time><name>PT10309</name></trkpt>
<trkpt lat="53.453353" lon="05.688103"><ele>-1.6</ele><time>2021-02-17T14:57:15Z</time><name>PT10310</name></trkpt>
<trkpt lat="53.453341" lon="05.688106"><ele>-1.6</ele><time>2021-02-17T14:57:16Z</time><name>PT10311</name></trkpt>
<trkpt lat="53.453333" lon="05.688104"><ele>-1.9</ele><time>2021-02-17T14:57:17Z</time><name>PT10312</name></trkpt>
<trkpt lat="53.453327" lon="05.688102"><ele>-1.9</ele><time>2021-02-17T14:57:18Z</time><name>PT10313</name></trkpt>
<trkpt lat="53.453318" lon="05.688104"><ele>-2.1</ele><time>2021-02-17T14:57:19Z</time><name>PT10314</name></trkpt>
<trkpt lat="53.453309" lon="05.688103"><ele>-2.2</ele><time>2021-02-17T14:57:20Z</time><name>PT10315</name></trkpt>
<trkpt lat="53.453300" lon="05.688102"><ele>-2.1</ele><time>2021-02-17T14:57:21Z</time><name>PT10316</name></trkpt>
<trkpt lat="53.453291" lon="05.688101"><ele>-2</ele><time>2021-02-17T14:57:22Z</time><name>PT10317</name></trkpt>
<trkpt lat="53.453282" lon="05.688099"><ele>-1.9</ele><time>2021-02-17T14:57:23Z</time><name>PT10318</name></trkpt>
<trkpt lat="53.453271" lon="05.688102"><ele>-1.7</ele><time>2021-02-17T14:57:24Z</time><name>PT10319</name></trkpt>
<trkpt lat="53.453261" lon="05.688106"><ele>-1.3</ele><time>2021-02-17T14:57:25Z</time><name>PT10320</name></trkpt>
<trkpt lat="53.453254" lon="05.688112"><ele>0.8</ele><time>2021-02-17T14:57:26Z</time><name>PT10321</name></trkpt>
<trkpt lat="53.453242" lon="05.688116"><ele>0.4</ele><time>2021-02-17T14:57:27Z</time><name>PT10322</name></trkpt>
<trkpt lat="53.453233" lon="05.688118"><ele>0</ele><time>2021-02-17T14:57:28Z</time><name>PT10323</name></trkpt>
<trkpt lat="53.453220" lon="05.688122"><ele>0</ele><time>2021-02-17T14:57:29Z</time><name>PT10324</name></trkpt>
<trkpt lat="53.453211" lon="05.688123"><ele>0</ele><time>2021-02-17T14:57:30Z</time><name>PT10325</name></trkpt>
<trkpt lat="53.453200" lon="05.688127"><ele>0.2</ele><time>2021-02-17T14:57:31Z</time><name>PT10326</name></trkpt>
<trkpt lat="53.453190" lon="05.688129"><ele>0.4</ele><time>2021-02-17T14:57:32Z</time><name>PT10327</name></trkpt>
<trkpt lat="53.453179" lon="05.688130"><ele>0.6</ele><time>2021-02-17T14:57:33Z</time><name>PT10328</name></trkpt>
<trkpt lat="53.453168" lon="05.688131"><ele>0.8</ele><time>2021-02-17T14:57:34Z</time><name>PT10329</name></trkpt>
<trkpt lat="53.453156" lon="05.688135"><ele>0.7</ele><time>2021-02-17T14:57:35Z</time><name>PT10330</name></trkpt>
<trkpt lat="53.453146" lon="05.688138"><ele>0.8</ele><time>2021-02-17T14:57:36Z</time><name>PT10331</name></trkpt>
<trkpt lat="53.453134" lon="05.688140"><ele>0.9</ele><time>2021-02-17T14:57:37Z</time><name>PT10332</name></trkpt>
<trkpt lat="53.453123" lon="05.688144"><ele>0.9</ele><time>2021-02-17T14:57:38Z</time><name>PT10333</name></trkpt>
<trkpt lat="53.453112" lon="05.688150"><ele>0.9</ele><time>2021-02-17T14:57:39Z</time><name>PT10334</name></trkpt>
<trkpt lat="53.453108" lon="05.688151"><ele>0.9</ele><time>2021-02-17T14:57:40Z</time><name>PT10335</name></trkpt>
<trkpt lat="53.453100" lon="05.688152"><ele>0.6</ele><time>2021-02-17T14:57:41Z</time><name>PT10336</name></trkpt>
<trkpt lat="53.453088" lon="05.688156"><ele>0.5</ele><time>2021-02-17T14:57:42Z</time><name>PT10337</name></trkpt>
<trkpt lat="53.453077" lon="05.688156"><ele>0.7</ele><time>2021-02-17T14:57:43Z</time><name>PT10338</name></trkpt>
<trkpt lat="53.453066" lon="05.688157"><ele>0.8</ele><time>2021-02-17T14:57:44Z</time><name>PT10339</name></trkpt>
<trkpt lat="53.453055" lon="05.688157"><ele>0.8</ele><time>2021-02-17T14:57:45Z</time><name>PT10340</name></trkpt>
<trkpt lat="53.453044" lon="05.688156"><ele>0.7</ele><time>2021-02-17T14:57:46Z</time><name>PT10341</name></trkpt>
<trkpt lat="53.453033" lon="05.688157"><ele>0.7</ele><time>2021-02-17T14:57:47Z</time><name>PT10342</name></trkpt>
<trkpt lat="53.453024" lon="05.688162"><ele>0.6</ele><time>2021-02-17T14:57:48Z</time><name>PT10343</name></trkpt>
<trkpt lat="53.453010" lon="05.688167"><ele>0.6</ele><time>2021-02-17T14:57:49Z</time><name>PT10344</name></trkpt>
<trkpt lat="53.452999" lon="05.688176"><ele>0.4</ele><time>2021-02-17T14:57:50Z</time><name>PT10345</name></trkpt>
<trkpt lat="53.452989" lon="05.688184"><ele>0.4</ele><time>2021-02-17T14:57:51Z</time><name>PT10346</name></trkpt>
<trkpt lat="53.452982" lon="05.688195"><ele>0.1</ele><time>2021-02-17T14:57:52Z</time><name>PT10347</name></trkpt>
<trkpt lat="53.452974" lon="05.688204"><ele>0.2</ele><time>2021-02-17T14:57:53Z</time><name>PT10348</name></trkpt>
<trkpt lat="53.452967" lon="05.688219"><ele>0.2</ele><time>2021-02-17T14:57:54Z</time><name>PT10349</name></trkpt>
<trkpt lat="53.452967" lon="05.688233"><ele>0.3</ele><time>2021-02-17T14:57:55Z</time><name>PT10350</name></trkpt>
<trkpt lat="53.452965" lon="05.688250"><ele>0.4</ele><time>2021-02-17T14:57:56Z</time><name>PT10351</name></trkpt>
<trkpt lat="53.452963" lon="05.688270"><ele>0.5</ele><time>2021-02-17T14:57:57Z</time><name>PT10352</name></trkpt>
<trkpt lat="53.452965" lon="05.688292"><ele>0.4</ele><time>2021-02-17T14:57:58Z</time><name>PT10353</name></trkpt>
<trkpt lat="53.452963" lon="05.688314"><ele>0.4</ele><time>2021-02-17T14:57:59Z</time><name>PT10354</name></trkpt>
<trkpt lat="53.452962" lon="05.688332"><ele>0.3</ele><time>2021-02-17T14:58:00Z</time><name>PT10355</name></trkpt>
<trkpt lat="53.452961" lon="05.688351"><ele>0.2</ele><time>2021-02-17T14:58:01Z</time><name>PT10356</name></trkpt>
<trkpt lat="53.452960" lon="05.688371"><ele>0.2</ele><time>2021-02-17T14:58:02Z</time><name>PT10357</name></trkpt>
<trkpt lat="53.452961" lon="05.688389"><ele>0.2</ele><time>2021-02-17T14:58:03Z</time><name>PT10358</name></trkpt>
<trkpt lat="53.452962" lon="05.688404"><ele>0.1</ele><time>2021-02-17T14:58:04Z</time><name>PT10359</name></trkpt>
<trkpt lat="53.452961" lon="05.688422"><ele>0</ele><time>2021-02-17T14:58:05Z</time><name>PT10360</name></trkpt>
<trkpt lat="53.452961" lon="05.688438"><ele>0</ele><time>2021-02-17T14:58:06Z</time><name>PT10361</name></trkpt>
<trkpt lat="53.452962" lon="05.688454"><ele>0</ele><time>2021-02-17T14:58:07Z</time><name>PT10362</name></trkpt>
<trkpt lat="53.452964" lon="05.688472"><ele>0.2</ele><time>2021-02-17T14:58:08Z</time><name>PT10363</name></trkpt>
<trkpt lat="53.452966" lon="05.688488"><ele>0.3</ele><time>2021-02-17T14:58:09Z</time><name>PT10364</name></trkpt>
<trkpt lat="53.452968" lon="05.688506"><ele>0.5</ele><time>2021-02-17T14:58:10Z</time><name>PT10365</name></trkpt>
<trkpt lat="53.452967" lon="05.688525"><ele>0.5</ele><time>2021-02-17T14:58:11Z</time><name>PT10366</name></trkpt>
<trkpt lat="53.452967" lon="05.688544"><ele>0.5</ele><time>2021-02-17T14:58:12Z</time><name>PT10367</name></trkpt>
<trkpt lat="53.452966" lon="05.688559"><ele>0.8</ele><time>2021-02-17T14:58:13Z</time><name>PT10368</name></trkpt>
<trkpt lat="53.452966" lon="05.688578"><ele>0.7</ele><time>2021-02-17T14:58:14Z</time><name>PT10369</name></trkpt>
<trkpt lat="53.452964" lon="05.688601"><ele>0.7</ele><time>2021-02-17T14:58:15Z</time><name>PT10370</name></trkpt>
<trkpt lat="53.452963" lon="05.688618"><ele>0.7</ele><time>2021-02-17T14:58:16Z</time><name>PT10371</name></trkpt>
<trkpt lat="53.452963" lon="05.688635"><ele>0.6</ele><time>2021-02-17T14:58:17Z</time><name>PT10372</name></trkpt>
<trkpt lat="53.452964" lon="05.688653"><ele>0.6</ele><time>2021-02-17T14:58:18Z</time><name>PT10373</name></trkpt>
<trkpt lat="53.452965" lon="05.688673"><ele>0.5</ele><time>2021-02-17T14:58:19Z</time><name>PT10374</name></trkpt>
<trkpt lat="53.452965" lon="05.688691"><ele>0.7</ele><time>2021-02-17T14:58:20Z</time><name>PT10375</name></trkpt>
<trkpt lat="53.452966" lon="05.688707"><ele>0.8</ele><time>2021-02-17T14:58:21Z</time><name>PT10376</name></trkpt>
<trkpt lat="53.452968" lon="05.688723"><ele>0.9</ele><time>2021-02-17T14:58:22Z</time><name>PT10377</name></trkpt>
<trkpt lat="53.452969" lon="05.688742"><ele>0.9</ele><time>2021-02-17T14:58:23Z</time><name>PT10378</name></trkpt>
<trkpt lat="53.452969" lon="05.688759"><ele>-1</ele><time>2021-02-17T14:58:24Z</time><name>PT10379</name></trkpt>
<trkpt lat="53.452969" lon="05.688778"><ele>-1.1</ele><time>2021-02-17T14:58:25Z</time><name>PT10380</name></trkpt>
<trkpt lat="53.452969" lon="05.688795"><ele>-1.3</ele><time>2021-02-17T14:58:26Z</time><name>PT10381</name></trkpt>
<trkpt lat="53.452968" lon="05.688813"><ele>-1.4</ele><time>2021-02-17T14:58:27Z</time><name>PT10382</name></trkpt>
<trkpt lat="53.452970" lon="05.688831"><ele>-1.2</ele><time>2021-02-17T14:58:28Z</time><name>PT10383</name></trkpt>
<trkpt lat="53.452973" lon="05.688851"><ele>-1</ele><time>2021-02-17T14:58:29Z</time><name>PT10384</name></trkpt>
<trkpt lat="53.452974" lon="05.688869"><ele>0.9</ele><time>2021-02-17T14:58:30Z</time><name>PT10385</name></trkpt>
<trkpt lat="53.452975" lon="05.688888"><ele>0.9</ele><time>2021-02-17T14:58:31Z</time><name>PT10386</name></trkpt>
<trkpt lat="53.452977" lon="05.688906"><ele>-1</ele><time>2021-02-17T14:58:32Z</time><name>PT10387</name></trkpt>
<trkpt lat="53.452979" lon="05.688923"><ele>-1</ele><time>2021-02-17T14:58:33Z</time><name>PT10388</name></trkpt>
<trkpt lat="53.452978" lon="05.688943"><ele>-1.2</ele><time>2021-02-17T14:58:34Z</time><name>PT10389</name></trkpt>
<trkpt lat="53.452976" lon="05.688963"><ele>-1.2</ele><time>2021-02-17T14:58:35Z</time><name>PT10390</name></trkpt>
<trkpt lat="53.452977" lon="05.688982"><ele>-1.1</ele><time>2021-02-17T14:58:36Z</time><name>PT10391</name></trkpt>
<trkpt lat="53.452976" lon="05.689002"><ele>-1</ele><time>2021-02-17T14:58:37Z</time><name>PT10392</name></trkpt>
<trkpt lat="53.452975" lon="05.689023"><ele>-1</ele><time>2021-02-17T14:58:38Z</time><name>PT10393</name></trkpt>
<trkpt lat="53.452975" lon="05.689042"><ele>-1</ele><time>2021-02-17T14:58:39Z</time><name>PT10394</name></trkpt>
<trkpt lat="53.452974" lon="05.689061"><ele>-1</ele><time>2021-02-17T14:58:40Z</time><name>PT10395</name></trkpt>
<trkpt lat="53.452975" lon="05.689080"><ele>-1.1</ele><time>2021-02-17T14:58:41Z</time><name>PT10396</name></trkpt>
<trkpt lat="53.452974" lon="05.689100"><ele>-1.3</ele><time>2021-02-17T14:58:42Z</time><name>PT10397</name></trkpt>
<trkpt lat="53.452975" lon="05.689121"><ele>-1.3</ele><time>2021-02-17T14:58:43Z</time><name>PT10398</name></trkpt>
<trkpt lat="53.452975" lon="05.689142"><ele>-1.4</ele><time>2021-02-17T14:58:44Z</time><name>PT10399</name></trkpt>
<trkpt lat="53.452975" lon="05.689162"><ele>-1.2</ele><time>2021-02-17T14:58:45Z</time><name>PT10400</name></trkpt>
<trkpt lat="53.452979" lon="05.689184"><ele>-1.1</ele><time>2021-02-17T14:58:46Z</time><name>PT10401</name></trkpt>
<trkpt lat="53.452981" lon="05.689204"><ele>0.9</ele><time>2021-02-17T14:58:47Z</time><name>PT10402</name></trkpt>
<trkpt lat="53.452982" lon="05.689224"><ele>0.8</ele><time>2021-02-17T14:58:48Z</time><name>PT10403</name></trkpt>
<trkpt lat="53.452983" lon="05.689244"><ele>0.9</ele><time>2021-02-17T14:58:49Z</time><name>PT10404</name></trkpt>
<trkpt lat="53.452983" lon="05.689262"><ele>0.9</ele><time>2021-02-17T14:58:50Z</time><name>PT10405</name></trkpt>
<trkpt lat="53.452984" lon="05.689279"><ele>-1.1</ele><time>2021-02-17T14:58:51Z</time><name>PT10406</name></trkpt>
<trkpt lat="53.452984" lon="05.689299"><ele>-1.2</ele><time>2021-02-17T14:58:52Z</time><name>PT10407</name></trkpt>
<trkpt lat="53.452985" lon="05.689319"><ele>-1.4</ele><time>2021-02-17T14:58:53Z</time><name>PT10408</name></trkpt>
<trkpt lat="53.452986" lon="05.689339"><ele>-1.4</ele><time>2021-02-17T14:58:54Z</time><name>PT10409</name></trkpt>
<trkpt lat="53.452986" lon="05.689359"><ele>-1.1</ele><time>2021-02-17T14:58:55Z</time><name>PT10410</name></trkpt>
<trkpt lat="53.452986" lon="05.689380"><ele>-1</ele><time>2021-02-17T14:58:56Z</time><name>PT10411</name></trkpt>
<trkpt lat="53.452985" lon="05.689399"><ele>0.9</ele><time>2021-02-17T14:58:57Z</time><name>PT10412</name></trkpt>
<trkpt lat="53.452986" lon="05.689417"><ele>0.7</ele><time>2021-02-17T14:58:58Z</time><name>PT10413</name></trkpt>
<trkpt lat="53.452986" lon="05.689434"><ele>0.8</ele><time>2021-02-17T14:58:59Z</time><name>PT10414</name></trkpt>
<trkpt lat="53.452986" lon="05.689452"><ele>0.8</ele><time>2021-02-17T14:59:00Z</time><name>PT10415</name></trkpt>
<trkpt lat="53.452986" lon="05.689471"><ele>0.7</ele><time>2021-02-17T14:59:01Z</time><name>PT10416</name></trkpt>
<trkpt lat="53.452988" lon="05.689492"><ele>0.8</ele><time>2021-02-17T14:59:02Z</time><name>PT10417</name></trkpt>
<trkpt lat="53.452989" lon="05.689510"><ele>0.7</ele><time>2021-02-17T14:59:03Z</time><name>PT10418</name></trkpt>
<trkpt lat="53.452989" lon="05.689527"><ele>0.6</ele><time>2021-02-17T14:59:04Z</time><name>PT10419</name></trkpt>
<trkpt lat="53.452989" lon="05.689545"><ele>0.6</ele><time>2021-02-17T14:59:05Z</time><name>PT10420</name></trkpt>
<trkpt lat="53.452991" lon="05.689563"><ele>0.7</ele><time>2021-02-17T14:59:06Z</time><name>PT10421</name></trkpt>
<trkpt lat="53.452992" lon="05.689583"><ele>0.5</ele><time>2021-02-17T14:59:07Z</time><name>PT10422</name></trkpt>
<trkpt lat="53.452993" lon="05.689602"><ele>0.4</ele><time>2021-02-17T14:59:08Z</time><name>PT10423</name></trkpt>
<trkpt lat="53.452993" lon="05.689623"><ele>0.6</ele><time>2021-02-17T14:59:09Z</time><name>PT10424</name></trkpt>
<trkpt lat="53.452992" lon="05.689645"><ele>0.4</ele><time>2021-02-17T14:59:10Z</time><name>PT10425</name></trkpt>
<trkpt lat="53.452991" lon="05.689665"><ele>0.6</ele><time>2021-02-17T14:59:11Z</time><name>PT10426</name></trkpt>
<trkpt lat="53.452991" lon="05.689684"><ele>0.4</ele><time>2021-02-17T14:59:12Z</time><name>PT10427</name></trkpt>
<trkpt lat="53.452992" lon="05.689704"><ele>0.5</ele><time>2021-02-17T14:59:13Z</time><name>PT10428</name></trkpt>
<trkpt lat="53.452993" lon="05.689723"><ele>0.8</ele><time>2021-02-17T14:59:14Z</time><name>PT10429</name></trkpt>
<trkpt lat="53.452994" lon="05.689746"><ele>0.9</ele><time>2021-02-17T14:59:15Z</time><name>PT10430</name></trkpt>
<trkpt lat="53.452995" lon="05.689765"><ele>0.9</ele><time>2021-02-17T14:59:16Z</time><name>PT10431</name></trkpt>
<trkpt lat="53.452996" lon="05.689784"><ele>0.9</ele><time>2021-02-17T14:59:17Z</time><name>PT10432</name></trkpt>
<trkpt lat="53.452997" lon="05.689802"><ele>0.7</ele><time>2021-02-17T14:59:18Z</time><name>PT10433</name></trkpt>
<trkpt lat="53.452997" lon="05.689819"><ele>0.8</ele><time>2021-02-17T14:59:19Z</time><name>PT10434</name></trkpt>
<trkpt lat="53.452996" lon="05.689836"><ele>0.7</ele><time>2021-02-17T14:59:20Z</time><name>PT10435</name></trkpt>
<trkpt lat="53.452995" lon="05.689854"><ele>0.9</ele><time>2021-02-17T14:59:21Z</time><name>PT10436</name></trkpt>
<trkpt lat="53.452995" lon="05.689874"><ele>0.8</ele><time>2021-02-17T14:59:22Z</time><name>PT10437</name></trkpt>
<trkpt lat="53.452997" lon="05.689894"><ele>0.9</ele><time>2021-02-17T14:59:23Z</time><name>PT10438</name></trkpt>
<trkpt lat="53.452998" lon="05.689916"><ele>0.9</ele><time>2021-02-17T14:59:24Z</time><name>PT10439</name></trkpt>
<trkpt lat="53.452997" lon="05.689938"><ele>0.9</ele><time>2021-02-17T14:59:25Z</time><name>PT10440</name></trkpt>
<trkpt lat="53.452996" lon="05.689958"><ele>-1</ele><time>2021-02-17T14:59:26Z</time><name>PT10441</name></trkpt>
<trkpt lat="53.452996" lon="05.689978"><ele>0.9</ele><time>2021-02-17T14:59:27Z</time><name>PT10442</name></trkpt>
<trkpt lat="53.452998" lon="05.689999"><ele>0.8</ele><time>2021-02-17T14:59:28Z</time><name>PT10443</name></trkpt>
<trkpt lat="53.452998" lon="05.690018"><ele>0.7</ele><time>2021-02-17T14:59:29Z</time><name>PT10444</name></trkpt>
<trkpt lat="53.453000" lon="05.690036"><ele>0.5</ele><time>2021-02-17T14:59:30Z</time><name>PT10445</name></trkpt>
<trkpt lat="53.453002" lon="05.690052"><ele>0.4</ele><time>2021-02-17T14:59:31Z</time><name>PT10446</name></trkpt>
<trkpt lat="53.453002" lon="05.690068"><ele>0.2</ele><time>2021-02-17T14:59:32Z</time><name>PT10447</name></trkpt>
<trkpt lat="53.453003" lon="05.690086"><ele>0.1</ele><time>2021-02-17T14:59:33Z</time><name>PT10448</name></trkpt>
<trkpt lat="53.453000" lon="05.690105"><ele>0.2</ele><time>2021-02-17T14:59:34Z</time><name>PT10449</name></trkpt>
<trkpt lat="53.453000" lon="05.690125"><ele>0.4</ele><time>2021-02-17T14:59:35Z</time><name>PT10450</name></trkpt>
<trkpt lat="53.453000" lon="05.690145"><ele>0.5</ele><time>2021-02-17T14:59:36Z</time><name>PT10451</name></trkpt>
<trkpt lat="53.453001" lon="05.690166"><ele>0.8</ele><time>2021-02-17T14:59:37Z</time><name>PT10452</name></trkpt>
<trkpt lat="53.453002" lon="05.690185"><ele>0.7</ele><time>2021-02-17T14:59:38Z</time><name>PT10453</name></trkpt>
<trkpt lat="53.453004" lon="05.690203"><ele>0.7</ele><time>2021-02-17T14:59:39Z</time><name>PT10454</name></trkpt>
<trkpt lat="53.453005" lon="05.690222"><ele>0.5</ele><time>2021-02-17T14:59:40Z</time><name>PT10455</name></trkpt>
<trkpt lat="53.453007" lon="05.690242"><ele>0.5</ele><time>2021-02-17T14:59:41Z</time><name>PT10456</name></trkpt>
<trkpt lat="53.453008" lon="05.690261"><ele>0.4</ele><time>2021-02-17T14:59:42Z</time><name>PT10457</name></trkpt>
<trkpt lat="53.453010" lon="05.690278"><ele>0.4</ele><time>2021-02-17T14:59:43Z</time><name>PT10458</name></trkpt>
<trkpt lat="53.453012" lon="05.690295"><ele>0.6</ele><time>2021-02-17T14:59:44Z</time><name>PT10459</name></trkpt>
<trkpt lat="53.453012" lon="05.690313"><ele>0.6</ele><time>2021-02-17T14:59:45Z</time><name>PT10460</name></trkpt>
<trkpt lat="53.453013" lon="05.690331"><ele>0.6</ele><time>2021-02-17T14:59:46Z</time><name>PT10461</name></trkpt>
<trkpt lat="53.453013" lon="05.690352"><ele>0.6</ele><time>2021-02-17T14:59:47Z</time><name>PT10462</name></trkpt>
<trkpt lat="53.453015" lon="05.690370"><ele>0.6</ele><time>2021-02-17T14:59:48Z</time><name>PT10463</name></trkpt>
<trkpt lat="53.453015" lon="05.690387"><ele>0.4</ele><time>2021-02-17T14:59:49Z</time><name>PT10464</name></trkpt>
<trkpt lat="53.453014" lon="05.690403"><ele>0.4</ele><time>2021-02-17T14:59:50Z</time><name>PT10465</name></trkpt>
<trkpt lat="53.453014" lon="05.690421"><ele>0.4</ele><time>2021-02-17T14:59:51Z</time><name>PT10466</name></trkpt>
<trkpt lat="53.453014" lon="05.690440"><ele>0.4</ele><time>2021-02-17T14:59:52Z</time><name>PT10467</name></trkpt>
<trkpt lat="53.453015" lon="05.690456"><ele>0.4</ele><time>2021-02-17T14:59:53Z</time><name>PT10468</name></trkpt>
<trkpt lat="53.453016" lon="05.690471"><ele>0.5</ele><time>2021-02-17T14:59:54Z</time><name>PT10469</name></trkpt>
<trkpt lat="53.453017" lon="05.690488"><ele>0.6</ele><time>2021-02-17T14:59:55Z</time><name>PT10470</name></trkpt>
<trkpt lat="53.453018" lon="05.690508"><ele>0.5</ele><time>2021-02-17T14:59:56Z</time><name>PT10471</name></trkpt>
<trkpt lat="53.453018" lon="05.690527"><ele>0.4</ele><time>2021-02-17T14:59:57Z</time><name>PT10472</name></trkpt>
<trkpt lat="53.453017" lon="05.690545"><ele>0.4</ele><time>2021-02-17T14:59:58Z</time><name>PT10473</name></trkpt>
<trkpt lat="53.453016" lon="05.690565"><ele>0.4</ele><time>2021-02-17T14:59:59Z</time><name>PT10474</name></trkpt>
<trkpt lat="53.453015" lon="05.690583"><ele>0.4</ele><time>2021-02-17T15:00:00Z</time><name>PT10475</name></trkpt>
<trkpt lat="53.453016" lon="05.690602"><ele>0.5</ele><time>2021-02-17T15:00:01Z</time><name>PT10476</name></trkpt>
<trkpt lat="53.453017" lon="05.690621"><ele>0.6</ele><time>2021-02-17T15:00:02Z</time><name>PT10477</name></trkpt>
<trkpt lat="53.453018" lon="05.690637"><ele>0.6</ele><time>2021-02-17T15:00:03Z</time><name>PT10478</name></trkpt>
<trkpt lat="53.453018" lon="05.690654"><ele>0.4</ele><time>2021-02-17T15:00:04Z</time><name>PT10479</name></trkpt>
<trkpt lat="53.453017" lon="05.690672"><ele>0.4</ele><time>2021-02-17T15:00:05Z</time><name>PT10480</name></trkpt>
<trkpt lat="53.453016" lon="05.690693"><ele>0.4</ele><time>2021-02-17T15:00:06Z</time><name>PT10481</name></trkpt>
<trkpt lat="53.453017" lon="05.690711"><ele>0.4</ele><time>2021-02-17T15:00:07Z</time><name>PT10482</name></trkpt>
<trkpt lat="53.453017" lon="05.690729"><ele>0.4</ele><time>2021-02-17T15:00:08Z</time><name>PT10483</name></trkpt>
<trkpt lat="53.453017" lon="05.690746"><ele>0.7</ele><time>2021-02-17T15:00:09Z</time><name>PT10484</name></trkpt>
<trkpt lat="53.453017" lon="05.690763"><ele>0.5</ele><time>2021-02-17T15:00:10Z</time><name>PT10485</name></trkpt>
<trkpt lat="53.453018" lon="05.690782"><ele>0.6</ele><time>2021-02-17T15:00:11Z</time><name>PT10486</name></trkpt>
<trkpt lat="53.453019" lon="05.690802"><ele>0.7</ele><time>2021-02-17T15:00:12Z</time><name>PT10487</name></trkpt>
<trkpt lat="53.453022" lon="05.690821"><ele>0.6</ele><time>2021-02-17T15:00:13Z</time><name>PT10488</name></trkpt>
<trkpt lat="53.453023" lon="05.690839"><ele>0.5</ele><time>2021-02-17T15:00:14Z</time><name>PT10489</name></trkpt>
<trkpt lat="53.453023" lon="05.690853"><ele>0.4</ele><time>2021-02-17T15:00:15Z</time><name>PT10490</name></trkpt>
<trkpt lat="53.453021" lon="05.690869"><ele>0.3</ele><time>2021-02-17T15:00:16Z</time><name>PT10491</name></trkpt>
<trkpt lat="53.453019" lon="05.690887"><ele>0.3</ele><time>2021-02-17T15:00:17Z</time><name>PT10492</name></trkpt>
<trkpt lat="53.453019" lon="05.690906"><ele>0.4</ele><time>2021-02-17T15:00:18Z</time><name>PT10493</name></trkpt>
<trkpt lat="53.453020" lon="05.690925"><ele>0.5</ele><time>2021-02-17T15:00:19Z</time><name>PT10494</name></trkpt>
<trkpt lat="53.453020" lon="05.690946"><ele>0.7</ele><time>2021-02-17T15:00:20Z</time><name>PT10495</name></trkpt>
<trkpt lat="53.453020" lon="05.690967"><ele>0.8</ele><time>2021-02-17T15:00:21Z</time><name>PT10496</name></trkpt>
<trkpt lat="53.453021" lon="05.690990"><ele>0.7</ele><time>2021-02-17T15:00:22Z</time><name>PT10497</name></trkpt>
<trkpt lat="53.453022" lon="05.691011"><ele>0.4</ele><time>2021-02-17T15:00:23Z</time><name>PT10498</name></trkpt>
<trkpt lat="53.453024" lon="05.691030"><ele>0.4</ele><time>2021-02-17T15:00:24Z</time><name>PT10499</name></trkpt>
<trkpt lat="53.453024" lon="05.691048"><ele>0.4</ele><time>2021-02-17T15:00:25Z</time><name>PT10500</name></trkpt>
<trkpt lat="53.453024" lon="05.691070"><ele>0.3</ele><time>2021-02-17T15:00:26Z</time><name>PT10501</name></trkpt>
<trkpt lat="53.453023" lon="05.691091"><ele>0.4</ele><time>2021-02-17T15:00:27Z</time><name>PT10502</name></trkpt>
<trkpt lat="53.453022" lon="05.691110"><ele>0.4</ele><time>2021-02-17T15:00:28Z</time><name>PT10503</name></trkpt>
<trkpt lat="53.453022" lon="05.691129"><ele>0.4</ele><time>2021-02-17T15:00:29Z</time><name>PT10504</name></trkpt>
<trkpt lat="53.453021" lon="05.691149"><ele>0.4</ele><time>2021-02-17T15:00:30Z</time><name>PT10505</name></trkpt>
<trkpt lat="53.453021" lon="05.691168"><ele>0.6</ele><time>2021-02-17T15:00:31Z</time><name>PT10506</name></trkpt>
<trkpt lat="53.453021" lon="05.691189"><ele>0.5</ele><time>2021-02-17T15:00:32Z</time><name>PT10507</name></trkpt>
<trkpt lat="53.453020" lon="05.691210"><ele>0.5</ele><time>2021-02-17T15:00:33Z</time><name>PT10508</name></trkpt>
<trkpt lat="53.453023" lon="05.691228"><ele>0.5</ele><time>2021-02-17T15:00:34Z</time><name>PT10509</name></trkpt>
<trkpt lat="53.453026" lon="05.691243"><ele>0.4</ele><time>2021-02-17T15:00:35Z</time><name>PT10510</name></trkpt>
<trkpt lat="53.453029" lon="05.691257"><ele>0.5</ele><time>2021-02-17T15:00:36Z</time><name>PT10511</name></trkpt>
<trkpt lat="53.453029" lon="05.691274"><ele>0.6</ele><time>2021-02-17T15:00:37Z</time><name>PT10512</name></trkpt>
<trkpt lat="53.453028" lon="05.691293"><ele>0.7</ele><time>2021-02-17T15:00:38Z</time><name>PT10513</name></trkpt>
<trkpt lat="53.453029" lon="05.691308"><ele>0.8</ele><time>2021-02-17T15:00:39Z</time><name>PT10514</name></trkpt>
<trkpt lat="53.453030" lon="05.691326"><ele>0.6</ele><time>2021-02-17T15:00:40Z</time><name>PT10515</name></trkpt>
<trkpt lat="53.453031" lon="05.691342"><ele>0.7</ele><time>2021-02-17T15:00:41Z</time><name>PT10516</name></trkpt>
<trkpt lat="53.453032" lon="05.691356"><ele>0.7</ele><time>2021-02-17T15:00:42Z</time><name>PT10517</name></trkpt>
<trkpt lat="53.453032" lon="05.691371"><ele>0.8</ele><time>2021-02-17T15:00:43Z</time><name>PT10518</name></trkpt>
<trkpt lat="53.453031" lon="05.691389"><ele>0.9</ele><time>2021-02-17T15:00:44Z</time><name>PT10519</name></trkpt>
<trkpt lat="53.453028" lon="05.691403"><ele>-1</ele><time>2021-02-17T15:00:45Z</time><name>PT10520</name></trkpt>
<trkpt lat="53.453026" lon="05.691415"><ele>0.9</ele><time>2021-02-17T15:00:46Z</time><name>PT10521</name></trkpt>
<trkpt lat="53.453024" lon="05.691431"><ele>0.7</ele><time>2021-02-17T15:00:47Z</time><name>PT10522</name></trkpt>
<trkpt lat="53.453024" lon="05.691450"><ele>0.5</ele><time>2021-02-17T15:00:48Z</time><name>PT10523</name></trkpt>
<trkpt lat="53.453023" lon="05.691469"><ele>0.5</ele><time>2021-02-17T15:00:49Z</time><name>PT10524</name></trkpt>
<trkpt lat="53.453022" lon="05.691487"><ele>0.5</ele><time>2021-02-17T15:00:50Z</time><name>PT10525</name></trkpt>
<trkpt lat="53.453021" lon="05.691506"><ele>0.4</ele><time>2021-02-17T15:00:51Z</time><name>PT10526</name></trkpt>
<trkpt lat="53.453022" lon="05.691525"><ele>0.3</ele><time>2021-02-17T15:00:52Z</time><name>PT10527</name></trkpt>
<trkpt lat="53.453024" lon="05.691542"><ele>0.4</ele><time>2021-02-17T15:00:53Z</time><name>PT10528</name></trkpt>
<trkpt lat="53.453029" lon="05.691559"><ele>0.4</ele><time>2021-02-17T15:00:54Z</time><name>PT10529</name></trkpt>
<trkpt lat="53.453031" lon="05.691577"><ele>0.4</ele><time>2021-02-17T15:00:55Z</time><name>PT10530</name></trkpt>
<trkpt lat="53.453033" lon="05.691592"><ele>0.7</ele><time>2021-02-17T15:00:56Z</time><name>PT10531</name></trkpt>
<trkpt lat="53.453034" lon="05.691609"><ele>0.7</ele><time>2021-02-17T15:00:57Z</time><name>PT10532</name></trkpt>
<trkpt lat="53.453035" lon="05.691619"><ele>0.6</ele><time>2021-02-17T15:00:58Z</time><name>PT10533</name></trkpt>
<trkpt lat="53.453031" lon="05.691632"><ele>0.7</ele><time>2021-02-17T15:00:59Z</time><name>PT10534</name></trkpt>
<trkpt lat="53.453027" lon="05.691650"><ele>0.6</ele><time>2021-02-17T15:01:00Z</time><name>PT10535</name></trkpt>
<trkpt lat="53.453022" lon="05.691665"><ele>0.9</ele><time>2021-02-17T15:01:01Z</time><name>PT10536</name></trkpt>
<trkpt lat="53.453018" lon="05.691681"><ele>0.9</ele><time>2021-02-17T15:01:02Z</time><name>PT10537</name></trkpt>
<trkpt lat="53.453018" lon="05.691698"><ele>0.8</ele><time>2021-02-17T15:01:03Z</time><name>PT10538</name></trkpt>
<trkpt lat="53.453020" lon="05.691718"><ele>0.6</ele><time>2021-02-17T15:01:04Z</time><name>PT10539</name></trkpt>
<trkpt lat="53.453024" lon="05.691739"><ele>0.4</ele><time>2021-02-17T15:01:05Z</time><name>PT10540</name></trkpt>
<trkpt lat="53.453023" lon="05.691756"><ele>0.4</ele><time>2021-02-17T15:01:06Z</time><name>PT10541</name></trkpt>
<trkpt lat="53.453024" lon="05.691774"><ele>0.5</ele><time>2021-02-17T15:01:07Z</time><name>PT10542</name></trkpt>
<trkpt lat="53.453023" lon="05.691792"><ele>0.7</ele><time>2021-02-17T15:01:08Z</time><name>PT10543</name></trkpt>
<trkpt lat="53.453023" lon="05.691812"><ele>0.9</ele><time>2021-02-17T15:01:09Z</time><name>PT10544</name></trkpt>
<trkpt lat="53.453023" lon="05.691830"><ele>0.9</ele><time>2021-02-17T15:01:10Z</time><name>PT10545</name></trkpt>
<trkpt lat="53.453021" lon="05.691848"><ele>0.8</ele><time>2021-02-17T15:01:11Z</time><name>PT10546</name></trkpt>
<trkpt lat="53.453021" lon="05.691866"><ele>0.7</ele><time>2021-02-17T15:01:12Z</time><name>PT10547</name></trkpt>
<trkpt lat="53.453019" lon="05.691882"><ele>0.3</ele><time>2021-02-17T15:01:13Z</time><name>PT10548</name></trkpt>
<trkpt lat="53.453020" lon="05.691896"><ele>0.3</ele><time>2021-02-17T15:01:14Z</time><name>PT10549</name></trkpt>
<trkpt lat="53.453020" lon="05.691915"><ele>0.2</ele><time>2021-02-17T15:01:15Z</time><name>PT10550</name></trkpt>
<trkpt lat="53.453022" lon="05.691935"><ele>0.3</ele><time>2021-02-17T15:01:16Z</time><name>PT10551</name></trkpt>
<trkpt lat="53.453023" lon="05.691952"><ele>0.4</ele><time>2021-02-17T15:01:17Z</time><name>PT10552</name></trkpt>
<trkpt lat="53.453023" lon="05.691969"><ele>0.4</ele><time>2021-02-17T15:01:18Z</time><name>PT10553</name></trkpt>
<trkpt lat="53.453022" lon="05.691988"><ele>0.5</ele><time>2021-02-17T15:01:19Z</time><name>PT10554</name></trkpt>
<trkpt lat="53.453021" lon="05.692009"><ele>0.7</ele><time>2021-02-17T15:01:20Z</time><name>PT10555</name></trkpt>
<trkpt lat="53.453019" lon="05.692029"><ele>0.7</ele><time>2021-02-17T15:01:21Z</time><name>PT10556</name></trkpt>
<trkpt lat="53.453019" lon="05.692048"><ele>0.8</ele><time>2021-02-17T15:01:22Z</time><name>PT10557</name></trkpt>
<trkpt lat="53.453019" lon="05.692065"><ele>0.6</ele><time>2021-02-17T15:01:23Z</time><name>PT10558</name></trkpt>
<trkpt lat="53.453019" lon="05.692082"><ele>0.7</ele><time>2021-02-17T15:01:24Z</time><name>PT10559</name></trkpt>
<trkpt lat="53.453019" lon="05.692100"><ele>0.6</ele><time>2021-02-17T15:01:25Z</time><name>PT10560</name></trkpt>
<trkpt lat="53.453021" lon="05.692119"><ele>0.6</ele><time>2021-02-17T15:01:26Z</time><name>PT10561</name></trkpt>
<trkpt lat="53.453022" lon="05.692134"><ele>0.7</ele><time>2021-02-17T15:01:27Z</time><name>PT10562</name></trkpt>
<trkpt lat="53.453021" lon="05.692151"><ele>0.6</ele><time>2021-02-17T15:01:28Z</time><name>PT10563</name></trkpt>
<trkpt lat="53.453019" lon="05.692167"><ele>0.5</ele><time>2021-02-17T15:01:29Z</time><name>PT10564</name></trkpt>
<trkpt lat="53.453018" lon="05.692185"><ele>0.5</ele><time>2021-02-17T15:01:30Z</time><name>PT10565</name></trkpt>
<trkpt lat="53.453018" lon="05.692200"><ele>0.4</ele><time>2021-02-17T15:01:31Z</time><name>PT10566</name></trkpt>
<trkpt lat="53.453018" lon="05.692217"><ele>0.7</ele><time>2021-02-17T15:01:32Z</time><name>PT10567</name></trkpt>
<trkpt lat="53.453017" lon="05.692234"><ele>0.8</ele><time>2021-02-17T15:01:33Z</time><name>PT10568</name></trkpt>
<trkpt lat="53.453017" lon="05.692253"><ele>0.9</ele><time>2021-02-17T15:01:34Z</time><name>PT10569</name></trkpt>
<trkpt lat="53.453018" lon="05.692272"><ele>-1.1</ele><time>2021-02-17T15:01:35Z</time><name>PT10570</name></trkpt>
<trkpt lat="53.453018" lon="05.692291"><ele>-1</ele><time>2021-02-17T15:01:36Z</time><name>PT10571</name></trkpt>
<trkpt lat="53.453017" lon="05.692311"><ele>-1</ele><time>2021-02-17T15:01:37Z</time><name>PT10572</name></trkpt>
<trkpt lat="53.453016" lon="05.692329"><ele>0.9</ele><time>2021-02-17T15:01:38Z</time><name>PT10573</name></trkpt>
<trkpt lat="53.453015" lon="05.692343"><ele>0.9</ele><time>2021-02-17T15:01:39Z</time><name>PT10574</name></trkpt>
<trkpt lat="53.453016" lon="05.692359"><ele>0.9</ele><time>2021-02-17T15:01:40Z</time><name>PT10575</name></trkpt>
<trkpt lat="53.453016" lon="05.692378"><ele>0.9</ele><time>2021-02-17T15:01:41Z</time><name>PT10576</name></trkpt>
<trkpt lat="53.453016" lon="05.692400"><ele>0.7</ele><time>2021-02-17T15:01:42Z</time><name>PT10577</name></trkpt>
<trkpt lat="53.453015" lon="05.692418"><ele>0.9</ele><time>2021-02-17T15:01:43Z</time><name>PT10578</name></trkpt>
<trkpt lat="53.453015" lon="05.692438"><ele>0.9</ele><time>2021-02-17T15:01:44Z</time><name>PT10579</name></trkpt>
<trkpt lat="53.453013" lon="05.692455"><ele>0.9</ele><time>2021-02-17T15:01:45Z</time><name>PT10580</name></trkpt>
<trkpt lat="53.453014" lon="05.692470"><ele>-1</ele><time>2021-02-17T15:01:46Z</time><name>PT10581</name></trkpt>
<trkpt lat="53.453014" lon="05.692491"><ele>-1.1</ele><time>2021-02-17T15:01:47Z</time><name>PT10582</name></trkpt>
<trkpt lat="53.453013" lon="05.692508"><ele>0.9</ele><time>2021-02-17T15:01:48Z</time><name>PT10583</name></trkpt>
<trkpt lat="53.453010" lon="05.692525"><ele>0.9</ele><time>2021-02-17T15:01:49Z</time><name>PT10584</name></trkpt>
<trkpt lat="53.453007" lon="05.692546"><ele>0.8</ele><time>2021-02-17T15:01:50Z</time><name>PT10585</name></trkpt>
<trkpt lat="53.453005" lon="05.692561"><ele>0.6</ele><time>2021-02-17T15:01:51Z</time><name>PT10586</name></trkpt>
<trkpt lat="53.452999" lon="05.692578"><ele>0.8</ele><time>2021-02-17T15:01:52Z</time><name>PT10587</name></trkpt>
<trkpt lat="53.452994" lon="05.692592"><ele>0.6</ele><time>2021-02-17T15:01:53Z</time><name>PT10588</name></trkpt>
<trkpt lat="53.452993" lon="05.692604"><ele>0.6</ele><time>2021-02-17T15:01:54Z</time><name>PT10589</name></trkpt>
<trkpt lat="53.452989" lon="05.692617"><ele>0.7</ele><time>2021-02-17T15:01:55Z</time><name>PT10590</name></trkpt>
<trkpt lat="53.452982" lon="05.692629"><ele>0.5</ele><time>2021-02-17T15:01:56Z</time><name>PT10591</name></trkpt>
<trkpt lat="53.452977" lon="05.692643"><ele>0.5</ele><time>2021-02-17T15:01:57Z</time><name>PT10592</name></trkpt>
<trkpt lat="53.452971" lon="05.692656"><ele>0.7</ele><time>2021-02-17T15:01:58Z</time><name>PT10593</name></trkpt>
<trkpt lat="53.452965" lon="05.692671"><ele>0.8</ele><time>2021-02-17T15:01:59Z</time><name>PT10594</name></trkpt>
<trkpt lat="53.452961" lon="05.692686"><ele>0.9</ele><time>2021-02-17T15:02:00Z</time><name>PT10595</name></trkpt>
<trkpt lat="53.452960" lon="05.692698"><ele>0.9</ele><time>2021-02-17T15:02:01Z</time><name>PT10596</name></trkpt>
<trkpt lat="53.452954" lon="05.692707"><ele>0.9</ele><time>2021-02-17T15:02:02Z</time><name>PT10597</name></trkpt>
<trkpt lat="53.452948" lon="05.692717"><ele>0.8</ele><time>2021-02-17T15:02:03Z</time><name>PT10598</name></trkpt>
<trkpt lat="53.452940" lon="05.692725"><ele>0.8</ele><time>2021-02-17T15:02:04Z</time><name>PT10599</name></trkpt>
<trkpt lat="53.452933" lon="05.692737"><ele>0.9</ele><time>2021-02-17T15:02:05Z</time><name>PT10600</name></trkpt>
<trkpt lat="53.452926" lon="05.692747"><ele>0.9</ele><time>2021-02-17T15:02:06Z</time><name>PT10601</name></trkpt>
<trkpt lat="53.452918" lon="05.692760"><ele>0.9</ele><time>2021-02-17T15:02:07Z</time><name>PT10602</name></trkpt>
<trkpt lat="53.452912" lon="05.692772"><ele>-1</ele><time>2021-02-17T15:02:08Z</time><name>PT10603</name></trkpt>
<trkpt lat="53.452904" lon="05.692783"><ele>0.9</ele><time>2021-02-17T15:02:09Z</time><name>PT10604</name></trkpt>
<trkpt lat="53.452895" lon="05.692796"><ele>-1.1</ele><time>2021-02-17T15:02:10Z</time><name>PT10605</name></trkpt>
<trkpt lat="53.452887" lon="05.692808"><ele>-1.2</ele><time>2021-02-17T15:02:11Z</time><name>PT10606</name></trkpt>
<trkpt lat="53.452879" lon="05.692820"><ele>-1.2</ele><time>2021-02-17T15:02:12Z</time><name>PT10607</name></trkpt>
<trkpt lat="53.452870" lon="05.692830"><ele>-1</ele><time>2021-02-17T15:02:13Z</time><name>PT10608</name></trkpt>
<trkpt lat="53.452860" lon="05.692843"><ele>0.8</ele><time>2021-02-17T15:02:14Z</time><name>PT10609</name></trkpt>
<trkpt lat="53.452851" lon="05.692857"><ele>0.8</ele><time>2021-02-17T15:02:15Z</time><name>PT10610</name></trkpt>
<trkpt lat="53.452844" lon="05.692869"><ele>0.8</ele><time>2021-02-17T15:02:16Z</time><name>PT10611</name></trkpt>
<trkpt lat="53.452835" lon="05.692881"><ele>0.8</ele><time>2021-02-17T15:02:17Z</time><name>PT10612</name></trkpt>
<trkpt lat="53.452826" lon="05.692894"><ele>0.7</ele><time>2021-02-17T15:02:18Z</time><name>PT10613</name></trkpt>
<trkpt lat="53.452820" lon="05.692905"><ele>0.9</ele><time>2021-02-17T15:02:19Z</time><name>PT10614</name></trkpt>
<trkpt lat="53.452813" lon="05.692917"><ele>0.7</ele><time>2021-02-17T15:02:20Z</time><name>PT10615</name></trkpt>
<trkpt lat="53.452807" lon="05.692928"><ele>0.7</ele><time>2021-02-17T15:02:21Z</time><name>PT10616</name></trkpt>
<trkpt lat="53.452802" lon="05.692940"><ele>0.6</ele><time>2021-02-17T15:02:22Z</time><name>PT10617</name></trkpt>
<trkpt lat="53.452796" lon="05.692951"><ele>0.6</ele><time>2021-02-17T15:02:23Z</time><name>PT10618</name></trkpt>
<trkpt lat="53.452789" lon="05.692965"><ele>0.6</ele><time>2021-02-17T15:02:24Z</time><name>PT10619</name></trkpt>
<trkpt lat="53.452784" lon="05.692981"><ele>0.8</ele><time>2021-02-17T15:02:25Z</time><name>PT10620</name></trkpt>
<trkpt lat="53.452779" lon="05.692996"><ele>0.9</ele><time>2021-02-17T15:02:26Z</time><name>PT10621</name></trkpt>
<trkpt lat="53.452774" lon="05.693016"><ele>-1</ele><time>2021-02-17T15:02:27Z</time><name>PT10622</name></trkpt>
<trkpt lat="53.452770" lon="05.693033"><ele>-1</ele><time>2021-02-17T15:02:28Z</time><name>PT10623</name></trkpt>
<trkpt lat="53.452766" lon="05.693049"><ele>0.9</ele><time>2021-02-17T15:02:29Z</time><name>PT10624</name></trkpt>
<trkpt lat="53.452763" lon="05.693063"><ele>0.7</ele><time>2021-02-17T15:02:30Z</time><name>PT10625</name></trkpt>
<trkpt lat="53.452759" lon="05.693079"><ele>0.5</ele><time>2021-02-17T15:02:31Z</time><name>PT10626</name></trkpt>
<trkpt lat="53.452755" lon="05.693092"><ele>0.6</ele><time>2021-02-17T15:02:32Z</time><name>PT10627</name></trkpt>
<trkpt lat="53.452749" lon="05.693105"><ele>0.6</ele><time>2021-02-17T15:02:33Z</time><name>PT10628</name></trkpt>
<trkpt lat="53.452741" lon="05.693119"><ele>0.8</ele><time>2021-02-17T15:02:34Z</time><name>PT10629</name></trkpt>
<trkpt lat="53.452736" lon="05.693137"><ele>0.6</ele><time>2021-02-17T15:02:35Z</time><name>PT10630</name></trkpt>
<trkpt lat="53.452731" lon="05.693153"><ele>0.6</ele><time>2021-02-17T15:02:36Z</time><name>PT10631</name></trkpt>
<trkpt lat="53.452728" lon="05.693172"><ele>0.5</ele><time>2021-02-17T15:02:37Z</time><name>PT10632</name></trkpt>
<trkpt lat="53.452722" lon="05.693190"><ele>0.5</ele><time>2021-02-17T15:02:38Z</time><name>PT10633</name></trkpt>
<trkpt lat="53.452718" lon="05.693211"><ele>0.5</ele><time>2021-02-17T15:02:39Z</time><name>PT10634</name></trkpt>
<trkpt lat="53.452714" lon="05.693230"><ele>0.7</ele><time>2021-02-17T15:02:40Z</time><name>PT10635</name></trkpt>
<trkpt lat="53.452711" lon="05.693248"><ele>0.8</ele><time>2021-02-17T15:02:41Z</time><name>PT10636</name></trkpt>
<trkpt lat="53.452706" lon="05.693265"><ele>0.8</ele><time>2021-02-17T15:02:42Z</time><name>PT10637</name></trkpt>
<trkpt lat="53.452703" lon="05.693280"><ele>0.9</ele><time>2021-02-17T15:02:43Z</time><name>PT10638</name></trkpt>
<trkpt lat="53.452700" lon="05.693293"><ele>-1</ele><time>2021-02-17T15:02:44Z</time><name>PT10639</name></trkpt>
<trkpt lat="53.452695" lon="05.693306"><ele>0.9</ele><time>2021-02-17T15:02:45Z</time><name>PT10640</name></trkpt>
<trkpt lat="53.452687" lon="05.693320"><ele>0.9</ele><time>2021-02-17T15:02:46Z</time><name>PT10641</name></trkpt>
<trkpt lat="53.452682" lon="05.693334"><ele>0.9</ele><time>2021-02-17T15:02:47Z</time><name>PT10642</name></trkpt>
<trkpt lat="53.452678" lon="05.693350"><ele>0.7</ele><time>2021-02-17T15:02:48Z</time><name>PT10643</name></trkpt>
<trkpt lat="53.452675" lon="05.693366"><ele>0.7</ele><time>2021-02-17T15:02:49Z</time><name>PT10644</name></trkpt>
<trkpt lat="53.452673" lon="05.693386"><ele>0.9</ele><time>2021-02-17T15:02:50Z</time><name>PT10645</name></trkpt>
<trkpt lat="53.452669" lon="05.693406"><ele>0.9</ele><time>2021-02-17T15:02:51Z</time><name>PT10646</name></trkpt>
<trkpt lat="53.452666" lon="05.693423"><ele>-1</ele><time>2021-02-17T15:02:52Z</time><name>PT10647</name></trkpt>
<trkpt lat="53.452664" lon="05.693435"><ele>0.9</ele><time>2021-02-17T15:02:53Z</time><name>PT10648</name></trkpt>
<trkpt lat="53.452661" lon="05.693448"><ele>0.9</ele><time>2021-02-17T15:02:54Z</time><name>PT10649</name></trkpt>
<trkpt lat="53.452658" lon="05.693462"><ele>0.8</ele><time>2021-02-17T15:02:55Z</time><name>PT10650</name></trkpt>
<trkpt lat="53.452655" lon="05.693480"><ele>0.5</ele><time>2021-02-17T15:02:56Z</time><name>PT10651</name></trkpt>
<trkpt lat="53.452651" lon="05.693498"><ele>0.5</ele><time>2021-02-17T15:02:57Z</time><name>PT10652</name></trkpt>
<trkpt lat="53.452648" lon="05.693520"><ele>0.4</ele><time>2021-02-17T15:02:58Z</time><name>PT10653</name></trkpt>
<trkpt lat="53.452645" lon="05.693540"><ele>0.3</ele><time>2021-02-17T15:02:59Z</time><name>PT10654</name></trkpt>
<trkpt lat="53.452642" lon="05.693561"><ele>0.3</ele><time>2021-02-17T15:03:00Z</time><name>PT10655</name></trkpt>
<trkpt lat="53.452639" lon="05.693575"><ele>0.3</ele><time>2021-02-17T15:03:01Z</time><name>PT10656</name></trkpt>
<trkpt lat="53.452635" lon="05.693594"><ele>0.4</ele><time>2021-02-17T15:03:02Z</time><name>PT10657</name></trkpt>
<trkpt lat="53.452634" lon="05.693615"><ele>0.4</ele><time>2021-02-17T15:03:03Z</time><name>PT10658</name></trkpt>
<trkpt lat="53.452632" lon="05.693632"><ele>0.4</ele><time>2021-02-17T15:03:04Z</time><name>PT10659</name></trkpt>
<trkpt lat="53.452630" lon="05.693649"><ele>0.6</ele><time>2021-02-17T15:03:05Z</time><name>PT10660</name></trkpt>
<trkpt lat="53.452628" lon="05.693663"><ele>0.7</ele><time>2021-02-17T15:03:06Z</time><name>PT10661</name></trkpt>
<trkpt lat="53.452626" lon="05.693674"><ele>0.5</ele><time>2021-02-17T15:03:07Z</time><name>PT10662</name></trkpt>
<trkpt lat="53.452623" lon="05.693690"><ele>0.5</ele><time>2021-02-17T15:03:08Z</time><name>PT10663</name></trkpt>
<trkpt lat="53.452617" lon="05.693707"><ele>0.6</ele><time>2021-02-17T15:03:09Z</time><name>PT10664</name></trkpt>
<trkpt lat="53.452611" lon="05.693726"><ele>0.5</ele><time>2021-02-17T15:03:10Z</time><name>PT10665</name></trkpt>
<trkpt lat="53.452606" lon="05.693742"><ele>0.8</ele><time>2021-02-17T15:03:11Z</time><name>PT10666</name></trkpt>
<trkpt lat="53.452603" lon="05.693759"><ele>0.9</ele><time>2021-02-17T15:03:12Z</time><name>PT10667</name></trkpt>
<trkpt lat="53.452600" lon="05.693775"><ele>0.9</ele><time>2021-02-17T15:03:13Z</time><name>PT10668</name></trkpt>
<trkpt lat="53.452597" lon="05.693789"><ele>0.7</ele><time>2021-02-17T15:03:14Z</time><name>PT10669</name></trkpt>
<trkpt lat="53.452595" lon="05.693805"><ele>0.6</ele><time>2021-02-17T15:03:15Z</time><name>PT10670</name></trkpt>
<trkpt lat="53.452592" lon="05.693821"><ele>0.5</ele><time>2021-02-17T15:03:16Z</time><name>PT10671</name></trkpt>
<trkpt lat="53.452591" lon="05.693839"><ele>0.4</ele><time>2021-02-17T15:03:17Z</time><name>PT10672</name></trkpt>
<trkpt lat="53.452587" lon="05.693851"><ele>0.4</ele><time>2021-02-17T15:03:18Z</time><name>PT10673</name></trkpt>
<trkpt lat="53.452582" lon="05.693862"><ele>0.6</ele><time>2021-02-17T15:03:19Z</time><name>PT10674</name></trkpt>
<trkpt lat="53.452578" lon="05.693882"><ele>0.8</ele><time>2021-02-17T15:03:20Z</time><name>PT10675</name></trkpt>
<trkpt lat="53.452576" lon="05.693902"><ele>0.9</ele><time>2021-02-17T15:03:21Z</time><name>PT10676</name></trkpt>
<trkpt lat="53.452575" lon="05.693922"><ele>-1.1</ele><time>2021-02-17T15:03:22Z</time><name>PT10677</name></trkpt>
<trkpt lat="53.452574" lon="05.693938"><ele>-1.1</ele><time>2021-02-17T15:03:23Z</time><name>PT10678</name></trkpt>
<trkpt lat="53.452570" lon="05.693950"><ele>-1.2</ele><time>2021-02-17T15:03:24Z</time><name>PT10679</name></trkpt>
<trkpt lat="53.452565" lon="05.693966"><ele>-1</ele><time>2021-02-17T15:03:25Z</time><name>PT10680</name></trkpt>
<trkpt lat="53.452565" lon="05.693984"><ele>0.9</ele><time>2021-02-17T15:03:26Z</time><name>PT10681</name></trkpt>
<trkpt lat="53.452566" lon="05.694000"><ele>0.9</ele><time>2021-02-17T15:03:27Z</time><name>PT10682</name></trkpt>
<trkpt lat="53.452562" lon="05.694016"><ele>0.9</ele><time>2021-02-17T15:03:28Z</time><name>PT10683</name></trkpt>
<trkpt lat="53.452557" lon="05.694032"><ele>0.9</ele><time>2021-02-17T15:03:29Z</time><name>PT10684</name></trkpt>
<trkpt lat="53.452554" lon="05.694047"><ele>0.8</ele><time>2021-02-17T15:03:30Z</time><name>PT10685</name></trkpt>
<trkpt lat="53.452550" lon="05.694063"><ele>0.9</ele><time>2021-02-17T15:03:31Z</time><name>PT10686</name></trkpt>
<trkpt lat="53.452547" lon="05.694081"><ele>0.7</ele><time>2021-02-17T15:03:32Z</time><name>PT10687</name></trkpt>
<trkpt lat="53.452545" lon="05.694096"><ele>0.7</ele><time>2021-02-17T15:03:33Z</time><name>PT10688</name></trkpt>
<trkpt lat="53.452542" lon="05.694110"><ele>0.6</ele><time>2021-02-17T15:03:34Z</time><name>PT10689</name></trkpt>
<trkpt lat="53.452538" lon="05.694128"><ele>0.7</ele><time>2021-02-17T15:03:35Z</time><name>PT10690</name></trkpt>
<trkpt lat="53.452535" lon="05.694145"><ele>0.8</ele><time>2021-02-17T15:03:36Z</time><name>PT10691</name></trkpt>
<trkpt lat="53.452531" lon="05.694163"><ele>0.9</ele><time>2021-02-17T15:03:37Z</time><name>PT10692</name></trkpt>
<trkpt lat="53.452528" lon="05.694178"><ele>-1</ele><time>2021-02-17T15:03:38Z</time><name>PT10693</name></trkpt>
<trkpt lat="53.452525" lon="05.694200"><ele>0.9</ele><time>2021-02-17T15:03:39Z</time><name>PT10694</name></trkpt>
<trkpt lat="53.452524" lon="05.694228"><ele>-1</ele><time>2021-02-17T15:03:40Z</time><name>PT10695</name></trkpt>
<trkpt lat="53.452530" lon="05.694275"><ele>0.9</ele><time>2021-02-17T15:03:41Z</time><name>PT10696</name></trkpt>
<trkpt lat="53.452526" lon="05.694294"><ele>0.9</ele><time>2021-02-17T15:03:42Z</time><name>PT10697</name></trkpt>
<trkpt lat="53.452521" lon="05.694308"><ele>0.9</ele><time>2021-02-17T15:03:43Z</time><name>PT10698</name></trkpt>
<trkpt lat="53.452518" lon="05.694324"><ele>0.9</ele><time>2021-02-17T15:03:44Z</time><name>PT10699</name></trkpt>
<trkpt lat="53.452514" lon="05.694339"><ele>0.8</ele><time>2021-02-17T15:03:45Z</time><name>PT10700</name></trkpt>
<trkpt lat="53.452510" lon="05.694355"><ele>0.8</ele><time>2021-02-17T15:03:46Z</time><name>PT10701</name></trkpt>
<trkpt lat="53.452506" lon="05.694372"><ele>0.6</ele><time>2021-02-17T15:03:47Z</time><name>PT10702</name></trkpt>
<trkpt lat="53.452504" lon="05.694388"><ele>0.5</ele><time>2021-02-17T15:03:48Z</time><name>PT10703</name></trkpt>
<trkpt lat="53.452502" lon="05.694404"><ele>0.5</ele><time>2021-02-17T15:03:49Z</time><name>PT10704</name></trkpt>
<trkpt lat="53.452500" lon="05.694424"><ele>0.4</ele><time>2021-02-17T15:03:50Z</time><name>PT10705</name></trkpt>
<trkpt lat="53.452496" lon="05.694438"><ele>0.3</ele><time>2021-02-17T15:03:51Z</time><name>PT10706</name></trkpt>
<trkpt lat="53.452492" lon="05.694454"><ele>0.1</ele><time>2021-02-17T15:03:52Z</time><name>PT10707</name></trkpt>
<trkpt lat="53.452485" lon="05.694473"><ele>0.3</ele><time>2021-02-17T15:03:53Z</time><name>PT10708</name></trkpt>
<trkpt lat="53.452481" lon="05.694499"><ele>0.4</ele><time>2021-02-17T15:03:54Z</time><name>PT10709</name></trkpt>
<trkpt lat="53.452478" lon="05.694525"><ele>0.5</ele><time>2021-02-17T15:03:55Z</time><name>PT10710</name></trkpt>
<trkpt lat="53.452477" lon="05.694548"><ele>0.7</ele><time>2021-02-17T15:03:56Z</time><name>PT10711</name></trkpt>
<trkpt lat="53.452473" lon="05.694572"><ele>0.8</ele><time>2021-02-17T15:03:57Z</time><name>PT10712</name></trkpt>
<trkpt lat="53.452471" lon="05.694587"><ele>0.7</ele><time>2021-02-17T15:03:58Z</time><name>PT10713</name></trkpt>
<trkpt lat="53.452471" lon="05.694597"><ele>0.6</ele><time>2021-02-17T15:03:59Z</time><name>PT10714</name></trkpt>
<trkpt lat="53.452466" lon="05.694612"><ele>0.4</ele><time>2021-02-17T15:04:00Z</time><name>PT10715</name></trkpt>
<trkpt lat="53.452465" lon="05.694629"><ele>0.4</ele><time>2021-02-17T15:04:01Z</time><name>PT10716</name></trkpt>
<trkpt lat="53.452461" lon="05.694649"><ele>0.4</ele><time>2021-02-17T15:04:02Z</time><name>PT10717</name></trkpt>
<trkpt lat="53.452458" lon="05.694665"><ele>0.5</ele><time>2021-02-17T15:04:03Z</time><name>PT10718</name></trkpt>
<trkpt lat="53.452456" lon="05.694679"><ele>0.6</ele><time>2021-02-17T15:04:04Z</time><name>PT10719</name></trkpt>
<trkpt lat="53.452451" lon="05.694692"><ele>0.5</ele><time>2021-02-17T15:04:05Z</time><name>PT10720</name></trkpt>
<trkpt lat="53.452445" lon="05.694702"><ele>0.4</ele><time>2021-02-17T15:04:06Z</time><name>PT10721</name></trkpt>
<trkpt lat="53.452440" lon="05.694714"><ele>0.4</ele><time>2021-02-17T15:04:07Z</time><name>PT10722</name></trkpt>
<trkpt lat="53.452436" lon="05.694726"><ele>0.4</ele><time>2021-02-17T15:04:08Z</time><name>PT10723</name></trkpt>
<trkpt lat="53.452433" lon="05.694738"><ele>0.3</ele><time>2021-02-17T15:04:09Z</time><name>PT10724</name></trkpt>
<trkpt lat="53.452431" lon="05.694753"><ele>0.3</ele><time>2021-02-17T15:04:10Z</time><name>PT10725</name></trkpt>
<trkpt lat="53.452429" lon="05.694767"><ele>0.4</ele><time>2021-02-17T15:04:11Z</time><name>PT10726</name></trkpt>
<trkpt lat="53.452426" lon="05.694780"><ele>0.3</ele><time>2021-02-17T15:04:12Z</time><name>PT10727</name></trkpt>
<trkpt lat="53.452421" lon="05.694797"><ele>0.2</ele><time>2021-02-17T15:04:13Z</time><name>PT10728</name></trkpt>
<trkpt lat="53.452418" lon="05.694803"><ele>0.1</ele><time>2021-02-17T15:04:14Z</time><name>PT10729</name></trkpt>
<trkpt lat="53.452415" lon="05.694815"><ele>0.1</ele><time>2021-02-17T15:04:15Z</time><name>PT10730</name></trkpt>
<trkpt lat="53.452411" lon="05.694829"><ele>0</ele><time>2021-02-17T15:04:16Z</time><name>PT10731</name></trkpt>
<trkpt lat="53.452407" lon="05.694847"><ele>0.2</ele><time>2021-02-17T15:04:17Z</time><name>PT10732</name></trkpt>
<trkpt lat="53.452406" lon="05.694873"><ele>0.4</ele><time>2021-02-17T15:04:18Z</time><name>PT10733</name></trkpt>
<trkpt lat="53.452403" lon="05.694887"><ele>0.3</ele><time>2021-02-17T15:04:19Z</time><name>PT10734</name></trkpt>
<trkpt lat="53.452400" lon="05.694905"><ele>0.4</ele><time>2021-02-17T15:04:20Z</time><name>PT10735</name></trkpt>
<trkpt lat="53.452398" lon="05.694921"><ele>0.3</ele><time>2021-02-17T15:04:21Z</time><name>PT10736</name></trkpt>
<trkpt lat="53.452396" lon="05.694939"><ele>0.3</ele><time>2021-02-17T15:04:22Z</time><name>PT10737</name></trkpt>
<trkpt lat="53.452391" lon="05.694951"><ele>0.4</ele><time>2021-02-17T15:04:23Z</time><name>PT10738</name></trkpt>
<trkpt lat="53.452387" lon="05.694966"><ele>0.4</ele><time>2021-02-17T15:04:24Z</time><name>PT10739</name></trkpt>
<trkpt lat="53.452383" lon="05.694984"><ele>0.5</ele><time>2021-02-17T15:04:25Z</time><name>PT10740</name></trkpt>
<trkpt lat="53.452381" lon="05.695005"><ele>0.4</ele><time>2021-02-17T15:04:26Z</time><name>PT10741</name></trkpt>
<trkpt lat="53.452376" lon="05.695024"><ele>0.4</ele><time>2021-02-17T15:04:27Z</time><name>PT10742</name></trkpt>
<trkpt lat="53.452372" lon="05.695043"><ele>0.4</ele><time>2021-02-17T15:04:28Z</time><name>PT10743</name></trkpt>
<trkpt lat="53.452370" lon="05.695057"><ele>0.4</ele><time>2021-02-17T15:04:29Z</time><name>PT10744</name></trkpt>
<trkpt lat="53.452368" lon="05.695068"><ele>0.4</ele><time>2021-02-17T15:04:30Z</time><name>PT10745</name></trkpt>
<trkpt lat="53.452365" lon="05.695077"><ele>0.4</ele><time>2021-02-17T15:04:31Z</time><name>PT10746</name></trkpt>
<trkpt lat="53.452364" lon="05.695085"><ele>0.5</ele><time>2021-02-17T15:04:32Z</time><name>PT10747</name></trkpt>
<trkpt lat="53.452363" lon="05.695101"><ele>0.5</ele><time>2021-02-17T15:04:33Z</time><name>PT10748</name></trkpt>
<trkpt lat="53.452362" lon="05.695118"><ele>0.5</ele><time>2021-02-17T15:04:34Z</time><name>PT10749</name></trkpt>
<trkpt lat="53.452359" lon="05.695133"><ele>0.5</ele><time>2021-02-17T15:04:35Z</time><name>PT10750</name></trkpt>
<trkpt lat="53.452355" lon="05.695151"><ele>0.6</ele><time>2021-02-17T15:04:36Z</time><name>PT10751</name></trkpt>
<trkpt lat="53.452353" lon="05.695177"><ele>0.7</ele><time>2021-02-17T15:04:37Z</time><name>PT10752</name></trkpt>
<trkpt lat="53.452360" lon="05.695185"><ele>0.9</ele><time>2021-02-17T15:04:38Z</time><name>PT10753</name></trkpt>
<trkpt lat="53.452358" lon="05.695206"><ele>0.9</ele><time>2021-02-17T15:04:39Z</time><name>PT10754</name></trkpt>
<trkpt lat="53.452355" lon="05.695220"><ele>0.8</ele><time>2021-02-17T15:04:40Z</time><name>PT10755</name></trkpt>
<trkpt lat="53.452349" lon="05.695237"><ele>0.8</ele><time>2021-02-17T15:04:41Z</time><name>PT10756</name></trkpt>
<trkpt lat="53.452344" lon="05.695252"><ele>0.7</ele><time>2021-02-17T15:04:42Z</time><name>PT10757</name></trkpt>
<trkpt lat="53.452336" lon="05.695265"><ele>0.8</ele><time>2021-02-17T15:04:43Z</time><name>PT10758</name></trkpt>
<trkpt lat="53.452332" lon="05.695282"><ele>0.8</ele><time>2021-02-17T15:04:44Z</time><name>PT10759</name></trkpt>
<trkpt lat="53.452327" lon="05.695297"><ele>0.9</ele><time>2021-02-17T15:04:45Z</time><name>PT10760</name></trkpt>
<trkpt lat="53.452323" lon="05.695323"><ele>0.6</ele><time>2021-02-17T15:04:46Z</time><name>PT10761</name></trkpt>
<trkpt lat="53.452319" lon="05.695342"><ele>0.6</ele><time>2021-02-17T15:04:47Z</time><name>PT10762</name></trkpt>
<trkpt lat="53.452315" lon="05.695356"><ele>0.6</ele><time>2021-02-17T15:04:48Z</time><name>PT10763</name></trkpt>
<trkpt lat="53.452312" lon="05.695375"><ele>0.7</ele><time>2021-02-17T15:04:49Z</time><name>PT10764</name></trkpt>
<trkpt lat="53.452314" lon="05.695390"><ele>0.8</ele><time>2021-02-17T15:04:50Z</time><name>PT10765</name></trkpt>
<trkpt lat="53.452308" lon="05.695410"><ele>0.9</ele><time>2021-02-17T15:04:51Z</time><name>PT10766</name></trkpt>
<trkpt lat="53.452306" lon="05.695422"><ele>0.9</ele><time>2021-02-17T15:04:52Z</time><name>PT10767</name></trkpt>
<trkpt lat="53.452304" lon="05.695430"><ele>0.8</ele><time>2021-02-17T15:04:53Z</time><name>PT10768</name></trkpt>
<trkpt lat="53.452303" lon="05.695445"><ele>0.9</ele><time>2021-02-17T15:04:54Z</time><name>PT10769</name></trkpt>
<trkpt lat="53.452301" lon="05.695463"><ele>0.9</ele><time>2021-02-17T15:04:55Z</time><name>PT10770</name></trkpt>
<trkpt lat="53.452299" lon="05.695472"><ele>0.8</ele><time>2021-02-17T15:04:56Z</time><name>PT10771</name></trkpt>
<trkpt lat="53.452299" lon="05.695484"><ele>0.9</ele><time>2021-02-17T15:04:57Z</time><name>PT10772</name></trkpt>
<trkpt lat="53.452298" lon="05.695497"><ele>-1.1</ele><time>2021-02-17T15:04:58Z</time><name>PT10773</name></trkpt>
<trkpt lat="53.452295" lon="05.695520"><ele>-1.2</ele><time>2021-02-17T15:04:59Z</time><name>PT10774</name></trkpt>
<trkpt lat="53.452298" lon="05.695531"><ele>-1.2</ele><time>2021-02-17T15:05:00Z</time><name>PT10775</name></trkpt>
<trkpt lat="53.452294" lon="05.695544"><ele>-1.3</ele><time>2021-02-17T15:05:01Z</time><name>PT10776</name></trkpt>
<trkpt lat="53.452290" lon="05.695557"><ele>-1</ele><time>2021-02-17T15:05:02Z</time><name>PT10777</name></trkpt>
<trkpt lat="53.452288" lon="05.695573"><ele>-1.2</ele><time>2021-02-17T15:05:03Z</time><name>PT10778</name></trkpt>
<trkpt lat="53.452286" lon="05.695588"><ele>-1.1</ele><time>2021-02-17T15:05:04Z</time><name>PT10779</name></trkpt>
<trkpt lat="53.452285" lon="05.695603"><ele>-1.3</ele><time>2021-02-17T15:05:05Z</time><name>PT10780</name></trkpt>
<trkpt lat="53.452285" lon="05.695619"><ele>-1.2</ele><time>2021-02-17T15:05:06Z</time><name>PT10781</name></trkpt>
<trkpt lat="53.452283" lon="05.695638"><ele>-1.3</ele><time>2021-02-17T15:05:07Z</time><name>PT10782</name></trkpt>
<trkpt lat="53.452281" lon="05.695654"><ele>-1.1</ele><time>2021-02-17T15:05:08Z</time><name>PT10783</name></trkpt>
<trkpt lat="53.452278" lon="05.695669"><ele>-1.2</ele><time>2021-02-17T15:05:09Z</time><name>PT10784</name></trkpt>
<trkpt lat="53.452276" lon="05.695683"><ele>0.9</ele><time>2021-02-17T15:05:10Z</time><name>PT10785</name></trkpt>
<trkpt lat="53.452271" lon="05.695698"><ele>0.9</ele><time>2021-02-17T15:05:11Z</time><name>PT10786</name></trkpt>
<trkpt lat="53.452267" lon="05.695710"><ele>0.8</ele><time>2021-02-17T15:05:12Z</time><name>PT10787</name></trkpt>
<trkpt lat="53.452265" lon="05.695720"><ele>0.9</ele><time>2021-02-17T15:05:13Z</time><name>PT10788</name></trkpt>
<trkpt lat="53.452262" lon="05.695725"><ele>0.9</ele><time>2021-02-17T15:05:14Z</time><name>PT10789</name></trkpt>
<trkpt lat="53.452259" lon="05.695729"><ele>0.9</ele><time>2021-02-17T15:05:15Z</time><name>PT10790</name></trkpt>
<trkpt lat="53.452258" lon="05.695731"><ele>-1.1</ele><time>2021-02-17T15:05:16Z</time><name>PT10791</name></trkpt>
<trkpt lat="53.452255" lon="05.695736"><ele>-1.2</ele><time>2021-02-17T15:05:17Z</time><name>PT10792</name></trkpt>
<trkpt lat="53.452243" lon="05.695758"><ele>0.1</ele><time>2021-02-17T15:05:24Z</time><name>PT10793</name></trkpt>
<trkpt lat="53.452242" lon="05.695779"><ele>0</ele><time>2021-02-17T15:05:25Z</time><name>PT10794</name></trkpt>
<trkpt lat="53.452238" lon="05.695798"><ele>0</ele><time>2021-02-17T15:05:26Z</time><name>PT10795</name></trkpt>
<trkpt lat="53.452235" lon="05.695813"><ele>0.1</ele><time>2021-02-17T15:05:27Z</time><name>PT10796</name></trkpt>
<trkpt lat="53.452234" lon="05.695824"><ele>0.2</ele><time>2021-02-17T15:05:28Z</time><name>PT10797</name></trkpt>
<trkpt lat="53.452229" lon="05.695837"><ele>0.3</ele><time>2021-02-17T15:05:29Z</time><name>PT10798</name></trkpt>
<trkpt lat="53.452227" lon="05.695837"><ele>0.4</ele><time>2021-02-17T15:05:30Z</time><name>PT10799</name></trkpt>
<trkpt lat="53.452225" lon="05.695842"><ele>0.4</ele><time>2021-02-17T15:05:31Z</time><name>PT10800</name></trkpt>
<trkpt lat="53.452225" lon="05.695845"><ele>0.5</ele><time>2021-02-17T15:05:32Z</time><name>PT10801</name></trkpt>
<trkpt lat="53.452224" lon="05.695847"><ele>0.7</ele><time>2021-02-17T15:05:33Z</time><name>PT10802</name></trkpt>
<trkpt lat="53.452228" lon="05.695863"><ele>-1</ele><time>2021-02-17T15:05:42Z</time><name>PT10803</name></trkpt>
<trkpt lat="53.452228" lon="05.695876"><ele>-1.9</ele><time>2021-02-17T15:05:43Z</time><name>PT10804</name></trkpt>
<trkpt lat="53.452203" lon="05.695895"><ele>-2.4</ele><time>2021-02-17T15:05:44Z</time><name>PT10805</name></trkpt>
<trkpt lat="53.452196" lon="05.695906"><ele>-2.5</ele><time>2021-02-17T15:05:45Z</time><name>PT10806</name></trkpt>
<trkpt lat="53.452190" lon="05.695913"><ele>-2.9</ele><time>2021-02-17T15:05:46Z</time><name>PT10807</name></trkpt>
<trkpt lat="53.452187" lon="05.695919"><ele>-2.1</ele><time>2021-02-17T15:05:47Z</time><name>PT10808</name></trkpt>
<trkpt lat="53.452196" lon="05.695945"><ele>0.2</ele><time>2021-02-17T15:05:53Z</time><name>PT10809</name></trkpt>
<trkpt lat="53.452191" lon="05.695968"><ele>0.4</ele><time>2021-02-17T15:05:54Z</time><name>PT10810</name></trkpt>
<trkpt lat="53.452188" lon="05.695989"><ele>0.4</ele><time>2021-02-17T15:05:55Z</time><name>PT10811</name></trkpt>
<trkpt lat="53.452185" lon="05.696010"><ele>0.7</ele><time>2021-02-17T15:05:56Z</time><name>PT10812</name></trkpt>
<trkpt lat="53.452185" lon="05.696029"><ele>0.8</ele><time>2021-02-17T15:05:57Z</time><name>PT10813</name></trkpt>
<trkpt lat="53.452187" lon="05.696048"><ele>0.9</ele><time>2021-02-17T15:05:58Z</time><name>PT10814</name></trkpt>
<trkpt lat="53.452189" lon="05.696070"><ele>0.8</ele><time>2021-02-17T15:05:59Z</time><name>PT10815</name></trkpt>
<trkpt lat="53.452192" lon="05.696085"><ele>0.9</ele><time>2021-02-17T15:06:00Z</time><name>PT10816</name></trkpt>
<trkpt lat="53.452192" lon="05.696101"><ele>0.5</ele><time>2021-02-17T15:06:01Z</time><name>PT10817</name></trkpt>
<trkpt lat="53.452197" lon="05.696115"><ele>0.4</ele><time>2021-02-17T15:06:02Z</time><name>PT10818</name></trkpt>
<trkpt lat="53.452203" lon="05.696136"><ele>0.4</ele><time>2021-02-17T15:06:03Z</time><name>PT10819</name></trkpt>
<trkpt lat="53.452208" lon="05.696155"><ele>0.4</ele><time>2021-02-17T15:06:04Z</time><name>PT10820</name></trkpt>
<trkpt lat="53.452212" lon="05.696174"><ele>0.7</ele><time>2021-02-17T15:06:05Z</time><name>PT10821</name></trkpt>
<trkpt lat="53.452217" lon="05.696192"><ele>0.7</ele><time>2021-02-17T15:06:06Z</time><name>PT10822</name></trkpt>
<trkpt lat="53.452220" lon="05.696213"><ele>0.7</ele><time>2021-02-17T15:06:07Z</time><name>PT10823</name></trkpt>
<trkpt lat="53.452222" lon="05.696234"><ele>0.9</ele><time>2021-02-17T15:06:08Z</time><name>PT10824</name></trkpt>
<trkpt lat="53.452226" lon="05.696254"><ele>0.9</ele><time>2021-02-17T15:06:09Z</time><name>PT10825</name></trkpt>
<trkpt lat="53.452232" lon="05.696270"><ele>0.9</ele><time>2021-02-17T15:06:10Z</time><name>PT10826</name></trkpt>
<trkpt lat="53.452236" lon="05.696290"><ele>0.9</ele><time>2021-02-17T15:06:11Z</time><name>PT10827</name></trkpt>
<trkpt lat="53.452240" lon="05.696307"><ele>0.9</ele><time>2021-02-17T15:06:12Z</time><name>PT10828</name></trkpt>
<trkpt lat="53.452243" lon="05.696324"><ele>0.8</ele><time>2021-02-17T15:06:13Z</time><name>PT10829</name></trkpt>
<trkpt lat="53.452248" lon="05.696345"><ele>0.8</ele><time>2021-02-17T15:06:14Z</time><name>PT10830</name></trkpt>
<trkpt lat="53.452249" lon="05.696364"><ele>0.7</ele><time>2021-02-17T15:06:15Z</time><name>PT10831</name></trkpt>
<trkpt lat="53.452252" lon="05.696381"><ele>0.8</ele><time>2021-02-17T15:06:16Z</time><name>PT10832</name></trkpt>
<trkpt lat="53.452254" lon="05.696394"><ele>0.9</ele><time>2021-02-17T15:06:17Z</time><name>PT10833</name></trkpt>
<trkpt lat="53.452257" lon="05.696414"><ele>0.7</ele><time>2021-02-17T15:06:18Z</time><name>PT10834</name></trkpt>
<trkpt lat="53.452262" lon="05.696435"><ele>0.9</ele><time>2021-02-17T15:06:19Z</time><name>PT10835</name></trkpt>
<trkpt lat="53.452269" lon="05.696464"><ele>0.8</ele><time>2021-02-17T15:06:20Z</time><name>PT10836</name></trkpt>
<trkpt lat="53.452273" lon="05.696479"><ele>0.9</ele><time>2021-02-17T15:06:21Z</time><name>PT10837</name></trkpt>
<trkpt lat="53.452277" lon="05.696496"><ele>-1.1</ele><time>2021-02-17T15:06:22Z</time><name>PT10838</name></trkpt>
<trkpt lat="53.452283" lon="05.696511"><ele>-1.3</ele><time>2021-02-17T15:06:23Z</time><name>PT10839</name></trkpt>
<trkpt lat="53.452290" lon="05.696525"><ele>-1.2</ele><time>2021-02-17T15:06:24Z</time><name>PT10840</name></trkpt>
<trkpt lat="53.452298" lon="05.696538"><ele>-1.2</ele><time>2021-02-17T15:06:25Z</time><name>PT10841</name></trkpt>
<trkpt lat="53.452304" lon="05.696551"><ele>-1</ele><time>2021-02-17T15:06:26Z</time><name>PT10842</name></trkpt>
<trkpt lat="53.452310" lon="05.696566"><ele>-1</ele><time>2021-02-17T15:06:27Z</time><name>PT10843</name></trkpt>
<trkpt lat="53.452315" lon="05.696579"><ele>0.9</ele><time>2021-02-17T15:06:28Z</time><name>PT10844</name></trkpt>
<trkpt lat="53.452320" lon="05.696591"><ele>0.9</ele><time>2021-02-17T15:06:29Z</time><name>PT10845</name></trkpt>
<trkpt lat="53.452323" lon="05.696602"><ele>-1</ele><time>2021-02-17T15:06:30Z</time><name>PT10846</name></trkpt>
<trkpt lat="53.452324" lon="05.696617"><ele>0.9</ele><time>2021-02-17T15:06:31Z</time><name>PT10847</name></trkpt>
<trkpt lat="53.452325" lon="05.696630"><ele>-1.1</ele><time>2021-02-17T15:06:32Z</time><name>PT10848</name></trkpt>
<trkpt lat="53.452322" lon="05.696638"><ele>-1.1</ele><time>2021-02-17T15:06:33Z</time><name>PT10849</name></trkpt>
<trkpt lat="53.452322" lon="05.696645"><ele>-1</ele><time>2021-02-17T15:06:34Z</time><name>PT10850</name></trkpt>
<trkpt lat="53.452324" lon="05.696648"><ele>0.8</ele><time>2021-02-17T15:06:35Z</time><name>PT10851</name></trkpt>
<trkpt lat="53.452326" lon="05.696654"><ele>0.6</ele><time>2021-02-17T15:06:36Z</time><name>PT10852</name></trkpt>
<trkpt lat="53.452326" lon="05.696664"><ele>0.4</ele><time>2021-02-17T15:06:37Z</time><name>PT10853</name></trkpt>
<trkpt lat="53.452327" lon="05.696674"><ele>0.4</ele><time>2021-02-17T15:06:38Z</time><name>PT10854</name></trkpt>
<trkpt lat="53.452328" lon="05.696688"><ele>0.4</ele><time>2021-02-17T15:06:39Z</time><name>PT10855</name></trkpt>
<trkpt lat="53.452330" lon="05.696703"><ele>0.1</ele><time>2021-02-17T15:06:40Z</time><name>PT10856</name></trkpt>
<trkpt lat="53.452332" lon="05.696716"><ele>0</ele><time>2021-02-17T15:06:41Z</time><name>PT10857</name></trkpt>
<trkpt lat="53.452332" lon="05.696733"><ele>0</ele><time>2021-02-17T15:06:42Z</time><name>PT10858</name></trkpt>
<trkpt lat="53.452333" lon="05.696747"><ele>0.2</ele><time>2021-02-17T15:06:43Z</time><name>PT10859</name></trkpt>
<trkpt lat="53.452333" lon="05.696763"><ele>0.6</ele><time>2021-02-17T15:06:44Z</time><name>PT10860</name></trkpt>
<trkpt lat="53.452335" lon="05.696777"><ele>0.5</ele><time>2021-02-17T15:06:45Z</time><name>PT10861</name></trkpt>
<trkpt lat="53.452336" lon="05.696796"><ele>0.9</ele><time>2021-02-17T15:06:46Z</time><name>PT10862</name></trkpt>
<trkpt lat="53.452337" lon="05.696807"><ele>1</ele><time>2021-02-17T15:06:47Z</time><name>PT10863</name></trkpt>
<trkpt lat="53.452336" lon="05.696821"><ele>1.2</ele><time>2021-02-17T15:06:48Z</time><name>PT10864</name></trkpt>
<trkpt lat="53.452334" lon="05.696840"><ele>1.2</ele><time>2021-02-17T15:06:49Z</time><name>PT10865</name></trkpt>
<trkpt lat="53.452336" lon="05.696861"><ele>1.1</ele><time>2021-02-17T15:06:50Z</time><name>PT10866</name></trkpt>
<trkpt lat="53.452340" lon="05.696879"><ele>0.9</ele><time>2021-02-17T15:06:51Z</time><name>PT10867</name></trkpt>
<trkpt lat="53.452343" lon="05.696895"><ele>0.7</ele><time>2021-02-17T15:06:52Z</time><name>PT10868</name></trkpt>
<trkpt lat="53.452345" lon="05.696909"><ele>0.7</ele><time>2021-02-17T15:06:53Z</time><name>PT10869</name></trkpt>
<trkpt lat="53.452345" lon="05.696926"><ele>0.7</ele><time>2021-02-17T15:06:54Z</time><name>PT10870</name></trkpt>
<trkpt lat="53.452347" lon="05.696939"><ele>0.7</ele><time>2021-02-17T15:06:55Z</time><name>PT10871</name></trkpt>
<trkpt lat="53.452351" lon="05.696956"><ele>0.6</ele><time>2021-02-17T15:06:56Z</time><name>PT10872</name></trkpt>
<trkpt lat="53.452353" lon="05.696972"><ele>0.5</ele><time>2021-02-17T15:06:57Z</time><name>PT10873</name></trkpt>
<trkpt lat="53.452360" lon="05.696989"><ele>0.4</ele><time>2021-02-17T15:06:58Z</time><name>PT10874</name></trkpt>
<trkpt lat="53.452367" lon="05.697004"><ele>0.3</ele><time>2021-02-17T15:06:59Z</time><name>PT10875</name></trkpt>
<trkpt lat="53.452370" lon="05.697013"><ele>0.3</ele><time>2021-02-17T15:07:00Z</time><name>PT10876</name></trkpt>
<trkpt lat="53.452372" lon="05.697022"><ele>0.4</ele><time>2021-02-17T15:07:01Z</time><name>PT10877</name></trkpt>
<trkpt lat="53.452374" lon="05.697032"><ele>0.4</ele><time>2021-02-17T15:07:02Z</time><name>PT10878</name></trkpt>
<trkpt lat="53.452378" lon="05.697042"><ele>0.5</ele><time>2021-02-17T15:07:03Z</time><name>PT10879</name></trkpt>
<trkpt lat="53.452382" lon="05.697055"><ele>0.6</ele><time>2021-02-17T15:07:04Z</time><name>PT10880</name></trkpt>
<trkpt lat="53.452387" lon="05.697066"><ele>0.4</ele><time>2021-02-17T15:07:05Z</time><name>PT10881</name></trkpt>
<trkpt lat="53.452391" lon="05.697077"><ele>0.4</ele><time>2021-02-17T15:07:06Z</time><name>PT10882</name></trkpt>
<trkpt lat="53.452393" lon="05.697084"><ele>0.4</ele><time>2021-02-17T15:07:07Z</time><name>PT10883</name></trkpt>
<trkpt lat="53.452395" lon="05.697085"><ele>0.3</ele><time>2021-02-17T15:07:08Z</time><name>PT10884</name></trkpt>
<trkpt lat="53.452395" lon="05.697085"><ele>0.3</ele><time>2021-02-17T15:07:09Z</time><name>PT10885</name></trkpt>
<trkpt lat="53.452394" lon="05.697088"><ele>0.3</ele><time>2021-02-17T15:07:10Z</time><name>PT10886</name></trkpt>
<trkpt lat="53.452392" lon="05.697085"><ele>0</ele><time>2021-02-17T15:07:15Z</time><name>PT10887</name></trkpt>
<trkpt lat="53.452394" lon="05.697093"><ele>0</ele><time>2021-02-17T15:07:16Z</time><name>PT10888</name></trkpt>
<trkpt lat="53.452395" lon="05.697099"><ele>0.2</ele><time>2021-02-17T15:07:17Z</time><name>PT10889</name></trkpt>
<trkpt lat="53.452396" lon="05.697099"><ele>0.2</ele><time>2021-02-17T15:07:18Z</time><name>PT10890</name></trkpt>
<trkpt lat="53.452398" lon="05.697099"><ele>0.3</ele><time>2021-02-17T15:07:19Z</time><name>PT10891</name></trkpt>
<trkpt lat="53.452399" lon="05.697101"><ele>0</ele><time>2021-02-17T15:07:32Z</time><name>PT10892</name></trkpt>
<trkpt lat="53.452405" lon="05.697117"><ele>0</ele><time>2021-02-17T15:07:33Z</time><name>PT10893</name></trkpt>
<trkpt lat="53.452408" lon="05.697134"><ele>0</ele><time>2021-02-17T15:07:34Z</time><name>PT10894</name></trkpt>
<trkpt lat="53.452411" lon="05.697148"><ele>0</ele><time>2021-02-17T15:07:35Z</time><name>PT10895</name></trkpt>
<trkpt lat="53.452414" lon="05.697161"><ele>0</ele><time>2021-02-17T15:07:36Z</time><name>PT10896</name></trkpt>
<trkpt lat="53.452420" lon="05.697172"><ele>0.1</ele><time>2021-02-17T15:07:37Z</time><name>PT10897</name></trkpt>
<trkpt lat="53.452426" lon="05.697183"><ele>0.1</ele><time>2021-02-17T15:07:38Z</time><name>PT10898</name></trkpt>
<trkpt lat="53.452433" lon="05.697194"><ele>0.2</ele><time>2021-02-17T15:07:39Z</time><name>PT10899</name></trkpt>
<trkpt lat="53.452440" lon="05.697204"><ele>0.1</ele><time>2021-02-17T15:07:40Z</time><name>PT10900</name></trkpt>
<trkpt lat="53.452448" lon="05.697219"><ele>0.2</ele><time>2021-02-17T15:07:41Z</time><name>PT10901</name></trkpt>
<trkpt lat="53.452452" lon="05.697234"><ele>0.2</ele><time>2021-02-17T15:07:42Z</time><name>PT10902</name></trkpt>
<trkpt lat="53.452458" lon="05.697250"><ele>0.4</ele><time>2021-02-17T15:07:43Z</time><name>PT10903</name></trkpt>
<trkpt lat="53.452464" lon="05.697266"><ele>0.3</ele><time>2021-02-17T15:07:44Z</time><name>PT10904</name></trkpt>
<trkpt lat="53.452469" lon="05.697279"><ele>0.2</ele><time>2021-02-17T15:07:45Z</time><name>PT10905</name></trkpt>
<trkpt lat="53.452476" lon="05.697293"><ele>0.1</ele><time>2021-02-17T15:07:46Z</time><name>PT10906</name></trkpt>
<trkpt lat="53.452483" lon="05.697307"><ele>0</ele><time>2021-02-17T15:07:47Z</time><name>PT10907</name></trkpt>
<trkpt lat="53.452488" lon="05.697322"><ele>0</ele><time>2021-02-17T15:07:48Z</time><name>PT10908</name></trkpt>
<trkpt lat="53.452493" lon="05.697337"><ele>0</ele><time>2021-02-17T15:07:49Z</time><name>PT10909</name></trkpt>
<trkpt lat="53.452499" lon="05.697354"><ele>0.1</ele><time>2021-02-17T15:07:50Z</time><name>PT10910</name></trkpt>
<trkpt lat="53.452505" lon="05.697372"><ele>0</ele><time>2021-02-17T15:07:51Z</time><name>PT10911</name></trkpt>
<trkpt lat="53.452510" lon="05.697386"><ele>0.1</ele><time>2021-02-17T15:07:52Z</time><name>PT10912</name></trkpt>
<trkpt lat="53.452513" lon="05.697402"><ele>0.2</ele><time>2021-02-17T15:07:53Z</time><name>PT10913</name></trkpt>
<trkpt lat="53.452518" lon="05.697420"><ele>0.1</ele><time>2021-02-17T15:07:54Z</time><name>PT10914</name></trkpt>
<trkpt lat="53.452524" lon="05.697439"><ele>0.2</ele><time>2021-02-17T15:07:55Z</time><name>PT10915</name></trkpt>
<trkpt lat="53.452530" lon="05.697456"><ele>0.2</ele><time>2021-02-17T15:07:56Z</time><name>PT10916</name></trkpt>
<trkpt lat="53.452535" lon="05.697471"><ele>0.2</ele><time>2021-02-17T15:07:57Z</time><name>PT10917</name></trkpt>
<trkpt lat="53.452540" lon="05.697485"><ele>0.2</ele><time>2021-02-17T15:07:58Z</time><name>PT10918</name></trkpt>
<trkpt lat="53.452545" lon="05.697501"><ele>0.2</ele><time>2021-02-17T15:07:59Z</time><name>PT10919</name></trkpt>
<trkpt lat="53.452551" lon="05.697516"><ele>0.2</ele><time>2021-02-17T15:08:00Z</time><name>PT10920</name></trkpt>
<trkpt lat="53.452556" lon="05.697531"><ele>0.3</ele><time>2021-02-17T15:08:01Z</time><name>PT10921</name></trkpt>
<trkpt lat="53.452560" lon="05.697550"><ele>0.4</ele><time>2021-02-17T15:08:02Z</time><name>PT10922</name></trkpt>
<trkpt lat="53.452564" lon="05.697572"><ele>0.5</ele><time>2021-02-17T15:08:03Z</time><name>PT10923</name></trkpt>
<trkpt lat="53.452568" lon="05.697592"><ele>0.9</ele><time>2021-02-17T15:08:04Z</time><name>PT10924</name></trkpt>
<trkpt lat="53.452573" lon="05.697609"><ele>-1.1</ele><time>2021-02-17T15:08:05Z</time><name>PT10925</name></trkpt>
<trkpt lat="53.452576" lon="05.697626"><ele>-1.1</ele><time>2021-02-17T15:08:06Z</time><name>PT10926</name></trkpt>
<trkpt lat="53.452580" lon="05.697640"><ele>-1.4</ele><time>2021-02-17T15:08:07Z</time><name>PT10927</name></trkpt>
<trkpt lat="53.452586" lon="05.697656"><ele>0.9</ele><time>2021-02-17T15:08:08Z</time><name>PT10928</name></trkpt>
<trkpt lat="53.452586" lon="05.697674"><ele>0.9</ele><time>2021-02-17T15:08:09Z</time><name>PT10929</name></trkpt>
<trkpt lat="53.452588" lon="05.697692"><ele>0.2</ele><time>2021-02-17T15:08:10Z</time><name>PT10930</name></trkpt>
<trkpt lat="53.452588" lon="05.697708"><ele>0.3</ele><time>2021-02-17T15:08:11Z</time><name>PT10931</name></trkpt>
<trkpt lat="53.452591" lon="05.697724"><ele>0.4</ele><time>2021-02-17T15:08:12Z</time><name>PT10932</name></trkpt>
<trkpt lat="53.452592" lon="05.697739"><ele>0.4</ele><time>2021-02-17T15:08:13Z</time><name>PT10933</name></trkpt>
<trkpt lat="53.452593" lon="05.697755"><ele>0</ele><time>2021-02-17T15:08:14Z</time><name>PT10934</name></trkpt>
<trkpt lat="53.452597" lon="05.697769"><ele>0.2</ele><time>2021-02-17T15:08:15Z</time><name>PT10935</name></trkpt>
<trkpt lat="53.452598" lon="05.697788"><ele>0.5</ele><time>2021-02-17T15:08:16Z</time><name>PT10936</name></trkpt>
<trkpt lat="53.452602" lon="05.697804"><ele>0.5</ele><time>2021-02-17T15:08:17Z</time><name>PT10937</name></trkpt>
<trkpt lat="53.452605" lon="05.697818"><ele>0.6</ele><time>2021-02-17T15:08:18Z</time><name>PT10938</name></trkpt>
<trkpt lat="53.452606" lon="05.697832"><ele>0.3</ele><time>2021-02-17T15:08:19Z</time><name>PT10939</name></trkpt>
<trkpt lat="53.452606" lon="05.697848"><ele>0</ele><time>2021-02-17T15:08:20Z</time><name>PT10940</name></trkpt>
<trkpt lat="53.452605" lon="05.697861"><ele>0</ele><time>2021-02-17T15:08:21Z</time><name>PT10941</name></trkpt>
<trkpt lat="53.452604" lon="05.697877"><ele>0.2</ele><time>2021-02-17T15:08:22Z</time><name>PT10942</name></trkpt>
<trkpt lat="53.452603" lon="05.697892"><ele>0.3</ele><time>2021-02-17T15:08:23Z</time><name>PT10943</name></trkpt>
<trkpt lat="53.452602" lon="05.697905"><ele>0.4</ele><time>2021-02-17T15:08:24Z</time><name>PT10944</name></trkpt>
<trkpt lat="53.452603" lon="05.697919"><ele>0.7</ele><time>2021-02-17T15:08:25Z</time><name>PT10945</name></trkpt>
<trkpt lat="53.452606" lon="05.697929"><ele>0.9</ele><time>2021-02-17T15:08:26Z</time><name>PT10946</name></trkpt>
<trkpt lat="53.452607" lon="05.697942"><ele>0.8</ele><time>2021-02-17T15:08:27Z</time><name>PT10947</name></trkpt>
<trkpt lat="53.452612" lon="05.697952"><ele>0.9</ele><time>2021-02-17T15:08:28Z</time><name>PT10948</name></trkpt>
<trkpt lat="53.452615" lon="05.697966"><ele>0.8</ele><time>2021-02-17T15:08:29Z</time><name>PT10949</name></trkpt>
<trkpt lat="53.452617" lon="05.697980"><ele>0.8</ele><time>2021-02-17T15:08:30Z</time><name>PT10950</name></trkpt>
<trkpt lat="53.452617" lon="05.697996"><ele>0.8</ele><time>2021-02-17T15:08:31Z</time><name>PT10951</name></trkpt>
<trkpt lat="53.452619" lon="05.698014"><ele>0.7</ele><time>2021-02-17T15:08:32Z</time><name>PT10952</name></trkpt>
<trkpt lat="53.452619" lon="05.698032"><ele>0.6</ele><time>2021-02-17T15:08:33Z</time><name>PT10953</name></trkpt>
<trkpt lat="53.452619" lon="05.698048"><ele>0.6</ele><time>2021-02-17T15:08:34Z</time><name>PT10954</name></trkpt>
<trkpt lat="53.452623" lon="05.698062"><ele>0.6</ele><time>2021-02-17T15:08:35Z</time><name>PT10955</name></trkpt>
<trkpt lat="53.452625" lon="05.698077"><ele>0.6</ele><time>2021-02-17T15:08:36Z</time><name>PT10956</name></trkpt>
<trkpt lat="53.452628" lon="05.698092"><ele>0.6</ele><time>2021-02-17T15:08:37Z</time><name>PT10957</name></trkpt>
<trkpt lat="53.452631" lon="05.698110"><ele>0.6</ele><time>2021-02-17T15:08:38Z</time><name>PT10958</name></trkpt>
<trkpt lat="53.452633" lon="05.698126"><ele>0.5</ele><time>2021-02-17T15:08:39Z</time><name>PT10959</name></trkpt>
<trkpt lat="53.452635" lon="05.698141"><ele>0.7</ele><time>2021-02-17T15:08:40Z</time><name>PT10960</name></trkpt>
<trkpt lat="53.452636" lon="05.698157"><ele>0.8</ele><time>2021-02-17T15:08:41Z</time><name>PT10961</name></trkpt>
<trkpt lat="53.452639" lon="05.698173"><ele>0.8</ele><time>2021-02-17T15:08:42Z</time><name>PT10962</name></trkpt>
<trkpt lat="53.452644" lon="05.698189"><ele>0.9</ele><time>2021-02-17T15:08:43Z</time><name>PT10963</name></trkpt>
<trkpt lat="53.452649" lon="05.698205"><ele>0.9</ele><time>2021-02-17T15:08:44Z</time><name>PT10964</name></trkpt>
<trkpt lat="53.452652" lon="05.698221"><ele>0.8</ele><time>2021-02-17T15:08:45Z</time><name>PT10965</name></trkpt>
<trkpt lat="53.452657" lon="05.698239"><ele>0.8</ele><time>2021-02-17T15:08:46Z</time><name>PT10966</name></trkpt>
<trkpt lat="53.452661" lon="05.698256"><ele>0.6</ele><time>2021-02-17T15:08:47Z</time><name>PT10967</name></trkpt>
<trkpt lat="53.452666" lon="05.698272"><ele>0.5</ele><time>2021-02-17T15:08:48Z</time><name>PT10968</name></trkpt>
<trkpt lat="53.452671" lon="05.698288"><ele>0.4</ele><time>2021-02-17T15:08:49Z</time><name>PT10969</name></trkpt>
<trkpt lat="53.452673" lon="05.698305"><ele>0.3</ele><time>2021-02-17T15:08:50Z</time><name>PT10970</name></trkpt>
<trkpt lat="53.452679" lon="05.698323"><ele>0.3</ele><time>2021-02-17T15:08:51Z</time><name>PT10971</name></trkpt>
<trkpt lat="53.452685" lon="05.698337"><ele>0.4</ele><time>2021-02-17T15:08:52Z</time><name>PT10972</name></trkpt>
<trkpt lat="53.452688" lon="05.698351"><ele>0.7</ele><time>2021-02-17T15:08:53Z</time><name>PT10973</name></trkpt>
<trkpt lat="53.452691" lon="05.698367"><ele>0.8</ele><time>2021-02-17T15:08:54Z</time><name>PT10974</name></trkpt>
<trkpt lat="53.452695" lon="05.698381"><ele>1</ele><time>2021-02-17T15:08:55Z</time><name>PT10975</name></trkpt>
<trkpt lat="53.452702" lon="05.698393"><ele>1.1</ele><time>2021-02-17T15:08:56Z</time><name>PT10976</name></trkpt>
<trkpt lat="53.452710" lon="05.698408"><ele>1</ele><time>2021-02-17T15:08:57Z</time><name>PT10977</name></trkpt>
<trkpt lat="53.452719" lon="05.698424"><ele>1.2</ele><time>2021-02-17T15:08:58Z</time><name>PT10978</name></trkpt>
<trkpt lat="53.452723" lon="05.698440"><ele>1.1</ele><time>2021-02-17T15:08:59Z</time><name>PT10979</name></trkpt>
<trkpt lat="53.452726" lon="05.698456"><ele>1.3</ele><time>2021-02-17T15:09:00Z</time><name>PT10980</name></trkpt>
<trkpt lat="53.452726" lon="05.698471"><ele>1.2</ele><time>2021-02-17T15:09:01Z</time><name>PT10981</name></trkpt>
<trkpt lat="53.452729" lon="05.698486"><ele>1</ele><time>2021-02-17T15:09:02Z</time><name>PT10982</name></trkpt>
<trkpt lat="53.452734" lon="05.698502"><ele>1</ele><time>2021-02-17T15:09:03Z</time><name>PT10983</name></trkpt>
<trkpt lat="53.452739" lon="05.698518"><ele>0.9</ele><time>2021-02-17T15:09:04Z</time><name>PT10984</name></trkpt>
<trkpt lat="53.452743" lon="05.698536"><ele>0.9</ele><time>2021-02-17T15:09:05Z</time><name>PT10985</name></trkpt>
<trkpt lat="53.452747" lon="05.698551"><ele>0.9</ele><time>2021-02-17T15:09:06Z</time><name>PT10986</name></trkpt>
<trkpt lat="53.452753" lon="05.698564"><ele>0.9</ele><time>2021-02-17T15:09:07Z</time><name>PT10987</name></trkpt>
<trkpt lat="53.452760" lon="05.698579"><ele>1</ele><time>2021-02-17T15:09:08Z</time><name>PT10988</name></trkpt>
<trkpt lat="53.452767" lon="05.698595"><ele>0.9</ele><time>2021-02-17T15:09:09Z</time><name>PT10989</name></trkpt>
<trkpt lat="53.452775" lon="05.698612"><ele>0.5</ele><time>2021-02-17T15:09:10Z</time><name>PT10990</name></trkpt>
<trkpt lat="53.452782" lon="05.698627"><ele>0.5</ele><time>2021-02-17T15:09:11Z</time><name>PT10991</name></trkpt>
<trkpt lat="53.452789" lon="05.698639"><ele>0.4</ele><time>2021-02-17T15:09:12Z</time><name>PT10992</name></trkpt>
<trkpt lat="53.452796" lon="05.698651"><ele>0.4</ele><time>2021-02-17T15:09:13Z</time><name>PT10993</name></trkpt>
<trkpt lat="53.452802" lon="05.698664"><ele>0.4</ele><time>2021-02-17T15:09:14Z</time><name>PT10994</name></trkpt>
<trkpt lat="53.452808" lon="05.698680"><ele>0.4</ele><time>2021-02-17T15:09:15Z</time><name>PT10995</name></trkpt>
<trkpt lat="53.452814" lon="05.698695"><ele>0.3</ele><time>2021-02-17T15:09:16Z</time><name>PT10996</name></trkpt>
<trkpt lat="53.452822" lon="05.698710"><ele>0.1</ele><time>2021-02-17T15:09:17Z</time><name>PT10997</name></trkpt>
<trkpt lat="53.452827" lon="05.698723"><ele>0.2</ele><time>2021-02-17T15:09:18Z</time><name>PT10998</name></trkpt>
<trkpt lat="53.452833" lon="05.698737"><ele>0.1</ele><time>2021-02-17T15:09:19Z</time><name>PT10999</name></trkpt>
<trkpt lat="53.452837" lon="05.698753"><ele>0.1</ele><time>2021-02-17T15:09:20Z</time><name>PT11000</name></trkpt>
<trkpt lat="53.452842" lon="05.698770"><ele>0</ele><time>2021-02-17T15:09:21Z</time><name>PT11001</name></trkpt>
<trkpt lat="53.452847" lon="05.698789"><ele>0.2</ele><time>2021-02-17T15:09:22Z</time><name>PT11002</name></trkpt>
<trkpt lat="53.452854" lon="05.698806"><ele>0</ele><time>2021-02-17T15:09:23Z</time><name>PT11003</name></trkpt>
<trkpt lat="53.452859" lon="05.698821"><ele>0.1</ele><time>2021-02-17T15:09:24Z</time><name>PT11004</name></trkpt>
<trkpt lat="53.452861" lon="05.698837"><ele>0.1</ele><time>2021-02-17T15:09:25Z</time><name>PT11005</name></trkpt>
<trkpt lat="53.452866" lon="05.698855"><ele>0.2</ele><time>2021-02-17T15:09:26Z</time><name>PT11006</name></trkpt>
<trkpt lat="53.452870" lon="05.698873"><ele>0.4</ele><time>2021-02-17T15:09:27Z</time><name>PT11007</name></trkpt>
<trkpt lat="53.452874" lon="05.698892"><ele>0.2</ele><time>2021-02-17T15:09:28Z</time><name>PT11008</name></trkpt>
<trkpt lat="53.452877" lon="05.698910"><ele>0.3</ele><time>2021-02-17T15:09:29Z</time><name>PT11009</name></trkpt>
<trkpt lat="53.452876" lon="05.698927"><ele>0.4</ele><time>2021-02-17T15:09:30Z</time><name>PT11010</name></trkpt>
<trkpt lat="53.452881" lon="05.698939"><ele>0.5</ele><time>2021-02-17T15:09:31Z</time><name>PT11011</name></trkpt>
<trkpt lat="53.452884" lon="05.698957"><ele>0.7</ele><time>2021-02-17T15:09:32Z</time><name>PT11012</name></trkpt>
<trkpt lat="53.452885" lon="05.698975"><ele>0.8</ele><time>2021-02-17T15:09:33Z</time><name>PT11013</name></trkpt>
<trkpt lat="53.452883" lon="05.698992"><ele>0.8</ele><time>2021-02-17T15:09:34Z</time><name>PT11014</name></trkpt>
<trkpt lat="53.452882" lon="05.699009"><ele>0.8</ele><time>2021-02-17T15:09:35Z</time><name>PT11015</name></trkpt>
<trkpt lat="53.452883" lon="05.699027"><ele>0.8</ele><time>2021-02-17T15:09:36Z</time><name>PT11016</name></trkpt>
<trkpt lat="53.452887" lon="05.699044"><ele>0.8</ele><time>2021-02-17T15:09:37Z</time><name>PT11017</name></trkpt>
<trkpt lat="53.452892" lon="05.699058"><ele>0.8</ele><time>2021-02-17T15:09:38Z</time><name>PT11018</name></trkpt>
<trkpt lat="53.452896" lon="05.699071"><ele>0.9</ele><time>2021-02-17T15:09:39Z</time><name>PT11019</name></trkpt>
<trkpt lat="53.452901" lon="05.699086"><ele>0.9</ele><time>2021-02-17T15:09:40Z</time><name>PT11020</name></trkpt>
<trkpt lat="53.452907" lon="05.699099"><ele>0.8</ele><time>2021-02-17T15:09:41Z</time><name>PT11021</name></trkpt>
<trkpt lat="53.452911" lon="05.699113"><ele>0.9</ele><time>2021-02-17T15:09:42Z</time><name>PT11022</name></trkpt>
<trkpt lat="53.452912" lon="05.699128"><ele>0.9</ele><time>2021-02-17T15:09:43Z</time><name>PT11023</name></trkpt>
<trkpt lat="53.452916" lon="05.699146"><ele>0.6</ele><time>2021-02-17T15:09:44Z</time><name>PT11024</name></trkpt>
<trkpt lat="53.452919" lon="05.699165"><ele>0.8</ele><time>2021-02-17T15:09:45Z</time><name>PT11025</name></trkpt>
<trkpt lat="53.452924" lon="05.699183"><ele>-1</ele><time>2021-02-17T15:09:46Z</time><name>PT11026</name></trkpt>
<trkpt lat="53.452929" lon="05.699201"><ele>-1</ele><time>2021-02-17T15:09:47Z</time><name>PT11027</name></trkpt>
<trkpt lat="53.452935" lon="05.699214"><ele>-1</ele><time>2021-02-17T15:09:48Z</time><name>PT11028</name></trkpt>
<trkpt lat="53.452940" lon="05.699228"><ele>-1.2</ele><time>2021-02-17T15:09:49Z</time><name>PT11029</name></trkpt>
<trkpt lat="53.452947" lon="05.699244"><ele>-1.3</ele><time>2021-02-17T15:09:50Z</time><name>PT11030</name></trkpt>
<trkpt lat="53.452954" lon="05.699260"><ele>-1.2</ele><time>2021-02-17T15:09:51Z</time><name>PT11031</name></trkpt>
<trkpt lat="53.452959" lon="05.699275"><ele>-1.1</ele><time>2021-02-17T15:09:52Z</time><name>PT11032</name></trkpt>
<trkpt lat="53.452964" lon="05.699289"><ele>-1.2</ele><time>2021-02-17T15:09:53Z</time><name>PT11033</name></trkpt>
<trkpt lat="53.452971" lon="05.699302"><ele>-1.3</ele><time>2021-02-17T15:09:54Z</time><name>PT11034</name></trkpt>
<trkpt lat="53.452976" lon="05.699318"><ele>-1</ele><time>2021-02-17T15:09:55Z</time><name>PT11035</name></trkpt>
<trkpt lat="53.452983" lon="05.699336"><ele>-1.2</ele><time>2021-02-17T15:09:56Z</time><name>PT11036</name></trkpt>
<trkpt lat="53.452989" lon="05.699355"><ele>-1.2</ele><time>2021-02-17T15:09:57Z</time><name>PT11037</name></trkpt>
<trkpt lat="53.452995" lon="05.699372"><ele>-1.2</ele><time>2021-02-17T15:09:58Z</time><name>PT11038</name></trkpt>
<trkpt lat="53.453000" lon="05.699386"><ele>-1.3</ele><time>2021-02-17T15:09:59Z</time><name>PT11039</name></trkpt>
<trkpt lat="53.453006" lon="05.699399"><ele>-1.4</ele><time>2021-02-17T15:10:00Z</time><name>PT11040</name></trkpt>
<trkpt lat="53.453013" lon="05.699414"><ele>-1.4</ele><time>2021-02-17T15:10:01Z</time><name>PT11041</name></trkpt>
<trkpt lat="53.453017" lon="05.699430"><ele>-1.4</ele><time>2021-02-17T15:10:02Z</time><name>PT11042</name></trkpt>
<trkpt lat="53.453019" lon="05.699445"><ele>-1.4</ele><time>2021-02-17T15:10:03Z</time><name>PT11043</name></trkpt>
<trkpt lat="53.453026" lon="05.699457"><ele>-1.4</ele><time>2021-02-17T15:10:04Z</time><name>PT11044</name></trkpt>
<trkpt lat="53.453033" lon="05.699469"><ele>-1.4</ele><time>2021-02-17T15:10:05Z</time><name>PT11045</name></trkpt>
<trkpt lat="53.453039" lon="05.699483"><ele>-1.4</ele><time>2021-02-17T15:10:06Z</time><name>PT11046</name></trkpt>
<trkpt lat="53.453045" lon="05.699498"><ele>-1.4</ele><time>2021-02-17T15:10:07Z</time><name>PT11047</name></trkpt>
<trkpt lat="53.453048" lon="05.699511"><ele>-1.3</ele><time>2021-02-17T15:10:08Z</time><name>PT11048</name></trkpt>
<trkpt lat="53.453054" lon="05.699524"><ele>-1.4</ele><time>2021-02-17T15:10:09Z</time><name>PT11049</name></trkpt>
<trkpt lat="53.453061" lon="05.699540"><ele>-1.3</ele><time>2021-02-17T15:10:10Z</time><name>PT11050</name></trkpt>
<trkpt lat="53.453067" lon="05.699556"><ele>-1.2</ele><time>2021-02-17T15:10:11Z</time><name>PT11051</name></trkpt>
<trkpt lat="53.453073" lon="05.699568"><ele>-1</ele><time>2021-02-17T15:10:12Z</time><name>PT11052</name></trkpt>
<trkpt lat="53.453076" lon="05.699581"><ele>-1.2</ele><time>2021-02-17T15:10:13Z</time><name>PT11053</name></trkpt>
<trkpt lat="53.453079" lon="05.699596"><ele>-1.2</ele><time>2021-02-17T15:10:14Z</time><name>PT11054</name></trkpt>
<trkpt lat="53.453081" lon="05.699612"><ele>-1.2</ele><time>2021-02-17T15:10:15Z</time><name>PT11055</name></trkpt>
<trkpt lat="53.453084" lon="05.699625"><ele>-1.4</ele><time>2021-02-17T15:10:16Z</time><name>PT11056</name></trkpt>
<trkpt lat="53.453089" lon="05.699636"><ele>-1.4</ele><time>2021-02-17T15:10:17Z</time><name>PT11057</name></trkpt>
<trkpt lat="53.453095" lon="05.699649"><ele>-1.5</ele><time>2021-02-17T15:10:18Z</time><name>PT11058</name></trkpt>
<trkpt lat="53.453099" lon="05.699663"><ele>-1.4</ele><time>2021-02-17T15:10:19Z</time><name>PT11059</name></trkpt>
<trkpt lat="53.453103" lon="05.699677"><ele>-1.4</ele><time>2021-02-17T15:10:20Z</time><name>PT11060</name></trkpt>
<trkpt lat="53.453105" lon="05.699691"><ele>-1.4</ele><time>2021-02-17T15:10:21Z</time><name>PT11061</name></trkpt>
<trkpt lat="53.453111" lon="05.699704"><ele>-1</ele><time>2021-02-17T15:10:22Z</time><name>PT11062</name></trkpt>
<trkpt lat="53.453115" lon="05.699717"><ele>0.8</ele><time>2021-02-17T15:10:23Z</time><name>PT11063</name></trkpt>
<trkpt lat="53.453120" lon="05.699731"><ele>0.9</ele><time>2021-02-17T15:10:24Z</time><name>PT11064</name></trkpt>
<trkpt lat="53.453122" lon="05.699746"><ele>0.6</ele><time>2021-02-17T15:10:25Z</time><name>PT11065</name></trkpt>
<trkpt lat="53.453126" lon="05.699761"><ele>0.7</ele><time>2021-02-17T15:10:26Z</time><name>PT11066</name></trkpt>
<trkpt lat="53.453133" lon="05.699775"><ele>0.6</ele><time>2021-02-17T15:10:27Z</time><name>PT11067</name></trkpt>
<trkpt lat="53.453141" lon="05.699789"><ele>0.5</ele><time>2021-02-17T15:10:28Z</time><name>PT11068</name></trkpt>
<trkpt lat="53.453153" lon="05.699801"><ele>0.6</ele><time>2021-02-17T15:10:29Z</time><name>PT11069</name></trkpt>
<trkpt lat="53.453161" lon="05.699814"><ele>0.8</ele><time>2021-02-17T15:10:30Z</time><name>PT11070</name></trkpt>
<trkpt lat="53.453165" lon="05.699826"><ele>0.9</ele><time>2021-02-17T15:10:31Z</time><name>PT11071</name></trkpt>
<trkpt lat="53.453171" lon="05.699839"><ele>0.9</ele><time>2021-02-17T15:10:32Z</time><name>PT11072</name></trkpt>
<trkpt lat="53.453171" lon="05.699855"><ele>-1.1</ele><time>2021-02-17T15:10:33Z</time><name>PT11073</name></trkpt>
<trkpt lat="53.453168" lon="05.699871"><ele>-1.2</ele><time>2021-02-17T15:10:34Z</time><name>PT11074</name></trkpt>
<trkpt lat="53.453162" lon="05.699882"><ele>-1</ele><time>2021-02-17T15:10:35Z</time><name>PT11075</name></trkpt>
<trkpt lat="53.453158" lon="05.699896"><ele>-1</ele><time>2021-02-17T15:10:36Z</time><name>PT11076</name></trkpt>
<trkpt lat="53.453154" lon="05.699909"><ele>-1.1</ele><time>2021-02-17T15:10:37Z</time><name>PT11077</name></trkpt>
<trkpt lat="53.453152" lon="05.699917"><ele>-1.2</ele><time>2021-02-17T15:10:38Z</time><name>PT11078</name></trkpt>
<trkpt lat="53.453149" lon="05.699930"><ele>-1.2</ele><time>2021-02-17T15:10:39Z</time><name>PT11079</name></trkpt>
<trkpt lat="53.453144" lon="05.699942"><ele>-1.4</ele><time>2021-02-17T15:10:40Z</time><name>PT11080</name></trkpt>
<trkpt lat="53.453139" lon="05.699954"><ele>-1.5</ele><time>2021-02-17T15:10:41Z</time><name>PT11081</name></trkpt>
<trkpt lat="53.453136" lon="05.699968"><ele>-1.4</ele><time>2021-02-17T15:10:42Z</time><name>PT11082</name></trkpt>
<trkpt lat="53.453132" lon="05.699983"><ele>-1.6</ele><time>2021-02-17T15:10:43Z</time><name>PT11083</name></trkpt>
<trkpt lat="53.453131" lon="05.699995"><ele>-1.3</ele><time>2021-02-17T15:10:44Z</time><name>PT11084</name></trkpt>
<trkpt lat="53.453133" lon="05.700012"><ele>-1.1</ele><time>2021-02-17T15:10:45Z</time><name>PT11085</name></trkpt>
<trkpt lat="53.453137" lon="05.700033"><ele>0.7</ele><time>2021-02-17T15:10:46Z</time><name>PT11086</name></trkpt>
<trkpt lat="53.453139" lon="05.700048"><ele>0.4</ele><time>2021-02-17T15:10:47Z</time><name>PT11087</name></trkpt>
<trkpt lat="53.453139" lon="05.700063"><ele>0.4</ele><time>2021-02-17T15:10:48Z</time><name>PT11088</name></trkpt>
<trkpt lat="53.453142" lon="05.700076"><ele>0.6</ele><time>2021-02-17T15:10:49Z</time><name>PT11089</name></trkpt>
<trkpt lat="53.453146" lon="05.700089"><ele>0.9</ele><time>2021-02-17T15:10:50Z</time><name>PT11090</name></trkpt>
<trkpt lat="53.453149" lon="05.700101"><ele>-1</ele><time>2021-02-17T15:10:51Z</time><name>PT11091</name></trkpt>
<trkpt lat="53.453154" lon="05.700116"><ele>0.9</ele><time>2021-02-17T15:10:52Z</time><name>PT11092</name></trkpt>
<trkpt lat="53.453153" lon="05.700130"><ele>0.9</ele><time>2021-02-17T15:10:53Z</time><name>PT11093</name></trkpt>
<trkpt lat="53.453154" lon="05.700147"><ele>0.9</ele><time>2021-02-17T15:10:54Z</time><name>PT11094</name></trkpt>
<trkpt lat="53.453151" lon="05.700160"><ele>0.9</ele><time>2021-02-17T15:10:55Z</time><name>PT11095</name></trkpt>
<trkpt lat="53.453148" lon="05.700174"><ele>0.9</ele><time>2021-02-17T15:10:56Z</time><name>PT11096</name></trkpt>
<trkpt lat="53.453146" lon="05.700190"><ele>-1</ele><time>2021-02-17T15:10:57Z</time><name>PT11097</name></trkpt>
<trkpt lat="53.453145" lon="05.700204"><ele>0.9</ele><time>2021-02-17T15:10:58Z</time><name>PT11098</name></trkpt>
<trkpt lat="53.453143" lon="05.700217"><ele>-1</ele><time>2021-02-17T15:10:59Z</time><name>PT11099</name></trkpt>
<trkpt lat="53.453140" lon="05.700234"><ele>-1</ele><time>2021-02-17T15:11:00Z</time><name>PT11100</name></trkpt>
<trkpt lat="53.453137" lon="05.700251"><ele>0.9</ele><time>2021-02-17T15:11:01Z</time><name>PT11101</name></trkpt>
<trkpt lat="53.453136" lon="05.700266"><ele>-1</ele><time>2021-02-17T15:11:02Z</time><name>PT11102</name></trkpt>
<trkpt lat="53.453136" lon="05.700279"><ele>-1.2</ele><time>2021-02-17T15:11:03Z</time><name>PT11103</name></trkpt>
<trkpt lat="53.453135" lon="05.700294"><ele>0.9</ele><time>2021-02-17T15:11:04Z</time><name>PT11104</name></trkpt>
<trkpt lat="53.453135" lon="05.700309"><ele>-1</ele><time>2021-02-17T15:11:05Z</time><name>PT11105</name></trkpt>
<trkpt lat="53.453134" lon="05.700326"><ele>-1.2</ele><time>2021-02-17T15:11:06Z</time><name>PT11106</name></trkpt>
<trkpt lat="53.453134" lon="05.700341"><ele>-1.4</ele><time>2021-02-17T15:11:07Z</time><name>PT11107</name></trkpt>
<trkpt lat="53.453132" lon="05.700357"><ele>-1.7</ele><time>2021-02-17T15:11:08Z</time><name>PT11108</name></trkpt>
<trkpt lat="53.453130" lon="05.700373"><ele>-1.7</ele><time>2021-02-17T15:11:09Z</time><name>PT11109</name></trkpt>
<trkpt lat="53.453129" lon="05.700390"><ele>-1.6</ele><time>2021-02-17T15:11:10Z</time><name>PT11110</name></trkpt>
<trkpt lat="53.453128" lon="05.700407"><ele>-1.4</ele><time>2021-02-17T15:11:11Z</time><name>PT11111</name></trkpt>
<trkpt lat="53.453128" lon="05.700421"><ele>-1.1</ele><time>2021-02-17T15:11:12Z</time><name>PT11112</name></trkpt>
<trkpt lat="53.453126" lon="05.700436"><ele>-1</ele><time>2021-02-17T15:11:13Z</time><name>PT11113</name></trkpt>
<trkpt lat="53.453125" lon="05.700454"><ele>-1</ele><time>2021-02-17T15:11:14Z</time><name>PT11114</name></trkpt>
<trkpt lat="53.453123" lon="05.700466"><ele>0.9</ele><time>2021-02-17T15:11:15Z</time><name>PT11115</name></trkpt>
<trkpt lat="53.453119" lon="05.700479"><ele>0.9</ele><time>2021-02-17T15:11:16Z</time><name>PT11116</name></trkpt>
<trkpt lat="53.453113" lon="05.700492"><ele>0.8</ele><time>2021-02-17T15:11:17Z</time><name>PT11117</name></trkpt>
<trkpt lat="53.453108" lon="05.700505"><ele>0.8</ele><time>2021-02-17T15:11:18Z</time><name>PT11118</name></trkpt>
<trkpt lat="53.453104" lon="05.700516"><ele>0.7</ele><time>2021-02-17T15:11:19Z</time><name>PT11119</name></trkpt>
<trkpt lat="53.453101" lon="05.700531"><ele>0.8</ele><time>2021-02-17T15:11:20Z</time><name>PT11120</name></trkpt>
<trkpt lat="53.453099" lon="05.700547"><ele>0.8</ele><time>2021-02-17T15:11:21Z</time><name>PT11121</name></trkpt>
<trkpt lat="53.453099" lon="05.700558"><ele>-1</ele><time>2021-02-17T15:11:22Z</time><name>PT11122</name></trkpt>
<trkpt lat="53.453098" lon="05.700572"><ele>-1.1</ele><time>2021-02-17T15:11:23Z</time><name>PT11123</name></trkpt>
<trkpt lat="53.453095" lon="05.700588"><ele>-1.3</ele><time>2021-02-17T15:11:24Z</time><name>PT11124</name></trkpt>
<trkpt lat="53.453092" lon="05.700606"><ele>-1.2</ele><time>2021-02-17T15:11:25Z</time><name>PT11125</name></trkpt>
<trkpt lat="53.453090" lon="05.700621"><ele>-1.2</ele><time>2021-02-17T15:11:26Z</time><name>PT11126</name></trkpt>
<trkpt lat="53.453091" lon="05.700634"><ele>-1.1</ele><time>2021-02-17T15:11:27Z</time><name>PT11127</name></trkpt>
<trkpt lat="53.453092" lon="05.700650"><ele>0.9</ele><time>2021-02-17T15:11:28Z</time><name>PT11128</name></trkpt>
<trkpt lat="53.453092" lon="05.700665"><ele>0.8</ele><time>2021-02-17T15:11:29Z</time><name>PT11129</name></trkpt>
<trkpt lat="53.453092" lon="05.700679"><ele>0.7</ele><time>2021-02-17T15:11:30Z</time><name>PT11130</name></trkpt>
<trkpt lat="53.453090" lon="05.700695"><ele>0.8</ele><time>2021-02-17T15:11:31Z</time><name>PT11131</name></trkpt>
<trkpt lat="53.453087" lon="05.700710"><ele>0.9</ele><time>2021-02-17T15:11:32Z</time><name>PT11132</name></trkpt>
<trkpt lat="53.453083" lon="05.700724"><ele>0.9</ele><time>2021-02-17T15:11:33Z</time><name>PT11133</name></trkpt>
<trkpt lat="53.453082" lon="05.700739"><ele>-1</ele><time>2021-02-17T15:11:34Z</time><name>PT11134</name></trkpt>
<trkpt lat="53.453081" lon="05.700755"><ele>-1.1</ele><time>2021-02-17T15:11:35Z</time><name>PT11135</name></trkpt>
<trkpt lat="53.453082" lon="05.700774"><ele>-1.1</ele><time>2021-02-17T15:11:36Z</time><name>PT11136</name></trkpt>
<trkpt lat="53.453081" lon="05.700790"><ele>-1.3</ele><time>2021-02-17T15:11:37Z</time><name>PT11137</name></trkpt>
<trkpt lat="53.453079" lon="05.700803"><ele>-1.4</ele><time>2021-02-17T15:11:38Z</time><name>PT11138</name></trkpt>
<trkpt lat="53.453076" lon="05.700817"><ele>-1.5</ele><time>2021-02-17T15:11:39Z</time><name>PT11139</name></trkpt>
<trkpt lat="53.453074" lon="05.700830"><ele>-1.5</ele><time>2021-02-17T15:11:40Z</time><name>PT11140</name></trkpt>
<trkpt lat="53.453071" lon="05.700843"><ele>-1.5</ele><time>2021-02-17T15:11:41Z</time><name>PT11141</name></trkpt>
<trkpt lat="53.453075" lon="05.700859"><ele>-1.6</ele><time>2021-02-17T15:11:42Z</time><name>PT11142</name></trkpt>
<trkpt lat="53.453078" lon="05.700872"><ele>-1.6</ele><time>2021-02-17T15:11:43Z</time><name>PT11143</name></trkpt>
<trkpt lat="53.453076" lon="05.700883"><ele>-1.4</ele><time>2021-02-17T15:11:44Z</time><name>PT11144</name></trkpt>
<trkpt lat="53.453078" lon="05.700896"><ele>-1.6</ele><time>2021-02-17T15:11:45Z</time><name>PT11145</name></trkpt>
<trkpt lat="53.453079" lon="05.700912"><ele>-1.6</ele><time>2021-02-17T15:11:46Z</time><name>PT11146</name></trkpt>
<trkpt lat="53.453079" lon="05.700929"><ele>-1.4</ele><time>2021-02-17T15:11:47Z</time><name>PT11147</name></trkpt>
<trkpt lat="53.453081" lon="05.700948"><ele>-1.4</ele><time>2021-02-17T15:11:48Z</time><name>PT11148</name></trkpt>
<trkpt lat="53.453082" lon="05.700965"><ele>-1.3</ele><time>2021-02-17T15:11:49Z</time><name>PT11149</name></trkpt>
<trkpt lat="53.453085" lon="05.700982"><ele>-1.4</ele><time>2021-02-17T15:11:50Z</time><name>PT11150</name></trkpt>
<trkpt lat="53.453086" lon="05.701001"><ele>-1.3</ele><time>2021-02-17T15:11:51Z</time><name>PT11151</name></trkpt>
<trkpt lat="53.453087" lon="05.701019"><ele>-1.1</ele><time>2021-02-17T15:11:52Z</time><name>PT11152</name></trkpt>
<trkpt lat="53.453088" lon="05.701032"><ele>-1.3</ele><time>2021-02-17T15:11:53Z</time><name>PT11153</name></trkpt>
<trkpt lat="53.453090" lon="05.701046"><ele>-1.3</ele><time>2021-02-17T15:11:54Z</time><name>PT11154</name></trkpt>
<trkpt lat="53.453093" lon="05.701064"><ele>-1.4</ele><time>2021-02-17T15:11:55Z</time><name>PT11155</name></trkpt>
<trkpt lat="53.453097" lon="05.701083"><ele>-1.4</ele><time>2021-02-17T15:11:56Z</time><name>PT11156</name></trkpt>
<trkpt lat="53.453099" lon="05.701099"><ele>-1.4</ele><time>2021-02-17T15:11:57Z</time><name>PT11157</name></trkpt>
<trkpt lat="53.453102" lon="05.701112"><ele>-1.4</ele><time>2021-02-17T15:11:58Z</time><name>PT11158</name></trkpt>
<trkpt lat="53.453103" lon="05.701126"><ele>-1.1</ele><time>2021-02-17T15:11:59Z</time><name>PT11159</name></trkpt>
<trkpt lat="53.453106" lon="05.701144"><ele>-1.1</ele><time>2021-02-17T15:12:00Z</time><name>PT11160</name></trkpt>
<trkpt lat="53.453108" lon="05.701157"><ele>0.9</ele><time>2021-02-17T15:12:01Z</time><name>PT11161</name></trkpt>
<trkpt lat="53.453109" lon="05.701171"><ele>0.9</ele><time>2021-02-17T15:12:02Z</time><name>PT11162</name></trkpt>
<trkpt lat="53.453113" lon="05.701186"><ele>0.9</ele><time>2021-02-17T15:12:03Z</time><name>PT11163</name></trkpt>
<trkpt lat="53.453116" lon="05.701202"><ele>0.9</ele><time>2021-02-17T15:12:04Z</time><name>PT11164</name></trkpt>
<trkpt lat="53.453117" lon="05.701220"><ele>0.9</ele><time>2021-02-17T15:12:05Z</time><name>PT11165</name></trkpt>
<trkpt lat="53.453118" lon="05.701235"><ele>0.9</ele><time>2021-02-17T15:12:06Z</time><name>PT11166</name></trkpt>
<trkpt lat="53.453118" lon="05.701251"><ele>0.9</ele><time>2021-02-17T15:12:07Z</time><name>PT11167</name></trkpt>
<trkpt lat="53.453118" lon="05.701266"><ele>-1.1</ele><time>2021-02-17T15:12:08Z</time><name>PT11168</name></trkpt>
<trkpt lat="53.453119" lon="05.701280"><ele>-1.3</ele><time>2021-02-17T15:12:09Z</time><name>PT11169</name></trkpt>
<trkpt lat="53.453121" lon="05.701295"><ele>-1.2</ele><time>2021-02-17T15:12:10Z</time><name>PT11170</name></trkpt>
<trkpt lat="53.453120" lon="05.701311"><ele>-1.3</ele><time>2021-02-17T15:12:11Z</time><name>PT11171</name></trkpt>
<trkpt lat="53.453119" lon="05.701322"><ele>-1.2</ele><time>2021-02-17T15:12:12Z</time><name>PT11172</name></trkpt>
<trkpt lat="53.453117" lon="05.701334"><ele>0.9</ele><time>2021-02-17T15:12:13Z</time><name>PT11173</name></trkpt>
<trkpt lat="53.453114" lon="05.701353"><ele>0.9</ele><time>2021-02-17T15:12:14Z</time><name>PT11174</name></trkpt>
<trkpt lat="53.453111" lon="05.701372"><ele>0.9</ele><time>2021-02-17T15:12:15Z</time><name>PT11175</name></trkpt>
<trkpt lat="53.453110" lon="05.701388"><ele>0.9</ele><time>2021-02-17T15:12:16Z</time><name>PT11176</name></trkpt>
<trkpt lat="53.453108" lon="05.701406"><ele>0.9</ele><time>2021-02-17T15:12:17Z</time><name>PT11177</name></trkpt>
<trkpt lat="53.453106" lon="05.701423"><ele>-1</ele><time>2021-02-17T15:12:18Z</time><name>PT11178</name></trkpt>
<trkpt lat="53.453104" lon="05.701442"><ele>0.9</ele><time>2021-02-17T15:12:19Z</time><name>PT11179</name></trkpt>
<trkpt lat="53.453105" lon="05.701458"><ele>0.9</ele><time>2021-02-17T15:12:20Z</time><name>PT11180</name></trkpt>
<trkpt lat="53.453103" lon="05.701471"><ele>0.9</ele><time>2021-02-17T15:12:21Z</time><name>PT11181</name></trkpt>
<trkpt lat="53.453101" lon="05.701488"><ele>0.9</ele><time>2021-02-17T15:12:22Z</time><name>PT11182</name></trkpt>
<trkpt lat="53.453100" lon="05.701508"><ele>-1</ele><time>2021-02-17T15:12:23Z</time><name>PT11183</name></trkpt>
<trkpt lat="53.453100" lon="05.701524"><ele>-1.1</ele><time>2021-02-17T15:12:24Z</time><name>PT11184</name></trkpt>
<trkpt lat="53.453100" lon="05.701541"><ele>-1.1</ele><time>2021-02-17T15:12:25Z</time><name>PT11185</name></trkpt>
<trkpt lat="53.453099" lon="05.701560"><ele>-1.1</ele><time>2021-02-17T15:12:26Z</time><name>PT11186</name></trkpt>
<trkpt lat="53.453100" lon="05.701575"><ele>-1</ele><time>2021-02-17T15:12:27Z</time><name>PT11187</name></trkpt>
<trkpt lat="53.453101" lon="05.701589"><ele>0.9</ele><time>2021-02-17T15:12:28Z</time><name>PT11188</name></trkpt>
<trkpt lat="53.453102" lon="05.701603"><ele>-1.1</ele><time>2021-02-17T15:12:29Z</time><name>PT11189</name></trkpt>
<trkpt lat="53.453104" lon="05.701619"><ele>-1</ele><time>2021-02-17T15:12:30Z</time><name>PT11190</name></trkpt>
<trkpt lat="53.453107" lon="05.701637"><ele>0.9</ele><time>2021-02-17T15:12:31Z</time><name>PT11191</name></trkpt>
<trkpt lat="53.453108" lon="05.701656"><ele>0.9</ele><time>2021-02-17T15:12:32Z</time><name>PT11192</name></trkpt>
<trkpt lat="53.453108" lon="05.701674"><ele>0.8</ele><time>2021-02-17T15:12:33Z</time><name>PT11193</name></trkpt>
<trkpt lat="53.453109" lon="05.701691"><ele>0.7</ele><time>2021-02-17T15:12:34Z</time><name>PT11194</name></trkpt>
<trkpt lat="53.453110" lon="05.701707"><ele>0.8</ele><time>2021-02-17T15:12:35Z</time><name>PT11195</name></trkpt>
<trkpt lat="53.453111" lon="05.701724"><ele>0.9</ele><time>2021-02-17T15:12:36Z</time><name>PT11196</name></trkpt>
<trkpt lat="53.453112" lon="05.701740"><ele>0.9</ele><time>2021-02-17T15:12:37Z</time><name>PT11197</name></trkpt>
<trkpt lat="53.453110" lon="05.701757"><ele>-1</ele><time>2021-02-17T15:12:38Z</time><name>PT11198</name></trkpt>
<trkpt lat="53.453111" lon="05.701774"><ele>-1</ele><time>2021-02-17T15:12:39Z</time><name>PT11199</name></trkpt>
<trkpt lat="53.453114" lon="05.701788"><ele>-1.1</ele><time>2021-02-17T15:12:40Z</time><name>PT11200</name></trkpt>
<trkpt lat="53.453112" lon="05.701805"><ele>-1.1</ele><time>2021-02-17T15:12:41Z</time><name>PT11201</name></trkpt>
<trkpt lat="53.453110" lon="05.701820"><ele>-1.3</ele><time>2021-02-17T15:12:42Z</time><name>PT11202</name></trkpt>
<trkpt lat="53.453107" lon="05.701835"><ele>-1.1</ele><time>2021-02-17T15:12:43Z</time><name>PT11203</name></trkpt>
<trkpt lat="53.453104" lon="05.701850"><ele>-1</ele><time>2021-02-17T15:12:44Z</time><name>PT11204</name></trkpt>
<trkpt lat="53.453103" lon="05.701866"><ele>-1</ele><time>2021-02-17T15:12:45Z</time><name>PT11205</name></trkpt>
<trkpt lat="53.453102" lon="05.701888"><ele>-1</ele><time>2021-02-17T15:12:46Z</time><name>PT11206</name></trkpt>
<trkpt lat="53.453102" lon="05.701908"><ele>-1.2</ele><time>2021-02-17T15:12:47Z</time><name>PT11207</name></trkpt>
<trkpt lat="53.453101" lon="05.701925"><ele>-1.3</ele><time>2021-02-17T15:12:48Z</time><name>PT11208</name></trkpt>
<trkpt lat="53.453100" lon="05.701941"><ele>-1.4</ele><time>2021-02-17T15:12:49Z</time><name>PT11209</name></trkpt>
<trkpt lat="53.453098" lon="05.701958"><ele>-1.3</ele><time>2021-02-17T15:12:50Z</time><name>PT11210</name></trkpt>
<trkpt lat="53.453095" lon="05.701975"><ele>-1.3</ele><time>2021-02-17T15:12:51Z</time><name>PT11211</name></trkpt>
<trkpt lat="53.453094" lon="05.701992"><ele>-1.2</ele><time>2021-02-17T15:12:52Z</time><name>PT11212</name></trkpt>
<trkpt lat="53.453095" lon="05.702008"><ele>0.9</ele><time>2021-02-17T15:12:53Z</time><name>PT11213</name></trkpt>
<trkpt lat="53.453095" lon="05.702024"><ele>0.9</ele><time>2021-02-17T15:12:54Z</time><name>PT11214</name></trkpt>
<trkpt lat="53.453096" lon="05.702044"><ele>0.9</ele><time>2021-02-17T15:12:55Z</time><name>PT11215</name></trkpt>
<trkpt lat="53.453096" lon="05.702060"><ele>-1</ele><time>2021-02-17T15:12:56Z</time><name>PT11216</name></trkpt>
<trkpt lat="53.453098" lon="05.702075"><ele>-1.2</ele><time>2021-02-17T15:12:57Z</time><name>PT11217</name></trkpt>
<trkpt lat="53.453098" lon="05.702095"><ele>-1.5</ele><time>2021-02-17T15:12:58Z</time><name>PT11218</name></trkpt>
<trkpt lat="53.453093" lon="05.702111"><ele>-1.9</ele><time>2021-02-17T15:12:59Z</time><name>PT11219</name></trkpt>
<trkpt lat="53.453089" lon="05.702127"><ele>-1.9</ele><time>2021-02-17T15:13:00Z</time><name>PT11220</name></trkpt>
<trkpt lat="53.453088" lon="05.702141"><ele>-1.6</ele><time>2021-02-17T15:13:01Z</time><name>PT11221</name></trkpt>
<trkpt lat="53.453088" lon="05.702155"><ele>-1.4</ele><time>2021-02-17T15:13:02Z</time><name>PT11222</name></trkpt>
<trkpt lat="53.453085" lon="05.702167"><ele>-1.4</ele><time>2021-02-17T15:13:03Z</time><name>PT11223</name></trkpt>
<trkpt lat="53.453084" lon="05.702182"><ele>-1.2</ele><time>2021-02-17T15:13:04Z</time><name>PT11224</name></trkpt>
<trkpt lat="53.453083" lon="05.702195"><ele>-1.4</ele><time>2021-02-17T15:13:05Z</time><name>PT11225</name></trkpt>
<trkpt lat="53.453081" lon="05.702211"><ele>-1.4</ele><time>2021-02-17T15:13:06Z</time><name>PT11226</name></trkpt>
<trkpt lat="53.453080" lon="05.702225"><ele>-1.4</ele><time>2021-02-17T15:13:07Z</time><name>PT11227</name></trkpt>
<trkpt lat="53.453078" lon="05.702241"><ele>-1.3</ele><time>2021-02-17T15:13:08Z</time><name>PT11228</name></trkpt>
<trkpt lat="53.453077" lon="05.702259"><ele>-1.3</ele><time>2021-02-17T15:13:09Z</time><name>PT11229</name></trkpt>
<trkpt lat="53.453077" lon="05.702283"><ele>-1.2</ele><time>2021-02-17T15:13:10Z</time><name>PT11230</name></trkpt>
<trkpt lat="53.453075" lon="05.702298"><ele>-1</ele><time>2021-02-17T15:13:11Z</time><name>PT11231</name></trkpt>
<trkpt lat="53.453075" lon="05.702312"><ele>0.8</ele><time>2021-02-17T15:13:12Z</time><name>PT11232</name></trkpt>
<trkpt lat="53.453076" lon="05.702327"><ele>0.9</ele><time>2021-02-17T15:13:13Z</time><name>PT11233</name></trkpt>
<trkpt lat="53.453074" lon="05.702348"><ele>0.8</ele><time>2021-02-17T15:13:14Z</time><name>PT11234</name></trkpt>
<trkpt lat="53.453072" lon="05.702363"><ele>0.7</ele><time>2021-02-17T15:13:15Z</time><name>PT11235</name></trkpt>
<trkpt lat="53.453070" lon="05.702380"><ele>0.7</ele><time>2021-02-17T15:13:16Z</time><name>PT11236</name></trkpt>
<trkpt lat="53.453066" lon="05.702398"><ele>0.6</ele><time>2021-02-17T15:13:17Z</time><name>PT11237</name></trkpt>
<trkpt lat="53.453065" lon="05.702415"><ele>0.4</ele><time>2021-02-17T15:13:18Z</time><name>PT11238</name></trkpt>
<trkpt lat="53.453065" lon="05.702429"><ele>0.6</ele><time>2021-02-17T15:13:19Z</time><name>PT11239</name></trkpt>
<trkpt lat="53.453061" lon="05.702443"><ele>0.7</ele><time>2021-02-17T15:13:20Z</time><name>PT11240</name></trkpt>
<trkpt lat="53.453056" lon="05.702460"><ele>0.7</ele><time>2021-02-17T15:13:21Z</time><name>PT11241</name></trkpt>
<trkpt lat="53.453050" lon="05.702475"><ele>0.9</ele><time>2021-02-17T15:13:22Z</time><name>PT11242</name></trkpt>
<trkpt lat="53.453044" lon="05.702490"><ele>0.8</ele><time>2021-02-17T15:13:23Z</time><name>PT11243</name></trkpt>
<trkpt lat="53.453042" lon="05.702506"><ele>0.9</ele><time>2021-02-17T15:13:24Z</time><name>PT11244</name></trkpt>
<trkpt lat="53.453042" lon="05.702522"><ele>0.8</ele><time>2021-02-17T15:13:25Z</time><name>PT11245</name></trkpt>
<trkpt lat="53.453042" lon="05.702540"><ele>0.9</ele><time>2021-02-17T15:13:26Z</time><name>PT11246</name></trkpt>
<trkpt lat="53.453043" lon="05.702558"><ele>0.8</ele><time>2021-02-17T15:13:27Z</time><name>PT11247</name></trkpt>
<trkpt lat="53.453043" lon="05.702574"><ele>0.7</ele><time>2021-02-17T15:13:28Z</time><name>PT11248</name></trkpt>
<trkpt lat="53.453044" lon="05.702590"><ele>0.9</ele><time>2021-02-17T15:13:29Z</time><name>PT11249</name></trkpt>
<trkpt lat="53.453040" lon="05.702610"><ele>0.8</ele><time>2021-02-17T15:13:30Z</time><name>PT11250</name></trkpt>
<trkpt lat="53.453039" lon="05.702624"><ele>0.9</ele><time>2021-02-17T15:13:31Z</time><name>PT11251</name></trkpt>
<trkpt lat="53.453039" lon="05.702636"><ele>-1</ele><time>2021-02-17T15:13:32Z</time><name>PT11252</name></trkpt>
<trkpt lat="53.453036" lon="05.702651"><ele>-1</ele><time>2021-02-17T15:13:33Z</time><name>PT11253</name></trkpt>
<trkpt lat="53.453033" lon="05.702666"><ele>0.9</ele><time>2021-02-17T15:13:34Z</time><name>PT11254</name></trkpt>
<trkpt lat="53.453030" lon="05.702681"><ele>-1.2</ele><time>2021-02-17T15:13:35Z</time><name>PT11255</name></trkpt>
<trkpt lat="53.453026" lon="05.702695"><ele>-1.4</ele><time>2021-02-17T15:13:36Z</time><name>PT11256</name></trkpt>
<trkpt lat="53.453022" lon="05.702708"><ele>-1.4</ele><time>2021-02-17T15:13:37Z</time><name>PT11257</name></trkpt>
<trkpt lat="53.453018" lon="05.702724"><ele>-1.4</ele><time>2021-02-17T15:13:38Z</time><name>PT11258</name></trkpt>
<trkpt lat="53.453019" lon="05.702737"><ele>-1.4</ele><time>2021-02-17T15:13:39Z</time><name>PT11259</name></trkpt>
<trkpt lat="53.453017" lon="05.702752"><ele>-1.2</ele><time>2021-02-17T15:13:40Z</time><name>PT11260</name></trkpt>
<trkpt lat="53.453014" lon="05.702767"><ele>-1.2</ele><time>2021-02-17T15:13:41Z</time><name>PT11261</name></trkpt>
<trkpt lat="53.453010" lon="05.702780"><ele>-1.1</ele><time>2021-02-17T15:13:42Z</time><name>PT11262</name></trkpt>
<trkpt lat="53.453006" lon="05.702794"><ele>-1.3</ele><time>2021-02-17T15:13:43Z</time><name>PT11263</name></trkpt>
<trkpt lat="53.453000" lon="05.702811"><ele>-1.4</ele><time>2021-02-17T15:13:44Z</time><name>PT11264</name></trkpt>
<trkpt lat="53.452995" lon="05.702824"><ele>-1.4</ele><time>2021-02-17T15:13:45Z</time><name>PT11265</name></trkpt>
<trkpt lat="53.452993" lon="05.702838"><ele>-1.3</ele><time>2021-02-17T15:13:46Z</time><name>PT11266</name></trkpt>
<trkpt lat="53.452991" lon="05.702855"><ele>-1.4</ele><time>2021-02-17T15:13:47Z</time><name>PT11267</name></trkpt>
<trkpt lat="53.452989" lon="05.702875"><ele>-1.4</ele><time>2021-02-17T15:13:48Z</time><name>PT11268</name></trkpt>
<trkpt lat="53.452988" lon="05.702892"><ele>-1.5</ele><time>2021-02-17T15:13:49Z</time><name>PT11269</name></trkpt>
<trkpt lat="53.452988" lon="05.702904"><ele>-1.4</ele><time>2021-02-17T15:13:50Z</time><name>PT11270</name></trkpt>
<trkpt lat="53.452988" lon="05.702921"><ele>-1.3</ele><time>2021-02-17T15:13:51Z</time><name>PT11271</name></trkpt>
<trkpt lat="53.452987" lon="05.702940"><ele>-1.4</ele><time>2021-02-17T15:13:52Z</time><name>PT11272</name></trkpt>
<trkpt lat="53.452986" lon="05.702958"><ele>-1.2</ele><time>2021-02-17T15:13:53Z</time><name>PT11273</name></trkpt>
<trkpt lat="53.452987" lon="05.702977"><ele>-1.1</ele><time>2021-02-17T15:13:54Z</time><name>PT11274</name></trkpt>
<trkpt lat="53.452987" lon="05.702996"><ele>-1.2</ele><time>2021-02-17T15:13:55Z</time><name>PT11275</name></trkpt>
<trkpt lat="53.452988" lon="05.703016"><ele>-1</ele><time>2021-02-17T15:13:56Z</time><name>PT11276</name></trkpt>
<trkpt lat="53.452988" lon="05.703033"><ele>0.9</ele><time>2021-02-17T15:13:57Z</time><name>PT11277</name></trkpt>
<trkpt lat="53.452984" lon="05.703051"><ele>0.9</ele><time>2021-02-17T15:13:58Z</time><name>PT11278</name></trkpt>
<trkpt lat="53.452981" lon="05.703063"><ele>0.8</ele><time>2021-02-17T15:13:59Z</time><name>PT11279</name></trkpt>
<trkpt lat="53.452975" lon="05.703072"><ele>0.9</ele><time>2021-02-17T15:14:00Z</time><name>PT11280</name></trkpt>
<trkpt lat="53.452970" lon="05.703082"><ele>0.9</ele><time>2021-02-17T15:14:01Z</time><name>PT11281</name></trkpt>
<trkpt lat="53.452967" lon="05.703094"><ele>0.9</ele><time>2021-02-17T15:14:02Z</time><name>PT11282</name></trkpt>
<trkpt lat="53.452965" lon="05.703108"><ele>-1</ele><time>2021-02-17T15:14:03Z</time><name>PT11283</name></trkpt>
<trkpt lat="53.452964" lon="05.703124"><ele>-1.2</ele><time>2021-02-17T15:14:04Z</time><name>PT11284</name></trkpt>
<trkpt lat="53.452963" lon="05.703140"><ele>-1.3</ele><time>2021-02-17T15:14:05Z</time><name>PT11285</name></trkpt>
<trkpt lat="53.452964" lon="05.703155"><ele>-1.3</ele><time>2021-02-17T15:14:06Z</time><name>PT11286</name></trkpt>
<trkpt lat="53.452962" lon="05.703169"><ele>-1.2</ele><time>2021-02-17T15:14:07Z</time><name>PT11287</name></trkpt>
<trkpt lat="53.452959" lon="05.703185"><ele>-1</ele><time>2021-02-17T15:14:08Z</time><name>PT11288</name></trkpt>
<trkpt lat="53.452955" lon="05.703203"><ele>-1.3</ele><time>2021-02-17T15:14:09Z</time><name>PT11289</name></trkpt>
<trkpt lat="53.452954" lon="05.703218"><ele>-1.4</ele><time>2021-02-17T15:14:10Z</time><name>PT11290</name></trkpt>
<trkpt lat="53.452955" lon="05.703236"><ele>-1.6</ele><time>2021-02-17T15:14:11Z</time><name>PT11291</name></trkpt>
<trkpt lat="53.452955" lon="05.703255"><ele>-1.8</ele><time>2021-02-17T15:14:12Z</time><name>PT11292</name></trkpt>
<trkpt lat="53.452955" lon="05.703271"><ele>-1.9</ele><time>2021-02-17T15:14:13Z</time><name>PT11293</name></trkpt>
<trkpt lat="53.452955" lon="05.703287"><ele>-1.6</ele><time>2021-02-17T15:14:14Z</time><name>PT11294</name></trkpt>
<trkpt lat="53.452953" lon="05.703302"><ele>-1.4</ele><time>2021-02-17T15:14:15Z</time><name>PT11295</name></trkpt>
<trkpt lat="53.452952" lon="05.703316"><ele>-1.2</ele><time>2021-02-17T15:14:16Z</time><name>PT11296</name></trkpt>
<trkpt lat="53.452950" lon="05.703330"><ele>-1.2</ele><time>2021-02-17T15:14:17Z</time><name>PT11297</name></trkpt>
<trkpt lat="53.452950" lon="05.703347"><ele>-1.4</ele><time>2021-02-17T15:14:18Z</time><name>PT11298</name></trkpt>
<trkpt lat="53.452944" lon="05.703360"><ele>-1.6</ele><time>2021-02-17T15:14:19Z</time><name>PT11299</name></trkpt>
<trkpt lat="53.452942" lon="05.703373"><ele>-1.5</ele><time>2021-02-17T15:14:20Z</time><name>PT11300</name></trkpt>
<trkpt lat="53.452935" lon="05.703383"><ele>-1.4</ele><time>2021-02-17T15:14:21Z</time><name>PT11301</name></trkpt>
<trkpt lat="53.452929" lon="05.703394"><ele>-1.2</ele><time>2021-02-17T15:14:22Z</time><name>PT11302</name></trkpt>
<trkpt lat="53.452924" lon="05.703408"><ele>0.7</ele><time>2021-02-17T15:14:23Z</time><name>PT11303</name></trkpt>
<trkpt lat="53.452919" lon="05.703421"><ele>0.7</ele><time>2021-02-17T15:14:24Z</time><name>PT11304</name></trkpt>
<trkpt lat="53.452914" lon="05.703431"><ele>0.9</ele><time>2021-02-17T15:14:25Z</time><name>PT11305</name></trkpt>
<trkpt lat="53.452907" lon="05.703441"><ele>-1</ele><time>2021-02-17T15:14:26Z</time><name>PT11306</name></trkpt>
<trkpt lat="53.452899" lon="05.703448"><ele>-1</ele><time>2021-02-17T15:14:27Z</time><name>PT11307</name></trkpt>
<trkpt lat="53.452891" lon="05.703458"><ele>-1.2</ele><time>2021-02-17T15:14:28Z</time><name>PT11308</name></trkpt>
<trkpt lat="53.452880" lon="05.703465"><ele>-1.1</ele><time>2021-02-17T15:14:29Z</time><name>PT11309</name></trkpt>
<trkpt lat="53.452872" lon="05.703474"><ele>-1.1</ele><time>2021-02-17T15:14:30Z</time><name>PT11310</name></trkpt>
<trkpt lat="53.452863" lon="05.703483"><ele>0.9</ele><time>2021-02-17T15:14:31Z</time><name>PT11311</name></trkpt>
<trkpt lat="53.452855" lon="05.703492"><ele>-1.2</ele><time>2021-02-17T15:14:32Z</time><name>PT11312</name></trkpt>
<trkpt lat="53.452849" lon="05.703496"><ele>-1.2</ele><time>2021-02-17T15:14:33Z</time><name>PT11313</name></trkpt>
<trkpt lat="53.452844" lon="05.703499"><ele>-1.3</ele><time>2021-02-17T15:14:34Z</time><name>PT11314</name></trkpt>
<trkpt lat="53.452840" lon="05.703501"><ele>-1.2</ele><time>2021-02-17T15:14:35Z</time><name>PT11315</name></trkpt>
<trkpt lat="53.452837" lon="05.703504"><ele>-1.3</ele><time>2021-02-17T15:14:36Z</time><name>PT11316</name></trkpt>
<trkpt lat="53.452836" lon="05.703506"><ele>-1.2</ele><time>2021-02-17T15:14:37Z</time><name>PT11317</name></trkpt>
<trkpt lat="53.452837" lon="05.703504"><ele>-1.4</ele><time>2021-02-17T15:14:38Z</time><name>PT11318</name></trkpt>
<trkpt lat="53.452838" lon="05.703505"><ele>-1.4</ele><time>2021-02-17T15:14:39Z</time><name>PT11319</name></trkpt>
<trkpt lat="53.452840" lon="05.703507"><ele>-1.4</ele><time>2021-02-17T15:14:40Z</time><name>PT11320</name></trkpt>
<trkpt lat="53.452839" lon="05.703508"><ele>-1.3</ele><time>2021-02-17T15:14:47Z</time><name>PT11321</name></trkpt>
<trkpt lat="53.452833" lon="05.703514"><ele>-1.4</ele><time>2021-02-17T15:14:48Z</time><name>PT11322</name></trkpt>
<trkpt lat="53.452832" lon="05.703514"><ele>-1.3</ele><time>2021-02-17T15:14:49Z</time><name>PT11323</name></trkpt>
<trkpt lat="53.452830" lon="05.703522"><ele>-1</ele><time>2021-02-17T15:14:50Z</time><name>PT11324</name></trkpt>
<trkpt lat="53.452828" lon="05.703528"><ele>-1.1</ele><time>2021-02-17T15:14:51Z</time><name>PT11325</name></trkpt>
<trkpt lat="53.452827" lon="05.703528"><ele>-1</ele><time>2021-02-17T15:14:52Z</time><name>PT11326</name></trkpt>
<trkpt lat="53.452820" lon="05.703533"><ele>0.9</ele><time>2021-02-17T15:14:54Z</time><name>PT11327</name></trkpt>
<trkpt lat="53.452809" lon="05.703540"><ele>-1.3</ele><time>2021-02-17T15:14:55Z</time><name>PT11328</name></trkpt>
<trkpt lat="53.452796" lon="05.703551"><ele>-1.6</ele><time>2021-02-17T15:14:56Z</time><name>PT11329</name></trkpt>
<trkpt lat="53.452786" lon="05.703554"><ele>-1.9</ele><time>2021-02-17T15:14:57Z</time><name>PT11330</name></trkpt>
<trkpt lat="53.452775" lon="05.703556"><ele>-2.4</ele><time>2021-02-17T15:14:58Z</time><name>PT11331</name></trkpt>
<trkpt lat="53.452762" lon="05.703559"><ele>-2.3</ele><time>2021-02-17T15:14:59Z</time><name>PT11332</name></trkpt>
<trkpt lat="53.452752" lon="05.703563"><ele>-2.1</ele><time>2021-02-17T15:15:00Z</time><name>PT11333</name></trkpt>
<trkpt lat="53.452744" lon="05.703570"><ele>-2</ele><time>2021-02-17T15:15:01Z</time><name>PT11334</name></trkpt>
<trkpt lat="53.452735" lon="05.703577"><ele>-1.9</ele><time>2021-02-17T15:15:02Z</time><name>PT11335</name></trkpt>
<trkpt lat="53.452727" lon="05.703578"><ele>-1.9</ele><time>2021-02-17T15:15:03Z</time><name>PT11336</name></trkpt>
<trkpt lat="53.452716" lon="05.703582"><ele>-1.8</ele><time>2021-02-17T15:15:04Z</time><name>PT11337</name></trkpt>
<trkpt lat="53.452708" lon="05.703588"><ele>-1.7</ele><time>2021-02-17T15:15:05Z</time><name>PT11338</name></trkpt>
<trkpt lat="53.452699" lon="05.703593"><ele>-1.6</ele><time>2021-02-17T15:15:06Z</time><name>PT11339</name></trkpt>
<trkpt lat="53.452689" lon="05.703599"><ele>-1.8</ele><time>2021-02-17T15:15:07Z</time><name>PT11340</name></trkpt>
<trkpt lat="53.452685" lon="05.703603"><ele>-1.9</ele><time>2021-02-17T15:15:08Z</time><name>PT11341</name></trkpt>
<trkpt lat="53.452686" lon="05.703605"><ele>-1.9</ele><time>2021-02-17T15:15:09Z</time><name>PT11342</name></trkpt>
<trkpt lat="53.452688" lon="05.703605"><ele>-1.9</ele><time>2021-02-17T15:15:10Z</time><name>PT11343</name></trkpt>
<trkpt lat="53.452689" lon="05.703609"><ele>-1.8</ele><time>2021-02-17T15:15:11Z</time><name>PT11344</name></trkpt>
<trkpt lat="53.452688" lon="05.703611"><ele>-1.7</ele><time>2021-02-17T15:15:12Z</time><name>PT11345</name></trkpt>
<trkpt lat="53.452684" lon="05.703613"><ele>0.9</ele><time>2021-02-17T15:15:24Z</time><name>PT11346</name></trkpt>
<trkpt lat="53.452677" lon="05.703623"><ele>-1</ele><time>2021-02-17T15:15:25Z</time><name>PT11347</name></trkpt>
<trkpt lat="53.452670" lon="05.703637"><ele>0.9</ele><time>2021-02-17T15:15:26Z</time><name>PT11348</name></trkpt>
<trkpt lat="53.452667" lon="05.703652"><ele>0.7</ele><time>2021-02-17T15:15:27Z</time><name>PT11349</name></trkpt>
<trkpt lat="53.452664" lon="05.703667"><ele>0.9</ele><time>2021-02-17T15:15:28Z</time><name>PT11350</name></trkpt>
<trkpt lat="53.452661" lon="05.703682"><ele>0.9</ele><time>2021-02-17T15:15:29Z</time><name>PT11351</name></trkpt>
<trkpt lat="53.452659" lon="05.703698"><ele>0.8</ele><time>2021-02-17T15:15:30Z</time><name>PT11352</name></trkpt>
<trkpt lat="53.452658" lon="05.703716"><ele>0.8</ele><time>2021-02-17T15:15:31Z</time><name>PT11353</name></trkpt>
<trkpt lat="53.452656" lon="05.703734"><ele>0.7</ele><time>2021-02-17T15:15:32Z</time><name>PT11354</name></trkpt>
<trkpt lat="53.452656" lon="05.703753"><ele>0.9</ele><time>2021-02-17T15:15:33Z</time><name>PT11355</name></trkpt>
<trkpt lat="53.452653" lon="05.703771"><ele>-1.1</ele><time>2021-02-17T15:15:34Z</time><name>PT11356</name></trkpt>
<trkpt lat="53.452650" lon="05.703780"><ele>-1.3</ele><time>2021-02-17T15:15:35Z</time><name>PT11357</name></trkpt>
<trkpt lat="53.452649" lon="05.703784"><ele>-1.4</ele><time>2021-02-17T15:15:36Z</time><name>PT11358</name></trkpt>
<trkpt lat="53.452649" lon="05.703791"><ele>-1.7</ele><time>2021-02-17T15:15:37Z</time><name>PT11359</name></trkpt>
<trkpt lat="53.452649" lon="05.703799"><ele>-1.8</ele><time>2021-02-17T15:15:38Z</time><name>PT11360</name></trkpt>
<trkpt lat="53.452651" lon="05.703809"><ele>-1.8</ele><time>2021-02-17T15:15:39Z</time><name>PT11361</name></trkpt>
<trkpt lat="53.452650" lon="05.703824"><ele>-1.7</ele><time>2021-02-17T15:15:40Z</time><name>PT11362</name></trkpt>
<trkpt lat="53.452648" lon="05.703837"><ele>-1.5</ele><time>2021-02-17T15:15:41Z</time><name>PT11363</name></trkpt>
<trkpt lat="53.452646" lon="05.703849"><ele>-1.4</ele><time>2021-02-17T15:15:42Z</time><name>PT11364</name></trkpt>
<trkpt lat="53.452643" lon="05.703862"><ele>-1.2</ele><time>2021-02-17T15:15:43Z</time><name>PT11365</name></trkpt>
<trkpt lat="53.452640" lon="05.703877"><ele>-1.1</ele><time>2021-02-17T15:15:44Z</time><name>PT11366</name></trkpt>
<trkpt lat="53.452638" lon="05.703894"><ele>-1.4</ele><time>2021-02-17T15:15:45Z</time><name>PT11367</name></trkpt>
<trkpt lat="53.452637" lon="05.703907"><ele>-1.4</ele><time>2021-02-17T15:15:46Z</time><name>PT11368</name></trkpt>
<trkpt lat="53.452637" lon="05.703921"><ele>-1.7</ele><time>2021-02-17T15:15:47Z</time><name>PT11369</name></trkpt>
<trkpt lat="53.452639" lon="05.703939"><ele>-1.8</ele><time>2021-02-17T15:15:48Z</time><name>PT11370</name></trkpt>
<trkpt lat="53.452640" lon="05.703954"><ele>-1.8</ele><time>2021-02-17T15:15:49Z</time><name>PT11371</name></trkpt>
<trkpt lat="53.452640" lon="05.703968"><ele>-1.6</ele><time>2021-02-17T15:15:50Z</time><name>PT11372</name></trkpt>
<trkpt lat="53.452635" lon="05.703981"><ele>-1.6</ele><time>2021-02-17T15:15:51Z</time><name>PT11373</name></trkpt>
<trkpt lat="53.452627" lon="05.703996"><ele>-1.6</ele><time>2021-02-17T15:15:52Z</time><name>PT11374</name></trkpt>
<trkpt lat="53.452622" lon="05.704011"><ele>-1.6</ele><time>2021-02-17T15:15:53Z</time><name>PT11375</name></trkpt>
<trkpt lat="53.452618" lon="05.704025"><ele>-1.6</ele><time>2021-02-17T15:15:54Z</time><name>PT11376</name></trkpt>
<trkpt lat="53.452616" lon="05.704042"><ele>-1.7</ele><time>2021-02-17T15:15:55Z</time><name>PT11377</name></trkpt>
<trkpt lat="53.452614" lon="05.704060"><ele>-1.8</ele><time>2021-02-17T15:15:56Z</time><name>PT11378</name></trkpt>
<trkpt lat="53.452612" lon="05.704077"><ele>-1.6</ele><time>2021-02-17T15:15:57Z</time><name>PT11379</name></trkpt>
<trkpt lat="53.452608" lon="05.704094"><ele>-1.7</ele><time>2021-02-17T15:15:58Z</time><name>PT11380</name></trkpt>
<trkpt lat="53.452605" lon="05.704114"><ele>-1.6</ele><time>2021-02-17T15:15:59Z</time><name>PT11381</name></trkpt>
<trkpt lat="53.452601" lon="05.704136"><ele>-1.6</ele><time>2021-02-17T15:16:00Z</time><name>PT11382</name></trkpt>
<trkpt lat="53.452598" lon="05.704152"><ele>-1.5</ele><time>2021-02-17T15:16:01Z</time><name>PT11383</name></trkpt>
<trkpt lat="53.452594" lon="05.704168"><ele>-1.8</ele><time>2021-02-17T15:16:02Z</time><name>PT11384</name></trkpt>
<trkpt lat="53.452591" lon="05.704182"><ele>-1.8</ele><time>2021-02-17T15:16:03Z</time><name>PT11385</name></trkpt>
<trkpt lat="53.452588" lon="05.704196"><ele>-1.8</ele><time>2021-02-17T15:16:04Z</time><name>PT11386</name></trkpt>
<trkpt lat="53.452585" lon="05.704214"><ele>-1.6</ele><time>2021-02-17T15:16:05Z</time><name>PT11387</name></trkpt>
<trkpt lat="53.452585" lon="05.704232"><ele>-1.6</ele><time>2021-02-17T15:16:06Z</time><name>PT11388</name></trkpt>
<trkpt lat="53.452583" lon="05.704252"><ele>-1.4</ele><time>2021-02-17T15:16:07Z</time><name>PT11389</name></trkpt>
<trkpt lat="53.452583" lon="05.704274"><ele>-1.3</ele><time>2021-02-17T15:16:08Z</time><name>PT11390</name></trkpt>
<trkpt lat="53.452581" lon="05.704292"><ele>-1.3</ele><time>2021-02-17T15:16:09Z</time><name>PT11391</name></trkpt>
<trkpt lat="53.452580" lon="05.704308"><ele>-1.4</ele><time>2021-02-17T15:16:10Z</time><name>PT11392</name></trkpt>
<trkpt lat="53.452576" lon="05.704329"><ele>-1.3</ele><time>2021-02-17T15:16:11Z</time><name>PT11393</name></trkpt>
<trkpt lat="53.452575" lon="05.704345"><ele>-1.3</ele><time>2021-02-17T15:16:12Z</time><name>PT11394</name></trkpt>
<trkpt lat="53.452575" lon="05.704362"><ele>-1.2</ele><time>2021-02-17T15:16:13Z</time><name>PT11395</name></trkpt>
<trkpt lat="53.452575" lon="05.704382"><ele>-1.2</ele><time>2021-02-17T15:16:14Z</time><name>PT11396</name></trkpt>
<trkpt lat="53.452575" lon="05.704400"><ele>-1.1</ele><time>2021-02-17T15:16:15Z</time><name>PT11397</name></trkpt>
<trkpt lat="53.452576" lon="05.704417"><ele>-1.1</ele><time>2021-02-17T15:16:16Z</time><name>PT11398</name></trkpt>
<trkpt lat="53.452573" lon="05.704435"><ele>-1.2</ele><time>2021-02-17T15:16:17Z</time><name>PT11399</name></trkpt>
<trkpt lat="53.452571" lon="05.704455"><ele>-1.3</ele><time>2021-02-17T15:16:18Z</time><name>PT11400</name></trkpt>
<trkpt lat="53.452569" lon="05.704474"><ele>-1.4</ele><time>2021-02-17T15:16:19Z</time><name>PT11401</name></trkpt>
<trkpt lat="53.452566" lon="05.704492"><ele>-1.4</ele><time>2021-02-17T15:16:20Z</time><name>PT11402</name></trkpt>
<trkpt lat="53.452564" lon="05.704515"><ele>-1.4</ele><time>2021-02-17T15:16:21Z</time><name>PT11403</name></trkpt>
<trkpt lat="53.452563" lon="05.704538"><ele>-1.4</ele><time>2021-02-17T15:16:22Z</time><name>PT11404</name></trkpt>
<trkpt lat="53.452562" lon="05.704560"><ele>-1.2</ele><time>2021-02-17T15:16:23Z</time><name>PT11405</name></trkpt>
<trkpt lat="53.452561" lon="05.704580"><ele>-1.3</ele><time>2021-02-17T15:16:24Z</time><name>PT11406</name></trkpt>
<trkpt lat="53.452559" lon="05.704597"><ele>-1</ele><time>2021-02-17T15:16:25Z</time><name>PT11407</name></trkpt>
<trkpt lat="53.452558" lon="05.704615"><ele>-1</ele><time>2021-02-17T15:16:26Z</time><name>PT11408</name></trkpt>
<trkpt lat="53.452556" lon="05.704633"><ele>0.9</ele><time>2021-02-17T15:16:27Z</time><name>PT11409</name></trkpt>
<trkpt lat="53.452556" lon="05.704651"><ele>0.8</ele><time>2021-02-17T15:16:28Z</time><name>PT11410</name></trkpt>
<trkpt lat="53.452557" lon="05.704669"><ele>-1</ele><time>2021-02-17T15:16:29Z</time><name>PT11411</name></trkpt>
<trkpt lat="53.452558" lon="05.704691"><ele>-1</ele><time>2021-02-17T15:16:30Z</time><name>PT11412</name></trkpt>
<trkpt lat="53.452558" lon="05.704712"><ele>-1.1</ele><time>2021-02-17T15:16:31Z</time><name>PT11413</name></trkpt>
<trkpt lat="53.452560" lon="05.704731"><ele>-1.1</ele><time>2021-02-17T15:16:32Z</time><name>PT11414</name></trkpt>
<trkpt lat="53.452559" lon="05.704750"><ele>-1.2</ele><time>2021-02-17T15:16:33Z</time><name>PT11415</name></trkpt>
<trkpt lat="53.452557" lon="05.704768"><ele>-1.2</ele><time>2021-02-17T15:16:34Z</time><name>PT11416</name></trkpt>
<trkpt lat="53.452555" lon="05.704786"><ele>-1.2</ele><time>2021-02-17T15:16:35Z</time><name>PT11417</name></trkpt>
<trkpt lat="53.452556" lon="05.704805"><ele>-1.2</ele><time>2021-02-17T15:16:36Z</time><name>PT11418</name></trkpt>
<trkpt lat="53.452555" lon="05.704822"><ele>-1.1</ele><time>2021-02-17T15:16:37Z</time><name>PT11419</name></trkpt>
<trkpt lat="53.452556" lon="05.704839"><ele>-1.2</ele><time>2021-02-17T15:16:38Z</time><name>PT11420</name></trkpt>
<trkpt lat="53.452555" lon="05.704857"><ele>-1.3</ele><time>2021-02-17T15:16:39Z</time><name>PT11421</name></trkpt>
<trkpt lat="53.452554" lon="05.704877"><ele>-1.1</ele><time>2021-02-17T15:16:40Z</time><name>PT11422</name></trkpt>
<trkpt lat="53.452552" lon="05.704895"><ele>-1.3</ele><time>2021-02-17T15:16:41Z</time><name>PT11423</name></trkpt>
<trkpt lat="53.452552" lon="05.704912"><ele>-1.2</ele><time>2021-02-17T15:16:42Z</time><name>PT11424</name></trkpt>
<trkpt lat="53.452552" lon="05.704933"><ele>-1.1</ele><time>2021-02-17T15:16:43Z</time><name>PT11425</name></trkpt>
<trkpt lat="53.452551" lon="05.704953"><ele>-1.4</ele><time>2021-02-17T15:16:44Z</time><name>PT11426</name></trkpt>
<trkpt lat="53.452551" lon="05.704971"><ele>-1.6</ele><time>2021-02-17T15:16:45Z</time><name>PT11427</name></trkpt>
<trkpt lat="53.452553" lon="05.704989"><ele>-1.3</ele><time>2021-02-17T15:16:46Z</time><name>PT11428</name></trkpt>
<trkpt lat="53.452553" lon="05.705008"><ele>-1.4</ele><time>2021-02-17T15:16:47Z</time><name>PT11429</name></trkpt>
<trkpt lat="53.452555" lon="05.705025"><ele>-1.3</ele><time>2021-02-17T15:16:48Z</time><name>PT11430</name></trkpt>
<trkpt lat="53.452555" lon="05.705042"><ele>-1.3</ele><time>2021-02-17T15:16:49Z</time><name>PT11431</name></trkpt>
<trkpt lat="53.452555" lon="05.705062"><ele>-1.4</ele><time>2021-02-17T15:16:50Z</time><name>PT11432</name></trkpt>
<trkpt lat="53.452555" lon="05.705082"><ele>-1.3</ele><time>2021-02-17T15:16:51Z</time><name>PT11433</name></trkpt>
<trkpt lat="53.452553" lon="05.705100"><ele>-1.4</ele><time>2021-02-17T15:16:52Z</time><name>PT11434</name></trkpt>
<trkpt lat="53.452552" lon="05.705119"><ele>-1.5</ele><time>2021-02-17T15:16:53Z</time><name>PT11435</name></trkpt>
<trkpt lat="53.452555" lon="05.705137"><ele>-1.5</ele><time>2021-02-17T15:16:54Z</time><name>PT11436</name></trkpt>
<trkpt lat="53.452559" lon="05.705158"><ele>-1.5</ele><time>2021-02-17T15:16:55Z</time><name>PT11437</name></trkpt>
<trkpt lat="53.452562" lon="05.705178"><ele>-1.9</ele><time>2021-02-17T15:16:56Z</time><name>PT11438</name></trkpt>
<trkpt lat="53.452562" lon="05.705197"><ele>-1.9</ele><time>2021-02-17T15:16:57Z</time><name>PT11439</name></trkpt>
<trkpt lat="53.452563" lon="05.705216"><ele>-1.9</ele><time>2021-02-17T15:16:58Z</time><name>PT11440</name></trkpt>
<trkpt lat="53.452565" lon="05.705234"><ele>-1.9</ele><time>2021-02-17T15:16:59Z</time><name>PT11441</name></trkpt>
<trkpt lat="53.452567" lon="05.705256"><ele>-1.9</ele><time>2021-02-17T15:17:00Z</time><name>PT11442</name></trkpt>
<trkpt lat="53.452568" lon="05.705275"><ele>-1.9</ele><time>2021-02-17T15:17:01Z</time><name>PT11443</name></trkpt>
<trkpt lat="53.452569" lon="05.705295"><ele>-1.8</ele><time>2021-02-17T15:17:02Z</time><name>PT11444</name></trkpt>
<trkpt lat="53.452572" lon="05.705316"><ele>-1.9</ele><time>2021-02-17T15:17:03Z</time><name>PT11445</name></trkpt>
<trkpt lat="53.452573" lon="05.705336"><ele>-1.9</ele><time>2021-02-17T15:17:04Z</time><name>PT11446</name></trkpt>
<trkpt lat="53.452574" lon="05.705354"><ele>-1.5</ele><time>2021-02-17T15:17:05Z</time><name>PT11447</name></trkpt>
<trkpt lat="53.452575" lon="05.705374"><ele>-1.4</ele><time>2021-02-17T15:17:06Z</time><name>PT11448</name></trkpt>
<trkpt lat="53.452575" lon="05.705394"><ele>-1.4</ele><time>2021-02-17T15:17:07Z</time><name>PT11449</name></trkpt>
<trkpt lat="53.452577" lon="05.705411"><ele>-1.4</ele><time>2021-02-17T15:17:08Z</time><name>PT11450</name></trkpt>
<trkpt lat="53.452578" lon="05.705427"><ele>-1.7</ele><time>2021-02-17T15:17:09Z</time><name>PT11451</name></trkpt>
<trkpt lat="53.452579" lon="05.705444"><ele>-1.7</ele><time>2021-02-17T15:17:10Z</time><name>PT11452</name></trkpt>
<trkpt lat="53.452584" lon="05.705463"><ele>-1.6</ele><time>2021-02-17T15:17:11Z</time><name>PT11453</name></trkpt>
<trkpt lat="53.452587" lon="05.705483"><ele>-1.5</ele><time>2021-02-17T15:17:12Z</time><name>PT11454</name></trkpt>
<trkpt lat="53.452591" lon="05.705502"><ele>-1.4</ele><time>2021-02-17T15:17:13Z</time><name>PT11455</name></trkpt>
<trkpt lat="53.452594" lon="05.705520"><ele>-1.6</ele><time>2021-02-17T15:17:14Z</time><name>PT11456</name></trkpt>
<trkpt lat="53.452596" lon="05.705538"><ele>-1.4</ele><time>2021-02-17T15:17:15Z</time><name>PT11457</name></trkpt>
<trkpt lat="53.452599" lon="05.705555"><ele>-1.4</ele><time>2021-02-17T15:17:16Z</time><name>PT11458</name></trkpt>
<trkpt lat="53.452600" lon="05.705573"><ele>-1.3</ele><time>2021-02-17T15:17:17Z</time><name>PT11459</name></trkpt>
<trkpt lat="53.452601" lon="05.705589"><ele>-1.2</ele><time>2021-02-17T15:17:18Z</time><name>PT11460</name></trkpt>
<trkpt lat="53.452602" lon="05.705607"><ele>-1.3</ele><time>2021-02-17T15:17:19Z</time><name>PT11461</name></trkpt>
<trkpt lat="53.452603" lon="05.705624"><ele>-1.1</ele><time>2021-02-17T15:17:20Z</time><name>PT11462</name></trkpt>
<trkpt lat="53.452605" lon="05.705641"><ele>-1.2</ele><time>2021-02-17T15:17:21Z</time><name>PT11463</name></trkpt>
<trkpt lat="53.452605" lon="05.705659"><ele>-1.3</ele><time>2021-02-17T15:17:22Z</time><name>PT11464</name></trkpt>
<trkpt lat="53.452606" lon="05.705676"><ele>-1.2</ele><time>2021-02-17T15:17:23Z</time><name>PT11465</name></trkpt>
<trkpt lat="53.452607" lon="05.705692"><ele>-1.3</ele><time>2021-02-17T15:17:24Z</time><name>PT11466</name></trkpt>
<trkpt lat="53.452608" lon="05.705708"><ele>-1.2</ele><time>2021-02-17T15:17:25Z</time><name>PT11467</name></trkpt>
<trkpt lat="53.452610" lon="05.705725"><ele>-1.3</ele><time>2021-02-17T15:17:26Z</time><name>PT11468</name></trkpt>
<trkpt lat="53.452613" lon="05.705744"><ele>-1.2</ele><time>2021-02-17T15:17:27Z</time><name>PT11469</name></trkpt>
<trkpt lat="53.452615" lon="05.705761"><ele>-1.3</ele><time>2021-02-17T15:17:28Z</time><name>PT11470</name></trkpt>
<trkpt lat="53.452616" lon="05.705777"><ele>-1.1</ele><time>2021-02-17T15:17:29Z</time><name>PT11471</name></trkpt>
<trkpt lat="53.452620" lon="05.705791"><ele>0.9</ele><time>2021-02-17T15:17:30Z</time><name>PT11472</name></trkpt>
<trkpt lat="53.452621" lon="05.705805"><ele>-1</ele><time>2021-02-17T15:17:31Z</time><name>PT11473</name></trkpt>
<trkpt lat="53.452617" lon="05.705823"><ele>-1</ele><time>2021-02-17T15:17:32Z</time><name>PT11474</name></trkpt>
<trkpt lat="53.452615" lon="05.705842"><ele>-1.2</ele><time>2021-02-17T15:17:33Z</time><name>PT11475</name></trkpt>
<trkpt lat="53.452612" lon="05.705860"><ele>-1.2</ele><time>2021-02-17T15:17:34Z</time><name>PT11476</name></trkpt>
<trkpt lat="53.452613" lon="05.705877"><ele>-1.1</ele><time>2021-02-17T15:17:35Z</time><name>PT11477</name></trkpt>
<trkpt lat="53.452613" lon="05.705894"><ele>-1.2</ele><time>2021-02-17T15:17:36Z</time><name>PT11478</name></trkpt>
<trkpt lat="53.452612" lon="05.705912"><ele>-1.1</ele><time>2021-02-17T15:17:37Z</time><name>PT11479</name></trkpt>
<trkpt lat="53.452612" lon="05.705930"><ele>-1</ele><time>2021-02-17T15:17:38Z</time><name>PT11480</name></trkpt>
<trkpt lat="53.452612" lon="05.705948"><ele>-1.2</ele><time>2021-02-17T15:17:39Z</time><name>PT11481</name></trkpt>
<trkpt lat="53.452610" lon="05.705968"><ele>-1.1</ele><time>2021-02-17T15:17:40Z</time><name>PT11482</name></trkpt>
<trkpt lat="53.452608" lon="05.705985"><ele>-1</ele><time>2021-02-17T15:17:41Z</time><name>PT11483</name></trkpt>
<trkpt lat="53.452606" lon="05.706003"><ele>-1</ele><time>2021-02-17T15:17:42Z</time><name>PT11484</name></trkpt>
<trkpt lat="53.452605" lon="05.706023"><ele>-1.1</ele><time>2021-02-17T15:17:43Z</time><name>PT11485</name></trkpt>
<trkpt lat="53.452604" lon="05.706040"><ele>-1.4</ele><time>2021-02-17T15:17:44Z</time><name>PT11486</name></trkpt>
<trkpt lat="53.452604" lon="05.706057"><ele>-1.4</ele><time>2021-02-17T15:17:45Z</time><name>PT11487</name></trkpt>
<trkpt lat="53.452604" lon="05.706075"><ele>-1.5</ele><time>2021-02-17T15:17:46Z</time><name>PT11488</name></trkpt>
<trkpt lat="53.452604" lon="05.706090"><ele>-1.4</ele><time>2021-02-17T15:17:47Z</time><name>PT11489</name></trkpt>
<trkpt lat="53.452603" lon="05.706108"><ele>-1.1</ele><time>2021-02-17T15:17:48Z</time><name>PT11490</name></trkpt>
<trkpt lat="53.452601" lon="05.706127"><ele>-1</ele><time>2021-02-17T15:17:49Z</time><name>PT11491</name></trkpt>
<trkpt lat="53.452598" lon="05.706144"><ele>-1.2</ele><time>2021-02-17T15:17:50Z</time><name>PT11492</name></trkpt>
<trkpt lat="53.452595" lon="05.706162"><ele>-1.1</ele><time>2021-02-17T15:17:51Z</time><name>PT11493</name></trkpt>
<trkpt lat="53.452594" lon="05.706178"><ele>-1.2</ele><time>2021-02-17T15:17:52Z</time><name>PT11494</name></trkpt>
<trkpt lat="53.452596" lon="05.706197"><ele>-1.1</ele><time>2021-02-17T15:17:53Z</time><name>PT11495</name></trkpt>
<trkpt lat="53.452597" lon="05.706216"><ele>-1.1</ele><time>2021-02-17T15:17:54Z</time><name>PT11496</name></trkpt>
<trkpt lat="53.452597" lon="05.706235"><ele>-1</ele><time>2021-02-17T15:17:55Z</time><name>PT11497</name></trkpt>
<trkpt lat="53.452597" lon="05.706254"><ele>-1.1</ele><time>2021-02-17T15:17:56Z</time><name>PT11498</name></trkpt>
<trkpt lat="53.452596" lon="05.706271"><ele>-1.2</ele><time>2021-02-17T15:17:57Z</time><name>PT11499</name></trkpt>
<trkpt lat="53.452595" lon="05.706290"><ele>-1.2</ele><time>2021-02-17T15:17:58Z</time><name>PT11500</name></trkpt>
<trkpt lat="53.452592" lon="05.706307"><ele>-1.1</ele><time>2021-02-17T15:17:59Z</time><name>PT11501</name></trkpt>
<trkpt lat="53.452589" lon="05.706327"><ele>0.9</ele><time>2021-02-17T15:18:00Z</time><name>PT11502</name></trkpt>
<trkpt lat="53.452585" lon="05.706342"><ele>0.8</ele><time>2021-02-17T15:18:01Z</time><name>PT11503</name></trkpt>
<trkpt lat="53.452581" lon="05.706355"><ele>0.8</ele><time>2021-02-17T15:18:02Z</time><name>PT11504</name></trkpt>
<trkpt lat="53.452579" lon="05.706374"><ele>0.9</ele><time>2021-02-17T15:18:03Z</time><name>PT11505</name></trkpt>
<trkpt lat="53.452576" lon="05.706390"><ele>0.9</ele><time>2021-02-17T15:18:04Z</time><name>PT11506</name></trkpt>
<trkpt lat="53.452573" lon="05.706406"><ele>0.9</ele><time>2021-02-17T15:18:05Z</time><name>PT11507</name></trkpt>
<trkpt lat="53.452570" lon="05.706423"><ele>-1</ele><time>2021-02-17T15:18:06Z</time><name>PT11508</name></trkpt>
<trkpt lat="53.452568" lon="05.706439"><ele>0.9</ele><time>2021-02-17T15:18:07Z</time><name>PT11509</name></trkpt>
<trkpt lat="53.452566" lon="05.706454"><ele>-1.1</ele><time>2021-02-17T15:18:08Z</time><name>PT11510</name></trkpt>
<trkpt lat="53.452565" lon="05.706469"><ele>-1</ele><time>2021-02-17T15:18:09Z</time><name>PT11511</name></trkpt>
<trkpt lat="53.452562" lon="05.706488"><ele>-1.2</ele><time>2021-02-17T15:18:10Z</time><name>PT11512</name></trkpt>
<trkpt lat="53.452558" lon="05.706504"><ele>-1.3</ele><time>2021-02-17T15:18:11Z</time><name>PT11513</name></trkpt>
<trkpt lat="53.452554" lon="05.706520"><ele>-1.3</ele><time>2021-02-17T15:18:12Z</time><name>PT11514</name></trkpt>
<trkpt lat="53.452552" lon="05.706537"><ele>-1.4</ele><time>2021-02-17T15:18:13Z</time><name>PT11515</name></trkpt>
<trkpt lat="53.452549" lon="05.706553"><ele>-1.3</ele><time>2021-02-17T15:18:14Z</time><name>PT11516</name></trkpt>
<trkpt lat="53.452547" lon="05.706569"><ele>-1.2</ele><time>2021-02-17T15:18:15Z</time><name>PT11517</name></trkpt>
<trkpt lat="53.452545" lon="05.706586"><ele>-1.1</ele><time>2021-02-17T15:18:16Z</time><name>PT11518</name></trkpt>
<trkpt lat="53.452545" lon="05.706605"><ele>-1</ele><time>2021-02-17T15:18:17Z</time><name>PT11519</name></trkpt>
<trkpt lat="53.452544" lon="05.706624"><ele>0.8</ele><time>2021-02-17T15:18:18Z</time><name>PT11520</name></trkpt>
<trkpt lat="53.452544" lon="05.706643"><ele>0.7</ele><time>2021-02-17T15:18:19Z</time><name>PT11521</name></trkpt>
<trkpt lat="53.452542" lon="05.706660"><ele>0.4</ele><time>2021-02-17T15:18:20Z</time><name>PT11522</name></trkpt>
<trkpt lat="53.452539" lon="05.706676"><ele>0.4</ele><time>2021-02-17T15:18:21Z</time><name>PT11523</name></trkpt>
<trkpt lat="53.452537" lon="05.706692"><ele>0.4</ele><time>2021-02-17T15:18:22Z</time><name>PT11524</name></trkpt>
<trkpt lat="53.452537" lon="05.706707"><ele>0.5</ele><time>2021-02-17T15:18:23Z</time><name>PT11525</name></trkpt>
<trkpt lat="53.452537" lon="05.706724"><ele>0.6</ele><time>2021-02-17T15:18:24Z</time><name>PT11526</name></trkpt>
<trkpt lat="53.452538" lon="05.706740"><ele>0.6</ele><time>2021-02-17T15:18:25Z</time><name>PT11527</name></trkpt>
<trkpt lat="53.452538" lon="05.706755"><ele>0.9</ele><time>2021-02-17T15:18:26Z</time><name>PT11528</name></trkpt>
<trkpt lat="53.452538" lon="05.706769"><ele>-1.1</ele><time>2021-02-17T15:18:27Z</time><name>PT11529</name></trkpt>
<trkpt lat="53.452535" lon="05.706784"><ele>-1.2</ele><time>2021-02-17T15:18:28Z</time><name>PT11530</name></trkpt>
<trkpt lat="53.452533" lon="05.706802"><ele>-1.3</ele><time>2021-02-17T15:18:29Z</time><name>PT11531</name></trkpt>
<trkpt lat="53.452530" lon="05.706819"><ele>-1.5</ele><time>2021-02-17T15:18:30Z</time><name>PT11532</name></trkpt>
<trkpt lat="53.452527" lon="05.706836"><ele>-1.3</ele><time>2021-02-17T15:18:31Z</time><name>PT11533</name></trkpt>
<trkpt lat="53.452524" lon="05.706854"><ele>-1.3</ele><time>2021-02-17T15:18:32Z</time><name>PT11534</name></trkpt>
<trkpt lat="53.452520" lon="05.706872"><ele>-1.2</ele><time>2021-02-17T15:18:33Z</time><name>PT11535</name></trkpt>
<trkpt lat="53.452519" lon="05.706891"><ele>-1.2</ele><time>2021-02-17T15:18:34Z</time><name>PT11536</name></trkpt>
<trkpt lat="53.452518" lon="05.706907"><ele>-1.4</ele><time>2021-02-17T15:18:35Z</time><name>PT11537</name></trkpt>
<trkpt lat="53.452515" lon="05.706924"><ele>-1.4</ele><time>2021-02-17T15:18:36Z</time><name>PT11538</name></trkpt>
<trkpt lat="53.452512" lon="05.706940"><ele>-1.1</ele><time>2021-02-17T15:18:37Z</time><name>PT11539</name></trkpt>
<trkpt lat="53.452507" lon="05.706957"><ele>-1.2</ele><time>2021-02-17T15:18:38Z</time><name>PT11540</name></trkpt>
<trkpt lat="53.452503" lon="05.706974"><ele>-1.1</ele><time>2021-02-17T15:18:39Z</time><name>PT11541</name></trkpt>
<trkpt lat="53.452501" lon="05.706989"><ele>0.9</ele><time>2021-02-17T15:18:40Z</time><name>PT11542</name></trkpt>
<trkpt lat="53.452500" lon="05.707006"><ele>-1.1</ele><time>2021-02-17T15:18:41Z</time><name>PT11543</name></trkpt>
<trkpt lat="53.452500" lon="05.707024"><ele>-1.1</ele><time>2021-02-17T15:18:42Z</time><name>PT11544</name></trkpt>
<trkpt lat="53.452498" lon="05.707042"><ele>0.9</ele><time>2021-02-17T15:18:43Z</time><name>PT11545</name></trkpt>
<trkpt lat="53.452497" lon="05.707056"><ele>-1</ele><time>2021-02-17T15:18:44Z</time><name>PT11546</name></trkpt>
<trkpt lat="53.452497" lon="05.707072"><ele>0.9</ele><time>2021-02-17T15:18:45Z</time><name>PT11547</name></trkpt>
<trkpt lat="53.452495" lon="05.707090"><ele>0.9</ele><time>2021-02-17T15:18:46Z</time><name>PT11548</name></trkpt>
<trkpt lat="53.452494" lon="05.707106"><ele>0.9</ele><time>2021-02-17T15:18:47Z</time><name>PT11549</name></trkpt>
<trkpt lat="53.452493" lon="05.707122"><ele>0.9</ele><time>2021-02-17T15:18:48Z</time><name>PT11550</name></trkpt>
<trkpt lat="53.452494" lon="05.707139"><ele>0.9</ele><time>2021-02-17T15:18:49Z</time><name>PT11551</name></trkpt>
<trkpt lat="53.452495" lon="05.707157"><ele>-1</ele><time>2021-02-17T15:18:50Z</time><name>PT11552</name></trkpt>
<trkpt lat="53.452495" lon="05.707175"><ele>0.9</ele><time>2021-02-17T15:18:51Z</time><name>PT11553</name></trkpt>
<trkpt lat="53.452493" lon="05.707191"><ele>0.9</ele><time>2021-02-17T15:18:52Z</time><name>PT11554</name></trkpt>
<trkpt lat="53.452493" lon="05.707205"><ele>0.7</ele><time>2021-02-17T15:18:53Z</time><name>PT11555</name></trkpt>
<trkpt lat="53.452491" lon="05.707221"><ele>0.6</ele><time>2021-02-17T15:18:54Z</time><name>PT11556</name></trkpt>
<trkpt lat="53.452490" lon="05.707241"><ele>0.5</ele><time>2021-02-17T15:18:55Z</time><name>PT11557</name></trkpt>
<trkpt lat="53.452488" lon="05.707255"><ele>0.9</ele><time>2021-02-17T15:18:56Z</time><name>PT11558</name></trkpt>
<trkpt lat="53.452488" lon="05.707271"><ele>0.9</ele><time>2021-02-17T15:18:57Z</time><name>PT11559</name></trkpt>
<trkpt lat="53.452487" lon="05.707289"><ele>-1.1</ele><time>2021-02-17T15:18:58Z</time><name>PT11560</name></trkpt>
<trkpt lat="53.452486" lon="05.707307"><ele>-1.4</ele><time>2021-02-17T15:18:59Z</time><name>PT11561</name></trkpt>
<trkpt lat="53.452487" lon="05.707324"><ele>-1.3</ele><time>2021-02-17T15:19:00Z</time><name>PT11562</name></trkpt>
<trkpt lat="53.452487" lon="05.707341"><ele>-1.4</ele><time>2021-02-17T15:19:01Z</time><name>PT11563</name></trkpt>
<trkpt lat="53.452488" lon="05.707355"><ele>-1.3</ele><time>2021-02-17T15:19:02Z</time><name>PT11564</name></trkpt>
<trkpt lat="53.452487" lon="05.707371"><ele>-1.1</ele><time>2021-02-17T15:19:03Z</time><name>PT11565</name></trkpt>
<trkpt lat="53.452486" lon="05.707389"><ele>-1.1</ele><time>2021-02-17T15:19:04Z</time><name>PT11566</name></trkpt>
<trkpt lat="53.452485" lon="05.707405"><ele>-1.1</ele><time>2021-02-17T15:19:05Z</time><name>PT11567</name></trkpt>
<trkpt lat="53.452485" lon="05.707418"><ele>-1.3</ele><time>2021-02-17T15:19:06Z</time><name>PT11568</name></trkpt>
<trkpt lat="53.452485" lon="05.707435"><ele>-1.4</ele><time>2021-02-17T15:19:07Z</time><name>PT11569</name></trkpt>
<trkpt lat="53.452484" lon="05.707452"><ele>-1.6</ele><time>2021-02-17T15:19:08Z</time><name>PT11570</name></trkpt>
<trkpt lat="53.452484" lon="05.707466"><ele>-1.6</ele><time>2021-02-17T15:19:09Z</time><name>PT11571</name></trkpt>
<trkpt lat="53.452486" lon="05.707484"><ele>-1.4</ele><time>2021-02-17T15:19:10Z</time><name>PT11572</name></trkpt>
<trkpt lat="53.452486" lon="05.707497"><ele>-1.4</ele><time>2021-02-17T15:19:11Z</time><name>PT11573</name></trkpt>
<trkpt lat="53.452486" lon="05.707513"><ele>-1.2</ele><time>2021-02-17T15:19:12Z</time><name>PT11574</name></trkpt>
<trkpt lat="53.452486" lon="05.707532"><ele>-1.1</ele><time>2021-02-17T15:19:13Z</time><name>PT11575</name></trkpt>
<trkpt lat="53.452486" lon="05.707550"><ele>-1.2</ele><time>2021-02-17T15:19:14Z</time><name>PT11576</name></trkpt>
<trkpt lat="53.452487" lon="05.707564"><ele>-1.1</ele><time>2021-02-17T15:19:15Z</time><name>PT11577</name></trkpt>
<trkpt lat="53.452488" lon="05.707581"><ele>-1</ele><time>2021-02-17T15:19:16Z</time><name>PT11578</name></trkpt>
<trkpt lat="53.452489" lon="05.707602"><ele>-1.1</ele><time>2021-02-17T15:19:17Z</time><name>PT11579</name></trkpt>
<trkpt lat="53.452492" lon="05.707619"><ele>-1.3</ele><time>2021-02-17T15:19:18Z</time><name>PT11580</name></trkpt>
<trkpt lat="53.452495" lon="05.707636"><ele>-1.1</ele><time>2021-02-17T15:19:19Z</time><name>PT11581</name></trkpt>
<trkpt lat="53.452496" lon="05.707654"><ele>-1.1</ele><time>2021-02-17T15:19:20Z</time><name>PT11582</name></trkpt>
<trkpt lat="53.452498" lon="05.707670"><ele>0.9</ele><time>2021-02-17T15:19:21Z</time><name>PT11583</name></trkpt>
<trkpt lat="53.452498" lon="05.707688"><ele>0.8</ele><time>2021-02-17T15:19:22Z</time><name>PT11584</name></trkpt>
<trkpt lat="53.452499" lon="05.707703"><ele>0.9</ele><time>2021-02-17T15:19:23Z</time><name>PT11585</name></trkpt>
<trkpt lat="53.452501" lon="05.707720"><ele>0.9</ele><time>2021-02-17T15:19:24Z</time><name>PT11586</name></trkpt>
<trkpt lat="53.452503" lon="05.707737"><ele>-1</ele><time>2021-02-17T15:19:25Z</time><name>PT11587</name></trkpt>
<trkpt lat="53.452505" lon="05.707754"><ele>-1</ele><time>2021-02-17T15:19:26Z</time><name>PT11588</name></trkpt>
<trkpt lat="53.452505" lon="05.707767"><ele>0.9</ele><time>2021-02-17T15:19:27Z</time><name>PT11589</name></trkpt>
<trkpt lat="53.452505" lon="05.707783"><ele>0.8</ele><time>2021-02-17T15:19:28Z</time><name>PT11590</name></trkpt>
<trkpt lat="53.452506" lon="05.707797"><ele>0.4</ele><time>2021-02-17T15:19:29Z</time><name>PT11591</name></trkpt>
<trkpt lat="53.452509" lon="05.707812"><ele>0.3</ele><time>2021-02-17T15:19:30Z</time><name>PT11592</name></trkpt>
<trkpt lat="53.452512" lon="05.707829"><ele>0.4</ele><time>2021-02-17T15:19:31Z</time><name>PT11593</name></trkpt>
<trkpt lat="53.452514" lon="05.707844"><ele>0.6</ele><time>2021-02-17T15:19:32Z</time><name>PT11594</name></trkpt>
<trkpt lat="53.452516" lon="05.707858"><ele>0.8</ele><time>2021-02-17T15:19:33Z</time><name>PT11595</name></trkpt>
<trkpt lat="53.452518" lon="05.707873"><ele>0.9</ele><time>2021-02-17T15:19:34Z</time><name>PT11596</name></trkpt>
<trkpt lat="53.452517" lon="05.707888"><ele>0.9</ele><time>2021-02-17T15:19:35Z</time><name>PT11597</name></trkpt>
<trkpt lat="53.452519" lon="05.707905"><ele>0.9</ele><time>2021-02-17T15:19:36Z</time><name>PT11598</name></trkpt>
<trkpt lat="53.452521" lon="05.707922"><ele>0.9</ele><time>2021-02-17T15:19:37Z</time><name>PT11599</name></trkpt>
<trkpt lat="53.452525" lon="05.707941"><ele>0.9</ele><time>2021-02-17T15:19:38Z</time><name>PT11600</name></trkpt>
<trkpt lat="53.452529" lon="05.707957"><ele>0.8</ele><time>2021-02-17T15:19:39Z</time><name>PT11601</name></trkpt>
<trkpt lat="53.452531" lon="05.707973"><ele>0.8</ele><time>2021-02-17T15:19:40Z</time><name>PT11602</name></trkpt>
<trkpt lat="53.452532" lon="05.707990"><ele>0.9</ele><time>2021-02-17T15:19:41Z</time><name>PT11603</name></trkpt>
<trkpt lat="53.452534" lon="05.708010"><ele>0.8</ele><time>2021-02-17T15:19:42Z</time><name>PT11604</name></trkpt>
<trkpt lat="53.452535" lon="05.708026"><ele>-1</ele><time>2021-02-17T15:19:43Z</time><name>PT11605</name></trkpt>
<trkpt lat="53.452536" lon="05.708041"><ele>-1.2</ele><time>2021-02-17T15:19:44Z</time><name>PT11606</name></trkpt>
<trkpt lat="53.452538" lon="05.708056"><ele>-1.2</ele><time>2021-02-17T15:19:45Z</time><name>PT11607</name></trkpt>
<trkpt lat="53.452543" lon="05.708070"><ele>-1.3</ele><time>2021-02-17T15:19:46Z</time><name>PT11608</name></trkpt>
<trkpt lat="53.452547" lon="05.708085"><ele>-1.3</ele><time>2021-02-17T15:19:47Z</time><name>PT11609</name></trkpt>
<trkpt lat="53.452550" lon="05.708101"><ele>-1.2</ele><time>2021-02-17T15:19:48Z</time><name>PT11610</name></trkpt>
<trkpt lat="53.452554" lon="05.708116"><ele>-1</ele><time>2021-02-17T15:19:49Z</time><name>PT11611</name></trkpt>
<trkpt lat="53.452556" lon="05.708132"><ele>0.9</ele><time>2021-02-17T15:19:50Z</time><name>PT11612</name></trkpt>
<trkpt lat="53.452558" lon="05.708146"><ele>0.9</ele><time>2021-02-17T15:19:51Z</time><name>PT11613</name></trkpt>
<trkpt lat="53.452561" lon="05.708162"><ele>0.6</ele><time>2021-02-17T15:19:52Z</time><name>PT11614</name></trkpt>
<trkpt lat="53.452563" lon="05.708174"><ele>0.3</ele><time>2021-02-17T15:19:53Z</time><name>PT11615</name></trkpt>
<trkpt lat="53.452566" lon="05.708185"><ele>0.2</ele><time>2021-02-17T15:19:54Z</time><name>PT11616</name></trkpt>
<trkpt lat="53.452570" lon="05.708199"><ele>0</ele><time>2021-02-17T15:19:55Z</time><name>PT11617</name></trkpt>
<trkpt lat="53.452573" lon="05.708213"><ele>0</ele><time>2021-02-17T15:19:56Z</time><name>PT11618</name></trkpt>
<trkpt lat="53.452576" lon="05.708228"><ele>0</ele><time>2021-02-17T15:19:57Z</time><name>PT11619</name></trkpt>
<trkpt lat="53.452576" lon="05.708245"><ele>0.1</ele><time>2021-02-17T15:19:58Z</time><name>PT11620</name></trkpt>
<trkpt lat="53.452577" lon="05.708257"><ele>0.3</ele><time>2021-02-17T15:19:59Z</time><name>PT11621</name></trkpt>
<trkpt lat="53.452580" lon="05.708270"><ele>0.3</ele><time>2021-02-17T15:20:00Z</time><name>PT11622</name></trkpt>
<trkpt lat="53.452585" lon="05.708286"><ele>0.1</ele><time>2021-02-17T15:20:01Z</time><name>PT11623</name></trkpt>
<trkpt lat="53.452588" lon="05.708299"><ele>0</ele><time>2021-02-17T15:20:02Z</time><name>PT11624</name></trkpt>
<trkpt lat="53.452589" lon="05.708313"><ele>0.1</ele><time>2021-02-17T15:20:03Z</time><name>PT11625</name></trkpt>
<trkpt lat="53.452591" lon="05.708326"><ele>0.1</ele><time>2021-02-17T15:20:04Z</time><name>PT11626</name></trkpt>
<trkpt lat="53.452593" lon="05.708339"><ele>0</ele><time>2021-02-17T15:20:05Z</time><name>PT11627</name></trkpt>
<trkpt lat="53.452599" lon="05.708355"><ele>0.1</ele><time>2021-02-17T15:20:06Z</time><name>PT11628</name></trkpt>
<trkpt lat="53.452602" lon="05.708370"><ele>0</ele><time>2021-02-17T15:20:07Z</time><name>PT11629</name></trkpt>
<trkpt lat="53.452605" lon="05.708382"><ele>0.2</ele><time>2021-02-17T15:20:08Z</time><name>PT11630</name></trkpt>
<trkpt lat="53.452606" lon="05.708395"><ele>0.3</ele><time>2021-02-17T15:20:09Z</time><name>PT11631</name></trkpt>
<trkpt lat="53.452609" lon="05.708409"><ele>0.1</ele><time>2021-02-17T15:20:10Z</time><name>PT11632</name></trkpt>
<trkpt lat="53.452612" lon="05.708425"><ele>0.2</ele><time>2021-02-17T15:20:11Z</time><name>PT11633</name></trkpt>
<trkpt lat="53.452615" lon="05.708440"><ele>0.3</ele><time>2021-02-17T15:20:12Z</time><name>PT11634</name></trkpt>
<trkpt lat="53.452619" lon="05.708457"><ele>0.1</ele><time>2021-02-17T15:20:13Z</time><name>PT11635</name></trkpt>
<trkpt lat="53.452623" lon="05.708475"><ele>0.2</ele><time>2021-02-17T15:20:14Z</time><name>PT11636</name></trkpt>
<trkpt lat="53.452628" lon="05.708490"><ele>0.1</ele><time>2021-02-17T15:20:15Z</time><name>PT11637</name></trkpt>
<trkpt lat="53.452631" lon="05.708508"><ele>0.1</ele><time>2021-02-17T15:20:16Z</time><name>PT11638</name></trkpt>
<trkpt lat="53.452635" lon="05.708528"><ele>0</ele><time>2021-02-17T15:20:17Z</time><name>PT11639</name></trkpt>
<trkpt lat="53.452638" lon="05.708547"><ele>0.1</ele><time>2021-02-17T15:20:18Z</time><name>PT11640</name></trkpt>
<trkpt lat="53.452643" lon="05.708563"><ele>0.3</ele><time>2021-02-17T15:20:19Z</time><name>PT11641</name></trkpt>
<trkpt lat="53.452648" lon="05.708579"><ele>0.2</ele><time>2021-02-17T15:20:20Z</time><name>PT11642</name></trkpt>
<trkpt lat="53.452654" lon="05.708593"><ele>0.1</ele><time>2021-02-17T15:20:21Z</time><name>PT11643</name></trkpt>
<trkpt lat="53.452658" lon="05.708609"><ele>0</ele><time>2021-02-17T15:20:22Z</time><name>PT11644</name></trkpt>
<trkpt lat="53.452662" lon="05.708622"><ele>0</ele><time>2021-02-17T15:20:23Z</time><name>PT11645</name></trkpt>
<trkpt lat="53.452664" lon="05.708635"><ele>0.1</ele><time>2021-02-17T15:20:24Z</time><name>PT11646</name></trkpt>
<trkpt lat="53.452666" lon="05.708651"><ele>0.1</ele><time>2021-02-17T15:20:25Z</time><name>PT11647</name></trkpt>
<trkpt lat="53.452668" lon="05.708668"><ele>0.2</ele><time>2021-02-17T15:20:26Z</time><name>PT11648</name></trkpt>
<trkpt lat="53.452670" lon="05.708685"><ele>0</ele><time>2021-02-17T15:20:27Z</time><name>PT11649</name></trkpt>
<trkpt lat="53.452674" lon="05.708700"><ele>0.1</ele><time>2021-02-17T15:20:28Z</time><name>PT11650</name></trkpt>
<trkpt lat="53.452679" lon="05.708716"><ele>0.3</ele><time>2021-02-17T15:20:29Z</time><name>PT11651</name></trkpt>
<trkpt lat="53.452683" lon="05.708734"><ele>0.2</ele><time>2021-02-17T15:20:30Z</time><name>PT11652</name></trkpt>
<trkpt lat="53.452687" lon="05.708749"><ele>0.4</ele><time>2021-02-17T15:20:31Z</time><name>PT11653</name></trkpt>
<trkpt lat="53.452690" lon="05.708766"><ele>0.3</ele><time>2021-02-17T15:20:32Z</time><name>PT11654</name></trkpt>
<trkpt lat="53.452691" lon="05.708781"><ele>0.2</ele><time>2021-02-17T15:20:33Z</time><name>PT11655</name></trkpt>
<trkpt lat="53.452692" lon="05.708797"><ele>0</ele><time>2021-02-17T15:20:34Z</time><name>PT11656</name></trkpt>
<trkpt lat="53.452694" lon="05.708814"><ele>0</ele><time>2021-02-17T15:20:35Z</time><name>PT11657</name></trkpt>
<trkpt lat="53.452698" lon="05.708831"><ele>0</ele><time>2021-02-17T15:20:36Z</time><name>PT11658</name></trkpt>
<trkpt lat="53.452700" lon="05.708846"><ele>0.1</ele><time>2021-02-17T15:20:37Z</time><name>PT11659</name></trkpt>
<trkpt lat="53.452702" lon="05.708864"><ele>0.3</ele><time>2021-02-17T15:20:38Z</time><name>PT11660</name></trkpt>
<trkpt lat="53.452701" lon="05.708880"><ele>0.4</ele><time>2021-02-17T15:20:39Z</time><name>PT11661</name></trkpt>
<trkpt lat="53.452701" lon="05.708896"><ele>0.1</ele><time>2021-02-17T15:20:40Z</time><name>PT11662</name></trkpt>
<trkpt lat="53.452699" lon="05.708914"><ele>0.3</ele><time>2021-02-17T15:20:41Z</time><name>PT11663</name></trkpt>
<trkpt lat="53.452698" lon="05.708931"><ele>0.3</ele><time>2021-02-17T15:20:42Z</time><name>PT11664</name></trkpt>
<trkpt lat="53.452696" lon="05.708949"><ele>0.1</ele><time>2021-02-17T15:20:43Z</time><name>PT11665</name></trkpt>
<trkpt lat="53.452695" lon="05.708965"><ele>0.3</ele><time>2021-02-17T15:20:44Z</time><name>PT11666</name></trkpt>
<trkpt lat="53.452695" lon="05.708983"><ele>0.3</ele><time>2021-02-17T15:20:45Z</time><name>PT11667</name></trkpt>
<trkpt lat="53.452696" lon="05.708998"><ele>0.4</ele><time>2021-02-17T15:20:46Z</time><name>PT11668</name></trkpt>
<trkpt lat="53.452696" lon="05.709012"><ele>0.5</ele><time>2021-02-17T15:20:47Z</time><name>PT11669</name></trkpt>
<trkpt lat="53.452696" lon="05.709027"><ele>0.4</ele><time>2021-02-17T15:20:48Z</time><name>PT11670</name></trkpt>
<trkpt lat="53.452696" lon="05.709046"><ele>0.4</ele><time>2021-02-17T15:20:49Z</time><name>PT11671</name></trkpt>
<trkpt lat="53.452695" lon="05.709064"><ele>0.4</ele><time>2021-02-17T15:20:50Z</time><name>PT11672</name></trkpt>
<trkpt lat="53.452695" lon="05.709080"><ele>0.3</ele><time>2021-02-17T15:20:51Z</time><name>PT11673</name></trkpt>
<trkpt lat="53.452694" lon="05.709097"><ele>0.5</ele><time>2021-02-17T15:20:52Z</time><name>PT11674</name></trkpt>
<trkpt lat="53.452693" lon="05.709115"><ele>0.8</ele><time>2021-02-17T15:20:53Z</time><name>PT11675</name></trkpt>
<trkpt lat="53.452692" lon="05.709134"><ele>0.9</ele><time>2021-02-17T15:20:54Z</time><name>PT11676</name></trkpt>
<trkpt lat="53.452691" lon="05.709150"><ele>0.8</ele><time>2021-02-17T15:20:55Z</time><name>PT11677</name></trkpt>
<trkpt lat="53.452688" lon="05.709164"><ele>0.6</ele><time>2021-02-17T15:20:56Z</time><name>PT11678</name></trkpt>
<trkpt lat="53.452685" lon="05.709181"><ele>0.7</ele><time>2021-02-17T15:20:57Z</time><name>PT11679</name></trkpt>
<trkpt lat="53.452680" lon="05.709197"><ele>0.4</ele><time>2021-02-17T15:20:58Z</time><name>PT11680</name></trkpt>
<trkpt lat="53.452677" lon="05.709211"><ele>0.5</ele><time>2021-02-17T15:20:59Z</time><name>PT11681</name></trkpt>
<trkpt lat="53.452672" lon="05.709231"><ele>0.5</ele><time>2021-02-17T15:21:00Z</time><name>PT11682</name></trkpt>
<trkpt lat="53.452670" lon="05.709249"><ele>0.6</ele><time>2021-02-17T15:21:01Z</time><name>PT11683</name></trkpt>
<trkpt lat="53.452668" lon="05.709267"><ele>0.7</ele><time>2021-02-17T15:21:02Z</time><name>PT11684</name></trkpt>
<trkpt lat="53.452664" lon="05.709283"><ele>0.6</ele><time>2021-02-17T15:21:03Z</time><name>PT11685</name></trkpt>
<trkpt lat="53.452657" lon="05.709296"><ele>0.7</ele><time>2021-02-17T15:21:04Z</time><name>PT11686</name></trkpt>
<trkpt lat="53.452652" lon="05.709308"><ele>0.8</ele><time>2021-02-17T15:21:05Z</time><name>PT11687</name></trkpt>
<trkpt lat="53.452645" lon="05.709321"><ele>0.9</ele><time>2021-02-17T15:21:06Z</time><name>PT11688</name></trkpt>
<trkpt lat="53.452638" lon="05.709335"><ele>-1.1</ele><time>2021-02-17T15:21:07Z</time><name>PT11689</name></trkpt>
<trkpt lat="53.452631" lon="05.709349"><ele>-1.1</ele><time>2021-02-17T15:21:08Z</time><name>PT11690</name></trkpt>
<trkpt lat="53.452624" lon="05.709360"><ele>-1.1</ele><time>2021-02-17T15:21:09Z</time><name>PT11691</name></trkpt>
<trkpt lat="53.452619" lon="05.709375"><ele>-1</ele><time>2021-02-17T15:21:10Z</time><name>PT11692</name></trkpt>
<trkpt lat="53.452614" lon="05.709387"><ele>0.8</ele><time>2021-02-17T15:21:11Z</time><name>PT11693</name></trkpt>
<trkpt lat="53.452611" lon="05.709401"><ele>0.9</ele><time>2021-02-17T15:21:12Z</time><name>PT11694</name></trkpt>
<trkpt lat="53.452605" lon="05.709416"><ele>0.4</ele><time>2021-02-17T15:21:13Z</time><name>PT11695</name></trkpt>
<trkpt lat="53.452598" lon="05.709427"><ele>0.4</ele><time>2021-02-17T15:21:14Z</time><name>PT11696</name></trkpt>
<trkpt lat="53.452592" lon="05.709440"><ele>0.3</ele><time>2021-02-17T15:21:15Z</time><name>PT11697</name></trkpt>
<trkpt lat="53.452585" lon="05.709452"><ele>0.1</ele><time>2021-02-17T15:21:16Z</time><name>PT11698</name></trkpt>
<trkpt lat="53.452579" lon="05.709465"><ele>0.2</ele><time>2021-02-17T15:21:17Z</time><name>PT11699</name></trkpt>
<trkpt lat="53.452572" lon="05.709477"><ele>0.2</ele><time>2021-02-17T15:21:18Z</time><name>PT11700</name></trkpt>
<trkpt lat="53.452565" lon="05.709488"><ele>0.3</ele><time>2021-02-17T15:21:19Z</time><name>PT11701</name></trkpt>
<trkpt lat="53.452558" lon="05.709499"><ele>0.3</ele><time>2021-02-17T15:21:20Z</time><name>PT11702</name></trkpt>
<trkpt lat="53.452550" lon="05.709513"><ele>0.1</ele><time>2021-02-17T15:21:21Z</time><name>PT11703</name></trkpt>
<trkpt lat="53.452542" lon="05.709525"><ele>0.2</ele><time>2021-02-17T15:21:22Z</time><name>PT11704</name></trkpt>
<trkpt lat="53.452535" lon="05.709540"><ele>0.3</ele><time>2021-02-17T15:21:23Z</time><name>PT11705</name></trkpt>
<trkpt lat="53.452529" lon="05.709553"><ele>0.4</ele><time>2021-02-17T15:21:24Z</time><name>PT11706</name></trkpt>
<trkpt lat="53.452522" lon="05.709566"><ele>0.4</ele><time>2021-02-17T15:21:25Z</time><name>PT11707</name></trkpt>
<trkpt lat="53.452515" lon="05.709578"><ele>0.3</ele><time>2021-02-17T15:21:26Z</time><name>PT11708</name></trkpt>
<trkpt lat="53.452506" lon="05.709586"><ele>0.3</ele><time>2021-02-17T15:21:27Z</time><name>PT11709</name></trkpt>
<trkpt lat="53.452498" lon="05.709594"><ele>0</ele><time>2021-02-17T15:21:28Z</time><name>PT11710</name></trkpt>
<trkpt lat="53.452491" lon="05.709604"><ele>0.1</ele><time>2021-02-17T15:21:29Z</time><name>PT11711</name></trkpt>
<trkpt lat="53.452484" lon="05.709612"><ele>0.1</ele><time>2021-02-17T15:21:30Z</time><name>PT11712</name></trkpt>
<trkpt lat="53.452476" lon="05.709622"><ele>0</ele><time>2021-02-17T15:21:31Z</time><name>PT11713</name></trkpt>
<trkpt lat="53.452470" lon="05.709630"><ele>0.1</ele><time>2021-02-17T15:21:32Z</time><name>PT11714</name></trkpt>
<trkpt lat="53.452465" lon="05.709642"><ele>0.3</ele><time>2021-02-17T15:21:33Z</time><name>PT11715</name></trkpt>
<trkpt lat="53.452459" lon="05.709652"><ele>0.6</ele><time>2021-02-17T15:21:34Z</time><name>PT11716</name></trkpt>
<trkpt lat="53.452452" lon="05.709663"><ele>0.9</ele><time>2021-02-17T15:21:35Z</time><name>PT11717</name></trkpt>
<trkpt lat="53.452446" lon="05.709672"><ele>-1</ele><time>2021-02-17T15:21:36Z</time><name>PT11718</name></trkpt>
<trkpt lat="53.452437" lon="05.709682"><ele>0.9</ele><time>2021-02-17T15:21:37Z</time><name>PT11719</name></trkpt>
<trkpt lat="53.452428" lon="05.709693"><ele>0.6</ele><time>2021-02-17T15:21:38Z</time><name>PT11720</name></trkpt>
<trkpt lat="53.452421" lon="05.709705"><ele>0.5</ele><time>2021-02-17T15:21:39Z</time><name>PT11721</name></trkpt>
<trkpt lat="53.452414" lon="05.709718"><ele>0.4</ele><time>2021-02-17T15:21:40Z</time><name>PT11722</name></trkpt>
<trkpt lat="53.452407" lon="05.709732"><ele>0.1</ele><time>2021-02-17T15:21:41Z</time><name>PT11723</name></trkpt>
<trkpt lat="53.452402" lon="05.709748"><ele>0</ele><time>2021-02-17T15:21:42Z</time><name>PT11724</name></trkpt>
<trkpt lat="53.452396" lon="05.709762"><ele>0</ele><time>2021-02-17T15:21:43Z</time><name>PT11725</name></trkpt>
<trkpt lat="53.452389" lon="05.709772"><ele>0</ele><time>2021-02-17T15:21:44Z</time><name>PT11726</name></trkpt>
<trkpt lat="53.452383" lon="05.709787"><ele>0</ele><time>2021-02-17T15:21:45Z</time><name>PT11727</name></trkpt>
<trkpt lat="53.452377" lon="05.709803"><ele>0.3</ele><time>2021-02-17T15:21:46Z</time><name>PT11728</name></trkpt>
<trkpt lat="53.452371" lon="05.709819"><ele>0.6</ele><time>2021-02-17T15:21:47Z</time><name>PT11729</name></trkpt>
<trkpt lat="53.452364" lon="05.709835"><ele>0.8</ele><time>2021-02-17T15:21:48Z</time><name>PT11730</name></trkpt>
<trkpt lat="53.452360" lon="05.709850"><ele>0.8</ele><time>2021-02-17T15:21:49Z</time><name>PT11731</name></trkpt>
<trkpt lat="53.452358" lon="05.709863"><ele>-1</ele><time>2021-02-17T15:21:50Z</time><name>PT11732</name></trkpt>
<trkpt lat="53.452357" lon="05.709876"><ele>-1.1</ele><time>2021-02-17T15:21:51Z</time><name>PT11733</name></trkpt>
<trkpt lat="53.452355" lon="05.709893"><ele>-1.2</ele><time>2021-02-17T15:21:52Z</time><name>PT11734</name></trkpt>
<trkpt lat="53.452353" lon="05.709912"><ele>-1.3</ele><time>2021-02-17T15:21:53Z</time><name>PT11735</name></trkpt>
<trkpt lat="53.452352" lon="05.709925"><ele>-1.2</ele><time>2021-02-17T15:21:54Z</time><name>PT11736</name></trkpt>
<trkpt lat="53.452349" lon="05.709939"><ele>-1.3</ele><time>2021-02-17T15:21:55Z</time><name>PT11737</name></trkpt>
<trkpt lat="53.452347" lon="05.709957"><ele>-1.4</ele><time>2021-02-17T15:21:56Z</time><name>PT11738</name></trkpt>
<trkpt lat="53.452348" lon="05.709974"><ele>-1.4</ele><time>2021-02-17T15:21:57Z</time><name>PT11739</name></trkpt>
<trkpt lat="53.452348" lon="05.709989"><ele>-1.4</ele><time>2021-02-17T15:21:58Z</time><name>PT11740</name></trkpt>
<trkpt lat="53.452348" lon="05.710010"><ele>-1.3</ele><time>2021-02-17T15:21:59Z</time><name>PT11741</name></trkpt>
<trkpt lat="53.452348" lon="05.710028"><ele>-1.1</ele><time>2021-02-17T15:22:00Z</time><name>PT11742</name></trkpt>
<trkpt lat="53.452349" lon="05.710046"><ele>-1.3</ele><time>2021-02-17T15:22:01Z</time><name>PT11743</name></trkpt>
<trkpt lat="53.452351" lon="05.710063"><ele>-1.2</ele><time>2021-02-17T15:22:02Z</time><name>PT11744</name></trkpt>
<trkpt lat="53.452350" lon="05.710079"><ele>-1.2</ele><time>2021-02-17T15:22:03Z</time><name>PT11745</name></trkpt>
<trkpt lat="53.452351" lon="05.710097"><ele>-1</ele><time>2021-02-17T15:22:04Z</time><name>PT11746</name></trkpt>
<trkpt lat="53.452350" lon="05.710113"><ele>0.9</ele><time>2021-02-17T15:22:05Z</time><name>PT11747</name></trkpt>
<trkpt lat="53.452350" lon="05.710127"><ele>-1</ele><time>2021-02-17T15:22:06Z</time><name>PT11748</name></trkpt>
<trkpt lat="53.452349" lon="05.710144"><ele>-1.1</ele><time>2021-02-17T15:22:07Z</time><name>PT11749</name></trkpt>
<trkpt lat="53.452349" lon="05.710165"><ele>-1.2</ele><time>2021-02-17T15:22:08Z</time><name>PT11750</name></trkpt>
<trkpt lat="53.452347" lon="05.710181"><ele>-1.3</ele><time>2021-02-17T15:22:09Z</time><name>PT11751</name></trkpt>
<trkpt lat="53.452346" lon="05.710196"><ele>-1.4</ele><time>2021-02-17T15:22:10Z</time><name>PT11752</name></trkpt>
<trkpt lat="53.452345" lon="05.710210"><ele>-1.3</ele><time>2021-02-17T15:22:11Z</time><name>PT11753</name></trkpt>
<trkpt lat="53.452346" lon="05.710224"><ele>-1.4</ele><time>2021-02-17T15:22:12Z</time><name>PT11754</name></trkpt>
<trkpt lat="53.452347" lon="05.710241"><ele>-1.3</ele><time>2021-02-17T15:22:13Z</time><name>PT11755</name></trkpt>
<trkpt lat="53.452347" lon="05.710257"><ele>-1.1</ele><time>2021-02-17T15:22:14Z</time><name>PT11756</name></trkpt>
<trkpt lat="53.452347" lon="05.710272"><ele>-1.2</ele><time>2021-02-17T15:22:15Z</time><name>PT11757</name></trkpt>
<trkpt lat="53.452348" lon="05.710289"><ele>-1.1</ele><time>2021-02-17T15:22:16Z</time><name>PT11758</name></trkpt>
<trkpt lat="53.452349" lon="05.710308"><ele>0.9</ele><time>2021-02-17T15:22:17Z</time><name>PT11759</name></trkpt>
<trkpt lat="53.452350" lon="05.710324"><ele>0.9</ele><time>2021-02-17T15:22:18Z</time><name>PT11760</name></trkpt>
<trkpt lat="53.452351" lon="05.710337"><ele>0.9</ele><time>2021-02-17T15:22:19Z</time><name>PT11761</name></trkpt>
<trkpt lat="53.452351" lon="05.710353"><ele>0.9</ele><time>2021-02-17T15:22:20Z</time><name>PT11762</name></trkpt>
<trkpt lat="53.452350" lon="05.710369"><ele>-1</ele><time>2021-02-17T15:22:21Z</time><name>PT11763</name></trkpt>
<trkpt lat="53.452349" lon="05.710386"><ele>-1</ele><time>2021-02-17T15:22:22Z</time><name>PT11764</name></trkpt>
<trkpt lat="53.452348" lon="05.710404"><ele>-1</ele><time>2021-02-17T15:22:23Z</time><name>PT11765</name></trkpt>
<trkpt lat="53.452348" lon="05.710420"><ele>0.9</ele><time>2021-02-17T15:22:24Z</time><name>PT11766</name></trkpt>
<trkpt lat="53.452348" lon="05.710435"><ele>-1</ele><time>2021-02-17T15:22:25Z</time><name>PT11767</name></trkpt>
<trkpt lat="53.452348" lon="05.710451"><ele>0.9</ele><time>2021-02-17T15:22:26Z</time><name>PT11768</name></trkpt>
<trkpt lat="53.452348" lon="05.710468"><ele>0.8</ele><time>2021-02-17T15:22:27Z</time><name>PT11769</name></trkpt>
<trkpt lat="53.452348" lon="05.710485"><ele>0.9</ele><time>2021-02-17T15:22:28Z</time><name>PT11770</name></trkpt>
<trkpt lat="53.452345" lon="05.710499"><ele>0.8</ele><time>2021-02-17T15:22:29Z</time><name>PT11771</name></trkpt>
<trkpt lat="53.452343" lon="05.710511"><ele>0.9</ele><time>2021-02-17T15:22:30Z</time><name>PT11772</name></trkpt>
<trkpt lat="53.452341" lon="05.710523"><ele>0.9</ele><time>2021-02-17T15:22:31Z</time><name>PT11773</name></trkpt>
<trkpt lat="53.452341" lon="05.710536"><ele>0.7</ele><time>2021-02-17T15:22:32Z</time><name>PT11774</name></trkpt>
<trkpt lat="53.452341" lon="05.710550"><ele>0.9</ele><time>2021-02-17T15:22:33Z</time><name>PT11775</name></trkpt>
<trkpt lat="53.452340" lon="05.710566"><ele>0.8</ele><time>2021-02-17T15:22:34Z</time><name>PT11776</name></trkpt>
<trkpt lat="53.452340" lon="05.710581"><ele>-1</ele><time>2021-02-17T15:22:35Z</time><name>PT11777</name></trkpt>
<trkpt lat="53.452341" lon="05.710593"><ele>-1.2</ele><time>2021-02-17T15:22:36Z</time><name>PT11778</name></trkpt>
<trkpt lat="53.452342" lon="05.710608"><ele>-1.2</ele><time>2021-02-17T15:22:37Z</time><name>PT11779</name></trkpt>
<trkpt lat="53.452340" lon="05.710627"><ele>-1.1</ele><time>2021-02-17T15:22:38Z</time><name>PT11780</name></trkpt>
<trkpt lat="53.452339" lon="05.710645"><ele>-1</ele><time>2021-02-17T15:22:39Z</time><name>PT11781</name></trkpt>
<trkpt lat="53.452337" lon="05.710662"><ele>0.9</ele><time>2021-02-17T15:22:40Z</time><name>PT11782</name></trkpt>
<trkpt lat="53.452336" lon="05.710678"><ele>0.9</ele><time>2021-02-17T15:22:41Z</time><name>PT11783</name></trkpt>
<trkpt lat="53.452336" lon="05.710693"><ele>0.9</ele><time>2021-02-17T15:22:42Z</time><name>PT11784</name></trkpt>
<trkpt lat="53.452337" lon="05.710711"><ele>-1.1</ele><time>2021-02-17T15:22:43Z</time><name>PT11785</name></trkpt>
<trkpt lat="53.452336" lon="05.710729"><ele>-1.1</ele><time>2021-02-17T15:22:44Z</time><name>PT11786</name></trkpt>
<trkpt lat="53.452335" lon="05.710745"><ele>-1.4</ele><time>2021-02-17T15:22:45Z</time><name>PT11787</name></trkpt>
<trkpt lat="53.452335" lon="05.710760"><ele>-1.3</ele><time>2021-02-17T15:22:46Z</time><name>PT11788</name></trkpt>
<trkpt lat="53.452334" lon="05.710775"><ele>-1.2</ele><time>2021-02-17T15:22:47Z</time><name>PT11789</name></trkpt>
<trkpt lat="53.452333" lon="05.710789"><ele>-1.2</ele><time>2021-02-17T15:22:48Z</time><name>PT11790</name></trkpt>
<trkpt lat="53.452334" lon="05.710804"><ele>-1.2</ele><time>2021-02-17T15:22:49Z</time><name>PT11791</name></trkpt>
<trkpt lat="53.452334" lon="05.710821"><ele>-1.4</ele><time>2021-02-17T15:22:50Z</time><name>PT11792</name></trkpt>
<trkpt lat="53.452335" lon="05.710841"><ele>-1.4</ele><time>2021-02-17T15:22:51Z</time><name>PT11793</name></trkpt>
<trkpt lat="53.452335" lon="05.710860"><ele>-1.5</ele><time>2021-02-17T15:22:52Z</time><name>PT11794</name></trkpt>
<trkpt lat="53.452335" lon="05.710873"><ele>-1.4</ele><time>2021-02-17T15:22:53Z</time><name>PT11795</name></trkpt>
<trkpt lat="53.452335" lon="05.710885"><ele>-1.6</ele><time>2021-02-17T15:22:54Z</time><name>PT11796</name></trkpt>
<trkpt lat="53.452333" lon="05.710902"><ele>-1.4</ele><time>2021-02-17T15:22:55Z</time><name>PT11797</name></trkpt>
<trkpt lat="53.452333" lon="05.710917"><ele>-1.4</ele><time>2021-02-17T15:22:56Z</time><name>PT11798</name></trkpt>
<trkpt lat="53.452333" lon="05.710935"><ele>-1.2</ele><time>2021-02-17T15:22:57Z</time><name>PT11799</name></trkpt>
<trkpt lat="53.452332" lon="05.710954"><ele>-1</ele><time>2021-02-17T15:22:58Z</time><name>PT11800</name></trkpt>
<trkpt lat="53.452335" lon="05.710972"><ele>-1</ele><time>2021-02-17T15:22:59Z</time><name>PT11801</name></trkpt>
<trkpt lat="53.452336" lon="05.710989"><ele>-1</ele><time>2021-02-17T15:23:00Z</time><name>PT11802</name></trkpt>
<trkpt lat="53.452338" lon="05.711003"><ele>-1</ele><time>2021-02-17T15:23:01Z</time><name>PT11803</name></trkpt>
<trkpt lat="53.452342" lon="05.711015"><ele>0.9</ele><time>2021-02-17T15:23:02Z</time><name>PT11804</name></trkpt>
<trkpt lat="53.452343" lon="05.711030"><ele>-1</ele><time>2021-02-17T15:23:03Z</time><name>PT11805</name></trkpt>
<trkpt lat="53.452341" lon="05.711048"><ele>0.9</ele><time>2021-02-17T15:23:04Z</time><name>PT11806</name></trkpt>
<trkpt lat="53.452340" lon="05.711066"><ele>0.8</ele><time>2021-02-17T15:23:05Z</time><name>PT11807</name></trkpt>
<trkpt lat="53.452337" lon="05.711084"><ele>0.9</ele><time>2021-02-17T15:23:06Z</time><name>PT11808</name></trkpt>
<trkpt lat="53.452336" lon="05.711100"><ele>-1.1</ele><time>2021-02-17T15:23:07Z</time><name>PT11809</name></trkpt>
<trkpt lat="53.452335" lon="05.711119"><ele>-1.3</ele><time>2021-02-17T15:23:08Z</time><name>PT11810</name></trkpt>
<trkpt lat="53.452333" lon="05.711136"><ele>-1.3</ele><time>2021-02-17T15:23:09Z</time><name>PT11811</name></trkpt>
<trkpt lat="53.452332" lon="05.711150"><ele>-1.4</ele><time>2021-02-17T15:23:10Z</time><name>PT11812</name></trkpt>
<trkpt lat="53.452329" lon="05.711167"><ele>-1.4</ele><time>2021-02-17T15:23:11Z</time><name>PT11813</name></trkpt>
<trkpt lat="53.452328" lon="05.711183"><ele>-1.6</ele><time>2021-02-17T15:23:12Z</time><name>PT11814</name></trkpt>
<trkpt lat="53.452328" lon="05.711195"><ele>-1.9</ele><time>2021-02-17T15:23:13Z</time><name>PT11815</name></trkpt>
<trkpt lat="53.452329" lon="05.711205"><ele>-1.8</ele><time>2021-02-17T15:23:14Z</time><name>PT11816</name></trkpt>
<trkpt lat="53.452328" lon="05.711221"><ele>-1.7</ele><time>2021-02-17T15:23:15Z</time><name>PT11817</name></trkpt>
<trkpt lat="53.452326" lon="05.711236"><ele>-1.6</ele><time>2021-02-17T15:23:16Z</time><name>PT11818</name></trkpt>
<trkpt lat="53.452324" lon="05.711250"><ele>-1.3</ele><time>2021-02-17T15:23:17Z</time><name>PT11819</name></trkpt>
<trkpt lat="53.452322" lon="05.711265"><ele>-1.4</ele><time>2021-02-17T15:23:18Z</time><name>PT11820</name></trkpt>
<trkpt lat="53.452320" lon="05.711279"><ele>-1.2</ele><time>2021-02-17T15:23:19Z</time><name>PT11821</name></trkpt>
<trkpt lat="53.452319" lon="05.711293"><ele>-1.1</ele><time>2021-02-17T15:23:20Z</time><name>PT11822</name></trkpt>
<trkpt lat="53.452318" lon="05.711301"><ele>-1.3</ele><time>2021-02-17T15:23:21Z</time><name>PT11823</name></trkpt>
<trkpt lat="53.452317" lon="05.711309"><ele>-1.1</ele><time>2021-02-17T15:23:22Z</time><name>PT11824</name></trkpt>
<trkpt lat="53.452317" lon="05.711314"><ele>-1.3</ele><time>2021-02-17T15:23:23Z</time><name>PT11825</name></trkpt>
<trkpt lat="53.452317" lon="05.711319"><ele>-1.4</ele><time>2021-02-17T15:23:24Z</time><name>PT11826</name></trkpt>
<trkpt lat="53.452317" lon="05.711321"><ele>-1.3</ele><time>2021-02-17T15:23:25Z</time><name>PT11827</name></trkpt>
<trkpt lat="53.452318" lon="05.711324"><ele>-1.4</ele><time>2021-02-17T15:23:26Z</time><name>PT11828</name></trkpt>
<trkpt lat="53.452319" lon="05.711325"><ele>-1.2</ele><time>2021-02-17T15:23:27Z</time><name>PT11829</name></trkpt>
<trkpt lat="53.452319" lon="05.711324"><ele>0.9</ele><time>2021-02-17T15:24:02Z</time><name>PT11830</name></trkpt>
<trkpt lat="53.452318" lon="05.711327"><ele>0.9</ele><time>2021-02-17T15:24:03Z</time><name>PT11831</name></trkpt>
<trkpt lat="53.452318" lon="05.711327"><ele>0.9</ele><time>2021-02-17T15:24:04Z</time><name>PT11832</name></trkpt>
<trkpt lat="53.452318" lon="05.711348"><ele>0.8</ele><time>2021-02-17T15:24:20Z</time><name>PT11833</name></trkpt>
<trkpt lat="53.452313" lon="05.711379"><ele>0.9</ele><time>2021-02-17T15:24:21Z</time><name>PT11834</name></trkpt>
<trkpt lat="53.452311" lon="05.711403"><ele>-1</ele><time>2021-02-17T15:24:22Z</time><name>PT11835</name></trkpt>
<trkpt lat="53.452311" lon="05.711425"><ele>-1.3</ele><time>2021-02-17T15:24:23Z</time><name>PT11836</name></trkpt>
<trkpt lat="53.452314" lon="05.711446"><ele>-1.1</ele><time>2021-02-17T15:24:24Z</time><name>PT11837</name></trkpt>
<trkpt lat="53.452315" lon="05.711464"><ele>-1.1</ele><time>2021-02-17T15:24:25Z</time><name>PT11838</name></trkpt>
<trkpt lat="53.452317" lon="05.711483"><ele>-1.1</ele><time>2021-02-17T15:24:26Z</time><name>PT11839</name></trkpt>
<trkpt lat="53.452318" lon="05.711504"><ele>-1.1</ele><time>2021-02-17T15:24:27Z</time><name>PT11840</name></trkpt>
<trkpt lat="53.452322" lon="05.711524"><ele>-1.1</ele><time>2021-02-17T15:24:28Z</time><name>PT11841</name></trkpt>
<trkpt lat="53.452325" lon="05.711545"><ele>-1.2</ele><time>2021-02-17T15:24:29Z</time><name>PT11842</name></trkpt>
<trkpt lat="53.452327" lon="05.711565"><ele>-1.2</ele><time>2021-02-17T15:24:30Z</time><name>PT11843</name></trkpt>
<trkpt lat="53.452327" lon="05.711585"><ele>-1.1</ele><time>2021-02-17T15:24:31Z</time><name>PT11844</name></trkpt>
<trkpt lat="53.452329" lon="05.711605"><ele>-1</ele><time>2021-02-17T15:24:32Z</time><name>PT11845</name></trkpt>
<trkpt lat="53.452332" lon="05.711625"><ele>0.9</ele><time>2021-02-17T15:24:33Z</time><name>PT11846</name></trkpt>
<trkpt lat="53.452334" lon="05.711643"><ele>0.9</ele><time>2021-02-17T15:24:34Z</time><name>PT11847</name></trkpt>
<trkpt lat="53.452335" lon="05.711663"><ele>0.9</ele><time>2021-02-17T15:24:35Z</time><name>PT11848</name></trkpt>
<trkpt lat="53.452338" lon="05.711680"><ele>0.9</ele><time>2021-02-17T15:24:36Z</time><name>PT11849</name></trkpt>
<trkpt lat="53.452341" lon="05.711698"><ele>-1.1</ele><time>2021-02-17T15:24:37Z</time><name>PT11850</name></trkpt>
<trkpt lat="53.452345" lon="05.711715"><ele>-1</ele><time>2021-02-17T15:24:38Z</time><name>PT11851</name></trkpt>
<trkpt lat="53.452347" lon="05.711733"><ele>-1.2</ele><time>2021-02-17T15:24:39Z</time><name>PT11852</name></trkpt>
<trkpt lat="53.452348" lon="05.711751"><ele>-1.3</ele><time>2021-02-17T15:24:40Z</time><name>PT11853</name></trkpt>
<trkpt lat="53.452352" lon="05.711771"><ele>-1.3</ele><time>2021-02-17T15:24:41Z</time><name>PT11854</name></trkpt>
<trkpt lat="53.452356" lon="05.711788"><ele>-1.3</ele><time>2021-02-17T15:24:42Z</time><name>PT11855</name></trkpt>
<trkpt lat="53.452360" lon="05.711803"><ele>-1.4</ele><time>2021-02-17T15:24:43Z</time><name>PT11856</name></trkpt>
<trkpt lat="53.452364" lon="05.711822"><ele>-1.3</ele><time>2021-02-17T15:24:44Z</time><name>PT11857</name></trkpt>
<trkpt lat="53.452368" lon="05.711838"><ele>-1.4</ele><time>2021-02-17T15:24:45Z</time><name>PT11858</name></trkpt>
<trkpt lat="53.452371" lon="05.711857"><ele>-1.4</ele><time>2021-02-17T15:24:46Z</time><name>PT11859</name></trkpt>
<trkpt lat="53.452370" lon="05.711875"><ele>-1.5</ele><time>2021-02-17T15:24:47Z</time><name>PT11860</name></trkpt>
<trkpt lat="53.452370" lon="05.711894"><ele>-1.5</ele><time>2021-02-17T15:24:48Z</time><name>PT11861</name></trkpt>
<trkpt lat="53.452369" lon="05.711913"><ele>-1.5</ele><time>2021-02-17T15:24:49Z</time><name>PT11862</name></trkpt>
<trkpt lat="53.452370" lon="05.711932"><ele>-1.6</ele><time>2021-02-17T15:24:50Z</time><name>PT11863</name></trkpt>
<trkpt lat="53.452373" lon="05.711946"><ele>-1.5</ele><time>2021-02-17T15:24:51Z</time><name>PT11864</name></trkpt>
<trkpt lat="53.452377" lon="05.711964"><ele>-1.3</ele><time>2021-02-17T15:24:52Z</time><name>PT11865</name></trkpt>
<trkpt lat="53.452379" lon="05.711981"><ele>-1</ele><time>2021-02-17T15:24:53Z</time><name>PT11866</name></trkpt>
<trkpt lat="53.452382" lon="05.711996"><ele>0.9</ele><time>2021-02-17T15:24:54Z</time><name>PT11867</name></trkpt>
<trkpt lat="53.452383" lon="05.712010"><ele>0.7</ele><time>2021-02-17T15:24:55Z</time><name>PT11868</name></trkpt>
<trkpt lat="53.452381" lon="05.712022"><ele>0.8</ele><time>2021-02-17T15:24:56Z</time><name>PT11869</name></trkpt>
<trkpt lat="53.452381" lon="05.712036"><ele>0.9</ele><time>2021-02-17T15:24:57Z</time><name>PT11870</name></trkpt>
<trkpt lat="53.452381" lon="05.712053"><ele>0.9</ele><time>2021-02-17T15:24:58Z</time><name>PT11871</name></trkpt>
<trkpt lat="53.452381" lon="05.712069"><ele>0.9</ele><time>2021-02-17T15:24:59Z</time><name>PT11872</name></trkpt>
<trkpt lat="53.452383" lon="05.712088"><ele>0.9</ele><time>2021-02-17T15:25:00Z</time><name>PT11873</name></trkpt>
<trkpt lat="53.452384" lon="05.712104"><ele>-1.1</ele><time>2021-02-17T15:25:01Z</time><name>PT11874</name></trkpt>
<trkpt lat="53.452384" lon="05.712121"><ele>-1.2</ele><time>2021-02-17T15:25:02Z</time><name>PT11875</name></trkpt>
<trkpt lat="53.452383" lon="05.712137"><ele>-1.4</ele><time>2021-02-17T15:25:03Z</time><name>PT11876</name></trkpt>
<trkpt lat="53.452381" lon="05.712154"><ele>-1.4</ele><time>2021-02-17T15:25:04Z</time><name>PT11877</name></trkpt>
<trkpt lat="53.452381" lon="05.712172"><ele>-1.3</ele><time>2021-02-17T15:25:05Z</time><name>PT11878</name></trkpt>
<trkpt lat="53.452379" lon="05.712188"><ele>-1.2</ele><time>2021-02-17T15:25:06Z</time><name>PT11879</name></trkpt>
<trkpt lat="53.452377" lon="05.712200"><ele>-1.1</ele><time>2021-02-17T15:25:07Z</time><name>PT11880</name></trkpt>
<trkpt lat="53.452375" lon="05.712213"><ele>-1</ele><time>2021-02-17T15:25:08Z</time><name>PT11881</name></trkpt>
<trkpt lat="53.452373" lon="05.712227"><ele>-1.1</ele><time>2021-02-17T15:25:09Z</time><name>PT11882</name></trkpt>
<trkpt lat="53.452370" lon="05.712238"><ele>-1.1</ele><time>2021-02-17T15:25:10Z</time><name>PT11883</name></trkpt>
<trkpt lat="53.452367" lon="05.712250"><ele>-1</ele><time>2021-02-17T15:25:11Z</time><name>PT11884</name></trkpt>
<trkpt lat="53.452367" lon="05.712263"><ele>-1</ele><time>2021-02-17T15:25:12Z</time><name>PT11885</name></trkpt>
<trkpt lat="53.452367" lon="05.712278"><ele>0.9</ele><time>2021-02-17T15:25:13Z</time><name>PT11886</name></trkpt>
<trkpt lat="53.452366" lon="05.712297"><ele>-1</ele><time>2021-02-17T15:25:14Z</time><name>PT11887</name></trkpt>
<trkpt lat="53.452366" lon="05.712316"><ele>-1.1</ele><time>2021-02-17T15:25:15Z</time><name>PT11888</name></trkpt>
<trkpt lat="53.452367" lon="05.712333"><ele>-1.1</ele><time>2021-02-17T15:25:16Z</time><name>PT11889</name></trkpt>
<trkpt lat="53.452367" lon="05.712349"><ele>-1.1</ele><time>2021-02-17T15:25:17Z</time><name>PT11890</name></trkpt>
<trkpt lat="53.452366" lon="05.712366"><ele>-1.2</ele><time>2021-02-17T15:25:18Z</time><name>PT11891</name></trkpt>
<trkpt lat="53.452365" lon="05.712382"><ele>-1.1</ele><time>2021-02-17T15:25:19Z</time><name>PT11892</name></trkpt>
<trkpt lat="53.452362" lon="05.712397"><ele>-1.2</ele><time>2021-02-17T15:25:20Z</time><name>PT11893</name></trkpt>
<trkpt lat="53.452361" lon="05.712411"><ele>-1.3</ele><time>2021-02-17T15:25:21Z</time><name>PT11894</name></trkpt>
<trkpt lat="53.452362" lon="05.712426"><ele>-1.2</ele><time>2021-02-17T15:25:22Z</time><name>PT11895</name></trkpt>
<trkpt lat="53.452366" lon="05.712442"><ele>-1.3</ele><time>2021-02-17T15:25:23Z</time><name>PT11896</name></trkpt>
<trkpt lat="53.452371" lon="05.712457"><ele>-1.4</ele><time>2021-02-17T15:25:24Z</time><name>PT11897</name></trkpt>
<trkpt lat="53.452374" lon="05.712470"><ele>-1.2</ele><time>2021-02-17T15:25:25Z</time><name>PT11898</name></trkpt>
<trkpt lat="53.452376" lon="05.712482"><ele>-1.3</ele><time>2021-02-17T15:25:26Z</time><name>PT11899</name></trkpt>
<trkpt lat="53.452377" lon="05.712495"><ele>-1.3</ele><time>2021-02-17T15:25:27Z</time><name>PT11900</name></trkpt>
<trkpt lat="53.452381" lon="05.712509"><ele>-1.1</ele><time>2021-02-17T15:25:28Z</time><name>PT11901</name></trkpt>
<trkpt lat="53.452385" lon="05.712523"><ele>-1.2</ele><time>2021-02-17T15:25:29Z</time><name>PT11902</name></trkpt>
<trkpt lat="53.452388" lon="05.712536"><ele>-1</ele><time>2021-02-17T15:25:30Z</time><name>PT11903</name></trkpt>
<trkpt lat="53.452391" lon="05.712549"><ele>0.9</ele><time>2021-02-17T15:25:31Z</time><name>PT11904</name></trkpt>
<trkpt lat="53.452396" lon="05.712561"><ele>-1</ele><time>2021-02-17T15:25:32Z</time><name>PT11905</name></trkpt>
<trkpt lat="53.452400" lon="05.712574"><ele>0.8</ele><time>2021-02-17T15:25:33Z</time><name>PT11906</name></trkpt>
<trkpt lat="53.452406" lon="05.712588"><ele>-1</ele><time>2021-02-17T15:25:34Z</time><name>PT11907</name></trkpt>
<trkpt lat="53.452413" lon="05.712604"><ele>-1</ele><time>2021-02-17T15:25:35Z</time><name>PT11908</name></trkpt>
<trkpt lat="53.452419" lon="05.712617"><ele>-1</ele><time>2021-02-17T15:25:36Z</time><name>PT11909</name></trkpt>
<trkpt lat="53.452426" lon="05.712630"><ele>-1</ele><time>2021-02-17T15:25:37Z</time><name>PT11910</name></trkpt>
<trkpt lat="53.452432" lon="05.712644"><ele>-1</ele><time>2021-02-17T15:25:38Z</time><name>PT11911</name></trkpt>
<trkpt lat="53.452442" lon="05.712658"><ele>-1</ele><time>2021-02-17T15:25:39Z</time><name>PT11912</name></trkpt>
<trkpt lat="53.452448" lon="05.712669"><ele>0.9</ele><time>2021-02-17T15:25:40Z</time><name>PT11913</name></trkpt>
<trkpt lat="53.452450" lon="05.712680"><ele>0.8</ele><time>2021-02-17T15:25:41Z</time><name>PT11914</name></trkpt>
<trkpt lat="53.452453" lon="05.712692"><ele>0.9</ele><time>2021-02-17T15:25:42Z</time><name>PT11915</name></trkpt>
<trkpt lat="53.452457" lon="05.712703"><ele>0.9</ele><time>2021-02-17T15:25:43Z</time><name>PT11916</name></trkpt>
<trkpt lat="53.452462" lon="05.712718"><ele>0.8</ele><time>2021-02-17T15:25:44Z</time><name>PT11917</name></trkpt>
<trkpt lat="53.452469" lon="05.712731"><ele>0.9</ele><time>2021-02-17T15:25:45Z</time><name>PT11918</name></trkpt>
<trkpt lat="53.452477" lon="05.712744"><ele>0.7</ele><time>2021-02-17T15:25:46Z</time><name>PT11919</name></trkpt>
<trkpt lat="53.452484" lon="05.712756"><ele>0.7</ele><time>2021-02-17T15:25:47Z</time><name>PT11920</name></trkpt>
<trkpt lat="53.452491" lon="05.712766"><ele>0.5</ele><time>2021-02-17T15:25:48Z</time><name>PT11921</name></trkpt>
<trkpt lat="53.452494" lon="05.712782"><ele>0.6</ele><time>2021-02-17T15:25:49Z</time><name>PT11922</name></trkpt>
<trkpt lat="53.452500" lon="05.712797"><ele>0.6</ele><time>2021-02-17T15:25:50Z</time><name>PT11923</name></trkpt>
<trkpt lat="53.452502" lon="05.712808"><ele>0.5</ele><time>2021-02-17T15:25:51Z</time><name>PT11924</name></trkpt>
<trkpt lat="53.452506" lon="05.712820"><ele>0.6</ele><time>2021-02-17T15:25:52Z</time><name>PT11925</name></trkpt>
<trkpt lat="53.452515" lon="05.712832"><ele>0.4</ele><time>2021-02-17T15:25:53Z</time><name>PT11926</name></trkpt>
<trkpt lat="53.452520" lon="05.712844"><ele>0.4</ele><time>2021-02-17T15:25:54Z</time><name>PT11927</name></trkpt>
<trkpt lat="53.452523" lon="05.712856"><ele>0.6</ele><time>2021-02-17T15:25:55Z</time><name>PT11928</name></trkpt>
<trkpt lat="53.452531" lon="05.712865"><ele>0.6</ele><time>2021-02-17T15:25:56Z</time><name>PT11929</name></trkpt>
<trkpt lat="53.452539" lon="05.712875"><ele>0.4</ele><time>2021-02-17T15:25:57Z</time><name>PT11930</name></trkpt>
<trkpt lat="53.452546" lon="05.712886"><ele>0.7</ele><time>2021-02-17T15:25:58Z</time><name>PT11931</name></trkpt>
<trkpt lat="53.452553" lon="05.712894"><ele>0.6</ele><time>2021-02-17T15:25:59Z</time><name>PT11932</name></trkpt>
<trkpt lat="53.452561" lon="05.712904"><ele>0.7</ele><time>2021-02-17T15:26:00Z</time><name>PT11933</name></trkpt>
<trkpt lat="53.452571" lon="05.712917"><ele>-1</ele><time>2021-02-17T15:26:01Z</time><name>PT11934</name></trkpt>
<trkpt lat="53.452578" lon="05.712930"><ele>-1.1</ele><time>2021-02-17T15:26:02Z</time><name>PT11935</name></trkpt>
<trkpt lat="53.452585" lon="05.712942"><ele>-1.3</ele><time>2021-02-17T15:26:03Z</time><name>PT11936</name></trkpt>
<trkpt lat="53.452593" lon="05.712952"><ele>-1.4</ele><time>2021-02-17T15:26:04Z</time><name>PT11937</name></trkpt>
<trkpt lat="53.452603" lon="05.712962"><ele>-1.4</ele><time>2021-02-17T15:26:05Z</time><name>PT11938</name></trkpt>
<trkpt lat="53.452614" lon="05.712968"><ele>-1.5</ele><time>2021-02-17T15:26:06Z</time><name>PT11939</name></trkpt>
<trkpt lat="53.452619" lon="05.712977"><ele>-1.4</ele><time>2021-02-17T15:26:07Z</time><name>PT11940</name></trkpt>
<trkpt lat="53.452628" lon="05.712982"><ele>-1.7</ele><time>2021-02-17T15:26:08Z</time><name>PT11941</name></trkpt>
<trkpt lat="53.452635" lon="05.712988"><ele>-1.7</ele><time>2021-02-17T15:26:09Z</time><name>PT11942</name></trkpt>
<trkpt lat="53.452638" lon="05.712992"><ele>-1.2</ele><time>2021-02-17T15:26:10Z</time><name>PT11943</name></trkpt>
<trkpt lat="53.452644" lon="05.712997"><ele>-1.2</ele><time>2021-02-17T15:26:11Z</time><name>PT11944</name></trkpt>
<trkpt lat="53.452651" lon="05.713001"><ele>-1.1</ele><time>2021-02-17T15:26:12Z</time><name>PT11945</name></trkpt>
<trkpt lat="53.452660" lon="05.713003"><ele>0.9</ele><time>2021-02-17T15:26:13Z</time><name>PT11946</name></trkpt>
<trkpt lat="53.452670" lon="05.713006"><ele>-1.2</ele><time>2021-02-17T15:26:14Z</time><name>PT11947</name></trkpt>
<trkpt lat="53.452680" lon="05.713011"><ele>-1.2</ele><time>2021-02-17T15:26:15Z</time><name>PT11948</name></trkpt>
<trkpt lat="53.452689" lon="05.713016"><ele>-1.2</ele><time>2021-02-17T15:26:16Z</time><name>PT11949</name></trkpt>
<trkpt lat="53.452700" lon="05.713019"><ele>-1.2</ele><time>2021-02-17T15:26:17Z</time><name>PT11950</name></trkpt>
<trkpt lat="53.452709" lon="05.713021"><ele>-1.1</ele><time>2021-02-17T15:26:18Z</time><name>PT11951</name></trkpt>
<trkpt lat="53.452721" lon="05.713023"><ele>-1.1</ele><time>2021-02-17T15:26:19Z</time><name>PT11952</name></trkpt>
<trkpt lat="53.452728" lon="05.713028"><ele>-1.2</ele><time>2021-02-17T15:26:20Z</time><name>PT11953</name></trkpt>
<trkpt lat="53.452735" lon="05.713035"><ele>-1.2</ele><time>2021-02-17T15:26:21Z</time><name>PT11954</name></trkpt>
<trkpt lat="53.452744" lon="05.713044"><ele>0.9</ele><time>2021-02-17T15:26:22Z</time><name>PT11955</name></trkpt>
<trkpt lat="53.452756" lon="05.713053"><ele>0.9</ele><time>2021-02-17T15:26:23Z</time><name>PT11956</name></trkpt>
<trkpt lat="53.452764" lon="05.713062"><ele>0.9</ele><time>2021-02-17T15:26:24Z</time><name>PT11957</name></trkpt>
<trkpt lat="53.452772" lon="05.713065"><ele>0.9</ele><time>2021-02-17T15:26:25Z</time><name>PT11958</name></trkpt>
<trkpt lat="53.452782" lon="05.713065"><ele>0.8</ele><time>2021-02-17T15:26:26Z</time><name>PT11959</name></trkpt>
<trkpt lat="53.452791" lon="05.713068"><ele>0.9</ele><time>2021-02-17T15:26:27Z</time><name>PT11960</name></trkpt>
<trkpt lat="53.452798" lon="05.713073"><ele>0.9</ele><time>2021-02-17T15:26:28Z</time><name>PT11961</name></trkpt>
<trkpt lat="53.452803" lon="05.713077"><ele>0.8</ele><time>2021-02-17T15:26:29Z</time><name>PT11962</name></trkpt>
<trkpt lat="53.452813" lon="05.713081"><ele>0.7</ele><time>2021-02-17T15:26:30Z</time><name>PT11963</name></trkpt>
<trkpt lat="53.452822" lon="05.713085"><ele>0.6</ele><time>2021-02-17T15:26:31Z</time><name>PT11964</name></trkpt>
<trkpt lat="53.452828" lon="05.713089"><ele>0.5</ele><time>2021-02-17T15:26:32Z</time><name>PT11965</name></trkpt>
<trkpt lat="53.452834" lon="05.713094"><ele>0.6</ele><time>2021-02-17T15:26:33Z</time><name>PT11966</name></trkpt>
<trkpt lat="53.452842" lon="05.713104"><ele>0.7</ele><time>2021-02-17T15:26:34Z</time><name>PT11967</name></trkpt>
<trkpt lat="53.452846" lon="05.713119"><ele>0.9</ele><time>2021-02-17T15:26:35Z</time><name>PT11968</name></trkpt>
<trkpt lat="53.452850" lon="05.713135"><ele>-1.2</ele><time>2021-02-17T15:26:36Z</time><name>PT11969</name></trkpt>
<trkpt lat="53.452852" lon="05.713148"><ele>-1.3</ele><time>2021-02-17T15:26:37Z</time><name>PT11970</name></trkpt>
<trkpt lat="53.452857" lon="05.713158"><ele>-1.5</ele><time>2021-02-17T15:26:38Z</time><name>PT11971</name></trkpt>
<trkpt lat="53.452864" lon="05.713165"><ele>-1.6</ele><time>2021-02-17T15:26:39Z</time><name>PT11972</name></trkpt>
<trkpt lat="53.452872" lon="05.713171"><ele>-1.6</ele><time>2021-02-17T15:26:40Z</time><name>PT11973</name></trkpt>
<trkpt lat="53.452880" lon="05.713176"><ele>-1.6</ele><time>2021-02-17T15:26:41Z</time><name>PT11974</name></trkpt>
<trkpt lat="53.452889" lon="05.713180"><ele>-1.8</ele><time>2021-02-17T15:26:42Z</time><name>PT11975</name></trkpt>
<trkpt lat="53.452895" lon="05.713183"><ele>-1.9</ele><time>2021-02-17T15:26:43Z</time><name>PT11976</name></trkpt>
<trkpt lat="53.452904" lon="05.713186"><ele>-1.9</ele><time>2021-02-17T15:26:44Z</time><name>PT11977</name></trkpt>
<trkpt lat="53.452913" lon="05.713189"><ele>-1.9</ele><time>2021-02-17T15:26:45Z</time><name>PT11978</name></trkpt>
<trkpt lat="53.452921" lon="05.713192"><ele>-1.7</ele><time>2021-02-17T15:26:46Z</time><name>PT11979</name></trkpt>
<trkpt lat="53.452928" lon="05.713194"><ele>-1.8</ele><time>2021-02-17T15:26:47Z</time><name>PT11980</name></trkpt>
<trkpt lat="53.452936" lon="05.713195"><ele>-1.8</ele><time>2021-02-17T15:26:48Z</time><name>PT11981</name></trkpt>
<trkpt lat="53.452942" lon="05.713194"><ele>-1.8</ele><time>2021-02-17T15:26:49Z</time><name>PT11982</name></trkpt>
<trkpt lat="53.452947" lon="05.713192"><ele>-1.9</ele><time>2021-02-17T15:26:50Z</time><name>PT11983</name></trkpt>
<trkpt lat="53.452953" lon="05.713184"><ele>-1.9</ele><time>2021-02-17T15:26:51Z</time><name>PT11984</name></trkpt>
<trkpt lat="53.452959" lon="05.713175"><ele>-1.8</ele><time>2021-02-17T15:26:52Z</time><name>PT11985</name></trkpt>
<trkpt lat="53.452966" lon="05.713171"><ele>-1.9</ele><time>2021-02-17T15:26:53Z</time><name>PT11986</name></trkpt>
<trkpt lat="53.452975" lon="05.713168"><ele>-1.9</ele><time>2021-02-17T15:26:54Z</time><name>PT11987</name></trkpt>
<trkpt lat="53.452985" lon="05.713164"><ele>-1.8</ele><time>2021-02-17T15:26:55Z</time><name>PT11988</name></trkpt>
<trkpt lat="53.452993" lon="05.713160"><ele>-1.8</ele><time>2021-02-17T15:26:56Z</time><name>PT11989</name></trkpt>
<trkpt lat="53.453001" lon="05.713155"><ele>-1.9</ele><time>2021-02-17T15:26:57Z</time><name>PT11990</name></trkpt>
<trkpt lat="53.453009" lon="05.713151"><ele>-2</ele><time>2021-02-17T15:26:58Z</time><name>PT11991</name></trkpt>
<trkpt lat="53.453017" lon="05.713150"><ele>-2.2</ele><time>2021-02-17T15:26:59Z</time><name>PT11992</name></trkpt>
<trkpt lat="53.453024" lon="05.713154"><ele>-2.3</ele><time>2021-02-17T15:27:00Z</time><name>PT11993</name></trkpt>
<trkpt lat="53.453029" lon="05.713161"><ele>-2.3</ele><time>2021-02-17T15:27:01Z</time><name>PT11994</name></trkpt>
<trkpt lat="53.453033" lon="05.713168"><ele>-1.9</ele><time>2021-02-17T15:27:02Z</time><name>PT11995</name></trkpt>
<trkpt lat="53.453038" lon="05.713172"><ele>-1.9</ele><time>2021-02-17T15:27:03Z</time><name>PT11996</name></trkpt>
<trkpt lat="53.453040" lon="05.713172"><ele>-1.8</ele><time>2021-02-17T15:27:04Z</time><name>PT11997</name></trkpt>
<trkpt lat="53.453044" lon="05.713169"><ele>-1.6</ele><time>2021-02-17T15:27:05Z</time><name>PT11998</name></trkpt>
<trkpt lat="53.453046" lon="05.713174"><ele>-1.4</ele><time>2021-02-17T15:27:06Z</time><name>PT11999</name></trkpt>
<trkpt lat="53.453053" lon="05.713183"><ele>-1.6</ele><time>2021-02-17T15:27:07Z</time><name>PT12000</name></trkpt>
<trkpt lat="53.453059" lon="05.713194"><ele>-1.4</ele><time>2021-02-17T15:27:08Z</time><name>PT12001</name></trkpt>
<trkpt lat="53.453064" lon="05.713206"><ele>-1.4</ele><time>2021-02-17T15:27:09Z</time><name>PT12002</name></trkpt>
<trkpt lat="53.453066" lon="05.713219"><ele>-1.6</ele><time>2021-02-17T15:27:10Z</time><name>PT12003</name></trkpt>
<trkpt lat="53.453067" lon="05.713231"><ele>-1.7</ele><time>2021-02-17T15:27:11Z</time><name>PT12004</name></trkpt>
<trkpt lat="53.453070" lon="05.713245"><ele>-1.6</ele><time>2021-02-17T15:27:12Z</time><name>PT12005</name></trkpt>
<trkpt lat="53.453072" lon="05.713259"><ele>-1.6</ele><time>2021-02-17T15:27:13Z</time><name>PT12006</name></trkpt>
<trkpt lat="53.453076" lon="05.713271"><ele>-1.5</ele><time>2021-02-17T15:27:14Z</time><name>PT12007</name></trkpt>
<trkpt lat="53.453082" lon="05.713280"><ele>-1.6</ele><time>2021-02-17T15:27:15Z</time><name>PT12008</name></trkpt>
<trkpt lat="53.453088" lon="05.713289"><ele>-1.6</ele><time>2021-02-17T15:27:16Z</time><name>PT12009</name></trkpt>
<trkpt lat="53.453093" lon="05.713298"><ele>-1.7</ele><time>2021-02-17T15:27:17Z</time><name>PT12010</name></trkpt>
<trkpt lat="53.453099" lon="05.713309"><ele>-1.7</ele><time>2021-02-17T15:27:18Z</time><name>PT12011</name></trkpt>
<trkpt lat="53.453104" lon="05.713318"><ele>-1.7</ele><time>2021-02-17T15:27:19Z</time><name>PT12012</name></trkpt>
<trkpt lat="53.453108" lon="05.713326"><ele>-1.5</ele><time>2021-02-17T15:27:20Z</time><name>PT12013</name></trkpt>
<trkpt lat="53.453113" lon="05.713334"><ele>-1.4</ele><time>2021-02-17T15:27:21Z</time><name>PT12014</name></trkpt>
<trkpt lat="53.453117" lon="05.713338"><ele>-1.2</ele><time>2021-02-17T15:27:22Z</time><name>PT12015</name></trkpt>
<trkpt lat="53.453120" lon="05.713343"><ele>0.9</ele><time>2021-02-17T15:27:23Z</time><name>PT12016</name></trkpt>
<trkpt lat="53.453124" lon="05.713350"><ele>0.9</ele><time>2021-02-17T15:27:24Z</time><name>PT12017</name></trkpt>
<trkpt lat="53.453127" lon="05.713353"><ele>0.9</ele><time>2021-02-17T15:27:25Z</time><name>PT12018</name></trkpt>
<trkpt lat="53.453131" lon="05.713357"><ele>0.9</ele><time>2021-02-17T15:27:26Z</time><name>PT12019</name></trkpt>
<trkpt lat="53.453134" lon="05.713362"><ele>0.2</ele><time>2021-02-17T15:27:34Z</time><name>PT12020</name></trkpt>
<trkpt lat="53.453142" lon="05.713375"><ele>0.3</ele><time>2021-02-17T15:27:35Z</time><name>PT12021</name></trkpt>
<trkpt lat="53.453146" lon="05.713378"><ele>0.4</ele><time>2021-02-17T15:27:36Z</time><name>PT12022</name></trkpt>
<trkpt lat="53.453152" lon="05.713384"><ele>0.5</ele><time>2021-02-17T15:27:37Z</time><name>PT12023</name></trkpt>
<trkpt lat="53.453160" lon="05.713392"><ele>0.5</ele><time>2021-02-17T15:27:38Z</time><name>PT12024</name></trkpt>
<trkpt lat="53.453167" lon="05.713393"><ele>0.4</ele><time>2021-02-17T15:27:39Z</time><name>PT12025</name></trkpt>
<trkpt lat="53.453175" lon="05.713395"><ele>0.4</ele><time>2021-02-17T15:27:40Z</time><name>PT12026</name></trkpt>
<trkpt lat="53.453178" lon="05.713400"><ele>0.4</ele><time>2021-02-17T15:27:41Z</time><name>PT12027</name></trkpt>
<trkpt lat="53.453179" lon="05.713405"><ele>0.4</ele><time>2021-02-17T15:27:42Z</time><name>PT12028</name></trkpt>
<trkpt lat="53.453182" lon="05.713411"><ele>0.6</ele><time>2021-02-17T15:27:43Z</time><name>PT12029</name></trkpt>
<trkpt lat="53.453187" lon="05.713422"><ele>0.4</ele><time>2021-02-17T15:27:44Z</time><name>PT12030</name></trkpt>
<trkpt lat="53.453185" lon="05.713421"><ele>0.4</ele><time>2021-02-17T15:27:46Z</time><name>PT12031</name></trkpt>
<trkpt lat="53.453184" lon="05.713438"><ele>0.4</ele><time>2021-02-17T15:27:47Z</time><name>PT12032</name></trkpt>
<trkpt lat="53.453185" lon="05.713448"><ele>0.7</ele><time>2021-02-17T15:27:48Z</time><name>PT12033</name></trkpt>
<trkpt lat="53.453186" lon="05.713462"><ele>1</ele><time>2021-02-17T15:27:49Z</time><name>PT12034</name></trkpt>
<trkpt lat="53.453185" lon="05.713477"><ele>1.2</ele><time>2021-02-17T15:27:50Z</time><name>PT12035</name></trkpt>
<trkpt lat="53.453182" lon="05.713492"><ele>1.3</ele><time>2021-02-17T15:27:51Z</time><name>PT12036</name></trkpt>
<trkpt lat="53.453177" lon="05.713506"><ele>1.4</ele><time>2021-02-17T15:27:52Z</time><name>PT12037</name></trkpt>
<trkpt lat="53.453173" lon="05.713520"><ele>1.4</ele><time>2021-02-17T15:27:53Z</time><name>PT12038</name></trkpt>
<trkpt lat="53.453173" lon="05.713537"><ele>1.2</ele><time>2021-02-17T15:27:54Z</time><name>PT12039</name></trkpt>
<trkpt lat="53.453172" lon="05.713555"><ele>1.4</ele><time>2021-02-17T15:27:55Z</time><name>PT12040</name></trkpt>
<trkpt lat="53.453170" lon="05.713573"><ele>1.3</ele><time>2021-02-17T15:27:56Z</time><name>PT12041</name></trkpt>
<trkpt lat="53.453166" lon="05.713587"><ele>1.3</ele><time>2021-02-17T15:27:57Z</time><name>PT12042</name></trkpt>
<trkpt lat="53.453161" lon="05.713599"><ele>1.5</ele><time>2021-02-17T15:27:58Z</time><name>PT12043</name></trkpt>
<trkpt lat="53.453156" lon="05.713615"><ele>1.6</ele><time>2021-02-17T15:27:59Z</time><name>PT12044</name></trkpt>
<trkpt lat="53.453153" lon="05.713633"><ele>1.6</ele><time>2021-02-17T15:28:00Z</time><name>PT12045</name></trkpt>
<trkpt lat="53.453147" lon="05.713650"><ele>1.6</ele><time>2021-02-17T15:28:01Z</time><name>PT12046</name></trkpt>
<trkpt lat="53.453147" lon="05.713667"><ele>1.4</ele><time>2021-02-17T15:28:02Z</time><name>PT12047</name></trkpt>
<trkpt lat="53.453149" lon="05.713683"><ele>1.4</ele><time>2021-02-17T15:28:03Z</time><name>PT12048</name></trkpt>
<trkpt lat="53.453149" lon="05.713696"><ele>1.2</ele><time>2021-02-17T15:28:04Z</time><name>PT12049</name></trkpt>
<trkpt lat="53.453147" lon="05.713707"><ele>1.4</ele><time>2021-02-17T15:28:05Z</time><name>PT12050</name></trkpt>
<trkpt lat="53.453145" lon="05.713722"><ele>1.3</ele><time>2021-02-17T15:28:06Z</time><name>PT12051</name></trkpt>
<trkpt lat="53.453141" lon="05.713739"><ele>1.4</ele><time>2021-02-17T15:28:07Z</time><name>PT12052</name></trkpt>
<trkpt lat="53.453138" lon="05.713753"><ele>1.6</ele><time>2021-02-17T15:28:08Z</time><name>PT12053</name></trkpt>
<trkpt lat="53.453133" lon="05.713769"><ele>1.5</ele><time>2021-02-17T15:28:09Z</time><name>PT12054</name></trkpt>
<trkpt lat="53.453130" lon="05.713787"><ele>1.6</ele><time>2021-02-17T15:28:10Z</time><name>PT12055</name></trkpt>
<trkpt lat="53.453128" lon="05.713805"><ele>1.4</ele><time>2021-02-17T15:28:11Z</time><name>PT12056</name></trkpt>
<trkpt lat="53.453126" lon="05.713820"><ele>1.3</ele><time>2021-02-17T15:28:12Z</time><name>PT12057</name></trkpt>
<trkpt lat="53.453125" lon="05.713836"><ele>1.1</ele><time>2021-02-17T15:28:13Z</time><name>PT12058</name></trkpt>
<trkpt lat="53.453122" lon="05.713853"><ele>1.2</ele><time>2021-02-17T15:28:14Z</time><name>PT12059</name></trkpt>
<trkpt lat="53.453119" lon="05.713868"><ele>1.2</ele><time>2021-02-17T15:28:15Z</time><name>PT12060</name></trkpt>
<trkpt lat="53.453115" lon="05.713883"><ele>1.3</ele><time>2021-02-17T15:28:16Z</time><name>PT12061</name></trkpt>
<trkpt lat="53.453110" lon="05.713897"><ele>1.2</ele><time>2021-02-17T15:28:17Z</time><name>PT12062</name></trkpt>
<trkpt lat="53.453106" lon="05.713910"><ele>1.3</ele><time>2021-02-17T15:28:18Z</time><name>PT12063</name></trkpt>
<trkpt lat="53.453104" lon="05.713925"><ele>1.4</ele><time>2021-02-17T15:28:19Z</time><name>PT12064</name></trkpt>
<trkpt lat="53.453102" lon="05.713938"><ele>1.4</ele><time>2021-02-17T15:28:20Z</time><name>PT12065</name></trkpt>
<trkpt lat="53.453099" lon="05.713951"><ele>1.4</ele><time>2021-02-17T15:28:21Z</time><name>PT12066</name></trkpt>
<trkpt lat="53.453097" lon="05.713969"><ele>1.5</ele><time>2021-02-17T15:28:22Z</time><name>PT12067</name></trkpt>
<trkpt lat="53.453093" lon="05.713992"><ele>1.9</ele><time>2021-02-17T15:28:23Z</time><name>PT12068</name></trkpt>
<trkpt lat="53.453091" lon="05.714014"><ele>2.1</ele><time>2021-02-17T15:28:24Z</time><name>PT12069</name></trkpt>
<trkpt lat="53.453088" lon="05.714035"><ele>1.9</ele><time>2021-02-17T15:28:25Z</time><name>PT12070</name></trkpt>
<trkpt lat="53.453083" lon="05.714050"><ele>2.2</ele><time>2021-02-17T15:28:26Z</time><name>PT12071</name></trkpt>
<trkpt lat="53.453079" lon="05.714064"><ele>2.1</ele><time>2021-02-17T15:28:27Z</time><name>PT12072</name></trkpt>
<trkpt lat="53.453074" lon="05.714081"><ele>1.9</ele><time>2021-02-17T15:28:28Z</time><name>PT12073</name></trkpt>
<trkpt lat="53.453073" lon="05.714096"><ele>1.9</ele><time>2021-02-17T15:28:29Z</time><name>PT12074</name></trkpt>
<trkpt lat="53.453072" lon="05.714110"><ele>1.6</ele><time>2021-02-17T15:28:30Z</time><name>PT12075</name></trkpt>
<trkpt lat="53.453069" lon="05.714123"><ele>1.2</ele><time>2021-02-17T15:28:31Z</time><name>PT12076</name></trkpt>
<trkpt lat="53.453063" lon="05.714136"><ele>1.3</ele><time>2021-02-17T15:28:32Z</time><name>PT12077</name></trkpt>
<trkpt lat="53.453058" lon="05.714152"><ele>1.2</ele><time>2021-02-17T15:28:33Z</time><name>PT12078</name></trkpt>
<trkpt lat="53.453055" lon="05.714164"><ele>1.3</ele><time>2021-02-17T15:28:34Z</time><name>PT12079</name></trkpt>
<trkpt lat="53.453052" lon="05.714177"><ele>1.4</ele><time>2021-02-17T15:28:35Z</time><name>PT12080</name></trkpt>
<trkpt lat="53.453050" lon="05.714190"><ele>1.4</ele><time>2021-02-17T15:28:36Z</time><name>PT12081</name></trkpt>
<trkpt lat="53.453047" lon="05.714202"><ele>1.2</ele><time>2021-02-17T15:28:37Z</time><name>PT12082</name></trkpt>
<trkpt lat="53.453043" lon="05.714215"><ele>1.2</ele><time>2021-02-17T15:28:38Z</time><name>PT12083</name></trkpt>
<trkpt lat="53.453040" lon="05.714229"><ele>1.1</ele><time>2021-02-17T15:28:39Z</time><name>PT12084</name></trkpt>
<trkpt lat="53.453036" lon="05.714243"><ele>1.3</ele><time>2021-02-17T15:28:40Z</time><name>PT12085</name></trkpt>
<trkpt lat="53.453033" lon="05.714258"><ele>1.3</ele><time>2021-02-17T15:28:41Z</time><name>PT12086</name></trkpt>
<trkpt lat="53.453030" lon="05.714273"><ele>1.3</ele><time>2021-02-17T15:28:42Z</time><name>PT12087</name></trkpt>
<trkpt lat="53.453025" lon="05.714286"><ele>1</ele><time>2021-02-17T15:28:43Z</time><name>PT12088</name></trkpt>
<trkpt lat="53.453022" lon="05.714300"><ele>0.9</ele><time>2021-02-17T15:28:44Z</time><name>PT12089</name></trkpt>
<trkpt lat="53.453020" lon="05.714315"><ele>0.9</ele><time>2021-02-17T15:28:45Z</time><name>PT12090</name></trkpt>
<trkpt lat="53.453018" lon="05.714327"><ele>0.9</ele><time>2021-02-17T15:28:46Z</time><name>PT12091</name></trkpt>
<trkpt lat="53.453016" lon="05.714339"><ele>0.9</ele><time>2021-02-17T15:28:47Z</time><name>PT12092</name></trkpt>
<trkpt lat="53.453012" lon="05.714350"><ele>1.1</ele><time>2021-02-17T15:28:48Z</time><name>PT12093</name></trkpt>
<trkpt lat="53.453008" lon="05.714362"><ele>0.9</ele><time>2021-02-17T15:28:49Z</time><name>PT12094</name></trkpt>
<trkpt lat="53.453002" lon="05.714376"><ele>0.9</ele><time>2021-02-17T15:28:50Z</time><name>PT12095</name></trkpt>
<trkpt lat="53.452999" lon="05.714386"><ele>0.8</ele><time>2021-02-17T15:28:51Z</time><name>PT12096</name></trkpt>
<trkpt lat="53.452996" lon="05.714399"><ele>0.8</ele><time>2021-02-17T15:28:52Z</time><name>PT12097</name></trkpt>
<trkpt lat="53.452995" lon="05.714413"><ele>0.9</ele><time>2021-02-17T15:28:53Z</time><name>PT12098</name></trkpt>
<trkpt lat="53.452992" lon="05.714427"><ele>0.7</ele><time>2021-02-17T15:28:54Z</time><name>PT12099</name></trkpt>
<trkpt lat="53.452989" lon="05.714439"><ele>0.4</ele><time>2021-02-17T15:28:55Z</time><name>PT12100</name></trkpt>
<trkpt lat="53.452985" lon="05.714446"><ele>0.4</ele><time>2021-02-17T15:28:56Z</time><name>PT12101</name></trkpt>
<trkpt lat="53.452982" lon="05.714455"><ele>0.5</ele><time>2021-02-17T15:28:57Z</time><name>PT12102</name></trkpt>
<trkpt lat="53.452979" lon="05.714463"><ele>0.7</ele><time>2021-02-17T15:28:58Z</time><name>PT12103</name></trkpt>
<trkpt lat="53.452975" lon="05.714475"><ele>1.4</ele><time>2021-02-17T15:28:59Z</time><name>PT12104</name></trkpt>
<trkpt lat="53.452971" lon="05.714487"><ele>1.5</ele><time>2021-02-17T15:29:00Z</time><name>PT12105</name></trkpt>
<trkpt lat="53.452967" lon="05.714496"><ele>1.5</ele><time>2021-02-17T15:29:01Z</time><name>PT12106</name></trkpt>
<trkpt lat="53.452964" lon="05.714510"><ele>1.4</ele><time>2021-02-17T15:29:02Z</time><name>PT12107</name></trkpt>
<trkpt lat="53.452960" lon="05.714521"><ele>1.1</ele><time>2021-02-17T15:29:03Z</time><name>PT12108</name></trkpt>
<trkpt lat="53.452957" lon="05.714535"><ele>1</ele><time>2021-02-17T15:29:04Z</time><name>PT12109</name></trkpt>
<trkpt lat="53.452953" lon="05.714549"><ele>0.9</ele><time>2021-02-17T15:29:05Z</time><name>PT12110</name></trkpt>
<trkpt lat="53.452948" lon="05.714566"><ele>0.9</ele><time>2021-02-17T15:29:06Z</time><name>PT12111</name></trkpt>
<trkpt lat="53.452942" lon="05.714583"><ele>4</ele><time>2021-02-17T15:29:07Z</time><name>PT12112</name></trkpt>
<trkpt lat="53.452935" lon="05.714598"><ele>3.8</ele><time>2021-02-17T15:29:08Z</time><name>PT12113</name></trkpt>
<trkpt lat="53.452929" lon="05.714613"><ele>3.9</ele><time>2021-02-17T15:29:09Z</time><name>PT12114</name></trkpt>
<trkpt lat="53.452924" lon="05.714629"><ele>4</ele><time>2021-02-17T15:29:10Z</time><name>PT12115</name></trkpt>
<trkpt lat="53.452920" lon="05.714643"><ele>4</ele><time>2021-02-17T15:29:11Z</time><name>PT12116</name></trkpt>
<trkpt lat="53.452916" lon="05.714657"><ele>4</ele><time>2021-02-17T15:29:12Z</time><name>PT12117</name></trkpt>
<trkpt lat="53.452911" lon="05.714673"><ele>3.9</ele><time>2021-02-17T15:29:13Z</time><name>PT12118</name></trkpt>
<trkpt lat="53.452906" lon="05.714689"><ele>3.7</ele><time>2021-02-17T15:29:14Z</time><name>PT12119</name></trkpt>
<trkpt lat="53.452900" lon="05.714707"><ele>3.7</ele><time>2021-02-17T15:29:15Z</time><name>PT12120</name></trkpt>
<trkpt lat="53.452895" lon="05.714721"><ele>3.5</ele><time>2021-02-17T15:29:16Z</time><name>PT12121</name></trkpt>
<trkpt lat="53.452891" lon="05.714735"><ele>3.7</ele><time>2021-02-17T15:29:17Z</time><name>PT12122</name></trkpt>
<trkpt lat="53.452886" lon="05.714751"><ele>3.8</ele><time>2021-02-17T15:29:18Z</time><name>PT12123</name></trkpt>
<trkpt lat="53.452882" lon="05.714766"><ele>4.1</ele><time>2021-02-17T15:29:19Z</time><name>PT12124</name></trkpt>
<trkpt lat="53.452878" lon="05.714782"><ele>4.4</ele><time>2021-02-17T15:29:20Z</time><name>PT12125</name></trkpt>
<trkpt lat="53.452875" lon="05.714797"><ele>4.4</ele><time>2021-02-17T15:29:21Z</time><name>PT12126</name></trkpt>
<trkpt lat="53.452870" lon="05.714810"><ele>4.5</ele><time>2021-02-17T15:29:22Z</time><name>PT12127</name></trkpt>
<trkpt lat="53.452866" lon="05.714829"><ele>4.5</ele><time>2021-02-17T15:29:23Z</time><name>PT12128</name></trkpt>
<trkpt lat="53.452864" lon="05.714844"><ele>4.5</ele><time>2021-02-17T15:29:24Z</time><name>PT12129</name></trkpt>
<trkpt lat="53.452861" lon="05.714861"><ele>4.4</ele><time>2021-02-17T15:29:25Z</time><name>PT12130</name></trkpt>
<trkpt lat="53.452859" lon="05.714876"><ele>4.3</ele><time>2021-02-17T15:29:26Z</time><name>PT12131</name></trkpt>
<trkpt lat="53.452857" lon="05.714894"><ele>4.3</ele><time>2021-02-17T15:29:27Z</time><name>PT12132</name></trkpt>
<trkpt lat="53.452857" lon="05.714917"><ele>4.2</ele><time>2021-02-17T15:29:28Z</time><name>PT12133</name></trkpt>
<trkpt lat="53.452856" lon="05.714938"><ele>4.2</ele><time>2021-02-17T15:29:29Z</time><name>PT12134</name></trkpt>
<trkpt lat="53.452853" lon="05.714956"><ele>4.1</ele><time>2021-02-17T15:29:30Z</time><name>PT12135</name></trkpt>
<trkpt lat="53.452848" lon="05.714970"><ele>3.8</ele><time>2021-02-17T15:29:31Z</time><name>PT12136</name></trkpt>
<trkpt lat="53.452844" lon="05.714985"><ele>3.7</ele><time>2021-02-17T15:29:32Z</time><name>PT12137</name></trkpt>
<trkpt lat="53.452839" lon="05.715000"><ele>3.7</ele><time>2021-02-17T15:29:33Z</time><name>PT12138</name></trkpt>
<trkpt lat="53.452836" lon="05.715020"><ele>3.5</ele><time>2021-02-17T15:29:34Z</time><name>PT12139</name></trkpt>
<trkpt lat="53.452836" lon="05.715037"><ele>3.7</ele><time>2021-02-17T15:29:35Z</time><name>PT12140</name></trkpt>
<trkpt lat="53.452835" lon="05.715053"><ele>3.6</ele><time>2021-02-17T15:29:36Z</time><name>PT12141</name></trkpt>
<trkpt lat="53.452833" lon="05.715070"><ele>3.7</ele><time>2021-02-17T15:29:37Z</time><name>PT12142</name></trkpt>
<trkpt lat="53.452831" lon="05.715087"><ele>3.6</ele><time>2021-02-17T15:29:38Z</time><name>PT12143</name></trkpt>
<trkpt lat="53.452829" lon="05.715104"><ele>3.7</ele><time>2021-02-17T15:29:39Z</time><name>PT12144</name></trkpt>
<trkpt lat="53.452827" lon="05.715122"><ele>3.8</ele><time>2021-02-17T15:29:40Z</time><name>PT12145</name></trkpt>
<trkpt lat="53.452823" lon="05.715137"><ele>3.9</ele><time>2021-02-17T15:29:41Z</time><name>PT12146</name></trkpt>
<trkpt lat="53.452821" lon="05.715151"><ele>3.8</ele><time>2021-02-17T15:29:42Z</time><name>PT12147</name></trkpt>
<trkpt lat="53.452817" lon="05.715168"><ele>3.8</ele><time>2021-02-17T15:29:43Z</time><name>PT12148</name></trkpt>
<trkpt lat="53.452815" lon="05.715183"><ele>3.7</ele><time>2021-02-17T15:29:44Z</time><name>PT12149</name></trkpt>
<trkpt lat="53.452811" lon="05.715199"><ele>3.7</ele><time>2021-02-17T15:29:45Z</time><name>PT12150</name></trkpt>
<trkpt lat="53.452807" lon="05.715212"><ele>3.7</ele><time>2021-02-17T15:29:46Z</time><name>PT12151</name></trkpt>
<trkpt lat="53.452804" lon="05.715225"><ele>3.7</ele><time>2021-02-17T15:29:47Z</time><name>PT12152</name></trkpt>
<trkpt lat="53.452802" lon="05.715240"><ele>3.6</ele><time>2021-02-17T15:29:48Z</time><name>PT12153</name></trkpt>
<trkpt lat="53.452800" lon="05.715256"><ele>3.6</ele><time>2021-02-17T15:29:49Z</time><name>PT12154</name></trkpt>
<trkpt lat="53.452796" lon="05.715268"><ele>3.7</ele><time>2021-02-17T15:29:50Z</time><name>PT12155</name></trkpt>
<trkpt lat="53.452792" lon="05.715279"><ele>3.5</ele><time>2021-02-17T15:29:51Z</time><name>PT12156</name></trkpt>
<trkpt lat="53.452791" lon="05.715284"><ele>3.3</ele><time>2021-02-17T15:29:52Z</time><name>PT12157</name></trkpt>
<trkpt lat="53.452790" lon="05.715286"><ele>3.3</ele><time>2021-02-17T15:29:53Z</time><name>PT12158</name></trkpt>
<trkpt lat="53.452787" lon="05.715292"><ele>3.3</ele><time>2021-02-17T15:29:54Z</time><name>PT12159</name></trkpt>
<trkpt lat="53.452784" lon="05.715300"><ele>3.3</ele><time>2021-02-17T15:29:55Z</time><name>PT12160</name></trkpt>
<trkpt lat="53.452783" lon="05.715311"><ele>3.4</ele><time>2021-02-17T15:29:56Z</time><name>PT12161</name></trkpt>
<trkpt lat="53.452781" lon="05.715319"><ele>3.2</ele><time>2021-02-17T15:29:57Z</time><name>PT12162</name></trkpt>
<trkpt lat="53.452780" lon="05.715324"><ele>3.3</ele><time>2021-02-17T15:29:58Z</time><name>PT12163</name></trkpt>
<trkpt lat="53.452779" lon="05.715329"><ele>3.5</ele><time>2021-02-17T15:29:59Z</time><name>PT12164</name></trkpt>
<trkpt lat="53.452778" lon="05.715339"><ele>3.5</ele><time>2021-02-17T15:30:00Z</time><name>PT12165</name></trkpt>
<trkpt lat="53.452776" lon="05.715354"><ele>3.8</ele><time>2021-02-17T15:30:01Z</time><name>PT12166</name></trkpt>
<trkpt lat="53.452772" lon="05.715368"><ele>3.8</ele><time>2021-02-17T15:30:02Z</time><name>PT12167</name></trkpt>
<trkpt lat="53.452768" lon="05.715382"><ele>3.7</ele><time>2021-02-17T15:30:03Z</time><name>PT12168</name></trkpt>
<trkpt lat="53.452764" lon="05.715399"><ele>3.6</ele><time>2021-02-17T15:30:04Z</time><name>PT12169</name></trkpt>
<trkpt lat="53.452758" lon="05.715415"><ele>3.5</ele><time>2021-02-17T15:30:05Z</time><name>PT12170</name></trkpt>
<trkpt lat="53.452753" lon="05.715429"><ele>3.6</ele><time>2021-02-17T15:30:06Z</time><name>PT12171</name></trkpt>
<trkpt lat="53.452750" lon="05.715443"><ele>3.5</ele><time>2021-02-17T15:30:07Z</time><name>PT12172</name></trkpt>
<trkpt lat="53.452746" lon="05.715458"><ele>3.7</ele><time>2021-02-17T15:30:08Z</time><name>PT12173</name></trkpt>
<trkpt lat="53.452744" lon="05.715473"><ele>3.6</ele><time>2021-02-17T15:30:09Z</time><name>PT12174</name></trkpt>
<trkpt lat="53.452740" lon="05.715489"><ele>3.6</ele><time>2021-02-17T15:30:10Z</time><name>PT12175</name></trkpt>
<trkpt lat="53.452737" lon="05.715509"><ele>3.7</ele><time>2021-02-17T15:30:11Z</time><name>PT12176</name></trkpt>
<trkpt lat="53.452733" lon="05.715522"><ele>3.7</ele><time>2021-02-17T15:30:12Z</time><name>PT12177</name></trkpt>
<trkpt lat="53.452731" lon="05.715537"><ele>3.7</ele><time>2021-02-17T15:30:13Z</time><name>PT12178</name></trkpt>
<trkpt lat="53.452729" lon="05.715554"><ele>3.9</ele><time>2021-02-17T15:30:14Z</time><name>PT12179</name></trkpt>
<trkpt lat="53.452729" lon="05.715570"><ele>4</ele><time>2021-02-17T15:30:15Z</time><name>PT12180</name></trkpt>
<trkpt lat="53.452728" lon="05.715584"><ele>4.1</ele><time>2021-02-17T15:30:16Z</time><name>PT12181</name></trkpt>
<trkpt lat="53.452725" lon="05.715594"><ele>3.9</ele><time>2021-02-17T15:30:17Z</time><name>PT12182</name></trkpt>
<trkpt lat="53.452725" lon="05.715605"><ele>3.9</ele><time>2021-02-17T15:30:18Z</time><name>PT12183</name></trkpt>
<trkpt lat="53.452723" lon="05.715618"><ele>3.7</ele><time>2021-02-17T15:30:19Z</time><name>PT12184</name></trkpt>
<trkpt lat="53.452721" lon="05.715630"><ele>3.7</ele><time>2021-02-17T15:30:20Z</time><name>PT12185</name></trkpt>
<trkpt lat="53.452719" lon="05.715632"><ele>3.7</ele><time>2021-02-17T15:30:21Z</time><name>PT12186</name></trkpt>
<trkpt lat="53.452716" lon="05.715639"><ele>3.7</ele><time>2021-02-17T15:30:22Z</time><name>PT12187</name></trkpt>
<trkpt lat="53.452715" lon="05.715649"><ele>3.7</ele><time>2021-02-17T15:30:23Z</time><name>PT12188</name></trkpt>
<trkpt lat="53.452716" lon="05.715654"><ele>3.6</ele><time>2021-02-17T15:30:24Z</time><name>PT12189</name></trkpt>
<trkpt lat="53.452716" lon="05.715657"><ele>3.7</ele><time>2021-02-17T15:30:25Z</time><name>PT12190</name></trkpt>
<trkpt lat="53.452719" lon="05.715668"><ele>3.6</ele><time>2021-02-17T15:30:26Z</time><name>PT12191</name></trkpt>
<trkpt lat="53.452719" lon="05.715673"><ele>3.6</ele><time>2021-02-17T15:30:27Z</time><name>PT12192</name></trkpt>
<trkpt lat="53.452721" lon="05.715685"><ele>3.9</ele><time>2021-02-17T15:30:28Z</time><name>PT12193</name></trkpt>
<trkpt lat="53.452719" lon="05.715696"><ele>3.7</ele><time>2021-02-17T15:30:29Z</time><name>PT12194</name></trkpt>
<trkpt lat="53.452715" lon="05.715708"><ele>3.7</ele><time>2021-02-17T15:30:30Z</time><name>PT12195</name></trkpt>
<trkpt lat="53.452708" lon="05.715720"><ele>3.8</ele><time>2021-02-17T15:30:31Z</time><name>PT12196</name></trkpt>
<trkpt lat="53.452700" lon="05.715728"><ele>3.5</ele><time>2021-02-17T15:30:32Z</time><name>PT12197</name></trkpt>
<trkpt lat="53.452695" lon="05.715738"><ele>3.4</ele><time>2021-02-17T15:30:33Z</time><name>PT12198</name></trkpt>
<trkpt lat="53.452691" lon="05.715750"><ele>3.5</ele><time>2021-02-17T15:30:34Z</time><name>PT12199</name></trkpt>
<trkpt lat="53.452686" lon="05.715764"><ele>3.4</ele><time>2021-02-17T15:30:35Z</time><name>PT12200</name></trkpt>
<trkpt lat="53.452684" lon="05.715777"><ele>3.5</ele><time>2021-02-17T15:30:36Z</time><name>PT12201</name></trkpt>
<trkpt lat="53.452682" lon="05.715790"><ele>3.3</ele><time>2021-02-17T15:30:37Z</time><name>PT12202</name></trkpt>
<trkpt lat="53.452675" lon="05.715803"><ele>3.6</ele><time>2021-02-17T15:30:38Z</time><name>PT12203</name></trkpt>
<trkpt lat="53.452666" lon="05.715815"><ele>3.6</ele><time>2021-02-17T15:30:39Z</time><name>PT12204</name></trkpt>
<trkpt lat="53.452659" lon="05.715832"><ele>3.6</ele><time>2021-02-17T15:30:40Z</time><name>PT12205</name></trkpt>
<trkpt lat="53.452654" lon="05.715844"><ele>3.6</ele><time>2021-02-17T15:30:41Z</time><name>PT12206</name></trkpt>
<trkpt lat="53.452649" lon="05.715858"><ele>3.5</ele><time>2021-02-17T15:30:42Z</time><name>PT12207</name></trkpt>
<trkpt lat="53.452644" lon="05.715872"><ele>3.4</ele><time>2021-02-17T15:30:43Z</time><name>PT12208</name></trkpt>
<trkpt lat="53.452640" lon="05.715884"><ele>3.5</ele><time>2021-02-17T15:30:44Z</time><name>PT12209</name></trkpt>
<trkpt lat="53.452635" lon="05.715897"><ele>3.5</ele><time>2021-02-17T15:30:45Z</time><name>PT12210</name></trkpt>
<trkpt lat="53.452633" lon="05.715909"><ele>3.6</ele><time>2021-02-17T15:30:46Z</time><name>PT12211</name></trkpt>
<trkpt lat="53.452629" lon="05.715920"><ele>3.3</ele><time>2021-02-17T15:30:47Z</time><name>PT12212</name></trkpt>
<trkpt lat="53.452623" lon="05.715935"><ele>3.5</ele><time>2021-02-17T15:30:48Z</time><name>PT12213</name></trkpt>
<trkpt lat="53.452618" lon="05.715945"><ele>3.5</ele><time>2021-02-17T15:30:49Z</time><name>PT12214</name></trkpt>
<trkpt lat="53.452614" lon="05.715954"><ele>3.4</ele><time>2021-02-17T15:30:50Z</time><name>PT12215</name></trkpt>
<trkpt lat="53.452611" lon="05.715968"><ele>3.7</ele><time>2021-02-17T15:30:51Z</time><name>PT12216</name></trkpt>
<trkpt lat="53.452607" lon="05.715979"><ele>3.8</ele><time>2021-02-17T15:30:52Z</time><name>PT12217</name></trkpt>
<trkpt lat="53.452603" lon="05.715993"><ele>3.8</ele><time>2021-02-17T15:30:53Z</time><name>PT12218</name></trkpt>
<trkpt lat="53.452600" lon="05.716006"><ele>3.9</ele><time>2021-02-17T15:30:54Z</time><name>PT12219</name></trkpt>
<trkpt lat="53.452597" lon="05.716021"><ele>3.9</ele><time>2021-02-17T15:30:55Z</time><name>PT12220</name></trkpt>
<trkpt lat="53.452594" lon="05.716034"><ele>3.7</ele><time>2021-02-17T15:30:56Z</time><name>PT12221</name></trkpt>
<trkpt lat="53.452592" lon="05.716047"><ele>3.7</ele><time>2021-02-17T15:30:57Z</time><name>PT12222</name></trkpt>
<trkpt lat="53.452588" lon="05.716062"><ele>3.7</ele><time>2021-02-17T15:30:58Z</time><name>PT12223</name></trkpt>
<trkpt lat="53.452584" lon="05.716077"><ele>3.5</ele><time>2021-02-17T15:30:59Z</time><name>PT12224</name></trkpt>
<trkpt lat="53.452579" lon="05.716092"><ele>3.7</ele><time>2021-02-17T15:31:00Z</time><name>PT12225</name></trkpt>
<trkpt lat="53.452575" lon="05.716105"><ele>3.6</ele><time>2021-02-17T15:31:01Z</time><name>PT12226</name></trkpt>
<trkpt lat="53.452571" lon="05.716121"><ele>3.5</ele><time>2021-02-17T15:31:02Z</time><name>PT12227</name></trkpt>
<trkpt lat="53.452564" lon="05.716137"><ele>3.5</ele><time>2021-02-17T15:31:03Z</time><name>PT12228</name></trkpt>
<trkpt lat="53.452559" lon="05.716155"><ele>3.4</ele><time>2021-02-17T15:31:04Z</time><name>PT12229</name></trkpt>
<trkpt lat="53.452555" lon="05.716171"><ele>3.3</ele><time>2021-02-17T15:31:05Z</time><name>PT12230</name></trkpt>
<trkpt lat="53.452552" lon="05.716188"><ele>3.2</ele><time>2021-02-17T15:31:06Z</time><name>PT12231</name></trkpt>
<trkpt lat="53.452549" lon="05.716204"><ele>3.2</ele><time>2021-02-17T15:31:07Z</time><name>PT12232</name></trkpt>
<trkpt lat="53.452547" lon="05.716217"><ele>3</ele><time>2021-02-17T15:31:08Z</time><name>PT12233</name></trkpt>
<trkpt lat="53.452542" lon="05.716230"><ele>3</ele><time>2021-02-17T15:31:09Z</time><name>PT12234</name></trkpt>
<trkpt lat="53.452538" lon="05.716245"><ele>3.3</ele><time>2021-02-17T15:31:10Z</time><name>PT12235</name></trkpt>
<trkpt lat="53.452534" lon="05.716260"><ele>3.3</ele><time>2021-02-17T15:31:11Z</time><name>PT12236</name></trkpt>
<trkpt lat="53.452532" lon="05.716275"><ele>3.4</ele><time>2021-02-17T15:31:12Z</time><name>PT12237</name></trkpt>
<trkpt lat="53.452529" lon="05.716291"><ele>3.4</ele><time>2021-02-17T15:31:13Z</time><name>PT12238</name></trkpt>
<trkpt lat="53.452527" lon="05.716308"><ele>3.4</ele><time>2021-02-17T15:31:14Z</time><name>PT12239</name></trkpt>
<trkpt lat="53.452522" lon="05.716323"><ele>3.4</ele><time>2021-02-17T15:31:15Z</time><name>PT12240</name></trkpt>
<trkpt lat="53.452517" lon="05.716339"><ele>3.7</ele><time>2021-02-17T15:31:16Z</time><name>PT12241</name></trkpt>
<trkpt lat="53.452511" lon="05.716354"><ele>3.6</ele><time>2021-02-17T15:31:17Z</time><name>PT12242</name></trkpt>
<trkpt lat="53.452508" lon="05.716369"><ele>3.7</ele><time>2021-02-17T15:31:18Z</time><name>PT12243</name></trkpt>
<trkpt lat="53.452506" lon="05.716386"><ele>3.5</ele><time>2021-02-17T15:31:19Z</time><name>PT12244</name></trkpt>
<trkpt lat="53.452502" lon="05.716400"><ele>3.3</ele><time>2021-02-17T15:31:20Z</time><name>PT12245</name></trkpt>
<trkpt lat="53.452498" lon="05.716414"><ele>3.2</ele><time>2021-02-17T15:31:21Z</time><name>PT12246</name></trkpt>
<trkpt lat="53.452492" lon="05.716429"><ele>3.2</ele><time>2021-02-17T15:31:22Z</time><name>PT12247</name></trkpt>
<trkpt lat="53.452488" lon="05.716444"><ele>3.2</ele><time>2021-02-17T15:31:23Z</time><name>PT12248</name></trkpt>
<trkpt lat="53.452486" lon="05.716458"><ele>3.3</ele><time>2021-02-17T15:31:24Z</time><name>PT12249</name></trkpt>
<trkpt lat="53.452483" lon="05.716474"><ele>3.2</ele><time>2021-02-17T15:31:25Z</time><name>PT12250</name></trkpt>
<trkpt lat="53.452480" lon="05.716490"><ele>3.2</ele><time>2021-02-17T15:31:26Z</time><name>PT12251</name></trkpt>
<trkpt lat="53.452476" lon="05.716506"><ele>3.2</ele><time>2021-02-17T15:31:27Z</time><name>PT12252</name></trkpt>
<trkpt lat="53.452470" lon="05.716521"><ele>3.2</ele><time>2021-02-17T15:31:28Z</time><name>PT12253</name></trkpt>
<trkpt lat="53.452465" lon="05.716536"><ele>3.3</ele><time>2021-02-17T15:31:29Z</time><name>PT12254</name></trkpt>
<trkpt lat="53.452463" lon="05.716549"><ele>3.7</ele><time>2021-02-17T15:31:30Z</time><name>PT12255</name></trkpt>
<trkpt lat="53.452461" lon="05.716565"><ele>3.4</ele><time>2021-02-17T15:31:31Z</time><name>PT12256</name></trkpt>
<trkpt lat="53.452460" lon="05.716579"><ele>3.5</ele><time>2021-02-17T15:31:32Z</time><name>PT12257</name></trkpt>
<trkpt lat="53.452457" lon="05.716591"><ele>3.4</ele><time>2021-02-17T15:31:33Z</time><name>PT12258</name></trkpt>
<trkpt lat="53.452455" lon="05.716608"><ele>3.3</ele><time>2021-02-17T15:31:34Z</time><name>PT12259</name></trkpt>
<trkpt lat="53.452452" lon="05.716625"><ele>3.4</ele><time>2021-02-17T15:31:35Z</time><name>PT12260</name></trkpt>
<trkpt lat="53.452448" lon="05.716637"><ele>3.2</ele><time>2021-02-17T15:31:36Z</time><name>PT12261</name></trkpt>
<trkpt lat="53.452445" lon="05.716651"><ele>3.3</ele><time>2021-02-17T15:31:37Z</time><name>PT12262</name></trkpt>
<trkpt lat="53.452442" lon="05.716664"><ele>3.6</ele><time>2021-02-17T15:31:38Z</time><name>PT12263</name></trkpt>
<trkpt lat="53.452439" lon="05.716676"><ele>3.7</ele><time>2021-02-17T15:31:39Z</time><name>PT12264</name></trkpt>
<trkpt lat="53.452434" lon="05.716690"><ele>4</ele><time>2021-02-17T15:31:40Z</time><name>PT12265</name></trkpt>
<trkpt lat="53.452430" lon="05.716707"><ele>4.1</ele><time>2021-02-17T15:31:41Z</time><name>PT12266</name></trkpt>
<trkpt lat="53.452428" lon="05.716722"><ele>4</ele><time>2021-02-17T15:31:42Z</time><name>PT12267</name></trkpt>
<trkpt lat="53.452427" lon="05.716738"><ele>3.8</ele><time>2021-02-17T15:31:43Z</time><name>PT12268</name></trkpt>
<trkpt lat="53.452426" lon="05.716756"><ele>3.8</ele><time>2021-02-17T15:31:44Z</time><name>PT12269</name></trkpt>
<trkpt lat="53.452423" lon="05.716771"><ele>3.7</ele><time>2021-02-17T15:31:45Z</time><name>PT12270</name></trkpt>
<trkpt lat="53.452420" lon="05.716785"><ele>3.5</ele><time>2021-02-17T15:31:46Z</time><name>PT12271</name></trkpt>
<trkpt lat="53.452416" lon="05.716801"><ele>3.3</ele><time>2021-02-17T15:31:47Z</time><name>PT12272</name></trkpt>
<trkpt lat="53.452413" lon="05.716817"><ele>3.3</ele><time>2021-02-17T15:31:48Z</time><name>PT12273</name></trkpt>
<trkpt lat="53.452411" lon="05.716829"><ele>3</ele><time>2021-02-17T15:31:49Z</time><name>PT12274</name></trkpt>
<trkpt lat="53.452410" lon="05.716846"><ele>3.2</ele><time>2021-02-17T15:31:50Z</time><name>PT12275</name></trkpt>
<trkpt lat="53.452409" lon="05.716862"><ele>3.2</ele><time>2021-02-17T15:31:51Z</time><name>PT12276</name></trkpt>
<trkpt lat="53.452407" lon="05.716878"><ele>3.2</ele><time>2021-02-17T15:31:52Z</time><name>PT12277</name></trkpt>
<trkpt lat="53.452404" lon="05.716893"><ele>3.6</ele><time>2021-02-17T15:31:53Z</time><name>PT12278</name></trkpt>
<trkpt lat="53.452400" lon="05.716907"><ele>3.6</ele><time>2021-02-17T15:31:54Z</time><name>PT12279</name></trkpt>
<trkpt lat="53.452396" lon="05.716923"><ele>3.5</ele><time>2021-02-17T15:31:55Z</time><name>PT12280</name></trkpt>
<trkpt lat="53.452392" lon="05.716939"><ele>3.4</ele><time>2021-02-17T15:31:56Z</time><name>PT12281</name></trkpt>
<trkpt lat="53.452389" lon="05.716951"><ele>3.4</ele><time>2021-02-17T15:31:57Z</time><name>PT12282</name></trkpt>
<trkpt lat="53.452386" lon="05.716964"><ele>3.2</ele><time>2021-02-17T15:31:58Z</time><name>PT12283</name></trkpt>
<trkpt lat="53.452381" lon="05.716980"><ele>3.1</ele><time>2021-02-17T15:31:59Z</time><name>PT12284</name></trkpt>
<trkpt lat="53.452375" lon="05.716994"><ele>3.1</ele><time>2021-02-17T15:32:00Z</time><name>PT12285</name></trkpt>
<trkpt lat="53.452370" lon="05.717007"><ele>3.3</ele><time>2021-02-17T15:32:01Z</time><name>PT12286</name></trkpt>
<trkpt lat="53.452365" lon="05.717023"><ele>3.5</ele><time>2021-02-17T15:32:02Z</time><name>PT12287</name></trkpt>
<trkpt lat="53.452362" lon="05.717041"><ele>3.6</ele><time>2021-02-17T15:32:03Z</time><name>PT12288</name></trkpt>
<trkpt lat="53.452360" lon="05.717060"><ele>3.7</ele><time>2021-02-17T15:32:04Z</time><name>PT12289</name></trkpt>
<trkpt lat="53.452358" lon="05.717076"><ele>3.8</ele><time>2021-02-17T15:32:05Z</time><name>PT12290</name></trkpt>
<trkpt lat="53.452354" lon="05.717090"><ele>3.9</ele><time>2021-02-17T15:32:06Z</time><name>PT12291</name></trkpt>
<trkpt lat="53.452349" lon="05.717101"><ele>3.9</ele><time>2021-02-17T15:32:07Z</time><name>PT12292</name></trkpt>
<trkpt lat="53.452345" lon="05.717116"><ele>3.9</ele><time>2021-02-17T15:32:08Z</time><name>PT12293</name></trkpt>
<trkpt lat="53.452341" lon="05.717129"><ele>3.9</ele><time>2021-02-17T15:32:09Z</time><name>PT12294</name></trkpt>
<trkpt lat="53.452340" lon="05.717143"><ele>3.7</ele><time>2021-02-17T15:32:10Z</time><name>PT12295</name></trkpt>
<trkpt lat="53.452339" lon="05.717159"><ele>3.7</ele><time>2021-02-17T15:32:11Z</time><name>PT12296</name></trkpt>
<trkpt lat="53.452337" lon="05.717174"><ele>3.7</ele><time>2021-02-17T15:32:12Z</time><name>PT12297</name></trkpt>
<trkpt lat="53.452334" lon="05.717188"><ele>3.7</ele><time>2021-02-17T15:32:13Z</time><name>PT12298</name></trkpt>
<trkpt lat="53.452330" lon="05.717203"><ele>3.8</ele><time>2021-02-17T15:32:14Z</time><name>PT12299</name></trkpt>
<trkpt lat="53.452324" lon="05.717216"><ele>4</ele><time>2021-02-17T15:32:15Z</time><name>PT12300</name></trkpt>
<trkpt lat="53.452317" lon="05.717229"><ele>4.2</ele><time>2021-02-17T15:32:16Z</time><name>PT12301</name></trkpt>
<trkpt lat="53.452312" lon="05.717241"><ele>4.1</ele><time>2021-02-17T15:32:17Z</time><name>PT12302</name></trkpt>
<trkpt lat="53.452308" lon="05.717256"><ele>4.2</ele><time>2021-02-17T15:32:18Z</time><name>PT12303</name></trkpt>
<trkpt lat="53.452305" lon="05.717268"><ele>4.2</ele><time>2021-02-17T15:32:19Z</time><name>PT12304</name></trkpt>
<trkpt lat="53.452303" lon="05.717284"><ele>3.7</ele><time>2021-02-17T15:32:20Z</time><name>PT12305</name></trkpt>
<trkpt lat="53.452302" lon="05.717300"><ele>3.7</ele><time>2021-02-17T15:32:21Z</time><name>PT12306</name></trkpt>
<trkpt lat="53.452298" lon="05.717315"><ele>3.7</ele><time>2021-02-17T15:32:22Z</time><name>PT12307</name></trkpt>
<trkpt lat="53.452293" lon="05.717330"><ele>3.8</ele><time>2021-02-17T15:32:23Z</time><name>PT12308</name></trkpt>
<trkpt lat="53.452289" lon="05.717342"><ele>3.8</ele><time>2021-02-17T15:32:24Z</time><name>PT12309</name></trkpt>
<trkpt lat="53.452285" lon="05.717359"><ele>4</ele><time>2021-02-17T15:32:25Z</time><name>PT12310</name></trkpt>
<trkpt lat="53.452282" lon="05.717376"><ele>4.1</ele><time>2021-02-17T15:32:26Z</time><name>PT12311</name></trkpt>
<trkpt lat="53.452281" lon="05.717393"><ele>4.1</ele><time>2021-02-17T15:32:27Z</time><name>PT12312</name></trkpt>
<trkpt lat="53.452279" lon="05.717407"><ele>3.8</ele><time>2021-02-17T15:32:28Z</time><name>PT12313</name></trkpt>
<trkpt lat="53.452278" lon="05.717423"><ele>3.7</ele><time>2021-02-17T15:32:29Z</time><name>PT12314</name></trkpt>
<trkpt lat="53.452276" lon="05.717440"><ele>3.7</ele><time>2021-02-17T15:32:30Z</time><name>PT12315</name></trkpt>
<trkpt lat="53.452272" lon="05.717452"><ele>3.7</ele><time>2021-02-17T15:32:31Z</time><name>PT12316</name></trkpt>
<trkpt lat="53.452267" lon="05.717464"><ele>3.8</ele><time>2021-02-17T15:32:32Z</time><name>PT12317</name></trkpt>
<trkpt lat="53.452264" lon="05.717482"><ele>4</ele><time>2021-02-17T15:32:33Z</time><name>PT12318</name></trkpt>
<trkpt lat="53.452262" lon="05.717498"><ele>4.3</ele><time>2021-02-17T15:32:34Z</time><name>PT12319</name></trkpt>
<trkpt lat="53.452259" lon="05.717518"><ele>4.4</ele><time>2021-02-17T15:32:35Z</time><name>PT12320</name></trkpt>
<trkpt lat="53.452257" lon="05.717531"><ele>4.3</ele><time>2021-02-17T15:32:36Z</time><name>PT12321</name></trkpt>
<trkpt lat="53.452255" lon="05.717544"><ele>4.4</ele><time>2021-02-17T15:32:37Z</time><name>PT12322</name></trkpt>
<trkpt lat="53.452249" lon="05.717555"><ele>4.4</ele><time>2021-02-17T15:32:38Z</time><name>PT12323</name></trkpt>
<trkpt lat="53.452242" lon="05.717568"><ele>4.2</ele><time>2021-02-17T15:32:39Z</time><name>PT12324</name></trkpt>
<trkpt lat="53.452238" lon="05.717581"><ele>4.2</ele><time>2021-02-17T15:32:40Z</time><name>PT12325</name></trkpt>
<trkpt lat="53.452235" lon="05.717598"><ele>4.1</ele><time>2021-02-17T15:32:41Z</time><name>PT12326</name></trkpt>
<trkpt lat="53.452232" lon="05.717617"><ele>3.9</ele><time>2021-02-17T15:32:42Z</time><name>PT12327</name></trkpt>
<trkpt lat="53.452230" lon="05.717631"><ele>3.7</ele><time>2021-02-17T15:32:43Z</time><name>PT12328</name></trkpt>
<trkpt lat="53.452226" lon="05.717644"><ele>3.4</ele><time>2021-02-17T15:32:44Z</time><name>PT12329</name></trkpt>
<trkpt lat="53.452222" lon="05.717658"><ele>3.4</ele><time>2021-02-17T15:32:45Z</time><name>PT12330</name></trkpt>
<trkpt lat="53.452220" lon="05.717675"><ele>3.3</ele><time>2021-02-17T15:32:46Z</time><name>PT12331</name></trkpt>
<trkpt lat="53.452218" lon="05.717690"><ele>3.4</ele><time>2021-02-17T15:32:47Z</time><name>PT12332</name></trkpt>
<trkpt lat="53.452218" lon="05.717705"><ele>3.6</ele><time>2021-02-17T15:32:48Z</time><name>PT12333</name></trkpt>
<trkpt lat="53.452217" lon="05.717721"><ele>3.7</ele><time>2021-02-17T15:32:49Z</time><name>PT12334</name></trkpt>
<trkpt lat="53.452214" lon="05.717736"><ele>3.7</ele><time>2021-02-17T15:32:50Z</time><name>PT12335</name></trkpt>
<trkpt lat="53.452211" lon="05.717748"><ele>3.6</ele><time>2021-02-17T15:32:51Z</time><name>PT12336</name></trkpt>
<trkpt lat="53.452206" lon="05.717763"><ele>3.4</ele><time>2021-02-17T15:32:52Z</time><name>PT12337</name></trkpt>
<trkpt lat="53.452201" lon="05.717777"><ele>3.3</ele><time>2021-02-17T15:32:53Z</time><name>PT12338</name></trkpt>
<trkpt lat="53.452196" lon="05.717793"><ele>3.3</ele><time>2021-02-17T15:32:54Z</time><name>PT12339</name></trkpt>
<trkpt lat="53.452191" lon="05.717809"><ele>3.1</ele><time>2021-02-17T15:32:55Z</time><name>PT12340</name></trkpt>
<trkpt lat="53.452187" lon="05.717826"><ele>3</ele><time>2021-02-17T15:32:56Z</time><name>PT12341</name></trkpt>
<trkpt lat="53.452184" lon="05.717842"><ele>2.9</ele><time>2021-02-17T15:32:57Z</time><name>PT12342</name></trkpt>
<trkpt lat="53.452180" lon="05.717857"><ele>3</ele><time>2021-02-17T15:32:58Z</time><name>PT12343</name></trkpt>
<trkpt lat="53.452174" lon="05.717871"><ele>3.4</ele><time>2021-02-17T15:32:59Z</time><name>PT12344</name></trkpt>
<trkpt lat="53.452168" lon="05.717882"><ele>3.5</ele><time>2021-02-17T15:33:00Z</time><name>PT12345</name></trkpt>
<trkpt lat="53.452162" lon="05.717895"><ele>3.8</ele><time>2021-02-17T15:33:01Z</time><name>PT12346</name></trkpt>
<trkpt lat="53.452155" lon="05.717909"><ele>3.9</ele><time>2021-02-17T15:33:02Z</time><name>PT12347</name></trkpt>
<trkpt lat="53.452150" lon="05.717925"><ele>4</ele><time>2021-02-17T15:33:03Z</time><name>PT12348</name></trkpt>
<trkpt lat="53.452146" lon="05.717940"><ele>3.9</ele><time>2021-02-17T15:33:04Z</time><name>PT12349</name></trkpt>
<trkpt lat="53.452142" lon="05.717956"><ele>4</ele><time>2021-02-17T15:33:05Z</time><name>PT12350</name></trkpt>
<trkpt lat="53.452139" lon="05.717974"><ele>4</ele><time>2021-02-17T15:33:06Z</time><name>PT12351</name></trkpt>
<trkpt lat="53.452137" lon="05.717992"><ele>4</ele><time>2021-02-17T15:33:07Z</time><name>PT12352</name></trkpt>
<trkpt lat="53.452133" lon="05.718006"><ele>4</ele><time>2021-02-17T15:33:08Z</time><name>PT12353</name></trkpt>
<trkpt lat="53.452128" lon="05.718022"><ele>4.2</ele><time>2021-02-17T15:33:09Z</time><name>PT12354</name></trkpt>
<trkpt lat="53.452123" lon="05.718038"><ele>3.9</ele><time>2021-02-17T15:33:10Z</time><name>PT12355</name></trkpt>
<trkpt lat="53.452119" lon="05.718053"><ele>3.9</ele><time>2021-02-17T15:33:11Z</time><name>PT12356</name></trkpt>
<trkpt lat="53.452116" lon="05.718068"><ele>3.8</ele><time>2021-02-17T15:33:12Z</time><name>PT12357</name></trkpt>
<trkpt lat="53.452112" lon="05.718084"><ele>3.9</ele><time>2021-02-17T15:33:13Z</time><name>PT12358</name></trkpt>
<trkpt lat="53.452108" lon="05.718103"><ele>3.8</ele><time>2021-02-17T15:33:14Z</time><name>PT12359</name></trkpt>
<trkpt lat="53.452105" lon="05.718121"><ele>3.9</ele><time>2021-02-17T15:33:15Z</time><name>PT12360</name></trkpt>
<trkpt lat="53.452103" lon="05.718138"><ele>3.8</ele><time>2021-02-17T15:33:16Z</time><name>PT12361</name></trkpt>
<trkpt lat="53.452099" lon="05.718153"><ele>3.9</ele><time>2021-02-17T15:33:17Z</time><name>PT12362</name></trkpt>
<trkpt lat="53.452096" lon="05.718172"><ele>3.8</ele><time>2021-02-17T15:33:18Z</time><name>PT12363</name></trkpt>
<trkpt lat="53.452092" lon="05.718189"><ele>3.9</ele><time>2021-02-17T15:33:19Z</time><name>PT12364</name></trkpt>
<trkpt lat="53.452087" lon="05.718203"><ele>3.7</ele><time>2021-02-17T15:33:20Z</time><name>PT12365</name></trkpt>
<trkpt lat="53.452082" lon="05.718218"><ele>3.8</ele><time>2021-02-17T15:33:21Z</time><name>PT12366</name></trkpt>
<trkpt lat="53.452079" lon="05.718233"><ele>3.7</ele><time>2021-02-17T15:33:22Z</time><name>PT12367</name></trkpt>
<trkpt lat="53.452076" lon="05.718250"><ele>3.6</ele><time>2021-02-17T15:33:23Z</time><name>PT12368</name></trkpt>
<trkpt lat="53.452074" lon="05.718265"><ele>3.7</ele><time>2021-02-17T15:33:24Z</time><name>PT12369</name></trkpt>
<trkpt lat="53.452069" lon="05.718281"><ele>3.7</ele><time>2021-02-17T15:33:25Z</time><name>PT12370</name></trkpt>
<trkpt lat="53.452065" lon="05.718294"><ele>3.7</ele><time>2021-02-17T15:33:26Z</time><name>PT12371</name></trkpt>
<trkpt lat="53.452061" lon="05.718308"><ele>3.9</ele><time>2021-02-17T15:33:27Z</time><name>PT12372</name></trkpt>
<trkpt lat="53.452057" lon="05.718324"><ele>3.9</ele><time>2021-02-17T15:33:28Z</time><name>PT12373</name></trkpt>
<trkpt lat="53.452054" lon="05.718339"><ele>4.1</ele><time>2021-02-17T15:33:29Z</time><name>PT12374</name></trkpt>
<trkpt lat="53.452051" lon="05.718355"><ele>4.1</ele><time>2021-02-17T15:33:30Z</time><name>PT12375</name></trkpt>
<trkpt lat="53.452047" lon="05.718372"><ele>4</ele><time>2021-02-17T15:33:31Z</time><name>PT12376</name></trkpt>
<trkpt lat="53.452041" lon="05.718389"><ele>3.9</ele><time>2021-02-17T15:33:32Z</time><name>PT12377</name></trkpt>
<trkpt lat="53.452037" lon="05.718401"><ele>3.8</ele><time>2021-02-17T15:33:33Z</time><name>PT12378</name></trkpt>
<trkpt lat="53.452033" lon="05.718416"><ele>3.7</ele><time>2021-02-17T15:33:34Z</time><name>PT12379</name></trkpt>
<trkpt lat="53.452029" lon="05.718431"><ele>3.6</ele><time>2021-02-17T15:33:35Z</time><name>PT12380</name></trkpt>
<trkpt lat="53.452025" lon="05.718448"><ele>3.7</ele><time>2021-02-17T15:33:36Z</time><name>PT12381</name></trkpt>
<trkpt lat="53.452021" lon="05.718464"><ele>3.7</ele><time>2021-02-17T15:33:37Z</time><name>PT12382</name></trkpt>
<trkpt lat="53.452017" lon="05.718480"><ele>3.8</ele><time>2021-02-17T15:33:38Z</time><name>PT12383</name></trkpt>
<trkpt lat="53.452015" lon="05.718497"><ele>3.9</ele><time>2021-02-17T15:33:39Z</time><name>PT12384</name></trkpt>
<trkpt lat="53.452013" lon="05.718513"><ele>3.8</ele><time>2021-02-17T15:33:40Z</time><name>PT12385</name></trkpt>
<trkpt lat="53.452011" lon="05.718527"><ele>3.7</ele><time>2021-02-17T15:33:41Z</time><name>PT12386</name></trkpt>
<trkpt lat="53.452007" lon="05.718540"><ele>3.7</ele><time>2021-02-17T15:33:42Z</time><name>PT12387</name></trkpt>
<trkpt lat="53.452005" lon="05.718554"><ele>3.7</ele><time>2021-02-17T15:33:43Z</time><name>PT12388</name></trkpt>
<trkpt lat="53.452003" lon="05.718565"><ele>3.7</ele><time>2021-02-17T15:33:44Z</time><name>PT12389</name></trkpt>
<trkpt lat="53.452002" lon="05.718576"><ele>3.8</ele><time>2021-02-17T15:33:45Z</time><name>PT12390</name></trkpt>
<trkpt lat="53.452000" lon="05.718589"><ele>3.7</ele><time>2021-02-17T15:33:46Z</time><name>PT12391</name></trkpt>
<trkpt lat="53.451996" lon="05.718602"><ele>3.8</ele><time>2021-02-17T15:33:47Z</time><name>PT12392</name></trkpt>
<trkpt lat="53.451992" lon="05.718616"><ele>3.9</ele><time>2021-02-17T15:33:48Z</time><name>PT12393</name></trkpt>
<trkpt lat="53.451988" lon="05.718634"><ele>3.7</ele><time>2021-02-17T15:33:49Z</time><name>PT12394</name></trkpt>
<trkpt lat="53.451986" lon="05.718651"><ele>3.6</ele><time>2021-02-17T15:33:50Z</time><name>PT12395</name></trkpt>
<trkpt lat="53.451983" lon="05.718667"><ele>3.5</ele><time>2021-02-17T15:33:51Z</time><name>PT12396</name></trkpt>
<trkpt lat="53.451980" lon="05.718684"><ele>3.2</ele><time>2021-02-17T15:33:52Z</time><name>PT12397</name></trkpt>
<trkpt lat="53.451976" lon="05.718701"><ele>3.1</ele><time>2021-02-17T15:33:53Z</time><name>PT12398</name></trkpt>
<trkpt lat="53.451973" lon="05.718711"><ele>3.2</ele><time>2021-02-17T15:33:54Z</time><name>PT12399</name></trkpt>
<trkpt lat="53.451968" lon="05.718722"><ele>3.1</ele><time>2021-02-17T15:33:55Z</time><name>PT12400</name></trkpt>
<trkpt lat="53.451963" lon="05.718736"><ele>3.2</ele><time>2021-02-17T15:33:56Z</time><name>PT12401</name></trkpt>
<trkpt lat="53.451958" lon="05.718747"><ele>3.2</ele><time>2021-02-17T15:33:57Z</time><name>PT12402</name></trkpt>
<trkpt lat="53.451957" lon="05.718760"><ele>3.2</ele><time>2021-02-17T15:33:58Z</time><name>PT12403</name></trkpt>
<trkpt lat="53.451956" lon="05.718779"><ele>3.5</ele><time>2021-02-17T15:33:59Z</time><name>PT12404</name></trkpt>
<trkpt lat="53.451955" lon="05.718793"><ele>3.6</ele><time>2021-02-17T15:34:00Z</time><name>PT12405</name></trkpt>
<trkpt lat="53.451951" lon="05.718806"><ele>3.7</ele><time>2021-02-17T15:34:01Z</time><name>PT12406</name></trkpt>
<trkpt lat="53.451946" lon="05.718819"><ele>3.6</ele><time>2021-02-17T15:34:02Z</time><name>PT12407</name></trkpt>
<trkpt lat="53.451942" lon="05.718832"><ele>3.7</ele><time>2021-02-17T15:34:03Z</time><name>PT12408</name></trkpt>
<trkpt lat="53.451938" lon="05.718847"><ele>3.3</ele><time>2021-02-17T15:34:04Z</time><name>PT12409</name></trkpt>
<trkpt lat="53.451933" lon="05.718859"><ele>3.4</ele><time>2021-02-17T15:34:05Z</time><name>PT12410</name></trkpt>
<trkpt lat="53.451929" lon="05.718875"><ele>3.3</ele><time>2021-02-17T15:34:06Z</time><name>PT12411</name></trkpt>
<trkpt lat="53.451926" lon="05.718893"><ele>3.2</ele><time>2021-02-17T15:34:07Z</time><name>PT12412</name></trkpt>
<trkpt lat="53.451923" lon="05.718910"><ele>3.2</ele><time>2021-02-17T15:34:08Z</time><name>PT12413</name></trkpt>
<trkpt lat="53.451920" lon="05.718924"><ele>3.2</ele><time>2021-02-17T15:34:09Z</time><name>PT12414</name></trkpt>
<trkpt lat="53.451916" lon="05.718936"><ele>3.2</ele><time>2021-02-17T15:34:10Z</time><name>PT12415</name></trkpt>
<trkpt lat="53.451911" lon="05.718946"><ele>3.4</ele><time>2021-02-17T15:34:11Z</time><name>PT12416</name></trkpt>
<trkpt lat="53.451906" lon="05.718958"><ele>3.5</ele><time>2021-02-17T15:34:12Z</time><name>PT12417</name></trkpt>
<trkpt lat="53.451900" lon="05.718974"><ele>3.7</ele><time>2021-02-17T15:34:13Z</time><name>PT12418</name></trkpt>
<trkpt lat="53.451895" lon="05.718990"><ele>3.7</ele><time>2021-02-17T15:34:14Z</time><name>PT12419</name></trkpt>
<trkpt lat="53.451892" lon="05.719006"><ele>3.6</ele><time>2021-02-17T15:34:15Z</time><name>PT12420</name></trkpt>
<trkpt lat="53.451889" lon="05.719022"><ele>3.5</ele><time>2021-02-17T15:34:16Z</time><name>PT12421</name></trkpt>
<trkpt lat="53.451885" lon="05.719038"><ele>3.5</ele><time>2021-02-17T15:34:17Z</time><name>PT12422</name></trkpt>
<trkpt lat="53.451881" lon="05.719054"><ele>3.5</ele><time>2021-02-17T15:34:18Z</time><name>PT12423</name></trkpt>
<trkpt lat="53.451877" lon="05.719070"><ele>3.4</ele><time>2021-02-17T15:34:19Z</time><name>PT12424</name></trkpt>
<trkpt lat="53.451873" lon="05.719087"><ele>3.3</ele><time>2021-02-17T15:34:20Z</time><name>PT12425</name></trkpt>
<trkpt lat="53.451871" lon="05.719102"><ele>3.2</ele><time>2021-02-17T15:34:21Z</time><name>PT12426</name></trkpt>
<trkpt lat="53.451867" lon="05.719118"><ele>3.3</ele><time>2021-02-17T15:34:22Z</time><name>PT12427</name></trkpt>
<trkpt lat="53.451864" lon="05.719136"><ele>3</ele><time>2021-02-17T15:34:23Z</time><name>PT12428</name></trkpt>
<trkpt lat="53.451861" lon="05.719151"><ele>3</ele><time>2021-02-17T15:34:24Z</time><name>PT12429</name></trkpt>
<trkpt lat="53.451859" lon="05.719167"><ele>3.3</ele><time>2021-02-17T15:34:25Z</time><name>PT12430</name></trkpt>
<trkpt lat="53.451854" lon="05.719184"><ele>3.4</ele><time>2021-02-17T15:34:26Z</time><name>PT12431</name></trkpt>
<trkpt lat="53.451850" lon="05.719201"><ele>3.3</ele><time>2021-02-17T15:34:27Z</time><name>PT12432</name></trkpt>
<trkpt lat="53.451845" lon="05.719216"><ele>3.2</ele><time>2021-02-17T15:34:28Z</time><name>PT12433</name></trkpt>
<trkpt lat="53.451840" lon="05.719231"><ele>3.3</ele><time>2021-02-17T15:34:29Z</time><name>PT12434</name></trkpt>
<trkpt lat="53.451836" lon="05.719242"><ele>3.1</ele><time>2021-02-17T15:34:30Z</time><name>PT12435</name></trkpt>
<trkpt lat="53.451833" lon="05.719256"><ele>3.2</ele><time>2021-02-17T15:34:31Z</time><name>PT12436</name></trkpt>
<trkpt lat="53.451829" lon="05.719271"><ele>3.5</ele><time>2021-02-17T15:34:32Z</time><name>PT12437</name></trkpt>
<trkpt lat="53.451826" lon="05.719289"><ele>3.6</ele><time>2021-02-17T15:34:33Z</time><name>PT12438</name></trkpt>
<trkpt lat="53.451824" lon="05.719306"><ele>3.9</ele><time>2021-02-17T15:34:34Z</time><name>PT12439</name></trkpt>
<trkpt lat="53.451823" lon="05.719322"><ele>4</ele><time>2021-02-17T15:34:35Z</time><name>PT12440</name></trkpt>
<trkpt lat="53.451820" lon="05.719337"><ele>4.1</ele><time>2021-02-17T15:34:36Z</time><name>PT12441</name></trkpt>
<trkpt lat="53.451816" lon="05.719351"><ele>4</ele><time>2021-02-17T15:34:37Z</time><name>PT12442</name></trkpt>
<trkpt lat="53.451813" lon="05.719368"><ele>4</ele><time>2021-02-17T15:34:38Z</time><name>PT12443</name></trkpt>
<trkpt lat="53.451809" lon="05.719383"><ele>3.8</ele><time>2021-02-17T15:34:39Z</time><name>PT12444</name></trkpt>
<trkpt lat="53.451805" lon="05.719399"><ele>3.9</ele><time>2021-02-17T15:34:40Z</time><name>PT12445</name></trkpt>
<trkpt lat="53.451802" lon="05.719416"><ele>3.9</ele><time>2021-02-17T15:34:41Z</time><name>PT12446</name></trkpt>
<trkpt lat="53.451798" lon="05.719431"><ele>3.9</ele><time>2021-02-17T15:34:42Z</time><name>PT12447</name></trkpt>
<trkpt lat="53.451794" lon="05.719442"><ele>3.8</ele><time>2021-02-17T15:34:43Z</time><name>PT12448</name></trkpt>
<trkpt lat="53.451790" lon="05.719454"><ele>3.9</ele><time>2021-02-17T15:34:44Z</time><name>PT12449</name></trkpt>
<trkpt lat="53.451786" lon="05.719469"><ele>3.8</ele><time>2021-02-17T15:34:45Z</time><name>PT12450</name></trkpt>
<trkpt lat="53.451783" lon="05.719485"><ele>4</ele><time>2021-02-17T15:34:46Z</time><name>PT12451</name></trkpt>
<trkpt lat="53.451781" lon="05.719502"><ele>4</ele><time>2021-02-17T15:34:47Z</time><name>PT12452</name></trkpt>
<trkpt lat="53.451777" lon="05.719517"><ele>4</ele><time>2021-02-17T15:34:48Z</time><name>PT12453</name></trkpt>
<trkpt lat="53.451773" lon="05.719531"><ele>4.2</ele><time>2021-02-17T15:34:49Z</time><name>PT12454</name></trkpt>
<trkpt lat="53.451768" lon="05.719546"><ele>4.1</ele><time>2021-02-17T15:34:50Z</time><name>PT12455</name></trkpt>
<trkpt lat="53.451765" lon="05.719560"><ele>4</ele><time>2021-02-17T15:34:51Z</time><name>PT12456</name></trkpt>
<trkpt lat="53.451761" lon="05.719576"><ele>4.1</ele><time>2021-02-17T15:34:52Z</time><name>PT12457</name></trkpt>
<trkpt lat="53.451758" lon="05.719591"><ele>4</ele><time>2021-02-17T15:34:53Z</time><name>PT12458</name></trkpt>
<trkpt lat="53.451753" lon="05.719605"><ele>4.2</ele><time>2021-02-17T15:34:54Z</time><name>PT12459</name></trkpt>
<trkpt lat="53.451748" lon="05.719620"><ele>4.1</ele><time>2021-02-17T15:34:55Z</time><name>PT12460</name></trkpt>
<trkpt lat="53.451743" lon="05.719634"><ele>4</ele><time>2021-02-17T15:34:56Z</time><name>PT12461</name></trkpt>
<trkpt lat="53.451737" lon="05.719649"><ele>4.2</ele><time>2021-02-17T15:34:57Z</time><name>PT12462</name></trkpt>
<trkpt lat="53.451734" lon="05.719662"><ele>3.7</ele><time>2021-02-17T15:34:58Z</time><name>PT12463</name></trkpt>
<trkpt lat="53.451731" lon="05.719678"><ele>3.7</ele><time>2021-02-17T15:34:59Z</time><name>PT12464</name></trkpt>
<trkpt lat="53.451729" lon="05.719695"><ele>3.7</ele><time>2021-02-17T15:35:00Z</time><name>PT12465</name></trkpt>
<trkpt lat="53.451726" lon="05.719711"><ele>3.5</ele><time>2021-02-17T15:35:01Z</time><name>PT12466</name></trkpt>
<trkpt lat="53.451722" lon="05.719724"><ele>3.4</ele><time>2021-02-17T15:35:02Z</time><name>PT12467</name></trkpt>
<trkpt lat="53.451718" lon="05.719740"><ele>3.4</ele><time>2021-02-17T15:35:03Z</time><name>PT12468</name></trkpt>
<trkpt lat="53.451714" lon="05.719758"><ele>3.2</ele><time>2021-02-17T15:35:04Z</time><name>PT12469</name></trkpt>
<trkpt lat="53.451711" lon="05.719772"><ele>3.1</ele><time>2021-02-17T15:35:05Z</time><name>PT12470</name></trkpt>
<trkpt lat="53.451706" lon="05.719786"><ele>3.3</ele><time>2021-02-17T15:35:06Z</time><name>PT12471</name></trkpt>
<trkpt lat="53.451703" lon="05.719801"><ele>3.5</ele><time>2021-02-17T15:35:07Z</time><name>PT12472</name></trkpt>
<trkpt lat="53.451701" lon="05.719816"><ele>3.6</ele><time>2021-02-17T15:35:08Z</time><name>PT12473</name></trkpt>
<trkpt lat="53.451697" lon="05.719834"><ele>3.6</ele><time>2021-02-17T15:35:09Z</time><name>PT12474</name></trkpt>
<trkpt lat="53.451693" lon="05.719851"><ele>3.5</ele><time>2021-02-17T15:35:10Z</time><name>PT12475</name></trkpt>
<trkpt lat="53.451687" lon="05.719870"><ele>3.2</ele><time>2021-02-17T15:35:11Z</time><name>PT12476</name></trkpt>
<trkpt lat="53.451685" lon="05.719890"><ele>3.2</ele><time>2021-02-17T15:35:12Z</time><name>PT12477</name></trkpt>
<trkpt lat="53.451683" lon="05.719908"><ele>3.2</ele><time>2021-02-17T15:35:13Z</time><name>PT12478</name></trkpt>
<trkpt lat="53.451682" lon="05.719923"><ele>3.2</ele><time>2021-02-17T15:35:14Z</time><name>PT12479</name></trkpt>
<trkpt lat="53.451681" lon="05.719936"><ele>3.6</ele><time>2021-02-17T15:35:15Z</time><name>PT12480</name></trkpt>
<trkpt lat="53.451678" lon="05.719951"><ele>3.7</ele><time>2021-02-17T15:35:16Z</time><name>PT12481</name></trkpt>
<trkpt lat="53.451674" lon="05.719965"><ele>4</ele><time>2021-02-17T15:35:17Z</time><name>PT12482</name></trkpt>
<trkpt lat="53.451670" lon="05.719979"><ele>3.9</ele><time>2021-02-17T15:35:18Z</time><name>PT12483</name></trkpt>
<trkpt lat="53.451667" lon="05.719993"><ele>4.2</ele><time>2021-02-17T15:35:19Z</time><name>PT12484</name></trkpt>
<trkpt lat="53.451662" lon="05.720008"><ele>4.2</ele><time>2021-02-17T15:35:20Z</time><name>PT12485</name></trkpt>
<trkpt lat="53.451656" lon="05.720021"><ele>4</ele><time>2021-02-17T15:35:21Z</time><name>PT12486</name></trkpt>
<trkpt lat="53.451651" lon="05.720036"><ele>3.9</ele><time>2021-02-17T15:35:22Z</time><name>PT12487</name></trkpt>
<trkpt lat="53.451649" lon="05.720052"><ele>3.7</ele><time>2021-02-17T15:35:23Z</time><name>PT12488</name></trkpt>
<trkpt lat="53.451647" lon="05.720069"><ele>3.6</ele><time>2021-02-17T15:35:24Z</time><name>PT12489</name></trkpt>
<trkpt lat="53.451643" lon="05.720085"><ele>3.7</ele><time>2021-02-17T15:35:25Z</time><name>PT12490</name></trkpt>
<trkpt lat="53.451639" lon="05.720104"><ele>3.7</ele><time>2021-02-17T15:35:26Z</time><name>PT12491</name></trkpt>
<trkpt lat="53.451636" lon="05.720122"><ele>3.7</ele><time>2021-02-17T15:35:27Z</time><name>PT12492</name></trkpt>
<trkpt lat="53.451634" lon="05.720138"><ele>3.7</ele><time>2021-02-17T15:35:28Z</time><name>PT12493</name></trkpt>
<trkpt lat="53.451630" lon="05.720152"><ele>3.5</ele><time>2021-02-17T15:35:29Z</time><name>PT12494</name></trkpt>
<trkpt lat="53.451627" lon="05.720168"><ele>3.6</ele><time>2021-02-17T15:35:30Z</time><name>PT12495</name></trkpt>
<trkpt lat="53.451624" lon="05.720183"><ele>3.6</ele><time>2021-02-17T15:35:31Z</time><name>PT12496</name></trkpt>
<trkpt lat="53.451620" lon="05.720199"><ele>3.5</ele><time>2021-02-17T15:35:32Z</time><name>PT12497</name></trkpt>
<trkpt lat="53.451617" lon="05.720216"><ele>3.6</ele><time>2021-02-17T15:35:33Z</time><name>PT12498</name></trkpt>
<trkpt lat="53.451614" lon="05.720229"><ele>3.7</ele><time>2021-02-17T15:35:34Z</time><name>PT12499</name></trkpt>
<trkpt lat="53.451610" lon="05.720243"><ele>3.7</ele><time>2021-02-17T15:35:35Z</time><name>PT12500</name></trkpt>
<trkpt lat="53.451604" lon="05.720257"><ele>3.8</ele><time>2021-02-17T15:35:36Z</time><name>PT12501</name></trkpt>
<trkpt lat="53.451599" lon="05.720274"><ele>4.1</ele><time>2021-02-17T15:35:37Z</time><name>PT12502</name></trkpt>
<trkpt lat="53.451594" lon="05.720288"><ele>4.1</ele><time>2021-02-17T15:35:38Z</time><name>PT12503</name></trkpt>
<trkpt lat="53.451590" lon="05.720303"><ele>4.2</ele><time>2021-02-17T15:35:39Z</time><name>PT12504</name></trkpt>
<trkpt lat="53.451587" lon="05.720319"><ele>4.2</ele><time>2021-02-17T15:35:40Z</time><name>PT12505</name></trkpt>
<trkpt lat="53.451584" lon="05.720335"><ele>4</ele><time>2021-02-17T15:35:41Z</time><name>PT12506</name></trkpt>
<trkpt lat="53.451580" lon="05.720348"><ele>4.2</ele><time>2021-02-17T15:35:42Z</time><name>PT12507</name></trkpt>
<trkpt lat="53.451578" lon="05.720364"><ele>4.2</ele><time>2021-02-17T15:35:43Z</time><name>PT12508</name></trkpt>
<trkpt lat="53.451574" lon="05.720378"><ele>4.3</ele><time>2021-02-17T15:35:44Z</time><name>PT12509</name></trkpt>
<trkpt lat="53.451570" lon="05.720392"><ele>4.2</ele><time>2021-02-17T15:35:45Z</time><name>PT12510</name></trkpt>
<trkpt lat="53.451567" lon="05.720410"><ele>4.5</ele><time>2021-02-17T15:35:46Z</time><name>PT12511</name></trkpt>
<trkpt lat="53.451563" lon="05.720428"><ele>4.2</ele><time>2021-02-17T15:35:47Z</time><name>PT12512</name></trkpt>
<trkpt lat="53.451559" lon="05.720444"><ele>4.1</ele><time>2021-02-17T15:35:48Z</time><name>PT12513</name></trkpt>
<trkpt lat="53.451556" lon="05.720458"><ele>4.2</ele><time>2021-02-17T15:35:49Z</time><name>PT12514</name></trkpt>
<trkpt lat="53.451553" lon="05.720471"><ele>3.9</ele><time>2021-02-17T15:35:50Z</time><name>PT12515</name></trkpt>
<trkpt lat="53.451550" lon="05.720487"><ele>4</ele><time>2021-02-17T15:35:51Z</time><name>PT12516</name></trkpt>
<trkpt lat="53.451545" lon="05.720501"><ele>3.8</ele><time>2021-02-17T15:35:52Z</time><name>PT12517</name></trkpt>
<trkpt lat="53.451542" lon="05.720517"><ele>3.7</ele><time>2021-02-17T15:35:53Z</time><name>PT12518</name></trkpt>
<trkpt lat="53.451539" lon="05.720535"><ele>3.7</ele><time>2021-02-17T15:35:54Z</time><name>PT12519</name></trkpt>
<trkpt lat="53.451537" lon="05.720552"><ele>3.6</ele><time>2021-02-17T15:35:55Z</time><name>PT12520</name></trkpt>
<trkpt lat="53.451534" lon="05.720565"><ele>3.7</ele><time>2021-02-17T15:35:56Z</time><name>PT12521</name></trkpt>
<trkpt lat="53.451530" lon="05.720581"><ele>4</ele><time>2021-02-17T15:35:57Z</time><name>PT12522</name></trkpt>
<trkpt lat="53.451527" lon="05.720598"><ele>4.1</ele><time>2021-02-17T15:35:58Z</time><name>PT12523</name></trkpt>
<trkpt lat="53.451522" lon="05.720612"><ele>4.2</ele><time>2021-02-17T15:35:59Z</time><name>PT12524</name></trkpt>
<trkpt lat="53.451518" lon="05.720626"><ele>4.3</ele><time>2021-02-17T15:36:00Z</time><name>PT12525</name></trkpt>
<trkpt lat="53.451514" lon="05.720641"><ele>4</ele><time>2021-02-17T15:36:01Z</time><name>PT12526</name></trkpt>
<trkpt lat="53.451512" lon="05.720656"><ele>4.1</ele><time>2021-02-17T15:36:02Z</time><name>PT12527</name></trkpt>
<trkpt lat="53.451510" lon="05.720670"><ele>4.1</ele><time>2021-02-17T15:36:03Z</time><name>PT12528</name></trkpt>
<trkpt lat="53.451507" lon="05.720685"><ele>4</ele><time>2021-02-17T15:36:04Z</time><name>PT12529</name></trkpt>
<trkpt lat="53.451502" lon="05.720701"><ele>4.2</ele><time>2021-02-17T15:36:05Z</time><name>PT12530</name></trkpt>
<trkpt lat="53.451497" lon="05.720715"><ele>4.2</ele><time>2021-02-17T15:36:06Z</time><name>PT12531</name></trkpt>
<trkpt lat="53.451493" lon="05.720729"><ele>4.2</ele><time>2021-02-17T15:36:07Z</time><name>PT12532</name></trkpt>
<trkpt lat="53.451492" lon="05.720745"><ele>4.2</ele><time>2021-02-17T15:36:08Z</time><name>PT12533</name></trkpt>
<trkpt lat="53.451490" lon="05.720757"><ele>4.1</ele><time>2021-02-17T15:36:09Z</time><name>PT12534</name></trkpt>
<trkpt lat="53.451486" lon="05.720771"><ele>3.8</ele><time>2021-02-17T15:36:10Z</time><name>PT12535</name></trkpt>
<trkpt lat="53.451481" lon="05.720785"><ele>3.7</ele><time>2021-02-17T15:36:11Z</time><name>PT12536</name></trkpt>
<trkpt lat="53.451475" lon="05.720799"><ele>3.8</ele><time>2021-02-17T15:36:12Z</time><name>PT12537</name></trkpt>
<trkpt lat="53.451469" lon="05.720811"><ele>3.7</ele><time>2021-02-17T15:36:13Z</time><name>PT12538</name></trkpt>
<trkpt lat="53.451466" lon="05.720823"><ele>3.8</ele><time>2021-02-17T15:36:14Z</time><name>PT12539</name></trkpt>
<trkpt lat="53.451465" lon="05.720839"><ele>3.7</ele><time>2021-02-17T15:36:15Z</time><name>PT12540</name></trkpt>
<trkpt lat="53.451464" lon="05.720854"><ele>3.7</ele><time>2021-02-17T15:36:16Z</time><name>PT12541</name></trkpt>
<trkpt lat="53.451461" lon="05.720868"><ele>3.7</ele><time>2021-02-17T15:36:17Z</time><name>PT12542</name></trkpt>
<trkpt lat="53.451458" lon="05.720882"><ele>3.7</ele><time>2021-02-17T15:36:18Z</time><name>PT12543</name></trkpt>
<trkpt lat="53.451454" lon="05.720895"><ele>3.6</ele><time>2021-02-17T15:36:19Z</time><name>PT12544</name></trkpt>
<trkpt lat="53.451450" lon="05.720912"><ele>3.4</ele><time>2021-02-17T15:36:20Z</time><name>PT12545</name></trkpt>
<trkpt lat="53.451448" lon="05.720928"><ele>3.6</ele><time>2021-02-17T15:36:21Z</time><name>PT12546</name></trkpt>
<trkpt lat="53.451444" lon="05.720943"><ele>3.4</ele><time>2021-02-17T15:36:22Z</time><name>PT12547</name></trkpt>
<trkpt lat="53.451441" lon="05.720956"><ele>3.6</ele><time>2021-02-17T15:36:23Z</time><name>PT12548</name></trkpt>
<trkpt lat="53.451437" lon="05.720968"><ele>3.7</ele><time>2021-02-17T15:36:24Z</time><name>PT12549</name></trkpt>
<trkpt lat="53.451433" lon="05.720981"><ele>3.9</ele><time>2021-02-17T15:36:25Z</time><name>PT12550</name></trkpt>
<trkpt lat="53.451429" lon="05.720994"><ele>4</ele><time>2021-02-17T15:36:26Z</time><name>PT12551</name></trkpt>
<trkpt lat="53.451425" lon="05.721009"><ele>3.9</ele><time>2021-02-17T15:36:27Z</time><name>PT12552</name></trkpt>
<trkpt lat="53.451422" lon="05.721022"><ele>3.9</ele><time>2021-02-17T15:36:28Z</time><name>PT12553</name></trkpt>
<trkpt lat="53.451419" lon="05.721035"><ele>3.9</ele><time>2021-02-17T15:36:29Z</time><name>PT12554</name></trkpt>
<trkpt lat="53.451414" lon="05.721047"><ele>3.7</ele><time>2021-02-17T15:36:30Z</time><name>PT12555</name></trkpt>
<trkpt lat="53.451411" lon="05.721059"><ele>3.8</ele><time>2021-02-17T15:36:31Z</time><name>PT12556</name></trkpt>
<trkpt lat="53.451407" lon="05.721070"><ele>3.7</ele><time>2021-02-17T15:36:32Z</time><name>PT12557</name></trkpt>
<trkpt lat="53.451407" lon="05.721086"><ele>3.7</ele><time>2021-02-17T15:36:33Z</time><name>PT12558</name></trkpt>
<trkpt lat="53.451405" lon="05.721101"><ele>3.9</ele><time>2021-02-17T15:36:34Z</time><name>PT12559</name></trkpt>
<trkpt lat="53.451403" lon="05.721116"><ele>3.9</ele><time>2021-02-17T15:36:35Z</time><name>PT12560</name></trkpt>
<trkpt lat="53.451399" lon="05.721129"><ele>4.1</ele><time>2021-02-17T15:36:36Z</time><name>PT12561</name></trkpt>
<trkpt lat="53.451392" lon="05.721143"><ele>4</ele><time>2021-02-17T15:36:37Z</time><name>PT12562</name></trkpt>
<trkpt lat="53.451389" lon="05.721158"><ele>3.8</ele><time>2021-02-17T15:36:38Z</time><name>PT12563</name></trkpt>
<trkpt lat="53.451386" lon="05.721173"><ele>3.8</ele><time>2021-02-17T15:36:39Z</time><name>PT12564</name></trkpt>
<trkpt lat="53.451385" lon="05.721183"><ele>3.7</ele><time>2021-02-17T15:36:40Z</time><name>PT12565</name></trkpt>
<trkpt lat="53.451384" lon="05.721196"><ele>3.8</ele><time>2021-02-17T15:36:41Z</time><name>PT12566</name></trkpt>
<trkpt lat="53.451382" lon="05.721207"><ele>3.9</ele><time>2021-02-17T15:36:42Z</time><name>PT12567</name></trkpt>
<trkpt lat="53.451378" lon="05.721221"><ele>3.9</ele><time>2021-02-17T15:36:43Z</time><name>PT12568</name></trkpt>
<trkpt lat="53.451372" lon="05.721236"><ele>3.9</ele><time>2021-02-17T15:36:44Z</time><name>PT12569</name></trkpt>
<trkpt lat="53.451369" lon="05.721250"><ele>4</ele><time>2021-02-17T15:36:45Z</time><name>PT12570</name></trkpt>
<trkpt lat="53.451365" lon="05.721262"><ele>3.7</ele><time>2021-02-17T15:36:46Z</time><name>PT12571</name></trkpt>
<trkpt lat="53.451363" lon="05.721274"><ele>3.6</ele><time>2021-02-17T15:36:47Z</time><name>PT12572</name></trkpt>
<trkpt lat="53.451360" lon="05.721289"><ele>3.6</ele><time>2021-02-17T15:36:48Z</time><name>PT12573</name></trkpt>
<trkpt lat="53.451357" lon="05.721303"><ele>3.5</ele><time>2021-02-17T15:36:49Z</time><name>PT12574</name></trkpt>
<trkpt lat="53.451353" lon="05.721315"><ele>3.7</ele><time>2021-02-17T15:36:50Z</time><name>PT12575</name></trkpt>
<trkpt lat="53.451350" lon="05.721327"><ele>3.7</ele><time>2021-02-17T15:36:51Z</time><name>PT12576</name></trkpt>
<trkpt lat="53.451347" lon="05.721342"><ele>3.6</ele><time>2021-02-17T15:36:52Z</time><name>PT12577</name></trkpt>
<trkpt lat="53.451343" lon="05.721358"><ele>3.5</ele><time>2021-02-17T15:36:53Z</time><name>PT12578</name></trkpt>
<trkpt lat="53.451339" lon="05.721373"><ele>3.4</ele><time>2021-02-17T15:36:54Z</time><name>PT12579</name></trkpt>
<trkpt lat="53.451334" lon="05.721389"><ele>3.4</ele><time>2021-02-17T15:36:55Z</time><name>PT12580</name></trkpt>
<trkpt lat="53.451330" lon="05.721407"><ele>3.7</ele><time>2021-02-17T15:36:56Z</time><name>PT12581</name></trkpt>
<trkpt lat="53.451326" lon="05.721421"><ele>3.9</ele><time>2021-02-17T15:36:57Z</time><name>PT12582</name></trkpt>
<trkpt lat="53.451323" lon="05.721432"><ele>4</ele><time>2021-02-17T15:36:58Z</time><name>PT12583</name></trkpt>
<trkpt lat="53.451320" lon="05.721448"><ele>4</ele><time>2021-02-17T15:36:59Z</time><name>PT12584</name></trkpt>
<trkpt lat="53.451316" lon="05.721465"><ele>4</ele><time>2021-02-17T15:37:00Z</time><name>PT12585</name></trkpt>
<trkpt lat="53.451310" lon="05.721480"><ele>3.7</ele><time>2021-02-17T15:37:01Z</time><name>PT12586</name></trkpt>
<trkpt lat="53.451303" lon="05.721496"><ele>3.9</ele><time>2021-02-17T15:37:02Z</time><name>PT12587</name></trkpt>
<trkpt lat="53.451299" lon="05.721513"><ele>4</ele><time>2021-02-17T15:37:03Z</time><name>PT12588</name></trkpt>
<trkpt lat="53.451296" lon="05.721531"><ele>4</ele><time>2021-02-17T15:37:04Z</time><name>PT12589</name></trkpt>
<trkpt lat="53.451294" lon="05.721548"><ele>3.9</ele><time>2021-02-17T15:37:05Z</time><name>PT12590</name></trkpt>
<trkpt lat="53.451291" lon="05.721564"><ele>4.1</ele><time>2021-02-17T15:37:06Z</time><name>PT12591</name></trkpt>
<trkpt lat="53.451288" lon="05.721579"><ele>4.1</ele><time>2021-02-17T15:37:07Z</time><name>PT12592</name></trkpt>
<trkpt lat="53.451283" lon="05.721591"><ele>4.1</ele><time>2021-02-17T15:37:08Z</time><name>PT12593</name></trkpt>
<trkpt lat="53.451278" lon="05.721606"><ele>4.2</ele><time>2021-02-17T15:37:09Z</time><name>PT12594</name></trkpt>
<trkpt lat="53.451274" lon="05.721621"><ele>4.2</ele><time>2021-02-17T15:37:10Z</time><name>PT12595</name></trkpt>
<trkpt lat="53.451268" lon="05.721637"><ele>4.2</ele><time>2021-02-17T15:37:11Z</time><name>PT12596</name></trkpt>
<trkpt lat="53.451263" lon="05.721652"><ele>4.1</ele><time>2021-02-17T15:37:12Z</time><name>PT12597</name></trkpt>
<trkpt lat="53.451261" lon="05.721666"><ele>3.8</ele><time>2021-02-17T15:37:13Z</time><name>PT12598</name></trkpt>
<trkpt lat="53.451258" lon="05.721684"><ele>4</ele><time>2021-02-17T15:37:14Z</time><name>PT12599</name></trkpt>
<trkpt lat="53.451254" lon="05.721701"><ele>4.1</ele><time>2021-02-17T15:37:15Z</time><name>PT12600</name></trkpt>
<trkpt lat="53.451248" lon="05.721716"><ele>4.1</ele><time>2021-02-17T15:37:16Z</time><name>PT12601</name></trkpt>
<trkpt lat="53.451244" lon="05.721730"><ele>4.1</ele><time>2021-02-17T15:37:17Z</time><name>PT12602</name></trkpt>
<trkpt lat="53.451240" lon="05.721745"><ele>4.2</ele><time>2021-02-17T15:37:18Z</time><name>PT12603</name></trkpt>
<trkpt lat="53.451237" lon="05.721761"><ele>4.2</ele><time>2021-02-17T15:37:19Z</time><name>PT12604</name></trkpt>
<trkpt lat="53.451235" lon="05.721779"><ele>4.1</ele><time>2021-02-17T15:37:20Z</time><name>PT12605</name></trkpt>
<trkpt lat="53.451234" lon="05.721795"><ele>4.2</ele><time>2021-02-17T15:37:21Z</time><name>PT12606</name></trkpt>
<trkpt lat="53.451232" lon="05.721810"><ele>4</ele><time>2021-02-17T15:37:22Z</time><name>PT12607</name></trkpt>
<trkpt lat="53.451228" lon="05.721824"><ele>4</ele><time>2021-02-17T15:37:23Z</time><name>PT12608</name></trkpt>
<trkpt lat="53.451224" lon="05.721840"><ele>3.9</ele><time>2021-02-17T15:37:24Z</time><name>PT12609</name></trkpt>
<trkpt lat="53.451222" lon="05.721855"><ele>3.9</ele><time>2021-02-17T15:37:25Z</time><name>PT12610</name></trkpt>
<trkpt lat="53.451220" lon="05.721872"><ele>4</ele><time>2021-02-17T15:37:26Z</time><name>PT12611</name></trkpt>
<trkpt lat="53.451217" lon="05.721889"><ele>3.8</ele><time>2021-02-17T15:37:27Z</time><name>PT12612</name></trkpt>
<trkpt lat="53.451214" lon="05.721907"><ele>3.8</ele><time>2021-02-17T15:37:28Z</time><name>PT12613</name></trkpt>
<trkpt lat="53.451211" lon="05.721920"><ele>3.8</ele><time>2021-02-17T15:37:29Z</time><name>PT12614</name></trkpt>
<trkpt lat="53.451205" lon="05.721932"><ele>3.7</ele><time>2021-02-17T15:37:30Z</time><name>PT12615</name></trkpt>
<trkpt lat="53.451202" lon="05.721947"><ele>4.1</ele><time>2021-02-17T15:37:31Z</time><name>PT12616</name></trkpt>
<trkpt lat="53.451199" lon="05.721963"><ele>4.2</ele><time>2021-02-17T15:37:32Z</time><name>PT12617</name></trkpt>
<trkpt lat="53.451198" lon="05.721980"><ele>4.2</ele><time>2021-02-17T15:37:33Z</time><name>PT12618</name></trkpt>
<trkpt lat="53.451194" lon="05.721996"><ele>4.2</ele><time>2021-02-17T15:37:34Z</time><name>PT12619</name></trkpt>
<trkpt lat="53.451190" lon="05.722012"><ele>4.2</ele><time>2021-02-17T15:37:35Z</time><name>PT12620</name></trkpt>
<trkpt lat="53.451185" lon="05.722028"><ele>4.2</ele><time>2021-02-17T15:37:36Z</time><name>PT12621</name></trkpt>
<trkpt lat="53.451180" lon="05.722042"><ele>4.3</ele><time>2021-02-17T15:37:37Z</time><name>PT12622</name></trkpt>
<trkpt lat="53.451176" lon="05.722056"><ele>4.4</ele><time>2021-02-17T15:37:38Z</time><name>PT12623</name></trkpt>
<trkpt lat="53.451172" lon="05.722071"><ele>4.4</ele><time>2021-02-17T15:37:39Z</time><name>PT12624</name></trkpt>
<trkpt lat="53.451168" lon="05.722090"><ele>4.5</ele><time>2021-02-17T15:37:40Z</time><name>PT12625</name></trkpt>
<trkpt lat="53.451165" lon="05.722105"><ele>4.2</ele><time>2021-02-17T15:37:41Z</time><name>PT12626</name></trkpt>
<trkpt lat="53.451162" lon="05.722121"><ele>4.1</ele><time>2021-02-17T15:37:42Z</time><name>PT12627</name></trkpt>
<trkpt lat="53.451161" lon="05.722139"><ele>4.1</ele><time>2021-02-17T15:37:43Z</time><name>PT12628</name></trkpt>
<trkpt lat="53.451158" lon="05.722156"><ele>4</ele><time>2021-02-17T15:37:44Z</time><name>PT12629</name></trkpt>
<trkpt lat="53.451154" lon="05.722170"><ele>4.1</ele><time>2021-02-17T15:37:45Z</time><name>PT12630</name></trkpt>
<trkpt lat="53.451149" lon="05.722185"><ele>4</ele><time>2021-02-17T15:37:46Z</time><name>PT12631</name></trkpt>
<trkpt lat="53.451144" lon="05.722199"><ele>4</ele><time>2021-02-17T15:37:47Z</time><name>PT12632</name></trkpt>
<trkpt lat="53.451139" lon="05.722215"><ele>3.8</ele><time>2021-02-17T15:37:48Z</time><name>PT12633</name></trkpt>
<trkpt lat="53.451134" lon="05.722231"><ele>4</ele><time>2021-02-17T15:37:49Z</time><name>PT12634</name></trkpt>
<trkpt lat="53.451132" lon="05.722244"><ele>4.2</ele><time>2021-02-17T15:37:50Z</time><name>PT12635</name></trkpt>
<trkpt lat="53.451129" lon="05.722259"><ele>4.3</ele><time>2021-02-17T15:37:51Z</time><name>PT12636</name></trkpt>
<trkpt lat="53.451126" lon="05.722276"><ele>4.3</ele><time>2021-02-17T15:37:52Z</time><name>PT12637</name></trkpt>
<trkpt lat="53.451124" lon="05.722292"><ele>4.2</ele><time>2021-02-17T15:37:53Z</time><name>PT12638</name></trkpt>
<trkpt lat="53.451121" lon="05.722307"><ele>4.2</ele><time>2021-02-17T15:37:54Z</time><name>PT12639</name></trkpt>
<trkpt lat="53.451118" lon="05.722323"><ele>4</ele><time>2021-02-17T15:37:55Z</time><name>PT12640</name></trkpt>
<trkpt lat="53.451114" lon="05.722338"><ele>3.7</ele><time>2021-02-17T15:37:56Z</time><name>PT12641</name></trkpt>
<trkpt lat="53.451112" lon="05.722353"><ele>3.7</ele><time>2021-02-17T15:37:57Z</time><name>PT12642</name></trkpt>
<trkpt lat="53.451109" lon="05.722370"><ele>3.7</ele><time>2021-02-17T15:37:58Z</time><name>PT12643</name></trkpt>
<trkpt lat="53.451104" lon="05.722386"><ele>3.7</ele><time>2021-02-17T15:37:59Z</time><name>PT12644</name></trkpt>
<trkpt lat="53.451100" lon="05.722401"><ele>3.7</ele><time>2021-02-17T15:38:00Z</time><name>PT12645</name></trkpt>
<trkpt lat="53.451097" lon="05.722415"><ele>3.9</ele><time>2021-02-17T15:38:01Z</time><name>PT12646</name></trkpt>
<trkpt lat="53.451092" lon="05.722427"><ele>3.7</ele><time>2021-02-17T15:38:02Z</time><name>PT12647</name></trkpt>
<trkpt lat="53.451089" lon="05.722441"><ele>3.9</ele><time>2021-02-17T15:38:03Z</time><name>PT12648</name></trkpt>
<trkpt lat="53.451083" lon="05.722454"><ele>4</ele><time>2021-02-17T15:38:04Z</time><name>PT12649</name></trkpt>
<trkpt lat="53.451079" lon="05.722470"><ele>4.2</ele><time>2021-02-17T15:38:05Z</time><name>PT12650</name></trkpt>
<trkpt lat="53.451076" lon="05.722487"><ele>4.2</ele><time>2021-02-17T15:38:06Z</time><name>PT12651</name></trkpt>
<trkpt lat="53.451076" lon="05.722504"><ele>4.2</ele><time>2021-02-17T15:38:07Z</time><name>PT12652</name></trkpt>
<trkpt lat="53.451075" lon="05.722524"><ele>4.1</ele><time>2021-02-17T15:38:08Z</time><name>PT12653</name></trkpt>
<trkpt lat="53.451072" lon="05.722539"><ele>3.9</ele><time>2021-02-17T15:38:09Z</time><name>PT12654</name></trkpt>
<trkpt lat="53.451069" lon="05.722554"><ele>3.9</ele><time>2021-02-17T15:38:10Z</time><name>PT12655</name></trkpt>
<trkpt lat="53.451067" lon="05.722569"><ele>3.8</ele><time>2021-02-17T15:38:11Z</time><name>PT12656</name></trkpt>
<trkpt lat="53.451064" lon="05.722585"><ele>4</ele><time>2021-02-17T15:38:12Z</time><name>PT12657</name></trkpt>
<trkpt lat="53.451061" lon="05.722602"><ele>4</ele><time>2021-02-17T15:38:13Z</time><name>PT12658</name></trkpt>
<trkpt lat="53.451058" lon="05.722620"><ele>4.1</ele><time>2021-02-17T15:38:14Z</time><name>PT12659</name></trkpt>
<trkpt lat="53.451054" lon="05.722637"><ele>4</ele><time>2021-02-17T15:38:15Z</time><name>PT12660</name></trkpt>
<trkpt lat="53.451051" lon="05.722652"><ele>4</ele><time>2021-02-17T15:38:16Z</time><name>PT12661</name></trkpt>
<trkpt lat="53.451047" lon="05.722668"><ele>4</ele><time>2021-02-17T15:38:17Z</time><name>PT12662</name></trkpt>
<trkpt lat="53.451043" lon="05.722685"><ele>4</ele><time>2021-02-17T15:38:18Z</time><name>PT12663</name></trkpt>
<trkpt lat="53.451039" lon="05.722700"><ele>4.1</ele><time>2021-02-17T15:38:19Z</time><name>PT12664</name></trkpt>
<trkpt lat="53.451035" lon="05.722715"><ele>4.3</ele><time>2021-02-17T15:38:20Z</time><name>PT12665</name></trkpt>
<trkpt lat="53.451032" lon="05.722729"><ele>4.3</ele><time>2021-02-17T15:38:21Z</time><name>PT12666</name></trkpt>
<trkpt lat="53.451028" lon="05.722745"><ele>4.4</ele><time>2021-02-17T15:38:22Z</time><name>PT12667</name></trkpt>
<trkpt lat="53.451024" lon="05.722761"><ele>4.5</ele><time>2021-02-17T15:38:23Z</time><name>PT12668</name></trkpt>
<trkpt lat="53.451020" lon="05.722776"><ele>4.3</ele><time>2021-02-17T15:38:24Z</time><name>PT12669</name></trkpt>
<trkpt lat="53.451016" lon="05.722795"><ele>4.2</ele><time>2021-02-17T15:38:25Z</time><name>PT12670</name></trkpt>
<trkpt lat="53.451013" lon="05.722814"><ele>4.1</ele><time>2021-02-17T15:38:26Z</time><name>PT12671</name></trkpt>
<trkpt lat="53.451011" lon="05.722832"><ele>4.1</ele><time>2021-02-17T15:38:27Z</time><name>PT12672</name></trkpt>
<trkpt lat="53.451010" lon="05.722851"><ele>4.2</ele><time>2021-02-17T15:38:28Z</time><name>PT12673</name></trkpt>
<trkpt lat="53.451007" lon="05.722866"><ele>4</ele><time>2021-02-17T15:38:29Z</time><name>PT12674</name></trkpt>
<trkpt lat="53.451002" lon="05.722881"><ele>4.1</ele><time>2021-02-17T15:38:30Z</time><name>PT12675</name></trkpt>
<trkpt lat="53.450996" lon="05.722896"><ele>4.1</ele><time>2021-02-17T15:38:31Z</time><name>PT12676</name></trkpt>
<trkpt lat="53.450992" lon="05.722908"><ele>3.9</ele><time>2021-02-17T15:38:32Z</time><name>PT12677</name></trkpt>
<trkpt lat="53.450988" lon="05.722921"><ele>4</ele><time>2021-02-17T15:38:33Z</time><name>PT12678</name></trkpt>
<trkpt lat="53.450983" lon="05.722937"><ele>4.1</ele><time>2021-02-17T15:38:34Z</time><name>PT12679</name></trkpt>
<trkpt lat="53.450979" lon="05.722955"><ele>4</ele><time>2021-02-17T15:38:35Z</time><name>PT12680</name></trkpt>
<trkpt lat="53.450975" lon="05.722968"><ele>4.1</ele><time>2021-02-17T15:38:36Z</time><name>PT12681</name></trkpt>
<trkpt lat="53.450971" lon="05.722980"><ele>4</ele><time>2021-02-17T15:38:37Z</time><name>PT12682</name></trkpt>
<trkpt lat="53.450969" lon="05.722996"><ele>3.8</ele><time>2021-02-17T15:38:38Z</time><name>PT12683</name></trkpt>
<trkpt lat="53.450967" lon="05.723014"><ele>3.8</ele><time>2021-02-17T15:38:39Z</time><name>PT12684</name></trkpt>
<trkpt lat="53.450962" lon="05.723027"><ele>3.4</ele><time>2021-02-17T15:38:40Z</time><name>PT12685</name></trkpt>
<trkpt lat="53.450959" lon="05.723042"><ele>3.3</ele><time>2021-02-17T15:38:41Z</time><name>PT12686</name></trkpt>
<trkpt lat="53.450956" lon="05.723057"><ele>3.4</ele><time>2021-02-17T15:38:42Z</time><name>PT12687</name></trkpt>
<trkpt lat="53.450953" lon="05.723072"><ele>3.5</ele><time>2021-02-17T15:38:43Z</time><name>PT12688</name></trkpt>
<trkpt lat="53.450950" lon="05.723083"><ele>3.7</ele><time>2021-02-17T15:38:44Z</time><name>PT12689</name></trkpt>
<trkpt lat="53.450948" lon="05.723096"><ele>3.7</ele><time>2021-02-17T15:38:45Z</time><name>PT12690</name></trkpt>
<trkpt lat="53.450947" lon="05.723110"><ele>3.6</ele><time>2021-02-17T15:38:46Z</time><name>PT12691</name></trkpt>
<trkpt lat="53.450944" lon="05.723121"><ele>3.5</ele><time>2021-02-17T15:38:47Z</time><name>PT12692</name></trkpt>
<trkpt lat="53.450940" lon="05.723131"><ele>3.5</ele><time>2021-02-17T15:38:48Z</time><name>PT12693</name></trkpt>
<trkpt lat="53.450936" lon="05.723145"><ele>3.7</ele><time>2021-02-17T15:38:49Z</time><name>PT12694</name></trkpt>
<trkpt lat="53.450932" lon="05.723159"><ele>3.9</ele><time>2021-02-17T15:38:50Z</time><name>PT12695</name></trkpt>
<trkpt lat="53.450929" lon="05.723172"><ele>3.8</ele><time>2021-02-17T15:38:51Z</time><name>PT12696</name></trkpt>
<trkpt lat="53.450925" lon="05.723186"><ele>3.9</ele><time>2021-02-17T15:38:52Z</time><name>PT12697</name></trkpt>
<trkpt lat="53.450921" lon="05.723199"><ele>3.9</ele><time>2021-02-17T15:38:53Z</time><name>PT12698</name></trkpt>
<trkpt lat="53.450917" lon="05.723212"><ele>3.9</ele><time>2021-02-17T15:38:54Z</time><name>PT12699</name></trkpt>
<trkpt lat="53.450916" lon="05.723226"><ele>3.7</ele><time>2021-02-17T15:38:55Z</time><name>PT12700</name></trkpt>
<trkpt lat="53.450915" lon="05.723239"><ele>3.7</ele><time>2021-02-17T15:38:56Z</time><name>PT12701</name></trkpt>
<trkpt lat="53.450912" lon="05.723255"><ele>3.6</ele><time>2021-02-17T15:38:57Z</time><name>PT12702</name></trkpt>
<trkpt lat="53.450909" lon="05.723271"><ele>3.3</ele><time>2021-02-17T15:38:58Z</time><name>PT12703</name></trkpt>
<trkpt lat="53.450905" lon="05.723285"><ele>3.5</ele><time>2021-02-17T15:38:59Z</time><name>PT12704</name></trkpt>
<trkpt lat="53.450902" lon="05.723298"><ele>3.5</ele><time>2021-02-17T15:39:00Z</time><name>PT12705</name></trkpt>
<trkpt lat="53.450900" lon="05.723314"><ele>3.6</ele><time>2021-02-17T15:39:01Z</time><name>PT12706</name></trkpt>
<trkpt lat="53.450898" lon="05.723331"><ele>3.7</ele><time>2021-02-17T15:39:02Z</time><name>PT12707</name></trkpt>
<trkpt lat="53.450896" lon="05.723347"><ele>3.6</ele><time>2021-02-17T15:39:03Z</time><name>PT12708</name></trkpt>
<trkpt lat="53.450892" lon="05.723363"><ele>3.4</ele><time>2021-02-17T15:39:04Z</time><name>PT12709</name></trkpt>
<trkpt lat="53.450888" lon="05.723380"><ele>3.4</ele><time>2021-02-17T15:39:05Z</time><name>PT12710</name></trkpt>
<trkpt lat="53.450884" lon="05.723395"><ele>3.3</ele><time>2021-02-17T15:39:06Z</time><name>PT12711</name></trkpt>
<trkpt lat="53.450881" lon="05.723410"><ele>3.4</ele><time>2021-02-17T15:39:07Z</time><name>PT12712</name></trkpt>
<trkpt lat="53.450880" lon="05.723427"><ele>3.4</ele><time>2021-02-17T15:39:08Z</time><name>PT12713</name></trkpt>
<trkpt lat="53.450878" lon="05.723444"><ele>3.5</ele><time>2021-02-17T15:39:09Z</time><name>PT12714</name></trkpt>
<trkpt lat="53.450875" lon="05.723457"><ele>3.6</ele><time>2021-02-17T15:39:10Z</time><name>PT12715</name></trkpt>
<trkpt lat="53.450871" lon="05.723474"><ele>3.8</ele><time>2021-02-17T15:39:11Z</time><name>PT12716</name></trkpt>
<trkpt lat="53.450867" lon="05.723491"><ele>3.7</ele><time>2021-02-17T15:39:12Z</time><name>PT12717</name></trkpt>
<trkpt lat="53.450864" lon="05.723508"><ele>3.6</ele><time>2021-02-17T15:39:13Z</time><name>PT12718</name></trkpt>
<trkpt lat="53.450860" lon="05.723525"><ele>3.7</ele><time>2021-02-17T15:39:14Z</time><name>PT12719</name></trkpt>
<trkpt lat="53.450858" lon="05.723542"><ele>3.4</ele><time>2021-02-17T15:39:15Z</time><name>PT12720</name></trkpt>
<trkpt lat="53.450855" lon="05.723559"><ele>3.2</ele><time>2021-02-17T15:39:16Z</time><name>PT12721</name></trkpt>
<trkpt lat="53.450852" lon="05.723572"><ele>3.2</ele><time>2021-02-17T15:39:17Z</time><name>PT12722</name></trkpt>
<trkpt lat="53.450848" lon="05.723584"><ele>3.2</ele><time>2021-02-17T15:39:18Z</time><name>PT12723</name></trkpt>
<trkpt lat="53.450843" lon="05.723592"><ele>3.1</ele><time>2021-02-17T15:39:19Z</time><name>PT12724</name></trkpt>
<trkpt lat="53.450838" lon="05.723605"><ele>3.1</ele><time>2021-02-17T15:39:20Z</time><name>PT12725</name></trkpt>
<trkpt lat="53.450833" lon="05.723619"><ele>3.3</ele><time>2021-02-17T15:39:21Z</time><name>PT12726</name></trkpt>
<trkpt lat="53.450831" lon="05.723632"><ele>3.2</ele><time>2021-02-17T15:39:22Z</time><name>PT12727</name></trkpt>
<trkpt lat="53.450829" lon="05.723646"><ele>3.2</ele><time>2021-02-17T15:39:23Z</time><name>PT12728</name></trkpt>
<trkpt lat="53.450825" lon="05.723661"><ele>3.2</ele><time>2021-02-17T15:39:24Z</time><name>PT12729</name></trkpt>
<trkpt lat="53.450822" lon="05.723674"><ele>3</ele><time>2021-02-17T15:39:25Z</time><name>PT12730</name></trkpt>
<trkpt lat="53.450819" lon="05.723688"><ele>3.2</ele><time>2021-02-17T15:39:26Z</time><name>PT12731</name></trkpt>
<trkpt lat="53.450814" lon="05.723703"><ele>3.3</ele><time>2021-02-17T15:39:27Z</time><name>PT12732</name></trkpt>
<trkpt lat="53.450808" lon="05.723716"><ele>3.2</ele><time>2021-02-17T15:39:28Z</time><name>PT12733</name></trkpt>
<trkpt lat="53.450804" lon="05.723730"><ele>3.7</ele><time>2021-02-17T15:39:29Z</time><name>PT12734</name></trkpt>
<trkpt lat="53.450801" lon="05.723746"><ele>3.9</ele><time>2021-02-17T15:39:30Z</time><name>PT12735</name></trkpt>
<trkpt lat="53.450798" lon="05.723763"><ele>4</ele><time>2021-02-17T15:39:31Z</time><name>PT12736</name></trkpt>
<trkpt lat="53.450795" lon="05.723775"><ele>4.1</ele><time>2021-02-17T15:39:32Z</time><name>PT12737</name></trkpt>
<trkpt lat="53.450789" lon="05.723785"><ele>4</ele><time>2021-02-17T15:39:33Z</time><name>PT12738</name></trkpt>
<trkpt lat="53.450784" lon="05.723799"><ele>4</ele><time>2021-02-17T15:39:34Z</time><name>PT12739</name></trkpt>
<trkpt lat="53.450779" lon="05.723817"><ele>3.9</ele><time>2021-02-17T15:39:35Z</time><name>PT12740</name></trkpt>
<trkpt lat="53.450773" lon="05.723828"><ele>4.1</ele><time>2021-02-17T15:39:36Z</time><name>PT12741</name></trkpt>
<trkpt lat="53.450767" lon="05.723844"><ele>4.1</ele><time>2021-02-17T15:39:37Z</time><name>PT12742</name></trkpt>
<trkpt lat="53.450763" lon="05.723861"><ele>3.9</ele><time>2021-02-17T15:39:38Z</time><name>PT12743</name></trkpt>
<trkpt lat="53.450760" lon="05.723875"><ele>3.8</ele><time>2021-02-17T15:39:39Z</time><name>PT12744</name></trkpt>
<trkpt lat="53.450756" lon="05.723890"><ele>3.7</ele><time>2021-02-17T15:39:40Z</time><name>PT12745</name></trkpt>
<trkpt lat="53.450751" lon="05.723904"><ele>3.9</ele><time>2021-02-17T15:39:41Z</time><name>PT12746</name></trkpt>
<trkpt lat="53.450746" lon="05.723920"><ele>3.8</ele><time>2021-02-17T15:39:42Z</time><name>PT12747</name></trkpt>
<trkpt lat="53.450740" lon="05.723934"><ele>3.9</ele><time>2021-02-17T15:39:43Z</time><name>PT12748</name></trkpt>
<trkpt lat="53.450735" lon="05.723949"><ele>3.9</ele><time>2021-02-17T15:39:44Z</time><name>PT12749</name></trkpt>
<trkpt lat="53.450730" lon="05.723964"><ele>4</ele><time>2021-02-17T15:39:45Z</time><name>PT12750</name></trkpt>
<trkpt lat="53.450725" lon="05.723979"><ele>4.2</ele><time>2021-02-17T15:39:46Z</time><name>PT12751</name></trkpt>
<trkpt lat="53.450720" lon="05.723995"><ele>4.2</ele><time>2021-02-17T15:39:47Z</time><name>PT12752</name></trkpt>
<trkpt lat="53.450714" lon="05.724015"><ele>4.2</ele><time>2021-02-17T15:39:48Z</time><name>PT12753</name></trkpt>
<trkpt lat="53.450710" lon="05.724032"><ele>4</ele><time>2021-02-17T15:39:49Z</time><name>PT12754</name></trkpt>
<trkpt lat="53.450708" lon="05.724047"><ele>3.9</ele><time>2021-02-17T15:39:50Z</time><name>PT12755</name></trkpt>
<trkpt lat="53.450703" lon="05.724061"><ele>3.8</ele><time>2021-02-17T15:39:51Z</time><name>PT12756</name></trkpt>
<trkpt lat="53.450699" lon="05.724076"><ele>3.7</ele><time>2021-02-17T15:39:52Z</time><name>PT12757</name></trkpt>
<trkpt lat="53.450695" lon="05.724085"><ele>3.7</ele><time>2021-02-17T15:39:53Z</time><name>PT12758</name></trkpt>
<trkpt lat="53.450689" lon="05.724097"><ele>3.7</ele><time>2021-02-17T15:39:54Z</time><name>PT12759</name></trkpt>
<trkpt lat="53.450684" lon="05.724111"><ele>3.8</ele><time>2021-02-17T15:39:55Z</time><name>PT12760</name></trkpt>
<trkpt lat="53.450679" lon="05.724122"><ele>4</ele><time>2021-02-17T15:39:56Z</time><name>PT12761</name></trkpt>
<trkpt lat="53.450675" lon="05.724136"><ele>4</ele><time>2021-02-17T15:39:57Z</time><name>PT12762</name></trkpt>
<trkpt lat="53.450671" lon="05.724149"><ele>4.1</ele><time>2021-02-17T15:39:58Z</time><name>PT12763</name></trkpt>
<trkpt lat="53.450669" lon="05.724160"><ele>4.2</ele><time>2021-02-17T15:39:59Z</time><name>PT12764</name></trkpt>
<trkpt lat="53.450664" lon="05.724176"><ele>4.2</ele><time>2021-02-17T15:40:00Z</time><name>PT12765</name></trkpt>
<trkpt lat="53.450660" lon="05.724190"><ele>4.2</ele><time>2021-02-17T15:40:01Z</time><name>PT12766</name></trkpt>
<trkpt lat="53.450657" lon="05.724196"><ele>4.2</ele><time>2021-02-17T15:40:02Z</time><name>PT12767</name></trkpt>
<trkpt lat="53.450653" lon="05.724213"><ele>4.2</ele><time>2021-02-17T15:40:03Z</time><name>PT12768</name></trkpt>
<trkpt lat="53.450648" lon="05.724228"><ele>4.2</ele><time>2021-02-17T15:40:04Z</time><name>PT12769</name></trkpt>
<trkpt lat="53.450641" lon="05.724233"><ele>4.6</ele><time>2021-02-17T15:40:05Z</time><name>PT12770</name></trkpt>
<trkpt lat="53.450636" lon="05.724245"><ele>4.5</ele><time>2021-02-17T15:40:06Z</time><name>PT12771</name></trkpt>
<trkpt lat="53.450631" lon="05.724256"><ele>4.7</ele><time>2021-02-17T15:40:07Z</time><name>PT12772</name></trkpt>
<trkpt lat="53.450628" lon="05.724271"><ele>4.9</ele><time>2021-02-17T15:40:08Z</time><name>PT12773</name></trkpt>
<trkpt lat="53.450624" lon="05.724289"><ele>4.7</ele><time>2021-02-17T15:40:09Z</time><name>PT12774</name></trkpt>
<trkpt lat="53.450621" lon="05.724305"><ele>4.7</ele><time>2021-02-17T15:40:10Z</time><name>PT12775</name></trkpt>
<trkpt lat="53.450617" lon="05.724323"><ele>4.7</ele><time>2021-02-17T15:40:11Z</time><name>PT12776</name></trkpt>
<trkpt lat="53.450614" lon="05.724338"><ele>4.6</ele><time>2021-02-17T15:40:12Z</time><name>PT12777</name></trkpt>
<trkpt lat="53.450610" lon="05.724353"><ele>4.5</ele><time>2021-02-17T15:40:13Z</time><name>PT12778</name></trkpt>
<trkpt lat="53.450606" lon="05.724368"><ele>4.3</ele><time>2021-02-17T15:40:14Z</time><name>PT12779</name></trkpt>
<trkpt lat="53.450601" lon="05.724383"><ele>4.2</ele><time>2021-02-17T15:40:15Z</time><name>PT12780</name></trkpt>
<trkpt lat="53.450595" lon="05.724396"><ele>4.1</ele><time>2021-02-17T15:40:16Z</time><name>PT12781</name></trkpt>
<trkpt lat="53.450590" lon="05.724409"><ele>4</ele><time>2021-02-17T15:40:17Z</time><name>PT12782</name></trkpt>
<trkpt lat="53.450585" lon="05.724424"><ele>4.1</ele><time>2021-02-17T15:40:18Z</time><name>PT12783</name></trkpt>
<trkpt lat="53.450582" lon="05.724442"><ele>4.1</ele><time>2021-02-17T15:40:19Z</time><name>PT12784</name></trkpt>
<trkpt lat="53.450581" lon="05.724460"><ele>4</ele><time>2021-02-17T15:40:20Z</time><name>PT12785</name></trkpt>
<trkpt lat="53.450577" lon="05.724476"><ele>4</ele><time>2021-02-17T15:40:21Z</time><name>PT12786</name></trkpt>
<trkpt lat="53.450572" lon="05.724493"><ele>4.2</ele><time>2021-02-17T15:40:22Z</time><name>PT12787</name></trkpt>
<trkpt lat="53.450565" lon="05.724507"><ele>4.3</ele><time>2021-02-17T15:40:23Z</time><name>PT12788</name></trkpt>
<trkpt lat="53.450559" lon="05.724519"><ele>4.2</ele><time>2021-02-17T15:40:24Z</time><name>PT12789</name></trkpt>
<trkpt lat="53.450555" lon="05.724536"><ele>4.2</ele><time>2021-02-17T15:40:25Z</time><name>PT12790</name></trkpt>
<trkpt lat="53.450553" lon="05.724554"><ele>4.2</ele><time>2021-02-17T15:40:26Z</time><name>PT12791</name></trkpt>
<trkpt lat="53.450553" lon="05.724571"><ele>4.1</ele><time>2021-02-17T15:40:27Z</time><name>PT12792</name></trkpt>
<trkpt lat="53.450552" lon="05.724599"><ele>4.2</ele><time>2021-02-17T15:40:28Z</time><name>PT12793</name></trkpt>
<trkpt lat="53.450550" lon="05.724616"><ele>4.2</ele><time>2021-02-17T15:40:29Z</time><name>PT12794</name></trkpt>
<trkpt lat="53.450546" lon="05.724633"><ele>4.2</ele><time>2021-02-17T15:40:30Z</time><name>PT12795</name></trkpt>
<trkpt lat="53.450542" lon="05.724652"><ele>4.2</ele><time>2021-02-17T15:40:31Z</time><name>PT12796</name></trkpt>
<trkpt lat="53.450539" lon="05.724671"><ele>4.2</ele><time>2021-02-17T15:40:32Z</time><name>PT12797</name></trkpt>
<trkpt lat="53.450536" lon="05.724688"><ele>4.1</ele><time>2021-02-17T15:40:33Z</time><name>PT12798</name></trkpt>
<trkpt lat="53.450534" lon="05.724706"><ele>3.9</ele><time>2021-02-17T15:40:34Z</time><name>PT12799</name></trkpt>
<trkpt lat="53.450533" lon="05.724725"><ele>4</ele><time>2021-02-17T15:40:35Z</time><name>PT12800</name></trkpt>
<trkpt lat="53.450530" lon="05.724743"><ele>3.9</ele><time>2021-02-17T15:40:36Z</time><name>PT12801</name></trkpt>
<trkpt lat="53.450528" lon="05.724760"><ele>4.1</ele><time>2021-02-17T15:40:37Z</time><name>PT12802</name></trkpt>
<trkpt lat="53.450525" lon="05.724778"><ele>4.2</ele><time>2021-02-17T15:40:38Z</time><name>PT12803</name></trkpt>
<trkpt lat="53.450521" lon="05.724795"><ele>4</ele><time>2021-02-17T15:40:39Z</time><name>PT12804</name></trkpt>
<trkpt lat="53.450517" lon="05.724811"><ele>4.2</ele><time>2021-02-17T15:40:40Z</time><name>PT12805</name></trkpt>
<trkpt lat="53.450514" lon="05.724827"><ele>3.9</ele><time>2021-02-17T15:40:41Z</time><name>PT12806</name></trkpt>
<trkpt lat="53.450511" lon="05.724844"><ele>4</ele><time>2021-02-17T15:40:42Z</time><name>PT12807</name></trkpt>
<trkpt lat="53.450509" lon="05.724860"><ele>3.8</ele><time>2021-02-17T15:40:43Z</time><name>PT12808</name></trkpt>
<trkpt lat="53.450507" lon="05.724876"><ele>3.9</ele><time>2021-02-17T15:40:44Z</time><name>PT12809</name></trkpt>
<trkpt lat="53.450502" lon="05.724888"><ele>3.7</ele><time>2021-02-17T15:40:45Z</time><name>PT12810</name></trkpt>
<trkpt lat="53.450497" lon="05.724901"><ele>3.7</ele><time>2021-02-17T15:40:46Z</time><name>PT12811</name></trkpt>
<trkpt lat="53.450492" lon="05.724917"><ele>3.9</ele><time>2021-02-17T15:40:47Z</time><name>PT12812</name></trkpt>
<trkpt lat="53.450489" lon="05.724931"><ele>3.9</ele><time>2021-02-17T15:40:48Z</time><name>PT12813</name></trkpt>
<trkpt lat="53.450485" lon="05.724941"><ele>4</ele><time>2021-02-17T15:40:49Z</time><name>PT12814</name></trkpt>
<trkpt lat="53.450482" lon="05.724954"><ele>4.2</ele><time>2021-02-17T15:40:50Z</time><name>PT12815</name></trkpt>
<trkpt lat="53.450479" lon="05.724970"><ele>4.2</ele><time>2021-02-17T15:40:51Z</time><name>PT12816</name></trkpt>
<trkpt lat="53.450476" lon="05.724987"><ele>3.9</ele><time>2021-02-17T15:40:52Z</time><name>PT12817</name></trkpt>
<trkpt lat="53.450474" lon="05.725000"><ele>3.8</ele><time>2021-02-17T15:40:53Z</time><name>PT12818</name></trkpt>
<trkpt lat="53.450471" lon="05.725013"><ele>3.9</ele><time>2021-02-17T15:40:54Z</time><name>PT12819</name></trkpt>
<trkpt lat="53.450467" lon="05.725025"><ele>3.9</ele><time>2021-02-17T15:40:55Z</time><name>PT12820</name></trkpt>
<trkpt lat="53.450463" lon="05.725038"><ele>4</ele><time>2021-02-17T15:40:56Z</time><name>PT12821</name></trkpt>
<trkpt lat="53.450459" lon="05.725052"><ele>3.9</ele><time>2021-02-17T15:40:57Z</time><name>PT12822</name></trkpt>
<trkpt lat="53.450456" lon="05.725065"><ele>3.9</ele><time>2021-02-17T15:40:58Z</time><name>PT12823</name></trkpt>
<trkpt lat="53.450452" lon="05.725079"><ele>3.8</ele><time>2021-02-17T15:40:59Z</time><name>PT12824</name></trkpt>
<trkpt lat="53.450449" lon="05.725093"><ele>3.8</ele><time>2021-02-17T15:41:00Z</time><name>PT12825</name></trkpt>
<trkpt lat="53.450446" lon="05.725109"><ele>3.7</ele><time>2021-02-17T15:41:01Z</time><name>PT12826</name></trkpt>
<trkpt lat="53.450441" lon="05.725124"><ele>3.9</ele><time>2021-02-17T15:41:02Z</time><name>PT12827</name></trkpt>
<trkpt lat="53.450439" lon="05.725139"><ele>3.9</ele><time>2021-02-17T15:41:03Z</time><name>PT12828</name></trkpt>
<trkpt lat="53.450438" lon="05.725146"><ele>4.1</ele><time>2021-02-17T15:41:04Z</time><name>PT12829</name></trkpt>
<trkpt lat="53.450438" lon="05.725152"><ele>4.1</ele><time>2021-02-17T15:41:05Z</time><name>PT12830</name></trkpt>
<trkpt lat="53.450436" lon="05.725159"><ele>4.1</ele><time>2021-02-17T15:41:06Z</time><name>PT12831</name></trkpt>
<trkpt lat="53.450434" lon="05.725174"><ele>4.1</ele><time>2021-02-17T15:41:07Z</time><name>PT12832</name></trkpt>
<trkpt lat="53.450429" lon="05.725190"><ele>3.8</ele><time>2021-02-17T15:41:08Z</time><name>PT12833</name></trkpt>
<trkpt lat="53.450425" lon="05.725205"><ele>3.8</ele><time>2021-02-17T15:41:09Z</time><name>PT12834</name></trkpt>
<trkpt lat="53.450421" lon="05.725220"><ele>3.7</ele><time>2021-02-17T15:41:10Z</time><name>PT12835</name></trkpt>
<trkpt lat="53.450417" lon="05.725236"><ele>3.8</ele><time>2021-02-17T15:41:11Z</time><name>PT12836</name></trkpt>
<trkpt lat="53.450413" lon="05.725250"><ele>3.9</ele><time>2021-02-17T15:41:12Z</time><name>PT12837</name></trkpt>
<trkpt lat="53.450411" lon="05.725259"><ele>3.9</ele><time>2021-02-17T15:41:13Z</time><name>PT12838</name></trkpt>
<trkpt lat="53.450406" lon="05.725271"><ele>3.9</ele><time>2021-02-17T15:41:14Z</time><name>PT12839</name></trkpt>
<trkpt lat="53.450404" lon="05.725279"><ele>3.8</ele><time>2021-02-17T15:41:15Z</time><name>PT12840</name></trkpt>
<trkpt lat="53.450403" lon="05.725286"><ele>3.5</ele><time>2021-02-17T15:41:16Z</time><name>PT12841</name></trkpt>
<trkpt lat="53.450405" lon="05.725290"><ele>3.5</ele><time>2021-02-17T15:41:17Z</time><name>PT12842</name></trkpt>
<trkpt lat="53.450406" lon="05.725295"><ele>3.6</ele><time>2021-02-17T15:41:18Z</time><name>PT12843</name></trkpt>
<trkpt lat="53.450405" lon="05.725294"><ele>3.5</ele><time>2021-02-17T15:41:19Z</time><name>PT12844</name></trkpt>
<trkpt lat="53.450405" lon="05.725321"><ele>3.4</ele><time>2021-02-17T15:41:36Z</time><name>PT12845</name></trkpt>
<trkpt lat="53.450397" lon="05.725356"><ele>3.1</ele><time>2021-02-17T15:41:37Z</time><name>PT12846</name></trkpt>
<trkpt lat="53.450392" lon="05.725376"><ele>3</ele><time>2021-02-17T15:41:38Z</time><name>PT12847</name></trkpt>
<trkpt lat="53.450386" lon="05.725394"><ele>3.1</ele><time>2021-02-17T15:41:39Z</time><name>PT12848</name></trkpt>
<trkpt lat="53.450382" lon="05.725408"><ele>3.1</ele><time>2021-02-17T15:41:40Z</time><name>PT12849</name></trkpt>
<trkpt lat="53.450378" lon="05.725420"><ele>3</ele><time>2021-02-17T15:41:41Z</time><name>PT12850</name></trkpt>
<trkpt lat="53.450378" lon="05.725430"><ele>3.2</ele><time>2021-02-17T15:41:42Z</time><name>PT12851</name></trkpt>
<trkpt lat="53.450381" lon="05.725443"><ele>3.2</ele><time>2021-02-17T15:41:43Z</time><name>PT12852</name></trkpt>
<trkpt lat="53.450383" lon="05.725452"><ele>3.2</ele><time>2021-02-17T15:41:44Z</time><name>PT12853</name></trkpt>
<trkpt lat="53.450381" lon="05.725454"><ele>3.2</ele><time>2021-02-17T15:41:45Z</time><name>PT12854</name></trkpt>
<trkpt lat="53.450378" lon="05.725472"><ele>3.3</ele><time>2021-02-17T15:42:05Z</time><name>PT12855</name></trkpt>
<trkpt lat="53.450377" lon="05.725492"><ele>3.3</ele><time>2021-02-17T15:42:06Z</time><name>PT12856</name></trkpt>
<trkpt lat="53.450376" lon="05.725501"><ele>3.4</ele><time>2021-02-17T15:42:07Z</time><name>PT12857</name></trkpt>
<trkpt lat="53.450374" lon="05.725504"><ele>3.5</ele><time>2021-02-17T15:42:08Z</time><name>PT12858</name></trkpt>
<trkpt lat="53.450373" lon="05.725510"><ele>3.6</ele><time>2021-02-17T15:42:09Z</time><name>PT12859</name></trkpt>
<trkpt lat="53.450373" lon="05.725518"><ele>3.7</ele><time>2021-02-17T15:42:14Z</time><name>PT12860</name></trkpt>
<trkpt lat="53.450370" lon="05.725527"><ele>3.7</ele><time>2021-02-17T15:42:15Z</time><name>PT12861</name></trkpt>
<trkpt lat="53.450369" lon="05.725533"><ele>3.6</ele><time>2021-02-17T15:42:16Z</time><name>PT12862</name></trkpt>
<trkpt lat="53.450370" lon="05.725550"><ele>3.4</ele><time>2021-02-17T15:42:17Z</time><name>PT12863</name></trkpt>
<trkpt lat="53.450369" lon="05.725558"><ele>3.2</ele><time>2021-02-17T15:42:18Z</time><name>PT12864</name></trkpt>
<trkpt lat="53.450365" lon="05.725561"><ele>4</ele><time>2021-02-17T15:42:39Z</time><name>PT12865</name></trkpt>
<trkpt lat="53.450360" lon="05.725570"><ele>4</ele><time>2021-02-17T15:42:40Z</time><name>PT12866</name></trkpt>
<trkpt lat="53.450355" lon="05.725581"><ele>3.7</ele><time>2021-02-17T15:42:41Z</time><name>PT12867</name></trkpt>
<trkpt lat="53.450354" lon="05.725594"><ele>3.7</ele><time>2021-02-17T15:42:42Z</time><name>PT12868</name></trkpt>
<trkpt lat="53.450350" lon="05.725605"><ele>3.5</ele><time>2021-02-17T15:42:43Z</time><name>PT12869</name></trkpt>
<trkpt lat="53.450349" lon="05.725616"><ele>3.4</ele><time>2021-02-17T15:42:44Z</time><name>PT12870</name></trkpt>
<trkpt lat="53.450344" lon="05.725640"><ele>3.4</ele><time>2021-02-17T15:42:45Z</time><name>PT12871</name></trkpt>
<trkpt lat="53.450341" lon="05.725646"><ele>3.3</ele><time>2021-02-17T15:42:46Z</time><name>PT12872</name></trkpt>
<trkpt lat="53.450342" lon="05.725655"><ele>3.2</ele><time>2021-02-17T15:42:47Z</time><name>PT12873</name></trkpt>
<trkpt lat="53.450342" lon="05.725668"><ele>3.4</ele><time>2021-02-17T15:42:48Z</time><name>PT12874</name></trkpt>
<trkpt lat="53.450342" lon="05.725674"><ele>3.4</ele><time>2021-02-17T15:42:49Z</time><name>PT12875</name></trkpt>
<trkpt lat="53.450342" lon="05.725674"><ele>3.5</ele><time>2021-02-17T15:42:50Z</time><name>PT12876</name></trkpt>
<trkpt lat="53.450341" lon="05.725684"><ele>3.6</ele><time>2021-02-17T15:42:52Z</time><name>PT12877</name></trkpt>
<trkpt lat="53.450340" lon="05.725698"><ele>3.4</ele><time>2021-02-17T15:42:53Z</time><name>PT12878</name></trkpt>
<trkpt lat="53.450340" lon="05.725702"><ele>3.3</ele><time>2021-02-17T15:42:54Z</time><name>PT12879</name></trkpt>
<trkpt lat="53.450340" lon="05.725704"><ele>3.4</ele><time>2021-02-17T15:42:55Z</time><name>PT12880</name></trkpt>
<trkpt lat="53.450340" lon="05.725726"><ele>3.4</ele><time>2021-02-17T15:43:58Z</time><name>PT12881</name></trkpt>
<trkpt lat="53.450336" lon="05.725726"><ele>3.4</ele><time>2021-02-17T15:43:59Z</time><name>PT12882</name></trkpt>
<trkpt lat="53.450334" lon="05.725723"><ele>3.5</ele><time>2021-02-17T15:44:00Z</time><name>PT12883</name></trkpt>
<trkpt lat="53.450332" lon="05.725717"><ele>3.5</ele><time>2021-02-17T15:44:01Z</time><name>PT12884</name></trkpt>
<trkpt lat="53.450332" lon="05.725711"><ele>3.2</ele><time>2021-02-17T15:44:02Z</time><name>PT12885</name></trkpt>
<trkpt lat="53.450330" lon="05.725709"><ele>3.2</ele><time>2021-02-17T15:44:03Z</time><name>PT12886</name></trkpt>
<trkpt lat="53.450329" lon="05.725713"><ele>3</ele><time>2021-02-17T15:44:04Z</time><name>PT12887</name></trkpt>
<trkpt lat="53.450328" lon="05.725721"><ele>2.7</ele><time>2021-02-17T15:44:05Z</time><name>PT12888</name></trkpt>
<trkpt lat="53.450325" lon="05.725718"><ele>2.7</ele><time>2021-02-17T15:44:06Z</time><name>PT12889</name></trkpt>
<trkpt lat="53.450322" lon="05.725721"><ele>2.4</ele><time>2021-02-17T15:44:07Z</time><name>PT12890</name></trkpt>
<trkpt lat="53.450321" lon="05.725723"><ele>2.3</ele><time>2021-02-17T15:44:08Z</time><name>PT12891</name></trkpt>
<trkpt lat="53.450320" lon="05.725726"><ele>2.3</ele><time>2021-02-17T15:44:09Z</time><name>PT12892</name></trkpt>
<trkpt lat="53.450322" lon="05.725717"><ele>3.2</ele><time>2021-02-17T15:44:21Z</time><name>PT12893</name></trkpt>
<trkpt lat="53.450328" lon="05.725694"><ele>3.2</ele><time>2021-02-17T15:44:22Z</time><name>PT12894</name></trkpt>
<trkpt lat="53.450334" lon="05.725682"><ele>3.1</ele><time>2021-02-17T15:44:23Z</time><name>PT12895</name></trkpt>
<trkpt lat="53.450336" lon="05.725666"><ele>3.2</ele><time>2021-02-17T15:44:24Z</time><name>PT12896</name></trkpt>
<trkpt lat="53.450338" lon="05.725649"><ele>3</ele><time>2021-02-17T15:44:25Z</time><name>PT12897</name></trkpt>
<trkpt lat="53.450341" lon="05.725643"><ele>2.8</ele><time>2021-02-17T15:44:26Z</time><name>PT12898</name></trkpt>
<trkpt lat="53.450341" lon="05.725639"><ele>2.8</ele><time>2021-02-17T15:44:27Z</time><name>PT12899</name></trkpt>
<trkpt lat="53.450344" lon="05.725633"><ele>2.4</ele><time>2021-02-17T15:44:28Z</time><name>PT12900</name></trkpt>
<trkpt lat="53.450341" lon="05.725628"><ele>2.8</ele><time>2021-02-17T15:45:07Z</time><name>PT12901</name></trkpt>
<trkpt lat="53.450341" lon="05.725640"><ele>3.2</ele><time>2021-02-17T15:45:08Z</time><name>PT12902</name></trkpt>
<trkpt lat="53.450340" lon="05.725648"><ele>3.5</ele><time>2021-02-17T15:45:09Z</time><name>PT12903</name></trkpt>
<trkpt lat="53.450339" lon="05.725656"><ele>4.1</ele><time>2021-02-17T15:45:10Z</time><name>PT12904</name></trkpt>
<trkpt lat="53.450336" lon="05.725661"><ele>4.2</ele><time>2021-02-17T15:45:11Z</time><name>PT12905</name></trkpt>
<trkpt lat="53.450333" lon="05.725665"><ele>4.2</ele><time>2021-02-17T15:45:12Z</time><name>PT12906</name></trkpt>
<trkpt lat="53.450329" lon="05.725678"><ele>4.2</ele><time>2021-02-17T15:45:13Z</time><name>PT12907</name></trkpt>
<trkpt lat="53.450328" lon="05.725687"><ele>4</ele><time>2021-02-17T15:45:14Z</time><name>PT12908</name></trkpt>
<trkpt lat="53.450325" lon="05.725694"><ele>3.8</ele><time>2021-02-17T15:45:15Z</time><name>PT12909</name></trkpt>
<trkpt lat="53.450325" lon="05.725701"><ele>4</ele><time>2021-02-17T15:45:16Z</time><name>PT12910</name></trkpt>
<trkpt lat="53.450323" lon="05.725717"><ele>3.9</ele><time>2021-02-17T15:45:17Z</time><name>PT12911</name></trkpt>
<trkpt lat="53.450320" lon="05.725729"><ele>3.9</ele><time>2021-02-17T15:45:18Z</time><name>PT12912</name></trkpt>
<trkpt lat="53.450318" lon="05.725742"><ele>4</ele><time>2021-02-17T15:45:19Z</time><name>PT12913</name></trkpt>
<trkpt lat="53.450316" lon="05.725752"><ele>3.7</ele><time>2021-02-17T15:45:20Z</time><name>PT12914</name></trkpt>
<trkpt lat="53.450316" lon="05.725760"><ele>3.8</ele><time>2021-02-17T15:45:21Z</time><name>PT12915</name></trkpt>
<trkpt lat="53.450316" lon="05.725763"><ele>3.6</ele><time>2021-02-17T15:45:22Z</time><name>PT12916</name></trkpt>
<trkpt lat="53.450317" lon="05.725763"><ele>3.7</ele><time>2021-02-17T15:45:23Z</time><name>PT12917</name></trkpt>
<trkpt lat="53.450317" lon="05.725763"><ele>3.7</ele><time>2021-02-17T15:45:24Z</time><name>PT12918</name></trkpt>
<trkpt lat="53.450313" lon="05.725768"><ele>4.1</ele><time>2021-02-17T15:45:28Z</time><name>PT12919</name></trkpt>
<trkpt lat="53.450311" lon="05.725784"><ele>4.2</ele><time>2021-02-17T15:45:29Z</time><name>PT12920</name></trkpt>
<trkpt lat="53.450307" lon="05.725795"><ele>4.2</ele><time>2021-02-17T15:45:30Z</time><name>PT12921</name></trkpt>
<trkpt lat="53.450302" lon="05.725807"><ele>3.8</ele><time>2021-02-17T15:45:31Z</time><name>PT12922</name></trkpt>
<trkpt lat="53.450299" lon="05.725821"><ele>3.6</ele><time>2021-02-17T15:45:32Z</time><name>PT12923</name></trkpt>
<trkpt lat="53.450298" lon="05.725839"><ele>3.6</ele><time>2021-02-17T15:45:33Z</time><name>PT12924</name></trkpt>
<trkpt lat="53.450295" lon="05.725854"><ele>3.6</ele><time>2021-02-17T15:45:34Z</time><name>PT12925</name></trkpt>
<trkpt lat="53.450292" lon="05.725866"><ele>3.7</ele><time>2021-02-17T15:45:35Z</time><name>PT12926</name></trkpt>
<trkpt lat="53.450291" lon="05.725878"><ele>3.9</ele><time>2021-02-17T15:45:36Z</time><name>PT12927</name></trkpt>
<trkpt lat="53.450287" lon="05.725894"><ele>4.1</ele><time>2021-02-17T15:45:37Z</time><name>PT12928</name></trkpt>
<trkpt lat="53.450286" lon="05.725910"><ele>3.9</ele><time>2021-02-17T15:45:38Z</time><name>PT12929</name></trkpt>
<trkpt lat="53.450284" lon="05.725928"><ele>4.2</ele><time>2021-02-17T15:45:39Z</time><name>PT12930</name></trkpt>
<trkpt lat="53.450282" lon="05.725946"><ele>3.9</ele><time>2021-02-17T15:45:40Z</time><name>PT12931</name></trkpt>
<trkpt lat="53.450277" lon="05.725961"><ele>4.3</ele><time>2021-02-17T15:45:41Z</time><name>PT12932</name></trkpt>
<trkpt lat="53.450271" lon="05.725975"><ele>4.6</ele><time>2021-02-17T15:45:42Z</time><name>PT12933</name></trkpt>
<trkpt lat="53.450265" lon="05.725994"><ele>4.8</ele><time>2021-02-17T15:45:43Z</time><name>PT12934</name></trkpt>
<trkpt lat="53.450262" lon="05.726014"><ele>4.8</ele><time>2021-02-17T15:45:44Z</time><name>PT12935</name></trkpt>
<trkpt lat="53.450259" lon="05.726031"><ele>4.5</ele><time>2021-02-17T15:45:45Z</time><name>PT12936</name></trkpt>
<trkpt lat="53.450257" lon="05.726048"><ele>4.3</ele><time>2021-02-17T15:45:46Z</time><name>PT12937</name></trkpt>
<trkpt lat="53.450252" lon="05.726063"><ele>4</ele><time>2021-02-17T15:45:47Z</time><name>PT12938</name></trkpt>
<trkpt lat="53.450249" lon="05.726078"><ele>4.1</ele><time>2021-02-17T15:45:48Z</time><name>PT12939</name></trkpt>
<trkpt lat="53.450246" lon="05.726092"><ele>4.2</ele><time>2021-02-17T15:45:49Z</time><name>PT12940</name></trkpt>
<trkpt lat="53.450241" lon="05.726106"><ele>4.2</ele><time>2021-02-17T15:45:50Z</time><name>PT12941</name></trkpt>
<trkpt lat="53.450236" lon="05.726124"><ele>4.2</ele><time>2021-02-17T15:45:51Z</time><name>PT12942</name></trkpt>
<trkpt lat="53.450231" lon="05.726140"><ele>4.2</ele><time>2021-02-17T15:45:52Z</time><name>PT12943</name></trkpt>
<trkpt lat="53.450228" lon="05.726157"><ele>4.2</ele><time>2021-02-17T15:45:53Z</time><name>PT12944</name></trkpt>
<trkpt lat="53.450225" lon="05.726174"><ele>4.2</ele><time>2021-02-17T15:45:54Z</time><name>PT12945</name></trkpt>
<trkpt lat="53.450223" lon="05.726189"><ele>4</ele><time>2021-02-17T15:45:55Z</time><name>PT12946</name></trkpt>
<trkpt lat="53.450220" lon="05.726204"><ele>3.8</ele><time>2021-02-17T15:45:56Z</time><name>PT12947</name></trkpt>
<trkpt lat="53.450218" lon="05.726220"><ele>3.7</ele><time>2021-02-17T15:45:57Z</time><name>PT12948</name></trkpt>
<trkpt lat="53.450215" lon="05.726237"><ele>3.7</ele><time>2021-02-17T15:45:58Z</time><name>PT12949</name></trkpt>
<trkpt lat="53.450212" lon="05.726254"><ele>4.1</ele><time>2021-02-17T15:45:59Z</time><name>PT12950</name></trkpt>
<trkpt lat="53.450210" lon="05.726274"><ele>4.1</ele><time>2021-02-17T15:46:00Z</time><name>PT12951</name></trkpt>
<trkpt lat="53.450208" lon="05.726291"><ele>4.1</ele><time>2021-02-17T15:46:01Z</time><name>PT12952</name></trkpt>
<trkpt lat="53.450206" lon="05.726306"><ele>4.3</ele><time>2021-02-17T15:46:02Z</time><name>PT12953</name></trkpt>
<trkpt lat="53.450204" lon="05.726322"><ele>4</ele><time>2021-02-17T15:46:03Z</time><name>PT12954</name></trkpt>
<trkpt lat="53.450198" lon="05.726339"><ele>3.9</ele><time>2021-02-17T15:46:04Z</time><name>PT12955</name></trkpt>
<trkpt lat="53.450193" lon="05.726356"><ele>3.9</ele><time>2021-02-17T15:46:05Z</time><name>PT12956</name></trkpt>
<trkpt lat="53.450190" lon="05.726373"><ele>3.8</ele><time>2021-02-17T15:46:06Z</time><name>PT12957</name></trkpt>
<trkpt lat="53.450186" lon="05.726390"><ele>4.2</ele><time>2021-02-17T15:46:07Z</time><name>PT12958</name></trkpt>
<trkpt lat="53.450184" lon="05.726407"><ele>4.5</ele><time>2021-02-17T15:46:08Z</time><name>PT12959</name></trkpt>
<trkpt lat="53.450180" lon="05.726424"><ele>4.6</ele><time>2021-02-17T15:46:09Z</time><name>PT12960</name></trkpt>
<trkpt lat="53.450177" lon="05.726438"><ele>4.7</ele><time>2021-02-17T15:46:10Z</time><name>PT12961</name></trkpt>
<trkpt lat="53.450175" lon="05.726449"><ele>4.7</ele><time>2021-02-17T15:46:11Z</time><name>PT12962</name></trkpt>
<trkpt lat="53.450171" lon="05.726465"><ele>4.7</ele><time>2021-02-17T15:46:12Z</time><name>PT12963</name></trkpt>
<trkpt lat="53.450168" lon="05.726480"><ele>4.4</ele><time>2021-02-17T15:46:13Z</time><name>PT12964</name></trkpt>
<trkpt lat="53.450164" lon="05.726497"><ele>4.5</ele><time>2021-02-17T15:46:14Z</time><name>PT12965</name></trkpt>
<trkpt lat="53.450159" lon="05.726514"><ele>4.3</ele><time>2021-02-17T15:46:15Z</time><name>PT12966</name></trkpt>
<trkpt lat="53.450154" lon="05.726529"><ele>4.2</ele><time>2021-02-17T15:46:16Z</time><name>PT12967</name></trkpt>
<trkpt lat="53.450149" lon="05.726541"><ele>4.2</ele><time>2021-02-17T15:46:17Z</time><name>PT12968</name></trkpt>
<trkpt lat="53.450144" lon="05.726556"><ele>4.2</ele><time>2021-02-17T15:46:18Z</time><name>PT12969</name></trkpt>
<trkpt lat="53.450142" lon="05.726571"><ele>4.1</ele><time>2021-02-17T15:46:19Z</time><name>PT12970</name></trkpt>
<trkpt lat="53.450138" lon="05.726582"><ele>3.9</ele><time>2021-02-17T15:46:20Z</time><name>PT12971</name></trkpt>
<trkpt lat="53.450135" lon="05.726596"><ele>3.9</ele><time>2021-02-17T15:46:21Z</time><name>PT12972</name></trkpt>
<trkpt lat="53.450130" lon="05.726611"><ele>4</ele><time>2021-02-17T15:46:22Z</time><name>PT12973</name></trkpt>
<trkpt lat="53.450126" lon="05.726626"><ele>4.2</ele><time>2021-02-17T15:46:23Z</time><name>PT12974</name></trkpt>
<trkpt lat="53.450122" lon="05.726640"><ele>4.1</ele><time>2021-02-17T15:46:24Z</time><name>PT12975</name></trkpt>
<trkpt lat="53.450119" lon="05.726654"><ele>4.2</ele><time>2021-02-17T15:46:25Z</time><name>PT12976</name></trkpt>
<trkpt lat="53.450116" lon="05.726671"><ele>4.2</ele><time>2021-02-17T15:46:26Z</time><name>PT12977</name></trkpt>
<trkpt lat="53.450111" lon="05.726687"><ele>4.2</ele><time>2021-02-17T15:46:27Z</time><name>PT12978</name></trkpt>
<trkpt lat="53.450107" lon="05.726700"><ele>4.2</ele><time>2021-02-17T15:46:28Z</time><name>PT12979</name></trkpt>
<trkpt lat="53.450103" lon="05.726711"><ele>4.2</ele><time>2021-02-17T15:46:29Z</time><name>PT12980</name></trkpt>
<trkpt lat="53.450098" lon="05.726726"><ele>4</ele><time>2021-02-17T15:46:30Z</time><name>PT12981</name></trkpt>
<trkpt lat="53.450094" lon="05.726739"><ele>4.1</ele><time>2021-02-17T15:46:31Z</time><name>PT12982</name></trkpt>
<trkpt lat="53.450091" lon="05.726751"><ele>4.2</ele><time>2021-02-17T15:46:32Z</time><name>PT12983</name></trkpt>
<trkpt lat="53.450084" lon="05.726764"><ele>4.1</ele><time>2021-02-17T15:46:33Z</time><name>PT12984</name></trkpt>
<trkpt lat="53.450078" lon="05.726777"><ele>4.3</ele><time>2021-02-17T15:46:34Z</time><name>PT12985</name></trkpt>
<trkpt lat="53.450074" lon="05.726790"><ele>4.4</ele><time>2021-02-17T15:46:35Z</time><name>PT12986</name></trkpt>
<trkpt lat="53.450069" lon="05.726803"><ele>4.5</ele><time>2021-02-17T15:46:36Z</time><name>PT12987</name></trkpt>
<trkpt lat="53.450063" lon="05.726817"><ele>4.6</ele><time>2021-02-17T15:46:37Z</time><name>PT12988</name></trkpt>
<trkpt lat="53.450059" lon="05.726829"><ele>4.5</ele><time>2021-02-17T15:46:38Z</time><name>PT12989</name></trkpt>
<trkpt lat="53.450056" lon="05.726846"><ele>4.4</ele><time>2021-02-17T15:46:39Z</time><name>PT12990</name></trkpt>
<trkpt lat="53.450052" lon="05.726862"><ele>4.4</ele><time>2021-02-17T15:46:40Z</time><name>PT12991</name></trkpt>
<trkpt lat="53.450048" lon="05.726872"><ele>4.2</ele><time>2021-02-17T15:46:41Z</time><name>PT12992</name></trkpt>
<trkpt lat="53.450045" lon="05.726883"><ele>4.2</ele><time>2021-02-17T15:46:42Z</time><name>PT12993</name></trkpt>
<trkpt lat="53.450042" lon="05.726897"><ele>4.4</ele><time>2021-02-17T15:46:43Z</time><name>PT12994</name></trkpt>
<trkpt lat="53.450040" lon="05.726914"><ele>4.4</ele><time>2021-02-17T15:46:44Z</time><name>PT12995</name></trkpt>
<trkpt lat="53.450038" lon="05.726930"><ele>4.5</ele><time>2021-02-17T15:46:45Z</time><name>PT12996</name></trkpt>
<trkpt lat="53.450036" lon="05.726948"><ele>4.3</ele><time>2021-02-17T15:46:46Z</time><name>PT12997</name></trkpt>
<trkpt lat="53.450036" lon="05.726965"><ele>4.3</ele><time>2021-02-17T15:46:47Z</time><name>PT12998</name></trkpt>
<trkpt lat="53.450034" lon="05.726980"><ele>4.2</ele><time>2021-02-17T15:46:48Z</time><name>PT12999</name></trkpt>
<trkpt lat="53.450031" lon="05.726995"><ele>4.2</ele><time>2021-02-17T15:46:49Z</time><name>PT13000</name></trkpt>
<trkpt lat="53.450027" lon="05.727011"><ele>4.4</ele><time>2021-02-17T15:46:50Z</time><name>PT13001</name></trkpt>
<trkpt lat="53.450024" lon="05.727026"><ele>4.4</ele><time>2021-02-17T15:46:51Z</time><name>PT13002</name></trkpt>
<trkpt lat="53.450021" lon="05.727040"><ele>4.3</ele><time>2021-02-17T15:46:52Z</time><name>PT13003</name></trkpt>
<trkpt lat="53.450018" lon="05.727057"><ele>4.4</ele><time>2021-02-17T15:46:53Z</time><name>PT13004</name></trkpt>
<trkpt lat="53.450016" lon="05.727072"><ele>4.2</ele><time>2021-02-17T15:46:54Z</time><name>PT13005</name></trkpt>
<trkpt lat="53.450014" lon="05.727086"><ele>4</ele><time>2021-02-17T15:46:55Z</time><name>PT13006</name></trkpt>
<trkpt lat="53.450011" lon="05.727101"><ele>4.1</ele><time>2021-02-17T15:46:56Z</time><name>PT13007</name></trkpt>
<trkpt lat="53.450008" lon="05.727118"><ele>4</ele><time>2021-02-17T15:46:57Z</time><name>PT13008</name></trkpt>
<trkpt lat="53.450005" lon="05.727133"><ele>4.2</ele><time>2021-02-17T15:46:58Z</time><name>PT13009</name></trkpt>
<trkpt lat="53.450003" lon="05.727147"><ele>4.3</ele><time>2021-02-17T15:46:59Z</time><name>PT13010</name></trkpt>
<trkpt lat="53.450001" lon="05.727164"><ele>4.3</ele><time>2021-02-17T15:47:00Z</time><name>PT13011</name></trkpt>
<trkpt lat="53.450001" lon="05.727180"><ele>4.2</ele><time>2021-02-17T15:47:01Z</time><name>PT13012</name></trkpt>
<trkpt lat="53.450001" lon="05.727199"><ele>4</ele><time>2021-02-17T15:47:02Z</time><name>PT13013</name></trkpt>
<trkpt lat="53.450000" lon="05.727216"><ele>3.9</ele><time>2021-02-17T15:47:03Z</time><name>PT13014</name></trkpt>
<trkpt lat="53.449999" lon="05.727235"><ele>3.9</ele><time>2021-02-17T15:47:04Z</time><name>PT13015</name></trkpt>
<trkpt lat="53.449998" lon="05.727252"><ele>4.1</ele><time>2021-02-17T15:47:05Z</time><name>PT13016</name></trkpt>
<trkpt lat="53.449997" lon="05.727267"><ele>4.2</ele><time>2021-02-17T15:47:06Z</time><name>PT13017</name></trkpt>
<trkpt lat="53.449995" lon="05.727283"><ele>4.2</ele><time>2021-02-17T15:47:07Z</time><name>PT13018</name></trkpt>
<trkpt lat="53.449993" lon="05.727300"><ele>4.2</ele><time>2021-02-17T15:47:08Z</time><name>PT13019</name></trkpt>
<trkpt lat="53.449992" lon="05.727318"><ele>4.2</ele><time>2021-02-17T15:47:09Z</time><name>PT13020</name></trkpt>
<trkpt lat="53.449993" lon="05.727337"><ele>4.1</ele><time>2021-02-17T15:47:10Z</time><name>PT13021</name></trkpt>
<trkpt lat="53.449993" lon="05.727351"><ele>4</ele><time>2021-02-17T15:47:11Z</time><name>PT13022</name></trkpt>
<trkpt lat="53.449993" lon="05.727369"><ele>3.8</ele><time>2021-02-17T15:47:12Z</time><name>PT13023</name></trkpt>
<trkpt lat="53.449991" lon="05.727387"><ele>3.7</ele><time>2021-02-17T15:47:13Z</time><name>PT13024</name></trkpt>
<trkpt lat="53.449990" lon="05.727405"><ele>3.7</ele><time>2021-02-17T15:47:14Z</time><name>PT13025</name></trkpt>
<trkpt lat="53.449988" lon="05.727423"><ele>3.8</ele><time>2021-02-17T15:47:15Z</time><name>PT13026</name></trkpt>
<trkpt lat="53.449988" lon="05.727440"><ele>3.7</ele><time>2021-02-17T15:47:16Z</time><name>PT13027</name></trkpt>
<trkpt lat="53.449988" lon="05.727456"><ele>3.9</ele><time>2021-02-17T15:47:17Z</time><name>PT13028</name></trkpt>
<trkpt lat="53.449988" lon="05.727471"><ele>3.9</ele><time>2021-02-17T15:47:18Z</time><name>PT13029</name></trkpt>
<trkpt lat="53.449986" lon="05.727486"><ele>3.9</ele><time>2021-02-17T15:47:19Z</time><name>PT13030</name></trkpt>
<trkpt lat="53.449985" lon="05.727503"><ele>4.2</ele><time>2021-02-17T15:47:20Z</time><name>PT13031</name></trkpt>
<trkpt lat="53.449984" lon="05.727518"><ele>4.2</ele><time>2021-02-17T15:47:21Z</time><name>PT13032</name></trkpt>
<trkpt lat="53.449983" lon="05.727534"><ele>4.1</ele><time>2021-02-17T15:47:22Z</time><name>PT13033</name></trkpt>
<trkpt lat="53.449982" lon="05.727554"><ele>4.2</ele><time>2021-02-17T15:47:23Z</time><name>PT13034</name></trkpt>
<trkpt lat="53.449982" lon="05.727571"><ele>4.1</ele><time>2021-02-17T15:47:24Z</time><name>PT13035</name></trkpt>
<trkpt lat="53.449981" lon="05.727586"><ele>3.9</ele><time>2021-02-17T15:47:25Z</time><name>PT13036</name></trkpt>
<trkpt lat="53.449981" lon="05.727602"><ele>4.1</ele><time>2021-02-17T15:47:26Z</time><name>PT13037</name></trkpt>
<trkpt lat="53.449979" lon="05.727617"><ele>4.2</ele><time>2021-02-17T15:47:27Z</time><name>PT13038</name></trkpt>
<trkpt lat="53.449979" lon="05.727634"><ele>4.1</ele><time>2021-02-17T15:47:28Z</time><name>PT13039</name></trkpt>
<trkpt lat="53.449980" lon="05.727650"><ele>4.2</ele><time>2021-02-17T15:47:29Z</time><name>PT13040</name></trkpt>
<trkpt lat="53.449980" lon="05.727664"><ele>4.2</ele><time>2021-02-17T15:47:30Z</time><name>PT13041</name></trkpt>
<trkpt lat="53.449979" lon="05.727680"><ele>4</ele><time>2021-02-17T15:47:31Z</time><name>PT13042</name></trkpt>
<trkpt lat="53.449978" lon="05.727696"><ele>4.1</ele><time>2021-02-17T15:47:32Z</time><name>PT13043</name></trkpt>
<trkpt lat="53.449978" lon="05.727711"><ele>4.2</ele><time>2021-02-17T15:47:33Z</time><name>PT13044</name></trkpt>
<trkpt lat="53.449979" lon="05.727726"><ele>4.2</ele><time>2021-02-17T15:47:34Z</time><name>PT13045</name></trkpt>
<trkpt lat="53.449979" lon="05.727743"><ele>4.4</ele><time>2021-02-17T15:47:35Z</time><name>PT13046</name></trkpt>
<trkpt lat="53.449978" lon="05.727760"><ele>4.3</ele><time>2021-02-17T15:47:36Z</time><name>PT13047</name></trkpt>
<trkpt lat="53.449978" lon="05.727775"><ele>4.3</ele><time>2021-02-17T15:47:37Z</time><name>PT13048</name></trkpt>
<trkpt lat="53.449977" lon="05.727790"><ele>4.2</ele><time>2021-02-17T15:47:38Z</time><name>PT13049</name></trkpt>
<trkpt lat="53.449975" lon="05.727807"><ele>4.1</ele><time>2021-02-17T15:47:39Z</time><name>PT13050</name></trkpt>
<trkpt lat="53.449976" lon="05.727824"><ele>4</ele><time>2021-02-17T15:47:40Z</time><name>PT13051</name></trkpt>
<trkpt lat="53.449976" lon="05.727839"><ele>3.7</ele><time>2021-02-17T15:47:41Z</time><name>PT13052</name></trkpt>
<trkpt lat="53.449978" lon="05.727855"><ele>3.7</ele><time>2021-02-17T15:47:42Z</time><name>PT13053</name></trkpt>
<trkpt lat="53.449978" lon="05.727870"><ele>3.8</ele><time>2021-02-17T15:47:43Z</time><name>PT13054</name></trkpt>
<trkpt lat="53.449978" lon="05.727884"><ele>3.8</ele><time>2021-02-17T15:47:44Z</time><name>PT13055</name></trkpt>
<trkpt lat="53.449977" lon="05.727901"><ele>3.8</ele><time>2021-02-17T15:47:45Z</time><name>PT13056</name></trkpt>
<trkpt lat="53.449976" lon="05.727918"><ele>4</ele><time>2021-02-17T15:47:46Z</time><name>PT13057</name></trkpt>
<trkpt lat="53.449976" lon="05.727932"><ele>4</ele><time>2021-02-17T15:47:47Z</time><name>PT13058</name></trkpt>
<trkpt lat="53.449976" lon="05.727947"><ele>4.1</ele><time>2021-02-17T15:47:48Z</time><name>PT13059</name></trkpt>
<trkpt lat="53.449976" lon="05.727963"><ele>4.1</ele><time>2021-02-17T15:47:49Z</time><name>PT13060</name></trkpt>
<trkpt lat="53.449977" lon="05.727979"><ele>4.1</ele><time>2021-02-17T15:47:50Z</time><name>PT13061</name></trkpt>
<trkpt lat="53.449978" lon="05.727997"><ele>4</ele><time>2021-02-17T15:47:51Z</time><name>PT13062</name></trkpt>
<trkpt lat="53.449978" lon="05.728014"><ele>3.9</ele><time>2021-02-17T15:47:52Z</time><name>PT13063</name></trkpt>
<trkpt lat="53.449977" lon="05.728028"><ele>4</ele><time>2021-02-17T15:47:53Z</time><name>PT13064</name></trkpt>
<trkpt lat="53.449976" lon="05.728045"><ele>4.1</ele><time>2021-02-17T15:47:54Z</time><name>PT13065</name></trkpt>
<trkpt lat="53.449977" lon="05.728062"><ele>4.2</ele><time>2021-02-17T15:47:55Z</time><name>PT13066</name></trkpt>
<trkpt lat="53.449976" lon="05.728080"><ele>4.4</ele><time>2021-02-17T15:47:56Z</time><name>PT13067</name></trkpt>
<trkpt lat="53.449977" lon="05.728098"><ele>4.4</ele><time>2021-02-17T15:47:57Z</time><name>PT13068</name></trkpt>
<trkpt lat="53.449976" lon="05.728115"><ele>4.7</ele><time>2021-02-17T15:47:58Z</time><name>PT13069</name></trkpt>
<trkpt lat="53.449975" lon="05.728130"><ele>4.7</ele><time>2021-02-17T15:47:59Z</time><name>PT13070</name></trkpt>
<trkpt lat="53.449975" lon="05.728146"><ele>4.7</ele><time>2021-02-17T15:48:00Z</time><name>PT13071</name></trkpt>
<trkpt lat="53.449973" lon="05.728164"><ele>4.7</ele><time>2021-02-17T15:48:01Z</time><name>PT13072</name></trkpt>
<trkpt lat="53.449973" lon="05.728183"><ele>4.6</ele><time>2021-02-17T15:48:02Z</time><name>PT13073</name></trkpt>
<trkpt lat="53.449972" lon="05.728201"><ele>4.5</ele><time>2021-02-17T15:48:03Z</time><name>PT13074</name></trkpt>
<trkpt lat="53.449972" lon="05.728218"><ele>4.6</ele><time>2021-02-17T15:48:04Z</time><name>PT13075</name></trkpt>
<trkpt lat="53.449971" lon="05.728234"><ele>4.7</ele><time>2021-02-17T15:48:05Z</time><name>PT13076</name></trkpt>
<trkpt lat="53.449969" lon="05.728249"><ele>4.5</ele><time>2021-02-17T15:48:06Z</time><name>PT13077</name></trkpt>
<trkpt lat="53.449967" lon="05.728267"><ele>4.7</ele><time>2021-02-17T15:48:07Z</time><name>PT13078</name></trkpt>
<trkpt lat="53.449966" lon="05.728285"><ele>4.6</ele><time>2021-02-17T15:48:08Z</time><name>PT13079</name></trkpt>
<trkpt lat="53.449966" lon="05.728303"><ele>4.3</ele><time>2021-02-17T15:48:09Z</time><name>PT13080</name></trkpt>
<trkpt lat="53.449967" lon="05.728317"><ele>4.3</ele><time>2021-02-17T15:48:10Z</time><name>PT13081</name></trkpt>
<trkpt lat="53.449966" lon="05.728333"><ele>4.2</ele><time>2021-02-17T15:48:11Z</time><name>PT13082</name></trkpt>
<trkpt lat="53.449966" lon="05.728349"><ele>4.2</ele><time>2021-02-17T15:48:12Z</time><name>PT13083</name></trkpt>
<trkpt lat="53.449967" lon="05.728365"><ele>4.2</ele><time>2021-02-17T15:48:13Z</time><name>PT13084</name></trkpt>
<trkpt lat="53.449968" lon="05.728380"><ele>4.3</ele><time>2021-02-17T15:48:14Z</time><name>PT13085</name></trkpt>
<trkpt lat="53.449968" lon="05.728397"><ele>4.3</ele><time>2021-02-17T15:48:15Z</time><name>PT13086</name></trkpt>
<trkpt lat="53.449967" lon="05.728415"><ele>4.3</ele><time>2021-02-17T15:48:16Z</time><name>PT13087</name></trkpt>
<trkpt lat="53.449968" lon="05.728434"><ele>4.3</ele><time>2021-02-17T15:48:17Z</time><name>PT13088</name></trkpt>
<trkpt lat="53.449968" lon="05.728451"><ele>4.2</ele><time>2021-02-17T15:48:18Z</time><name>PT13089</name></trkpt>
<trkpt lat="53.449967" lon="05.728468"><ele>4.2</ele><time>2021-02-17T15:48:19Z</time><name>PT13090</name></trkpt>
<trkpt lat="53.449967" lon="05.728486"><ele>4.3</ele><time>2021-02-17T15:48:20Z</time><name>PT13091</name></trkpt>
<trkpt lat="53.449968" lon="05.728504"><ele>4.2</ele><time>2021-02-17T15:48:21Z</time><name>PT13092</name></trkpt>
<trkpt lat="53.449969" lon="05.728521"><ele>4.2</ele><time>2021-02-17T15:48:22Z</time><name>PT13093</name></trkpt>
<trkpt lat="53.449969" lon="05.728537"><ele>4.4</ele><time>2021-02-17T15:48:23Z</time><name>PT13094</name></trkpt>
<trkpt lat="53.449969" lon="05.728554"><ele>4.5</ele><time>2021-02-17T15:48:24Z</time><name>PT13095</name></trkpt>
<trkpt lat="53.449969" lon="05.728569"><ele>4.4</ele><time>2021-02-17T15:48:25Z</time><name>PT13096</name></trkpt>
<trkpt lat="53.449968" lon="05.728587"><ele>4.4</ele><time>2021-02-17T15:48:26Z</time><name>PT13097</name></trkpt>
<trkpt lat="53.449965" lon="05.728606"><ele>4.3</ele><time>2021-02-17T15:48:27Z</time><name>PT13098</name></trkpt>
<trkpt lat="53.449965" lon="05.728621"><ele>4.3</ele><time>2021-02-17T15:48:28Z</time><name>PT13099</name></trkpt>
<trkpt lat="53.449966" lon="05.728639"><ele>4.2</ele><time>2021-02-17T15:48:29Z</time><name>PT13100</name></trkpt>
<trkpt lat="53.449967" lon="05.728656"><ele>4.2</ele><time>2021-02-17T15:48:30Z</time><name>PT13101</name></trkpt>
<trkpt lat="53.449968" lon="05.728673"><ele>4.3</ele><time>2021-02-17T15:48:31Z</time><name>PT13102</name></trkpt>
<trkpt lat="53.449969" lon="05.728691"><ele>4.2</ele><time>2021-02-17T15:48:32Z</time><name>PT13103</name></trkpt>
<trkpt lat="53.449970" lon="05.728709"><ele>4.2</ele><time>2021-02-17T15:48:33Z</time><name>PT13104</name></trkpt>
<trkpt lat="53.449971" lon="05.728725"><ele>4.2</ele><time>2021-02-17T15:48:34Z</time><name>PT13105</name></trkpt>
<trkpt lat="53.449970" lon="05.728743"><ele>4.2</ele><time>2021-02-17T15:48:35Z</time><name>PT13106</name></trkpt>
<trkpt lat="53.449968" lon="05.728761"><ele>4.2</ele><time>2021-02-17T15:48:36Z</time><name>PT13107</name></trkpt>
<trkpt lat="53.449967" lon="05.728777"><ele>4.1</ele><time>2021-02-17T15:48:37Z</time><name>PT13108</name></trkpt>
<trkpt lat="53.449968" lon="05.728793"><ele>4</ele><time>2021-02-17T15:48:38Z</time><name>PT13109</name></trkpt>
<trkpt lat="53.449968" lon="05.728810"><ele>4.2</ele><time>2021-02-17T15:48:39Z</time><name>PT13110</name></trkpt>
<trkpt lat="53.449970" lon="05.728824"><ele>4.2</ele><time>2021-02-17T15:48:40Z</time><name>PT13111</name></trkpt>
<trkpt lat="53.449971" lon="05.728839"><ele>4.3</ele><time>2021-02-17T15:48:41Z</time><name>PT13112</name></trkpt>
<trkpt lat="53.449973" lon="05.728854"><ele>4.3</ele><time>2021-02-17T15:48:42Z</time><name>PT13113</name></trkpt>
<trkpt lat="53.449975" lon="05.728869"><ele>4.2</ele><time>2021-02-17T15:48:43Z</time><name>PT13114</name></trkpt>
<trkpt lat="53.449974" lon="05.728886"><ele>4.3</ele><time>2021-02-17T15:48:44Z</time><name>PT13115</name></trkpt>
<trkpt lat="53.449972" lon="05.728904"><ele>4.3</ele><time>2021-02-17T15:48:45Z</time><name>PT13116</name></trkpt>
<trkpt lat="53.449971" lon="05.728921"><ele>4.1</ele><time>2021-02-17T15:48:46Z</time><name>PT13117</name></trkpt>
<trkpt lat="53.449971" lon="05.728938"><ele>4.1</ele><time>2021-02-17T15:48:47Z</time><name>PT13118</name></trkpt>
<trkpt lat="53.449970" lon="05.728956"><ele>4</ele><time>2021-02-17T15:48:48Z</time><name>PT13119</name></trkpt>
<trkpt lat="53.449971" lon="05.728972"><ele>4.1</ele><time>2021-02-17T15:48:49Z</time><name>PT13120</name></trkpt>
<trkpt lat="53.449970" lon="05.728987"><ele>4.1</ele><time>2021-02-17T15:48:50Z</time><name>PT13121</name></trkpt>
<trkpt lat="53.449968" lon="05.729003"><ele>4.2</ele><time>2021-02-17T15:48:51Z</time><name>PT13122</name></trkpt>
<trkpt lat="53.449968" lon="05.729020"><ele>4.2</ele><time>2021-02-17T15:48:52Z</time><name>PT13123</name></trkpt>
<trkpt lat="53.449969" lon="05.729038"><ele>4.2</ele><time>2021-02-17T15:48:53Z</time><name>PT13124</name></trkpt>
<trkpt lat="53.449968" lon="05.729054"><ele>4.2</ele><time>2021-02-17T15:48:54Z</time><name>PT13125</name></trkpt>
<trkpt lat="53.449968" lon="05.729071"><ele>4.1</ele><time>2021-02-17T15:48:55Z</time><name>PT13126</name></trkpt>
<trkpt lat="53.449969" lon="05.729088"><ele>4</ele><time>2021-02-17T15:48:56Z</time><name>PT13127</name></trkpt>
<trkpt lat="53.449969" lon="05.729103"><ele>3.9</ele><time>2021-02-17T15:48:57Z</time><name>PT13128</name></trkpt>
<trkpt lat="53.449969" lon="05.729118"><ele>3.8</ele><time>2021-02-17T15:48:58Z</time><name>PT13129</name></trkpt>
<trkpt lat="53.449969" lon="05.729135"><ele>3.8</ele><time>2021-02-17T15:48:59Z</time><name>PT13130</name></trkpt>
<trkpt lat="53.449969" lon="05.729151"><ele>3.8</ele><time>2021-02-17T15:49:00Z</time><name>PT13131</name></trkpt>
<trkpt lat="53.449967" lon="05.729168"><ele>3.7</ele><time>2021-02-17T15:49:01Z</time><name>PT13132</name></trkpt>
<trkpt lat="53.449966" lon="05.729186"><ele>3.7</ele><time>2021-02-17T15:49:02Z</time><name>PT13133</name></trkpt>
<trkpt lat="53.449965" lon="05.729202"><ele>3.7</ele><time>2021-02-17T15:49:03Z</time><name>PT13134</name></trkpt>
<trkpt lat="53.449963" lon="05.729216"><ele>3.7</ele><time>2021-02-17T15:49:04Z</time><name>PT13135</name></trkpt>
<trkpt lat="53.449962" lon="05.729231"><ele>3.9</ele><time>2021-02-17T15:49:05Z</time><name>PT13136</name></trkpt>
<trkpt lat="53.449959" lon="05.729245"><ele>3.9</ele><time>2021-02-17T15:49:06Z</time><name>PT13137</name></trkpt>
<trkpt lat="53.449956" lon="05.729258"><ele>4.2</ele><time>2021-02-17T15:49:07Z</time><name>PT13138</name></trkpt>
<trkpt lat="53.449954" lon="05.729273"><ele>4.3</ele><time>2021-02-17T15:49:08Z</time><name>PT13139</name></trkpt>
<trkpt lat="53.449953" lon="05.729289"><ele>4.4</ele><time>2021-02-17T15:49:09Z</time><name>PT13140</name></trkpt>
<trkpt lat="53.449953" lon="05.729304"><ele>4.3</ele><time>2021-02-17T15:49:10Z</time><name>PT13141</name></trkpt>
<trkpt lat="53.449951" lon="05.729317"><ele>4.4</ele><time>2021-02-17T15:49:11Z</time><name>PT13142</name></trkpt>
<trkpt lat="53.449948" lon="05.729329"><ele>4.4</ele><time>2021-02-17T15:49:12Z</time><name>PT13143</name></trkpt>
<trkpt lat="53.449945" lon="05.729344"><ele>4.4</ele><time>2021-02-17T15:49:13Z</time><name>PT13144</name></trkpt>
<trkpt lat="53.449942" lon="05.729359"><ele>4.4</ele><time>2021-02-17T15:49:14Z</time><name>PT13145</name></trkpt>
<trkpt lat="53.449940" lon="05.729376"><ele>4.2</ele><time>2021-02-17T15:49:15Z</time><name>PT13146</name></trkpt>
<trkpt lat="53.449939" lon="05.729393"><ele>4.5</ele><time>2021-02-17T15:49:16Z</time><name>PT13147</name></trkpt>
<trkpt lat="53.449938" lon="05.729408"><ele>4.5</ele><time>2021-02-17T15:49:17Z</time><name>PT13148</name></trkpt>
<trkpt lat="53.449934" lon="05.729422"><ele>4.6</ele><time>2021-02-17T15:49:18Z</time><name>PT13149</name></trkpt>
<trkpt lat="53.449930" lon="05.729438"><ele>4.7</ele><time>2021-02-17T15:49:19Z</time><name>PT13150</name></trkpt>
<trkpt lat="53.449926" lon="05.729452"><ele>4.7</ele><time>2021-02-17T15:49:20Z</time><name>PT13151</name></trkpt>
<trkpt lat="53.449923" lon="05.729467"><ele>4.5</ele><time>2021-02-17T15:49:21Z</time><name>PT13152</name></trkpt>
<trkpt lat="53.449919" lon="05.729483"><ele>4.6</ele><time>2021-02-17T15:49:22Z</time><name>PT13153</name></trkpt>
<trkpt lat="53.449916" lon="05.729495"><ele>4.7</ele><time>2021-02-17T15:49:23Z</time><name>PT13154</name></trkpt>
<trkpt lat="53.449911" lon="05.729509"><ele>4.7</ele><time>2021-02-17T15:49:24Z</time><name>PT13155</name></trkpt>
<trkpt lat="53.449905" lon="05.729524"><ele>4.8</ele><time>2021-02-17T15:49:25Z</time><name>PT13156</name></trkpt>
<trkpt lat="53.449902" lon="05.729539"><ele>4.8</ele><time>2021-02-17T15:49:26Z</time><name>PT13157</name></trkpt>
<trkpt lat="53.449898" lon="05.729552"><ele>5.1</ele><time>2021-02-17T15:49:27Z</time><name>PT13158</name></trkpt>
<trkpt lat="53.449895" lon="05.729568"><ele>5</ele><time>2021-02-17T15:49:28Z</time><name>PT13159</name></trkpt>
<trkpt lat="53.449892" lon="05.729585"><ele>5</ele><time>2021-02-17T15:49:29Z</time><name>PT13160</name></trkpt>
<trkpt lat="53.449889" lon="05.729602"><ele>5.1</ele><time>2021-02-17T15:49:30Z</time><name>PT13161</name></trkpt>
<trkpt lat="53.449887" lon="05.729618"><ele>4.9</ele><time>2021-02-17T15:49:31Z</time><name>PT13162</name></trkpt>
<trkpt lat="53.449882" lon="05.729630"><ele>4.8</ele><time>2021-02-17T15:49:32Z</time><name>PT13163</name></trkpt>
<trkpt lat="53.449877" lon="05.729638"><ele>4.8</ele><time>2021-02-17T15:49:33Z</time><name>PT13164</name></trkpt>
<trkpt lat="53.449872" lon="05.729648"><ele>4.7</ele><time>2021-02-17T15:49:34Z</time><name>PT13165</name></trkpt>
<trkpt lat="53.449869" lon="05.729659"><ele>4.5</ele><time>2021-02-17T15:49:35Z</time><name>PT13166</name></trkpt>
<trkpt lat="53.449865" lon="05.729672"><ele>4.5</ele><time>2021-02-17T15:49:36Z</time><name>PT13167</name></trkpt>
<trkpt lat="53.449860" lon="05.729688"><ele>4.6</ele><time>2021-02-17T15:49:37Z</time><name>PT13168</name></trkpt>
<trkpt lat="53.449854" lon="05.729704"><ele>4.9</ele><time>2021-02-17T15:49:38Z</time><name>PT13169</name></trkpt>
<trkpt lat="53.449849" lon="05.729721"><ele>5.2</ele><time>2021-02-17T15:49:39Z</time><name>PT13170</name></trkpt>
<trkpt lat="53.449845" lon="05.729734"><ele>5.5</ele><time>2021-02-17T15:49:40Z</time><name>PT13171</name></trkpt>
<trkpt lat="53.449841" lon="05.729745"><ele>5.5</ele><time>2021-02-17T15:49:41Z</time><name>PT13172</name></trkpt>
<trkpt lat="53.449838" lon="05.729756"><ele>5.4</ele><time>2021-02-17T15:49:42Z</time><name>PT13173</name></trkpt>
<trkpt lat="53.449834" lon="05.729769"><ele>5.1</ele><time>2021-02-17T15:49:43Z</time><name>PT13174</name></trkpt>
<trkpt lat="53.449827" lon="05.729779"><ele>5.1</ele><time>2021-02-17T15:49:44Z</time><name>PT13175</name></trkpt>
<trkpt lat="53.449820" lon="05.729789"><ele>5.2</ele><time>2021-02-17T15:49:45Z</time><name>PT13176</name></trkpt>
<trkpt lat="53.449816" lon="05.729801"><ele>5</ele><time>2021-02-17T15:49:46Z</time><name>PT13177</name></trkpt>
<trkpt lat="53.449812" lon="05.729816"><ele>4.9</ele><time>2021-02-17T15:49:47Z</time><name>PT13178</name></trkpt>
<trkpt lat="53.449808" lon="05.729827"><ele>4.8</ele><time>2021-02-17T15:49:48Z</time><name>PT13179</name></trkpt>
<trkpt lat="53.449803" lon="05.729840"><ele>4.8</ele><time>2021-02-17T15:49:49Z</time><name>PT13180</name></trkpt>
<trkpt lat="53.449800" lon="05.729855"><ele>4.7</ele><time>2021-02-17T15:49:50Z</time><name>PT13181</name></trkpt>
<trkpt lat="53.449797" lon="05.729871"><ele>4.7</ele><time>2021-02-17T15:49:51Z</time><name>PT13182</name></trkpt>
<trkpt lat="53.449792" lon="05.729887"><ele>4.8</ele><time>2021-02-17T15:49:52Z</time><name>PT13183</name></trkpt>
<trkpt lat="53.449789" lon="05.729903"><ele>4.7</ele><time>2021-02-17T15:49:53Z</time><name>PT13184</name></trkpt>
<trkpt lat="53.449785" lon="05.729919"><ele>4.7</ele><time>2021-02-17T15:49:54Z</time><name>PT13185</name></trkpt>
<trkpt lat="53.449781" lon="05.729933"><ele>4.7</ele><time>2021-02-17T15:49:55Z</time><name>PT13186</name></trkpt>
<trkpt lat="53.449776" lon="05.729947"><ele>4.8</ele><time>2021-02-17T15:49:56Z</time><name>PT13187</name></trkpt>
<trkpt lat="53.449769" lon="05.729961"><ele>4.8</ele><time>2021-02-17T15:49:57Z</time><name>PT13188</name></trkpt>
<trkpt lat="53.449763" lon="05.729973"><ele>4.9</ele><time>2021-02-17T15:49:58Z</time><name>PT13189</name></trkpt>
<trkpt lat="53.449759" lon="05.729986"><ele>4.9</ele><time>2021-02-17T15:49:59Z</time><name>PT13190</name></trkpt>
<trkpt lat="53.449755" lon="05.730001"><ele>5.1</ele><time>2021-02-17T15:50:00Z</time><name>PT13191</name></trkpt>
<trkpt lat="53.449752" lon="05.730015"><ele>5</ele><time>2021-02-17T15:50:01Z</time><name>PT13192</name></trkpt>
<trkpt lat="53.449747" lon="05.730029"><ele>5.1</ele><time>2021-02-17T15:50:02Z</time><name>PT13193</name></trkpt>
<trkpt lat="53.449742" lon="05.730042"><ele>5.2</ele><time>2021-02-17T15:50:03Z</time><name>PT13194</name></trkpt>
<trkpt lat="53.449737" lon="05.730058"><ele>5.3</ele><time>2021-02-17T15:50:04Z</time><name>PT13195</name></trkpt>
<trkpt lat="53.449732" lon="05.730070"><ele>5.5</ele><time>2021-02-17T15:50:05Z</time><name>PT13196</name></trkpt>
<trkpt lat="53.449726" lon="05.730082"><ele>5.7</ele><time>2021-02-17T15:50:06Z</time><name>PT13197</name></trkpt>
<trkpt lat="53.449721" lon="05.730097"><ele>5.8</ele><time>2021-02-17T15:50:07Z</time><name>PT13198</name></trkpt>
<trkpt lat="53.449715" lon="05.730112"><ele>5.8</ele><time>2021-02-17T15:50:08Z</time><name>PT13199</name></trkpt>
<trkpt lat="53.449709" lon="05.730125"><ele>5.8</ele><time>2021-02-17T15:50:09Z</time><name>PT13200</name></trkpt>
<trkpt lat="53.449704" lon="05.730142"><ele>5.7</ele><time>2021-02-17T15:50:10Z</time><name>PT13201</name></trkpt>
<trkpt lat="53.449698" lon="05.730158"><ele>6</ele><time>2021-02-17T15:50:11Z</time><name>PT13202</name></trkpt>
<trkpt lat="53.449691" lon="05.730171"><ele>6</ele><time>2021-02-17T15:50:12Z</time><name>PT13203</name></trkpt>
<trkpt lat="53.449683" lon="05.730183"><ele>5.8</ele><time>2021-02-17T15:50:13Z</time><name>PT13204</name></trkpt>
<trkpt lat="53.449675" lon="05.730193"><ele>5.7</ele><time>2021-02-17T15:50:14Z</time><name>PT13205</name></trkpt>
<trkpt lat="53.449668" lon="05.730205"><ele>5.7</ele><time>2021-02-17T15:50:15Z</time><name>PT13206</name></trkpt>
<trkpt lat="53.449662" lon="05.730218"><ele>5.7</ele><time>2021-02-17T15:50:16Z</time><name>PT13207</name></trkpt>
<trkpt lat="53.449658" lon="05.730235"><ele>5.7</ele><time>2021-02-17T15:50:17Z</time><name>PT13208</name></trkpt>
<trkpt lat="53.449655" lon="05.730249"><ele>5.4</ele><time>2021-02-17T15:50:18Z</time><name>PT13209</name></trkpt>
<trkpt lat="53.449649" lon="05.730263"><ele>5.4</ele><time>2021-02-17T15:50:19Z</time><name>PT13210</name></trkpt>
<trkpt lat="53.449644" lon="05.730278"><ele>5.1</ele><time>2021-02-17T15:50:20Z</time><name>PT13211</name></trkpt>
<trkpt lat="53.449637" lon="05.730293"><ele>5.1</ele><time>2021-02-17T15:50:21Z</time><name>PT13212</name></trkpt>
<trkpt lat="53.449632" lon="05.730306"><ele>4.9</ele><time>2021-02-17T15:50:22Z</time><name>PT13213</name></trkpt>
<trkpt lat="53.449628" lon="05.730320"><ele>4.7</ele><time>2021-02-17T15:50:23Z</time><name>PT13214</name></trkpt>
<trkpt lat="53.449623" lon="05.730335"><ele>4.9</ele><time>2021-02-17T15:50:24Z</time><name>PT13215</name></trkpt>
<trkpt lat="53.449618" lon="05.730350"><ele>5</ele><time>2021-02-17T15:50:25Z</time><name>PT13216</name></trkpt>
<trkpt lat="53.449613" lon="05.730365"><ele>5</ele><time>2021-02-17T15:50:26Z</time><name>PT13217</name></trkpt>
<trkpt lat="53.449607" lon="05.730377"><ele>4.9</ele><time>2021-02-17T15:50:27Z</time><name>PT13218</name></trkpt>
<trkpt lat="53.449601" lon="05.730390"><ele>4.9</ele><time>2021-02-17T15:50:28Z</time><name>PT13219</name></trkpt>
<trkpt lat="53.449597" lon="05.730404"><ele>4.7</ele><time>2021-02-17T15:50:29Z</time><name>PT13220</name></trkpt>
<trkpt lat="53.449593" lon="05.730418"><ele>4.7</ele><time>2021-02-17T15:50:30Z</time><name>PT13221</name></trkpt>
<trkpt lat="53.449587" lon="05.730434"><ele>4.5</ele><time>2021-02-17T15:50:31Z</time><name>PT13222</name></trkpt>
<trkpt lat="53.449583" lon="05.730451"><ele>4.4</ele><time>2021-02-17T15:50:32Z</time><name>PT13223</name></trkpt>
<trkpt lat="53.449579" lon="05.730468"><ele>4.2</ele><time>2021-02-17T15:50:33Z</time><name>PT13224</name></trkpt>
<trkpt lat="53.449575" lon="05.730485"><ele>4.2</ele><time>2021-02-17T15:50:34Z</time><name>PT13225</name></trkpt>
<trkpt lat="53.449572" lon="05.730500"><ele>4.2</ele><time>2021-02-17T15:50:35Z</time><name>PT13226</name></trkpt>
<trkpt lat="53.449568" lon="05.730513"><ele>4.2</ele><time>2021-02-17T15:50:36Z</time><name>PT13227</name></trkpt>
<trkpt lat="53.449565" lon="05.730526"><ele>4.1</ele><time>2021-02-17T15:50:37Z</time><name>PT13228</name></trkpt>
<trkpt lat="53.449563" lon="05.730540"><ele>4.1</ele><time>2021-02-17T15:50:38Z</time><name>PT13229</name></trkpt>
<trkpt lat="53.449560" lon="05.730557"><ele>4.3</ele><time>2021-02-17T15:50:39Z</time><name>PT13230</name></trkpt>
<trkpt lat="53.449555" lon="05.730574"><ele>4.5</ele><time>2021-02-17T15:50:40Z</time><name>PT13231</name></trkpt>
<trkpt lat="53.449551" lon="05.730591"><ele>4.9</ele><time>2021-02-17T15:50:41Z</time><name>PT13232</name></trkpt>
<trkpt lat="53.449547" lon="05.730607"><ele>4.7</ele><time>2021-02-17T15:50:42Z</time><name>PT13233</name></trkpt>
<trkpt lat="53.449543" lon="05.730622"><ele>4.6</ele><time>2021-02-17T15:50:43Z</time><name>PT13234</name></trkpt>
<trkpt lat="53.449539" lon="05.730638"><ele>4.6</ele><time>2021-02-17T15:50:44Z</time><name>PT13235</name></trkpt>
<trkpt lat="53.449535" lon="05.730656"><ele>4.7</ele><time>2021-02-17T15:50:45Z</time><name>PT13236</name></trkpt>
<trkpt lat="53.449530" lon="05.730671"><ele>4.7</ele><time>2021-02-17T15:50:46Z</time><name>PT13237</name></trkpt>
<trkpt lat="53.449526" lon="05.730685"><ele>4.8</ele><time>2021-02-17T15:50:47Z</time><name>PT13238</name></trkpt>
<trkpt lat="53.449523" lon="05.730699"><ele>4.8</ele><time>2021-02-17T15:50:48Z</time><name>PT13239</name></trkpt>
<trkpt lat="53.449520" lon="05.730714"><ele>4.7</ele><time>2021-02-17T15:50:49Z</time><name>PT13240</name></trkpt>
<trkpt lat="53.449516" lon="05.730730"><ele>4.6</ele><time>2021-02-17T15:50:50Z</time><name>PT13241</name></trkpt>
<trkpt lat="53.449513" lon="05.730746"><ele>4.5</ele><time>2021-02-17T15:50:51Z</time><name>PT13242</name></trkpt>
<trkpt lat="53.449510" lon="05.730764"><ele>4.3</ele><time>2021-02-17T15:50:52Z</time><name>PT13243</name></trkpt>
<trkpt lat="53.449506" lon="05.730780"><ele>4.4</ele><time>2021-02-17T15:50:53Z</time><name>PT13244</name></trkpt>
<trkpt lat="53.449502" lon="05.730794"><ele>4.6</ele><time>2021-02-17T15:50:54Z</time><name>PT13245</name></trkpt>
<trkpt lat="53.449496" lon="05.730805"><ele>4.8</ele><time>2021-02-17T15:50:55Z</time><name>PT13246</name></trkpt>
<trkpt lat="53.449492" lon="05.730820"><ele>5.1</ele><time>2021-02-17T15:50:56Z</time><name>PT13247</name></trkpt>
<trkpt lat="53.449487" lon="05.730835"><ele>5.1</ele><time>2021-02-17T15:50:57Z</time><name>PT13248</name></trkpt>
<trkpt lat="53.449483" lon="05.730849"><ele>5.3</ele><time>2021-02-17T15:50:58Z</time><name>PT13249</name></trkpt>
<trkpt lat="53.449479" lon="05.730867"><ele>5.2</ele><time>2021-02-17T15:50:59Z</time><name>PT13250</name></trkpt>
<trkpt lat="53.449475" lon="05.730883"><ele>5.2</ele><time>2021-02-17T15:51:00Z</time><name>PT13251</name></trkpt>
<trkpt lat="53.449471" lon="05.730899"><ele>5.3</ele><time>2021-02-17T15:51:01Z</time><name>PT13252</name></trkpt>
<trkpt lat="53.449469" lon="05.730917"><ele>5.2</ele><time>2021-02-17T15:51:02Z</time><name>PT13253</name></trkpt>
<trkpt lat="53.449466" lon="05.730932"><ele>5.1</ele><time>2021-02-17T15:51:03Z</time><name>PT13254</name></trkpt>
<trkpt lat="53.449463" lon="05.730947"><ele>5.1</ele><time>2021-02-17T15:51:04Z</time><name>PT13255</name></trkpt>
<trkpt lat="53.449457" lon="05.730963"><ele>5</ele><time>2021-02-17T15:51:05Z</time><name>PT13256</name></trkpt>
<trkpt lat="53.449451" lon="05.730976"><ele>4.9</ele><time>2021-02-17T15:51:06Z</time><name>PT13257</name></trkpt>
<trkpt lat="53.449445" lon="05.730988"><ele>5</ele><time>2021-02-17T15:51:07Z</time><name>PT13258</name></trkpt>
<trkpt lat="53.449441" lon="05.731003"><ele>5</ele><time>2021-02-17T15:51:08Z</time><name>PT13259</name></trkpt>
<trkpt lat="53.449438" lon="05.731020"><ele>5.2</ele><time>2021-02-17T15:51:09Z</time><name>PT13260</name></trkpt>
<trkpt lat="53.449435" lon="05.731037"><ele>5.1</ele><time>2021-02-17T15:51:10Z</time><name>PT13261</name></trkpt>
<trkpt lat="53.449433" lon="05.731051"><ele>4.9</ele><time>2021-02-17T15:51:11Z</time><name>PT13262</name></trkpt>
<trkpt lat="53.449429" lon="05.731062"><ele>4.7</ele><time>2021-02-17T15:51:12Z</time><name>PT13263</name></trkpt>
<trkpt lat="53.449424" lon="05.731075"><ele>4.5</ele><time>2021-02-17T15:51:13Z</time><name>PT13264</name></trkpt>
<trkpt lat="53.449421" lon="05.731088"><ele>4.3</ele><time>2021-02-17T15:51:14Z</time><name>PT13265</name></trkpt>
<trkpt lat="53.449416" lon="05.731102"><ele>4.4</ele><time>2021-02-17T15:51:15Z</time><name>PT13266</name></trkpt>
<trkpt lat="53.449412" lon="05.731118"><ele>4.6</ele><time>2021-02-17T15:51:16Z</time><name>PT13267</name></trkpt>
<trkpt lat="53.449409" lon="05.731135"><ele>4.7</ele><time>2021-02-17T15:51:17Z</time><name>PT13268</name></trkpt>
<trkpt lat="53.449406" lon="05.731149"><ele>4.7</ele><time>2021-02-17T15:51:18Z</time><name>PT13269</name></trkpt>
<trkpt lat="53.449402" lon="05.731162"><ele>4.3</ele><time>2021-02-17T15:51:19Z</time><name>PT13270</name></trkpt>
<trkpt lat="53.449398" lon="05.731179"><ele>4.4</ele><time>2021-02-17T15:51:20Z</time><name>PT13271</name></trkpt>
<trkpt lat="53.449394" lon="05.731196"><ele>4.5</ele><time>2021-02-17T15:51:21Z</time><name>PT13272</name></trkpt>
<trkpt lat="53.449389" lon="05.731211"><ele>4.5</ele><time>2021-02-17T15:51:22Z</time><name>PT13273</name></trkpt>
<trkpt lat="53.449383" lon="05.731226"><ele>4.6</ele><time>2021-02-17T15:51:23Z</time><name>PT13274</name></trkpt>
<trkpt lat="53.449378" lon="05.731243"><ele>4.5</ele><time>2021-02-17T15:51:24Z</time><name>PT13275</name></trkpt>
<trkpt lat="53.449374" lon="05.731260"><ele>4.4</ele><time>2021-02-17T15:51:25Z</time><name>PT13276</name></trkpt>
<trkpt lat="53.449372" lon="05.731274"><ele>4.4</ele><time>2021-02-17T15:51:26Z</time><name>PT13277</name></trkpt>
<trkpt lat="53.449368" lon="05.731287"><ele>4.3</ele><time>2021-02-17T15:51:27Z</time><name>PT13278</name></trkpt>
<trkpt lat="53.449365" lon="05.731302"><ele>4.6</ele><time>2021-02-17T15:51:28Z</time><name>PT13279</name></trkpt>
<trkpt lat="53.449361" lon="05.731318"><ele>4.7</ele><time>2021-02-17T15:51:29Z</time><name>PT13280</name></trkpt>
<trkpt lat="53.449357" lon="05.731333"><ele>4.7</ele><time>2021-02-17T15:51:30Z</time><name>PT13281</name></trkpt>
<trkpt lat="53.449354" lon="05.731347"><ele>4.7</ele><time>2021-02-17T15:51:31Z</time><name>PT13282</name></trkpt>
<trkpt lat="53.449352" lon="05.731363"><ele>4.7</ele><time>2021-02-17T15:51:32Z</time><name>PT13283</name></trkpt>
<trkpt lat="53.449348" lon="05.731381"><ele>4.6</ele><time>2021-02-17T15:51:33Z</time><name>PT13284</name></trkpt>
<trkpt lat="53.449345" lon="05.731398"><ele>4.6</ele><time>2021-02-17T15:51:34Z</time><name>PT13285</name></trkpt>
<trkpt lat="53.449342" lon="05.731413"><ele>4.7</ele><time>2021-02-17T15:51:35Z</time><name>PT13286</name></trkpt>
<trkpt lat="53.449339" lon="05.731428"><ele>4.6</ele><time>2021-02-17T15:51:36Z</time><name>PT13287</name></trkpt>
<trkpt lat="53.449334" lon="05.731442"><ele>4.3</ele><time>2021-02-17T15:51:37Z</time><name>PT13288</name></trkpt>
<trkpt lat="53.449329" lon="05.731457"><ele>4.2</ele><time>2021-02-17T15:51:38Z</time><name>PT13289</name></trkpt>
<trkpt lat="53.449325" lon="05.731473"><ele>4.2</ele><time>2021-02-17T15:51:39Z</time><name>PT13290</name></trkpt>
<trkpt lat="53.449320" lon="05.731490"><ele>4</ele><time>2021-02-17T15:51:40Z</time><name>PT13291</name></trkpt>
<trkpt lat="53.449316" lon="05.731507"><ele>4</ele><time>2021-02-17T15:51:41Z</time><name>PT13292</name></trkpt>
<trkpt lat="53.449313" lon="05.731524"><ele>4</ele><time>2021-02-17T15:51:42Z</time><name>PT13293</name></trkpt>
<trkpt lat="53.449311" lon="05.731538"><ele>3.9</ele><time>2021-02-17T15:51:43Z</time><name>PT13294</name></trkpt>
<trkpt lat="53.449309" lon="05.731554"><ele>4.1</ele><time>2021-02-17T15:51:44Z</time><name>PT13295</name></trkpt>
<trkpt lat="53.449305" lon="05.731570"><ele>4.1</ele><time>2021-02-17T15:51:45Z</time><name>PT13296</name></trkpt>
<trkpt lat="53.449301" lon="05.731588"><ele>4.2</ele><time>2021-02-17T15:51:46Z</time><name>PT13297</name></trkpt>
<trkpt lat="53.449299" lon="05.731603"><ele>4.3</ele><time>2021-02-17T15:51:47Z</time><name>PT13298</name></trkpt>
<trkpt lat="53.449296" lon="05.731619"><ele>4.3</ele><time>2021-02-17T15:51:48Z</time><name>PT13299</name></trkpt>
<trkpt lat="53.449294" lon="05.731637"><ele>4.2</ele><time>2021-02-17T15:51:49Z</time><name>PT13300</name></trkpt>
<trkpt lat="53.449292" lon="05.731654"><ele>4.2</ele><time>2021-02-17T15:51:50Z</time><name>PT13301</name></trkpt>
<trkpt lat="53.449290" lon="05.731670"><ele>4</ele><time>2021-02-17T15:51:51Z</time><name>PT13302</name></trkpt>
<trkpt lat="53.449287" lon="05.731684"><ele>3.8</ele><time>2021-02-17T15:51:52Z</time><name>PT13303</name></trkpt>
<trkpt lat="53.449283" lon="05.731699"><ele>4</ele><time>2021-02-17T15:51:53Z</time><name>PT13304</name></trkpt>
<trkpt lat="53.449279" lon="05.731714"><ele>3.9</ele><time>2021-02-17T15:51:54Z</time><name>PT13305</name></trkpt>
<trkpt lat="53.449276" lon="05.731729"><ele>4</ele><time>2021-02-17T15:51:55Z</time><name>PT13306</name></trkpt>
<trkpt lat="53.449274" lon="05.731746"><ele>4.1</ele><time>2021-02-17T15:51:56Z</time><name>PT13307</name></trkpt>
<trkpt lat="53.449272" lon="05.731763"><ele>3.9</ele><time>2021-02-17T15:51:57Z</time><name>PT13308</name></trkpt>
<trkpt lat="53.449271" lon="05.731779"><ele>3.8</ele><time>2021-02-17T15:51:58Z</time><name>PT13309</name></trkpt>
<trkpt lat="53.449267" lon="05.731794"><ele>3.8</ele><time>2021-02-17T15:51:59Z</time><name>PT13310</name></trkpt>
<trkpt lat="53.449262" lon="05.731810"><ele>4</ele><time>2021-02-17T15:52:00Z</time><name>PT13311</name></trkpt>
<trkpt lat="53.449258" lon="05.731828"><ele>4</ele><time>2021-02-17T15:52:01Z</time><name>PT13312</name></trkpt>
<trkpt lat="53.449256" lon="05.731844"><ele>3.8</ele><time>2021-02-17T15:52:02Z</time><name>PT13313</name></trkpt>
<trkpt lat="53.449253" lon="05.731859"><ele>3.8</ele><time>2021-02-17T15:52:03Z</time><name>PT13314</name></trkpt>
<trkpt lat="53.449249" lon="05.731876"><ele>3.9</ele><time>2021-02-17T15:52:04Z</time><name>PT13315</name></trkpt>
<trkpt lat="53.449248" lon="05.731892"><ele>3.8</ele><time>2021-02-17T15:52:05Z</time><name>PT13316</name></trkpt>
<trkpt lat="53.449246" lon="05.731906"><ele>3.8</ele><time>2021-02-17T15:52:06Z</time><name>PT13317</name></trkpt>
<trkpt lat="53.449243" lon="05.731921"><ele>3.8</ele><time>2021-02-17T15:52:07Z</time><name>PT13318</name></trkpt>
<trkpt lat="53.449239" lon="05.731937"><ele>3.7</ele><time>2021-02-17T15:52:08Z</time><name>PT13319</name></trkpt>
<trkpt lat="53.449235" lon="05.731953"><ele>3.8</ele><time>2021-02-17T15:52:09Z</time><name>PT13320</name></trkpt>
<trkpt lat="53.449230" lon="05.731968"><ele>3.7</ele><time>2021-02-17T15:52:10Z</time><name>PT13321</name></trkpt>
<trkpt lat="53.449227" lon="05.731983"><ele>3.5</ele><time>2021-02-17T15:52:11Z</time><name>PT13322</name></trkpt>
<trkpt lat="53.449223" lon="05.731998"><ele>3.5</ele><time>2021-02-17T15:52:12Z</time><name>PT13323</name></trkpt>
<trkpt lat="53.449221" lon="05.732012"><ele>3.5</ele><time>2021-02-17T15:52:13Z</time><name>PT13324</name></trkpt>
<trkpt lat="53.449218" lon="05.732026"><ele>3.4</ele><time>2021-02-17T15:52:14Z</time><name>PT13325</name></trkpt>
<trkpt lat="53.449214" lon="05.732040"><ele>3.6</ele><time>2021-02-17T15:52:15Z</time><name>PT13326</name></trkpt>
<trkpt lat="53.449211" lon="05.732055"><ele>3.6</ele><time>2021-02-17T15:52:16Z</time><name>PT13327</name></trkpt>
<trkpt lat="53.449207" lon="05.732070"><ele>3.5</ele><time>2021-02-17T15:52:17Z</time><name>PT13328</name></trkpt>
<trkpt lat="53.449204" lon="05.732086"><ele>3.6</ele><time>2021-02-17T15:52:18Z</time><name>PT13329</name></trkpt>
<trkpt lat="53.449203" lon="05.732101"><ele>3.5</ele><time>2021-02-17T15:52:19Z</time><name>PT13330</name></trkpt>
<trkpt lat="53.449201" lon="05.732119"><ele>3.6</ele><time>2021-02-17T15:52:20Z</time><name>PT13331</name></trkpt>
<trkpt lat="53.449197" lon="05.732135"><ele>3.5</ele><time>2021-02-17T15:52:21Z</time><name>PT13332</name></trkpt>
<trkpt lat="53.449193" lon="05.732148"><ele>3.2</ele><time>2021-02-17T15:52:22Z</time><name>PT13333</name></trkpt>
<trkpt lat="53.449186" lon="05.732160"><ele>3.2</ele><time>2021-02-17T15:52:23Z</time><name>PT13334</name></trkpt>
<trkpt lat="53.449180" lon="05.732175"><ele>3.2</ele><time>2021-02-17T15:52:24Z</time><name>PT13335</name></trkpt>
<trkpt lat="53.449176" lon="05.732185"><ele>3.2</ele><time>2021-02-17T15:52:25Z</time><name>PT13336</name></trkpt>
<trkpt lat="53.449172" lon="05.732199"><ele>3.4</ele><time>2021-02-17T15:52:26Z</time><name>PT13337</name></trkpt>
<trkpt lat="53.449168" lon="05.732213"><ele>3.4</ele><time>2021-02-17T15:52:27Z</time><name>PT13338</name></trkpt>
<trkpt lat="53.449164" lon="05.732225"><ele>3.5</ele><time>2021-02-17T15:52:28Z</time><name>PT13339</name></trkpt>
<trkpt lat="53.449159" lon="05.732239"><ele>3.7</ele><time>2021-02-17T15:52:29Z</time><name>PT13340</name></trkpt>
<trkpt lat="53.449153" lon="05.732253"><ele>3.6</ele><time>2021-02-17T15:52:30Z</time><name>PT13341</name></trkpt>
<trkpt lat="53.449147" lon="05.732267"><ele>3.5</ele><time>2021-02-17T15:52:31Z</time><name>PT13342</name></trkpt>
<trkpt lat="53.449143" lon="05.732281"><ele>3.5</ele><time>2021-02-17T15:52:32Z</time><name>PT13343</name></trkpt>
<trkpt lat="53.449140" lon="05.732296"><ele>3.5</ele><time>2021-02-17T15:52:33Z</time><name>PT13344</name></trkpt>
<trkpt lat="53.449137" lon="05.732310"><ele>3.6</ele><time>2021-02-17T15:52:34Z</time><name>PT13345</name></trkpt>
<trkpt lat="53.449133" lon="05.732327"><ele>3.7</ele><time>2021-02-17T15:52:35Z</time><name>PT13346</name></trkpt>
<trkpt lat="53.449129" lon="05.732341"><ele>3.7</ele><time>2021-02-17T15:52:36Z</time><name>PT13347</name></trkpt>
<trkpt lat="53.449124" lon="05.732356"><ele>3.6</ele><time>2021-02-17T15:52:37Z</time><name>PT13348</name></trkpt>
<trkpt lat="53.449118" lon="05.732375"><ele>3.4</ele><time>2021-02-17T15:52:38Z</time><name>PT13349</name></trkpt>
<trkpt lat="53.449113" lon="05.732389"><ele>3.3</ele><time>2021-02-17T15:52:39Z</time><name>PT13350</name></trkpt>
<trkpt lat="53.449109" lon="05.732406"><ele>3.5</ele><time>2021-02-17T15:52:40Z</time><name>PT13351</name></trkpt>
<trkpt lat="53.449105" lon="05.732421"><ele>3.6</ele><time>2021-02-17T15:52:41Z</time><name>PT13352</name></trkpt>
<trkpt lat="53.449103" lon="05.732435"><ele>3.7</ele><time>2021-02-17T15:52:42Z</time><name>PT13353</name></trkpt>
<trkpt lat="53.449098" lon="05.732453"><ele>3.9</ele><time>2021-02-17T15:52:43Z</time><name>PT13354</name></trkpt>
<trkpt lat="53.449094" lon="05.732465"><ele>3.8</ele><time>2021-02-17T15:52:44Z</time><name>PT13355</name></trkpt>
<trkpt lat="53.449089" lon="05.732475"><ele>3.8</ele><time>2021-02-17T15:52:45Z</time><name>PT13356</name></trkpt>
<trkpt lat="53.449085" lon="05.732489"><ele>3.7</ele><time>2021-02-17T15:52:46Z</time><name>PT13357</name></trkpt>
<trkpt lat="53.449079" lon="05.732504"><ele>3.7</ele><time>2021-02-17T15:52:47Z</time><name>PT13358</name></trkpt>
<trkpt lat="53.449074" lon="05.732518"><ele>3.7</ele><time>2021-02-17T15:52:48Z</time><name>PT13359</name></trkpt>
<trkpt lat="53.449071" lon="05.732534"><ele>3.7</ele><time>2021-02-17T15:52:49Z</time><name>PT13360</name></trkpt>
<trkpt lat="53.449068" lon="05.732549"><ele>3.9</ele><time>2021-02-17T15:52:50Z</time><name>PT13361</name></trkpt>
<trkpt lat="53.449064" lon="05.732565"><ele>3.9</ele><time>2021-02-17T15:52:51Z</time><name>PT13362</name></trkpt>
<trkpt lat="53.449060" lon="05.732577"><ele>3.7</ele><time>2021-02-17T15:52:52Z</time><name>PT13363</name></trkpt>
<trkpt lat="53.449055" lon="05.732593"><ele>3.6</ele><time>2021-02-17T15:52:53Z</time><name>PT13364</name></trkpt>
<trkpt lat="53.449049" lon="05.732609"><ele>3.7</ele><time>2021-02-17T15:52:54Z</time><name>PT13365</name></trkpt>
<trkpt lat="53.449045" lon="05.732623"><ele>3.7</ele><time>2021-02-17T15:52:55Z</time><name>PT13366</name></trkpt>
<trkpt lat="53.449042" lon="05.732636"><ele>3.7</ele><time>2021-02-17T15:52:56Z</time><name>PT13367</name></trkpt>
<trkpt lat="53.449038" lon="05.732649"><ele>4</ele><time>2021-02-17T15:52:57Z</time><name>PT13368</name></trkpt>
<trkpt lat="53.449034" lon="05.732664"><ele>3.9</ele><time>2021-02-17T15:52:58Z</time><name>PT13369</name></trkpt>
<trkpt lat="53.449031" lon="05.732677"><ele>4.1</ele><time>2021-02-17T15:52:59Z</time><name>PT13370</name></trkpt>
<trkpt lat="53.449027" lon="05.732691"><ele>4.2</ele><time>2021-02-17T15:53:00Z</time><name>PT13371</name></trkpt>
<trkpt lat="53.449022" lon="05.732707"><ele>4.1</ele><time>2021-02-17T15:53:01Z</time><name>PT13372</name></trkpt>
<trkpt lat="53.449016" lon="05.732721"><ele>4</ele><time>2021-02-17T15:53:02Z</time><name>PT13373</name></trkpt>
<trkpt lat="53.449010" lon="05.732736"><ele>3.9</ele><time>2021-02-17T15:53:03Z</time><name>PT13374</name></trkpt>
<trkpt lat="53.449007" lon="05.732749"><ele>3.8</ele><time>2021-02-17T15:53:04Z</time><name>PT13375</name></trkpt>
<trkpt lat="53.449004" lon="05.732765"><ele>3.8</ele><time>2021-02-17T15:53:05Z</time><name>PT13376</name></trkpt>
<trkpt lat="53.449002" lon="05.732780"><ele>3.8</ele><time>2021-02-17T15:53:06Z</time><name>PT13377</name></trkpt>
<trkpt lat="53.448999" lon="05.732793"><ele>4.1</ele><time>2021-02-17T15:53:07Z</time><name>PT13378</name></trkpt>
<trkpt lat="53.448994" lon="05.732807"><ele>4.1</ele><time>2021-02-17T15:53:08Z</time><name>PT13379</name></trkpt>
<trkpt lat="53.448990" lon="05.732821"><ele>4.2</ele><time>2021-02-17T15:53:09Z</time><name>PT13380</name></trkpt>
<trkpt lat="53.448985" lon="05.732838"><ele>4.1</ele><time>2021-02-17T15:53:10Z</time><name>PT13381</name></trkpt>
<trkpt lat="53.448981" lon="05.732854"><ele>3.9</ele><time>2021-02-17T15:53:11Z</time><name>PT13382</name></trkpt>
<trkpt lat="53.448977" lon="05.732868"><ele>3.8</ele><time>2021-02-17T15:53:12Z</time><name>PT13383</name></trkpt>
<trkpt lat="53.448974" lon="05.732883"><ele>3.9</ele><time>2021-02-17T15:53:13Z</time><name>PT13384</name></trkpt>
<trkpt lat="53.448972" lon="05.732900"><ele>3.9</ele><time>2021-02-17T15:53:14Z</time><name>PT13385</name></trkpt>
<trkpt lat="53.448971" lon="05.732915"><ele>4.1</ele><time>2021-02-17T15:53:15Z</time><name>PT13386</name></trkpt>
<trkpt lat="53.448967" lon="05.732931"><ele>3.9</ele><time>2021-02-17T15:53:16Z</time><name>PT13387</name></trkpt>
<trkpt lat="53.448962" lon="05.732945"><ele>3.8</ele><time>2021-02-17T15:53:17Z</time><name>PT13388</name></trkpt>
<trkpt lat="53.448954" lon="05.732959"><ele>3.7</ele><time>2021-02-17T15:53:18Z</time><name>PT13389</name></trkpt>
<trkpt lat="53.448949" lon="05.732971"><ele>3.7</ele><time>2021-02-17T15:53:19Z</time><name>PT13390</name></trkpt>
<trkpt lat="53.448945" lon="05.732986"><ele>3.5</ele><time>2021-02-17T15:53:20Z</time><name>PT13391</name></trkpt>
<trkpt lat="53.448940" lon="05.733002"><ele>3.4</ele><time>2021-02-17T15:53:21Z</time><name>PT13392</name></trkpt>
<trkpt lat="53.448939" lon="05.733016"><ele>3.5</ele><time>2021-02-17T15:53:22Z</time><name>PT13393</name></trkpt>
<trkpt lat="53.448936" lon="05.733029"><ele>3.3</ele><time>2021-02-17T15:53:23Z</time><name>PT13394</name></trkpt>
<trkpt lat="53.448932" lon="05.733042"><ele>3.2</ele><time>2021-02-17T15:53:24Z</time><name>PT13395</name></trkpt>
<trkpt lat="53.448929" lon="05.733057"><ele>3.5</ele><time>2021-02-17T15:53:25Z</time><name>PT13396</name></trkpt>
<trkpt lat="53.448927" lon="05.733073"><ele>3.4</ele><time>2021-02-17T15:53:26Z</time><name>PT13397</name></trkpt>
<trkpt lat="53.448923" lon="05.733086"><ele>3.5</ele><time>2021-02-17T15:53:27Z</time><name>PT13398</name></trkpt>
<trkpt lat="53.448921" lon="05.733099"><ele>3.8</ele><time>2021-02-17T15:53:28Z</time><name>PT13399</name></trkpt>
<trkpt lat="53.448918" lon="05.733113"><ele>3.9</ele><time>2021-02-17T15:53:29Z</time><name>PT13400</name></trkpt>
<trkpt lat="53.448913" lon="05.733128"><ele>3.7</ele><time>2021-02-17T15:53:30Z</time><name>PT13401</name></trkpt>
<trkpt lat="53.448910" lon="05.733143"><ele>3.7</ele><time>2021-02-17T15:53:31Z</time><name>PT13402</name></trkpt>
<trkpt lat="53.448907" lon="05.733162"><ele>3.5</ele><time>2021-02-17T15:53:32Z</time><name>PT13403</name></trkpt>
<trkpt lat="53.448905" lon="05.733177"><ele>3.5</ele><time>2021-02-17T15:53:33Z</time><name>PT13404</name></trkpt>
<trkpt lat="53.448904" lon="05.733192"><ele>3.6</ele><time>2021-02-17T15:53:34Z</time><name>PT13405</name></trkpt>
<trkpt lat="53.448902" lon="05.733204"><ele>3.8</ele><time>2021-02-17T15:53:35Z</time><name>PT13406</name></trkpt>
<trkpt lat="53.448897" lon="05.733217"><ele>3.7</ele><time>2021-02-17T15:53:36Z</time><name>PT13407</name></trkpt>
<trkpt lat="53.448891" lon="05.733230"><ele>3.7</ele><time>2021-02-17T15:53:37Z</time><name>PT13408</name></trkpt>
<trkpt lat="53.448886" lon="05.733243"><ele>3.6</ele><time>2021-02-17T15:53:38Z</time><name>PT13409</name></trkpt>
<trkpt lat="53.448883" lon="05.733258"><ele>3.6</ele><time>2021-02-17T15:53:39Z</time><name>PT13410</name></trkpt>
<trkpt lat="53.448882" lon="05.733276"><ele>3.8</ele><time>2021-02-17T15:53:40Z</time><name>PT13411</name></trkpt>
<trkpt lat="53.448880" lon="05.733294"><ele>4</ele><time>2021-02-17T15:53:41Z</time><name>PT13412</name></trkpt>
<trkpt lat="53.448876" lon="05.733307"><ele>3.9</ele><time>2021-02-17T15:53:42Z</time><name>PT13413</name></trkpt>
<trkpt lat="53.448870" lon="05.733323"><ele>4</ele><time>2021-02-17T15:53:43Z</time><name>PT13414</name></trkpt>
<trkpt lat="53.448865" lon="05.733337"><ele>3.8</ele><time>2021-02-17T15:53:44Z</time><name>PT13415</name></trkpt>
<trkpt lat="53.448861" lon="05.733350"><ele>3.7</ele><time>2021-02-17T15:53:45Z</time><name>PT13416</name></trkpt>
<trkpt lat="53.448857" lon="05.733366"><ele>3.8</ele><time>2021-02-17T15:53:46Z</time><name>PT13417</name></trkpt>
<trkpt lat="53.448853" lon="05.733380"><ele>3.9</ele><time>2021-02-17T15:53:47Z</time><name>PT13418</name></trkpt>
<trkpt lat="53.448850" lon="05.733394"><ele>3.9</ele><time>2021-02-17T15:53:48Z</time><name>PT13419</name></trkpt>
<trkpt lat="53.448846" lon="05.733409"><ele>3.7</ele><time>2021-02-17T15:53:49Z</time><name>PT13420</name></trkpt>
<trkpt lat="53.448841" lon="05.733425"><ele>3.7</ele><time>2021-02-17T15:53:50Z</time><name>PT13421</name></trkpt>
<trkpt lat="53.448838" lon="05.733443"><ele>3.6</ele><time>2021-02-17T15:53:51Z</time><name>PT13422</name></trkpt>
<trkpt lat="53.448836" lon="05.733459"><ele>3.6</ele><time>2021-02-17T15:53:52Z</time><name>PT13423</name></trkpt>
<trkpt lat="53.448831" lon="05.733473"><ele>3.7</ele><time>2021-02-17T15:53:53Z</time><name>PT13424</name></trkpt>
<trkpt lat="53.448825" lon="05.733487"><ele>3.7</ele><time>2021-02-17T15:53:54Z</time><name>PT13425</name></trkpt>
<trkpt lat="53.448821" lon="05.733501"><ele>3.7</ele><time>2021-02-17T15:53:55Z</time><name>PT13426</name></trkpt>
<trkpt lat="53.448818" lon="05.733517"><ele>3.7</ele><time>2021-02-17T15:53:56Z</time><name>PT13427</name></trkpt>
<trkpt lat="53.448815" lon="05.733531"><ele>3.7</ele><time>2021-02-17T15:53:57Z</time><name>PT13428</name></trkpt>
<trkpt lat="53.448812" lon="05.733547"><ele>3.7</ele><time>2021-02-17T15:53:58Z</time><name>PT13429</name></trkpt>
<trkpt lat="53.448809" lon="05.733564"><ele>3.7</ele><time>2021-02-17T15:53:59Z</time><name>PT13430</name></trkpt>
<trkpt lat="53.448806" lon="05.733577"><ele>3.7</ele><time>2021-02-17T15:54:00Z</time><name>PT13431</name></trkpt>
<trkpt lat="53.448802" lon="05.733594"><ele>3.7</ele><time>2021-02-17T15:54:01Z</time><name>PT13432</name></trkpt>
<trkpt lat="53.448800" lon="05.733610"><ele>3.7</ele><time>2021-02-17T15:54:02Z</time><name>PT13433</name></trkpt>
<trkpt lat="53.448798" lon="05.733621"><ele>3.7</ele><time>2021-02-17T15:54:03Z</time><name>PT13434</name></trkpt>
<trkpt lat="53.448794" lon="05.733633"><ele>3.7</ele><time>2021-02-17T15:54:04Z</time><name>PT13435</name></trkpt>
<trkpt lat="53.448790" lon="05.733647"><ele>3.7</ele><time>2021-02-17T15:54:05Z</time><name>PT13436</name></trkpt>
<trkpt lat="53.448786" lon="05.733662"><ele>3.8</ele><time>2021-02-17T15:54:06Z</time><name>PT13437</name></trkpt>
<trkpt lat="53.448782" lon="05.733679"><ele>3.7</ele><time>2021-02-17T15:54:07Z</time><name>PT13438</name></trkpt>
<trkpt lat="53.448779" lon="05.733694"><ele>3.7</ele><time>2021-02-17T15:54:08Z</time><name>PT13439</name></trkpt>
<trkpt lat="53.448775" lon="05.733707"><ele>3.7</ele><time>2021-02-17T15:54:09Z</time><name>PT13440</name></trkpt>
<trkpt lat="53.448772" lon="05.733723"><ele>3.6</ele><time>2021-02-17T15:54:10Z</time><name>PT13441</name></trkpt>
<trkpt lat="53.448769" lon="05.733740"><ele>3.7</ele><time>2021-02-17T15:54:11Z</time><name>PT13442</name></trkpt>
<trkpt lat="53.448767" lon="05.733756"><ele>3.7</ele><time>2021-02-17T15:54:12Z</time><name>PT13443</name></trkpt>
<trkpt lat="53.448764" lon="05.733770"><ele>3.7</ele><time>2021-02-17T15:54:13Z</time><name>PT13444</name></trkpt>
<trkpt lat="53.448760" lon="05.733785"><ele>3.7</ele><time>2021-02-17T15:54:14Z</time><name>PT13445</name></trkpt>
<trkpt lat="53.448756" lon="05.733799"><ele>3.6</ele><time>2021-02-17T15:54:15Z</time><name>PT13446</name></trkpt>
<trkpt lat="53.448752" lon="05.733812"><ele>3.7</ele><time>2021-02-17T15:54:16Z</time><name>PT13447</name></trkpt>
<trkpt lat="53.448748" lon="05.733827"><ele>3.6</ele><time>2021-02-17T15:54:17Z</time><name>PT13448</name></trkpt>
<trkpt lat="53.448744" lon="05.733843"><ele>3.7</ele><time>2021-02-17T15:54:18Z</time><name>PT13449</name></trkpt>
<trkpt lat="53.448740" lon="05.733858"><ele>3.7</ele><time>2021-02-17T15:54:19Z</time><name>PT13450</name></trkpt>
<trkpt lat="53.448737" lon="05.733873"><ele>3.9</ele><time>2021-02-17T15:54:20Z</time><name>PT13451</name></trkpt>
<trkpt lat="53.448733" lon="05.733890"><ele>3.9</ele><time>2021-02-17T15:54:21Z</time><name>PT13452</name></trkpt>
<trkpt lat="53.448731" lon="05.733909"><ele>3.8</ele><time>2021-02-17T15:54:22Z</time><name>PT13453</name></trkpt>
<trkpt lat="53.448728" lon="05.733922"><ele>3.8</ele><time>2021-02-17T15:54:23Z</time><name>PT13454</name></trkpt>
<trkpt lat="53.448723" lon="05.733935"><ele>3.8</ele><time>2021-02-17T15:54:24Z</time><name>PT13455</name></trkpt>
<trkpt lat="53.448721" lon="05.733947"><ele>3.7</ele><time>2021-02-17T15:54:25Z</time><name>PT13456</name></trkpt>
<trkpt lat="53.448718" lon="05.733955"><ele>3.9</ele><time>2021-02-17T15:54:26Z</time><name>PT13457</name></trkpt>
<trkpt lat="53.448715" lon="05.733958"><ele>3.9</ele><time>2021-02-17T15:54:27Z</time><name>PT13458</name></trkpt>
<trkpt lat="53.448714" lon="05.733961"><ele>3.9</ele><time>2021-02-17T15:54:28Z</time><name>PT13459</name></trkpt>
<trkpt lat="53.448715" lon="05.733963"><ele>4</ele><time>2021-02-17T15:54:29Z</time><name>PT13460</name></trkpt>
<trkpt lat="53.448714" lon="05.733965"><ele>4.1</ele><time>2021-02-17T15:54:30Z</time><name>PT13461</name></trkpt>
<trkpt lat="53.448714" lon="05.733964"><ele>4</ele><time>2021-02-17T15:54:32Z</time><name>PT13462</name></trkpt>
<trkpt lat="53.448711" lon="05.733971"><ele>4</ele><time>2021-02-17T15:54:33Z</time><name>PT13463</name></trkpt>
<trkpt lat="53.448708" lon="05.733978"><ele>3.8</ele><time>2021-02-17T15:54:34Z</time><name>PT13464</name></trkpt>
<trkpt lat="53.448706" lon="05.733983"><ele>3.9</ele><time>2021-02-17T15:54:35Z</time><name>PT13465</name></trkpt>
<trkpt lat="53.448706" lon="05.733987"><ele>3.8</ele><time>2021-02-17T15:54:36Z</time><name>PT13466</name></trkpt>
<trkpt lat="53.448704" lon="05.733997"><ele>3.7</ele><time>2021-02-17T15:54:37Z</time><name>PT13467</name></trkpt>
<trkpt lat="53.448707" lon="05.734017"><ele>3.6</ele><time>2021-02-17T15:54:53Z</time><name>PT13468</name></trkpt>
<trkpt lat="53.448715" lon="05.734035"><ele>3.6</ele><time>2021-02-17T15:54:54Z</time><name>PT13469</name></trkpt>
<trkpt lat="53.448718" lon="05.734049"><ele>3.5</ele><time>2021-02-17T15:54:55Z</time><name>PT13470</name></trkpt>
<trkpt lat="53.448717" lon="05.734056"><ele>3.4</ele><time>2021-02-17T15:54:56Z</time><name>PT13471</name></trkpt>
<trkpt lat="53.448716" lon="05.734062"><ele>3.4</ele><time>2021-02-17T15:54:57Z</time><name>PT13472</name></trkpt>
<trkpt lat="53.448716" lon="05.734068"><ele>3.3</ele><time>2021-02-17T15:54:58Z</time><name>PT13473</name></trkpt>
<trkpt lat="53.448721" lon="05.734080"><ele>3.5</ele><time>2021-02-17T15:55:01Z</time><name>PT13474</name></trkpt>
<trkpt lat="53.448722" lon="05.734120"><ele>3.4</ele><time>2021-02-17T15:55:02Z</time><name>PT13475</name></trkpt>
<trkpt lat="53.448728" lon="05.734133"><ele>3.2</ele><time>2021-02-17T15:55:03Z</time><name>PT13476</name></trkpt>
<trkpt lat="53.448731" lon="05.734147"><ele>3.2</ele><time>2021-02-17T15:55:04Z</time><name>PT13477</name></trkpt>
<trkpt lat="53.448733" lon="05.734163"><ele>3.2</ele><time>2021-02-17T15:55:05Z</time><name>PT13478</name></trkpt>
<trkpt lat="53.448736" lon="05.734180"><ele>3.1</ele><time>2021-02-17T15:55:06Z</time><name>PT13479</name></trkpt>
<trkpt lat="53.448739" lon="05.734197"><ele>3.1</ele><time>2021-02-17T15:55:07Z</time><name>PT13480</name></trkpt>
<trkpt lat="53.448743" lon="05.734212"><ele>3.2</ele><time>2021-02-17T15:55:08Z</time><name>PT13481</name></trkpt>
<trkpt lat="53.448746" lon="05.734227"><ele>3.1</ele><time>2021-02-17T15:55:09Z</time><name>PT13482</name></trkpt>
<trkpt lat="53.448751" lon="05.734240"><ele>2.9</ele><time>2021-02-17T15:55:10Z</time><name>PT13483</name></trkpt>
<trkpt lat="53.448756" lon="05.734254"><ele>2.7</ele><time>2021-02-17T15:55:11Z</time><name>PT13484</name></trkpt>
<trkpt lat="53.448761" lon="05.734266"><ele>2.4</ele><time>2021-02-17T15:55:12Z</time><name>PT13485</name></trkpt>
<trkpt lat="53.448767" lon="05.734275"><ele>2</ele><time>2021-02-17T15:55:13Z</time><name>PT13486</name></trkpt>
<trkpt lat="53.448770" lon="05.734288"><ele>1.9</ele><time>2021-02-17T15:55:14Z</time><name>PT13487</name></trkpt>
<trkpt lat="53.448775" lon="05.734302"><ele>1.8</ele><time>2021-02-17T15:55:15Z</time><name>PT13488</name></trkpt>
<trkpt lat="53.448781" lon="05.734313"><ele>2</ele><time>2021-02-17T15:55:16Z</time><name>PT13489</name></trkpt>
<trkpt lat="53.448785" lon="05.734326"><ele>2.1</ele><time>2021-02-17T15:55:17Z</time><name>PT13490</name></trkpt>
<trkpt lat="53.448788" lon="05.734339"><ele>2.1</ele><time>2021-02-17T15:55:18Z</time><name>PT13491</name></trkpt>
<trkpt lat="53.448793" lon="05.734350"><ele>2.1</ele><time>2021-02-17T15:55:19Z</time><name>PT13492</name></trkpt>
<trkpt lat="53.448798" lon="05.734361"><ele>1.9</ele><time>2021-02-17T15:55:20Z</time><name>PT13493</name></trkpt>
<trkpt lat="53.448803" lon="05.734374"><ele>1.8</ele><time>2021-02-17T15:55:21Z</time><name>PT13494</name></trkpt>
<trkpt lat="53.448808" lon="05.734389"><ele>1.8</ele><time>2021-02-17T15:55:22Z</time><name>PT13495</name></trkpt>
<trkpt lat="53.448812" lon="05.734403"><ele>1.6</ele><time>2021-02-17T15:55:23Z</time><name>PT13496</name></trkpt>
<trkpt lat="53.448816" lon="05.734414"><ele>1.3</ele><time>2021-02-17T15:55:24Z</time><name>PT13497</name></trkpt>
<trkpt lat="53.448822" lon="05.734428"><ele>1.2</ele><time>2021-02-17T15:55:25Z</time><name>PT13498</name></trkpt>
<trkpt lat="53.448828" lon="05.734436"><ele>1</ele><time>2021-02-17T15:55:26Z</time><name>PT13499</name></trkpt>
<trkpt lat="53.448833" lon="05.734445"><ele>0.8</ele><time>2021-02-17T15:55:27Z</time><name>PT13500</name></trkpt>
<trkpt lat="53.448839" lon="05.734457"><ele>0.8</ele><time>2021-02-17T15:55:28Z</time><name>PT13501</name></trkpt>
<trkpt lat="53.448845" lon="05.734467"><ele>0.8</ele><time>2021-02-17T15:55:29Z</time><name>PT13502</name></trkpt>
<trkpt lat="53.448849" lon="05.734479"><ele>0.8</ele><time>2021-02-17T15:55:30Z</time><name>PT13503</name></trkpt>
<trkpt lat="53.448853" lon="05.734493"><ele>0.7</ele><time>2021-02-17T15:55:31Z</time><name>PT13504</name></trkpt>
<trkpt lat="53.448856" lon="05.734507"><ele>0.7</ele><time>2021-02-17T15:55:32Z</time><name>PT13505</name></trkpt>
<trkpt lat="53.448861" lon="05.734521"><ele>0.6</ele><time>2021-02-17T15:55:33Z</time><name>PT13506</name></trkpt>
<trkpt lat="53.448867" lon="05.734536"><ele>0.5</ele><time>2021-02-17T15:55:34Z</time><name>PT13507</name></trkpt>
<trkpt lat="53.448873" lon="05.734549"><ele>0.4</ele><time>2021-02-17T15:55:35Z</time><name>PT13508</name></trkpt>
<trkpt lat="53.448879" lon="05.734562"><ele>0.3</ele><time>2021-02-17T15:55:36Z</time><name>PT13509</name></trkpt>
<trkpt lat="53.448886" lon="05.734571"><ele>0.1</ele><time>2021-02-17T15:55:37Z</time><name>PT13510</name></trkpt>
<trkpt lat="53.448896" lon="05.734578"><ele>0</ele><time>2021-02-17T15:55:38Z</time><name>PT13511</name></trkpt>
<trkpt lat="53.448905" lon="05.734586"><ele>0</ele><time>2021-02-17T15:55:39Z</time><name>PT13512</name></trkpt>
<trkpt lat="53.448909" lon="05.734589"><ele>0</ele><time>2021-02-17T15:55:40Z</time><name>PT13513</name></trkpt>
<trkpt lat="53.448910" lon="05.734590"><ele>0</ele><time>2021-02-17T15:55:41Z</time><name>PT13514</name></trkpt>
<trkpt lat="53.448911" lon="05.734589"><ele>0.1</ele><time>2021-02-17T15:55:42Z</time><name>PT13515</name></trkpt>
<trkpt lat="53.448912" lon="05.734595"><ele>0</ele><time>2021-02-17T15:55:43Z</time><name>PT13516</name></trkpt>
<trkpt lat="53.448914" lon="05.734603"><ele>0</ele><time>2021-02-17T15:55:44Z</time><name>PT13517</name></trkpt>
<trkpt lat="53.448918" lon="05.734614"><ele>0.1</ele><time>2021-02-17T15:55:45Z</time><name>PT13518</name></trkpt>
<trkpt lat="53.448923" lon="05.734625"><ele>0.2</ele><time>2021-02-17T15:55:46Z</time><name>PT13519</name></trkpt>
<trkpt lat="53.448930" lon="05.734635"><ele>0</ele><time>2021-02-17T15:55:47Z</time><name>PT13520</name></trkpt>
<trkpt lat="53.448938" lon="05.734646"><ele>0</ele><time>2021-02-17T15:55:48Z</time><name>PT13521</name></trkpt>
<trkpt lat="53.448943" lon="05.734658"><ele>0</ele><time>2021-02-17T15:55:49Z</time><name>PT13522</name></trkpt>
<trkpt lat="53.448948" lon="05.734669"><ele>0</ele><time>2021-02-17T15:55:50Z</time><name>PT13523</name></trkpt>
<trkpt lat="53.448953" lon="05.734684"><ele>0.1</ele><time>2021-02-17T15:55:51Z</time><name>PT13524</name></trkpt>
<trkpt lat="53.448955" lon="05.734700"><ele>0.1</ele><time>2021-02-17T15:55:52Z</time><name>PT13525</name></trkpt>
<trkpt lat="53.448956" lon="05.734712"><ele>0</ele><time>2021-02-17T15:55:53Z</time><name>PT13526</name></trkpt>
<trkpt lat="53.448957" lon="05.734721"><ele>0</ele><time>2021-02-17T15:55:54Z</time><name>PT13527</name></trkpt>
<trkpt lat="53.448963" lon="05.734730"><ele>0.4</ele><time>2021-02-17T15:55:55Z</time><name>PT13528</name></trkpt>
<trkpt lat="53.448966" lon="05.734738"><ele>0.2</ele><time>2021-02-17T15:55:56Z</time><name>PT13529</name></trkpt>
<trkpt lat="53.448968" lon="05.734748"><ele>0.2</ele><time>2021-02-17T15:55:57Z</time><name>PT13530</name></trkpt>
<trkpt lat="53.448970" lon="05.734757"><ele>0.1</ele><time>2021-02-17T15:55:58Z</time><name>PT13531</name></trkpt>
<trkpt lat="53.448971" lon="05.734766"><ele>0</ele><time>2021-02-17T15:55:59Z</time><name>PT13532</name></trkpt>
<trkpt lat="53.448974" lon="05.734776"><ele>0</ele><time>2021-02-17T15:56:00Z</time><name>PT13533</name></trkpt>
<trkpt lat="53.448975" lon="05.734784"><ele>0.1</ele><time>2021-02-17T15:56:01Z</time><name>PT13534</name></trkpt>
<trkpt lat="53.448978" lon="05.734797"><ele>0</ele><time>2021-02-17T15:56:02Z</time><name>PT13535</name></trkpt>
<trkpt lat="53.448981" lon="05.734811"><ele>0.2</ele><time>2021-02-17T15:56:03Z</time><name>PT13536</name></trkpt>
<trkpt lat="53.448985" lon="05.734822"><ele>0.2</ele><time>2021-02-17T15:56:04Z</time><name>PT13537</name></trkpt>
<trkpt lat="53.448987" lon="05.734832"><ele>0</ele><time>2021-02-17T15:56:05Z</time><name>PT13538</name></trkpt>
<trkpt lat="53.448990" lon="05.734840"><ele>0</ele><time>2021-02-17T15:56:06Z</time><name>PT13539</name></trkpt>
<trkpt lat="53.448992" lon="05.734850"><ele>0</ele><time>2021-02-17T15:56:07Z</time><name>PT13540</name></trkpt>
<trkpt lat="53.448996" lon="05.734860"><ele>0.1</ele><time>2021-02-17T15:56:08Z</time><name>PT13541</name></trkpt>
<trkpt lat="53.448999" lon="05.734871"><ele>0.1</ele><time>2021-02-17T15:56:09Z</time><name>PT13542</name></trkpt>
<trkpt lat="53.448999" lon="05.734880"><ele>0.1</ele><time>2021-02-17T15:56:10Z</time><name>PT13543</name></trkpt>
<trkpt lat="53.448998" lon="05.734891"><ele>0.1</ele><time>2021-02-17T15:56:11Z</time><name>PT13544</name></trkpt>
<trkpt lat="53.448998" lon="05.734904"><ele>0.3</ele><time>2021-02-17T15:56:12Z</time><name>PT13545</name></trkpt>
<trkpt lat="53.449000" lon="05.734915"><ele>0.3</ele><time>2021-02-17T15:56:13Z</time><name>PT13546</name></trkpt>
<trkpt lat="53.449003" lon="05.734922"><ele>0.4</ele><time>2021-02-17T15:56:14Z</time><name>PT13547</name></trkpt>
<trkpt lat="53.449005" lon="05.734933"><ele>0.4</ele><time>2021-02-17T15:56:15Z</time><name>PT13548</name></trkpt>
<trkpt lat="53.449006" lon="05.734948"><ele>0.3</ele><time>2021-02-17T15:56:16Z</time><name>PT13549</name></trkpt>
<trkpt lat="53.449006" lon="05.734963"><ele>0.3</ele><time>2021-02-17T15:56:17Z</time><name>PT13550</name></trkpt>
<trkpt lat="53.449006" lon="05.734975"><ele>0.3</ele><time>2021-02-17T15:56:18Z</time><name>PT13551</name></trkpt>
<trkpt lat="53.449008" lon="05.734988"><ele>0.3</ele><time>2021-02-17T15:56:19Z</time><name>PT13552</name></trkpt>
<trkpt lat="53.449009" lon="05.735001"><ele>0.3</ele><time>2021-02-17T15:56:20Z</time><name>PT13553</name></trkpt>
<trkpt lat="53.449008" lon="05.735013"><ele>0.3</ele><time>2021-02-17T15:56:21Z</time><name>PT13554</name></trkpt>
<trkpt lat="53.449008" lon="05.735027"><ele>0.2</ele><time>2021-02-17T15:56:22Z</time><name>PT13555</name></trkpt>
<trkpt lat="53.449010" lon="05.735045"><ele>0</ele><time>2021-02-17T15:56:23Z</time><name>PT13556</name></trkpt>
<trkpt lat="53.449011" lon="05.735060"><ele>0.1</ele><time>2021-02-17T15:56:24Z</time><name>PT13557</name></trkpt>
<trkpt lat="53.449014" lon="05.735070"><ele>0.2</ele><time>2021-02-17T15:56:25Z</time><name>PT13558</name></trkpt>
<trkpt lat="53.449016" lon="05.735082"><ele>0.2</ele><time>2021-02-17T15:56:26Z</time><name>PT13559</name></trkpt>
<trkpt lat="53.449019" lon="05.735093"><ele>0.2</ele><time>2021-02-17T15:56:27Z</time><name>PT13560</name></trkpt>
<trkpt lat="53.449020" lon="05.735105"><ele>0.3</ele><time>2021-02-17T15:56:28Z</time><name>PT13561</name></trkpt>
<trkpt lat="53.449020" lon="05.735117"><ele>0.2</ele><time>2021-02-17T15:56:29Z</time><name>PT13562</name></trkpt>
<trkpt lat="53.449022" lon="05.735127"><ele>0.3</ele><time>2021-02-17T15:56:30Z</time><name>PT13563</name></trkpt>
<trkpt lat="53.449025" lon="05.735137"><ele>0.4</ele><time>2021-02-17T15:56:31Z</time><name>PT13564</name></trkpt>
<trkpt lat="53.449025" lon="05.735141"><ele>0.5</ele><time>2021-02-17T15:56:32Z</time><name>PT13565</name></trkpt>
<trkpt lat="53.449026" lon="05.735144"><ele>0.6</ele><time>2021-02-17T15:56:33Z</time><name>PT13566</name></trkpt>
<trkpt lat="53.449027" lon="05.735151"><ele>0.7</ele><time>2021-02-17T15:56:34Z</time><name>PT13567</name></trkpt>
<trkpt lat="53.449028" lon="05.735163"><ele>0.8</ele><time>2021-02-17T15:56:35Z</time><name>PT13568</name></trkpt>
<trkpt lat="53.449028" lon="05.735174"><ele>0.8</ele><time>2021-02-17T15:56:36Z</time><name>PT13569</name></trkpt>
<trkpt lat="53.449027" lon="05.735185"><ele>0.7</ele><time>2021-02-17T15:56:37Z</time><name>PT13570</name></trkpt>
<trkpt lat="53.449028" lon="05.735195"><ele>0.5</ele><time>2021-02-17T15:56:38Z</time><name>PT13571</name></trkpt>
<trkpt lat="53.449028" lon="05.735209"><ele>0.3</ele><time>2021-02-17T15:56:39Z</time><name>PT13572</name></trkpt>
<trkpt lat="53.449028" lon="05.735223"><ele>0.3</ele><time>2021-02-17T15:56:40Z</time><name>PT13573</name></trkpt>
<trkpt lat="53.449028" lon="05.735235"><ele>0.3</ele><time>2021-02-17T15:56:41Z</time><name>PT13574</name></trkpt>
<trkpt lat="53.449031" lon="05.735243"><ele>0.4</ele><time>2021-02-17T15:56:42Z</time><name>PT13575</name></trkpt>
<trkpt lat="53.449031" lon="05.735260"><ele>0.3</ele><time>2021-02-17T15:56:43Z</time><name>PT13576</name></trkpt>
<trkpt lat="53.449031" lon="05.735274"><ele>0.1</ele><time>2021-02-17T15:56:44Z</time><name>PT13577</name></trkpt>
<trkpt lat="53.449031" lon="05.735284"><ele>0.2</ele><time>2021-02-17T15:56:45Z</time><name>PT13578</name></trkpt>
<trkpt lat="53.449031" lon="05.735294"><ele>0.3</ele><time>2021-02-17T15:56:46Z</time><name>PT13579</name></trkpt>
<trkpt lat="53.449032" lon="05.735298"><ele>0.3</ele><time>2021-02-17T15:56:47Z</time><name>PT13580</name></trkpt>
<trkpt lat="53.449032" lon="05.735301"><ele>0.3</ele><time>2021-02-17T15:56:48Z</time><name>PT13581</name></trkpt>
<trkpt lat="53.449033" lon="05.735302"><ele>0.5</ele><time>2021-02-17T15:56:49Z</time><name>PT13582</name></trkpt>
<trkpt lat="53.449034" lon="05.735302"><ele>0.6</ele><time>2021-02-17T15:56:53Z</time><name>PT13583</name></trkpt>
<trkpt lat="53.449035" lon="05.735313"><ele>0.6</ele><time>2021-02-17T15:56:54Z</time><name>PT13584</name></trkpt>
<trkpt lat="53.449038" lon="05.735331"><ele>0.4</ele><time>2021-02-17T15:56:55Z</time><name>PT13585</name></trkpt>
<trkpt lat="53.449041" lon="05.735344"><ele>0.2</ele><time>2021-02-17T15:56:56Z</time><name>PT13586</name></trkpt>
<trkpt lat="53.449042" lon="05.735352"><ele>0.1</ele><time>2021-02-17T15:56:57Z</time><name>PT13587</name></trkpt>
<trkpt lat="53.449047" lon="05.735370"><ele>0</ele><time>2021-02-17T15:56:58Z</time><name>PT13588</name></trkpt>
<trkpt lat="53.449051" lon="05.735380"><ele>0.1</ele><time>2021-02-17T15:56:59Z</time><name>PT13589</name></trkpt>
<trkpt lat="53.449053" lon="05.735393"><ele>0</ele><time>2021-02-17T15:57:00Z</time><name>PT13590</name></trkpt>
<trkpt lat="53.449054" lon="05.735407"><ele>0.4</ele><time>2021-02-17T15:57:01Z</time><name>PT13591</name></trkpt>
<trkpt lat="53.449053" lon="05.735419"><ele>0.3</ele><time>2021-02-17T15:57:02Z</time><name>PT13592</name></trkpt>
<trkpt lat="53.449053" lon="05.735422"><ele>0.3</ele><time>2021-02-17T15:57:03Z</time><name>PT13593</name></trkpt>
<trkpt lat="53.449054" lon="05.735423"><ele>0.4</ele><time>2021-02-17T15:57:04Z</time><name>PT13594</name></trkpt>
<trkpt lat="53.449054" lon="05.735434"><ele>0.7</ele><time>2021-02-17T15:57:05Z</time><name>PT13595</name></trkpt>
<trkpt lat="53.449057" lon="05.735446"><ele>0.9</ele><time>2021-02-17T15:57:06Z</time><name>PT13596</name></trkpt>
<trkpt lat="53.449061" lon="05.735457"><ele>1.3</ele><time>2021-02-17T15:57:07Z</time><name>PT13597</name></trkpt>
<trkpt lat="53.449064" lon="05.735465"><ele>1.3</ele><time>2021-02-17T15:57:08Z</time><name>PT13598</name></trkpt>
<trkpt lat="53.449065" lon="05.735476"><ele>1.3</ele><time>2021-02-17T15:57:09Z</time><name>PT13599</name></trkpt>
<trkpt lat="53.449067" lon="05.735489"><ele>1.2</ele><time>2021-02-17T15:57:10Z</time><name>PT13600</name></trkpt>
<trkpt lat="53.449068" lon="05.735501"><ele>1</ele><time>2021-02-17T15:57:11Z</time><name>PT13601</name></trkpt>
<trkpt lat="53.449070" lon="05.735513"><ele>0.9</ele><time>2021-02-17T15:57:12Z</time><name>PT13602</name></trkpt>
<trkpt lat="53.449073" lon="05.735526"><ele>1</ele><time>2021-02-17T15:57:13Z</time><name>PT13603</name></trkpt>
<trkpt lat="53.449074" lon="05.735541"><ele>1</ele><time>2021-02-17T15:57:14Z</time><name>PT13604</name></trkpt>
<trkpt lat="53.449075" lon="05.735553"><ele>0.9</ele><time>2021-02-17T15:57:15Z</time><name>PT13605</name></trkpt>
<trkpt lat="53.449074" lon="05.735564"><ele>0.8</ele><time>2021-02-17T15:57:16Z</time><name>PT13606</name></trkpt>
<trkpt lat="53.449074" lon="05.735578"><ele>0.7</ele><time>2021-02-17T15:57:17Z</time><name>PT13607</name></trkpt>
<trkpt lat="53.449072" lon="05.735592"><ele>0.8</ele><time>2021-02-17T15:57:18Z</time><name>PT13608</name></trkpt>
<trkpt lat="53.449072" lon="05.735607"><ele>0.5</ele><time>2021-02-17T15:57:19Z</time><name>PT13609</name></trkpt>
<trkpt lat="53.449075" lon="05.735622"><ele>0.7</ele><time>2021-02-17T15:57:20Z</time><name>PT13610</name></trkpt>
<trkpt lat="53.449076" lon="05.735634"><ele>0.8</ele><time>2021-02-17T15:57:21Z</time><name>PT13611</name></trkpt>
<trkpt lat="53.449076" lon="05.735648"><ele>0.6</ele><time>2021-02-17T15:57:22Z</time><name>PT13612</name></trkpt>
<trkpt lat="53.449076" lon="05.735658"><ele>0.8</ele><time>2021-02-17T15:57:23Z</time><name>PT13613</name></trkpt>
<trkpt lat="53.449076" lon="05.735662"><ele>0.8</ele><time>2021-02-17T15:57:24Z</time><name>PT13614</name></trkpt>
<trkpt lat="53.449077" lon="05.735663"><ele>0.6</ele><time>2021-02-17T15:57:25Z</time><name>PT13615</name></trkpt>
<trkpt lat="53.449077" lon="05.735664"><ele>0.8</ele><time>2021-02-17T15:57:26Z</time><name>PT13616</name></trkpt>
<trkpt lat="53.449076" lon="05.735667"><ele>1.1</ele><time>2021-02-17T15:57:30Z</time><name>PT13617</name></trkpt>
<trkpt lat="53.449077" lon="05.735683"><ele>1.4</ele><time>2021-02-17T15:57:31Z</time><name>PT13618</name></trkpt>
<trkpt lat="53.449078" lon="05.735699"><ele>1.5</ele><time>2021-02-17T15:57:32Z</time><name>PT13619</name></trkpt>
<trkpt lat="53.449080" lon="05.735715"><ele>1.4</ele><time>2021-02-17T15:57:33Z</time><name>PT13620</name></trkpt>
<trkpt lat="53.449081" lon="05.735728"><ele>1.3</ele><time>2021-02-17T15:57:34Z</time><name>PT13621</name></trkpt>
<trkpt lat="53.449081" lon="05.735741"><ele>1.3</ele><time>2021-02-17T15:57:35Z</time><name>PT13622</name></trkpt>
<trkpt lat="53.449083" lon="05.735755"><ele>1.4</ele><time>2021-02-17T15:57:36Z</time><name>PT13623</name></trkpt>
<trkpt lat="53.449085" lon="05.735768"><ele>1.3</ele><time>2021-02-17T15:57:37Z</time><name>PT13624</name></trkpt>
<trkpt lat="53.449089" lon="05.735778"><ele>1.3</ele><time>2021-02-17T15:57:38Z</time><name>PT13625</name></trkpt>
<trkpt lat="53.449090" lon="05.735791"><ele>1.1</ele><time>2021-02-17T15:57:39Z</time><name>PT13626</name></trkpt>
<trkpt lat="53.449091" lon="05.735801"><ele>1.3</ele><time>2021-02-17T15:57:40Z</time><name>PT13627</name></trkpt>
<trkpt lat="53.449092" lon="05.735815"><ele>1.3</ele><time>2021-02-17T15:57:41Z</time><name>PT13628</name></trkpt>
<trkpt lat="53.449095" lon="05.735828"><ele>1.4</ele><time>2021-02-17T15:57:42Z</time><name>PT13629</name></trkpt>
<trkpt lat="53.449098" lon="05.735838"><ele>1.4</ele><time>2021-02-17T15:57:43Z</time><name>PT13630</name></trkpt>
<trkpt lat="53.449099" lon="05.735846"><ele>1.5</ele><time>2021-02-17T15:57:44Z</time><name>PT13631</name></trkpt>
<trkpt lat="53.449099" lon="05.735851"><ele>1.3</ele><time>2021-02-17T15:57:45Z</time><name>PT13632</name></trkpt>
<trkpt lat="53.449098" lon="05.735850"><ele>1.4</ele><time>2021-02-17T15:57:46Z</time><name>PT13633</name></trkpt>
<trkpt lat="53.449098" lon="05.735850"><ele>1.5</ele><time>2021-02-17T15:57:47Z</time><name>PT13634</name></trkpt>
<trkpt lat="53.449096" lon="05.735856"><ele>1.8</ele><time>2021-02-17T15:57:53Z</time><name>PT13635</name></trkpt>
<trkpt lat="53.449098" lon="05.735866"><ele>1.9</ele><time>2021-02-17T15:57:54Z</time><name>PT13636</name></trkpt>
<trkpt lat="53.449104" lon="05.735873"><ele>2</ele><time>2021-02-17T15:57:55Z</time><name>PT13637</name></trkpt>
<trkpt lat="53.449108" lon="05.735880"><ele>2</ele><time>2021-02-17T15:57:56Z</time><name>PT13638</name></trkpt>
<trkpt lat="53.449111" lon="05.735890"><ele>2.1</ele><time>2021-02-17T15:57:57Z</time><name>PT13639</name></trkpt>
<trkpt lat="53.449114" lon="05.735901"><ele>2</ele><time>2021-02-17T15:57:58Z</time><name>PT13640</name></trkpt>
<trkpt lat="53.449117" lon="05.735906"><ele>2.1</ele><time>2021-02-17T15:57:59Z</time><name>PT13641</name></trkpt>
<trkpt lat="53.449120" lon="05.735918"><ele>2.2</ele><time>2021-02-17T15:58:00Z</time><name>PT13642</name></trkpt>
<trkpt lat="53.449126" lon="05.735928"><ele>1.8</ele><time>2021-02-17T15:58:01Z</time><name>PT13643</name></trkpt>
<trkpt lat="53.449128" lon="05.735940"><ele>2</ele><time>2021-02-17T15:58:02Z</time><name>PT13644</name></trkpt>
<trkpt lat="53.449131" lon="05.735951"><ele>2</ele><time>2021-02-17T15:58:03Z</time><name>PT13645</name></trkpt>
<trkpt lat="53.449134" lon="05.735955"><ele>1.9</ele><time>2021-02-17T15:58:04Z</time><name>PT13646</name></trkpt>
<trkpt lat="53.449136" lon="05.735967"><ele>2.3</ele><time>2021-02-17T15:58:05Z</time><name>PT13647</name></trkpt>
<trkpt lat="53.449138" lon="05.735968"><ele>2.3</ele><time>2021-02-17T15:58:06Z</time><name>PT13648</name></trkpt>
<trkpt lat="53.449138" lon="05.735967"><ele>2.4</ele><time>2021-02-17T15:58:07Z</time><name>PT13649</name></trkpt>
<trkpt lat="53.449139" lon="05.735967"><ele>2.5</ele><time>2021-02-17T15:58:08Z</time><name>PT13650</name></trkpt>
<trkpt lat="53.449141" lon="05.735987"><ele>2.3</ele><time>2021-02-17T15:58:18Z</time><name>PT13651</name></trkpt>
<trkpt lat="53.449142" lon="05.736018"><ele>2.3</ele><time>2021-02-17T15:58:19Z</time><name>PT13652</name></trkpt>
<trkpt lat="53.449149" lon="05.736037"><ele>2.5</ele><time>2021-02-17T15:58:20Z</time><name>PT13653</name></trkpt>
<trkpt lat="53.449158" lon="05.736055"><ele>2.7</ele><time>2021-02-17T15:58:21Z</time><name>PT13654</name></trkpt>
<trkpt lat="53.449167" lon="05.736068"><ele>2.5</ele><time>2021-02-17T15:58:22Z</time><name>PT13655</name></trkpt>
<trkpt lat="53.449175" lon="05.736081"><ele>2</ele><time>2021-02-17T15:58:23Z</time><name>PT13656</name></trkpt>
<trkpt lat="53.449179" lon="05.736091"><ele>1.8</ele><time>2021-02-17T15:58:24Z</time><name>PT13657</name></trkpt>
<trkpt lat="53.449185" lon="05.736104"><ele>1.5</ele><time>2021-02-17T15:58:25Z</time><name>PT13658</name></trkpt>
<trkpt lat="53.449187" lon="05.736119"><ele>2.4</ele><time>2021-02-17T15:58:26Z</time><name>PT13659</name></trkpt>
<trkpt lat="53.449192" lon="05.736128"><ele>2.8</ele><time>2021-02-17T15:58:27Z</time><name>PT13660</name></trkpt>
<trkpt lat="53.449199" lon="05.736139"><ele>3.3</ele><time>2021-02-17T15:58:28Z</time><name>PT13661</name></trkpt>
<trkpt lat="53.449201" lon="05.736148"><ele>3.5</ele><time>2021-02-17T15:58:29Z</time><name>PT13662</name></trkpt>
<trkpt lat="53.449207" lon="05.736157"><ele>3.1</ele><time>2021-02-17T15:58:30Z</time><name>PT13663</name></trkpt>
<trkpt lat="53.449213" lon="05.736170"><ele>2.5</ele><time>2021-02-17T15:58:31Z</time><name>PT13664</name></trkpt>
<trkpt lat="53.449216" lon="05.736184"><ele>2.3</ele><time>2021-02-17T15:58:32Z</time><name>PT13665</name></trkpt>
<trkpt lat="53.449221" lon="05.736198"><ele>2.3</ele><time>2021-02-17T15:58:33Z</time><name>PT13666</name></trkpt>
<trkpt lat="53.449227" lon="05.736209"><ele>2.6</ele><time>2021-02-17T15:58:34Z</time><name>PT13667</name></trkpt>
<trkpt lat="53.449232" lon="05.736221"><ele>2.7</ele><time>2021-02-17T15:58:35Z</time><name>PT13668</name></trkpt>
<trkpt lat="53.449237" lon="05.736233"><ele>2.8</ele><time>2021-02-17T15:58:36Z</time><name>PT13669</name></trkpt>
<trkpt lat="53.449243" lon="05.736245"><ele>2.9</ele><time>2021-02-17T15:58:37Z</time><name>PT13670</name></trkpt>
<trkpt lat="53.449249" lon="05.736254"><ele>2.9</ele><time>2021-02-17T15:58:38Z</time><name>PT13671</name></trkpt>
<trkpt lat="53.449254" lon="05.736266"><ele>2.8</ele><time>2021-02-17T15:58:39Z</time><name>PT13672</name></trkpt>
<trkpt lat="53.449258" lon="05.736277"><ele>2.8</ele><time>2021-02-17T15:58:40Z</time><name>PT13673</name></trkpt>
<trkpt lat="53.449263" lon="05.736291"><ele>2.8</ele><time>2021-02-17T15:58:41Z</time><name>PT13674</name></trkpt>
<trkpt lat="53.449268" lon="05.736302"><ele>2.9</ele><time>2021-02-17T15:58:42Z</time><name>PT13675</name></trkpt>
<trkpt lat="53.449271" lon="05.736311"><ele>3.2</ele><time>2021-02-17T15:58:43Z</time><name>PT13676</name></trkpt>
<trkpt lat="53.449277" lon="05.736323"><ele>3</ele><time>2021-02-17T15:58:44Z</time><name>PT13677</name></trkpt>
<trkpt lat="53.449283" lon="05.736333"><ele>2.9</ele><time>2021-02-17T15:58:45Z</time><name>PT13678</name></trkpt>
<trkpt lat="53.449290" lon="05.736346"><ele>2.8</ele><time>2021-02-17T15:58:46Z</time><name>PT13679</name></trkpt>
<trkpt lat="53.449295" lon="05.736357"><ele>2.6</ele><time>2021-02-17T15:58:47Z</time><name>PT13680</name></trkpt>
<trkpt lat="53.449302" lon="05.736369"><ele>2.7</ele><time>2021-02-17T15:58:48Z</time><name>PT13681</name></trkpt>
<trkpt lat="53.449307" lon="05.736378"><ele>2.8</ele><time>2021-02-17T15:58:49Z</time><name>PT13682</name></trkpt>
<trkpt lat="53.449312" lon="05.736389"><ele>2.7</ele><time>2021-02-17T15:58:50Z</time><name>PT13683</name></trkpt>
<trkpt lat="53.449317" lon="05.736399"><ele>2.7</ele><time>2021-02-17T15:58:51Z</time><name>PT13684</name></trkpt>
<trkpt lat="53.449320" lon="05.736411"><ele>2.7</ele><time>2021-02-17T15:58:52Z</time><name>PT13685</name></trkpt>
<trkpt lat="53.449324" lon="05.736419"><ele>2.6</ele><time>2021-02-17T15:58:53Z</time><name>PT13686</name></trkpt>
<trkpt lat="53.449329" lon="05.736425"><ele>2.5</ele><time>2021-02-17T15:58:54Z</time><name>PT13687</name></trkpt>
<trkpt lat="53.449333" lon="05.736434"><ele>2.7</ele><time>2021-02-17T15:58:55Z</time><name>PT13688</name></trkpt>
<trkpt lat="53.449337" lon="05.736441"><ele>2.5</ele><time>2021-02-17T15:58:56Z</time><name>PT13689</name></trkpt>
<trkpt lat="53.449341" lon="05.736445"><ele>2.7</ele><time>2021-02-17T15:58:57Z</time><name>PT13690</name></trkpt>
<trkpt lat="53.449345" lon="05.736448"><ele>2.5</ele><time>2021-02-17T15:58:58Z</time><name>PT13691</name></trkpt>
<trkpt lat="53.449348" lon="05.736453"><ele>2.4</ele><time>2021-02-17T15:58:59Z</time><name>PT13692</name></trkpt>
<trkpt lat="53.449348" lon="05.736455"><ele>2.4</ele><time>2021-02-17T15:59:00Z</time><name>PT13693</name></trkpt>
<trkpt lat="53.449347" lon="05.736458"><ele>2.9</ele><time>2021-02-17T15:59:24Z</time><name>PT13694</name></trkpt>
<trkpt lat="53.449353" lon="05.736469"><ele>2.9</ele><time>2021-02-17T15:59:25Z</time><name>PT13695</name></trkpt>
<trkpt lat="53.449362" lon="05.736479"><ele>3</ele><time>2021-02-17T15:59:26Z</time><name>PT13696</name></trkpt>
<trkpt lat="53.449371" lon="05.736487"><ele>3.2</ele><time>2021-02-17T15:59:27Z</time><name>PT13697</name></trkpt>
<trkpt lat="53.449376" lon="05.736499"><ele>3</ele><time>2021-02-17T15:59:28Z</time><name>PT13698</name></trkpt>
<trkpt lat="53.449383" lon="05.736509"><ele>2.8</ele><time>2021-02-17T15:59:29Z</time><name>PT13699</name></trkpt>
<trkpt lat="53.449391" lon="05.736518"><ele>2.8</ele><time>2021-02-17T15:59:30Z</time><name>PT13700</name></trkpt>
<trkpt lat="53.449399" lon="05.736527"><ele>2.8</ele><time>2021-02-17T15:59:31Z</time><name>PT13701</name></trkpt>
<trkpt lat="53.449407" lon="05.736533"><ele>2.6</ele><time>2021-02-17T15:59:32Z</time><name>PT13702</name></trkpt>
<trkpt lat="53.449414" lon="05.736538"><ele>2.3</ele><time>2021-02-17T15:59:33Z</time><name>PT13703</name></trkpt>
<trkpt lat="53.449420" lon="05.736547"><ele>2.5</ele><time>2021-02-17T15:59:34Z</time><name>PT13704</name></trkpt>
<trkpt lat="53.449425" lon="05.736553"><ele>2.4</ele><time>2021-02-17T15:59:35Z</time><name>PT13705</name></trkpt>
<trkpt lat="53.449429" lon="05.736562"><ele>2.5</ele><time>2021-02-17T15:59:36Z</time><name>PT13706</name></trkpt>
<trkpt lat="53.449436" lon="05.736574"><ele>2.8</ele><time>2021-02-17T15:59:37Z</time><name>PT13707</name></trkpt>
<trkpt lat="53.449442" lon="05.736586"><ele>2.8</ele><time>2021-02-17T15:59:38Z</time><name>PT13708</name></trkpt>
<trkpt lat="53.449447" lon="05.736595"><ele>2.9</ele><time>2021-02-17T15:59:39Z</time><name>PT13709</name></trkpt>
<trkpt lat="53.449452" lon="05.736605"><ele>3</ele><time>2021-02-17T15:59:40Z</time><name>PT13710</name></trkpt>
<trkpt lat="53.449458" lon="05.736615"><ele>3</ele><time>2021-02-17T15:59:41Z</time><name>PT13711</name></trkpt>
<trkpt lat="53.449462" lon="05.736626"><ele>3</ele><time>2021-02-17T15:59:42Z</time><name>PT13712</name></trkpt>
<trkpt lat="53.449468" lon="05.736638"><ele>2.5</ele><time>2021-02-17T15:59:43Z</time><name>PT13713</name></trkpt>
<trkpt lat="53.449472" lon="05.736651"><ele>2.2</ele><time>2021-02-17T15:59:44Z</time><name>PT13714</name></trkpt>
<trkpt lat="53.449478" lon="05.736668"><ele>2.3</ele><time>2021-02-17T15:59:45Z</time><name>PT13715</name></trkpt>
<trkpt lat="53.449485" lon="05.736682"><ele>2.4</ele><time>2021-02-17T15:59:46Z</time><name>PT13716</name></trkpt>
<trkpt lat="53.449493" lon="05.736694"><ele>2.8</ele><time>2021-02-17T15:59:47Z</time><name>PT13717</name></trkpt>
<trkpt lat="53.449496" lon="05.736709"><ele>3.2</ele><time>2021-02-17T15:59:48Z</time><name>PT13718</name></trkpt>
<trkpt lat="53.449499" lon="05.736725"><ele>2.9</ele><time>2021-02-17T15:59:49Z</time><name>PT13719</name></trkpt>
<trkpt lat="53.449502" lon="05.736741"><ele>2.7</ele><time>2021-02-17T15:59:50Z</time><name>PT13720</name></trkpt>
<trkpt lat="53.449506" lon="05.736755"><ele>2.6</ele><time>2021-02-17T15:59:51Z</time><name>PT13721</name></trkpt>
<trkpt lat="53.449511" lon="05.736773"><ele>2.3</ele><time>2021-02-17T15:59:52Z</time><name>PT13722</name></trkpt>
<trkpt lat="53.449516" lon="05.736789"><ele>2.3</ele><time>2021-02-17T15:59:53Z</time><name>PT13723</name></trkpt>
<trkpt lat="53.449522" lon="05.736805"><ele>2.4</ele><time>2021-02-17T15:59:54Z</time><name>PT13724</name></trkpt>
<trkpt lat="53.449527" lon="05.736822"><ele>2.3</ele><time>2021-02-17T15:59:55Z</time><name>PT13725</name></trkpt>
<trkpt lat="53.449530" lon="05.736840"><ele>2.4</ele><time>2021-02-17T15:59:56Z</time><name>PT13726</name></trkpt>
<trkpt lat="53.449533" lon="05.736857"><ele>2.4</ele><time>2021-02-17T15:59:57Z</time><name>PT13727</name></trkpt>
<trkpt lat="53.449537" lon="05.736873"><ele>2.3</ele><time>2021-02-17T15:59:58Z</time><name>PT13728</name></trkpt>
<trkpt lat="53.449541" lon="05.736890"><ele>2.3</ele><time>2021-02-17T15:59:59Z</time><name>PT13729</name></trkpt>
<trkpt lat="53.449545" lon="05.736907"><ele>2.3</ele><time>2021-02-17T16:00:00Z</time><name>PT13730</name></trkpt>
<trkpt lat="53.449549" lon="05.736923"><ele>2.3</ele><time>2021-02-17T16:00:01Z</time><name>PT13731</name></trkpt>
<trkpt lat="53.449551" lon="05.736936"><ele>1.9</ele><time>2021-02-17T16:00:02Z</time><name>PT13732</name></trkpt>
<trkpt lat="53.449552" lon="05.736949"><ele>2</ele><time>2021-02-17T16:00:03Z</time><name>PT13733</name></trkpt>
<trkpt lat="53.449554" lon="05.736967"><ele>1.9</ele><time>2021-02-17T16:00:04Z</time><name>PT13734</name></trkpt>
<trkpt lat="53.449555" lon="05.736984"><ele>2</ele><time>2021-02-17T16:00:05Z</time><name>PT13735</name></trkpt>
<trkpt lat="53.449556" lon="05.737000"><ele>2.2</ele><time>2021-02-17T16:00:06Z</time><name>PT13736</name></trkpt>
<trkpt lat="53.449558" lon="05.737012"><ele>2.2</ele><time>2021-02-17T16:00:07Z</time><name>PT13737</name></trkpt>
<trkpt lat="53.449563" lon="05.737023"><ele>2.1</ele><time>2021-02-17T16:00:08Z</time><name>PT13738</name></trkpt>
<trkpt lat="53.449569" lon="05.737039"><ele>2</ele><time>2021-02-17T16:00:09Z</time><name>PT13739</name></trkpt>
<trkpt lat="53.449574" lon="05.737052"><ele>2</ele><time>2021-02-17T16:00:10Z</time><name>PT13740</name></trkpt>
<trkpt lat="53.449578" lon="05.737067"><ele>2.3</ele><time>2021-02-17T16:00:11Z</time><name>PT13741</name></trkpt>
<trkpt lat="53.449583" lon="05.737083"><ele>2.5</ele><time>2021-02-17T16:00:12Z</time><name>PT13742</name></trkpt>
<trkpt lat="53.449589" lon="05.737099"><ele>2.6</ele><time>2021-02-17T16:00:13Z</time><name>PT13743</name></trkpt>
<trkpt lat="53.449594" lon="05.737114"><ele>2.7</ele><time>2021-02-17T16:00:14Z</time><name>PT13744</name></trkpt>
<trkpt lat="53.449600" lon="05.737130"><ele>2.5</ele><time>2021-02-17T16:00:15Z</time><name>PT13745</name></trkpt>
<trkpt lat="53.449606" lon="05.737143"><ele>2.3</ele><time>2021-02-17T16:00:16Z</time><name>PT13746</name></trkpt>
<trkpt lat="53.449612" lon="05.737156"><ele>2.3</ele><time>2021-02-17T16:00:17Z</time><name>PT13747</name></trkpt>
<trkpt lat="53.449619" lon="05.737169"><ele>2.2</ele><time>2021-02-17T16:00:18Z</time><name>PT13748</name></trkpt>
<trkpt lat="53.449627" lon="05.737181"><ele>2.1</ele><time>2021-02-17T16:00:19Z</time><name>PT13749</name></trkpt>
<trkpt lat="53.449633" lon="05.737195"><ele>2</ele><time>2021-02-17T16:00:20Z</time><name>PT13750</name></trkpt>
<trkpt lat="53.449640" lon="05.737209"><ele>1.9</ele><time>2021-02-17T16:00:21Z</time><name>PT13751</name></trkpt>
<trkpt lat="53.449645" lon="05.737223"><ele>2</ele><time>2021-02-17T16:00:22Z</time><name>PT13752</name></trkpt>
<trkpt lat="53.449650" lon="05.737241"><ele>1.8</ele><time>2021-02-17T16:00:23Z</time><name>PT13753</name></trkpt>
<trkpt lat="53.449655" lon="05.737256"><ele>1.8</ele><time>2021-02-17T16:00:24Z</time><name>PT13754</name></trkpt>
<trkpt lat="53.449659" lon="05.737272"><ele>1.8</ele><time>2021-02-17T16:00:25Z</time><name>PT13755</name></trkpt>
<trkpt lat="53.449663" lon="05.737286"><ele>1.8</ele><time>2021-02-17T16:00:26Z</time><name>PT13756</name></trkpt>
<trkpt lat="53.449666" lon="05.737297"><ele>1.8</ele><time>2021-02-17T16:00:27Z</time><name>PT13757</name></trkpt>
<trkpt lat="53.449671" lon="05.737308"><ele>1.9</ele><time>2021-02-17T16:00:28Z</time><name>PT13758</name></trkpt>
<trkpt lat="53.449677" lon="05.737320"><ele>1.8</ele><time>2021-02-17T16:00:29Z</time><name>PT13759</name></trkpt>
<trkpt lat="53.449683" lon="05.737331"><ele>1.6</ele><time>2021-02-17T16:00:30Z</time><name>PT13760</name></trkpt>
<trkpt lat="53.449688" lon="05.737344"><ele>1.5</ele><time>2021-02-17T16:00:31Z</time><name>PT13761</name></trkpt>
<trkpt lat="53.449695" lon="05.737361"><ele>1.4</ele><time>2021-02-17T16:00:32Z</time><name>PT13762</name></trkpt>
<trkpt lat="53.449700" lon="05.737378"><ele>1.3</ele><time>2021-02-17T16:00:33Z</time><name>PT13763</name></trkpt>
<trkpt lat="53.449703" lon="05.737397"><ele>1.3</ele><time>2021-02-17T16:00:34Z</time><name>PT13764</name></trkpt>
<trkpt lat="53.449705" lon="05.737414"><ele>1.2</ele><time>2021-02-17T16:00:35Z</time><name>PT13765</name></trkpt>
<trkpt lat="53.449708" lon="05.737433"><ele>0.9</ele><time>2021-02-17T16:00:36Z</time><name>PT13766</name></trkpt>
<trkpt lat="53.449709" lon="05.737451"><ele>0.9</ele><time>2021-02-17T16:00:37Z</time><name>PT13767</name></trkpt>
<trkpt lat="53.449712" lon="05.737464"><ele>0.9</ele><time>2021-02-17T16:00:38Z</time><name>PT13768</name></trkpt>
<trkpt lat="53.449717" lon="05.737480"><ele>0.8</ele><time>2021-02-17T16:00:39Z</time><name>PT13769</name></trkpt>
<trkpt lat="53.449723" lon="05.737494"><ele>0.9</ele><time>2021-02-17T16:00:40Z</time><name>PT13770</name></trkpt>
<trkpt lat="53.449727" lon="05.737509"><ele>0.8</ele><time>2021-02-17T16:00:41Z</time><name>PT13771</name></trkpt>
<trkpt lat="53.449728" lon="05.737525"><ele>0.9</ele><time>2021-02-17T16:00:42Z</time><name>PT13772</name></trkpt>
<trkpt lat="53.449730" lon="05.737541"><ele>0.9</ele><time>2021-02-17T16:00:43Z</time><name>PT13773</name></trkpt>
<trkpt lat="53.449733" lon="05.737557"><ele>0.8</ele><time>2021-02-17T16:00:44Z</time><name>PT13774</name></trkpt>
<trkpt lat="53.449735" lon="05.737571"><ele>0.7</ele><time>2021-02-17T16:00:45Z</time><name>PT13775</name></trkpt>
<trkpt lat="53.449738" lon="05.737586"><ele>0.5</ele><time>2021-02-17T16:00:46Z</time><name>PT13776</name></trkpt>
<trkpt lat="53.449741" lon="05.737601"><ele>0.5</ele><time>2021-02-17T16:00:47Z</time><name>PT13777</name></trkpt>
<trkpt lat="53.449742" lon="05.737615"><ele>0.6</ele><time>2021-02-17T16:00:48Z</time><name>PT13778</name></trkpt>
<trkpt lat="53.449740" lon="05.737631"><ele>0.6</ele><time>2021-02-17T16:00:49Z</time><name>PT13779</name></trkpt>
<trkpt lat="53.449738" lon="05.737649"><ele>0.5</ele><time>2021-02-17T16:00:50Z</time><name>PT13780</name></trkpt>
<trkpt lat="53.449737" lon="05.737665"><ele>0.6</ele><time>2021-02-17T16:00:51Z</time><name>PT13781</name></trkpt>
<trkpt lat="53.449734" lon="05.737680"><ele>0.3</ele><time>2021-02-17T16:00:52Z</time><name>PT13782</name></trkpt>
<trkpt lat="53.449731" lon="05.737692"><ele>0.2</ele><time>2021-02-17T16:00:53Z</time><name>PT13783</name></trkpt>
<trkpt lat="53.449730" lon="05.737707"><ele>0.2</ele><time>2021-02-17T16:00:54Z</time><name>PT13784</name></trkpt>
<trkpt lat="53.449729" lon="05.737722"><ele>0.2</ele><time>2021-02-17T16:00:55Z</time><name>PT13785</name></trkpt>
<trkpt lat="53.449728" lon="05.737741"><ele>0.3</ele><time>2021-02-17T16:00:56Z</time><name>PT13786</name></trkpt>
<trkpt lat="53.449727" lon="05.737758"><ele>0.3</ele><time>2021-02-17T16:00:57Z</time><name>PT13787</name></trkpt>
<trkpt lat="53.449726" lon="05.737775"><ele>0.4</ele><time>2021-02-17T16:00:58Z</time><name>PT13788</name></trkpt>
<trkpt lat="53.449725" lon="05.737793"><ele>0.3</ele><time>2021-02-17T16:00:59Z</time><name>PT13789</name></trkpt>
<trkpt lat="53.449725" lon="05.737811"><ele>0.3</ele><time>2021-02-17T16:01:00Z</time><name>PT13790</name></trkpt>
<trkpt lat="53.449725" lon="05.737829"><ele>0.4</ele><time>2021-02-17T16:01:01Z</time><name>PT13791</name></trkpt>
<trkpt lat="53.449724" lon="05.737844"><ele>0.5</ele><time>2021-02-17T16:01:02Z</time><name>PT13792</name></trkpt>
<trkpt lat="53.449720" lon="05.737861"><ele>0.5</ele><time>2021-02-17T16:01:03Z</time><name>PT13793</name></trkpt>
<trkpt lat="53.449717" lon="05.737876"><ele>0.6</ele><time>2021-02-17T16:01:04Z</time><name>PT13794</name></trkpt>
<trkpt lat="53.449715" lon="05.737892"><ele>0.6</ele><time>2021-02-17T16:01:05Z</time><name>PT13795</name></trkpt>
<trkpt lat="53.449714" lon="05.737909"><ele>0.7</ele><time>2021-02-17T16:01:06Z</time><name>PT13796</name></trkpt>
<trkpt lat="53.449713" lon="05.737926"><ele>0.9</ele><time>2021-02-17T16:01:07Z</time><name>PT13797</name></trkpt>
<trkpt lat="53.449713" lon="05.737941"><ele>0.8</ele><time>2021-02-17T16:01:08Z</time><name>PT13798</name></trkpt>
<trkpt lat="53.449711" lon="05.737958"><ele>1.1</ele><time>2021-02-17T16:01:09Z</time><name>PT13799</name></trkpt>
<trkpt lat="53.449709" lon="05.737973"><ele>0.9</ele><time>2021-02-17T16:01:10Z</time><name>PT13800</name></trkpt>
<trkpt lat="53.449707" lon="05.737989"><ele>0.9</ele><time>2021-02-17T16:01:11Z</time><name>PT13801</name></trkpt>
<trkpt lat="53.449703" lon="05.738006"><ele>1</ele><time>2021-02-17T16:01:12Z</time><name>PT13802</name></trkpt>
<trkpt lat="53.449700" lon="05.738023"><ele>0.9</ele><time>2021-02-17T16:01:13Z</time><name>PT13803</name></trkpt>
<trkpt lat="53.449696" lon="05.738037"><ele>1.2</ele><time>2021-02-17T16:01:14Z</time><name>PT13804</name></trkpt>
<trkpt lat="53.449694" lon="05.738051"><ele>1.2</ele><time>2021-02-17T16:01:15Z</time><name>PT13805</name></trkpt>
<trkpt lat="53.449690" lon="05.738065"><ele>1.1</ele><time>2021-02-17T16:01:16Z</time><name>PT13806</name></trkpt>
<trkpt lat="53.449689" lon="05.738077"><ele>1.2</ele><time>2021-02-17T16:01:17Z</time><name>PT13807</name></trkpt>
<trkpt lat="53.449687" lon="05.738091"><ele>1.2</ele><time>2021-02-17T16:01:18Z</time><name>PT13808</name></trkpt>
<trkpt lat="53.449683" lon="05.738106"><ele>1.3</ele><time>2021-02-17T16:01:19Z</time><name>PT13809</name></trkpt>
<trkpt lat="53.449680" lon="05.738121"><ele>1.3</ele><time>2021-02-17T16:01:20Z</time><name>PT13810</name></trkpt>
<trkpt lat="53.449676" lon="05.738138"><ele>1.3</ele><time>2021-02-17T16:01:21Z</time><name>PT13811</name></trkpt>
<trkpt lat="53.449674" lon="05.738152"><ele>1.3</ele><time>2021-02-17T16:01:22Z</time><name>PT13812</name></trkpt>
<trkpt lat="53.449673" lon="05.738168"><ele>1.1</ele><time>2021-02-17T16:01:23Z</time><name>PT13813</name></trkpt>
<trkpt lat="53.449672" lon="05.738183"><ele>1.3</ele><time>2021-02-17T16:01:24Z</time><name>PT13814</name></trkpt>
<trkpt lat="53.449670" lon="05.738200"><ele>1.3</ele><time>2021-02-17T16:01:25Z</time><name>PT13815</name></trkpt>
<trkpt lat="53.449669" lon="05.738214"><ele>1.4</ele><time>2021-02-17T16:01:26Z</time><name>PT13816</name></trkpt>
<trkpt lat="53.449667" lon="05.738227"><ele>1.5</ele><time>2021-02-17T16:01:27Z</time><name>PT13817</name></trkpt>
<trkpt lat="53.449666" lon="05.738244"><ele>1.1</ele><time>2021-02-17T16:01:28Z</time><name>PT13818</name></trkpt>
<trkpt lat="53.449666" lon="05.738262"><ele>1.3</ele><time>2021-02-17T16:01:29Z</time><name>PT13819</name></trkpt>
<trkpt lat="53.449666" lon="05.738276"><ele>1.1</ele><time>2021-02-17T16:01:30Z</time><name>PT13820</name></trkpt>
<trkpt lat="53.449667" lon="05.738293"><ele>1.1</ele><time>2021-02-17T16:01:31Z</time><name>PT13821</name></trkpt>
<trkpt lat="53.449669" lon="05.738310"><ele>1.3</ele><time>2021-02-17T16:01:32Z</time><name>PT13822</name></trkpt>
<trkpt lat="53.449671" lon="05.738327"><ele>1.3</ele><time>2021-02-17T16:01:33Z</time><name>PT13823</name></trkpt>
<trkpt lat="53.449673" lon="05.738339"><ele>1.3</ele><time>2021-02-17T16:01:34Z</time><name>PT13824</name></trkpt>
<trkpt lat="53.449673" lon="05.738355"><ele>1.4</ele><time>2021-02-17T16:01:35Z</time><name>PT13825</name></trkpt>
<trkpt lat="53.449674" lon="05.738372"><ele>1.3</ele><time>2021-02-17T16:01:36Z</time><name>PT13826</name></trkpt>
<trkpt lat="53.449676" lon="05.738384"><ele>1.4</ele><time>2021-02-17T16:01:37Z</time><name>PT13827</name></trkpt>
<trkpt lat="53.449681" lon="05.738397"><ele>1.4</ele><time>2021-02-17T16:01:38Z</time><name>PT13828</name></trkpt>
<trkpt lat="53.449682" lon="05.738411"><ele>1.5</ele><time>2021-02-17T16:01:39Z</time><name>PT13829</name></trkpt>
<trkpt lat="53.449682" lon="05.738428"><ele>1.5</ele><time>2021-02-17T16:01:40Z</time><name>PT13830</name></trkpt>
<trkpt lat="53.449685" lon="05.738446"><ele>1.5</ele><time>2021-02-17T16:01:41Z</time><name>PT13831</name></trkpt>
<trkpt lat="53.449687" lon="05.738461"><ele>1.5</ele><time>2021-02-17T16:01:42Z</time><name>PT13832</name></trkpt>
<trkpt lat="53.449688" lon="05.738477"><ele>1.5</ele><time>2021-02-17T16:01:43Z</time><name>PT13833</name></trkpt>
<trkpt lat="53.449689" lon="05.738493"><ele>1.7</ele><time>2021-02-17T16:01:44Z</time><name>PT13834</name></trkpt>
<trkpt lat="53.449690" lon="05.738510"><ele>1.7</ele><time>2021-02-17T16:01:45Z</time><name>PT13835</name></trkpt>
<trkpt lat="53.449692" lon="05.738527"><ele>1.7</ele><time>2021-02-17T16:01:46Z</time><name>PT13836</name></trkpt>
<trkpt lat="53.449695" lon="05.738543"><ele>1.8</ele><time>2021-02-17T16:01:47Z</time><name>PT13837</name></trkpt>
<trkpt lat="53.449699" lon="05.738557"><ele>1.6</ele><time>2021-02-17T16:01:48Z</time><name>PT13838</name></trkpt>
<trkpt lat="53.449702" lon="05.738572"><ele>1.6</ele><time>2021-02-17T16:01:49Z</time><name>PT13839</name></trkpt>
<trkpt lat="53.449705" lon="05.738583"><ele>1.5</ele><time>2021-02-17T16:01:50Z</time><name>PT13840</name></trkpt>
<trkpt lat="53.449709" lon="05.738596"><ele>1.4</ele><time>2021-02-17T16:01:51Z</time><name>PT13841</name></trkpt>
<trkpt lat="53.449709" lon="05.738616"><ele>1.4</ele><time>2021-02-17T16:01:52Z</time><name>PT13842</name></trkpt>
<trkpt lat="53.449711" lon="05.738630"><ele>1.3</ele><time>2021-02-17T16:01:53Z</time><name>PT13843</name></trkpt>
<trkpt lat="53.449714" lon="05.738644"><ele>1.3</ele><time>2021-02-17T16:01:54Z</time><name>PT13844</name></trkpt>
<trkpt lat="53.449718" lon="05.738659"><ele>1.4</ele><time>2021-02-17T16:01:55Z</time><name>PT13845</name></trkpt>
<trkpt lat="53.449724" lon="05.738672"><ele>1.4</ele><time>2021-02-17T16:01:56Z</time><name>PT13846</name></trkpt>
<trkpt lat="53.449729" lon="05.738685"><ele>1.5</ele><time>2021-02-17T16:01:57Z</time><name>PT13847</name></trkpt>
<trkpt lat="53.449732" lon="05.738699"><ele>1.5</ele><time>2021-02-17T16:01:58Z</time><name>PT13848</name></trkpt>
<trkpt lat="53.449734" lon="05.738713"><ele>1.6</ele><time>2021-02-17T16:01:59Z</time><name>PT13849</name></trkpt>
<trkpt lat="53.449737" lon="05.738731"><ele>1.4</ele><time>2021-02-17T16:02:00Z</time><name>PT13850</name></trkpt>
<trkpt lat="53.449740" lon="05.738747"><ele>1.3</ele><time>2021-02-17T16:02:01Z</time><name>PT13851</name></trkpt>
<trkpt lat="53.449745" lon="05.738762"><ele>1.3</ele><time>2021-02-17T16:02:02Z</time><name>PT13852</name></trkpt>
<trkpt lat="53.449751" lon="05.738776"><ele>1.3</ele><time>2021-02-17T16:02:03Z</time><name>PT13853</name></trkpt>
<trkpt lat="53.449755" lon="05.738791"><ele>1.3</ele><time>2021-02-17T16:02:04Z</time><name>PT13854</name></trkpt>
<trkpt lat="53.449761" lon="05.738807"><ele>1.3</ele><time>2021-02-17T16:02:05Z</time><name>PT13855</name></trkpt>
<trkpt lat="53.449764" lon="05.738822"><ele>1.2</ele><time>2021-02-17T16:02:06Z</time><name>PT13856</name></trkpt>
<trkpt lat="53.449767" lon="05.738838"><ele>1.1</ele><time>2021-02-17T16:02:07Z</time><name>PT13857</name></trkpt>
<trkpt lat="53.449769" lon="05.738854"><ele>1</ele><time>2021-02-17T16:02:08Z</time><name>PT13858</name></trkpt>
<trkpt lat="53.449770" lon="05.738871"><ele>1.3</ele><time>2021-02-17T16:02:09Z</time><name>PT13859</name></trkpt>
<trkpt lat="53.449773" lon="05.738886"><ele>1.3</ele><time>2021-02-17T16:02:10Z</time><name>PT13860</name></trkpt>
<trkpt lat="53.449774" lon="05.738901"><ele>1.4</ele><time>2021-02-17T16:02:11Z</time><name>PT13861</name></trkpt>
<trkpt lat="53.449774" lon="05.738918"><ele>1.5</ele><time>2021-02-17T16:02:12Z</time><name>PT13862</name></trkpt>
<trkpt lat="53.449774" lon="05.738934"><ele>1.6</ele><time>2021-02-17T16:02:13Z</time><name>PT13863</name></trkpt>
<trkpt lat="53.449772" lon="05.738951"><ele>1.6</ele><time>2021-02-17T16:02:14Z</time><name>PT13864</name></trkpt>
<trkpt lat="53.449771" lon="05.738968"><ele>1.4</ele><time>2021-02-17T16:02:15Z</time><name>PT13865</name></trkpt>
<trkpt lat="53.449768" lon="05.738982"><ele>1.7</ele><time>2021-02-17T16:02:16Z</time><name>PT13866</name></trkpt>
<trkpt lat="53.449768" lon="05.738997"><ele>1.5</ele><time>2021-02-17T16:02:17Z</time><name>PT13867</name></trkpt>
<trkpt lat="53.449769" lon="05.739015"><ele>1.4</ele><time>2021-02-17T16:02:18Z</time><name>PT13868</name></trkpt>
<trkpt lat="53.449770" lon="05.739031"><ele>1.1</ele><time>2021-02-17T16:02:19Z</time><name>PT13869</name></trkpt>
<trkpt lat="53.449770" lon="05.739045"><ele>1.1</ele><time>2021-02-17T16:02:20Z</time><name>PT13870</name></trkpt>
<trkpt lat="53.449770" lon="05.739060"><ele>1.3</ele><time>2021-02-17T16:02:21Z</time><name>PT13871</name></trkpt>
<trkpt lat="53.449770" lon="05.739075"><ele>1.3</ele><time>2021-02-17T16:02:22Z</time><name>PT13872</name></trkpt>
<trkpt lat="53.449772" lon="05.739087"><ele>1.5</ele><time>2021-02-17T16:02:23Z</time><name>PT13873</name></trkpt>
<trkpt lat="53.449775" lon="05.739101"><ele>1.5</ele><time>2021-02-17T16:02:24Z</time><name>PT13874</name></trkpt>
<trkpt lat="53.449778" lon="05.739115"><ele>1.3</ele><time>2021-02-17T16:02:25Z</time><name>PT13875</name></trkpt>
<trkpt lat="53.449780" lon="05.739129"><ele>1.3</ele><time>2021-02-17T16:02:26Z</time><name>PT13876</name></trkpt>
<trkpt lat="53.449781" lon="05.739142"><ele>1.3</ele><time>2021-02-17T16:02:27Z</time><name>PT13877</name></trkpt>
<trkpt lat="53.449782" lon="05.739154"><ele>1.3</ele><time>2021-02-17T16:02:28Z</time><name>PT13878</name></trkpt>
<trkpt lat="53.449783" lon="05.739165"><ele>1.3</ele><time>2021-02-17T16:02:29Z</time><name>PT13879</name></trkpt>
<trkpt lat="53.449785" lon="05.739180"><ele>1.5</ele><time>2021-02-17T16:02:30Z</time><name>PT13880</name></trkpt>
<trkpt lat="53.449788" lon="05.739191"><ele>1.7</ele><time>2021-02-17T16:02:31Z</time><name>PT13881</name></trkpt>
<trkpt lat="53.449791" lon="05.739204"><ele>1.8</ele><time>2021-02-17T16:02:32Z</time><name>PT13882</name></trkpt>
<trkpt lat="53.449793" lon="05.739216"><ele>2.1</ele><time>2021-02-17T16:02:33Z</time><name>PT13883</name></trkpt>
<trkpt lat="53.449796" lon="05.739231"><ele>2</ele><time>2021-02-17T16:02:34Z</time><name>PT13884</name></trkpt>
<trkpt lat="53.449801" lon="05.739244"><ele>1.8</ele><time>2021-02-17T16:02:35Z</time><name>PT13885</name></trkpt>
<trkpt lat="53.449806" lon="05.739254"><ele>1.9</ele><time>2021-02-17T16:02:36Z</time><name>PT13886</name></trkpt>
<trkpt lat="53.449811" lon="05.739265"><ele>1.8</ele><time>2021-02-17T16:02:37Z</time><name>PT13887</name></trkpt>
<trkpt lat="53.449814" lon="05.739277"><ele>2.2</ele><time>2021-02-17T16:02:38Z</time><name>PT13888</name></trkpt>
<trkpt lat="53.449815" lon="05.739293"><ele>2.2</ele><time>2021-02-17T16:02:39Z</time><name>PT13889</name></trkpt>
<trkpt lat="53.449816" lon="05.739310"><ele>2.3</ele><time>2021-02-17T16:02:40Z</time><name>PT13890</name></trkpt>
<trkpt lat="53.449817" lon="05.739324"><ele>1.9</ele><time>2021-02-17T16:02:41Z</time><name>PT13891</name></trkpt>
<trkpt lat="53.449819" lon="05.739336"><ele>2.1</ele><time>2021-02-17T16:02:42Z</time><name>PT13892</name></trkpt>
<trkpt lat="53.449821" lon="05.739349"><ele>2.1</ele><time>2021-02-17T16:02:43Z</time><name>PT13893</name></trkpt>
<trkpt lat="53.449824" lon="05.739364"><ele>2.3</ele><time>2021-02-17T16:02:44Z</time><name>PT13894</name></trkpt>
<trkpt lat="53.449826" lon="05.739380"><ele>2.5</ele><time>2021-02-17T16:02:45Z</time><name>PT13895</name></trkpt>
<trkpt lat="53.449827" lon="05.739391"><ele>2.8</ele><time>2021-02-17T16:02:46Z</time><name>PT13896</name></trkpt>
<trkpt lat="53.449827" lon="05.739401"><ele>2.6</ele><time>2021-02-17T16:02:47Z</time><name>PT13897</name></trkpt>
<trkpt lat="53.449829" lon="05.739412"><ele>2.7</ele><time>2021-02-17T16:02:48Z</time><name>PT13898</name></trkpt>
<trkpt lat="53.449830" lon="05.739428"><ele>2.7</ele><time>2021-02-17T16:02:49Z</time><name>PT13899</name></trkpt>
<trkpt lat="53.449832" lon="05.739444"><ele>2.6</ele><time>2021-02-17T16:02:50Z</time><name>PT13900</name></trkpt>
<trkpt lat="53.449834" lon="05.739460"><ele>2.8</ele><time>2021-02-17T16:02:51Z</time><name>PT13901</name></trkpt>
<trkpt lat="53.449837" lon="05.739474"><ele>3</ele><time>2021-02-17T16:02:52Z</time><name>PT13902</name></trkpt>
<trkpt lat="53.449841" lon="05.739489"><ele>2.9</ele><time>2021-02-17T16:02:53Z</time><name>PT13903</name></trkpt>
<trkpt lat="53.449844" lon="05.739505"><ele>3</ele><time>2021-02-17T16:02:54Z</time><name>PT13904</name></trkpt>
<trkpt lat="53.449847" lon="05.739518"><ele>2.9</ele><time>2021-02-17T16:02:55Z</time><name>PT13905</name></trkpt>
<trkpt lat="53.449851" lon="05.739532"><ele>2.8</ele><time>2021-02-17T16:02:56Z</time><name>PT13906</name></trkpt>
<trkpt lat="53.449855" lon="05.739546"><ele>3.1</ele><time>2021-02-17T16:02:57Z</time><name>PT13907</name></trkpt>
<trkpt lat="53.449858" lon="05.739558"><ele>2.9</ele><time>2021-02-17T16:02:58Z</time><name>PT13908</name></trkpt>
<trkpt lat="53.449861" lon="05.739571"><ele>3.2</ele><time>2021-02-17T16:02:59Z</time><name>PT13909</name></trkpt>
<trkpt lat="53.449863" lon="05.739586"><ele>3.1</ele><time>2021-02-17T16:03:00Z</time><name>PT13910</name></trkpt>
<trkpt lat="53.449863" lon="05.739600"><ele>3.1</ele><time>2021-02-17T16:03:01Z</time><name>PT13911</name></trkpt>
<trkpt lat="53.449864" lon="05.739614"><ele>2.9</ele><time>2021-02-17T16:03:02Z</time><name>PT13912</name></trkpt>
<trkpt lat="53.449868" lon="05.739628"><ele>2.8</ele><time>2021-02-17T16:03:03Z</time><name>PT13913</name></trkpt>
<trkpt lat="53.449870" lon="05.739644"><ele>2.8</ele><time>2021-02-17T16:03:04Z</time><name>PT13914</name></trkpt>
<trkpt lat="53.449870" lon="05.739661"><ele>2.7</ele><time>2021-02-17T16:03:05Z</time><name>PT13915</name></trkpt>
<trkpt lat="53.449870" lon="05.739679"><ele>2.8</ele><time>2021-02-17T16:03:06Z</time><name>PT13916</name></trkpt>
<trkpt lat="53.449868" lon="05.739694"><ele>2.7</ele><time>2021-02-17T16:03:07Z</time><name>PT13917</name></trkpt>
<trkpt lat="53.449868" lon="05.739708"><ele>2.5</ele><time>2021-02-17T16:03:08Z</time><name>PT13918</name></trkpt>
<trkpt lat="53.449868" lon="05.739724"><ele>2.5</ele><time>2021-02-17T16:03:09Z</time><name>PT13919</name></trkpt>
<trkpt lat="53.449868" lon="05.739738"><ele>2.3</ele><time>2021-02-17T16:03:10Z</time><name>PT13920</name></trkpt>
<trkpt lat="53.449869" lon="05.739755"><ele>2.1</ele><time>2021-02-17T16:03:11Z</time><name>PT13921</name></trkpt>
<trkpt lat="53.449872" lon="05.739775"><ele>2</ele><time>2021-02-17T16:03:12Z</time><name>PT13922</name></trkpt>
<trkpt lat="53.449875" lon="05.739791"><ele>1.8</ele><time>2021-02-17T16:03:13Z</time><name>PT13923</name></trkpt>
<trkpt lat="53.449880" lon="05.739806"><ele>1.8</ele><time>2021-02-17T16:03:14Z</time><name>PT13924</name></trkpt>
<trkpt lat="53.449883" lon="05.739819"><ele>2</ele><time>2021-02-17T16:03:15Z</time><name>PT13925</name></trkpt>
<trkpt lat="53.449886" lon="05.739832"><ele>2</ele><time>2021-02-17T16:03:16Z</time><name>PT13926</name></trkpt>
<trkpt lat="53.449889" lon="05.739846"><ele>2</ele><time>2021-02-17T16:03:17Z</time><name>PT13927</name></trkpt>
<trkpt lat="53.449893" lon="05.739860"><ele>2.3</ele><time>2021-02-17T16:03:18Z</time><name>PT13928</name></trkpt>
<trkpt lat="53.449897" lon="05.739876"><ele>2.3</ele><time>2021-02-17T16:03:19Z</time><name>PT13929</name></trkpt>
<trkpt lat="53.449902" lon="05.739891"><ele>2.3</ele><time>2021-02-17T16:03:20Z</time><name>PT13930</name></trkpt>
<trkpt lat="53.449907" lon="05.739907"><ele>2.3</ele><time>2021-02-17T16:03:21Z</time><name>PT13931</name></trkpt>
<trkpt lat="53.449909" lon="05.739921"><ele>2.3</ele><time>2021-02-17T16:03:22Z</time><name>PT13932</name></trkpt>
<trkpt lat="53.449910" lon="05.739934"><ele>2.1</ele><time>2021-02-17T16:03:23Z</time><name>PT13933</name></trkpt>
<trkpt lat="53.449914" lon="05.739948"><ele>2.1</ele><time>2021-02-17T16:03:24Z</time><name>PT13934</name></trkpt>
<trkpt lat="53.449918" lon="05.739962"><ele>2.1</ele><time>2021-02-17T16:03:25Z</time><name>PT13935</name></trkpt>
<trkpt lat="53.449920" lon="05.739978"><ele>2.2</ele><time>2021-02-17T16:03:26Z</time><name>PT13936</name></trkpt>
<trkpt lat="53.449924" lon="05.739991"><ele>2</ele><time>2021-02-17T16:03:27Z</time><name>PT13937</name></trkpt>
<trkpt lat="53.449925" lon="05.740004"><ele>2.2</ele><time>2021-02-17T16:03:28Z</time><name>PT13938</name></trkpt>
<trkpt lat="53.449927" lon="05.740018"><ele>2.3</ele><time>2021-02-17T16:03:29Z</time><name>PT13939</name></trkpt>
<trkpt lat="53.449928" lon="05.740033"><ele>2.3</ele><time>2021-02-17T16:03:30Z</time><name>PT13940</name></trkpt>
<trkpt lat="53.449930" lon="05.740049"><ele>2.2</ele><time>2021-02-17T16:03:31Z</time><name>PT13941</name></trkpt>
<trkpt lat="53.449931" lon="05.740066"><ele>2.2</ele><time>2021-02-17T16:03:32Z</time><name>PT13942</name></trkpt>
<trkpt lat="53.449932" lon="05.740083"><ele>2.1</ele><time>2021-02-17T16:03:33Z</time><name>PT13943</name></trkpt>
<trkpt lat="53.449934" lon="05.740096"><ele>2.2</ele><time>2021-02-17T16:03:34Z</time><name>PT13944</name></trkpt>
<trkpt lat="53.449937" lon="05.740110"><ele>2.3</ele><time>2021-02-17T16:03:35Z</time><name>PT13945</name></trkpt>
<trkpt lat="53.449941" lon="05.740124"><ele>2.3</ele><time>2021-02-17T16:03:36Z</time><name>PT13946</name></trkpt>
<trkpt lat="53.449945" lon="05.740138"><ele>2.2</ele><time>2021-02-17T16:03:37Z</time><name>PT13947</name></trkpt>
<trkpt lat="53.449948" lon="05.740152"><ele>2.5</ele><time>2021-02-17T16:03:38Z</time><name>PT13948</name></trkpt>
<trkpt lat="53.449950" lon="05.740169"><ele>2.5</ele><time>2021-02-17T16:03:39Z</time><name>PT13949</name></trkpt>
<trkpt lat="53.449952" lon="05.740182"><ele>2.5</ele><time>2021-02-17T16:03:40Z</time><name>PT13950</name></trkpt>
<trkpt lat="53.449955" lon="05.740195"><ele>2.6</ele><time>2021-02-17T16:03:41Z</time><name>PT13951</name></trkpt>
<trkpt lat="53.449957" lon="05.740207"><ele>2.6</ele><time>2021-02-17T16:03:42Z</time><name>PT13952</name></trkpt>
<trkpt lat="53.449960" lon="05.740223"><ele>2.6</ele><time>2021-02-17T16:03:43Z</time><name>PT13953</name></trkpt>
<trkpt lat="53.449961" lon="05.740239"><ele>2.6</ele><time>2021-02-17T16:03:44Z</time><name>PT13954</name></trkpt>
<trkpt lat="53.449961" lon="05.740256"><ele>2.8</ele><time>2021-02-17T16:03:45Z</time><name>PT13955</name></trkpt>
<trkpt lat="53.449961" lon="05.740272"><ele>2.9</ele><time>2021-02-17T16:03:46Z</time><name>PT13956</name></trkpt>
<trkpt lat="53.449963" lon="05.740287"><ele>2.8</ele><time>2021-02-17T16:03:47Z</time><name>PT13957</name></trkpt>
<trkpt lat="53.449966" lon="05.740301"><ele>2.9</ele><time>2021-02-17T16:03:48Z</time><name>PT13958</name></trkpt>
<trkpt lat="53.449969" lon="05.740314"><ele>2.9</ele><time>2021-02-17T16:03:49Z</time><name>PT13959</name></trkpt>
<trkpt lat="53.449972" lon="05.740328"><ele>2.8</ele><time>2021-02-17T16:03:50Z</time><name>PT13960</name></trkpt>
<trkpt lat="53.449973" lon="05.740345"><ele>2.7</ele><time>2021-02-17T16:03:51Z</time><name>PT13961</name></trkpt>
<trkpt lat="53.449973" lon="05.740362"><ele>2.6</ele><time>2021-02-17T16:03:52Z</time><name>PT13962</name></trkpt>
<trkpt lat="53.449973" lon="05.740377"><ele>2.6</ele><time>2021-02-17T16:03:53Z</time><name>PT13963</name></trkpt>
<trkpt lat="53.449973" lon="05.740393"><ele>2.8</ele><time>2021-02-17T16:03:54Z</time><name>PT13964</name></trkpt>
<trkpt lat="53.449974" lon="05.740410"><ele>2.7</ele><time>2021-02-17T16:03:55Z</time><name>PT13965</name></trkpt>
<trkpt lat="53.449976" lon="05.740426"><ele>2.7</ele><time>2021-02-17T16:03:56Z</time><name>PT13966</name></trkpt>
<trkpt lat="53.449977" lon="05.740439"><ele>2.7</ele><time>2021-02-17T16:03:57Z</time><name>PT13967</name></trkpt>
<trkpt lat="53.449977" lon="05.740445"><ele>2.3</ele><time>2021-02-17T16:03:58Z</time><name>PT13968</name></trkpt>
<trkpt lat="53.449979" lon="05.740454"><ele>2.5</ele><time>2021-02-17T16:03:59Z</time><name>PT13969</name></trkpt>
<trkpt lat="53.449982" lon="05.740467"><ele>2.7</ele><time>2021-02-17T16:04:00Z</time><name>PT13970</name></trkpt>
<trkpt lat="53.449984" lon="05.740482"><ele>2.6</ele><time>2021-02-17T16:04:01Z</time><name>PT13971</name></trkpt>
<trkpt lat="53.449987" lon="05.740497"><ele>2.8</ele><time>2021-02-17T16:04:02Z</time><name>PT13972</name></trkpt>
<trkpt lat="53.449989" lon="05.740514"><ele>2.8</ele><time>2021-02-17T16:04:03Z</time><name>PT13973</name></trkpt>
<trkpt lat="53.449990" lon="05.740532"><ele>2.7</ele><time>2021-02-17T16:04:04Z</time><name>PT13974</name></trkpt>
<trkpt lat="53.449991" lon="05.740549"><ele>2.8</ele><time>2021-02-17T16:04:05Z</time><name>PT13975</name></trkpt>
<trkpt lat="53.449993" lon="05.740561"><ele>2.7</ele><time>2021-02-17T16:04:06Z</time><name>PT13976</name></trkpt>
<trkpt lat="53.449997" lon="05.740571"><ele>2.7</ele><time>2021-02-17T16:04:07Z</time><name>PT13977</name></trkpt>
<trkpt lat="53.449998" lon="05.740587"><ele>2.8</ele><time>2021-02-17T16:04:08Z</time><name>PT13978</name></trkpt>
<trkpt lat="53.450000" lon="05.740606"><ele>2.9</ele><time>2021-02-17T16:04:09Z</time><name>PT13979</name></trkpt>
<trkpt lat="53.450002" lon="05.740623"><ele>3.2</ele><time>2021-02-17T16:04:10Z</time><name>PT13980</name></trkpt>
<trkpt lat="53.450004" lon="05.740639"><ele>3.2</ele><time>2021-02-17T16:04:11Z</time><name>PT13981</name></trkpt>
<trkpt lat="53.450007" lon="05.740655"><ele>3.3</ele><time>2021-02-17T16:04:12Z</time><name>PT13982</name></trkpt>
<trkpt lat="53.450008" lon="05.740672"><ele>3</ele><time>2021-02-17T16:04:13Z</time><name>PT13983</name></trkpt>
<trkpt lat="53.450010" lon="05.740690"><ele>2.9</ele><time>2021-02-17T16:04:14Z</time><name>PT13984</name></trkpt>
<trkpt lat="53.450011" lon="05.740707"><ele>2.7</ele><time>2021-02-17T16:04:15Z</time><name>PT13985</name></trkpt>
<trkpt lat="53.450013" lon="05.740721"><ele>2.5</ele><time>2021-02-17T16:04:16Z</time><name>PT13986</name></trkpt>
<trkpt lat="53.450015" lon="05.740735"><ele>2.3</ele><time>2021-02-17T16:04:17Z</time><name>PT13987</name></trkpt>
<trkpt lat="53.450019" lon="05.740751"><ele>2.4</ele><time>2021-02-17T16:04:18Z</time><name>PT13988</name></trkpt>
<trkpt lat="53.450022" lon="05.740767"><ele>2.4</ele><time>2021-02-17T16:04:19Z</time><name>PT13989</name></trkpt>
<trkpt lat="53.450026" lon="05.740778"><ele>2.4</ele><time>2021-02-17T16:04:20Z</time><name>PT13990</name></trkpt>
<trkpt lat="53.450026" lon="05.740787"><ele>2.4</ele><time>2021-02-17T16:04:21Z</time><name>PT13991</name></trkpt>
<trkpt lat="53.450029" lon="05.740799"><ele>2.5</ele><time>2021-02-17T16:04:22Z</time><name>PT13992</name></trkpt>
<trkpt lat="53.450032" lon="05.740812"><ele>2.6</ele><time>2021-02-17T16:04:23Z</time><name>PT13993</name></trkpt>
<trkpt lat="53.450035" lon="05.740826"><ele>2.6</ele><time>2021-02-17T16:04:24Z</time><name>PT13994</name></trkpt>
<trkpt lat="53.450039" lon="05.740842"><ele>2.6</ele><time>2021-02-17T16:04:25Z</time><name>PT13995</name></trkpt>
<trkpt lat="53.450043" lon="05.740857"><ele>2.3</ele><time>2021-02-17T16:04:26Z</time><name>PT13996</name></trkpt>
<trkpt lat="53.450046" lon="05.740871"><ele>2.1</ele><time>2021-02-17T16:04:27Z</time><name>PT13997</name></trkpt>
<trkpt lat="53.450047" lon="05.740885"><ele>1.8</ele><time>2021-02-17T16:04:28Z</time><name>PT13998</name></trkpt>
<trkpt lat="53.450050" lon="05.740903"><ele>1.8</ele><time>2021-02-17T16:04:29Z</time><name>PT13999</name></trkpt>
<trkpt lat="53.450052" lon="05.740921"><ele>1.8</ele><time>2021-02-17T16:04:30Z</time><name>PT14000</name></trkpt>
<trkpt lat="53.450053" lon="05.740936"><ele>2</ele><time>2021-02-17T16:04:31Z</time><name>PT14001</name></trkpt>
<trkpt lat="53.450057" lon="05.740947"><ele>1.9</ele><time>2021-02-17T16:04:32Z</time><name>PT14002</name></trkpt>
<trkpt lat="53.450061" lon="05.740962"><ele>1.9</ele><time>2021-02-17T16:04:33Z</time><name>PT14003</name></trkpt>
<trkpt lat="53.450064" lon="05.740978"><ele>1.9</ele><time>2021-02-17T16:04:34Z</time><name>PT14004</name></trkpt>
<trkpt lat="53.450066" lon="05.740992"><ele>1.8</ele><time>2021-02-17T16:04:35Z</time><name>PT14005</name></trkpt>
<trkpt lat="53.450069" lon="05.741008"><ele>1.8</ele><time>2021-02-17T16:04:36Z</time><name>PT14006</name></trkpt>
<trkpt lat="53.450070" lon="05.741023"><ele>1.9</ele><time>2021-02-17T16:04:37Z</time><name>PT14007</name></trkpt>
<trkpt lat="53.450073" lon="05.741036"><ele>1.9</ele><time>2021-02-17T16:04:38Z</time><name>PT14008</name></trkpt>
<trkpt lat="53.450075" lon="05.741048"><ele>1.9</ele><time>2021-02-17T16:04:39Z</time><name>PT14009</name></trkpt>
<trkpt lat="53.450077" lon="05.741060"><ele>2</ele><time>2021-02-17T16:04:40Z</time><name>PT14010</name></trkpt>
<trkpt lat="53.450079" lon="05.741072"><ele>1.8</ele><time>2021-02-17T16:04:41Z</time><name>PT14011</name></trkpt>
<trkpt lat="53.450081" lon="05.741086"><ele>1.8</ele><time>2021-02-17T16:04:42Z</time><name>PT14012</name></trkpt>
<trkpt lat="53.450083" lon="05.741105"><ele>1.8</ele><time>2021-02-17T16:04:43Z</time><name>PT14013</name></trkpt>
<trkpt lat="53.450084" lon="05.741120"><ele>1.6</ele><time>2021-02-17T16:04:44Z</time><name>PT14014</name></trkpt>
<trkpt lat="53.450086" lon="05.741135"><ele>1.5</ele><time>2021-02-17T16:04:45Z</time><name>PT14015</name></trkpt>
<trkpt lat="53.450089" lon="05.741150"><ele>1.8</ele><time>2021-02-17T16:04:46Z</time><name>PT14016</name></trkpt>
<trkpt lat="53.450092" lon="05.741165"><ele>1.7</ele><time>2021-02-17T16:04:47Z</time><name>PT14017</name></trkpt>
<trkpt lat="53.450094" lon="05.741181"><ele>1.7</ele><time>2021-02-17T16:04:48Z</time><name>PT14018</name></trkpt>
<trkpt lat="53.450095" lon="05.741193"><ele>1.7</ele><time>2021-02-17T16:04:49Z</time><name>PT14019</name></trkpt>
<trkpt lat="53.450097" lon="05.741209"><ele>1.8</ele><time>2021-02-17T16:04:50Z</time><name>PT14020</name></trkpt>
<trkpt lat="53.450097" lon="05.741229"><ele>1.9</ele><time>2021-02-17T16:04:51Z</time><name>PT14021</name></trkpt>
<trkpt lat="53.450097" lon="05.741243"><ele>2.1</ele><time>2021-02-17T16:04:52Z</time><name>PT14022</name></trkpt>
<trkpt lat="53.450099" lon="05.741256"><ele>2.1</ele><time>2021-02-17T16:04:53Z</time><name>PT14023</name></trkpt>
<trkpt lat="53.450101" lon="05.741272"><ele>2.2</ele><time>2021-02-17T16:04:54Z</time><name>PT14024</name></trkpt>
<trkpt lat="53.450103" lon="05.741286"><ele>1.9</ele><time>2021-02-17T16:04:55Z</time><name>PT14025</name></trkpt>
<trkpt lat="53.450105" lon="05.741301"><ele>1.8</ele><time>2021-02-17T16:04:56Z</time><name>PT14026</name></trkpt>
<trkpt lat="53.450107" lon="05.741316"><ele>1.9</ele><time>2021-02-17T16:04:57Z</time><name>PT14027</name></trkpt>
<trkpt lat="53.450109" lon="05.741332"><ele>1.8</ele><time>2021-02-17T16:04:58Z</time><name>PT14028</name></trkpt>
<trkpt lat="53.450110" lon="05.741350"><ele>2</ele><time>2021-02-17T16:04:59Z</time><name>PT14029</name></trkpt>
<trkpt lat="53.450112" lon="05.741365"><ele>1.9</ele><time>2021-02-17T16:05:00Z</time><name>PT14030</name></trkpt>
<trkpt lat="53.450113" lon="05.741380"><ele>1.8</ele><time>2021-02-17T16:05:01Z</time><name>PT14031</name></trkpt>
<trkpt lat="53.450115" lon="05.741396"><ele>1.9</ele><time>2021-02-17T16:05:02Z</time><name>PT14032</name></trkpt>
<trkpt lat="53.450117" lon="05.741411"><ele>1.8</ele><time>2021-02-17T16:05:03Z</time><name>PT14033</name></trkpt>
<trkpt lat="53.450118" lon="05.741424"><ele>1.9</ele><time>2021-02-17T16:05:04Z</time><name>PT14034</name></trkpt>
<trkpt lat="53.450119" lon="05.741438"><ele>1.9</ele><time>2021-02-17T16:05:05Z</time><name>PT14035</name></trkpt>
<trkpt lat="53.450121" lon="05.741454"><ele>1.8</ele><time>2021-02-17T16:05:06Z</time><name>PT14036</name></trkpt>
<trkpt lat="53.450122" lon="05.741466"><ele>1.9</ele><time>2021-02-17T16:05:07Z</time><name>PT14037</name></trkpt>
<trkpt lat="53.450123" lon="05.741477"><ele>1.9</ele><time>2021-02-17T16:05:08Z</time><name>PT14038</name></trkpt>
<trkpt lat="53.450125" lon="05.741492"><ele>2</ele><time>2021-02-17T16:05:09Z</time><name>PT14039</name></trkpt>
<trkpt lat="53.450128" lon="05.741510"><ele>2</ele><time>2021-02-17T16:05:10Z</time><name>PT14040</name></trkpt>
<trkpt lat="53.450130" lon="05.741526"><ele>1.9</ele><time>2021-02-17T16:05:11Z</time><name>PT14041</name></trkpt>
<trkpt lat="53.450132" lon="05.741540"><ele>1.9</ele><time>2021-02-17T16:05:12Z</time><name>PT14042</name></trkpt>
<trkpt lat="53.450132" lon="05.741556"><ele>2</ele><time>2021-02-17T16:05:13Z</time><name>PT14043</name></trkpt>
<trkpt lat="53.450132" lon="05.741571"><ele>1.9</ele><time>2021-02-17T16:05:14Z</time><name>PT14044</name></trkpt>
<trkpt lat="53.450133" lon="05.741587"><ele>2.1</ele><time>2021-02-17T16:05:15Z</time><name>PT14045</name></trkpt>
<trkpt lat="53.450134" lon="05.741602"><ele>2.1</ele><time>2021-02-17T16:05:16Z</time><name>PT14046</name></trkpt>
<trkpt lat="53.450137" lon="05.741619"><ele>2</ele><time>2021-02-17T16:05:17Z</time><name>PT14047</name></trkpt>
<trkpt lat="53.450138" lon="05.741634"><ele>2.2</ele><time>2021-02-17T16:05:18Z</time><name>PT14048</name></trkpt>
<trkpt lat="53.450139" lon="05.741650"><ele>2.1</ele><time>2021-02-17T16:05:19Z</time><name>PT14049</name></trkpt>
<trkpt lat="53.450141" lon="05.741666"><ele>2.3</ele><time>2021-02-17T16:05:20Z</time><name>PT14050</name></trkpt>
<trkpt lat="53.450141" lon="05.741680"><ele>2.1</ele><time>2021-02-17T16:05:21Z</time><name>PT14051</name></trkpt>
<trkpt lat="53.450142" lon="05.741695"><ele>2.3</ele><time>2021-02-17T16:05:22Z</time><name>PT14052</name></trkpt>
<trkpt lat="53.450141" lon="05.741710"><ele>2.3</ele><time>2021-02-17T16:05:23Z</time><name>PT14053</name></trkpt>
<trkpt lat="53.450140" lon="05.741723"><ele>2.3</ele><time>2021-02-17T16:05:24Z</time><name>PT14054</name></trkpt>
<trkpt lat="53.450139" lon="05.741739"><ele>2.3</ele><time>2021-02-17T16:05:25Z</time><name>PT14055</name></trkpt>
<trkpt lat="53.450141" lon="05.741753"><ele>2.3</ele><time>2021-02-17T16:05:26Z</time><name>PT14056</name></trkpt>
<trkpt lat="53.450145" lon="05.741766"><ele>2.3</ele><time>2021-02-17T16:05:27Z</time><name>PT14057</name></trkpt>
<trkpt lat="53.450150" lon="05.741777"><ele>2.3</ele><time>2021-02-17T16:05:28Z</time><name>PT14058</name></trkpt>
<trkpt lat="53.450153" lon="05.741789"><ele>2.4</ele><time>2021-02-17T16:05:29Z</time><name>PT14059</name></trkpt>
<trkpt lat="53.450152" lon="05.741802"><ele>2.6</ele><time>2021-02-17T16:05:30Z</time><name>PT14060</name></trkpt>
<trkpt lat="53.450154" lon="05.741818"><ele>2.3</ele><time>2021-02-17T16:05:31Z</time><name>PT14061</name></trkpt>
<trkpt lat="53.450156" lon="05.741833"><ele>2.2</ele><time>2021-02-17T16:05:32Z</time><name>PT14062</name></trkpt>
<trkpt lat="53.450158" lon="05.741847"><ele>2.3</ele><time>2021-02-17T16:05:33Z</time><name>PT14063</name></trkpt>
<trkpt lat="53.450162" lon="05.741863"><ele>2.1</ele><time>2021-02-17T16:05:34Z</time><name>PT14064</name></trkpt>
<trkpt lat="53.450165" lon="05.741877"><ele>2.3</ele><time>2021-02-17T16:05:35Z</time><name>PT14065</name></trkpt>
<trkpt lat="53.450167" lon="05.741891"><ele>2.4</ele><time>2021-02-17T16:05:36Z</time><name>PT14066</name></trkpt>
<trkpt lat="53.450168" lon="05.741907"><ele>2.3</ele><time>2021-02-17T16:05:37Z</time><name>PT14067</name></trkpt>
<trkpt lat="53.450170" lon="05.741923"><ele>2.4</ele><time>2021-02-17T16:05:38Z</time><name>PT14068</name></trkpt>
<trkpt lat="53.450171" lon="05.741936"><ele>2.3</ele><time>2021-02-17T16:05:39Z</time><name>PT14069</name></trkpt>
<trkpt lat="53.450172" lon="05.741953"><ele>2.2</ele><time>2021-02-17T16:05:40Z</time><name>PT14070</name></trkpt>
<trkpt lat="53.450174" lon="05.741969"><ele>2.2</ele><time>2021-02-17T16:05:41Z</time><name>PT14071</name></trkpt>
<trkpt lat="53.450175" lon="05.741982"><ele>2.1</ele><time>2021-02-17T16:05:42Z</time><name>PT14072</name></trkpt>
<trkpt lat="53.450175" lon="05.741998"><ele>2.1</ele><time>2021-02-17T16:05:43Z</time><name>PT14073</name></trkpt>
<trkpt lat="53.450174" lon="05.742014"><ele>2.1</ele><time>2021-02-17T16:05:44Z</time><name>PT14074</name></trkpt>
<trkpt lat="53.450174" lon="05.742028"><ele>2.1</ele><time>2021-02-17T16:05:45Z</time><name>PT14075</name></trkpt>
<trkpt lat="53.450174" lon="05.742044"><ele>2.1</ele><time>2021-02-17T16:05:46Z</time><name>PT14076</name></trkpt>
<trkpt lat="53.450174" lon="05.742058"><ele>2.3</ele><time>2021-02-17T16:05:47Z</time><name>PT14077</name></trkpt>
<trkpt lat="53.450173" lon="05.742072"><ele>2.1</ele><time>2021-02-17T16:05:48Z</time><name>PT14078</name></trkpt>
<trkpt lat="53.450174" lon="05.742090"><ele>2.1</ele><time>2021-02-17T16:05:49Z</time><name>PT14079</name></trkpt>
<trkpt lat="53.450175" lon="05.742107"><ele>2.1</ele><time>2021-02-17T16:05:50Z</time><name>PT14080</name></trkpt>
<trkpt lat="53.450177" lon="05.742124"><ele>1.8</ele><time>2021-02-17T16:05:51Z</time><name>PT14081</name></trkpt>
<trkpt lat="53.450177" lon="05.742138"><ele>1.9</ele><time>2021-02-17T16:05:52Z</time><name>PT14082</name></trkpt>
<trkpt lat="53.450178" lon="05.742151"><ele>2</ele><time>2021-02-17T16:05:53Z</time><name>PT14083</name></trkpt>
<trkpt lat="53.450179" lon="05.742166"><ele>2</ele><time>2021-02-17T16:05:54Z</time><name>PT14084</name></trkpt>
<trkpt lat="53.450179" lon="05.742178"><ele>2.1</ele><time>2021-02-17T16:05:55Z</time><name>PT14085</name></trkpt>
<trkpt lat="53.450179" lon="05.742187"><ele>2.1</ele><time>2021-02-17T16:05:56Z</time><name>PT14086</name></trkpt>
<trkpt lat="53.450180" lon="05.742200"><ele>2.1</ele><time>2021-02-17T16:05:57Z</time><name>PT14087</name></trkpt>
<trkpt lat="53.450178" lon="05.742212"><ele>1.9</ele><time>2021-02-17T16:05:58Z</time><name>PT14088</name></trkpt>
<trkpt lat="53.450177" lon="05.742223"><ele>1.9</ele><time>2021-02-17T16:05:59Z</time><name>PT14089</name></trkpt>
<trkpt lat="53.450176" lon="05.742231"><ele>2.1</ele><time>2021-02-17T16:06:00Z</time><name>PT14090</name></trkpt>
<trkpt lat="53.450177" lon="05.742235"><ele>2.1</ele><time>2021-02-17T16:06:01Z</time><name>PT14091</name></trkpt>
<trkpt lat="53.450177" lon="05.742235"><ele>2.1</ele><time>2021-02-17T16:06:02Z</time><name>PT14092</name></trkpt>
<trkpt lat="53.450177" lon="05.742234"><ele>2.2</ele><time>2021-02-17T16:06:03Z</time><name>PT14093</name></trkpt>
<trkpt lat="53.450178" lon="05.742231"><ele>1.9</ele><time>2021-02-17T16:06:04Z</time><name>PT14094</name></trkpt>
<trkpt lat="53.450179" lon="05.742229"><ele>1.8</ele><time>2021-02-17T16:06:05Z</time><name>PT14095</name></trkpt>
<trkpt lat="53.450179" lon="05.742235"><ele>1.8</ele><time>2021-02-17T16:06:06Z</time><name>PT14096</name></trkpt>
<trkpt lat="53.450180" lon="05.742242"><ele>1.8</ele><time>2021-02-17T16:06:07Z</time><name>PT14097</name></trkpt>
<trkpt lat="53.450182" lon="05.742247"><ele>1.7</ele><time>2021-02-17T16:06:08Z</time><name>PT14098</name></trkpt>
<trkpt lat="53.450184" lon="05.742251"><ele>1.5</ele><time>2021-02-17T16:06:09Z</time><name>PT14099</name></trkpt>
<trkpt lat="53.450188" lon="05.742265"><ele>1.8</ele><time>2021-02-17T16:06:17Z</time><name>PT14100</name></trkpt>
<trkpt lat="53.450193" lon="05.742282"><ele>1.8</ele><time>2021-02-17T16:06:18Z</time><name>PT14101</name></trkpt>
<trkpt lat="53.450198" lon="05.742299"><ele>1.8</ele><time>2021-02-17T16:06:19Z</time><name>PT14102</name></trkpt>
<trkpt lat="53.450203" lon="05.742316"><ele>1.8</ele><time>2021-02-17T16:06:20Z</time><name>PT14103</name></trkpt>
<trkpt lat="53.450203" lon="05.742329"><ele>1.9</ele><time>2021-02-17T16:06:21Z</time><name>PT14104</name></trkpt>
<trkpt lat="53.450202" lon="05.742339"><ele>1.7</ele><time>2021-02-17T16:06:22Z</time><name>PT14105</name></trkpt>
<trkpt lat="53.450202" lon="05.742340"><ele>1.3</ele><time>2021-02-17T16:06:23Z</time><name>PT14106</name></trkpt>
<trkpt lat="53.450202" lon="05.742342"><ele>1.2</ele><time>2021-02-17T16:06:24Z</time><name>PT14107</name></trkpt>
<trkpt lat="53.450203" lon="05.742342"><ele>1</ele><time>2021-02-17T16:06:25Z</time><name>PT14108</name></trkpt>
<trkpt lat="53.450208" lon="05.742352"><ele>1.8</ele><time>2021-02-17T16:06:28Z</time><name>PT14109</name></trkpt>
<trkpt lat="53.450213" lon="05.742369"><ele>1.8</ele><time>2021-02-17T16:06:29Z</time><name>PT14110</name></trkpt>
<trkpt lat="53.450215" lon="05.742387"><ele>1.8</ele><time>2021-02-17T16:06:30Z</time><name>PT14111</name></trkpt>
<trkpt lat="53.450216" lon="05.742405"><ele>1.3</ele><time>2021-02-17T16:06:31Z</time><name>PT14112</name></trkpt>
<trkpt lat="53.450216" lon="05.742425"><ele>1.3</ele><time>2021-02-17T16:06:32Z</time><name>PT14113</name></trkpt>
<trkpt lat="53.450218" lon="05.742445"><ele>1.3</ele><time>2021-02-17T16:06:33Z</time><name>PT14114</name></trkpt>
<trkpt lat="53.450220" lon="05.742462"><ele>1.4</ele><time>2021-02-17T16:06:34Z</time><name>PT14115</name></trkpt>
<trkpt lat="53.450223" lon="05.742478"><ele>1.7</ele><time>2021-02-17T16:06:35Z</time><name>PT14116</name></trkpt>
<trkpt lat="53.450223" lon="05.742494"><ele>1.8</ele><time>2021-02-17T16:06:36Z</time><name>PT14117</name></trkpt>
<trkpt lat="53.450223" lon="05.742512"><ele>1.9</ele><time>2021-02-17T16:06:37Z</time><name>PT14118</name></trkpt>
<trkpt lat="53.450224" lon="05.742528"><ele>1.9</ele><time>2021-02-17T16:06:38Z</time><name>PT14119</name></trkpt>
<trkpt lat="53.450226" lon="05.742542"><ele>2.1</ele><time>2021-02-17T16:06:39Z</time><name>PT14120</name></trkpt>
<trkpt lat="53.450229" lon="05.742556"><ele>2.2</ele><time>2021-02-17T16:06:40Z</time><name>PT14121</name></trkpt>
<trkpt lat="53.450231" lon="05.742570"><ele>2.3</ele><time>2021-02-17T16:06:41Z</time><name>PT14122</name></trkpt>
<trkpt lat="53.450231" lon="05.742583"><ele>2.4</ele><time>2021-02-17T16:06:42Z</time><name>PT14123</name></trkpt>
<trkpt lat="53.450232" lon="05.742593"><ele>2.3</ele><time>2021-02-17T16:06:43Z</time><name>PT14124</name></trkpt>
<trkpt lat="53.450233" lon="05.742603"><ele>2.3</ele><time>2021-02-17T16:06:44Z</time><name>PT14125</name></trkpt>
<trkpt lat="53.450234" lon="05.742618"><ele>2.3</ele><time>2021-02-17T16:06:45Z</time><name>PT14126</name></trkpt>
<trkpt lat="53.450235" lon="05.742630"><ele>2.4</ele><time>2021-02-17T16:06:46Z</time><name>PT14127</name></trkpt>
<trkpt lat="53.450238" lon="05.742642"><ele>2.4</ele><time>2021-02-17T16:06:47Z</time><name>PT14128</name></trkpt>
<trkpt lat="53.450242" lon="05.742656"><ele>2.5</ele><time>2021-02-17T16:06:48Z</time><name>PT14129</name></trkpt>
<trkpt lat="53.450245" lon="05.742671"><ele>2.6</ele><time>2021-02-17T16:06:49Z</time><name>PT14130</name></trkpt>
<trkpt lat="53.450248" lon="05.742685"><ele>2.6</ele><time>2021-02-17T16:06:50Z</time><name>PT14131</name></trkpt>
<trkpt lat="53.450252" lon="05.742700"><ele>2.6</ele><time>2021-02-17T16:06:51Z</time><name>PT14132</name></trkpt>
<trkpt lat="53.450257" lon="05.742714"><ele>2.6</ele><time>2021-02-17T16:06:52Z</time><name>PT14133</name></trkpt>
<trkpt lat="53.450261" lon="05.742724"><ele>2.4</ele><time>2021-02-17T16:06:53Z</time><name>PT14134</name></trkpt>
<trkpt lat="53.450263" lon="05.742739"><ele>2.3</ele><time>2021-02-17T16:06:54Z</time><name>PT14135</name></trkpt>
<trkpt lat="53.450265" lon="05.742754"><ele>2.2</ele><time>2021-02-17T16:06:55Z</time><name>PT14136</name></trkpt>
<trkpt lat="53.450268" lon="05.742768"><ele>2</ele><time>2021-02-17T16:06:56Z</time><name>PT14137</name></trkpt>
<trkpt lat="53.450272" lon="05.742782"><ele>1.9</ele><time>2021-02-17T16:06:57Z</time><name>PT14138</name></trkpt>
<trkpt lat="53.450277" lon="05.742796"><ele>2.3</ele><time>2021-02-17T16:06:58Z</time><name>PT14139</name></trkpt>
<trkpt lat="53.450281" lon="05.742809"><ele>2.2</ele><time>2021-02-17T16:06:59Z</time><name>PT14140</name></trkpt>
<trkpt lat="53.450283" lon="05.742824"><ele>2.3</ele><time>2021-02-17T16:07:00Z</time><name>PT14141</name></trkpt>
<trkpt lat="53.450285" lon="05.742837"><ele>2.3</ele><time>2021-02-17T16:07:01Z</time><name>PT14142</name></trkpt>
<trkpt lat="53.450289" lon="05.742848"><ele>2</ele><time>2021-02-17T16:07:02Z</time><name>PT14143</name></trkpt>
<trkpt lat="53.450292" lon="05.742858"><ele>1.8</ele><time>2021-02-17T16:07:03Z</time><name>PT14144</name></trkpt>
<trkpt lat="53.450294" lon="05.742863"><ele>1.8</ele><time>2021-02-17T16:07:04Z</time><name>PT14145</name></trkpt>
<trkpt lat="53.450294" lon="05.742868"><ele>2.3</ele><time>2021-02-17T16:07:05Z</time><name>PT14146</name></trkpt>
<trkpt lat="53.450293" lon="05.742876"><ele>2.3</ele><time>2021-02-17T16:07:06Z</time><name>PT14147</name></trkpt>
<trkpt lat="53.450295" lon="05.742888"><ele>2.3</ele><time>2021-02-17T16:07:07Z</time><name>PT14148</name></trkpt>
<trkpt lat="53.450297" lon="05.742893"><ele>2.1</ele><time>2021-02-17T16:07:08Z</time><name>PT14149</name></trkpt>
<trkpt lat="53.450299" lon="05.742898"><ele>1.3</ele><time>2021-02-17T16:07:09Z</time><name>PT14150</name></trkpt>
<trkpt lat="53.450300" lon="05.742905"><ele>0.7</ele><time>2021-02-17T16:07:10Z</time><name>PT14151</name></trkpt>
<trkpt lat="53.450303" lon="05.742911"><ele>0.9</ele><time>2021-02-17T16:07:11Z</time><name>PT14152</name></trkpt>
<trkpt lat="53.450305" lon="05.742920"><ele>1</ele><time>2021-02-17T16:07:12Z</time><name>PT14153</name></trkpt>
<trkpt lat="53.450307" lon="05.742931"><ele>2.3</ele><time>2021-02-17T16:07:13Z</time><name>PT14154</name></trkpt>
<trkpt lat="53.450310" lon="05.742941"><ele>2.3</ele><time>2021-02-17T16:07:14Z</time><name>PT14155</name></trkpt>
<trkpt lat="53.450310" lon="05.742951"><ele>2.1</ele><time>2021-02-17T16:07:15Z</time><name>PT14156</name></trkpt>
<trkpt lat="53.450311" lon="05.742957"><ele>2.4</ele><time>2021-02-17T16:07:16Z</time><name>PT14157</name></trkpt>
<trkpt lat="53.450315" lon="05.742957"><ele>2.1</ele><time>2021-02-17T16:07:17Z</time><name>PT14158</name></trkpt>
<trkpt lat="53.450315" lon="05.742956"><ele>1.9</ele><time>2021-02-17T16:07:18Z</time><name>PT14159</name></trkpt>
<trkpt lat="53.450316" lon="05.742960"><ele>2.3</ele><time>2021-02-17T16:07:19Z</time><name>PT14160</name></trkpt>
<trkpt lat="53.450317" lon="05.742972"><ele>1.7</ele><time>2021-02-17T16:07:20Z</time><name>PT14161</name></trkpt>
<trkpt lat="53.450320" lon="05.742986"><ele>1.5</ele><time>2021-02-17T16:07:21Z</time><name>PT14162</name></trkpt>
<trkpt lat="53.450321" lon="05.742999"><ele>1.5</ele><time>2021-02-17T16:07:22Z</time><name>PT14163</name></trkpt>
<trkpt lat="53.450323" lon="05.743012"><ele>1.3</ele><time>2021-02-17T16:07:23Z</time><name>PT14164</name></trkpt>
<trkpt lat="53.450323" lon="05.743026"><ele>1.3</ele><time>2021-02-17T16:07:24Z</time><name>PT14165</name></trkpt>
<trkpt lat="53.450325" lon="05.743040"><ele>1.3</ele><time>2021-02-17T16:07:25Z</time><name>PT14166</name></trkpt>
<trkpt lat="53.450328" lon="05.743052"><ele>1.3</ele><time>2021-02-17T16:07:26Z</time><name>PT14167</name></trkpt>
<trkpt lat="53.450329" lon="05.743062"><ele>1.2</ele><time>2021-02-17T16:07:27Z</time><name>PT14168</name></trkpt>
<trkpt lat="53.450331" lon="05.743075"><ele>1.1</ele><time>2021-02-17T16:07:28Z</time><name>PT14169</name></trkpt>
<trkpt lat="53.450330" lon="05.743089"><ele>1.2</ele><time>2021-02-17T16:07:29Z</time><name>PT14170</name></trkpt>
<trkpt lat="53.450330" lon="05.743103"><ele>1.1</ele><time>2021-02-17T16:07:30Z</time><name>PT14171</name></trkpt>
<trkpt lat="53.450334" lon="05.743110"><ele>1.1</ele><time>2021-02-17T16:07:31Z</time><name>PT14172</name></trkpt>
<trkpt lat="53.450335" lon="05.743106"><ele>1.2</ele><time>2021-02-17T16:07:32Z</time><name>PT14173</name></trkpt>
<trkpt lat="53.450338" lon="05.743114"><ele>1.2</ele><time>2021-02-17T16:07:33Z</time><name>PT14174</name></trkpt>
<trkpt lat="53.450339" lon="05.743127"><ele>1.3</ele><time>2021-02-17T16:07:34Z</time><name>PT14175</name></trkpt>
<trkpt lat="53.450336" lon="05.743137"><ele>1.3</ele><time>2021-02-17T16:07:35Z</time><name>PT14176</name></trkpt>
<trkpt lat="53.450334" lon="05.743148"><ele>1.3</ele><time>2021-02-17T16:07:36Z</time><name>PT14177</name></trkpt>
<trkpt lat="53.450334" lon="05.743156"><ele>1.1</ele><time>2021-02-17T16:07:37Z</time><name>PT14178</name></trkpt>
<trkpt lat="53.450335" lon="05.743165"><ele>1.2</ele><time>2021-02-17T16:07:38Z</time><name>PT14179</name></trkpt>
<trkpt lat="53.450336" lon="05.743174"><ele>1.2</ele><time>2021-02-17T16:07:39Z</time><name>PT14180</name></trkpt>
<trkpt lat="53.450339" lon="05.743186"><ele>1.3</ele><time>2021-02-17T16:07:40Z</time><name>PT14181</name></trkpt>
<trkpt lat="53.450339" lon="05.743197"><ele>1.3</ele><time>2021-02-17T16:07:41Z</time><name>PT14182</name></trkpt>
<trkpt lat="53.450340" lon="05.743206"><ele>1.2</ele><time>2021-02-17T16:07:42Z</time><name>PT14183</name></trkpt>
<trkpt lat="53.450339" lon="05.743217"><ele>0.9</ele><time>2021-02-17T16:07:43Z</time><name>PT14184</name></trkpt>
<trkpt lat="53.450340" lon="05.743224"><ele>1</ele><time>2021-02-17T16:07:44Z</time><name>PT14185</name></trkpt>
<trkpt lat="53.450341" lon="05.743232"><ele>0.9</ele><time>2021-02-17T16:07:45Z</time><name>PT14186</name></trkpt>
<trkpt lat="53.450343" lon="05.743245"><ele>1.1</ele><time>2021-02-17T16:07:46Z</time><name>PT14187</name></trkpt>
<trkpt lat="53.450346" lon="05.743256"><ele>1.3</ele><time>2021-02-17T16:07:47Z</time><name>PT14188</name></trkpt>
<trkpt lat="53.450350" lon="05.743267"><ele>1.3</ele><time>2021-02-17T16:07:48Z</time><name>PT14189</name></trkpt>
<trkpt lat="53.450354" lon="05.743281"><ele>1.1</ele><time>2021-02-17T16:07:49Z</time><name>PT14190</name></trkpt>
<trkpt lat="53.450357" lon="05.743296"><ele>1.3</ele><time>2021-02-17T16:07:50Z</time><name>PT14191</name></trkpt>
<trkpt lat="53.450362" lon="05.743310"><ele>1.3</ele><time>2021-02-17T16:07:51Z</time><name>PT14192</name></trkpt>
<trkpt lat="53.450366" lon="05.743322"><ele>1.3</ele><time>2021-02-17T16:07:52Z</time><name>PT14193</name></trkpt>
<trkpt lat="53.450370" lon="05.743333"><ele>1.1</ele><time>2021-02-17T16:07:53Z</time><name>PT14194</name></trkpt>
<trkpt lat="53.450375" lon="05.743346"><ele>1</ele><time>2021-02-17T16:07:54Z</time><name>PT14195</name></trkpt>
<trkpt lat="53.450380" lon="05.743362"><ele>0.9</ele><time>2021-02-17T16:07:55Z</time><name>PT14196</name></trkpt>
<trkpt lat="53.450386" lon="05.743378"><ele>1</ele><time>2021-02-17T16:07:56Z</time><name>PT14197</name></trkpt>
<trkpt lat="53.450389" lon="05.743394"><ele>1.1</ele><time>2021-02-17T16:07:57Z</time><name>PT14198</name></trkpt>
<trkpt lat="53.450395" lon="05.743406"><ele>1.2</ele><time>2021-02-17T16:07:58Z</time><name>PT14199</name></trkpt>
<trkpt lat="53.450400" lon="05.743413"><ele>1.1</ele><time>2021-02-17T16:07:59Z</time><name>PT14200</name></trkpt>
<trkpt lat="53.450404" lon="05.743423"><ele>1.2</ele><time>2021-02-17T16:08:00Z</time><name>PT14201</name></trkpt>
<trkpt lat="53.450408" lon="05.743435"><ele>1.2</ele><time>2021-02-17T16:08:01Z</time><name>PT14202</name></trkpt>
<trkpt lat="53.450409" lon="05.743450"><ele>1.3</ele><time>2021-02-17T16:08:02Z</time><name>PT14203</name></trkpt>
<trkpt lat="53.450410" lon="05.743467"><ele>1.3</ele><time>2021-02-17T16:08:03Z</time><name>PT14204</name></trkpt>
<trkpt lat="53.450412" lon="05.743481"><ele>1.2</ele><time>2021-02-17T16:08:04Z</time><name>PT14205</name></trkpt>
<trkpt lat="53.450416" lon="05.743490"><ele>1.2</ele><time>2021-02-17T16:08:05Z</time><name>PT14206</name></trkpt>
<trkpt lat="53.450418" lon="05.743500"><ele>1.1</ele><time>2021-02-17T16:08:06Z</time><name>PT14207</name></trkpt>
<trkpt lat="53.450420" lon="05.743513"><ele>1.2</ele><time>2021-02-17T16:08:07Z</time><name>PT14208</name></trkpt>
<trkpt lat="53.450422" lon="05.743525"><ele>1.3</ele><time>2021-02-17T16:08:08Z</time><name>PT14209</name></trkpt>
<trkpt lat="53.450424" lon="05.743537"><ele>1.4</ele><time>2021-02-17T16:08:09Z</time><name>PT14210</name></trkpt>
<trkpt lat="53.450427" lon="05.743549"><ele>1.2</ele><time>2021-02-17T16:08:10Z</time><name>PT14211</name></trkpt>
<trkpt lat="53.450430" lon="05.743565"><ele>1.2</ele><time>2021-02-17T16:08:11Z</time><name>PT14212</name></trkpt>
<trkpt lat="53.450432" lon="05.743582"><ele>1.2</ele><time>2021-02-17T16:08:12Z</time><name>PT14213</name></trkpt>
<trkpt lat="53.450433" lon="05.743600"><ele>0.9</ele><time>2021-02-17T16:08:13Z</time><name>PT14214</name></trkpt>
<trkpt lat="53.450435" lon="05.743618"><ele>1.1</ele><time>2021-02-17T16:08:14Z</time><name>PT14215</name></trkpt>
<trkpt lat="53.450438" lon="05.743634"><ele>1.2</ele><time>2021-02-17T16:08:15Z</time><name>PT14216</name></trkpt>
<trkpt lat="53.450441" lon="05.743651"><ele>1.1</ele><time>2021-02-17T16:08:16Z</time><name>PT14217</name></trkpt>
<trkpt lat="53.450445" lon="05.743668"><ele>1.2</ele><time>2021-02-17T16:08:17Z</time><name>PT14218</name></trkpt>
<trkpt lat="53.450448" lon="05.743684"><ele>1.3</ele><time>2021-02-17T16:08:18Z</time><name>PT14219</name></trkpt>
<trkpt lat="53.450450" lon="05.743697"><ele>1</ele><time>2021-02-17T16:08:19Z</time><name>PT14220</name></trkpt>
<trkpt lat="53.450452" lon="05.743711"><ele>1.1</ele><time>2021-02-17T16:08:20Z</time><name>PT14221</name></trkpt>
<trkpt lat="53.450454" lon="05.743727"><ele>1.2</ele><time>2021-02-17T16:08:21Z</time><name>PT14222</name></trkpt>
<trkpt lat="53.450456" lon="05.743745"><ele>1.1</ele><time>2021-02-17T16:08:22Z</time><name>PT14223</name></trkpt>
<trkpt lat="53.450460" lon="05.743760"><ele>1.3</ele><time>2021-02-17T16:08:23Z</time><name>PT14224</name></trkpt>
<trkpt lat="53.450463" lon="05.743775"><ele>1.2</ele><time>2021-02-17T16:08:24Z</time><name>PT14225</name></trkpt>
<trkpt lat="53.450466" lon="05.743790"><ele>1.3</ele><time>2021-02-17T16:08:25Z</time><name>PT14226</name></trkpt>
<trkpt lat="53.450467" lon="05.743804"><ele>1.1</ele><time>2021-02-17T16:08:26Z</time><name>PT14227</name></trkpt>
<trkpt lat="53.450471" lon="05.743819"><ele>1.2</ele><time>2021-02-17T16:08:27Z</time><name>PT14228</name></trkpt>
<trkpt lat="53.450473" lon="05.743837"><ele>1.1</ele><time>2021-02-17T16:08:28Z</time><name>PT14229</name></trkpt>
<trkpt lat="53.450474" lon="05.743855"><ele>0.8</ele><time>2021-02-17T16:08:29Z</time><name>PT14230</name></trkpt>
<trkpt lat="53.450476" lon="05.743869"><ele>0.8</ele><time>2021-02-17T16:08:30Z</time><name>PT14231</name></trkpt>
<trkpt lat="53.450480" lon="05.743885"><ele>0.8</ele><time>2021-02-17T16:08:31Z</time><name>PT14232</name></trkpt>
<trkpt lat="53.450485" lon="05.743903"><ele>1.1</ele><time>2021-02-17T16:08:32Z</time><name>PT14233</name></trkpt>
<trkpt lat="53.450487" lon="05.743917"><ele>1</ele><time>2021-02-17T16:08:33Z</time><name>PT14234</name></trkpt>
<trkpt lat="53.450488" lon="05.743930"><ele>1</ele><time>2021-02-17T16:08:34Z</time><name>PT14235</name></trkpt>
<trkpt lat="53.450491" lon="05.743946"><ele>1.1</ele><time>2021-02-17T16:08:35Z</time><name>PT14236</name></trkpt>
<trkpt lat="53.450494" lon="05.743961"><ele>1.1</ele><time>2021-02-17T16:08:36Z</time><name>PT14237</name></trkpt>
<trkpt lat="53.450499" lon="05.743972"><ele>1.2</ele><time>2021-02-17T16:08:37Z</time><name>PT14238</name></trkpt>
<trkpt lat="53.450503" lon="05.743990"><ele>1.1</ele><time>2021-02-17T16:08:38Z</time><name>PT14239</name></trkpt>
<trkpt lat="53.450507" lon="05.744004"><ele>1.1</ele><time>2021-02-17T16:08:39Z</time><name>PT14240</name></trkpt>
<trkpt lat="53.450509" lon="05.744017"><ele>1.1</ele><time>2021-02-17T16:08:40Z</time><name>PT14241</name></trkpt>
<trkpt lat="53.450513" lon="05.744034"><ele>1.2</ele><time>2021-02-17T16:08:41Z</time><name>PT14242</name></trkpt>
<trkpt lat="53.450518" lon="05.744048"><ele>1.1</ele><time>2021-02-17T16:08:42Z</time><name>PT14243</name></trkpt>
<trkpt lat="53.450523" lon="05.744063"><ele>1.1</ele><time>2021-02-17T16:08:43Z</time><name>PT14244</name></trkpt>
<trkpt lat="53.450531" lon="05.744078"><ele>0.9</ele><time>2021-02-17T16:08:44Z</time><name>PT14245</name></trkpt>
<trkpt lat="53.450538" lon="05.744091"><ele>0.9</ele><time>2021-02-17T16:08:45Z</time><name>PT14246</name></trkpt>
<trkpt lat="53.450544" lon="05.744102"><ele>0.8</ele><time>2021-02-17T16:08:46Z</time><name>PT14247</name></trkpt>
<trkpt lat="53.450550" lon="05.744116"><ele>0.8</ele><time>2021-02-17T16:08:47Z</time><name>PT14248</name></trkpt>
<trkpt lat="53.450553" lon="05.744131"><ele>0.9</ele><time>2021-02-17T16:08:48Z</time><name>PT14249</name></trkpt>
<trkpt lat="53.450558" lon="05.744146"><ele>1</ele><time>2021-02-17T16:08:49Z</time><name>PT14250</name></trkpt>
<trkpt lat="53.450563" lon="05.744157"><ele>0.9</ele><time>2021-02-17T16:08:50Z</time><name>PT14251</name></trkpt>
<trkpt lat="53.450567" lon="05.744171"><ele>1</ele><time>2021-02-17T16:08:51Z</time><name>PT14252</name></trkpt>
<trkpt lat="53.450573" lon="05.744189"><ele>1.1</ele><time>2021-02-17T16:08:52Z</time><name>PT14253</name></trkpt>
<trkpt lat="53.450579" lon="05.744207"><ele>1</ele><time>2021-02-17T16:08:53Z</time><name>PT14254</name></trkpt>
<trkpt lat="53.450583" lon="05.744222"><ele>1</ele><time>2021-02-17T16:08:54Z</time><name>PT14255</name></trkpt>
<trkpt lat="53.450585" lon="05.744235"><ele>1.1</ele><time>2021-02-17T16:08:55Z</time><name>PT14256</name></trkpt>
<trkpt lat="53.450585" lon="05.744248"><ele>0.8</ele><time>2021-02-17T16:08:56Z</time><name>PT14257</name></trkpt>
<trkpt lat="53.450586" lon="05.744261"><ele>0.8</ele><time>2021-02-17T16:08:57Z</time><name>PT14258</name></trkpt>
<trkpt lat="53.450588" lon="05.744271"><ele>0.8</ele><time>2021-02-17T16:08:58Z</time><name>PT14259</name></trkpt>
<trkpt lat="53.450588" lon="05.744282"><ele>0.8</ele><time>2021-02-17T16:08:59Z</time><name>PT14260</name></trkpt>
<trkpt lat="53.450593" lon="05.744298"><ele>0.9</ele><time>2021-02-17T16:09:00Z</time><name>PT14261</name></trkpt>
<trkpt lat="53.450594" lon="05.744309"><ele>1</ele><time>2021-02-17T16:09:01Z</time><name>PT14262</name></trkpt>
<trkpt lat="53.450598" lon="05.744324"><ele>1.2</ele><time>2021-02-17T16:09:02Z</time><name>PT14263</name></trkpt>
<trkpt lat="53.450601" lon="05.744340"><ele>1.2</ele><time>2021-02-17T16:09:03Z</time><name>PT14264</name></trkpt>
<trkpt lat="53.450604" lon="05.744355"><ele>1.2</ele><time>2021-02-17T16:09:04Z</time><name>PT14265</name></trkpt>
<trkpt lat="53.450609" lon="05.744367"><ele>1.3</ele><time>2021-02-17T16:09:05Z</time><name>PT14266</name></trkpt>
<trkpt lat="53.450615" lon="05.744382"><ele>1.3</ele><time>2021-02-17T16:09:06Z</time><name>PT14267</name></trkpt>
<trkpt lat="53.450620" lon="05.744394"><ele>1.1</ele><time>2021-02-17T16:09:07Z</time><name>PT14268</name></trkpt>
<trkpt lat="53.450623" lon="05.744405"><ele>1.2</ele><time>2021-02-17T16:09:08Z</time><name>PT14269</name></trkpt>
<trkpt lat="53.450628" lon="05.744418"><ele>1.1</ele><time>2021-02-17T16:09:09Z</time><name>PT14270</name></trkpt>
<trkpt lat="53.450634" lon="05.744435"><ele>1.1</ele><time>2021-02-17T16:09:10Z</time><name>PT14271</name></trkpt>
<trkpt lat="53.450638" lon="05.744450"><ele>1</ele><time>2021-02-17T16:09:11Z</time><name>PT14272</name></trkpt>
<trkpt lat="53.450642" lon="05.744466"><ele>1.1</ele><time>2021-02-17T16:09:12Z</time><name>PT14273</name></trkpt>
<trkpt lat="53.450648" lon="05.744479"><ele>1.2</ele><time>2021-02-17T16:09:13Z</time><name>PT14274</name></trkpt>
<trkpt lat="53.450653" lon="05.744493"><ele>1.1</ele><time>2021-02-17T16:09:14Z</time><name>PT14275</name></trkpt>
<trkpt lat="53.450659" lon="05.744508"><ele>1</ele><time>2021-02-17T16:09:15Z</time><name>PT14276</name></trkpt>
<trkpt lat="53.450663" lon="05.744520"><ele>0.9</ele><time>2021-02-17T16:09:16Z</time><name>PT14277</name></trkpt>
<trkpt lat="53.450665" lon="05.744538"><ele>0.9</ele><time>2021-02-17T16:09:17Z</time><name>PT14278</name></trkpt>
<trkpt lat="53.450669" lon="05.744555"><ele>1.2</ele><time>2021-02-17T16:09:18Z</time><name>PT14279</name></trkpt>
<trkpt lat="53.450677" lon="05.744570"><ele>1.3</ele><time>2021-02-17T16:09:19Z</time><name>PT14280</name></trkpt>
<trkpt lat="53.450683" lon="05.744587"><ele>1.5</ele><time>2021-02-17T16:09:20Z</time><name>PT14281</name></trkpt>
<trkpt lat="53.450687" lon="05.744603"><ele>1.5</ele><time>2021-02-17T16:09:21Z</time><name>PT14282</name></trkpt>
<trkpt lat="53.450694" lon="05.744619"><ele>1.3</ele><time>2021-02-17T16:09:22Z</time><name>PT14283</name></trkpt>
<trkpt lat="53.450698" lon="05.744636"><ele>1.2</ele><time>2021-02-17T16:09:23Z</time><name>PT14284</name></trkpt>
<trkpt lat="53.450702" lon="05.744652"><ele>1.1</ele><time>2021-02-17T16:09:24Z</time><name>PT14285</name></trkpt>
<trkpt lat="53.450707" lon="05.744670"><ele>0.8</ele><time>2021-02-17T16:09:25Z</time><name>PT14286</name></trkpt>
<trkpt lat="53.450707" lon="05.744684"><ele>0.8</ele><time>2021-02-17T16:09:26Z</time><name>PT14287</name></trkpt>
<trkpt lat="53.450706" lon="05.744701"><ele>0.8</ele><time>2021-02-17T16:09:27Z</time><name>PT14288</name></trkpt>
<trkpt lat="53.450708" lon="05.744718"><ele>0.8</ele><time>2021-02-17T16:09:28Z</time><name>PT14289</name></trkpt>
<trkpt lat="53.450709" lon="05.744731"><ele>0.9</ele><time>2021-02-17T16:09:29Z</time><name>PT14290</name></trkpt>
<trkpt lat="53.450710" lon="05.744748"><ele>0.8</ele><time>2021-02-17T16:09:30Z</time><name>PT14291</name></trkpt>
<trkpt lat="53.450710" lon="05.744766"><ele>0.8</ele><time>2021-02-17T16:09:31Z</time><name>PT14292</name></trkpt>
<trkpt lat="53.450711" lon="05.744783"><ele>0.8</ele><time>2021-02-17T16:09:32Z</time><name>PT14293</name></trkpt>
<trkpt lat="53.450715" lon="05.744801"><ele>0.8</ele><time>2021-02-17T16:09:33Z</time><name>PT14294</name></trkpt>
<trkpt lat="53.450716" lon="05.744817"><ele>0.8</ele><time>2021-02-17T16:09:34Z</time><name>PT14295</name></trkpt>
<trkpt lat="53.450719" lon="05.744834"><ele>0.6</ele><time>2021-02-17T16:09:35Z</time><name>PT14296</name></trkpt>
<trkpt lat="53.450723" lon="05.744851"><ele>0.6</ele><time>2021-02-17T16:09:36Z</time><name>PT14297</name></trkpt>
<trkpt lat="53.450728" lon="05.744867"><ele>0.6</ele><time>2021-02-17T16:09:37Z</time><name>PT14298</name></trkpt>
<trkpt lat="53.450732" lon="05.744881"><ele>0.5</ele><time>2021-02-17T16:09:38Z</time><name>PT14299</name></trkpt>
<trkpt lat="53.450733" lon="05.744894"><ele>0.5</ele><time>2021-02-17T16:09:39Z</time><name>PT14300</name></trkpt>
<trkpt lat="53.450734" lon="05.744911"><ele>0.5</ele><time>2021-02-17T16:09:40Z</time><name>PT14301</name></trkpt>
<trkpt lat="53.450736" lon="05.744926"><ele>0.4</ele><time>2021-02-17T16:09:41Z</time><name>PT14302</name></trkpt>
<trkpt lat="53.450738" lon="05.744939"><ele>0.5</ele><time>2021-02-17T16:09:42Z</time><name>PT14303</name></trkpt>
<trkpt lat="53.450740" lon="05.744954"><ele>0.4</ele><time>2021-02-17T16:09:43Z</time><name>PT14304</name></trkpt>
<trkpt lat="53.450742" lon="05.744969"><ele>0.4</ele><time>2021-02-17T16:09:44Z</time><name>PT14305</name></trkpt>
<trkpt lat="53.450748" lon="05.744986"><ele>0.4</ele><time>2021-02-17T16:09:45Z</time><name>PT14306</name></trkpt>
<trkpt lat="53.450752" lon="05.745001"><ele>0.3</ele><time>2021-02-17T16:09:46Z</time><name>PT14307</name></trkpt>
<trkpt lat="53.450756" lon="05.745017"><ele>0.3</ele><time>2021-02-17T16:09:47Z</time><name>PT14308</name></trkpt>
<trkpt lat="53.450756" lon="05.745034"><ele>0.3</ele><time>2021-02-17T16:09:48Z</time><name>PT14309</name></trkpt>
<trkpt lat="53.450756" lon="05.745050"><ele>0.3</ele><time>2021-02-17T16:09:49Z</time><name>PT14310</name></trkpt>
<trkpt lat="53.450757" lon="05.745066"><ele>0.4</ele><time>2021-02-17T16:09:50Z</time><name>PT14311</name></trkpt>
<trkpt lat="53.450761" lon="05.745082"><ele>0.6</ele><time>2021-02-17T16:09:51Z</time><name>PT14312</name></trkpt>
<trkpt lat="53.450766" lon="05.745097"><ele>0.5</ele><time>2021-02-17T16:09:52Z</time><name>PT14313</name></trkpt>
<trkpt lat="53.450768" lon="05.745112"><ele>0.4</ele><time>2021-02-17T16:09:53Z</time><name>PT14314</name></trkpt>
<trkpt lat="53.450772" lon="05.745128"><ele>0.5</ele><time>2021-02-17T16:09:54Z</time><name>PT14315</name></trkpt>
<trkpt lat="53.450775" lon="05.745141"><ele>0.3</ele><time>2021-02-17T16:09:55Z</time><name>PT14316</name></trkpt>
<trkpt lat="53.450779" lon="05.745153"><ele>0.2</ele><time>2021-02-17T16:09:56Z</time><name>PT14317</name></trkpt>
<trkpt lat="53.450782" lon="05.745167"><ele>0.3</ele><time>2021-02-17T16:09:57Z</time><name>PT14318</name></trkpt>
<trkpt lat="53.450786" lon="05.745185"><ele>0.3</ele><time>2021-02-17T16:09:58Z</time><name>PT14319</name></trkpt>
<trkpt lat="53.450789" lon="05.745202"><ele>0.4</ele><time>2021-02-17T16:09:59Z</time><name>PT14320</name></trkpt>
<trkpt lat="53.450793" lon="05.745215"><ele>0.5</ele><time>2021-02-17T16:10:00Z</time><name>PT14321</name></trkpt>
<trkpt lat="53.450797" lon="05.745229"><ele>0.7</ele><time>2021-02-17T16:10:01Z</time><name>PT14322</name></trkpt>
<trkpt lat="53.450800" lon="05.745245"><ele>0.8</ele><time>2021-02-17T16:10:02Z</time><name>PT14323</name></trkpt>
<trkpt lat="53.450803" lon="05.745259"><ele>0.8</ele><time>2021-02-17T16:10:03Z</time><name>PT14324</name></trkpt>
<trkpt lat="53.450807" lon="05.745272"><ele>0.7</ele><time>2021-02-17T16:10:04Z</time><name>PT14325</name></trkpt>
<trkpt lat="53.450809" lon="05.745284"><ele>0.8</ele><time>2021-02-17T16:10:05Z</time><name>PT14326</name></trkpt>
<trkpt lat="53.450814" lon="05.745301"><ele>0.7</ele><time>2021-02-17T16:10:06Z</time><name>PT14327</name></trkpt>
<trkpt lat="53.450818" lon="05.745311"><ele>0.7</ele><time>2021-02-17T16:10:07Z</time><name>PT14328</name></trkpt>
<trkpt lat="53.450824" lon="05.745323"><ele>0.6</ele><time>2021-02-17T16:10:08Z</time><name>PT14329</name></trkpt>
<trkpt lat="53.450830" lon="05.745337"><ele>0.7</ele><time>2021-02-17T16:10:09Z</time><name>PT14330</name></trkpt>
<trkpt lat="53.450836" lon="05.745353"><ele>0.7</ele><time>2021-02-17T16:10:10Z</time><name>PT14331</name></trkpt>
<trkpt lat="53.450842" lon="05.745368"><ele>0.8</ele><time>2021-02-17T16:10:11Z</time><name>PT14332</name></trkpt>
<trkpt lat="53.450849" lon="05.745381"><ele>0.7</ele><time>2021-02-17T16:10:12Z</time><name>PT14333</name></trkpt>
<trkpt lat="53.450854" lon="05.745396"><ele>0.6</ele><time>2021-02-17T16:10:13Z</time><name>PT14334</name></trkpt>
<trkpt lat="53.450859" lon="05.745412"><ele>0.7</ele><time>2021-02-17T16:10:14Z</time><name>PT14335</name></trkpt>
<trkpt lat="53.450864" lon="05.745429"><ele>0.8</ele><time>2021-02-17T16:10:15Z</time><name>PT14336</name></trkpt>
<trkpt lat="53.450872" lon="05.745442"><ele>0.8</ele><time>2021-02-17T16:10:16Z</time><name>PT14337</name></trkpt>
<trkpt lat="53.450878" lon="05.745455"><ele>0.9</ele><time>2021-02-17T16:10:17Z</time><name>PT14338</name></trkpt>
<trkpt lat="53.450884" lon="05.745470"><ele>1</ele><time>2021-02-17T16:10:18Z</time><name>PT14339</name></trkpt>
<trkpt lat="53.450888" lon="05.745485"><ele>0.7</ele><time>2021-02-17T16:10:19Z</time><name>PT14340</name></trkpt>
<trkpt lat="53.450893" lon="05.745501"><ele>0.6</ele><time>2021-02-17T16:10:20Z</time><name>PT14341</name></trkpt>
<trkpt lat="53.450896" lon="05.745516"><ele>0.4</ele><time>2021-02-17T16:10:21Z</time><name>PT14342</name></trkpt>
<trkpt lat="53.450901" lon="05.745532"><ele>0.4</ele><time>2021-02-17T16:10:22Z</time><name>PT14343</name></trkpt>
<trkpt lat="53.450907" lon="05.745546"><ele>0.5</ele><time>2021-02-17T16:10:23Z</time><name>PT14344</name></trkpt>
<trkpt lat="53.450912" lon="05.745558"><ele>0.7</ele><time>2021-02-17T16:10:24Z</time><name>PT14345</name></trkpt>
<trkpt lat="53.450918" lon="05.745571"><ele>0.8</ele><time>2021-02-17T16:10:25Z</time><name>PT14346</name></trkpt>
<trkpt lat="53.450924" lon="05.745584"><ele>0.8</ele><time>2021-02-17T16:10:26Z</time><name>PT14347</name></trkpt>
<trkpt lat="53.450931" lon="05.745597"><ele>0.8</ele><time>2021-02-17T16:10:27Z</time><name>PT14348</name></trkpt>
<trkpt lat="53.450937" lon="05.745612"><ele>0.7</ele><time>2021-02-17T16:10:28Z</time><name>PT14349</name></trkpt>
<trkpt lat="53.450940" lon="05.745626"><ele>0.5</ele><time>2021-02-17T16:10:29Z</time><name>PT14350</name></trkpt>
<trkpt lat="53.450945" lon="05.745640"><ele>0.4</ele><time>2021-02-17T16:10:30Z</time><name>PT14351</name></trkpt>
<trkpt lat="53.450949" lon="05.745655"><ele>0.4</ele><time>2021-02-17T16:10:31Z</time><name>PT14352</name></trkpt>
<trkpt lat="53.450953" lon="05.745668"><ele>0.7</ele><time>2021-02-17T16:10:32Z</time><name>PT14353</name></trkpt>
<trkpt lat="53.450958" lon="05.745681"><ele>0.8</ele><time>2021-02-17T16:10:33Z</time><name>PT14354</name></trkpt>
<trkpt lat="53.450966" lon="05.745694"><ele>0.7</ele><time>2021-02-17T16:10:34Z</time><name>PT14355</name></trkpt>
<trkpt lat="53.450971" lon="05.745708"><ele>0.7</ele><time>2021-02-17T16:10:35Z</time><name>PT14356</name></trkpt>
<trkpt lat="53.450976" lon="05.745722"><ele>0.6</ele><time>2021-02-17T16:10:36Z</time><name>PT14357</name></trkpt>
<trkpt lat="53.450980" lon="05.745736"><ele>0.6</ele><time>2021-02-17T16:10:37Z</time><name>PT14358</name></trkpt>
<trkpt lat="53.450983" lon="05.745750"><ele>0.8</ele><time>2021-02-17T16:10:38Z</time><name>PT14359</name></trkpt>
<trkpt lat="53.450987" lon="05.745762"><ele>0.8</ele><time>2021-02-17T16:10:39Z</time><name>PT14360</name></trkpt>
<trkpt lat="53.450994" lon="05.745774"><ele>0.7</ele><time>2021-02-17T16:10:40Z</time><name>PT14361</name></trkpt>
<trkpt lat="53.451002" lon="05.745784"><ele>0.6</ele><time>2021-02-17T16:10:41Z</time><name>PT14362</name></trkpt>
<trkpt lat="53.451010" lon="05.745794"><ele>0.6</ele><time>2021-02-17T16:10:42Z</time><name>PT14363</name></trkpt>
<trkpt lat="53.451015" lon="05.745807"><ele>0.7</ele><time>2021-02-17T16:10:43Z</time><name>PT14364</name></trkpt>
<trkpt lat="53.451018" lon="05.745821"><ele>0.8</ele><time>2021-02-17T16:10:44Z</time><name>PT14365</name></trkpt>
<trkpt lat="53.451021" lon="05.745832"><ele>0.8</ele><time>2021-02-17T16:10:45Z</time><name>PT14366</name></trkpt>
<trkpt lat="53.451024" lon="05.745842"><ele>0.8</ele><time>2021-02-17T16:10:46Z</time><name>PT14367</name></trkpt>
<trkpt lat="53.451028" lon="05.745853"><ele>0.7</ele><time>2021-02-17T16:10:47Z</time><name>PT14368</name></trkpt>
<trkpt lat="53.451032" lon="05.745865"><ele>0.8</ele><time>2021-02-17T16:10:48Z</time><name>PT14369</name></trkpt>
<trkpt lat="53.451037" lon="05.745876"><ele>0.8</ele><time>2021-02-17T16:10:49Z</time><name>PT14370</name></trkpt>
<trkpt lat="53.451043" lon="05.745888"><ele>1</ele><time>2021-02-17T16:10:50Z</time><name>PT14371</name></trkpt>
<trkpt lat="53.451046" lon="05.745902"><ele>1.1</ele><time>2021-02-17T16:10:51Z</time><name>PT14372</name></trkpt>
<trkpt lat="53.451047" lon="05.745914"><ele>1.2</ele><time>2021-02-17T16:10:52Z</time><name>PT14373</name></trkpt>
<trkpt lat="53.451052" lon="05.745928"><ele>1.1</ele><time>2021-02-17T16:10:53Z</time><name>PT14374</name></trkpt>
<trkpt lat="53.451059" lon="05.745941"><ele>1</ele><time>2021-02-17T16:10:54Z</time><name>PT14375</name></trkpt>
<trkpt lat="53.451064" lon="05.745948"><ele>0.9</ele><time>2021-02-17T16:10:55Z</time><name>PT14376</name></trkpt>
<trkpt lat="53.451065" lon="05.745953"><ele>0.8</ele><time>2021-02-17T16:10:56Z</time><name>PT14377</name></trkpt>
<trkpt lat="53.451066" lon="05.745959"><ele>0.9</ele><time>2021-02-17T16:10:57Z</time><name>PT14378</name></trkpt>
<trkpt lat="53.451071" lon="05.745966"><ele>0.8</ele><time>2021-02-17T16:10:58Z</time><name>PT14379</name></trkpt>
<trkpt lat="53.451077" lon="05.745978"><ele>0.9</ele><time>2021-02-17T16:10:59Z</time><name>PT14380</name></trkpt>
<trkpt lat="53.451081" lon="05.745991"><ele>0.9</ele><time>2021-02-17T16:11:00Z</time><name>PT14381</name></trkpt>
<trkpt lat="53.451088" lon="05.746006"><ele>0.8</ele><time>2021-02-17T16:11:01Z</time><name>PT14382</name></trkpt>
<trkpt lat="53.451095" lon="05.746022"><ele>0.8</ele><time>2021-02-17T16:11:02Z</time><name>PT14383</name></trkpt>
<trkpt lat="53.451100" lon="05.746036"><ele>0.8</ele><time>2021-02-17T16:11:03Z</time><name>PT14384</name></trkpt>
<trkpt lat="53.451106" lon="05.746049"><ele>0.5</ele><time>2021-02-17T16:11:04Z</time><name>PT14385</name></trkpt>
<trkpt lat="53.451112" lon="05.746061"><ele>0.5</ele><time>2021-02-17T16:11:05Z</time><name>PT14386</name></trkpt>
<trkpt lat="53.451119" lon="05.746075"><ele>0.4</ele><time>2021-02-17T16:11:06Z</time><name>PT14387</name></trkpt>
<trkpt lat="53.451127" lon="05.746089"><ele>0.4</ele><time>2021-02-17T16:11:07Z</time><name>PT14388</name></trkpt>
<trkpt lat="53.451134" lon="05.746102"><ele>0.4</ele><time>2021-02-17T16:11:08Z</time><name>PT14389</name></trkpt>
<trkpt lat="53.451140" lon="05.746116"><ele>0.3</ele><time>2021-02-17T16:11:09Z</time><name>PT14390</name></trkpt>
<trkpt lat="53.451145" lon="05.746130"><ele>0.2</ele><time>2021-02-17T16:11:10Z</time><name>PT14391</name></trkpt>
<trkpt lat="53.451148" lon="05.746146"><ele>0</ele><time>2021-02-17T16:11:11Z</time><name>PT14392</name></trkpt>
<trkpt lat="53.451151" lon="05.746161"><ele>0.1</ele><time>2021-02-17T16:11:12Z</time><name>PT14393</name></trkpt>
<trkpt lat="53.451155" lon="05.746175"><ele>0</ele><time>2021-02-17T16:11:13Z</time><name>PT14394</name></trkpt>
<trkpt lat="53.451161" lon="05.746190"><ele>0.3</ele><time>2021-02-17T16:11:14Z</time><name>PT14395</name></trkpt>
<trkpt lat="53.451162" lon="05.746206"><ele>0.3</ele><time>2021-02-17T16:11:15Z</time><name>PT14396</name></trkpt>
<trkpt lat="53.451164" lon="05.746219"><ele>0.4</ele><time>2021-02-17T16:11:16Z</time><name>PT14397</name></trkpt>
<trkpt lat="53.451168" lon="05.746232"><ele>0.4</ele><time>2021-02-17T16:11:17Z</time><name>PT14398</name></trkpt>
<trkpt lat="53.451169" lon="05.746247"><ele>0.3</ele><time>2021-02-17T16:11:18Z</time><name>PT14399</name></trkpt>
<trkpt lat="53.451169" lon="05.746263"><ele>0.2</ele><time>2021-02-17T16:11:19Z</time><name>PT14400</name></trkpt>
<trkpt lat="53.451174" lon="05.746279"><ele>0.3</ele><time>2021-02-17T16:11:20Z</time><name>PT14401</name></trkpt>
<trkpt lat="53.451178" lon="05.746294"><ele>0.2</ele><time>2021-02-17T16:11:21Z</time><name>PT14402</name></trkpt>
<trkpt lat="53.451181" lon="05.746310"><ele>0.4</ele><time>2021-02-17T16:11:22Z</time><name>PT14403</name></trkpt>
<trkpt lat="53.451184" lon="05.746326"><ele>0.3</ele><time>2021-02-17T16:11:23Z</time><name>PT14404</name></trkpt>
<trkpt lat="53.451189" lon="05.746340"><ele>0.3</ele><time>2021-02-17T16:11:24Z</time><name>PT14405</name></trkpt>
<trkpt lat="53.451193" lon="05.746353"><ele>0.4</ele><time>2021-02-17T16:11:25Z</time><name>PT14406</name></trkpt>
<trkpt lat="53.451196" lon="05.746368"><ele>0.2</ele><time>2021-02-17T16:11:26Z</time><name>PT14407</name></trkpt>
<trkpt lat="53.451196" lon="05.746383"><ele>0.3</ele><time>2021-02-17T16:11:27Z</time><name>PT14408</name></trkpt>
<trkpt lat="53.451196" lon="05.746397"><ele>0.1</ele><time>2021-02-17T16:11:28Z</time><name>PT14409</name></trkpt>
<trkpt lat="53.451199" lon="05.746411"><ele>0</ele><time>2021-02-17T16:11:29Z</time><name>PT14410</name></trkpt>
<trkpt lat="53.451200" lon="05.746427"><ele>0.1</ele><time>2021-02-17T16:11:30Z</time><name>PT14411</name></trkpt>
<trkpt lat="53.451203" lon="05.746442"><ele>0.1</ele><time>2021-02-17T16:11:31Z</time><name>PT14412</name></trkpt>
<trkpt lat="53.451207" lon="05.746455"><ele>0.2</ele><time>2021-02-17T16:11:32Z</time><name>PT14413</name></trkpt>
<trkpt lat="53.451212" lon="05.746465"><ele>0.2</ele><time>2021-02-17T16:11:33Z</time><name>PT14414</name></trkpt>
<trkpt lat="53.451216" lon="05.746477"><ele>0</ele><time>2021-02-17T16:11:34Z</time><name>PT14415</name></trkpt>
<trkpt lat="53.451222" lon="05.746491"><ele>0.1</ele><time>2021-02-17T16:11:35Z</time><name>PT14416</name></trkpt>
<trkpt lat="53.451226" lon="05.746506"><ele>0</ele><time>2021-02-17T16:11:36Z</time><name>PT14417</name></trkpt>
<trkpt lat="53.451229" lon="05.746520"><ele>0</ele><time>2021-02-17T16:11:37Z</time><name>PT14418</name></trkpt>
<trkpt lat="53.451234" lon="05.746535"><ele>0.2</ele><time>2021-02-17T16:11:38Z</time><name>PT14419</name></trkpt>
<trkpt lat="53.451239" lon="05.746549"><ele>0.1</ele><time>2021-02-17T16:11:39Z</time><name>PT14420</name></trkpt>
<trkpt lat="53.451242" lon="05.746560"><ele>0.2</ele><time>2021-02-17T16:11:40Z</time><name>PT14421</name></trkpt>
<trkpt lat="53.451247" lon="05.746572"><ele>0.4</ele><time>2021-02-17T16:11:41Z</time><name>PT14422</name></trkpt>
<trkpt lat="53.451252" lon="05.746588"><ele>0.5</ele><time>2021-02-17T16:11:42Z</time><name>PT14423</name></trkpt>
<trkpt lat="53.451258" lon="05.746601"><ele>0.5</ele><time>2021-02-17T16:11:43Z</time><name>PT14424</name></trkpt>
<trkpt lat="53.451264" lon="05.746610"><ele>0.8</ele><time>2021-02-17T16:11:44Z</time><name>PT14425</name></trkpt>
<trkpt lat="53.451271" lon="05.746622"><ele>0.8</ele><time>2021-02-17T16:11:45Z</time><name>PT14426</name></trkpt>
<trkpt lat="53.451278" lon="05.746634"><ele>0.7</ele><time>2021-02-17T16:11:46Z</time><name>PT14427</name></trkpt>
<trkpt lat="53.451283" lon="05.746646"><ele>0.8</ele><time>2021-02-17T16:11:47Z</time><name>PT14428</name></trkpt>
<trkpt lat="53.451289" lon="05.746660"><ele>0.7</ele><time>2021-02-17T16:11:48Z</time><name>PT14429</name></trkpt>
<trkpt lat="53.451295" lon="05.746674"><ele>0.5</ele><time>2021-02-17T16:11:49Z</time><name>PT14430</name></trkpt>
<trkpt lat="53.451301" lon="05.746686"><ele>0.4</ele><time>2021-02-17T16:11:50Z</time><name>PT14431</name></trkpt>
<trkpt lat="53.451307" lon="05.746697"><ele>0.4</ele><time>2021-02-17T16:11:51Z</time><name>PT14432</name></trkpt>
<trkpt lat="53.451313" lon="05.746706"><ele>0.4</ele><time>2021-02-17T16:11:52Z</time><name>PT14433</name></trkpt>
<trkpt lat="53.451321" lon="05.746719"><ele>0.4</ele><time>2021-02-17T16:11:53Z</time><name>PT14434</name></trkpt>
<trkpt lat="53.451328" lon="05.746732"><ele>0.4</ele><time>2021-02-17T16:11:54Z</time><name>PT14435</name></trkpt>
<trkpt lat="53.451334" lon="05.746744"><ele>0.4</ele><time>2021-02-17T16:11:55Z</time><name>PT14436</name></trkpt>
<trkpt lat="53.451341" lon="05.746756"><ele>0.5</ele><time>2021-02-17T16:11:56Z</time><name>PT14437</name></trkpt>
<trkpt lat="53.451348" lon="05.746769"><ele>0.6</ele><time>2021-02-17T16:11:57Z</time><name>PT14438</name></trkpt>
<trkpt lat="53.451353" lon="05.746781"><ele>0.9</ele><time>2021-02-17T16:11:58Z</time><name>PT14439</name></trkpt>
<trkpt lat="53.451359" lon="05.746794"><ele>1.3</ele><time>2021-02-17T16:11:59Z</time><name>PT14440</name></trkpt>
<trkpt lat="53.451365" lon="05.746804"><ele>1.2</ele><time>2021-02-17T16:12:00Z</time><name>PT14441</name></trkpt>
<trkpt lat="53.451369" lon="05.746818"><ele>1.3</ele><time>2021-02-17T16:12:01Z</time><name>PT14442</name></trkpt>
<trkpt lat="53.451370" lon="05.746834"><ele>1.1</ele><time>2021-02-17T16:12:02Z</time><name>PT14443</name></trkpt>
<trkpt lat="53.451371" lon="05.746848"><ele>0.9</ele><time>2021-02-17T16:12:03Z</time><name>PT14444</name></trkpt>
<trkpt lat="53.451374" lon="05.746863"><ele>0.9</ele><time>2021-02-17T16:12:04Z</time><name>PT14445</name></trkpt>
<trkpt lat="53.451376" lon="05.746877"><ele>0.9</ele><time>2021-02-17T16:12:05Z</time><name>PT14446</name></trkpt>
<trkpt lat="53.451374" lon="05.746892"><ele>0.8</ele><time>2021-02-17T16:12:06Z</time><name>PT14447</name></trkpt>
<trkpt lat="53.451369" lon="05.746907"><ele>0.8</ele><time>2021-02-17T16:12:07Z</time><name>PT14448</name></trkpt>
<trkpt lat="53.451365" lon="05.746926"><ele>0.8</ele><time>2021-02-17T16:12:08Z</time><name>PT14449</name></trkpt>
<trkpt lat="53.451364" lon="05.746942"><ele>0.9</ele><time>2021-02-17T16:12:09Z</time><name>PT14450</name></trkpt>
<trkpt lat="53.451366" lon="05.746955"><ele>0.8</ele><time>2021-02-17T16:12:10Z</time><name>PT14451</name></trkpt>
<trkpt lat="53.451367" lon="05.746967"><ele>0.8</ele><time>2021-02-17T16:12:11Z</time><name>PT14452</name></trkpt>
<trkpt lat="53.451367" lon="05.746984"><ele>0.8</ele><time>2021-02-17T16:12:12Z</time><name>PT14453</name></trkpt>
<trkpt lat="53.451367" lon="05.747001"><ele>1</ele><time>2021-02-17T16:12:13Z</time><name>PT14454</name></trkpt>
<trkpt lat="53.451368" lon="05.747018"><ele>1.2</ele><time>2021-02-17T16:12:14Z</time><name>PT14455</name></trkpt>
<trkpt lat="53.451368" lon="05.747033"><ele>1.3</ele><time>2021-02-17T16:12:15Z</time><name>PT14456</name></trkpt>
<trkpt lat="53.451370" lon="05.747048"><ele>1.3</ele><time>2021-02-17T16:12:16Z</time><name>PT14457</name></trkpt>
<trkpt lat="53.451371" lon="05.747061"><ele>1.2</ele><time>2021-02-17T16:12:17Z</time><name>PT14458</name></trkpt>
<trkpt lat="53.451371" lon="05.747077"><ele>1.3</ele><time>2021-02-17T16:12:18Z</time><name>PT14459</name></trkpt>
<trkpt lat="53.451375" lon="05.747095"><ele>1.3</ele><time>2021-02-17T16:12:19Z</time><name>PT14460</name></trkpt>
<trkpt lat="53.451378" lon="05.747111"><ele>1.5</ele><time>2021-02-17T16:12:20Z</time><name>PT14461</name></trkpt>
<trkpt lat="53.451381" lon="05.747124"><ele>1.6</ele><time>2021-02-17T16:12:21Z</time><name>PT14462</name></trkpt>
<trkpt lat="53.451385" lon="05.747138"><ele>1.8</ele><time>2021-02-17T16:12:22Z</time><name>PT14463</name></trkpt>
<trkpt lat="53.451388" lon="05.747152"><ele>1.9</ele><time>2021-02-17T16:12:23Z</time><name>PT14464</name></trkpt>
<trkpt lat="53.451390" lon="05.747165"><ele>1.9</ele><time>2021-02-17T16:12:24Z</time><name>PT14465</name></trkpt>
<trkpt lat="53.451390" lon="05.747179"><ele>2.1</ele><time>2021-02-17T16:12:25Z</time><name>PT14466</name></trkpt>
<trkpt lat="53.451393" lon="05.747192"><ele>2.1</ele><time>2021-02-17T16:12:26Z</time><name>PT14467</name></trkpt>
<trkpt lat="53.451395" lon="05.747207"><ele>2.1</ele><time>2021-02-17T16:12:27Z</time><name>PT14468</name></trkpt>
<trkpt lat="53.451398" lon="05.747221"><ele>2.3</ele><time>2021-02-17T16:12:28Z</time><name>PT14469</name></trkpt>
<trkpt lat="53.451404" lon="05.747236"><ele>2.4</ele><time>2021-02-17T16:12:29Z</time><name>PT14470</name></trkpt>
<trkpt lat="53.451409" lon="05.747252"><ele>2.5</ele><time>2021-02-17T16:12:30Z</time><name>PT14471</name></trkpt>
<trkpt lat="53.451414" lon="05.747269"><ele>2.7</ele><time>2021-02-17T16:12:31Z</time><name>PT14472</name></trkpt>
<trkpt lat="53.451419" lon="05.747285"><ele>2.7</ele><time>2021-02-17T16:12:32Z</time><name>PT14473</name></trkpt>
<trkpt lat="53.451422" lon="05.747297"><ele>2.6</ele><time>2021-02-17T16:12:33Z</time><name>PT14474</name></trkpt>
<trkpt lat="53.451426" lon="05.747313"><ele>2.4</ele><time>2021-02-17T16:12:34Z</time><name>PT14475</name></trkpt>
<trkpt lat="53.451431" lon="05.747331"><ele>2.3</ele><time>2021-02-17T16:12:35Z</time><name>PT14476</name></trkpt>
<trkpt lat="53.451436" lon="05.747347"><ele>2.2</ele><time>2021-02-17T16:12:36Z</time><name>PT14477</name></trkpt>
<trkpt lat="53.451441" lon="05.747362"><ele>2</ele><time>2021-02-17T16:12:37Z</time><name>PT14478</name></trkpt>
<trkpt lat="53.451445" lon="05.747375"><ele>1.8</ele><time>2021-02-17T16:12:38Z</time><name>PT14479</name></trkpt>
<trkpt lat="53.451451" lon="05.747388"><ele>1.8</ele><time>2021-02-17T16:12:39Z</time><name>PT14480</name></trkpt>
<trkpt lat="53.451455" lon="05.747400"><ele>1.8</ele><time>2021-02-17T16:12:40Z</time><name>PT14481</name></trkpt>
<trkpt lat="53.451460" lon="05.747414"><ele>1.8</ele><time>2021-02-17T16:12:41Z</time><name>PT14482</name></trkpt>
<trkpt lat="53.451465" lon="05.747431"><ele>2</ele><time>2021-02-17T16:12:42Z</time><name>PT14483</name></trkpt>
<trkpt lat="53.451470" lon="05.747446"><ele>2.1</ele><time>2021-02-17T16:12:43Z</time><name>PT14484</name></trkpt>
<trkpt lat="53.451474" lon="05.747457"><ele>2</ele><time>2021-02-17T16:12:44Z</time><name>PT14485</name></trkpt>
<trkpt lat="53.451478" lon="05.747471"><ele>2.1</ele><time>2021-02-17T16:12:45Z</time><name>PT14486</name></trkpt>
<trkpt lat="53.451484" lon="05.747487"><ele>1.9</ele><time>2021-02-17T16:12:46Z</time><name>PT14487</name></trkpt>
<trkpt lat="53.451491" lon="05.747500"><ele>1.7</ele><time>2021-02-17T16:12:47Z</time><name>PT14488</name></trkpt>
<trkpt lat="53.451495" lon="05.747512"><ele>1.7</ele><time>2021-02-17T16:12:48Z</time><name>PT14489</name></trkpt>
<trkpt lat="53.451500" lon="05.747526"><ele>1.6</ele><time>2021-02-17T16:12:49Z</time><name>PT14490</name></trkpt>
<trkpt lat="53.451505" lon="05.747543"><ele>1.8</ele><time>2021-02-17T16:12:50Z</time><name>PT14491</name></trkpt>
<trkpt lat="53.451512" lon="05.747560"><ele>1.8</ele><time>2021-02-17T16:12:51Z</time><name>PT14492</name></trkpt>
<trkpt lat="53.451515" lon="05.747573"><ele>1.9</ele><time>2021-02-17T16:12:52Z</time><name>PT14493</name></trkpt>
<trkpt lat="53.451521" lon="05.747586"><ele>2.1</ele><time>2021-02-17T16:12:53Z</time><name>PT14494</name></trkpt>
<trkpt lat="53.451528" lon="05.747601"><ele>1.9</ele><time>2021-02-17T16:12:54Z</time><name>PT14495</name></trkpt>
<trkpt lat="53.451532" lon="05.747614"><ele>1.8</ele><time>2021-02-17T16:12:55Z</time><name>PT14496</name></trkpt>
<trkpt lat="53.451534" lon="05.747629"><ele>1.6</ele><time>2021-02-17T16:12:56Z</time><name>PT14497</name></trkpt>
<trkpt lat="53.451540" lon="05.747644"><ele>1.6</ele><time>2021-02-17T16:12:57Z</time><name>PT14498</name></trkpt>
<trkpt lat="53.451545" lon="05.747660"><ele>1.5</ele><time>2021-02-17T16:12:58Z</time><name>PT14499</name></trkpt>
<trkpt lat="53.451548" lon="05.747676"><ele>1.5</ele><time>2021-02-17T16:12:59Z</time><name>PT14500</name></trkpt>
<trkpt lat="53.451552" lon="05.747690"><ele>1.5</ele><time>2021-02-17T16:13:00Z</time><name>PT14501</name></trkpt>
<trkpt lat="53.451557" lon="05.747703"><ele>1.6</ele><time>2021-02-17T16:13:01Z</time><name>PT14502</name></trkpt>
<trkpt lat="53.451561" lon="05.747716"><ele>1.5</ele><time>2021-02-17T16:13:02Z</time><name>PT14503</name></trkpt>
<trkpt lat="53.451563" lon="05.747729"><ele>1.6</ele><time>2021-02-17T16:13:03Z</time><name>PT14504</name></trkpt>
<trkpt lat="53.451569" lon="05.747744"><ele>1.7</ele><time>2021-02-17T16:13:04Z</time><name>PT14505</name></trkpt>
<trkpt lat="53.451572" lon="05.747757"><ele>1.5</ele><time>2021-02-17T16:13:05Z</time><name>PT14506</name></trkpt>
<trkpt lat="53.451575" lon="05.747768"><ele>1.6</ele><time>2021-02-17T16:13:06Z</time><name>PT14507</name></trkpt>
<trkpt lat="53.451579" lon="05.747783"><ele>1.4</ele><time>2021-02-17T16:13:07Z</time><name>PT14508</name></trkpt>
<trkpt lat="53.451585" lon="05.747800"><ele>1.5</ele><time>2021-02-17T16:13:08Z</time><name>PT14509</name></trkpt>
<trkpt lat="53.451589" lon="05.747813"><ele>1.5</ele><time>2021-02-17T16:13:09Z</time><name>PT14510</name></trkpt>
<trkpt lat="53.451596" lon="05.747829"><ele>1.5</ele><time>2021-02-17T16:13:10Z</time><name>PT14511</name></trkpt>
<trkpt lat="53.451602" lon="05.747844"><ele>1.6</ele><time>2021-02-17T16:13:11Z</time><name>PT14512</name></trkpt>
<trkpt lat="53.451607" lon="05.747861"><ele>1.4</ele><time>2021-02-17T16:13:12Z</time><name>PT14513</name></trkpt>
<trkpt lat="53.451613" lon="05.747874"><ele>1.3</ele><time>2021-02-17T16:13:13Z</time><name>PT14514</name></trkpt>
<trkpt lat="53.451621" lon="05.747884"><ele>1.3</ele><time>2021-02-17T16:13:14Z</time><name>PT14515</name></trkpt>
<trkpt lat="53.451629" lon="05.747895"><ele>1.3</ele><time>2021-02-17T16:13:15Z</time><name>PT14516</name></trkpt>
<trkpt lat="53.451638" lon="05.747905"><ele>1.5</ele><time>2021-02-17T16:13:16Z</time><name>PT14517</name></trkpt>
<trkpt lat="53.451644" lon="05.747915"><ele>1.5</ele><time>2021-02-17T16:13:17Z</time><name>PT14518</name></trkpt>
<trkpt lat="53.451650" lon="05.747927"><ele>1.6</ele><time>2021-02-17T16:13:18Z</time><name>PT14519</name></trkpt>
<trkpt lat="53.451656" lon="05.747942"><ele>1.4</ele><time>2021-02-17T16:13:19Z</time><name>PT14520</name></trkpt>
<trkpt lat="53.451662" lon="05.747957"><ele>1.3</ele><time>2021-02-17T16:13:20Z</time><name>PT14521</name></trkpt>
<trkpt lat="53.451669" lon="05.747971"><ele>1.2</ele><time>2021-02-17T16:13:21Z</time><name>PT14522</name></trkpt>
<trkpt lat="53.451674" lon="05.747984"><ele>1.1</ele><time>2021-02-17T16:13:22Z</time><name>PT14523</name></trkpt>
<trkpt lat="53.451679" lon="05.747997"><ele>1.1</ele><time>2021-02-17T16:13:23Z</time><name>PT14524</name></trkpt>
<trkpt lat="53.451683" lon="05.748009"><ele>1.3</ele><time>2021-02-17T16:13:24Z</time><name>PT14525</name></trkpt>
<trkpt lat="53.451686" lon="05.748023"><ele>1.4</ele><time>2021-02-17T16:13:25Z</time><name>PT14526</name></trkpt>
<trkpt lat="53.451688" lon="05.748037"><ele>1.6</ele><time>2021-02-17T16:13:26Z</time><name>PT14527</name></trkpt>
<trkpt lat="53.451692" lon="05.748053"><ele>1.6</ele><time>2021-02-17T16:13:27Z</time><name>PT14528</name></trkpt>
<trkpt lat="53.451696" lon="05.748067"><ele>1.8</ele><time>2021-02-17T16:13:28Z</time><name>PT14529</name></trkpt>
<trkpt lat="53.451700" lon="05.748080"><ele>1.8</ele><time>2021-02-17T16:13:29Z</time><name>PT14530</name></trkpt>
<trkpt lat="53.451702" lon="05.748090"><ele>1.8</ele><time>2021-02-17T16:13:30Z</time><name>PT14531</name></trkpt>
<trkpt lat="53.451705" lon="05.748102"><ele>1.7</ele><time>2021-02-17T16:13:31Z</time><name>PT14532</name></trkpt>
<trkpt lat="53.451709" lon="05.748116"><ele>1.8</ele><time>2021-02-17T16:13:32Z</time><name>PT14533</name></trkpt>
<trkpt lat="53.451715" lon="05.748128"><ele>1.9</ele><time>2021-02-17T16:13:33Z</time><name>PT14534</name></trkpt>
<trkpt lat="53.451719" lon="05.748141"><ele>1.9</ele><time>2021-02-17T16:13:34Z</time><name>PT14535</name></trkpt>
<trkpt lat="53.451724" lon="05.748155"><ele>2.1</ele><time>2021-02-17T16:13:35Z</time><name>PT14536</name></trkpt>
<trkpt lat="53.451727" lon="05.748167"><ele>2</ele><time>2021-02-17T16:13:36Z</time><name>PT14537</name></trkpt>
<trkpt lat="53.451730" lon="05.748181"><ele>2.2</ele><time>2021-02-17T16:13:37Z</time><name>PT14538</name></trkpt>
<trkpt lat="53.451733" lon="05.748197"><ele>2.3</ele><time>2021-02-17T16:13:38Z</time><name>PT14539</name></trkpt>
<trkpt lat="53.451736" lon="05.748214"><ele>2</ele><time>2021-02-17T16:13:39Z</time><name>PT14540</name></trkpt>
<trkpt lat="53.451740" lon="05.748228"><ele>2.2</ele><time>2021-02-17T16:13:40Z</time><name>PT14541</name></trkpt>
<trkpt lat="53.451745" lon="05.748241"><ele>2.3</ele><time>2021-02-17T16:13:41Z</time><name>PT14542</name></trkpt>
<trkpt lat="53.451748" lon="05.748253"><ele>2.3</ele><time>2021-02-17T16:13:42Z</time><name>PT14543</name></trkpt>
<trkpt lat="53.451753" lon="05.748267"><ele>2.3</ele><time>2021-02-17T16:13:43Z</time><name>PT14544</name></trkpt>
<trkpt lat="53.451758" lon="05.748282"><ele>2.3</ele><time>2021-02-17T16:13:44Z</time><name>PT14545</name></trkpt>
<trkpt lat="53.451763" lon="05.748295"><ele>2.2</ele><time>2021-02-17T16:13:45Z</time><name>PT14546</name></trkpt>
<trkpt lat="53.451767" lon="05.748307"><ele>2.3</ele><time>2021-02-17T16:13:46Z</time><name>PT14547</name></trkpt>
<trkpt lat="53.451771" lon="05.748319"><ele>2.1</ele><time>2021-02-17T16:13:47Z</time><name>PT14548</name></trkpt>
<trkpt lat="53.451778" lon="05.748332"><ele>2.1</ele><time>2021-02-17T16:13:48Z</time><name>PT14549</name></trkpt>
<trkpt lat="53.451784" lon="05.748343"><ele>2.1</ele><time>2021-02-17T16:13:49Z</time><name>PT14550</name></trkpt>
<trkpt lat="53.451791" lon="05.748354"><ele>2</ele><time>2021-02-17T16:13:50Z</time><name>PT14551</name></trkpt>
<trkpt lat="53.451798" lon="05.748363"><ele>1.9</ele><time>2021-02-17T16:13:51Z</time><name>PT14552</name></trkpt>
<trkpt lat="53.451804" lon="05.748373"><ele>2.1</ele><time>2021-02-17T16:13:52Z</time><name>PT14553</name></trkpt>
<trkpt lat="53.451812" lon="05.748384"><ele>1.9</ele><time>2021-02-17T16:13:53Z</time><name>PT14554</name></trkpt>
<trkpt lat="53.451820" lon="05.748397"><ele>1.8</ele><time>2021-02-17T16:13:54Z</time><name>PT14555</name></trkpt>
<trkpt lat="53.451828" lon="05.748408"><ele>1.9</ele><time>2021-02-17T16:13:55Z</time><name>PT14556</name></trkpt>
<trkpt lat="53.451835" lon="05.748416"><ele>2</ele><time>2021-02-17T16:13:56Z</time><name>PT14557</name></trkpt>
<trkpt lat="53.451841" lon="05.748423"><ele>1.9</ele><time>2021-02-17T16:13:57Z</time><name>PT14558</name></trkpt>
<trkpt lat="53.451847" lon="05.748434"><ele>2.1</ele><time>2021-02-17T16:13:58Z</time><name>PT14559</name></trkpt>
<trkpt lat="53.451856" lon="05.748448"><ele>1.9</ele><time>2021-02-17T16:13:59Z</time><name>PT14560</name></trkpt>
<trkpt lat="53.451862" lon="05.748459"><ele>1.9</ele><time>2021-02-17T16:14:00Z</time><name>PT14561</name></trkpt>
<trkpt lat="53.451869" lon="05.748471"><ele>1.9</ele><time>2021-02-17T16:14:01Z</time><name>PT14562</name></trkpt>
<trkpt lat="53.451875" lon="05.748484"><ele>1.7</ele><time>2021-02-17T16:14:02Z</time><name>PT14563</name></trkpt>
<trkpt lat="53.451883" lon="05.748497"><ele>1.7</ele><time>2021-02-17T16:14:03Z</time><name>PT14564</name></trkpt>
<trkpt lat="53.451888" lon="05.748506"><ele>1.9</ele><time>2021-02-17T16:14:04Z</time><name>PT14565</name></trkpt>
<trkpt lat="53.451895" lon="05.748515"><ele>1.8</ele><time>2021-02-17T16:14:05Z</time><name>PT14566</name></trkpt>
<trkpt lat="53.451902" lon="05.748528"><ele>1.8</ele><time>2021-02-17T16:14:06Z</time><name>PT14567</name></trkpt>
<trkpt lat="53.451906" lon="05.748540"><ele>1.8</ele><time>2021-02-17T16:14:07Z</time><name>PT14568</name></trkpt>
<trkpt lat="53.451912" lon="05.748555"><ele>1.7</ele><time>2021-02-17T16:14:08Z</time><name>PT14569</name></trkpt>
<trkpt lat="53.451918" lon="05.748569"><ele>1.6</ele><time>2021-02-17T16:14:09Z</time><name>PT14570</name></trkpt>
<trkpt lat="53.451925" lon="05.748582"><ele>1.6</ele><time>2021-02-17T16:14:10Z</time><name>PT14571</name></trkpt>
<trkpt lat="53.451929" lon="05.748594"><ele>1.7</ele><time>2021-02-17T16:14:11Z</time><name>PT14572</name></trkpt>
<trkpt lat="53.451934" lon="05.748604"><ele>1.8</ele><time>2021-02-17T16:14:12Z</time><name>PT14573</name></trkpt>
<trkpt lat="53.451938" lon="05.748612"><ele>1.7</ele><time>2021-02-17T16:14:13Z</time><name>PT14574</name></trkpt>
<trkpt lat="53.451943" lon="05.748624"><ele>1.8</ele><time>2021-02-17T16:14:14Z</time><name>PT14575</name></trkpt>
<trkpt lat="53.451945" lon="05.748635"><ele>1.9</ele><time>2021-02-17T16:14:15Z</time><name>PT14576</name></trkpt>
<trkpt lat="53.451947" lon="05.748649"><ele>1.9</ele><time>2021-02-17T16:14:16Z</time><name>PT14577</name></trkpt>
<trkpt lat="53.451948" lon="05.748661"><ele>2.1</ele><time>2021-02-17T16:14:17Z</time><name>PT14578</name></trkpt>
<trkpt lat="53.451951" lon="05.748674"><ele>2.2</ele><time>2021-02-17T16:14:18Z</time><name>PT14579</name></trkpt>
<trkpt lat="53.451952" lon="05.748687"><ele>2.2</ele><time>2021-02-17T16:14:19Z</time><name>PT14580</name></trkpt>
<trkpt lat="53.451955" lon="05.748704"><ele>2.3</ele><time>2021-02-17T16:14:20Z</time><name>PT14581</name></trkpt>
<trkpt lat="53.451960" lon="05.748722"><ele>2.3</ele><time>2021-02-17T16:14:21Z</time><name>PT14582</name></trkpt>
<trkpt lat="53.451962" lon="05.748736"><ele>2.3</ele><time>2021-02-17T16:14:22Z</time><name>PT14583</name></trkpt>
<trkpt lat="53.451965" lon="05.748750"><ele>2.1</ele><time>2021-02-17T16:14:23Z</time><name>PT14584</name></trkpt>
<trkpt lat="53.451970" lon="05.748761"><ele>2.1</ele><time>2021-02-17T16:14:24Z</time><name>PT14585</name></trkpt>
<trkpt lat="53.451972" lon="05.748773"><ele>2</ele><time>2021-02-17T16:14:25Z</time><name>PT14586</name></trkpt>
<trkpt lat="53.451973" lon="05.748790"><ele>2</ele><time>2021-02-17T16:14:26Z</time><name>PT14587</name></trkpt>
<trkpt lat="53.451973" lon="05.748808"><ele>1.9</ele><time>2021-02-17T16:14:27Z</time><name>PT14588</name></trkpt>
<trkpt lat="53.451973" lon="05.748825"><ele>2</ele><time>2021-02-17T16:14:28Z</time><name>PT14589</name></trkpt>
<trkpt lat="53.451975" lon="05.748840"><ele>2.1</ele><time>2021-02-17T16:14:29Z</time><name>PT14590</name></trkpt>
<trkpt lat="53.451978" lon="05.748853"><ele>2.1</ele><time>2021-02-17T16:14:30Z</time><name>PT14591</name></trkpt>
<trkpt lat="53.451980" lon="05.748865"><ele>2</ele><time>2021-02-17T16:14:31Z</time><name>PT14592</name></trkpt>
<trkpt lat="53.451981" lon="05.748876"><ele>1.9</ele><time>2021-02-17T16:14:32Z</time><name>PT14593</name></trkpt>
<trkpt lat="53.451980" lon="05.748890"><ele>1.8</ele><time>2021-02-17T16:14:33Z</time><name>PT14594</name></trkpt>
<trkpt lat="53.451981" lon="05.748903"><ele>1.7</ele><time>2021-02-17T16:14:34Z</time><name>PT14595</name></trkpt>
<trkpt lat="53.451983" lon="05.748918"><ele>1.7</ele><time>2021-02-17T16:14:35Z</time><name>PT14596</name></trkpt>
<trkpt lat="53.451986" lon="05.748932"><ele>1.6</ele><time>2021-02-17T16:14:36Z</time><name>PT14597</name></trkpt>
<trkpt lat="53.451986" lon="05.748947"><ele>1.7</ele><time>2021-02-17T16:14:37Z</time><name>PT14598</name></trkpt>
<trkpt lat="53.451986" lon="05.748963"><ele>1.8</ele><time>2021-02-17T16:14:38Z</time><name>PT14599</name></trkpt>
<trkpt lat="53.451988" lon="05.748978"><ele>1.7</ele><time>2021-02-17T16:14:39Z</time><name>PT14600</name></trkpt>
<trkpt lat="53.451991" lon="05.748992"><ele>1.8</ele><time>2021-02-17T16:14:40Z</time><name>PT14601</name></trkpt>
<trkpt lat="53.451994" lon="05.749005"><ele>1.8</ele><time>2021-02-17T16:14:41Z</time><name>PT14602</name></trkpt>
<trkpt lat="53.451995" lon="05.749019"><ele>1.8</ele><time>2021-02-17T16:14:42Z</time><name>PT14603</name></trkpt>
<trkpt lat="53.451996" lon="05.749037"><ele>1.6</ele><time>2021-02-17T16:14:43Z</time><name>PT14604</name></trkpt>
<trkpt lat="53.451997" lon="05.749053"><ele>1.7</ele><time>2021-02-17T16:14:44Z</time><name>PT14605</name></trkpt>
<trkpt lat="53.452000" lon="05.749069"><ele>1.7</ele><time>2021-02-17T16:14:45Z</time><name>PT14606</name></trkpt>
<trkpt lat="53.452005" lon="05.749085"><ele>1.6</ele><time>2021-02-17T16:14:46Z</time><name>PT14607</name></trkpt>
<trkpt lat="53.452010" lon="05.749099"><ele>1.8</ele><time>2021-02-17T16:14:47Z</time><name>PT14608</name></trkpt>
<trkpt lat="53.452013" lon="05.749115"><ele>1.7</ele><time>2021-02-17T16:14:48Z</time><name>PT14609</name></trkpt>
<trkpt lat="53.452015" lon="05.749132"><ele>1.8</ele><time>2021-02-17T16:14:49Z</time><name>PT14610</name></trkpt>
<trkpt lat="53.452019" lon="05.749151"><ele>1.9</ele><time>2021-02-17T16:14:50Z</time><name>PT14611</name></trkpt>
<trkpt lat="53.452022" lon="05.749168"><ele>1.9</ele><time>2021-02-17T16:14:51Z</time><name>PT14612</name></trkpt>
<trkpt lat="53.452027" lon="05.749183"><ele>1.9</ele><time>2021-02-17T16:14:52Z</time><name>PT14613</name></trkpt>
<trkpt lat="53.452033" lon="05.749197"><ele>1.8</ele><time>2021-02-17T16:14:53Z</time><name>PT14614</name></trkpt>
<trkpt lat="53.452036" lon="05.749211"><ele>1.8</ele><time>2021-02-17T16:14:54Z</time><name>PT14615</name></trkpt>
<trkpt lat="53.452039" lon="05.749226"><ele>1.8</ele><time>2021-02-17T16:14:55Z</time><name>PT14616</name></trkpt>
<trkpt lat="53.452043" lon="05.749244"><ele>1.9</ele><time>2021-02-17T16:14:56Z</time><name>PT14617</name></trkpt>
<trkpt lat="53.452047" lon="05.749260"><ele>1.8</ele><time>2021-02-17T16:14:57Z</time><name>PT14618</name></trkpt>
<trkpt lat="53.452055" lon="05.749274"><ele>1.9</ele><time>2021-02-17T16:14:58Z</time><name>PT14619</name></trkpt>
<trkpt lat="53.452062" lon="05.749287"><ele>1.9</ele><time>2021-02-17T16:14:59Z</time><name>PT14620</name></trkpt>
<trkpt lat="53.452068" lon="05.749301"><ele>1.8</ele><time>2021-02-17T16:15:00Z</time><name>PT14621</name></trkpt>
<trkpt lat="53.452070" lon="05.749314"><ele>2</ele><time>2021-02-17T16:15:01Z</time><name>PT14622</name></trkpt>
<trkpt lat="53.452075" lon="05.749328"><ele>1.9</ele><time>2021-02-17T16:15:02Z</time><name>PT14623</name></trkpt>
<trkpt lat="53.452078" lon="05.749343"><ele>1.8</ele><time>2021-02-17T16:15:03Z</time><name>PT14624</name></trkpt>
<trkpt lat="53.452082" lon="05.749354"><ele>1.8</ele><time>2021-02-17T16:15:04Z</time><name>PT14625</name></trkpt>
<trkpt lat="53.452086" lon="05.749366"><ele>1.8</ele><time>2021-02-17T16:15:05Z</time><name>PT14626</name></trkpt>
<trkpt lat="53.452091" lon="05.749378"><ele>1.8</ele><time>2021-02-17T16:15:06Z</time><name>PT14627</name></trkpt>
<trkpt lat="53.452096" lon="05.749392"><ele>2</ele><time>2021-02-17T16:15:07Z</time><name>PT14628</name></trkpt>
<trkpt lat="53.452101" lon="05.749406"><ele>2.1</ele><time>2021-02-17T16:15:08Z</time><name>PT14629</name></trkpt>
<trkpt lat="53.452106" lon="05.749422"><ele>2.2</ele><time>2021-02-17T16:15:09Z</time><name>PT14630</name></trkpt>
<trkpt lat="53.452110" lon="05.749436"><ele>2</ele><time>2021-02-17T16:15:10Z</time><name>PT14631</name></trkpt>
<trkpt lat="53.452115" lon="05.749448"><ele>1.9</ele><time>2021-02-17T16:15:11Z</time><name>PT14632</name></trkpt>
<trkpt lat="53.452119" lon="05.749457"><ele>1.9</ele><time>2021-02-17T16:15:12Z</time><name>PT14633</name></trkpt>
<trkpt lat="53.452122" lon="05.749468"><ele>1.8</ele><time>2021-02-17T16:15:13Z</time><name>PT14634</name></trkpt>
<trkpt lat="53.452125" lon="05.749481"><ele>1.9</ele><time>2021-02-17T16:15:14Z</time><name>PT14635</name></trkpt>
<trkpt lat="53.452129" lon="05.749499"><ele>1.9</ele><time>2021-02-17T16:15:15Z</time><name>PT14636</name></trkpt>
<trkpt lat="53.452131" lon="05.749520"><ele>1.9</ele><time>2021-02-17T16:15:16Z</time><name>PT14637</name></trkpt>
<trkpt lat="53.452130" lon="05.749539"><ele>1.8</ele><time>2021-02-17T16:15:17Z</time><name>PT14638</name></trkpt>
<trkpt lat="53.452132" lon="05.749557"><ele>1.7</ele><time>2021-02-17T16:15:18Z</time><name>PT14639</name></trkpt>
<trkpt lat="53.452134" lon="05.749573"><ele>1.6</ele><time>2021-02-17T16:15:19Z</time><name>PT14640</name></trkpt>
<trkpt lat="53.452136" lon="05.749588"><ele>1.7</ele><time>2021-02-17T16:15:20Z</time><name>PT14641</name></trkpt>
<trkpt lat="53.452137" lon="05.749603"><ele>1.6</ele><time>2021-02-17T16:15:21Z</time><name>PT14642</name></trkpt>
<trkpt lat="53.452138" lon="05.749618"><ele>1.7</ele><time>2021-02-17T16:15:22Z</time><name>PT14643</name></trkpt>
<trkpt lat="53.452138" lon="05.749634"><ele>1.7</ele><time>2021-02-17T16:15:23Z</time><name>PT14644</name></trkpt>
<trkpt lat="53.452136" lon="05.749649"><ele>1.8</ele><time>2021-02-17T16:15:24Z</time><name>PT14645</name></trkpt>
<trkpt lat="53.452133" lon="05.749666"><ele>1.8</ele><time>2021-02-17T16:15:25Z</time><name>PT14646</name></trkpt>
<trkpt lat="53.452134" lon="05.749682"><ele>1.8</ele><time>2021-02-17T16:15:26Z</time><name>PT14647</name></trkpt>
<trkpt lat="53.452137" lon="05.749695"><ele>1.8</ele><time>2021-02-17T16:15:27Z</time><name>PT14648</name></trkpt>
<trkpt lat="53.452139" lon="05.749711"><ele>1.9</ele><time>2021-02-17T16:15:28Z</time><name>PT14649</name></trkpt>
<trkpt lat="53.452140" lon="05.749729"><ele>1.8</ele><time>2021-02-17T16:15:29Z</time><name>PT14650</name></trkpt>
<trkpt lat="53.452141" lon="05.749746"><ele>2</ele><time>2021-02-17T16:15:30Z</time><name>PT14651</name></trkpt>
<trkpt lat="53.452140" lon="05.749759"><ele>2.1</ele><time>2021-02-17T16:15:31Z</time><name>PT14652</name></trkpt>
<trkpt lat="53.452142" lon="05.749775"><ele>2.2</ele><time>2021-02-17T16:15:32Z</time><name>PT14653</name></trkpt>
<trkpt lat="53.452144" lon="05.749790"><ele>2.3</ele><time>2021-02-17T16:15:33Z</time><name>PT14654</name></trkpt>
<trkpt lat="53.452147" lon="05.749806"><ele>2.2</ele><time>2021-02-17T16:15:34Z</time><name>PT14655</name></trkpt>
<trkpt lat="53.452152" lon="05.749820"><ele>2.1</ele><time>2021-02-17T16:15:35Z</time><name>PT14656</name></trkpt>
<trkpt lat="53.452155" lon="05.749836"><ele>2.2</ele><time>2021-02-17T16:15:36Z</time><name>PT14657</name></trkpt>
<trkpt lat="53.452156" lon="05.749851"><ele>2.3</ele><time>2021-02-17T16:15:37Z</time><name>PT14658</name></trkpt>
<trkpt lat="53.452157" lon="05.749866"><ele>2.3</ele><time>2021-02-17T16:15:38Z</time><name>PT14659</name></trkpt>
<trkpt lat="53.452159" lon="05.749883"><ele>2.4</ele><time>2021-02-17T16:15:39Z</time><name>PT14660</name></trkpt>
<trkpt lat="53.452160" lon="05.749899"><ele>2.5</ele><time>2021-02-17T16:15:40Z</time><name>PT14661</name></trkpt>
<trkpt lat="53.452162" lon="05.749915"><ele>2.3</ele><time>2021-02-17T16:15:41Z</time><name>PT14662</name></trkpt>
<trkpt lat="53.452165" lon="05.749928"><ele>2.3</ele><time>2021-02-17T16:15:42Z</time><name>PT14663</name></trkpt>
<trkpt lat="53.452167" lon="05.749931"><ele>2.1</ele><time>2021-02-17T16:15:43Z</time><name>PT14664</name></trkpt>
<trkpt lat="53.452167" lon="05.749933"><ele>2.1</ele><time>2021-02-17T16:15:44Z</time><name>PT14665</name></trkpt>
<trkpt lat="53.452168" lon="05.749942"><ele>2.3</ele><time>2021-02-17T16:15:45Z</time><name>PT14666</name></trkpt>
<trkpt lat="53.452168" lon="05.749958"><ele>2.5</ele><time>2021-02-17T16:15:46Z</time><name>PT14667</name></trkpt>
<trkpt lat="53.452167" lon="05.749974"><ele>2.6</ele><time>2021-02-17T16:15:47Z</time><name>PT14668</name></trkpt>
<trkpt lat="53.452167" lon="05.749988"><ele>2.8</ele><time>2021-02-17T16:15:48Z</time><name>PT14669</name></trkpt>
<trkpt lat="53.452169" lon="05.750002"><ele>2.4</ele><time>2021-02-17T16:15:49Z</time><name>PT14670</name></trkpt>
<trkpt lat="53.452176" lon="05.750016"><ele>2.3</ele><time>2021-02-17T16:15:50Z</time><name>PT14671</name></trkpt>
<trkpt lat="53.452180" lon="05.750031"><ele>2.2</ele><time>2021-02-17T16:15:51Z</time><name>PT14672</name></trkpt>
<trkpt lat="53.452183" lon="05.750044"><ele>2.1</ele><time>2021-02-17T16:15:52Z</time><name>PT14673</name></trkpt>
<trkpt lat="53.452186" lon="05.750058"><ele>2.3</ele><time>2021-02-17T16:15:53Z</time><name>PT14674</name></trkpt>
<trkpt lat="53.452187" lon="05.750074"><ele>2.5</ele><time>2021-02-17T16:15:54Z</time><name>PT14675</name></trkpt>
<trkpt lat="53.452190" lon="05.750090"><ele>2.6</ele><time>2021-02-17T16:15:55Z</time><name>PT14676</name></trkpt>
<trkpt lat="53.452192" lon="05.750104"><ele>2.6</ele><time>2021-02-17T16:15:56Z</time><name>PT14677</name></trkpt>
<trkpt lat="53.452194" lon="05.750123"><ele>2.7</ele><time>2021-02-17T16:15:57Z</time><name>PT14678</name></trkpt>
<trkpt lat="53.452197" lon="05.750143"><ele>2.8</ele><time>2021-02-17T16:15:58Z</time><name>PT14679</name></trkpt>
<trkpt lat="53.452203" lon="05.750166"><ele>2.6</ele><time>2021-02-17T16:15:59Z</time><name>PT14680</name></trkpt>
<trkpt lat="53.452206" lon="05.750183"><ele>2.6</ele><time>2021-02-17T16:16:00Z</time><name>PT14681</name></trkpt>
<trkpt lat="53.452207" lon="05.750201"><ele>2.6</ele><time>2021-02-17T16:16:01Z</time><name>PT14682</name></trkpt>
<trkpt lat="53.452205" lon="05.750218"><ele>2.5</ele><time>2021-02-17T16:16:02Z</time><name>PT14683</name></trkpt>
<trkpt lat="53.452205" lon="05.750235"><ele>2.6</ele><time>2021-02-17T16:16:03Z</time><name>PT14684</name></trkpt>
<trkpt lat="53.452205" lon="05.750252"><ele>2.5</ele><time>2021-02-17T16:16:04Z</time><name>PT14685</name></trkpt>
<trkpt lat="53.452206" lon="05.750269"><ele>2.5</ele><time>2021-02-17T16:16:05Z</time><name>PT14686</name></trkpt>
<trkpt lat="53.452207" lon="05.750285"><ele>2.5</ele><time>2021-02-17T16:16:06Z</time><name>PT14687</name></trkpt>
<trkpt lat="53.452210" lon="05.750299"><ele>2.5</ele><time>2021-02-17T16:16:07Z</time><name>PT14688</name></trkpt>
<trkpt lat="53.452212" lon="05.750315"><ele>2.7</ele><time>2021-02-17T16:16:08Z</time><name>PT14689</name></trkpt>
<trkpt lat="53.452216" lon="05.750332"><ele>2.7</ele><time>2021-02-17T16:16:09Z</time><name>PT14690</name></trkpt>
<trkpt lat="53.452219" lon="05.750345"><ele>2.7</ele><time>2021-02-17T16:16:10Z</time><name>PT14691</name></trkpt>
<trkpt lat="53.452221" lon="05.750360"><ele>2.7</ele><time>2021-02-17T16:16:11Z</time><name>PT14692</name></trkpt>
<trkpt lat="53.452222" lon="05.750376"><ele>2.5</ele><time>2021-02-17T16:16:12Z</time><name>PT14693</name></trkpt>
<trkpt lat="53.452222" lon="05.750389"><ele>2.6</ele><time>2021-02-17T16:16:13Z</time><name>PT14694</name></trkpt>
<trkpt lat="53.452223" lon="05.750403"><ele>2.7</ele><time>2021-02-17T16:16:14Z</time><name>PT14695</name></trkpt>
<trkpt lat="53.452229" lon="05.750416"><ele>2.7</ele><time>2021-02-17T16:16:15Z</time><name>PT14696</name></trkpt>
<trkpt lat="53.452232" lon="05.750427"><ele>2.8</ele><time>2021-02-17T16:16:16Z</time><name>PT14697</name></trkpt>
<trkpt lat="53.452234" lon="05.750440"><ele>2.8</ele><time>2021-02-17T16:16:17Z</time><name>PT14698</name></trkpt>
<trkpt lat="53.452235" lon="05.750458"><ele>2.9</ele><time>2021-02-17T16:16:18Z</time><name>PT14699</name></trkpt>
<trkpt lat="53.452234" lon="05.750470"><ele>3</ele><time>2021-02-17T16:16:19Z</time><name>PT14700</name></trkpt>
<trkpt lat="53.452235" lon="05.750482"><ele>3</ele><time>2021-02-17T16:16:20Z</time><name>PT14701</name></trkpt>
<trkpt lat="53.452236" lon="05.750498"><ele>3.1</ele><time>2021-02-17T16:16:21Z</time><name>PT14702</name></trkpt>
<trkpt lat="53.452237" lon="05.750515"><ele>3.2</ele><time>2021-02-17T16:16:22Z</time><name>PT14703</name></trkpt>
<trkpt lat="53.452238" lon="05.750531"><ele>3.6</ele><time>2021-02-17T16:16:23Z</time><name>PT14704</name></trkpt>
<trkpt lat="53.452235" lon="05.750543"><ele>3.7</ele><time>2021-02-17T16:16:24Z</time><name>PT14705</name></trkpt>
<trkpt lat="53.452235" lon="05.750557"><ele>3.6</ele><time>2021-02-17T16:16:25Z</time><name>PT14706</name></trkpt>
<trkpt lat="53.452233" lon="05.750574"><ele>3.7</ele><time>2021-02-17T16:16:26Z</time><name>PT14707</name></trkpt>
<trkpt lat="53.452230" lon="05.750590"><ele>3.5</ele><time>2021-02-17T16:16:27Z</time><name>PT14708</name></trkpt>
<trkpt lat="53.452230" lon="05.750604"><ele>3.4</ele><time>2021-02-17T16:16:28Z</time><name>PT14709</name></trkpt>
<trkpt lat="53.452229" lon="05.750620"><ele>3.6</ele><time>2021-02-17T16:16:29Z</time><name>PT14710</name></trkpt>
<trkpt lat="53.452227" lon="05.750632"><ele>3.7</ele><time>2021-02-17T16:16:30Z</time><name>PT14711</name></trkpt>
<trkpt lat="53.452224" lon="05.750650"><ele>3.9</ele><time>2021-02-17T16:16:31Z</time><name>PT14712</name></trkpt>
<trkpt lat="53.452222" lon="05.750668"><ele>4</ele><time>2021-02-17T16:16:32Z</time><name>PT14713</name></trkpt>
<trkpt lat="53.452220" lon="05.750685"><ele>3.9</ele><time>2021-02-17T16:16:33Z</time><name>PT14714</name></trkpt>
<trkpt lat="53.452222" lon="05.750702"><ele>4</ele><time>2021-02-17T16:16:34Z</time><name>PT14715</name></trkpt>
<trkpt lat="53.452225" lon="05.750720"><ele>3.8</ele><time>2021-02-17T16:16:35Z</time><name>PT14716</name></trkpt>
<trkpt lat="53.452227" lon="05.750735"><ele>3.8</ele><time>2021-02-17T16:16:36Z</time><name>PT14717</name></trkpt>
<trkpt lat="53.452228" lon="05.750751"><ele>3.9</ele><time>2021-02-17T16:16:37Z</time><name>PT14718</name></trkpt>
<trkpt lat="53.452229" lon="05.750769"><ele>4</ele><time>2021-02-17T16:16:38Z</time><name>PT14719</name></trkpt>
<trkpt lat="53.452231" lon="05.750784"><ele>4</ele><time>2021-02-17T16:16:39Z</time><name>PT14720</name></trkpt>
<trkpt lat="53.452234" lon="05.750796"><ele>4.2</ele><time>2021-02-17T16:16:40Z</time><name>PT14721</name></trkpt>
<trkpt lat="53.452238" lon="05.750809"><ele>4</ele><time>2021-02-17T16:16:41Z</time><name>PT14722</name></trkpt>
<trkpt lat="53.452241" lon="05.750820"><ele>4</ele><time>2021-02-17T16:16:42Z</time><name>PT14723</name></trkpt>
<trkpt lat="53.452245" lon="05.750836"><ele>3.9</ele><time>2021-02-17T16:16:43Z</time><name>PT14724</name></trkpt>
<trkpt lat="53.452247" lon="05.750851"><ele>3.7</ele><time>2021-02-17T16:16:44Z</time><name>PT14725</name></trkpt>
<trkpt lat="53.452249" lon="05.750865"><ele>3.8</ele><time>2021-02-17T16:16:45Z</time><name>PT14726</name></trkpt>
<trkpt lat="53.452250" lon="05.750882"><ele>4.1</ele><time>2021-02-17T16:16:46Z</time><name>PT14727</name></trkpt>
<trkpt lat="53.452252" lon="05.750897"><ele>4.1</ele><time>2021-02-17T16:16:47Z</time><name>PT14728</name></trkpt>
<trkpt lat="53.452252" lon="05.750914"><ele>4.2</ele><time>2021-02-17T16:16:48Z</time><name>PT14729</name></trkpt>
<trkpt lat="53.452253" lon="05.750933"><ele>4.1</ele><time>2021-02-17T16:16:49Z</time><name>PT14730</name></trkpt>
<trkpt lat="53.452255" lon="05.750950"><ele>4.2</ele><time>2021-02-17T16:16:50Z</time><name>PT14731</name></trkpt>
<trkpt lat="53.452257" lon="05.750966"><ele>4.2</ele><time>2021-02-17T16:16:51Z</time><name>PT14732</name></trkpt>
<trkpt lat="53.452257" lon="05.750987"><ele>3.9</ele><time>2021-02-17T16:16:52Z</time><name>PT14733</name></trkpt>
<trkpt lat="53.452254" lon="05.751008"><ele>3.7</ele><time>2021-02-17T16:16:53Z</time><name>PT14734</name></trkpt>
<trkpt lat="53.452254" lon="05.751027"><ele>3.7</ele><time>2021-02-17T16:16:54Z</time><name>PT14735</name></trkpt>
<trkpt lat="53.452254" lon="05.751045"><ele>3.5</ele><time>2021-02-17T16:16:55Z</time><name>PT14736</name></trkpt>
<trkpt lat="53.452254" lon="05.751062"><ele>3.3</ele><time>2021-02-17T16:16:56Z</time><name>PT14737</name></trkpt>
<trkpt lat="53.452253" lon="05.751079"><ele>3.3</ele><time>2021-02-17T16:16:57Z</time><name>PT14738</name></trkpt>
<trkpt lat="53.452255" lon="05.751096"><ele>3.4</ele><time>2021-02-17T16:16:58Z</time><name>PT14739</name></trkpt>
<trkpt lat="53.452256" lon="05.751111"><ele>3.4</ele><time>2021-02-17T16:16:59Z</time><name>PT14740</name></trkpt>
<trkpt lat="53.452253" lon="05.751127"><ele>3.6</ele><time>2021-02-17T16:17:00Z</time><name>PT14741</name></trkpt>
<trkpt lat="53.452253" lon="05.751138"><ele>3.6</ele><time>2021-02-17T16:17:01Z</time><name>PT14742</name></trkpt>
<trkpt lat="53.452253" lon="05.751152"><ele>3.7</ele><time>2021-02-17T16:17:02Z</time><name>PT14743</name></trkpt>
<trkpt lat="53.452254" lon="05.751167"><ele>3.7</ele><time>2021-02-17T16:17:03Z</time><name>PT14744</name></trkpt>
<trkpt lat="53.452255" lon="05.751185"><ele>3.7</ele><time>2021-02-17T16:17:04Z</time><name>PT14745</name></trkpt>
<trkpt lat="53.452256" lon="05.751205"><ele>3.8</ele><time>2021-02-17T16:17:05Z</time><name>PT14746</name></trkpt>
<trkpt lat="53.452260" lon="05.751220"><ele>4</ele><time>2021-02-17T16:17:06Z</time><name>PT14747</name></trkpt>
<trkpt lat="53.452263" lon="05.751232"><ele>3.9</ele><time>2021-02-17T16:17:07Z</time><name>PT14748</name></trkpt>
<trkpt lat="53.452263" lon="05.751244"><ele>3.8</ele><time>2021-02-17T16:17:08Z</time><name>PT14749</name></trkpt>
<trkpt lat="53.452264" lon="05.751258"><ele>3.7</ele><time>2021-02-17T16:17:09Z</time><name>PT14750</name></trkpt>
<trkpt lat="53.452269" lon="05.751275"><ele>3.9</ele><time>2021-02-17T16:17:10Z</time><name>PT14751</name></trkpt>
<trkpt lat="53.452274" lon="05.751292"><ele>3.8</ele><time>2021-02-17T16:17:11Z</time><name>PT14752</name></trkpt>
<trkpt lat="53.452281" lon="05.751305"><ele>3.7</ele><time>2021-02-17T16:17:12Z</time><name>PT14753</name></trkpt>
<trkpt lat="53.452286" lon="05.751319"><ele>3.6</ele><time>2021-02-17T16:17:13Z</time><name>PT14754</name></trkpt>
<trkpt lat="53.452290" lon="05.751333"><ele>3.6</ele><time>2021-02-17T16:17:14Z</time><name>PT14755</name></trkpt>
<trkpt lat="53.452293" lon="05.751345"><ele>3.5</ele><time>2021-02-17T16:17:15Z</time><name>PT14756</name></trkpt>
<trkpt lat="53.452296" lon="05.751357"><ele>3.6</ele><time>2021-02-17T16:17:16Z</time><name>PT14757</name></trkpt>
<trkpt lat="53.452299" lon="05.751372"><ele>3.7</ele><time>2021-02-17T16:17:17Z</time><name>PT14758</name></trkpt>
<trkpt lat="53.452303" lon="05.751386"><ele>3.7</ele><time>2021-02-17T16:17:18Z</time><name>PT14759</name></trkpt>
<trkpt lat="53.452308" lon="05.751398"><ele>3.8</ele><time>2021-02-17T16:17:19Z</time><name>PT14760</name></trkpt>
<trkpt lat="53.452314" lon="05.751412"><ele>3.8</ele><time>2021-02-17T16:17:20Z</time><name>PT14761</name></trkpt>
<trkpt lat="53.452320" lon="05.751424"><ele>3.8</ele><time>2021-02-17T16:17:21Z</time><name>PT14762</name></trkpt>
<trkpt lat="53.452325" lon="05.751432"><ele>3.9</ele><time>2021-02-17T16:17:22Z</time><name>PT14763</name></trkpt>
<trkpt lat="53.452327" lon="05.751444"><ele>3.8</ele><time>2021-02-17T16:17:23Z</time><name>PT14764</name></trkpt>
<trkpt lat="53.452331" lon="05.751459"><ele>3.8</ele><time>2021-02-17T16:17:24Z</time><name>PT14765</name></trkpt>
<trkpt lat="53.452333" lon="05.751474"><ele>3.9</ele><time>2021-02-17T16:17:25Z</time><name>PT14766</name></trkpt>
<trkpt lat="53.452338" lon="05.751490"><ele>3.8</ele><time>2021-02-17T16:17:26Z</time><name>PT14767</name></trkpt>
<trkpt lat="53.452344" lon="05.751503"><ele>3.8</ele><time>2021-02-17T16:17:27Z</time><name>PT14768</name></trkpt>
<trkpt lat="53.452349" lon="05.751513"><ele>4</ele><time>2021-02-17T16:17:28Z</time><name>PT14769</name></trkpt>
<trkpt lat="53.452354" lon="05.751525"><ele>4.2</ele><time>2021-02-17T16:17:29Z</time><name>PT14770</name></trkpt>
<trkpt lat="53.452359" lon="05.751539"><ele>4.2</ele><time>2021-02-17T16:17:30Z</time><name>PT14771</name></trkpt>
<trkpt lat="53.452367" lon="05.751557"><ele>4.2</ele><time>2021-02-17T16:17:31Z</time><name>PT14772</name></trkpt>
<trkpt lat="53.452372" lon="05.751568"><ele>4.1</ele><time>2021-02-17T16:17:32Z</time><name>PT14773</name></trkpt>
<trkpt lat="53.452375" lon="05.751575"><ele>4.1</ele><time>2021-02-17T16:17:33Z</time><name>PT14774</name></trkpt>
<trkpt lat="53.452379" lon="05.751586"><ele>4.1</ele><time>2021-02-17T16:17:34Z</time><name>PT14775</name></trkpt>
<trkpt lat="53.452387" lon="05.751598"><ele>3.9</ele><time>2021-02-17T16:17:35Z</time><name>PT14776</name></trkpt>
<trkpt lat="53.452394" lon="05.751611"><ele>4</ele><time>2021-02-17T16:17:36Z</time><name>PT14777</name></trkpt>
<trkpt lat="53.452399" lon="05.751625"><ele>3.8</ele><time>2021-02-17T16:17:37Z</time><name>PT14778</name></trkpt>
<trkpt lat="53.452402" lon="05.751634"><ele>3.9</ele><time>2021-02-17T16:17:38Z</time><name>PT14779</name></trkpt>
<trkpt lat="53.452407" lon="05.751641"><ele>3.9</ele><time>2021-02-17T16:17:39Z</time><name>PT14780</name></trkpt>
<trkpt lat="53.452411" lon="05.751649"><ele>4</ele><time>2021-02-17T16:17:40Z</time><name>PT14781</name></trkpt>
<trkpt lat="53.452416" lon="05.751656"><ele>3.9</ele><time>2021-02-17T16:17:41Z</time><name>PT14782</name></trkpt>
<trkpt lat="53.452422" lon="05.751659"><ele>3.9</ele><time>2021-02-17T16:17:42Z</time><name>PT14783</name></trkpt>
<trkpt lat="53.452429" lon="05.751662"><ele>3.6</ele><time>2021-02-17T16:17:43Z</time><name>PT14784</name></trkpt>
<trkpt lat="53.452435" lon="05.751666"><ele>3.4</ele><time>2021-02-17T16:17:44Z</time><name>PT14785</name></trkpt>
<trkpt lat="53.452443" lon="05.751672"><ele>3.2</ele><time>2021-02-17T16:17:45Z</time><name>PT14786</name></trkpt>
<trkpt lat="53.452451" lon="05.751677"><ele>3.1</ele><time>2021-02-17T16:17:46Z</time><name>PT14787</name></trkpt>
<trkpt lat="53.452456" lon="05.751681"><ele>3.1</ele><time>2021-02-17T16:17:47Z</time><name>PT14788</name></trkpt>
<trkpt lat="53.452462" lon="05.751684"><ele>3</ele><time>2021-02-17T16:17:48Z</time><name>PT14789</name></trkpt>
<trkpt lat="53.452468" lon="05.751691"><ele>2.9</ele><time>2021-02-17T16:17:49Z</time><name>PT14790</name></trkpt>
<trkpt lat="53.452476" lon="05.751699"><ele>2.9</ele><time>2021-02-17T16:17:50Z</time><name>PT14791</name></trkpt>
<trkpt lat="53.452486" lon="05.751706"><ele>3</ele><time>2021-02-17T16:17:51Z</time><name>PT14792</name></trkpt>
<trkpt lat="53.452493" lon="05.751714"><ele>3</ele><time>2021-02-17T16:17:52Z</time><name>PT14793</name></trkpt>
<trkpt lat="53.452499" lon="05.751723"><ele>3</ele><time>2021-02-17T16:17:53Z</time><name>PT14794</name></trkpt>
<trkpt lat="53.452504" lon="05.751732"><ele>3.1</ele><time>2021-02-17T16:17:54Z</time><name>PT14795</name></trkpt>
<trkpt lat="53.452508" lon="05.751739"><ele>2.9</ele><time>2021-02-17T16:17:55Z</time><name>PT14796</name></trkpt>
<trkpt lat="53.452512" lon="05.751754"><ele>3.1</ele><time>2021-02-17T16:17:56Z</time><name>PT14797</name></trkpt>
<trkpt lat="53.452510" lon="05.751770"><ele>3.2</ele><time>2021-02-17T16:17:57Z</time><name>PT14798</name></trkpt>
<trkpt lat="53.452513" lon="05.751783"><ele>3.3</ele><time>2021-02-17T16:17:58Z</time><name>PT14799</name></trkpt>
<trkpt lat="53.452519" lon="05.751796"><ele>3.7</ele><time>2021-02-17T16:17:59Z</time><name>PT14800</name></trkpt>
<trkpt lat="53.452523" lon="05.751813"><ele>3.8</ele><time>2021-02-17T16:18:00Z</time><name>PT14801</name></trkpt>
<trkpt lat="53.452525" lon="05.751832"><ele>3.5</ele><time>2021-02-17T16:18:01Z</time><name>PT14802</name></trkpt>
<trkpt lat="53.452524" lon="05.751849"><ele>3.2</ele><time>2021-02-17T16:18:02Z</time><name>PT14803</name></trkpt>
<trkpt lat="53.452524" lon="05.751861"><ele>3.2</ele><time>2021-02-17T16:18:03Z</time><name>PT14804</name></trkpt>
<trkpt lat="53.452524" lon="05.751871"><ele>2.8</ele><time>2021-02-17T16:18:04Z</time><name>PT14805</name></trkpt>
<trkpt lat="53.452524" lon="05.751883"><ele>2.4</ele><time>2021-02-17T16:18:05Z</time><name>PT14806</name></trkpt>
<trkpt lat="53.452524" lon="05.751897"><ele>2.4</ele><time>2021-02-17T16:18:06Z</time><name>PT14807</name></trkpt>
<trkpt lat="53.452525" lon="05.751911"><ele>2.6</ele><time>2021-02-17T16:18:07Z</time><name>PT14808</name></trkpt>
<trkpt lat="53.452528" lon="05.751924"><ele>3.7</ele><time>2021-02-17T16:18:08Z</time><name>PT14809</name></trkpt>
<trkpt lat="53.452532" lon="05.751931"><ele>4.3</ele><time>2021-02-17T16:18:09Z</time><name>PT14810</name></trkpt>
<trkpt lat="53.452535" lon="05.751939"><ele>5.2</ele><time>2021-02-17T16:18:10Z</time><name>PT14811</name></trkpt>
<trkpt lat="53.452537" lon="05.751949"><ele>5.1</ele><time>2021-02-17T16:18:11Z</time><name>PT14812</name></trkpt>
<trkpt lat="53.452537" lon="05.751960"><ele>4.8</ele><time>2021-02-17T16:18:12Z</time><name>PT14813</name></trkpt>
<trkpt lat="53.452540" lon="05.751967"><ele>3.9</ele><time>2021-02-17T16:18:13Z</time><name>PT14814</name></trkpt>
<trkpt lat="53.452541" lon="05.751975"><ele>3.3</ele><time>2021-02-17T16:18:14Z</time><name>PT14815</name></trkpt>
<trkpt lat="53.452542" lon="05.751986"><ele>3.2</ele><time>2021-02-17T16:18:15Z</time><name>PT14816</name></trkpt>
<trkpt lat="53.452542" lon="05.751998"><ele>3.2</ele><time>2021-02-17T16:18:16Z</time><name>PT14817</name></trkpt>
<trkpt lat="53.452543" lon="05.752010"><ele>3</ele><time>2021-02-17T16:18:17Z</time><name>PT14818</name></trkpt>
<trkpt lat="53.452543" lon="05.752024"><ele>2.9</ele><time>2021-02-17T16:18:18Z</time><name>PT14819</name></trkpt>
<trkpt lat="53.452545" lon="05.752035"><ele>3</ele><time>2021-02-17T16:18:19Z</time><name>PT14820</name></trkpt>
<trkpt lat="53.452546" lon="05.752046"><ele>2.9</ele><time>2021-02-17T16:18:20Z</time><name>PT14821</name></trkpt>
<trkpt lat="53.452547" lon="05.752055"><ele>3</ele><time>2021-02-17T16:18:21Z</time><name>PT14822</name></trkpt>
<trkpt lat="53.452549" lon="05.752060"><ele>2.9</ele><time>2021-02-17T16:18:22Z</time><name>PT14823</name></trkpt>
<trkpt lat="53.452552" lon="05.752068"><ele>2.8</ele><time>2021-02-17T16:18:23Z</time><name>PT14824</name></trkpt>
<trkpt lat="53.452557" lon="05.752080"><ele>2.9</ele><time>2021-02-17T16:18:24Z</time><name>PT14825</name></trkpt>
<trkpt lat="53.452562" lon="05.752093"><ele>2.8</ele><time>2021-02-17T16:18:25Z</time><name>PT14826</name></trkpt>
<trkpt lat="53.452564" lon="05.752106"><ele>2.8</ele><time>2021-02-17T16:18:26Z</time><name>PT14827</name></trkpt>
<trkpt lat="53.452568" lon="05.752120"><ele>2.8</ele><time>2021-02-17T16:18:27Z</time><name>PT14828</name></trkpt>
<trkpt lat="53.452573" lon="05.752133"><ele>2.4</ele><time>2021-02-17T16:18:28Z</time><name>PT14829</name></trkpt>
<trkpt lat="53.452578" lon="05.752145"><ele>2.3</ele><time>2021-02-17T16:18:29Z</time><name>PT14830</name></trkpt>
<trkpt lat="53.452582" lon="05.752155"><ele>2.1</ele><time>2021-02-17T16:18:30Z</time><name>PT14831</name></trkpt>
<trkpt lat="53.452584" lon="05.752165"><ele>1.9</ele><time>2021-02-17T16:18:31Z</time><name>PT14832</name></trkpt>
<trkpt lat="53.452587" lon="05.752172"><ele>2.1</ele><time>2021-02-17T16:18:32Z</time><name>PT14833</name></trkpt>
<trkpt lat="53.452592" lon="05.752181"><ele>2.2</ele><time>2021-02-17T16:18:33Z</time><name>PT14834</name></trkpt>
<trkpt lat="53.452599" lon="05.752192"><ele>2.3</ele><time>2021-02-17T16:18:34Z</time><name>PT14835</name></trkpt>
<trkpt lat="53.452604" lon="05.752205"><ele>2.4</ele><time>2021-02-17T16:18:35Z</time><name>PT14836</name></trkpt>
<trkpt lat="53.452607" lon="05.752220"><ele>2.4</ele><time>2021-02-17T16:18:36Z</time><name>PT14837</name></trkpt>
<trkpt lat="53.452608" lon="05.752236"><ele>2.3</ele><time>2021-02-17T16:18:37Z</time><name>PT14838</name></trkpt>
<trkpt lat="53.452611" lon="05.752245"><ele>2.3</ele><time>2021-02-17T16:18:38Z</time><name>PT14839</name></trkpt>
<trkpt lat="53.452615" lon="05.752254"><ele>2.3</ele><time>2021-02-17T16:18:39Z</time><name>PT14840</name></trkpt>
<trkpt lat="53.452619" lon="05.752261"><ele>2.4</ele><time>2021-02-17T16:18:40Z</time><name>PT14841</name></trkpt>
<trkpt lat="53.452622" lon="05.752268"><ele>2.7</ele><time>2021-02-17T16:18:41Z</time><name>PT14842</name></trkpt>
<trkpt lat="53.452625" lon="05.752277"><ele>2.8</ele><time>2021-02-17T16:18:42Z</time><name>PT14843</name></trkpt>
<trkpt lat="53.452628" lon="05.752290"><ele>3.1</ele><time>2021-02-17T16:18:43Z</time><name>PT14844</name></trkpt>
<trkpt lat="53.452630" lon="05.752298"><ele>3.2</ele><time>2021-02-17T16:18:44Z</time><name>PT14845</name></trkpt>
<trkpt lat="53.452631" lon="05.752308"><ele>3.3</ele><time>2021-02-17T16:18:45Z</time><name>PT14846</name></trkpt>
<trkpt lat="53.452631" lon="05.752320"><ele>3.3</ele><time>2021-02-17T16:18:46Z</time><name>PT14847</name></trkpt>
<trkpt lat="53.452631" lon="05.752329"><ele>3.5</ele><time>2021-02-17T16:18:47Z</time><name>PT14848</name></trkpt>
<trkpt lat="53.452631" lon="05.752336"><ele>3.6</ele><time>2021-02-17T16:18:48Z</time><name>PT14849</name></trkpt>
<trkpt lat="53.452634" lon="05.752346"><ele>3.6</ele><time>2021-02-17T16:18:49Z</time><name>PT14850</name></trkpt>
<trkpt lat="53.452635" lon="05.752356"><ele>3.6</ele><time>2021-02-17T16:18:50Z</time><name>PT14851</name></trkpt>
<trkpt lat="53.452634" lon="05.752370"><ele>3.6</ele><time>2021-02-17T16:18:51Z</time><name>PT14852</name></trkpt>
<trkpt lat="53.452633" lon="05.752383"><ele>3.4</ele><time>2021-02-17T16:18:52Z</time><name>PT14853</name></trkpt>
<trkpt lat="53.452636" lon="05.752398"><ele>3.5</ele><time>2021-02-17T16:18:53Z</time><name>PT14854</name></trkpt>
<trkpt lat="53.452637" lon="05.752411"><ele>3.5</ele><time>2021-02-17T16:18:54Z</time><name>PT14855</name></trkpt>
<trkpt lat="53.452638" lon="05.752426"><ele>3.6</ele><time>2021-02-17T16:18:55Z</time><name>PT14856</name></trkpt>
<trkpt lat="53.452638" lon="05.752441"><ele>3.4</ele><time>2021-02-17T16:18:56Z</time><name>PT14857</name></trkpt>
<trkpt lat="53.452636" lon="05.752457"><ele>3.4</ele><time>2021-02-17T16:18:57Z</time><name>PT14858</name></trkpt>
<trkpt lat="53.452637" lon="05.752473"><ele>3.4</ele><time>2021-02-17T16:18:58Z</time><name>PT14859</name></trkpt>
<trkpt lat="53.452638" lon="05.752491"><ele>3.4</ele><time>2021-02-17T16:18:59Z</time><name>PT14860</name></trkpt>
<trkpt lat="53.452642" lon="05.752507"><ele>3.4</ele><time>2021-02-17T16:19:00Z</time><name>PT14861</name></trkpt>
<trkpt lat="53.452647" lon="05.752522"><ele>3.6</ele><time>2021-02-17T16:19:01Z</time><name>PT14862</name></trkpt>
<trkpt lat="53.452647" lon="05.752530"><ele>3.8</ele><time>2021-02-17T16:19:02Z</time><name>PT14863</name></trkpt>
<trkpt lat="53.452650" lon="05.752537"><ele>3.9</ele><time>2021-02-17T16:19:03Z</time><name>PT14864</name></trkpt>
<trkpt lat="53.452651" lon="05.752544"><ele>3.8</ele><time>2021-02-17T16:19:04Z</time><name>PT14865</name></trkpt>
<trkpt lat="53.452652" lon="05.752556"><ele>3.7</ele><time>2021-02-17T16:19:05Z</time><name>PT14866</name></trkpt>
<trkpt lat="53.452653" lon="05.752571"><ele>3.7</ele><time>2021-02-17T16:19:06Z</time><name>PT14867</name></trkpt>
<trkpt lat="53.452656" lon="05.752583"><ele>3.6</ele><time>2021-02-17T16:19:07Z</time><name>PT14868</name></trkpt>
<trkpt lat="53.452657" lon="05.752594"><ele>3.7</ele><time>2021-02-17T16:19:08Z</time><name>PT14869</name></trkpt>
<trkpt lat="53.452658" lon="05.752607"><ele>3.7</ele><time>2021-02-17T16:19:09Z</time><name>PT14870</name></trkpt>
<trkpt lat="53.452660" lon="05.752622"><ele>3.7</ele><time>2021-02-17T16:19:10Z</time><name>PT14871</name></trkpt>
<trkpt lat="53.452665" lon="05.752635"><ele>3.5</ele><time>2021-02-17T16:19:11Z</time><name>PT14872</name></trkpt>
<trkpt lat="53.452666" lon="05.752646"><ele>3.3</ele><time>2021-02-17T16:19:12Z</time><name>PT14873</name></trkpt>
<trkpt lat="53.452669" lon="05.752664"><ele>3.3</ele><time>2021-02-17T16:19:13Z</time><name>PT14874</name></trkpt>
<trkpt lat="53.452671" lon="05.752682"><ele>3.1</ele><time>2021-02-17T16:19:14Z</time><name>PT14875</name></trkpt>
<trkpt lat="53.452672" lon="05.752701"><ele>3</ele><time>2021-02-17T16:19:15Z</time><name>PT14876</name></trkpt>
<trkpt lat="53.452672" lon="05.752721"><ele>3.1</ele><time>2021-02-17T16:19:16Z</time><name>PT14877</name></trkpt>
<trkpt lat="53.452673" lon="05.752741"><ele>2.8</ele><time>2021-02-17T16:19:17Z</time><name>PT14878</name></trkpt>
<trkpt lat="53.452674" lon="05.752759"><ele>2.8</ele><time>2021-02-17T16:19:18Z</time><name>PT14879</name></trkpt>
<trkpt lat="53.452676" lon="05.752772"><ele>2.8</ele><time>2021-02-17T16:19:19Z</time><name>PT14880</name></trkpt>
<trkpt lat="53.452678" lon="05.752785"><ele>2.4</ele><time>2021-02-17T16:19:20Z</time><name>PT14881</name></trkpt>
<trkpt lat="53.452679" lon="05.752800"><ele>2.5</ele><time>2021-02-17T16:19:21Z</time><name>PT14882</name></trkpt>
<trkpt lat="53.452683" lon="05.752815"><ele>2.7</ele><time>2021-02-17T16:19:22Z</time><name>PT14883</name></trkpt>
<trkpt lat="53.452685" lon="05.752827"><ele>2.6</ele><time>2021-02-17T16:19:23Z</time><name>PT14884</name></trkpt>
<trkpt lat="53.452686" lon="05.752843"><ele>2.7</ele><time>2021-02-17T16:19:24Z</time><name>PT14885</name></trkpt>
<trkpt lat="53.452688" lon="05.752858"><ele>2.8</ele><time>2021-02-17T16:19:25Z</time><name>PT14886</name></trkpt>
<trkpt lat="53.452690" lon="05.752872"><ele>2.6</ele><time>2021-02-17T16:19:26Z</time><name>PT14887</name></trkpt>
<trkpt lat="53.452694" lon="05.752888"><ele>2.5</ele><time>2021-02-17T16:19:27Z</time><name>PT14888</name></trkpt>
<trkpt lat="53.452695" lon="05.752903"><ele>2.5</ele><time>2021-02-17T16:19:28Z</time><name>PT14889</name></trkpt>
<trkpt lat="53.452696" lon="05.752917"><ele>2.5</ele><time>2021-02-17T16:19:29Z</time><name>PT14890</name></trkpt>
<trkpt lat="53.452697" lon="05.752930"><ele>2.6</ele><time>2021-02-17T16:19:30Z</time><name>PT14891</name></trkpt>
<trkpt lat="53.452697" lon="05.752939"><ele>2.7</ele><time>2021-02-17T16:19:31Z</time><name>PT14892</name></trkpt>
<trkpt lat="53.452698" lon="05.752950"><ele>2.8</ele><time>2021-02-17T16:19:32Z</time><name>PT14893</name></trkpt>
<trkpt lat="53.452697" lon="05.752961"><ele>3</ele><time>2021-02-17T16:19:33Z</time><name>PT14894</name></trkpt>
<trkpt lat="53.452698" lon="05.752971"><ele>3.1</ele><time>2021-02-17T16:19:34Z</time><name>PT14895</name></trkpt>
<trkpt lat="53.452697" lon="05.752978"><ele>3</ele><time>2021-02-17T16:19:35Z</time><name>PT14896</name></trkpt>
<trkpt lat="53.452698" lon="05.752982"><ele>3.1</ele><time>2021-02-17T16:19:36Z</time><name>PT14897</name></trkpt>
<trkpt lat="53.452698" lon="05.752983"><ele>3.2</ele><time>2021-02-17T16:19:37Z</time><name>PT14898</name></trkpt>
<trkpt lat="53.452702" lon="05.752991"><ele>3</ele><time>2021-02-17T16:19:38Z</time><name>PT14899</name></trkpt>
<trkpt lat="53.452699" lon="05.752999"><ele>2.8</ele><time>2021-02-17T16:19:56Z</time><name>PT14900</name></trkpt>
<trkpt lat="53.452701" lon="05.753006"><ele>2.9</ele><time>2021-02-17T16:19:57Z</time><name>PT14901</name></trkpt>
<trkpt lat="53.452699" lon="05.753007"><ele>3</ele><time>2021-02-17T16:19:58Z</time><name>PT14902</name></trkpt>
<trkpt lat="53.452698" lon="05.753021"><ele>3</ele><time>2021-02-17T16:20:06Z</time><name>PT14903</name></trkpt>
<trkpt lat="53.452697" lon="05.753039"><ele>3</ele><time>2021-02-17T16:20:07Z</time><name>PT14904</name></trkpt>
<trkpt lat="53.452695" lon="05.753049"><ele>2.9</ele><time>2021-02-17T16:20:08Z</time><name>PT14905</name></trkpt>
<trkpt lat="53.452698" lon="05.753058"><ele>2.8</ele><time>2021-02-17T16:20:09Z</time><name>PT14906</name></trkpt>
<trkpt lat="53.452703" lon="05.753069"><ele>2.9</ele><time>2021-02-17T16:20:10Z</time><name>PT14907</name></trkpt>
<trkpt lat="53.452705" lon="05.753073"><ele>2.8</ele><time>2021-02-17T16:20:11Z</time><name>PT14908</name></trkpt>
<trkpt lat="53.452710" lon="05.753083"><ele>2.9</ele><time>2021-02-17T16:20:12Z</time><name>PT14909</name></trkpt>
<trkpt lat="53.452708" lon="05.753085"><ele>2.9</ele><time>2021-02-17T16:20:13Z</time><name>PT14910</name></trkpt>
<trkpt lat="53.452708" lon="05.753096"><ele>2.9</ele><time>2021-02-17T16:20:14Z</time><name>PT14911</name></trkpt>
<trkpt lat="53.452708" lon="05.753107"><ele>2.8</ele><time>2021-02-17T16:20:15Z</time><name>PT14912</name></trkpt>
<trkpt lat="53.452709" lon="05.753120"><ele>2.8</ele><time>2021-02-17T16:20:16Z</time><name>PT14913</name></trkpt>
<trkpt lat="53.452712" lon="05.753134"><ele>2.8</ele><time>2021-02-17T16:20:17Z</time><name>PT14914</name></trkpt>
<trkpt lat="53.452713" lon="05.753148"><ele>2.8</ele><time>2021-02-17T16:20:18Z</time><name>PT14915</name></trkpt>
<trkpt lat="53.452711" lon="05.753161"><ele>3</ele><time>2021-02-17T16:20:19Z</time><name>PT14916</name></trkpt>
<trkpt lat="53.452710" lon="05.753172"><ele>3</ele><time>2021-02-17T16:20:20Z</time><name>PT14917</name></trkpt>
<trkpt lat="53.452715" lon="05.753189"><ele>3</ele><time>2021-02-17T16:20:21Z</time><name>PT14918</name></trkpt>
<trkpt lat="53.452721" lon="05.753206"><ele>2.9</ele><time>2021-02-17T16:20:22Z</time><name>PT14919</name></trkpt>
<trkpt lat="53.452721" lon="05.753215"><ele>2.8</ele><time>2021-02-17T16:20:23Z</time><name>PT14920</name></trkpt>
<trkpt lat="53.452727" lon="05.753225"><ele>2.7</ele><time>2021-02-17T16:20:24Z</time><name>PT14921</name></trkpt>
<trkpt lat="53.452735" lon="05.753240"><ele>2.5</ele><time>2021-02-17T16:20:25Z</time><name>PT14922</name></trkpt>
<trkpt lat="53.452740" lon="05.753255"><ele>2.3</ele><time>2021-02-17T16:20:26Z</time><name>PT14923</name></trkpt>
<trkpt lat="53.452742" lon="05.753266"><ele>2.3</ele><time>2021-02-17T16:20:27Z</time><name>PT14924</name></trkpt>
<trkpt lat="53.452746" lon="05.753274"><ele>2.3</ele><time>2021-02-17T16:20:28Z</time><name>PT14925</name></trkpt>
<trkpt lat="53.452748" lon="05.753283"><ele>2.2</ele><time>2021-02-17T16:20:29Z</time><name>PT14926</name></trkpt>
<trkpt lat="53.452753" lon="05.753290"><ele>2.1</ele><time>2021-02-17T16:20:30Z</time><name>PT14927</name></trkpt>
<trkpt lat="53.452756" lon="05.753298"><ele>2.3</ele><time>2021-02-17T16:20:31Z</time><name>PT14928</name></trkpt>
<trkpt lat="53.452765" lon="05.753308"><ele>2.2</ele><time>2021-02-17T16:20:32Z</time><name>PT14929</name></trkpt>
<trkpt lat="53.452769" lon="05.753317"><ele>2.1</ele><time>2021-02-17T16:20:33Z</time><name>PT14930</name></trkpt>
<trkpt lat="53.452773" lon="05.753329"><ele>2.2</ele><time>2021-02-17T16:20:34Z</time><name>PT14931</name></trkpt>
<trkpt lat="53.452777" lon="05.753340"><ele>2.1</ele><time>2021-02-17T16:20:35Z</time><name>PT14932</name></trkpt>
<trkpt lat="53.452781" lon="05.753348"><ele>2.3</ele><time>2021-02-17T16:20:36Z</time><name>PT14933</name></trkpt>
<trkpt lat="53.452785" lon="05.753357"><ele>2.3</ele><time>2021-02-17T16:20:37Z</time><name>PT14934</name></trkpt>
<trkpt lat="53.452788" lon="05.753367"><ele>2.5</ele><time>2021-02-17T16:20:38Z</time><name>PT14935</name></trkpt>
<trkpt lat="53.452790" lon="05.753377"><ele>2.5</ele><time>2021-02-17T16:20:39Z</time><name>PT14936</name></trkpt>
<trkpt lat="53.452789" lon="05.753390"><ele>2.6</ele><time>2021-02-17T16:20:40Z</time><name>PT14937</name></trkpt>
<trkpt lat="53.452792" lon="05.753404"><ele>2.5</ele><time>2021-02-17T16:20:41Z</time><name>PT14938</name></trkpt>
<trkpt lat="53.452795" lon="05.753417"><ele>2.6</ele><time>2021-02-17T16:20:42Z</time><name>PT14939</name></trkpt>
<trkpt lat="53.452799" lon="05.753429"><ele>2.4</ele><time>2021-02-17T16:20:43Z</time><name>PT14940</name></trkpt>
<trkpt lat="53.452803" lon="05.753437"><ele>2.3</ele><time>2021-02-17T16:20:44Z</time><name>PT14941</name></trkpt>
<trkpt lat="53.452803" lon="05.753452"><ele>2.3</ele><time>2021-02-17T16:20:45Z</time><name>PT14942</name></trkpt>
<trkpt lat="53.452804" lon="05.753456"><ele>2.3</ele><time>2021-02-17T16:20:46Z</time><name>PT14943</name></trkpt>
<trkpt lat="53.452803" lon="05.753456"><ele>2.3</ele><time>2021-02-17T16:20:47Z</time><name>PT14944</name></trkpt>
<trkpt lat="53.452807" lon="05.753460"><ele>2.5</ele><time>2021-02-17T16:20:48Z</time><name>PT14945</name></trkpt>
<trkpt lat="53.452815" lon="05.753467"><ele>2.7</ele><time>2021-02-17T16:20:49Z</time><name>PT14946</name></trkpt>
<trkpt lat="53.452816" lon="05.753468"><ele>2.8</ele><time>2021-02-17T16:20:50Z</time><name>PT14947</name></trkpt>
<trkpt lat="53.452816" lon="05.753467"><ele>2.7</ele><time>2021-02-17T16:20:51Z</time><name>PT14948</name></trkpt>
<trkpt lat="53.452817" lon="05.753468"><ele>2.4</ele><time>2021-02-17T16:20:52Z</time><name>PT14949</name></trkpt>
<trkpt lat="53.452816" lon="05.753492"><ele>2.9</ele><time>2021-02-17T16:21:08Z</time><name>PT14950</name></trkpt>
<trkpt lat="53.452816" lon="05.753506"><ele>2.8</ele><time>2021-02-17T16:21:09Z</time><name>PT14951</name></trkpt>
<trkpt lat="53.452812" lon="05.753510"><ele>2.8</ele><time>2021-02-17T16:21:10Z</time><name>PT14952</name></trkpt>
<trkpt lat="53.452805" lon="05.753516"><ele>2.8</ele><time>2021-02-17T16:21:11Z</time><name>PT14953</name></trkpt>
<trkpt lat="53.452805" lon="05.753523"><ele>2.8</ele><time>2021-02-17T16:21:12Z</time><name>PT14954</name></trkpt>
<trkpt lat="53.452810" lon="05.753535"><ele>2.9</ele><time>2021-02-17T16:21:13Z</time><name>PT14955</name></trkpt>
<trkpt lat="53.452815" lon="05.753542"><ele>3</ele><time>2021-02-17T16:21:14Z</time><name>PT14956</name></trkpt>
<trkpt lat="53.452819" lon="05.753551"><ele>3</ele><time>2021-02-17T16:21:15Z</time><name>PT14957</name></trkpt>
<trkpt lat="53.452819" lon="05.753564"><ele>3.2</ele><time>2021-02-17T16:21:16Z</time><name>PT14958</name></trkpt>
<trkpt lat="53.452822" lon="05.753574"><ele>3.1</ele><time>2021-02-17T16:21:17Z</time><name>PT14959</name></trkpt>
<trkpt lat="53.452823" lon="05.753578"><ele>3.1</ele><time>2021-02-17T16:21:18Z</time><name>PT14960</name></trkpt>
<trkpt lat="53.452821" lon="05.753584"><ele>3.1</ele><time>2021-02-17T16:21:19Z</time><name>PT14961</name></trkpt>
<trkpt lat="53.452820" lon="05.753585"><ele>3.2</ele><time>2021-02-17T16:21:20Z</time><name>PT14962</name></trkpt>
<trkpt lat="53.452819" lon="05.753583"><ele>3.1</ele><time>2021-02-17T16:21:21Z</time><name>PT14963</name></trkpt>
<trkpt lat="53.452819" lon="05.753583"><ele>3.2</ele><time>2021-02-17T16:21:22Z</time><name>PT14964</name></trkpt>
<trkpt lat="53.452824" lon="05.753581"><ele>3.3</ele><time>2021-02-17T16:21:26Z</time><name>PT14965</name></trkpt>
<trkpt lat="53.452825" lon="05.753592"><ele>3.3</ele><time>2021-02-17T16:21:27Z</time><name>PT14966</name></trkpt>
<trkpt lat="53.452824" lon="05.753611"><ele>3.2</ele><time>2021-02-17T16:21:28Z</time><name>PT14967</name></trkpt>
<trkpt lat="53.452824" lon="05.753627"><ele>3.2</ele><time>2021-02-17T16:21:29Z</time><name>PT14968</name></trkpt>
<trkpt lat="53.452825" lon="05.753639"><ele>3.1</ele><time>2021-02-17T16:21:30Z</time><name>PT14969</name></trkpt>
<trkpt lat="53.452823" lon="05.753647"><ele>3.1</ele><time>2021-02-17T16:21:31Z</time><name>PT14970</name></trkpt>
<trkpt lat="53.452813" lon="05.753659"><ele>3</ele><time>2021-02-17T16:21:32Z</time><name>PT14971</name></trkpt>
<trkpt lat="53.452806" lon="05.753672"><ele>2.9</ele><time>2021-02-17T16:21:33Z</time><name>PT14972</name></trkpt>
<trkpt lat="53.452806" lon="05.753682"><ele>2.9</ele><time>2021-02-17T16:21:34Z</time><name>PT14973</name></trkpt>
<trkpt lat="53.452811" lon="05.753692"><ele>2.9</ele><time>2021-02-17T16:21:35Z</time><name>PT14974</name></trkpt>
<trkpt lat="53.452809" lon="05.753714"><ele>3</ele><time>2021-02-17T16:21:36Z</time><name>PT14975</name></trkpt>
<trkpt lat="53.452810" lon="05.753724"><ele>3.1</ele><time>2021-02-17T16:21:37Z</time><name>PT14976</name></trkpt>
<trkpt lat="53.452811" lon="05.753734"><ele>3.2</ele><time>2021-02-17T16:21:38Z</time><name>PT14977</name></trkpt>
<trkpt lat="53.452811" lon="05.753748"><ele>3.1</ele><time>2021-02-17T16:21:39Z</time><name>PT14978</name></trkpt>
<trkpt lat="53.452811" lon="05.753763"><ele>3.2</ele><time>2021-02-17T16:21:40Z</time><name>PT14979</name></trkpt>
<trkpt lat="53.452812" lon="05.753778"><ele>3</ele><time>2021-02-17T16:21:41Z</time><name>PT14980</name></trkpt>
<trkpt lat="53.452810" lon="05.753794"><ele>2.9</ele><time>2021-02-17T16:21:42Z</time><name>PT14981</name></trkpt>
<trkpt lat="53.452810" lon="05.753804"><ele>2.9</ele><time>2021-02-17T16:21:43Z</time><name>PT14982</name></trkpt>
<trkpt lat="53.452810" lon="05.753810"><ele>2.8</ele><time>2021-02-17T16:21:44Z</time><name>PT14983</name></trkpt>
<trkpt lat="53.452806" lon="05.753820"><ele>3</ele><time>2021-02-17T16:21:45Z</time><name>PT14984</name></trkpt>
<trkpt lat="53.452801" lon="05.753833"><ele>3.2</ele><time>2021-02-17T16:21:46Z</time><name>PT14985</name></trkpt>
<trkpt lat="53.452798" lon="05.753842"><ele>3.1</ele><time>2021-02-17T16:21:47Z</time><name>PT14986</name></trkpt>
<trkpt lat="53.452800" lon="05.753856"><ele>3.1</ele><time>2021-02-17T16:21:48Z</time><name>PT14987</name></trkpt>
<trkpt lat="53.452798" lon="05.753864"><ele>3.1</ele><time>2021-02-17T16:21:49Z</time><name>PT14988</name></trkpt>
<trkpt lat="53.452796" lon="05.753868"><ele>3.2</ele><time>2021-02-17T16:21:50Z</time><name>PT14989</name></trkpt>
<trkpt lat="53.452791" lon="05.753879"><ele>3.3</ele><time>2021-02-17T16:21:51Z</time><name>PT14990</name></trkpt>
<trkpt lat="53.452787" lon="05.753901"><ele>3.4</ele><time>2021-02-17T16:21:52Z</time><name>PT14991</name></trkpt>
<trkpt lat="53.452782" lon="05.753914"><ele>3.7</ele><time>2021-02-17T16:21:53Z</time><name>PT14992</name></trkpt>
<trkpt lat="53.452784" lon="05.753926"><ele>3.7</ele><time>2021-02-17T16:21:54Z</time><name>PT14993</name></trkpt>
<trkpt lat="53.452790" lon="05.753942"><ele>3.8</ele><time>2021-02-17T16:21:55Z</time><name>PT14994</name></trkpt>
<trkpt lat="53.452795" lon="05.753957"><ele>4</ele><time>2021-02-17T16:21:56Z</time><name>PT14995</name></trkpt>
<trkpt lat="53.452799" lon="05.753972"><ele>4</ele><time>2021-02-17T16:21:57Z</time><name>PT14996</name></trkpt>
<trkpt lat="53.452803" lon="05.753989"><ele>4</ele><time>2021-02-17T16:21:58Z</time><name>PT14997</name></trkpt>
<trkpt lat="53.452806" lon="05.754003"><ele>4</ele><time>2021-02-17T16:21:59Z</time><name>PT14998</name></trkpt>
<trkpt lat="53.452810" lon="05.754019"><ele>3.7</ele><time>2021-02-17T16:22:00Z</time><name>PT14999</name></trkpt>
<trkpt lat="53.452812" lon="05.754032"><ele>3.7</ele><time>2021-02-17T16:22:01Z</time><name>PT15000</name></trkpt>
<trkpt lat="53.452810" lon="05.754039"><ele>3.8</ele><time>2021-02-17T16:22:02Z</time><name>PT15001</name></trkpt>
<trkpt lat="53.452811" lon="05.754055"><ele>3.7</ele><time>2021-02-17T16:22:03Z</time><name>PT15002</name></trkpt>
<trkpt lat="53.452809" lon="05.754067"><ele>3.8</ele><time>2021-02-17T16:22:04Z</time><name>PT15003</name></trkpt>
<trkpt lat="53.452806" lon="05.754080"><ele>4.1</ele><time>2021-02-17T16:22:05Z</time><name>PT15004</name></trkpt>
<trkpt lat="53.452807" lon="05.754093"><ele>4</ele><time>2021-02-17T16:22:06Z</time><name>PT15005</name></trkpt>
<trkpt lat="53.452808" lon="05.754104"><ele>4.1</ele><time>2021-02-17T16:22:07Z</time><name>PT15006</name></trkpt>
<trkpt lat="53.452813" lon="05.754117"><ele>3.9</ele><time>2021-02-17T16:22:08Z</time><name>PT15007</name></trkpt>
<trkpt lat="53.452817" lon="05.754129"><ele>3.9</ele><time>2021-02-17T16:22:09Z</time><name>PT15008</name></trkpt>
<trkpt lat="53.452817" lon="05.754144"><ele>3.8</ele><time>2021-02-17T16:22:10Z</time><name>PT15009</name></trkpt>
<trkpt lat="53.452818" lon="05.754157"><ele>4</ele><time>2021-02-17T16:22:11Z</time><name>PT15010</name></trkpt>
<trkpt lat="53.452822" lon="05.754172"><ele>4.1</ele><time>2021-02-17T16:22:12Z</time><name>PT15011</name></trkpt>
<trkpt lat="53.452823" lon="05.754186"><ele>4.1</ele><time>2021-02-17T16:22:13Z</time><name>PT15012</name></trkpt>
<trkpt lat="53.452832" lon="05.754192"><ele>4</ele><time>2021-02-17T16:22:14Z</time><name>PT15013</name></trkpt>
<trkpt lat="53.452834" lon="05.754210"><ele>3.8</ele><time>2021-02-17T16:22:15Z</time><name>PT15014</name></trkpt>
<trkpt lat="53.452833" lon="05.754222"><ele>3.8</ele><time>2021-02-17T16:22:16Z</time><name>PT15015</name></trkpt>
<trkpt lat="53.452836" lon="05.754232"><ele>3.8</ele><time>2021-02-17T16:22:17Z</time><name>PT15016</name></trkpt>
<trkpt lat="53.452838" lon="05.754241"><ele>3.7</ele><time>2021-02-17T16:22:18Z</time><name>PT15017</name></trkpt>
<trkpt lat="53.452839" lon="05.754256"><ele>3.7</ele><time>2021-02-17T16:22:19Z</time><name>PT15018</name></trkpt>
<trkpt lat="53.452841" lon="05.754270"><ele>3.6</ele><time>2021-02-17T16:22:20Z</time><name>PT15019</name></trkpt>
<trkpt lat="53.452843" lon="05.754276"><ele>3.6</ele><time>2021-02-17T16:22:21Z</time><name>PT15020</name></trkpt>
<trkpt lat="53.452846" lon="05.754297"><ele>3.6</ele><time>2021-02-17T16:22:22Z</time><name>PT15021</name></trkpt>
<trkpt lat="53.452853" lon="05.754314"><ele>3.7</ele><time>2021-02-17T16:22:23Z</time><name>PT15022</name></trkpt>
<trkpt lat="53.452858" lon="05.754327"><ele>3.7</ele><time>2021-02-17T16:22:24Z</time><name>PT15023</name></trkpt>
<trkpt lat="53.452860" lon="05.754344"><ele>3.8</ele><time>2021-02-17T16:22:25Z</time><name>PT15024</name></trkpt>
<trkpt lat="53.452865" lon="05.754360"><ele>3.9</ele><time>2021-02-17T16:22:26Z</time><name>PT15025</name></trkpt>
<trkpt lat="53.452870" lon="05.754373"><ele>3.9</ele><time>2021-02-17T16:22:27Z</time><name>PT15026</name></trkpt>
<trkpt lat="53.452874" lon="05.754385"><ele>3.9</ele><time>2021-02-17T16:22:28Z</time><name>PT15027</name></trkpt>
<trkpt lat="53.452876" lon="05.754397"><ele>3.9</ele><time>2021-02-17T16:22:29Z</time><name>PT15028</name></trkpt>
<trkpt lat="53.452881" lon="05.754414"><ele>3.7</ele><time>2021-02-17T16:22:30Z</time><name>PT15029</name></trkpt>
<trkpt lat="53.452888" lon="05.754423"><ele>3.7</ele><time>2021-02-17T16:22:31Z</time><name>PT15030</name></trkpt>
<trkpt lat="53.452895" lon="05.754431"><ele>3.4</ele><time>2021-02-17T16:22:32Z</time><name>PT15031</name></trkpt>
<trkpt lat="53.452894" lon="05.754445"><ele>3.4</ele><time>2021-02-17T16:22:33Z</time><name>PT15032</name></trkpt>
<trkpt lat="53.452900" lon="05.754462"><ele>3.5</ele><time>2021-02-17T16:22:34Z</time><name>PT15033</name></trkpt>
<trkpt lat="53.452910" lon="05.754467"><ele>3.7</ele><time>2021-02-17T16:22:35Z</time><name>PT15034</name></trkpt>
<trkpt lat="53.452915" lon="05.754477"><ele>3.7</ele><time>2021-02-17T16:22:36Z</time><name>PT15035</name></trkpt>
<trkpt lat="53.452920" lon="05.754484"><ele>3.7</ele><time>2021-02-17T16:22:37Z</time><name>PT15036</name></trkpt>
<trkpt lat="53.452928" lon="05.754493"><ele>3.7</ele><time>2021-02-17T16:22:38Z</time><name>PT15037</name></trkpt>
<trkpt lat="53.452934" lon="05.754499"><ele>3.6</ele><time>2021-02-17T16:22:39Z</time><name>PT15038</name></trkpt>
<trkpt lat="53.452938" lon="05.754508"><ele>3.8</ele><time>2021-02-17T16:22:40Z</time><name>PT15039</name></trkpt>
<trkpt lat="53.452940" lon="05.754518"><ele>3.9</ele><time>2021-02-17T16:22:41Z</time><name>PT15040</name></trkpt>
<trkpt lat="53.452945" lon="05.754532"><ele>3.8</ele><time>2021-02-17T16:22:42Z</time><name>PT15041</name></trkpt>
<trkpt lat="53.452949" lon="05.754554"><ele>3.9</ele><time>2021-02-17T16:22:43Z</time><name>PT15042</name></trkpt>
<trkpt lat="53.452956" lon="05.754568"><ele>3.8</ele><time>2021-02-17T16:22:44Z</time><name>PT15043</name></trkpt>
<trkpt lat="53.452961" lon="05.754579"><ele>3.7</ele><time>2021-02-17T16:22:45Z</time><name>PT15044</name></trkpt>
<trkpt lat="53.452967" lon="05.754584"><ele>3.9</ele><time>2021-02-17T16:22:46Z</time><name>PT15045</name></trkpt>
<trkpt lat="53.452972" lon="05.754613"><ele>3.8</ele><time>2021-02-17T16:22:47Z</time><name>PT15046</name></trkpt>
<trkpt lat="53.452978" lon="05.754649"><ele>4</ele><time>2021-02-17T16:22:48Z</time><name>PT15047</name></trkpt>
<trkpt lat="53.452983" lon="05.754680"><ele>4</ele><time>2021-02-17T16:22:49Z</time><name>PT15048</name></trkpt>
<trkpt lat="53.452983" lon="05.754703"><ele>3.9</ele><time>2021-02-17T16:22:50Z</time><name>PT15049</name></trkpt>
<trkpt lat="53.452987" lon="05.754741"><ele>3.7</ele><time>2021-02-17T16:22:51Z</time><name>PT15050</name></trkpt>
<trkpt lat="53.452990" lon="05.754767"><ele>3.9</ele><time>2021-02-17T16:22:52Z</time><name>PT15051</name></trkpt>
<trkpt lat="53.452994" lon="05.754780"><ele>3.8</ele><time>2021-02-17T16:22:53Z</time><name>PT15052</name></trkpt>
<trkpt lat="53.452996" lon="05.754806"><ele>3.8</ele><time>2021-02-17T16:22:54Z</time><name>PT15053</name></trkpt>
<trkpt lat="53.452998" lon="05.754820"><ele>3.8</ele><time>2021-02-17T16:22:55Z</time><name>PT15054</name></trkpt>
<trkpt lat="53.452996" lon="05.754833"><ele>3.8</ele><time>2021-02-17T16:22:56Z</time><name>PT15055</name></trkpt>
<trkpt lat="53.452996" lon="05.754857"><ele>3.7</ele><time>2021-02-17T16:22:57Z</time><name>PT15056</name></trkpt>
<trkpt lat="53.452997" lon="05.754867"><ele>3.7</ele><time>2021-02-17T16:22:58Z</time><name>PT15057</name></trkpt>
<trkpt lat="53.453000" lon="05.754880"><ele>3.9</ele><time>2021-02-17T16:22:59Z</time><name>PT15058</name></trkpt>
<trkpt lat="53.453003" lon="05.754893"><ele>3.8</ele><time>2021-02-17T16:23:00Z</time><name>PT15059</name></trkpt>
<trkpt lat="53.453006" lon="05.754905"><ele>3.9</ele><time>2021-02-17T16:23:01Z</time><name>PT15060</name></trkpt>
<trkpt lat="53.453010" lon="05.754921"><ele>3.8</ele><time>2021-02-17T16:23:02Z</time><name>PT15061</name></trkpt>
<trkpt lat="53.453015" lon="05.754931"><ele>3.8</ele><time>2021-02-17T16:23:03Z</time><name>PT15062</name></trkpt>
<trkpt lat="53.453022" lon="05.754935"><ele>3.8</ele><time>2021-02-17T16:23:04Z</time><name>PT15063</name></trkpt>
<trkpt lat="53.453025" lon="05.754949"><ele>3.8</ele><time>2021-02-17T16:23:05Z</time><name>PT15064</name></trkpt>
<trkpt lat="53.453030" lon="05.754967"><ele>3.9</ele><time>2021-02-17T16:23:06Z</time><name>PT15065</name></trkpt>
<trkpt lat="53.453038" lon="05.754986"><ele>3.8</ele><time>2021-02-17T16:23:07Z</time><name>PT15066</name></trkpt>
<trkpt lat="53.453045" lon="05.755002"><ele>3.8</ele><time>2021-02-17T16:23:08Z</time><name>PT15067</name></trkpt>
<trkpt lat="53.453047" lon="05.755016"><ele>3.7</ele><time>2021-02-17T16:23:09Z</time><name>PT15068</name></trkpt>
<trkpt lat="53.453054" lon="05.755025"><ele>3.7</ele><time>2021-02-17T16:23:10Z</time><name>PT15069</name></trkpt>
<trkpt lat="53.453059" lon="05.755046"><ele>3.8</ele><time>2021-02-17T16:23:11Z</time><name>PT15070</name></trkpt>
<trkpt lat="53.453054" lon="05.755058"><ele>3.8</ele><time>2021-02-17T16:23:12Z</time><name>PT15071</name></trkpt>
<trkpt lat="53.453057" lon="05.755072"><ele>3.7</ele><time>2021-02-17T16:23:13Z</time><name>PT15072</name></trkpt>
<trkpt lat="53.453054" lon="05.755086"><ele>3.7</ele><time>2021-02-17T16:23:14Z</time><name>PT15073</name></trkpt>
<trkpt lat="53.453054" lon="05.755096"><ele>3.5</ele><time>2021-02-17T16:23:15Z</time><name>PT15074</name></trkpt>
<trkpt lat="53.453057" lon="05.755104"><ele>3.6</ele><time>2021-02-17T16:23:16Z</time><name>PT15075</name></trkpt>
<trkpt lat="53.453059" lon="05.755112"><ele>3.7</ele><time>2021-02-17T16:23:17Z</time><name>PT15076</name></trkpt>
<trkpt lat="53.453062" lon="05.755121"><ele>3.4</ele><time>2021-02-17T16:23:18Z</time><name>PT15077</name></trkpt>
<trkpt lat="53.453067" lon="05.755130"><ele>3.5</ele><time>2021-02-17T16:23:19Z</time><name>PT15078</name></trkpt>
<trkpt lat="53.453071" lon="05.755135"><ele>3.3</ele><time>2021-02-17T16:23:20Z</time><name>PT15079</name></trkpt>
<trkpt lat="53.453073" lon="05.755141"><ele>3.2</ele><time>2021-02-17T16:23:21Z</time><name>PT15080</name></trkpt>
<trkpt lat="53.453076" lon="05.755144"><ele>3.2</ele><time>2021-02-17T16:23:22Z</time><name>PT15081</name></trkpt>
<trkpt lat="53.453081" lon="05.755149"><ele>3.1</ele><time>2021-02-17T16:23:23Z</time><name>PT15082</name></trkpt>
<trkpt lat="53.453088" lon="05.755159"><ele>3</ele><time>2021-02-17T16:23:24Z</time><name>PT15083</name></trkpt>
<trkpt lat="53.453090" lon="05.755188"><ele>3</ele><time>2021-02-17T16:23:25Z</time><name>PT15084</name></trkpt>
<trkpt lat="53.453094" lon="05.755199"><ele>2.8</ele><time>2021-02-17T16:23:26Z</time><name>PT15085</name></trkpt>
<trkpt lat="53.453095" lon="05.755233"><ele>2.8</ele><time>2021-02-17T16:23:27Z</time><name>PT15086</name></trkpt>
<trkpt lat="53.453100" lon="05.755251"><ele>2.8</ele><time>2021-02-17T16:23:28Z</time><name>PT15087</name></trkpt>
<trkpt lat="53.453104" lon="05.755264"><ele>2.8</ele><time>2021-02-17T16:23:29Z</time><name>PT15088</name></trkpt>
<trkpt lat="53.453106" lon="05.755275"><ele>2.6</ele><time>2021-02-17T16:23:30Z</time><name>PT15089</name></trkpt>
<trkpt lat="53.453104" lon="05.755288"><ele>2.7</ele><time>2021-02-17T16:23:31Z</time><name>PT15090</name></trkpt>
<trkpt lat="53.453106" lon="05.755297"><ele>2.8</ele><time>2021-02-17T16:23:32Z</time><name>PT15091</name></trkpt>
<trkpt lat="53.453109" lon="05.755308"><ele>2.7</ele><time>2021-02-17T16:23:33Z</time><name>PT15092</name></trkpt>
<trkpt lat="53.453117" lon="05.755325"><ele>2.6</ele><time>2021-02-17T16:23:34Z</time><name>PT15093</name></trkpt>
<trkpt lat="53.453123" lon="05.755345"><ele>2.4</ele><time>2021-02-17T16:23:35Z</time><name>PT15094</name></trkpt>
<trkpt lat="53.453129" lon="05.755357"><ele>2.4</ele><time>2021-02-17T16:23:36Z</time><name>PT15095</name></trkpt>
<trkpt lat="53.453137" lon="05.755368"><ele>2.3</ele><time>2021-02-17T16:23:37Z</time><name>PT15096</name></trkpt>
<trkpt lat="53.453141" lon="05.755379"><ele>2.4</ele><time>2021-02-17T16:23:38Z</time><name>PT15097</name></trkpt>
<trkpt lat="53.453146" lon="05.755387"><ele>2.4</ele><time>2021-02-17T16:23:39Z</time><name>PT15098</name></trkpt>
<trkpt lat="53.453148" lon="05.755408"><ele>2.4</ele><time>2021-02-17T16:23:40Z</time><name>PT15099</name></trkpt>
<trkpt lat="53.453153" lon="05.755437"><ele>2.4</ele><time>2021-02-17T16:23:41Z</time><name>PT15100</name></trkpt>
<trkpt lat="53.453160" lon="05.755443"><ele>2.4</ele><time>2021-02-17T16:23:42Z</time><name>PT15101</name></trkpt>
<trkpt lat="53.453163" lon="05.755452"><ele>2.3</ele><time>2021-02-17T16:23:43Z</time><name>PT15102</name></trkpt>
<trkpt lat="53.453168" lon="05.755459"><ele>2.3</ele><time>2021-02-17T16:23:44Z</time><name>PT15103</name></trkpt>
<trkpt lat="53.453167" lon="05.755477"><ele>2.3</ele><time>2021-02-17T16:23:45Z</time><name>PT15104</name></trkpt>
<trkpt lat="53.453168" lon="05.755481"><ele>2.3</ele><time>2021-02-17T16:23:46Z</time><name>PT15105</name></trkpt>
<trkpt lat="53.453166" lon="05.755498"><ele>2.3</ele><time>2021-02-17T16:23:47Z</time><name>PT15106</name></trkpt>
<trkpt lat="53.453173" lon="05.755516"><ele>2.3</ele><time>2021-02-17T16:23:48Z</time><name>PT15107</name></trkpt>
<trkpt lat="53.453180" lon="05.755545"><ele>2.5</ele><time>2021-02-17T16:23:49Z</time><name>PT15108</name></trkpt>
<trkpt lat="53.453188" lon="05.755559"><ele>2.5</ele><time>2021-02-17T16:23:50Z</time><name>PT15109</name></trkpt>
<trkpt lat="53.453194" lon="05.755574"><ele>2.4</ele><time>2021-02-17T16:23:51Z</time><name>PT15110</name></trkpt>
<trkpt lat="53.453197" lon="05.755587"><ele>2.5</ele><time>2021-02-17T16:23:52Z</time><name>PT15111</name></trkpt>
<trkpt lat="53.453201" lon="05.755615"><ele>2.4</ele><time>2021-02-17T16:23:53Z</time><name>PT15112</name></trkpt>
<trkpt lat="53.453202" lon="05.755630"><ele>2.3</ele><time>2021-02-17T16:23:54Z</time><name>PT15113</name></trkpt>
<trkpt lat="53.453205" lon="05.755644"><ele>2.5</ele><time>2021-02-17T16:23:55Z</time><name>PT15114</name></trkpt>
<trkpt lat="53.453212" lon="05.755658"><ele>2.5</ele><time>2021-02-17T16:23:56Z</time><name>PT15115</name></trkpt>
<trkpt lat="53.453217" lon="05.755655"><ele>2.6</ele><time>2021-02-17T16:23:57Z</time><name>PT15116</name></trkpt>
<trkpt lat="53.453221" lon="05.755668"><ele>2.7</ele><time>2021-02-17T16:23:58Z</time><name>PT15117</name></trkpt>
<trkpt lat="53.453223" lon="05.755679"><ele>2.7</ele><time>2021-02-17T16:23:59Z</time><name>PT15118</name></trkpt>
<trkpt lat="53.453227" lon="05.755700"><ele>2.8</ele><time>2021-02-17T16:24:00Z</time><name>PT15119</name></trkpt>
<trkpt lat="53.453227" lon="05.755711"><ele>3</ele><time>2021-02-17T16:24:01Z</time><name>PT15120</name></trkpt>
<trkpt lat="53.453228" lon="05.755718"><ele>2.8</ele><time>2021-02-17T16:24:02Z</time><name>PT15121</name></trkpt>
<trkpt lat="53.453234" lon="05.755744"><ele>2.9</ele><time>2021-02-17T16:24:03Z</time><name>PT15122</name></trkpt>
<trkpt lat="53.453242" lon="05.755798"><ele>2.9</ele><time>2021-02-17T16:24:04Z</time><name>PT15123</name></trkpt>
<trkpt lat="53.453244" lon="05.755818"><ele>2.7</ele><time>2021-02-17T16:24:05Z</time><name>PT15124</name></trkpt>
<trkpt lat="53.453246" lon="05.755837"><ele>2.7</ele><time>2021-02-17T16:24:06Z</time><name>PT15125</name></trkpt>
<trkpt lat="53.453252" lon="05.755850"><ele>2.5</ele><time>2021-02-17T16:24:07Z</time><name>PT15126</name></trkpt>
<trkpt lat="53.453256" lon="05.755861"><ele>2.5</ele><time>2021-02-17T16:24:08Z</time><name>PT15127</name></trkpt>
<trkpt lat="53.453259" lon="05.755877"><ele>2.4</ele><time>2021-02-17T16:24:09Z</time><name>PT15128</name></trkpt>
<trkpt lat="53.453265" lon="05.755894"><ele>2.6</ele><time>2021-02-17T16:24:10Z</time><name>PT15129</name></trkpt>
<trkpt lat="53.453265" lon="05.755919"><ele>2.7</ele><time>2021-02-17T16:24:11Z</time><name>PT15130</name></trkpt>
<trkpt lat="53.453265" lon="05.755938"><ele>2.7</ele><time>2021-02-17T16:24:12Z</time><name>PT15131</name></trkpt>
<trkpt lat="53.453268" lon="05.755956"><ele>2.7</ele><time>2021-02-17T16:24:13Z</time><name>PT15132</name></trkpt>
<trkpt lat="53.453274" lon="05.755981"><ele>2.5</ele><time>2021-02-17T16:24:14Z</time><name>PT15133</name></trkpt>
<trkpt lat="53.453278" lon="05.755998"><ele>2.4</ele><time>2021-02-17T16:24:15Z</time><name>PT15134</name></trkpt>
<trkpt lat="53.453282" lon="05.756007"><ele>2.4</ele><time>2021-02-17T16:24:16Z</time><name>PT15135</name></trkpt>
<trkpt lat="53.453282" lon="05.756022"><ele>2.5</ele><time>2021-02-17T16:24:17Z</time><name>PT15136</name></trkpt>
<trkpt lat="53.453287" lon="05.756040"><ele>2.6</ele><time>2021-02-17T16:24:18Z</time><name>PT15137</name></trkpt>
<trkpt lat="53.453292" lon="05.756059"><ele>2.5</ele><time>2021-02-17T16:24:19Z</time><name>PT15138</name></trkpt>
<trkpt lat="53.453295" lon="05.756079"><ele>2.5</ele><time>2021-02-17T16:24:20Z</time><name>PT15139</name></trkpt>
<trkpt lat="53.453297" lon="05.756101"><ele>2.5</ele><time>2021-02-17T16:24:21Z</time><name>PT15140</name></trkpt>
<trkpt lat="53.453300" lon="05.756113"><ele>2.5</ele><time>2021-02-17T16:24:22Z</time><name>PT15141</name></trkpt>
<trkpt lat="53.453303" lon="05.756128"><ele>2.6</ele><time>2021-02-17T16:24:23Z</time><name>PT15142</name></trkpt>
<trkpt lat="53.453308" lon="05.756141"><ele>2.7</ele><time>2021-02-17T16:24:24Z</time><name>PT15143</name></trkpt>
<trkpt lat="53.453314" lon="05.756152"><ele>2.6</ele><time>2021-02-17T16:24:25Z</time><name>PT15144</name></trkpt>
<trkpt lat="53.453320" lon="05.756164"><ele>2.7</ele><time>2021-02-17T16:24:26Z</time><name>PT15145</name></trkpt>
<trkpt lat="53.453324" lon="05.756169"><ele>2.8</ele><time>2021-02-17T16:24:27Z</time><name>PT15146</name></trkpt>
<trkpt lat="53.453327" lon="05.756179"><ele>2.8</ele><time>2021-02-17T16:24:28Z</time><name>PT15147</name></trkpt>
<trkpt lat="53.453332" lon="05.756205"><ele>2.9</ele><time>2021-02-17T16:24:29Z</time><name>PT15148</name></trkpt>
<trkpt lat="53.453337" lon="05.756220"><ele>3</ele><time>2021-02-17T16:24:30Z</time><name>PT15149</name></trkpt>
<trkpt lat="53.453342" lon="05.756239"><ele>2.9</ele><time>2021-02-17T16:24:31Z</time><name>PT15150</name></trkpt>
<trkpt lat="53.453343" lon="05.756253"><ele>2.8</ele><time>2021-02-17T16:24:32Z</time><name>PT15151</name></trkpt>
<trkpt lat="53.453346" lon="05.756266"><ele>2.8</ele><time>2021-02-17T16:24:33Z</time><name>PT15152</name></trkpt>
<trkpt lat="53.453345" lon="05.756279"><ele>2.5</ele><time>2021-02-17T16:24:34Z</time><name>PT15153</name></trkpt>
<trkpt lat="53.453348" lon="05.756298"><ele>2.4</ele><time>2021-02-17T16:24:35Z</time><name>PT15154</name></trkpt>
<trkpt lat="53.453351" lon="05.756311"><ele>2.3</ele><time>2021-02-17T16:24:36Z</time><name>PT15155</name></trkpt>
<trkpt lat="53.453349" lon="05.756327"><ele>2.4</ele><time>2021-02-17T16:24:37Z</time><name>PT15156</name></trkpt>
<trkpt lat="53.453348" lon="05.756337"><ele>2.5</ele><time>2021-02-17T16:24:38Z</time><name>PT15157</name></trkpt>
<trkpt lat="53.453350" lon="05.756354"><ele>2.4</ele><time>2021-02-17T16:24:39Z</time><name>PT15158</name></trkpt>
<trkpt lat="53.453350" lon="05.756365"><ele>2.6</ele><time>2021-02-17T16:24:40Z</time><name>PT15159</name></trkpt>
<trkpt lat="53.453351" lon="05.756376"><ele>2.6</ele><time>2021-02-17T16:24:41Z</time><name>PT15160</name></trkpt>
<trkpt lat="53.453358" lon="05.756392"><ele>2.7</ele><time>2021-02-17T16:24:42Z</time><name>PT15161</name></trkpt>
<trkpt lat="53.453363" lon="05.756404"><ele>2.7</ele><time>2021-02-17T16:24:43Z</time><name>PT15162</name></trkpt>
<trkpt lat="53.453364" lon="05.756413"><ele>2.8</ele><time>2021-02-17T16:24:44Z</time><name>PT15163</name></trkpt>
<trkpt lat="53.453365" lon="05.756431"><ele>2.7</ele><time>2021-02-17T16:24:45Z</time><name>PT15164</name></trkpt>
<trkpt lat="53.453363" lon="05.756445"><ele>2.4</ele><time>2021-02-17T16:24:46Z</time><name>PT15165</name></trkpt>
<trkpt lat="53.453362" lon="05.756456"><ele>2.5</ele><time>2021-02-17T16:24:47Z</time><name>PT15166</name></trkpt>
<trkpt lat="53.453362" lon="05.756472"><ele>2.5</ele><time>2021-02-17T16:24:48Z</time><name>PT15167</name></trkpt>
<trkpt lat="53.453366" lon="05.756497"><ele>2.3</ele><time>2021-02-17T16:24:49Z</time><name>PT15168</name></trkpt>
<trkpt lat="53.453361" lon="05.756513"><ele>2.3</ele><time>2021-02-17T16:24:50Z</time><name>PT15169</name></trkpt>
<trkpt lat="53.453361" lon="05.756529"><ele>2.3</ele><time>2021-02-17T16:24:51Z</time><name>PT15170</name></trkpt>
<trkpt lat="53.453359" lon="05.756541"><ele>2.3</ele><time>2021-02-17T16:24:52Z</time><name>PT15171</name></trkpt>
<trkpt lat="53.453357" lon="05.756549"><ele>2.6</ele><time>2021-02-17T16:24:53Z</time><name>PT15172</name></trkpt>
<trkpt lat="53.453353" lon="05.756559"><ele>2.6</ele><time>2021-02-17T16:24:54Z</time><name>PT15173</name></trkpt>
<trkpt lat="53.453352" lon="05.756588"><ele>2.8</ele><time>2021-02-17T16:24:55Z</time><name>PT15174</name></trkpt>
<trkpt lat="53.453353" lon="05.756608"><ele>3.1</ele><time>2021-02-17T16:24:56Z</time><name>PT15175</name></trkpt>
<trkpt lat="53.453354" lon="05.756623"><ele>3.1</ele><time>2021-02-17T16:24:57Z</time><name>PT15176</name></trkpt>
<trkpt lat="53.453357" lon="05.756642"><ele>3.1</ele><time>2021-02-17T16:24:58Z</time><name>PT15177</name></trkpt>
<trkpt lat="53.453359" lon="05.756653"><ele>3.3</ele><time>2021-02-17T16:24:59Z</time><name>PT15178</name></trkpt>
<trkpt lat="53.453364" lon="05.756666"><ele>3.3</ele><time>2021-02-17T16:25:00Z</time><name>PT15179</name></trkpt>
<trkpt lat="53.453384" lon="05.756708"><ele>3.5</ele><time>2021-02-17T16:25:01Z</time><name>PT15180</name></trkpt>
<trkpt lat="53.453385" lon="05.756723"><ele>3.9</ele><time>2021-02-17T16:25:02Z</time><name>PT15181</name></trkpt>
<trkpt lat="53.453385" lon="05.756738"><ele>3.8</ele><time>2021-02-17T16:25:03Z</time><name>PT15182</name></trkpt>
<trkpt lat="53.453391" lon="05.756749"><ele>3.7</ele><time>2021-02-17T16:25:04Z</time><name>PT15183</name></trkpt>
<trkpt lat="53.453394" lon="05.756761"><ele>3.7</ele><time>2021-02-17T16:25:05Z</time><name>PT15184</name></trkpt>
<trkpt lat="53.453394" lon="05.756772"><ele>3.6</ele><time>2021-02-17T16:25:06Z</time><name>PT15185</name></trkpt>
<trkpt lat="53.453389" lon="05.756784"><ele>3.5</ele><time>2021-02-17T16:25:07Z</time><name>PT15186</name></trkpt>
<trkpt lat="53.453386" lon="05.756796"><ele>3.6</ele><time>2021-02-17T16:25:08Z</time><name>PT15187</name></trkpt>
<trkpt lat="53.453379" lon="05.756801"><ele>3.5</ele><time>2021-02-17T16:25:09Z</time><name>PT15188</name></trkpt>
<trkpt lat="53.453377" lon="05.756817"><ele>3.3</ele><time>2021-02-17T16:25:10Z</time><name>PT15189</name></trkpt>
<trkpt lat="53.453376" lon="05.756824"><ele>3.1</ele><time>2021-02-17T16:25:11Z</time><name>PT15190</name></trkpt>
<trkpt lat="53.453372" lon="05.756829"><ele>2.8</ele><time>2021-02-17T16:25:12Z</time><name>PT15191</name></trkpt>
<trkpt lat="53.453372" lon="05.756838"><ele>2.6</ele><time>2021-02-17T16:25:13Z</time><name>PT15192</name></trkpt>
<trkpt lat="53.453371" lon="05.756845"><ele>2.5</ele><time>2021-02-17T16:25:14Z</time><name>PT15193</name></trkpt>
<trkpt lat="53.453368" lon="05.756853"><ele>2.3</ele><time>2021-02-17T16:25:15Z</time><name>PT15194</name></trkpt>
<trkpt lat="53.453364" lon="05.756859"><ele>2.3</ele><time>2021-02-17T16:25:16Z</time><name>PT15195</name></trkpt>
<trkpt lat="53.453348" lon="05.756864"><ele>2.1</ele><time>2021-02-17T16:25:17Z</time><name>PT15196</name></trkpt>
<trkpt lat="53.453340" lon="05.756872"><ele>2</ele><time>2021-02-17T16:25:18Z</time><name>PT15197</name></trkpt>
<trkpt lat="53.453331" lon="05.756873"><ele>2</ele><time>2021-02-17T16:25:19Z</time><name>PT15198</name></trkpt>
<trkpt lat="53.453331" lon="05.756880"><ele>2</ele><time>2021-02-17T16:25:20Z</time><name>PT15199</name></trkpt>
<trkpt lat="53.453325" lon="05.756890"><ele>2.1</ele><time>2021-02-17T16:25:21Z</time><name>PT15200</name></trkpt>
<trkpt lat="53.453321" lon="05.756898"><ele>2.2</ele><time>2021-02-17T16:25:22Z</time><name>PT15201</name></trkpt>
<trkpt lat="53.453320" lon="05.756917"><ele>2</ele><time>2021-02-17T16:25:23Z</time><name>PT15202</name></trkpt>
<trkpt lat="53.453308" lon="05.756932"><ele>2</ele><time>2021-02-17T16:25:24Z</time><name>PT15203</name></trkpt>
<trkpt lat="53.453303" lon="05.756939"><ele>1.7</ele><time>2021-02-17T16:25:25Z</time><name>PT15204</name></trkpt>
<trkpt lat="53.453301" lon="05.756944"><ele>1.8</ele><time>2021-02-17T16:25:26Z</time><name>PT15205</name></trkpt>
<trkpt lat="53.453292" lon="05.756966"><ele>1.8</ele><time>2021-02-17T16:25:27Z</time><name>PT15206</name></trkpt>
<trkpt lat="53.453289" lon="05.756970"><ele>1.7</ele><time>2021-02-17T16:25:28Z</time><name>PT15207</name></trkpt>
<trkpt lat="53.453283" lon="05.756981"><ele>1.8</ele><time>2021-02-17T16:25:29Z</time><name>PT15208</name></trkpt>
<trkpt lat="53.453280" lon="05.756988"><ele>1.7</ele><time>2021-02-17T16:25:30Z</time><name>PT15209</name></trkpt>
<trkpt lat="53.453278" lon="05.756995"><ele>1.5</ele><time>2021-02-17T16:25:31Z</time><name>PT15210</name></trkpt>
<trkpt lat="53.453276" lon="05.757008"><ele>1.8</ele><time>2021-02-17T16:25:32Z</time><name>PT15211</name></trkpt>
<trkpt lat="53.453267" lon="05.757034"><ele>2.3</ele><time>2021-02-17T16:25:35Z</time><name>PT15212</name></trkpt>
<trkpt lat="53.453253" lon="05.757059"><ele>2.3</ele><time>2021-02-17T16:25:36Z</time><name>PT15213</name></trkpt>
<trkpt lat="53.453244" lon="05.757094"><ele>2.3</ele><time>2021-02-17T16:25:37Z</time><name>PT15214</name></trkpt>
<trkpt lat="53.453239" lon="05.757115"><ele>2.3</ele><time>2021-02-17T16:25:38Z</time><name>PT15215</name></trkpt>
<trkpt lat="53.453235" lon="05.757130"><ele>2.1</ele><time>2021-02-17T16:25:39Z</time><name>PT15216</name></trkpt>
<trkpt lat="53.453225" lon="05.757157"><ele>2.2</ele><time>2021-02-17T16:25:40Z</time><name>PT15217</name></trkpt>
<trkpt lat="53.453224" lon="05.757169"><ele>2.5</ele><time>2021-02-17T16:25:41Z</time><name>PT15218</name></trkpt>
<trkpt lat="53.453218" lon="05.757184"><ele>2.8</ele><time>2021-02-17T16:25:42Z</time><name>PT15219</name></trkpt>
<trkpt lat="53.453206" lon="05.757213"><ele>2.8</ele><time>2021-02-17T16:25:43Z</time><name>PT15220</name></trkpt>
<trkpt lat="53.453196" lon="05.757226"><ele>3</ele><time>2021-02-17T16:25:44Z</time><name>PT15221</name></trkpt>
<trkpt lat="53.453188" lon="05.757234"><ele>3</ele><time>2021-02-17T16:25:45Z</time><name>PT15222</name></trkpt>
<trkpt lat="53.453181" lon="05.757242"><ele>2.9</ele><time>2021-02-17T16:25:46Z</time><name>PT15223</name></trkpt>
<trkpt lat="53.453177" lon="05.757249"><ele>3.1</ele><time>2021-02-17T16:25:47Z</time><name>PT15224</name></trkpt>
<trkpt lat="53.453172" lon="05.757262"><ele>3.2</ele><time>2021-02-17T16:25:48Z</time><name>PT15225</name></trkpt>
<trkpt lat="53.453165" lon="05.757273"><ele>3.3</ele><time>2021-02-17T16:25:49Z</time><name>PT15226</name></trkpt>
<trkpt lat="53.453156" lon="05.757281"><ele>3.4</ele><time>2021-02-17T16:25:50Z</time><name>PT15227</name></trkpt>
<trkpt lat="53.453142" lon="05.757296"><ele>3.6</ele><time>2021-02-17T16:25:51Z</time><name>PT15228</name></trkpt>
<trkpt lat="53.453150" lon="05.757313"><ele>3.5</ele><time>2021-02-17T16:25:52Z</time><name>PT15229</name></trkpt>
<trkpt lat="53.453145" lon="05.757324"><ele>3.7</ele><time>2021-02-17T16:25:53Z</time><name>PT15230</name></trkpt>
<trkpt lat="53.453139" lon="05.757331"><ele>3.6</ele><time>2021-02-17T16:25:54Z</time><name>PT15231</name></trkpt>
<trkpt lat="53.453136" lon="05.757337"><ele>3.4</ele><time>2021-02-17T16:25:55Z</time><name>PT15232</name></trkpt>
<trkpt lat="53.453137" lon="05.757347"><ele>3.4</ele><time>2021-02-17T16:25:56Z</time><name>PT15233</name></trkpt>
<trkpt lat="53.453129" lon="05.757368"><ele>3.2</ele><time>2021-02-17T16:25:57Z</time><name>PT15234</name></trkpt>
<trkpt lat="53.453125" lon="05.757378"><ele>3.2</ele><time>2021-02-17T16:25:58Z</time><name>PT15235</name></trkpt>
<trkpt lat="53.453121" lon="05.757389"><ele>3.1</ele><time>2021-02-17T16:25:59Z</time><name>PT15236</name></trkpt>
<trkpt lat="53.453114" lon="05.757397"><ele>3.1</ele><time>2021-02-17T16:26:00Z</time><name>PT15237</name></trkpt>
<trkpt lat="53.453109" lon="05.757404"><ele>3</ele><time>2021-02-17T16:26:01Z</time><name>PT15238</name></trkpt>
<trkpt lat="53.453102" lon="05.757410"><ele>2.8</ele><time>2021-02-17T16:26:02Z</time><name>PT15239</name></trkpt>
<trkpt lat="53.453096" lon="05.757415"><ele>2.8</ele><time>2021-02-17T16:26:03Z</time><name>PT15240</name></trkpt>
<trkpt lat="53.453090" lon="05.757422"><ele>2.6</ele><time>2021-02-17T16:26:04Z</time><name>PT15241</name></trkpt>
<trkpt lat="53.453082" lon="05.757431"><ele>2.7</ele><time>2021-02-17T16:26:05Z</time><name>PT15242</name></trkpt>
<trkpt lat="53.453080" lon="05.757439"><ele>2.6</ele><time>2021-02-17T16:26:06Z</time><name>PT15243</name></trkpt>
<trkpt lat="53.453075" lon="05.757447"><ele>2.8</ele><time>2021-02-17T16:26:07Z</time><name>PT15244</name></trkpt>
<trkpt lat="53.453075" lon="05.757456"><ele>2.7</ele><time>2021-02-17T16:26:08Z</time><name>PT15245</name></trkpt>
<trkpt lat="53.453069" lon="05.757460"><ele>2.7</ele><time>2021-02-17T16:26:09Z</time><name>PT15246</name></trkpt>
<trkpt lat="53.453067" lon="05.757460"><ele>2.7</ele><time>2021-02-17T16:26:10Z</time><name>PT15247</name></trkpt>
<trkpt lat="53.453064" lon="05.757460"><ele>2.8</ele><time>2021-02-17T16:26:11Z</time><name>PT15248</name></trkpt>
<trkpt lat="53.453063" lon="05.757465"><ele>2.6</ele><time>2021-02-17T16:26:12Z</time><name>PT15249</name></trkpt>
<trkpt lat="53.453062" lon="05.757484"><ele>2.7</ele><time>2021-02-17T16:26:17Z</time><name>PT15250</name></trkpt>
<trkpt lat="53.453054" lon="05.757492"><ele>2.8</ele><time>2021-02-17T16:26:18Z</time><name>PT15251</name></trkpt>
<trkpt lat="53.453048" lon="05.757507"><ele>2.6</ele><time>2021-02-17T16:26:19Z</time><name>PT15252</name></trkpt>
<trkpt lat="53.453041" lon="05.757518"><ele>2.5</ele><time>2021-02-17T16:26:20Z</time><name>PT15253</name></trkpt>
<trkpt lat="53.453031" lon="05.757528"><ele>2.6</ele><time>2021-02-17T16:26:21Z</time><name>PT15254</name></trkpt>
<trkpt lat="53.453023" lon="05.757531"><ele>2.4</ele><time>2021-02-17T16:26:22Z</time><name>PT15255</name></trkpt>
<trkpt lat="53.453013" lon="05.757533"><ele>2.3</ele><time>2021-02-17T16:26:23Z</time><name>PT15256</name></trkpt>
<trkpt lat="53.453007" lon="05.757539"><ele>2.3</ele><time>2021-02-17T16:26:24Z</time><name>PT15257</name></trkpt>
<trkpt lat="53.452999" lon="05.757544"><ele>2.3</ele><time>2021-02-17T16:26:25Z</time><name>PT15258</name></trkpt>
<trkpt lat="53.452993" lon="05.757548"><ele>2.4</ele><time>2021-02-17T16:26:26Z</time><name>PT15259</name></trkpt>
<trkpt lat="53.452981" lon="05.757552"><ele>2.6</ele><time>2021-02-17T16:26:27Z</time><name>PT15260</name></trkpt>
<trkpt lat="53.452976" lon="05.757560"><ele>2.8</ele><time>2021-02-17T16:26:28Z</time><name>PT15261</name></trkpt>
<trkpt lat="53.452967" lon="05.757569"><ele>2.8</ele><time>2021-02-17T16:26:29Z</time><name>PT15262</name></trkpt>
<trkpt lat="53.452966" lon="05.757578"><ele>2.8</ele><time>2021-02-17T16:26:30Z</time><name>PT15263</name></trkpt>
<trkpt lat="53.452965" lon="05.757578"><ele>2.8</ele><time>2021-02-17T16:26:31Z</time><name>PT15264</name></trkpt>
<trkpt lat="53.452961" lon="05.757585"><ele>2.7</ele><time>2021-02-17T16:26:32Z</time><name>PT15265</name></trkpt>
<trkpt lat="53.452942" lon="05.757617"><ele>2.6</ele><time>2021-02-17T16:26:33Z</time><name>PT15266</name></trkpt>
<trkpt lat="53.452932" lon="05.757627"><ele>2.8</ele><time>2021-02-17T16:26:34Z</time><name>PT15267</name></trkpt>
<trkpt lat="53.452925" lon="05.757636"><ele>2.8</ele><time>2021-02-17T16:26:35Z</time><name>PT15268</name></trkpt>
<trkpt lat="53.452920" lon="05.757641"><ele>2.9</ele><time>2021-02-17T16:26:36Z</time><name>PT15269</name></trkpt>
<trkpt lat="53.452912" lon="05.757642"><ele>3</ele><time>2021-02-17T16:26:37Z</time><name>PT15270</name></trkpt>
<trkpt lat="53.452906" lon="05.757650"><ele>2.9</ele><time>2021-02-17T16:26:38Z</time><name>PT15271</name></trkpt>
<trkpt lat="53.452899" lon="05.757660"><ele>2.9</ele><time>2021-02-17T16:26:39Z</time><name>PT15272</name></trkpt>
<trkpt lat="53.452894" lon="05.757670"><ele>3</ele><time>2021-02-17T16:26:40Z</time><name>PT15273</name></trkpt>
<trkpt lat="53.452886" lon="05.757683"><ele>2.9</ele><time>2021-02-17T16:26:41Z</time><name>PT15274</name></trkpt>
<trkpt lat="53.452876" lon="05.757693"><ele>2.8</ele><time>2021-02-17T16:26:42Z</time><name>PT15275</name></trkpt>
<trkpt lat="53.452869" lon="05.757703"><ele>2.8</ele><time>2021-02-17T16:26:43Z</time><name>PT15276</name></trkpt>
<trkpt lat="53.452857" lon="05.757712"><ele>2.5</ele><time>2021-02-17T16:26:44Z</time><name>PT15277</name></trkpt>
<trkpt lat="53.452844" lon="05.757727"><ele>2.5</ele><time>2021-02-17T16:26:45Z</time><name>PT15278</name></trkpt>
<trkpt lat="53.452832" lon="05.757743"><ele>2.5</ele><time>2021-02-17T16:26:46Z</time><name>PT15279</name></trkpt>
<trkpt lat="53.452827" lon="05.757747"><ele>2.5</ele><time>2021-02-17T16:26:47Z</time><name>PT15280</name></trkpt>
<trkpt lat="53.452819" lon="05.757753"><ele>2.5</ele><time>2021-02-17T16:26:48Z</time><name>PT15281</name></trkpt>
<trkpt lat="53.452813" lon="05.757763"><ele>2.5</ele><time>2021-02-17T16:26:49Z</time><name>PT15282</name></trkpt>
<trkpt lat="53.452805" lon="05.757779"><ele>2.4</ele><time>2021-02-17T16:26:50Z</time><name>PT15283</name></trkpt>
<trkpt lat="53.452793" lon="05.757801"><ele>2.3</ele><time>2021-02-17T16:26:51Z</time><name>PT15284</name></trkpt>
<trkpt lat="53.452789" lon="05.757803"><ele>2.2</ele><time>2021-02-17T16:26:52Z</time><name>PT15285</name></trkpt>
<trkpt lat="53.452789" lon="05.757808"><ele>2.2</ele><time>2021-02-17T16:26:53Z</time><name>PT15286</name></trkpt>
<trkpt lat="53.452787" lon="05.757814"><ele>2.3</ele><time>2021-02-17T16:26:54Z</time><name>PT15287</name></trkpt>
<trkpt lat="53.452782" lon="05.757822"><ele>2.3</ele><time>2021-02-17T16:26:55Z</time><name>PT15288</name></trkpt>
<trkpt lat="53.452771" lon="05.757833"><ele>2.1</ele><time>2021-02-17T16:26:56Z</time><name>PT15289</name></trkpt>
<trkpt lat="53.452756" lon="05.757856"><ele>2.2</ele><time>2021-02-17T16:26:57Z</time><name>PT15290</name></trkpt>
<trkpt lat="53.452749" lon="05.757868"><ele>2</ele><time>2021-02-17T16:26:58Z</time><name>PT15291</name></trkpt>
<trkpt lat="53.452742" lon="05.757876"><ele>2</ele><time>2021-02-17T16:26:59Z</time><name>PT15292</name></trkpt>
<trkpt lat="53.452739" lon="05.757888"><ele>1.9</ele><time>2021-02-17T16:27:00Z</time><name>PT15293</name></trkpt>
<trkpt lat="53.452734" lon="05.757899"><ele>1.8</ele><time>2021-02-17T16:27:01Z</time><name>PT15294</name></trkpt>
<trkpt lat="53.452728" lon="05.757907"><ele>1.8</ele><time>2021-02-17T16:27:02Z</time><name>PT15295</name></trkpt>
<trkpt lat="53.452724" lon="05.757919"><ele>1.8</ele><time>2021-02-17T16:27:03Z</time><name>PT15296</name></trkpt>
<trkpt lat="53.452709" lon="05.757940"><ele>1.8</ele><time>2021-02-17T16:27:04Z</time><name>PT15297</name></trkpt>
<trkpt lat="53.452700" lon="05.757950"><ele>1.8</ele><time>2021-02-17T16:27:05Z</time><name>PT15298</name></trkpt>
<trkpt lat="53.452704" lon="05.757964"><ele>1.9</ele><time>2021-02-17T16:27:06Z</time><name>PT15299</name></trkpt>
<trkpt lat="53.452698" lon="05.757977"><ele>1.8</ele><time>2021-02-17T16:27:07Z</time><name>PT15300</name></trkpt>
<trkpt lat="53.452694" lon="05.757988"><ele>2</ele><time>2021-02-17T16:27:08Z</time><name>PT15301</name></trkpt>
<trkpt lat="53.452689" lon="05.757994"><ele>1.9</ele><time>2021-02-17T16:27:09Z</time><name>PT15302</name></trkpt>
<trkpt lat="53.452682" lon="05.758001"><ele>2.1</ele><time>2021-02-17T16:27:10Z</time><name>PT15303</name></trkpt>
<trkpt lat="53.452678" lon="05.758003"><ele>2.3</ele><time>2021-02-17T16:27:11Z</time><name>PT15304</name></trkpt>
<trkpt lat="53.452664" lon="05.758015"><ele>2.3</ele><time>2021-02-17T16:27:12Z</time><name>PT15305</name></trkpt>
<trkpt lat="53.452652" lon="05.758026"><ele>2.3</ele><time>2021-02-17T16:27:13Z</time><name>PT15306</name></trkpt>
<trkpt lat="53.452641" lon="05.758030"><ele>2.2</ele><time>2021-02-17T16:27:14Z</time><name>PT15307</name></trkpt>
<trkpt lat="53.452622" lon="05.758043"><ele>2.2</ele><time>2021-02-17T16:27:15Z</time><name>PT15308</name></trkpt>
<trkpt lat="53.452604" lon="05.758048"><ele>2.2</ele><time>2021-02-17T16:27:16Z</time><name>PT15309</name></trkpt>
<trkpt lat="53.452599" lon="05.758047"><ele>2.4</ele><time>2021-02-17T16:27:17Z</time><name>PT15310</name></trkpt>
<trkpt lat="53.452594" lon="05.758051"><ele>2.5</ele><time>2021-02-17T16:27:18Z</time><name>PT15311</name></trkpt>
<trkpt lat="53.452585" lon="05.758047"><ele>2.8</ele><time>2021-02-17T16:27:19Z</time><name>PT15312</name></trkpt>
<trkpt lat="53.452579" lon="05.758053"><ele>2.8</ele><time>2021-02-17T16:27:20Z</time><name>PT15313</name></trkpt>
<trkpt lat="53.452574" lon="05.758059"><ele>2.6</ele><time>2021-02-17T16:27:21Z</time><name>PT15314</name></trkpt>
<trkpt lat="53.452567" lon="05.758067"><ele>2.3</ele><time>2021-02-17T16:27:22Z</time><name>PT15315</name></trkpt>
<trkpt lat="53.452557" lon="05.758070"><ele>2.3</ele><time>2021-02-17T16:27:23Z</time><name>PT15316</name></trkpt>
<trkpt lat="53.452545" lon="05.758076"><ele>2.3</ele><time>2021-02-17T16:27:24Z</time><name>PT15317</name></trkpt>
<trkpt lat="53.452537" lon="05.758089"><ele>2.3</ele><time>2021-02-17T16:27:25Z</time><name>PT15318</name></trkpt>
<trkpt lat="53.452531" lon="05.758100"><ele>2.3</ele><time>2021-02-17T16:27:26Z</time><name>PT15319</name></trkpt>
<trkpt lat="53.452525" lon="05.758107"><ele>2.2</ele><time>2021-02-17T16:27:27Z</time><name>PT15320</name></trkpt>
<trkpt lat="53.452514" lon="05.758118"><ele>1.8</ele><time>2021-02-17T16:27:28Z</time><name>PT15321</name></trkpt>
<trkpt lat="53.452515" lon="05.758128"><ele>1.6</ele><time>2021-02-17T16:27:29Z</time><name>PT15322</name></trkpt>
<trkpt lat="53.452509" lon="05.758140"><ele>1.6</ele><time>2021-02-17T16:27:30Z</time><name>PT15323</name></trkpt>
<trkpt lat="53.452499" lon="05.758143"><ele>1.6</ele><time>2021-02-17T16:27:31Z</time><name>PT15324</name></trkpt>
<trkpt lat="53.452490" lon="05.758145"><ele>1.8</ele><time>2021-02-17T16:27:32Z</time><name>PT15325</name></trkpt>
<trkpt lat="53.452483" lon="05.758157"><ele>1.6</ele><time>2021-02-17T16:27:33Z</time><name>PT15326</name></trkpt>
<trkpt lat="53.452477" lon="05.758174"><ele>1.6</ele><time>2021-02-17T16:27:34Z</time><name>PT15327</name></trkpt>
<trkpt lat="53.452465" lon="05.758179"><ele>1.4</ele><time>2021-02-17T16:27:35Z</time><name>PT15328</name></trkpt>
<trkpt lat="53.452456" lon="05.758189"><ele>1.4</ele><time>2021-02-17T16:27:36Z</time><name>PT15329</name></trkpt>
<trkpt lat="53.452449" lon="05.758193"><ele>1.5</ele><time>2021-02-17T16:27:37Z</time><name>PT15330</name></trkpt>
<trkpt lat="53.452443" lon="05.758201"><ele>1.7</ele><time>2021-02-17T16:27:38Z</time><name>PT15331</name></trkpt>
<trkpt lat="53.452440" lon="05.758203"><ele>1.8</ele><time>2021-02-17T16:27:39Z</time><name>PT15332</name></trkpt>
<trkpt lat="53.452432" lon="05.758217"><ele>1.9</ele><time>2021-02-17T16:27:40Z</time><name>PT15333</name></trkpt>
<trkpt lat="53.452418" lon="05.758229"><ele>2.3</ele><time>2021-02-17T16:27:41Z</time><name>PT15334</name></trkpt>
<trkpt lat="53.452412" lon="05.758235"><ele>2.2</ele><time>2021-02-17T16:27:42Z</time><name>PT15335</name></trkpt>
<trkpt lat="53.452406" lon="05.758242"><ele>2.3</ele><time>2021-02-17T16:27:43Z</time><name>PT15336</name></trkpt>
<trkpt lat="53.452403" lon="05.758248"><ele>2.3</ele><time>2021-02-17T16:27:44Z</time><name>PT15337</name></trkpt>
<trkpt lat="53.452395" lon="05.758251"><ele>2.3</ele><time>2021-02-17T16:27:45Z</time><name>PT15338</name></trkpt>
<trkpt lat="53.452395" lon="05.758250"><ele>2.3</ele><time>2021-02-17T16:27:46Z</time><name>PT15339</name></trkpt>
<trkpt lat="53.452389" lon="05.758257"><ele>2.3</ele><time>2021-02-17T16:27:47Z</time><name>PT15340</name></trkpt>
<trkpt lat="53.452372" lon="05.758271"><ele>2.4</ele><time>2021-02-17T16:27:48Z</time><name>PT15341</name></trkpt>
<trkpt lat="53.452363" lon="05.758282"><ele>2.3</ele><time>2021-02-17T16:27:49Z</time><name>PT15342</name></trkpt>
<trkpt lat="53.452356" lon="05.758290"><ele>2.2</ele><time>2021-02-17T16:27:50Z</time><name>PT15343</name></trkpt>
<trkpt lat="53.452346" lon="05.758297"><ele>2</ele><time>2021-02-17T16:27:51Z</time><name>PT15344</name></trkpt>
<trkpt lat="53.452339" lon="05.758305"><ele>1.8</ele><time>2021-02-17T16:27:52Z</time><name>PT15345</name></trkpt>
<trkpt lat="53.452331" lon="05.758313"><ele>1.8</ele><time>2021-02-17T16:27:53Z</time><name>PT15346</name></trkpt>
<trkpt lat="53.452316" lon="05.758325"><ele>1.7</ele><time>2021-02-17T16:27:54Z</time><name>PT15347</name></trkpt>
<trkpt lat="53.452307" lon="05.758336"><ele>1.5</ele><time>2021-02-17T16:27:55Z</time><name>PT15348</name></trkpt>
<trkpt lat="53.452297" lon="05.758356"><ele>1.7</ele><time>2021-02-17T16:27:56Z</time><name>PT15349</name></trkpt>
<trkpt lat="53.452286" lon="05.758377"><ele>1.6</ele><time>2021-02-17T16:27:57Z</time><name>PT15350</name></trkpt>
<trkpt lat="53.452278" lon="05.758385"><ele>1.7</ele><time>2021-02-17T16:27:58Z</time><name>PT15351</name></trkpt>
<trkpt lat="53.452271" lon="05.758393"><ele>1.6</ele><time>2021-02-17T16:27:59Z</time><name>PT15352</name></trkpt>
<trkpt lat="53.452262" lon="05.758399"><ele>1.5</ele><time>2021-02-17T16:28:00Z</time><name>PT15353</name></trkpt>
<trkpt lat="53.452256" lon="05.758404"><ele>1.4</ele><time>2021-02-17T16:28:01Z</time><name>PT15354</name></trkpt>
<trkpt lat="53.452250" lon="05.758411"><ele>1.5</ele><time>2021-02-17T16:28:02Z</time><name>PT15355</name></trkpt>
<trkpt lat="53.452244" lon="05.758419"><ele>1.5</ele><time>2021-02-17T16:28:03Z</time><name>PT15356</name></trkpt>
<trkpt lat="53.452241" lon="05.758423"><ele>1.7</ele><time>2021-02-17T16:28:04Z</time><name>PT15357</name></trkpt>
<trkpt lat="53.452236" lon="05.758433"><ele>1.8</ele><time>2021-02-17T16:28:05Z</time><name>PT15358</name></trkpt>
<trkpt lat="53.452228" lon="05.758446"><ele>1.8</ele><time>2021-02-17T16:28:06Z</time><name>PT15359</name></trkpt>
<trkpt lat="53.452217" lon="05.758459"><ele>1.7</ele><time>2021-02-17T16:28:07Z</time><name>PT15360</name></trkpt>
<trkpt lat="53.452209" lon="05.758470"><ele>1.8</ele><time>2021-02-17T16:28:08Z</time><name>PT15361</name></trkpt>
<trkpt lat="53.452200" lon="05.758481"><ele>1.6</ele><time>2021-02-17T16:28:09Z</time><name>PT15362</name></trkpt>
<trkpt lat="53.452182" lon="05.758494"><ele>1.5</ele><time>2021-02-17T16:28:10Z</time><name>PT15363</name></trkpt>
<trkpt lat="53.452172" lon="05.758508"><ele>1.5</ele><time>2021-02-17T16:28:11Z</time><name>PT15364</name></trkpt>
<trkpt lat="53.452166" lon="05.758521"><ele>1.4</ele><time>2021-02-17T16:28:12Z</time><name>PT15365</name></trkpt>
<trkpt lat="53.452159" lon="05.758533"><ele>1.4</ele><time>2021-02-17T16:28:13Z</time><name>PT15366</name></trkpt>
<trkpt lat="53.452156" lon="05.758536"><ele>1.6</ele><time>2021-02-17T16:28:14Z</time><name>PT15367</name></trkpt>
<trkpt lat="53.452153" lon="05.758538"><ele>1.6</ele><time>2021-02-17T16:28:15Z</time><name>PT15368</name></trkpt>
<trkpt lat="53.452149" lon="05.758547"><ele>1.7</ele><time>2021-02-17T16:28:16Z</time><name>PT15369</name></trkpt>
<trkpt lat="53.452141" lon="05.758555"><ele>1.9</ele><time>2021-02-17T16:28:17Z</time><name>PT15370</name></trkpt>
<trkpt lat="53.452143" lon="05.758566"><ele>1.8</ele><time>2021-02-17T16:28:18Z</time><name>PT15371</name></trkpt>
<trkpt lat="53.452137" lon="05.758575"><ele>1.7</ele><time>2021-02-17T16:28:19Z</time><name>PT15372</name></trkpt>
<trkpt lat="53.452130" lon="05.758585"><ele>1.8</ele><time>2021-02-17T16:28:20Z</time><name>PT15373</name></trkpt>
<trkpt lat="53.452121" lon="05.758592"><ele>1.7</ele><time>2021-02-17T16:28:21Z</time><name>PT15374</name></trkpt>
<trkpt lat="53.452114" lon="05.758600"><ele>1.6</ele><time>2021-02-17T16:28:22Z</time><name>PT15375</name></trkpt>
<trkpt lat="53.452109" lon="05.758615"><ele>1.6</ele><time>2021-02-17T16:28:23Z</time><name>PT15376</name></trkpt>
<trkpt lat="53.452105" lon="05.758636"><ele>1.6</ele><time>2021-02-17T16:28:24Z</time><name>PT15377</name></trkpt>
<trkpt lat="53.452103" lon="05.758643"><ele>1.8</ele><time>2021-02-17T16:28:25Z</time><name>PT15378</name></trkpt>
<trkpt lat="53.452095" lon="05.758657"><ele>1.7</ele><time>2021-02-17T16:28:26Z</time><name>PT15379</name></trkpt>
<trkpt lat="53.452092" lon="05.758668"><ele>1.8</ele><time>2021-02-17T16:28:27Z</time><name>PT15380</name></trkpt>
<trkpt lat="53.452088" lon="05.758678"><ele>1.8</ele><time>2021-02-17T16:28:28Z</time><name>PT15381</name></trkpt>
<trkpt lat="53.452082" lon="05.758687"><ele>1.7</ele><time>2021-02-17T16:28:29Z</time><name>PT15382</name></trkpt>
<trkpt lat="53.452072" lon="05.758698"><ele>1.7</ele><time>2021-02-17T16:28:30Z</time><name>PT15383</name></trkpt>
<trkpt lat="53.452069" lon="05.758705"><ele>1.8</ele><time>2021-02-17T16:28:31Z</time><name>PT15384</name></trkpt>
<trkpt lat="53.452065" lon="05.758716"><ele>1.8</ele><time>2021-02-17T16:28:32Z</time><name>PT15385</name></trkpt>
<trkpt lat="53.452062" lon="05.758727"><ele>1.8</ele><time>2021-02-17T16:28:33Z</time><name>PT15386</name></trkpt>
<trkpt lat="53.452061" lon="05.758745"><ele>1.8</ele><time>2021-02-17T16:28:34Z</time><name>PT15387</name></trkpt>
<trkpt lat="53.452060" lon="05.758752"><ele>1.5</ele><time>2021-02-17T16:28:35Z</time><name>PT15388</name></trkpt>
<trkpt lat="53.452060" lon="05.758764"><ele>1.6</ele><time>2021-02-17T16:28:36Z</time><name>PT15389</name></trkpt>
<trkpt lat="53.452059" lon="05.758768"><ele>1.6</ele><time>2021-02-17T16:28:37Z</time><name>PT15390</name></trkpt>
<trkpt lat="53.452062" lon="05.758777"><ele>1.8</ele><time>2021-02-17T16:28:38Z</time><name>PT15391</name></trkpt>
<trkpt lat="53.452063" lon="05.758787"><ele>1.8</ele><time>2021-02-17T16:28:39Z</time><name>PT15392</name></trkpt>
<trkpt lat="53.452064" lon="05.758789"><ele>1.8</ele><time>2021-02-17T16:28:40Z</time><name>PT15393</name></trkpt>
<trkpt lat="53.452055" lon="05.758799"><ele>1.8</ele><time>2021-02-17T16:28:43Z</time><name>PT15394</name></trkpt>
<trkpt lat="53.452050" lon="05.758812"><ele>1.8</ele><time>2021-02-17T16:28:44Z</time><name>PT15395</name></trkpt>
<trkpt lat="53.452035" lon="05.758836"><ele>1.9</ele><time>2021-02-17T16:28:45Z</time><name>PT15396</name></trkpt>
<trkpt lat="53.452028" lon="05.758842"><ele>1.8</ele><time>2021-02-17T16:28:46Z</time><name>PT15397</name></trkpt>
<trkpt lat="53.452018" lon="05.758854"><ele>1.8</ele><time>2021-02-17T16:28:47Z</time><name>PT15398</name></trkpt>
<trkpt lat="53.452004" lon="05.758853"><ele>1.9</ele><time>2021-02-17T16:28:48Z</time><name>PT15399</name></trkpt>
<trkpt lat="53.451996" lon="05.758854"><ele>1.9</ele><time>2021-02-17T16:28:49Z</time><name>PT15400</name></trkpt>
<trkpt lat="53.451991" lon="05.758859"><ele>2</ele><time>2021-02-17T16:28:50Z</time><name>PT15401</name></trkpt>
<trkpt lat="53.451987" lon="05.758872"><ele>2.1</ele><time>2021-02-17T16:28:51Z</time><name>PT15402</name></trkpt>
<trkpt lat="53.451982" lon="05.758880"><ele>2.2</ele><time>2021-02-17T16:28:52Z</time><name>PT15403</name></trkpt>
<trkpt lat="53.451974" lon="05.758893"><ele>2.3</ele><time>2021-02-17T16:28:53Z</time><name>PT15404</name></trkpt>
<trkpt lat="53.451972" lon="05.758909"><ele>2.3</ele><time>2021-02-17T16:28:54Z</time><name>PT15405</name></trkpt>
<trkpt lat="53.451969" lon="05.758920"><ele>2.3</ele><time>2021-02-17T16:28:55Z</time><name>PT15406</name></trkpt>
<trkpt lat="53.451964" lon="05.758933"><ele>2.1</ele><time>2021-02-17T16:28:56Z</time><name>PT15407</name></trkpt>
<trkpt lat="53.451962" lon="05.758946"><ele>1.9</ele><time>2021-02-17T16:28:57Z</time><name>PT15408</name></trkpt>
<trkpt lat="53.451961" lon="05.758960"><ele>2</ele><time>2021-02-17T16:28:58Z</time><name>PT15409</name></trkpt>
<trkpt lat="53.451956" lon="05.758973"><ele>2.1</ele><time>2021-02-17T16:28:59Z</time><name>PT15410</name></trkpt>
<trkpt lat="53.451949" lon="05.758986"><ele>2.3</ele><time>2021-02-17T16:29:00Z</time><name>PT15411</name></trkpt>
<trkpt lat="53.451947" lon="05.758997"><ele>2.3</ele><time>2021-02-17T16:29:01Z</time><name>PT15412</name></trkpt>
<trkpt lat="53.451941" lon="05.759012"><ele>2.2</ele><time>2021-02-17T16:29:02Z</time><name>PT15413</name></trkpt>
<trkpt lat="53.451932" lon="05.759025"><ele>2.3</ele><time>2021-02-17T16:29:03Z</time><name>PT15414</name></trkpt>
<trkpt lat="53.451926" lon="05.759041"><ele>2.3</ele><time>2021-02-17T16:29:04Z</time><name>PT15415</name></trkpt>
<trkpt lat="53.451916" lon="05.759073"><ele>2.4</ele><time>2021-02-17T16:29:05Z</time><name>PT15416</name></trkpt>
<trkpt lat="53.451912" lon="05.759091"><ele>2.3</ele><time>2021-02-17T16:29:06Z</time><name>PT15417</name></trkpt>
<trkpt lat="53.451909" lon="05.759107"><ele>2.3</ele><time>2021-02-17T16:29:07Z</time><name>PT15418</name></trkpt>
<trkpt lat="53.451903" lon="05.759125"><ele>2.2</ele><time>2021-02-17T16:29:08Z</time><name>PT15419</name></trkpt>
<trkpt lat="53.451898" lon="05.759143"><ele>2.2</ele><time>2021-02-17T16:29:09Z</time><name>PT15420</name></trkpt>
<trkpt lat="53.451891" lon="05.759163"><ele>2.3</ele><time>2021-02-17T16:29:10Z</time><name>PT15421</name></trkpt>
<trkpt lat="53.451888" lon="05.759183"><ele>2.4</ele><time>2021-02-17T16:29:11Z</time><name>PT15422</name></trkpt>
<trkpt lat="53.451885" lon="05.759202"><ele>2.4</ele><time>2021-02-17T16:29:12Z</time><name>PT15423</name></trkpt>
<trkpt lat="53.451879" lon="05.759213"><ele>2.3</ele><time>2021-02-17T16:29:13Z</time><name>PT15424</name></trkpt>
<trkpt lat="53.451875" lon="05.759244"><ele>2.3</ele><time>2021-02-17T16:29:14Z</time><name>PT15425</name></trkpt>
<trkpt lat="53.451871" lon="05.759264"><ele>2.3</ele><time>2021-02-17T16:29:15Z</time><name>PT15426</name></trkpt>
<trkpt lat="53.451865" lon="05.759282"><ele>2.2</ele><time>2021-02-17T16:29:16Z</time><name>PT15427</name></trkpt>
<trkpt lat="53.451859" lon="05.759294"><ele>2.1</ele><time>2021-02-17T16:29:17Z</time><name>PT15428</name></trkpt>
<trkpt lat="53.451854" lon="05.759311"><ele>2</ele><time>2021-02-17T16:29:18Z</time><name>PT15429</name></trkpt>
<trkpt lat="53.451850" lon="05.759334"><ele>1.9</ele><time>2021-02-17T16:29:19Z</time><name>PT15430</name></trkpt>
<trkpt lat="53.451845" lon="05.759351"><ele>2.1</ele><time>2021-02-17T16:29:20Z</time><name>PT15431</name></trkpt>
<trkpt lat="53.451840" lon="05.759365"><ele>2</ele><time>2021-02-17T16:29:21Z</time><name>PT15432</name></trkpt>
<trkpt lat="53.451837" lon="05.759380"><ele>2.2</ele><time>2021-02-17T16:29:22Z</time><name>PT15433</name></trkpt>
<trkpt lat="53.451832" lon="05.759389"><ele>2.3</ele><time>2021-02-17T16:29:23Z</time><name>PT15434</name></trkpt>
<trkpt lat="53.451832" lon="05.759403"><ele>2.2</ele><time>2021-02-17T16:29:24Z</time><name>PT15435</name></trkpt>
<trkpt lat="53.451830" lon="05.759415"><ele>2.3</ele><time>2021-02-17T16:29:25Z</time><name>PT15436</name></trkpt>
<trkpt lat="53.451824" lon="05.759425"><ele>2.3</ele><time>2021-02-17T16:29:26Z</time><name>PT15437</name></trkpt>
<trkpt lat="53.451820" lon="05.759434"><ele>2.4</ele><time>2021-02-17T16:29:27Z</time><name>PT15438</name></trkpt>
<trkpt lat="53.451817" lon="05.759450"><ele>2.6</ele><time>2021-02-17T16:29:28Z</time><name>PT15439</name></trkpt>
<trkpt lat="53.451816" lon="05.759463"><ele>2.7</ele><time>2021-02-17T16:29:29Z</time><name>PT15440</name></trkpt>
<trkpt lat="53.451815" lon="05.759473"><ele>2.8</ele><time>2021-02-17T16:29:30Z</time><name>PT15441</name></trkpt>
<trkpt lat="53.451814" lon="05.759485"><ele>2.6</ele><time>2021-02-17T16:29:31Z</time><name>PT15442</name></trkpt>
<trkpt lat="53.451816" lon="05.759491"><ele>2.4</ele><time>2021-02-17T16:29:32Z</time><name>PT15443</name></trkpt>
<trkpt lat="53.451814" lon="05.759500"><ele>2.5</ele><time>2021-02-17T16:29:33Z</time><name>PT15444</name></trkpt>
<trkpt lat="53.451811" lon="05.759516"><ele>2.5</ele><time>2021-02-17T16:29:34Z</time><name>PT15445</name></trkpt>
<trkpt lat="53.451809" lon="05.759527"><ele>2.8</ele><time>2021-02-17T16:29:35Z</time><name>PT15446</name></trkpt>
<trkpt lat="53.451806" lon="05.759540"><ele>2.7</ele><time>2021-02-17T16:29:36Z</time><name>PT15447</name></trkpt>
<trkpt lat="53.451802" lon="05.759550"><ele>2.8</ele><time>2021-02-17T16:29:37Z</time><name>PT15448</name></trkpt>
<trkpt lat="53.451801" lon="05.759569"><ele>2.7</ele><time>2021-02-17T16:29:38Z</time><name>PT15449</name></trkpt>
<trkpt lat="53.451800" lon="05.759585"><ele>2.8</ele><time>2021-02-17T16:29:39Z</time><name>PT15450</name></trkpt>
<trkpt lat="53.451792" lon="05.759605"><ele>2.7</ele><time>2021-02-17T16:29:40Z</time><name>PT15451</name></trkpt>
<trkpt lat="53.451783" lon="05.759618"><ele>2.7</ele><time>2021-02-17T16:29:41Z</time><name>PT15452</name></trkpt>
<trkpt lat="53.451777" lon="05.759629"><ele>2.5</ele><time>2021-02-17T16:29:42Z</time><name>PT15453</name></trkpt>
<trkpt lat="53.451774" lon="05.759642"><ele>2.5</ele><time>2021-02-17T16:29:43Z</time><name>PT15454</name></trkpt>
<trkpt lat="53.451768" lon="05.759654"><ele>2.6</ele><time>2021-02-17T16:29:44Z</time><name>PT15455</name></trkpt>
<trkpt lat="53.451763" lon="05.759659"><ele>2.5</ele><time>2021-02-17T16:29:45Z</time><name>PT15456</name></trkpt>
<trkpt lat="53.451756" lon="05.759664"><ele>2.4</ele><time>2021-02-17T16:29:46Z</time><name>PT15457</name></trkpt>
<trkpt lat="53.451753" lon="05.759678"><ele>2.5</ele><time>2021-02-17T16:29:47Z</time><name>PT15458</name></trkpt>
<trkpt lat="53.451751" lon="05.759688"><ele>2.6</ele><time>2021-02-17T16:29:48Z</time><name>PT15459</name></trkpt>
<trkpt lat="53.451746" lon="05.759695"><ele>2.7</ele><time>2021-02-17T16:29:49Z</time><name>PT15460</name></trkpt>
<trkpt lat="53.451744" lon="05.759698"><ele>2.6</ele><time>2021-02-17T16:29:50Z</time><name>PT15461</name></trkpt>
<trkpt lat="53.451738" lon="05.759709"><ele>2.5</ele><time>2021-02-17T16:29:51Z</time><name>PT15462</name></trkpt>
<trkpt lat="53.451732" lon="05.759720"><ele>2.3</ele><time>2021-02-17T16:29:52Z</time><name>PT15463</name></trkpt>
<trkpt lat="53.451728" lon="05.759737"><ele>2.2</ele><time>2021-02-17T16:29:53Z</time><name>PT15464</name></trkpt>
<trkpt lat="53.451723" lon="05.759753"><ele>2.3</ele><time>2021-02-17T16:29:54Z</time><name>PT15465</name></trkpt>
<trkpt lat="53.451720" lon="05.759766"><ele>2.2</ele><time>2021-02-17T16:29:55Z</time><name>PT15466</name></trkpt>
<trkpt lat="53.451722" lon="05.759787"><ele>2.1</ele><time>2021-02-17T16:29:56Z</time><name>PT15467</name></trkpt>
<trkpt lat="53.451720" lon="05.759803"><ele>2.2</ele><time>2021-02-17T16:29:57Z</time><name>PT15468</name></trkpt>
<trkpt lat="53.451719" lon="05.759817"><ele>2.3</ele><time>2021-02-17T16:29:58Z</time><name>PT15469</name></trkpt>
<trkpt lat="53.451716" lon="05.759828"><ele>2.3</ele><time>2021-02-17T16:29:59Z</time><name>PT15470</name></trkpt>
<trkpt lat="53.451714" lon="05.759841"><ele>2.3</ele><time>2021-02-17T16:30:00Z</time><name>PT15471</name></trkpt>
<trkpt lat="53.451714" lon="05.759864"><ele>2.2</ele><time>2021-02-17T16:30:01Z</time><name>PT15472</name></trkpt>
<trkpt lat="53.451709" lon="05.759877"><ele>2.1</ele><time>2021-02-17T16:30:02Z</time><name>PT15473</name></trkpt>
<trkpt lat="53.451706" lon="05.759896"><ele>2.2</ele><time>2021-02-17T16:30:03Z</time><name>PT15474</name></trkpt>
<trkpt lat="53.451711" lon="05.759910"><ele>2.3</ele><time>2021-02-17T16:30:04Z</time><name>PT15475</name></trkpt>
<trkpt lat="53.451710" lon="05.759919"><ele>2.4</ele><time>2021-02-17T16:30:05Z</time><name>PT15476</name></trkpt>
<trkpt lat="53.451706" lon="05.759932"><ele>2.4</ele><time>2021-02-17T16:30:06Z</time><name>PT15477</name></trkpt>
<trkpt lat="53.451703" lon="05.759945"><ele>2.3</ele><time>2021-02-17T16:30:07Z</time><name>PT15478</name></trkpt>
<trkpt lat="53.451697" lon="05.759959"><ele>2.3</ele><time>2021-02-17T16:30:08Z</time><name>PT15479</name></trkpt>
<trkpt lat="53.451695" lon="05.759978"><ele>2.3</ele><time>2021-02-17T16:30:09Z</time><name>PT15480</name></trkpt>
<trkpt lat="53.451690" lon="05.759990"><ele>2.2</ele><time>2021-02-17T16:30:10Z</time><name>PT15481</name></trkpt>
<trkpt lat="53.451690" lon="05.760002"><ele>2.1</ele><time>2021-02-17T16:30:11Z</time><name>PT15482</name></trkpt>
<trkpt lat="53.451685" lon="05.760017"><ele>2.1</ele><time>2021-02-17T16:30:12Z</time><name>PT15483</name></trkpt>
<trkpt lat="53.451677" lon="05.760027"><ele>2</ele><time>2021-02-17T16:30:13Z</time><name>PT15484</name></trkpt>
<trkpt lat="53.451674" lon="05.760043"><ele>2.1</ele><time>2021-02-17T16:30:14Z</time><name>PT15485</name></trkpt>
<trkpt lat="53.451670" lon="05.760069"><ele>2</ele><time>2021-02-17T16:30:15Z</time><name>PT15486</name></trkpt>
<trkpt lat="53.451667" lon="05.760087"><ele>2.2</ele><time>2021-02-17T16:30:16Z</time><name>PT15487</name></trkpt>
<trkpt lat="53.451668" lon="05.760097"><ele>2.1</ele><time>2021-02-17T16:30:17Z</time><name>PT15488</name></trkpt>
<trkpt lat="53.451663" lon="05.760104"><ele>2.1</ele><time>2021-02-17T16:30:18Z</time><name>PT15489</name></trkpt>
<trkpt lat="53.451658" lon="05.760114"><ele>2.2</ele><time>2021-02-17T16:30:19Z</time><name>PT15490</name></trkpt>
<trkpt lat="53.451654" lon="05.760123"><ele>2.2</ele><time>2021-02-17T16:30:20Z</time><name>PT15491</name></trkpt>
<trkpt lat="53.451648" lon="05.760130"><ele>2.2</ele><time>2021-02-17T16:30:21Z</time><name>PT15492</name></trkpt>
<trkpt lat="53.451645" lon="05.760143"><ele>2.2</ele><time>2021-02-17T16:30:22Z</time><name>PT15493</name></trkpt>
<trkpt lat="53.451645" lon="05.760159"><ele>2.3</ele><time>2021-02-17T16:30:23Z</time><name>PT15494</name></trkpt>
<trkpt lat="53.451650" lon="05.760172"><ele>2.2</ele><time>2021-02-17T16:30:24Z</time><name>PT15495</name></trkpt>
<trkpt lat="53.451654" lon="05.760182"><ele>2.3</ele><time>2021-02-17T16:30:25Z</time><name>PT15496</name></trkpt>
<trkpt lat="53.451646" lon="05.760192"><ele>2.4</ele><time>2021-02-17T16:30:26Z</time><name>PT15497</name></trkpt>
<trkpt lat="53.451645" lon="05.760229"><ele>2.6</ele><time>2021-02-17T16:30:27Z</time><name>PT15498</name></trkpt>
<trkpt lat="53.451645" lon="05.760247"><ele>2.6</ele><time>2021-02-17T16:30:28Z</time><name>PT15499</name></trkpt>
<trkpt lat="53.451648" lon="05.760260"><ele>2.3</ele><time>2021-02-17T16:30:29Z</time><name>PT15500</name></trkpt>
<trkpt lat="53.451650" lon="05.760283"><ele>2.3</ele><time>2021-02-17T16:30:30Z</time><name>PT15501</name></trkpt>
<trkpt lat="53.451667" lon="05.760312"><ele>2.1</ele><time>2021-02-17T16:30:31Z</time><name>PT15502</name></trkpt>
<trkpt lat="53.451672" lon="05.760341"><ele>2.1</ele><time>2021-02-17T16:30:32Z</time><name>PT15503</name></trkpt>
<trkpt lat="53.451678" lon="05.760362"><ele>2</ele><time>2021-02-17T16:30:33Z</time><name>PT15504</name></trkpt>
<trkpt lat="53.451687" lon="05.760375"><ele>2.2</ele><time>2021-02-17T16:30:34Z</time><name>PT15505</name></trkpt>
<trkpt lat="53.451694" lon="05.760391"><ele>2.1</ele><time>2021-02-17T16:30:35Z</time><name>PT15506</name></trkpt>
<trkpt lat="53.451697" lon="05.760409"><ele>2.1</ele><time>2021-02-17T16:30:36Z</time><name>PT15507</name></trkpt>
<trkpt lat="53.451695" lon="05.760423"><ele>2.1</ele><time>2021-02-17T16:30:37Z</time><name>PT15508</name></trkpt>
<trkpt lat="53.451703" lon="05.760448"><ele>1.9</ele><time>2021-02-17T16:30:38Z</time><name>PT15509</name></trkpt>
<trkpt lat="53.451710" lon="05.760460"><ele>1.9</ele><time>2021-02-17T16:30:39Z</time><name>PT15510</name></trkpt>
<trkpt lat="53.451718" lon="05.760476"><ele>2</ele><time>2021-02-17T16:30:40Z</time><name>PT15511</name></trkpt>
<trkpt lat="53.451725" lon="05.760491"><ele>1.8</ele><time>2021-02-17T16:30:41Z</time><name>PT15512</name></trkpt>
<trkpt lat="53.451730" lon="05.760511"><ele>1.8</ele><time>2021-02-17T16:30:42Z</time><name>PT15513</name></trkpt>
<trkpt lat="53.451735" lon="05.760543"><ele>1.9</ele><time>2021-02-17T16:30:43Z</time><name>PT15514</name></trkpt>
<trkpt lat="53.451748" lon="05.760556"><ele>1.8</ele><time>2021-02-17T16:30:44Z</time><name>PT15515</name></trkpt>
<trkpt lat="53.451752" lon="05.760564"><ele>2</ele><time>2021-02-17T16:30:45Z</time><name>PT15516</name></trkpt>
<trkpt lat="53.451755" lon="05.760571"><ele>2.2</ele><time>2021-02-17T16:30:46Z</time><name>PT15517</name></trkpt>
<trkpt lat="53.451758" lon="05.760578"><ele>2.2</ele><time>2021-02-17T16:30:47Z</time><name>PT15518</name></trkpt>
<trkpt lat="53.451760" lon="05.760582"><ele>2.3</ele><time>2021-02-17T16:30:48Z</time><name>PT15519</name></trkpt>
<trkpt lat="53.451761" lon="05.760587"><ele>2.3</ele><time>2021-02-17T16:30:49Z</time><name>PT15520</name></trkpt>
<trkpt lat="53.451766" lon="05.760594"><ele>2.4</ele><time>2021-02-17T16:30:50Z</time><name>PT15521</name></trkpt>
<trkpt lat="53.451770" lon="05.760600"><ele>2.4</ele><time>2021-02-17T16:30:51Z</time><name>PT15522</name></trkpt>
<trkpt lat="53.451772" lon="05.760601"><ele>2.3</ele><time>2021-02-17T16:30:52Z</time><name>PT15523</name></trkpt>
<trkpt lat="53.451773" lon="05.760606"><ele>2.6</ele><time>2021-02-17T16:30:53Z</time><name>PT15524</name></trkpt>
<trkpt lat="53.451779" lon="05.760610"><ele>2.4</ele><time>2021-02-17T16:30:54Z</time><name>PT15525</name></trkpt>
<trkpt lat="53.451778" lon="05.760617"><ele>2.1</ele><time>2021-02-17T16:30:55Z</time><name>PT15526</name></trkpt>
<trkpt lat="53.451778" lon="05.760620"><ele>2.1</ele><time>2021-02-17T16:30:56Z</time><name>PT15527</name></trkpt>
<trkpt lat="53.451774" lon="05.760624"><ele>1.9</ele><time>2021-02-17T16:30:57Z</time><name>PT15528</name></trkpt>
<trkpt lat="53.451780" lon="05.760632"><ele>1.9</ele><time>2021-02-17T16:30:58Z</time><name>PT15529</name></trkpt>
<trkpt lat="53.451787" lon="05.760642"><ele>2</ele><time>2021-02-17T16:30:59Z</time><name>PT15530</name></trkpt>
<trkpt lat="53.451794" lon="05.760662"><ele>2</ele><time>2021-02-17T16:31:00Z</time><name>PT15531</name></trkpt>
<trkpt lat="53.451798" lon="05.760672"><ele>1.8</ele><time>2021-02-17T16:31:01Z</time><name>PT15532</name></trkpt>
<trkpt lat="53.451803" lon="05.760679"><ele>1.8</ele><time>2021-02-17T16:31:02Z</time><name>PT15533</name></trkpt>
<trkpt lat="53.451806" lon="05.760689"><ele>1.8</ele><time>2021-02-17T16:31:03Z</time><name>PT15534</name></trkpt>
<trkpt lat="53.451807" lon="05.760699"><ele>1.5</ele><time>2021-02-17T16:31:04Z</time><name>PT15535</name></trkpt>
<trkpt lat="53.451810" lon="05.760720"><ele>1.4</ele><time>2021-02-17T16:31:05Z</time><name>PT15536</name></trkpt>
<trkpt lat="53.451808" lon="05.760732"><ele>1.4</ele><time>2021-02-17T16:31:06Z</time><name>PT15537</name></trkpt>
<trkpt lat="53.451809" lon="05.760743"><ele>1.3</ele><time>2021-02-17T16:31:07Z</time><name>PT15538</name></trkpt>
<trkpt lat="53.451806" lon="05.760752"><ele>1.7</ele><time>2021-02-17T16:31:08Z</time><name>PT15539</name></trkpt>
<trkpt lat="53.451806" lon="05.760756"><ele>1.8</ele><time>2021-02-17T16:31:09Z</time><name>PT15540</name></trkpt>
<trkpt lat="53.451811" lon="05.760768"><ele>1.8</ele><time>2021-02-17T16:31:10Z</time><name>PT15541</name></trkpt>
<trkpt lat="53.451806" lon="05.760781"><ele>2</ele><time>2021-02-17T16:31:11Z</time><name>PT15542</name></trkpt>
<trkpt lat="53.451804" lon="05.760797"><ele>2</ele><time>2021-02-17T16:31:12Z</time><name>PT15543</name></trkpt>
<trkpt lat="53.451808" lon="05.760805"><ele>2</ele><time>2021-02-17T16:31:13Z</time><name>PT15544</name></trkpt>
<trkpt lat="53.451812" lon="05.760815"><ele>2.3</ele><time>2021-02-17T16:31:14Z</time><name>PT15545</name></trkpt>
<trkpt lat="53.451813" lon="05.760827"><ele>2.3</ele><time>2021-02-17T16:31:15Z</time><name>PT15546</name></trkpt>
<trkpt lat="53.451811" lon="05.760839"><ele>2.5</ele><time>2021-02-17T16:31:16Z</time><name>PT15547</name></trkpt>
<trkpt lat="53.451815" lon="05.760850"><ele>2.5</ele><time>2021-02-17T16:31:17Z</time><name>PT15548</name></trkpt>
<trkpt lat="53.451813" lon="05.760856"><ele>2.5</ele><time>2021-02-17T16:31:18Z</time><name>PT15549</name></trkpt>
<trkpt lat="53.451812" lon="05.760859"><ele>2.4</ele><time>2021-02-17T16:31:19Z</time><name>PT15550</name></trkpt>
<trkpt lat="53.451802" lon="05.760892"><ele>2.5</ele><time>2021-02-17T16:31:21Z</time><name>PT15551</name></trkpt>
<trkpt lat="53.451777" lon="05.760970"><ele>2.4</ele><time>2021-02-17T16:31:22Z</time><name>PT15552</name></trkpt>
<trkpt lat="53.451772" lon="05.760971"><ele>2.2</ele><time>2021-02-17T16:31:23Z</time><name>PT15553</name></trkpt>
<trkpt lat="53.451775" lon="05.760978"><ele>2.1</ele><time>2021-02-17T16:31:24Z</time><name>PT15554</name></trkpt>
<trkpt lat="53.451779" lon="05.760987"><ele>2.5</ele><time>2021-02-17T16:31:25Z</time><name>PT15555</name></trkpt>
<trkpt lat="53.451786" lon="05.761002"><ele>3.1</ele><time>2021-02-17T16:31:26Z</time><name>PT15556</name></trkpt>
<trkpt lat="53.451781" lon="05.761009"><ele>3.7</ele><time>2021-02-17T16:31:27Z</time><name>PT15557</name></trkpt>
<trkpt lat="53.451776" lon="05.761014"><ele>4.1</ele><time>2021-02-17T16:31:28Z</time><name>PT15558</name></trkpt>
<trkpt lat="53.451767" lon="05.761022"><ele>4</ele><time>2021-02-17T16:31:29Z</time><name>PT15559</name></trkpt>
<trkpt lat="53.451766" lon="05.761034"><ele>3.7</ele><time>2021-02-17T16:31:30Z</time><name>PT15560</name></trkpt>
<trkpt lat="53.451768" lon="05.761045"><ele>3.7</ele><time>2021-02-17T16:31:31Z</time><name>PT15561</name></trkpt>
<trkpt lat="53.451765" lon="05.761058"><ele>3.7</ele><time>2021-02-17T16:31:32Z</time><name>PT15562</name></trkpt>
<trkpt lat="53.451760" lon="05.761064"><ele>3.7</ele><time>2021-02-17T16:31:33Z</time><name>PT15563</name></trkpt>
<trkpt lat="53.451757" lon="05.761074"><ele>4</ele><time>2021-02-17T16:31:34Z</time><name>PT15564</name></trkpt>
<trkpt lat="53.451755" lon="05.761083"><ele>4.1</ele><time>2021-02-17T16:31:35Z</time><name>PT15565</name></trkpt>
<trkpt lat="53.451755" lon="05.761090"><ele>4.1</ele><time>2021-02-17T16:31:36Z</time><name>PT15566</name></trkpt>
<trkpt lat="53.451751" lon="05.761094"><ele>4.2</ele><time>2021-02-17T16:31:37Z</time><name>PT15567</name></trkpt>
<trkpt lat="53.451748" lon="05.761102"><ele>4</ele><time>2021-02-17T16:31:38Z</time><name>PT15568</name></trkpt>
<trkpt lat="53.451744" lon="05.761111"><ele>4.2</ele><time>2021-02-17T16:31:39Z</time><name>PT15569</name></trkpt>
<trkpt lat="53.451740" lon="05.761120"><ele>4.3</ele><time>2021-02-17T16:31:40Z</time><name>PT15570</name></trkpt>
<trkpt lat="53.451741" lon="05.761123"><ele>4.4</ele><time>2021-02-17T16:31:41Z</time><name>PT15571</name></trkpt>
<trkpt lat="53.451726" lon="05.761127"><ele>4.5</ele><time>2021-02-17T16:31:42Z</time><name>PT15572</name></trkpt>
<trkpt lat="53.451712" lon="05.761126"><ele>3.7</ele><time>2021-02-17T16:31:43Z</time><name>PT15573</name></trkpt>
<trkpt lat="53.451709" lon="05.761125"><ele>3.2</ele><time>2021-02-17T16:31:44Z</time><name>PT15574</name></trkpt>
<trkpt lat="53.451710" lon="05.761132"><ele>3.8</ele><time>2021-02-17T16:31:45Z</time><name>PT15575</name></trkpt>
<trkpt lat="53.451706" lon="05.761137"><ele>4.9</ele><time>2021-02-17T16:31:46Z</time><name>PT15576</name></trkpt>
<trkpt lat="53.451700" lon="05.761146"><ele>6.3</ele><time>2021-02-17T16:31:47Z</time><name>PT15577</name></trkpt>
<trkpt lat="53.451699" lon="05.761153"><ele>7.1</ele><time>2021-02-17T16:31:48Z</time><name>PT15578</name></trkpt>
<trkpt lat="53.451701" lon="05.761151"><ele>6.7</ele><time>2021-02-17T16:31:49Z</time><name>PT15579</name></trkpt>
<trkpt lat="53.451701" lon="05.761157"><ele>6</ele><time>2021-02-17T16:31:50Z</time><name>PT15580</name></trkpt>
<trkpt lat="53.451699" lon="05.761160"><ele>5.5</ele><time>2021-02-17T16:31:51Z</time><name>PT15581</name></trkpt>
<trkpt lat="53.451695" lon="05.761163"><ele>5.7</ele><time>2021-02-17T16:31:52Z</time><name>PT15582</name></trkpt>
<trkpt lat="53.451692" lon="05.761181"><ele>5.9</ele><time>2021-02-17T16:31:53Z</time><name>PT15583</name></trkpt>
<trkpt lat="53.451691" lon="05.761196"><ele>6.2</ele><time>2021-02-17T16:31:54Z</time><name>PT15584</name></trkpt>
<trkpt lat="53.451686" lon="05.761213"><ele>6.2</ele><time>2021-02-17T16:31:55Z</time><name>PT15585</name></trkpt>
<trkpt lat="53.451685" lon="05.761223"><ele>6.5</ele><time>2021-02-17T16:31:56Z</time><name>PT15586</name></trkpt>
<trkpt lat="53.451667" lon="05.761241"><ele>6.6</ele><time>2021-02-17T16:31:57Z</time><name>PT15587</name></trkpt>
<trkpt lat="53.451662" lon="05.761250"><ele>6.2</ele><time>2021-02-17T16:31:58Z</time><name>PT15588</name></trkpt>
<trkpt lat="53.451657" lon="05.761261"><ele>6.6</ele><time>2021-02-17T16:31:59Z</time><name>PT15589</name></trkpt>
<trkpt lat="53.451649" lon="05.761269"><ele>6.7</ele><time>2021-02-17T16:32:00Z</time><name>PT15590</name></trkpt>
<trkpt lat="53.451638" lon="05.761283"><ele>6.7</ele><time>2021-02-17T16:32:01Z</time><name>PT15591</name></trkpt>
<trkpt lat="53.451634" lon="05.761312"><ele>6.9</ele><time>2021-02-17T16:32:02Z</time><name>PT15592</name></trkpt>
<trkpt lat="53.451627" lon="05.761323"><ele>7.6</ele><time>2021-02-17T16:32:03Z</time><name>PT15593</name></trkpt>
<trkpt lat="53.451621" lon="05.761340"><ele>7.9</ele><time>2021-02-17T16:32:04Z</time><name>PT15594</name></trkpt>
<trkpt lat="53.451615" lon="05.761353"><ele>7.3</ele><time>2021-02-17T16:32:05Z</time><name>PT15595</name></trkpt>
<trkpt lat="53.451609" lon="05.761363"><ele>6.9</ele><time>2021-02-17T16:32:06Z</time><name>PT15596</name></trkpt>
<trkpt lat="53.451605" lon="05.761380"><ele>6.7</ele><time>2021-02-17T16:32:07Z</time><name>PT15597</name></trkpt>
<trkpt lat="53.451595" lon="05.761383"><ele>6.6</ele><time>2021-02-17T16:32:08Z</time><name>PT15598</name></trkpt>
<trkpt lat="53.451590" lon="05.761387"><ele>6.6</ele><time>2021-02-17T16:32:09Z</time><name>PT15599</name></trkpt>
<trkpt lat="53.451582" lon="05.761393"><ele>6.4</ele><time>2021-02-17T16:32:10Z</time><name>PT15600</name></trkpt>
<trkpt lat="53.451580" lon="05.761402"><ele>6.6</ele><time>2021-02-17T16:32:11Z</time><name>PT15601</name></trkpt>
<trkpt lat="53.451577" lon="05.761412"><ele>6.6</ele><time>2021-02-17T16:32:12Z</time><name>PT15602</name></trkpt>
<trkpt lat="53.451573" lon="05.761424"><ele>6.6</ele><time>2021-02-17T16:32:13Z</time><name>PT15603</name></trkpt>
<trkpt lat="53.451571" lon="05.761430"><ele>6.5</ele><time>2021-02-17T16:32:14Z</time><name>PT15604</name></trkpt>
<trkpt lat="53.451572" lon="05.761439"><ele>6.4</ele><time>2021-02-17T16:32:15Z</time><name>PT15605</name></trkpt>
<trkpt lat="53.451566" lon="05.761446"><ele>6.2</ele><time>2021-02-17T16:32:16Z</time><name>PT15606</name></trkpt>
<trkpt lat="53.451562" lon="05.761455"><ele>6</ele><time>2021-02-17T16:32:17Z</time><name>PT15607</name></trkpt>
<trkpt lat="53.451557" lon="05.761460"><ele>6</ele><time>2021-02-17T16:32:18Z</time><name>PT15608</name></trkpt>
<trkpt lat="53.451548" lon="05.761464"><ele>5.7</ele><time>2021-02-17T16:32:19Z</time><name>PT15609</name></trkpt>
<trkpt lat="53.451542" lon="05.761474"><ele>5.6</ele><time>2021-02-17T16:32:20Z</time><name>PT15610</name></trkpt>
<trkpt lat="53.451536" lon="05.761488"><ele>5.5</ele><time>2021-02-17T16:32:21Z</time><name>PT15611</name></trkpt>
<trkpt lat="53.451530" lon="05.761496"><ele>5.5</ele><time>2021-02-17T16:32:22Z</time><name>PT15612</name></trkpt>
<trkpt lat="53.451528" lon="05.761511"><ele>5.4</ele><time>2021-02-17T16:32:23Z</time><name>PT15613</name></trkpt>
<trkpt lat="53.451527" lon="05.761527"><ele>5.4</ele><time>2021-02-17T16:32:24Z</time><name>PT15614</name></trkpt>
<trkpt lat="53.451527" lon="05.761544"><ele>5.4</ele><time>2021-02-17T16:32:25Z</time><name>PT15615</name></trkpt>
<trkpt lat="53.451524" lon="05.761556"><ele>5.2</ele><time>2021-02-17T16:32:26Z</time><name>PT15616</name></trkpt>
<trkpt lat="53.451518" lon="05.761568"><ele>5.4</ele><time>2021-02-17T16:32:27Z</time><name>PT15617</name></trkpt>
<trkpt lat="53.451514" lon="05.761583"><ele>5.5</ele><time>2021-02-17T16:32:28Z</time><name>PT15618</name></trkpt>
<trkpt lat="53.451505" lon="05.761597"><ele>5.7</ele><time>2021-02-17T16:32:29Z</time><name>PT15619</name></trkpt>
<trkpt lat="53.451497" lon="05.761610"><ele>5.7</ele><time>2021-02-17T16:32:30Z</time><name>PT15620</name></trkpt>
<trkpt lat="53.451492" lon="05.761623"><ele>5.8</ele><time>2021-02-17T16:32:31Z</time><name>PT15621</name></trkpt>
<trkpt lat="53.451487" lon="05.761635"><ele>5.9</ele><time>2021-02-17T16:32:32Z</time><name>PT15622</name></trkpt>
<trkpt lat="53.451489" lon="05.761649"><ele>6</ele><time>2021-02-17T16:32:33Z</time><name>PT15623</name></trkpt>
<trkpt lat="53.451481" lon="05.761659"><ele>6.1</ele><time>2021-02-17T16:32:34Z</time><name>PT15624</name></trkpt>
<trkpt lat="53.451477" lon="05.761670"><ele>6</ele><time>2021-02-17T16:32:35Z</time><name>PT15625</name></trkpt>
<trkpt lat="53.451477" lon="05.761683"><ele>5.8</ele><time>2021-02-17T16:32:36Z</time><name>PT15626</name></trkpt>
<trkpt lat="53.451473" lon="05.761689"><ele>5.9</ele><time>2021-02-17T16:32:37Z</time><name>PT15627</name></trkpt>
<trkpt lat="53.451470" lon="05.761695"><ele>5.7</ele><time>2021-02-17T16:32:38Z</time><name>PT15628</name></trkpt>
<trkpt lat="53.451471" lon="05.761702"><ele>6</ele><time>2021-02-17T16:32:39Z</time><name>PT15629</name></trkpt>
<trkpt lat="53.451474" lon="05.761721"><ele>6.2</ele><time>2021-02-17T16:32:40Z</time><name>PT15630</name></trkpt>
<trkpt lat="53.451467" lon="05.761728"><ele>6.4</ele><time>2021-02-17T16:32:41Z</time><name>PT15631</name></trkpt>
<trkpt lat="53.451461" lon="05.761741"><ele>6.6</ele><time>2021-02-17T16:32:42Z</time><name>PT15632</name></trkpt>
<trkpt lat="53.451452" lon="05.761751"><ele>6.7</ele><time>2021-02-17T16:32:43Z</time><name>PT15633</name></trkpt>
<trkpt lat="53.451449" lon="05.761755"><ele>6.6</ele><time>2021-02-17T16:32:44Z</time><name>PT15634</name></trkpt>
<trkpt lat="53.451446" lon="05.761765"><ele>6.6</ele><time>2021-02-17T16:32:45Z</time><name>PT15635</name></trkpt>
<trkpt lat="53.451437" lon="05.761755"><ele>6.5</ele><time>2021-02-17T16:32:46Z</time><name>PT15636</name></trkpt>
<trkpt lat="53.451433" lon="05.761755"><ele>6.4</ele><time>2021-02-17T16:32:47Z</time><name>PT15637</name></trkpt>
<trkpt lat="53.451429" lon="05.761759"><ele>6.3</ele><time>2021-02-17T16:32:48Z</time><name>PT15638</name></trkpt>
<trkpt lat="53.451423" lon="05.761761"><ele>6.3</ele><time>2021-02-17T16:32:49Z</time><name>PT15639</name></trkpt>
<trkpt lat="53.451419" lon="05.761770"><ele>6.2</ele><time>2021-02-17T16:32:50Z</time><name>PT15640</name></trkpt>
<trkpt lat="53.451410" lon="05.761781"><ele>6.2</ele><time>2021-02-17T16:32:51Z</time><name>PT15641</name></trkpt>
<trkpt lat="53.451407" lon="05.761792"><ele>6.2</ele><time>2021-02-17T16:32:52Z</time><name>PT15642</name></trkpt>
<trkpt lat="53.451402" lon="05.761820"><ele>6.2</ele><time>2021-02-17T16:32:53Z</time><name>PT15643</name></trkpt>
<trkpt lat="53.451397" lon="05.761830"><ele>6.4</ele><time>2021-02-17T16:32:54Z</time><name>PT15644</name></trkpt>
<trkpt lat="53.451392" lon="05.761855"><ele>6.3</ele><time>2021-02-17T16:32:55Z</time><name>PT15645</name></trkpt>
<trkpt lat="53.451384" lon="05.761864"><ele>6.3</ele><time>2021-02-17T16:32:56Z</time><name>PT15646</name></trkpt>
<trkpt lat="53.451381" lon="05.761868"><ele>6.2</ele><time>2021-02-17T16:32:57Z</time><name>PT15647</name></trkpt>
<trkpt lat="53.451378" lon="05.761876"><ele>6.2</ele><time>2021-02-17T16:32:58Z</time><name>PT15648</name></trkpt>
<trkpt lat="53.451373" lon="05.761881"><ele>6</ele><time>2021-02-17T16:32:59Z</time><name>PT15649</name></trkpt>
<trkpt lat="53.451364" lon="05.761903"><ele>6.1</ele><time>2021-02-17T16:33:01Z</time><name>PT15650</name></trkpt>
<trkpt lat="53.451361" lon="05.761916"><ele>5.7</ele><time>2021-02-17T16:33:02Z</time><name>PT15651</name></trkpt>
<trkpt lat="53.451364" lon="05.761916"><ele>5.6</ele><time>2021-02-17T16:33:03Z</time><name>PT15652</name></trkpt>
<trkpt lat="53.451358" lon="05.761924"><ele>5.5</ele><time>2021-02-17T16:33:04Z</time><name>PT15653</name></trkpt>
<trkpt lat="53.451348" lon="05.761932"><ele>5.4</ele><time>2021-02-17T16:33:05Z</time><name>PT15654</name></trkpt>
<trkpt lat="53.451342" lon="05.761941"><ele>5.3</ele><time>2021-02-17T16:33:06Z</time><name>PT15655</name></trkpt>
<trkpt lat="53.451341" lon="05.761956"><ele>5.2</ele><time>2021-02-17T16:33:07Z</time><name>PT15656</name></trkpt>
<trkpt lat="53.451335" lon="05.761961"><ele>5</ele><time>2021-02-17T16:33:08Z</time><name>PT15657</name></trkpt>
<trkpt lat="53.451327" lon="05.761977"><ele>4.9</ele><time>2021-02-17T16:33:09Z</time><name>PT15658</name></trkpt>
<trkpt lat="53.451314" lon="05.761998"><ele>4.6</ele><time>2021-02-17T16:33:10Z</time><name>PT15659</name></trkpt>
<trkpt lat="53.451303" lon="05.762012"><ele>4.4</ele><time>2021-02-17T16:33:11Z</time><name>PT15660</name></trkpt>
<trkpt lat="53.451295" lon="05.762018"><ele>4.2</ele><time>2021-02-17T16:33:12Z</time><name>PT15661</name></trkpt>
<trkpt lat="53.451282" lon="05.762020"><ele>4.2</ele><time>2021-02-17T16:33:13Z</time><name>PT15662</name></trkpt>
<trkpt lat="53.451277" lon="05.762023"><ele>4.1</ele><time>2021-02-17T16:33:14Z</time><name>PT15663</name></trkpt>
<trkpt lat="53.451278" lon="05.762028"><ele>4</ele><time>2021-02-17T16:33:15Z</time><name>PT15664</name></trkpt>
<trkpt lat="53.451267" lon="05.762038"><ele>3.8</ele><time>2021-02-17T16:33:16Z</time><name>PT15665</name></trkpt>
<trkpt lat="53.451256" lon="05.762047"><ele>3.8</ele><time>2021-02-17T16:33:17Z</time><name>PT15666</name></trkpt>
<trkpt lat="53.451252" lon="05.762059"><ele>4</ele><time>2021-02-17T16:33:18Z</time><name>PT15667</name></trkpt>
<trkpt lat="53.451245" lon="05.762066"><ele>3.8</ele><time>2021-02-17T16:33:19Z</time><name>PT15668</name></trkpt>
<trkpt lat="53.451239" lon="05.762087"><ele>3.8</ele><time>2021-02-17T16:33:20Z</time><name>PT15669</name></trkpt>
<trkpt lat="53.451237" lon="05.762093"><ele>3.7</ele><time>2021-02-17T16:33:21Z</time><name>PT15670</name></trkpt>
<trkpt lat="53.451228" lon="05.762097"><ele>3.6</ele><time>2021-02-17T16:33:22Z</time><name>PT15671</name></trkpt>
<trkpt lat="53.451222" lon="05.762104"><ele>3.6</ele><time>2021-02-17T16:33:23Z</time><name>PT15672</name></trkpt>
<trkpt lat="53.451210" lon="05.762112"><ele>3.4</ele><time>2021-02-17T16:33:24Z</time><name>PT15673</name></trkpt>
<trkpt lat="53.451199" lon="05.762118"><ele>3.7</ele><time>2021-02-17T16:33:25Z</time><name>PT15674</name></trkpt>
<trkpt lat="53.451184" lon="05.762138"><ele>3.5</ele><time>2021-02-17T16:33:26Z</time><name>PT15675</name></trkpt>
<trkpt lat="53.451173" lon="05.762158"><ele>3.3</ele><time>2021-02-17T16:33:27Z</time><name>PT15676</name></trkpt>
<trkpt lat="53.451167" lon="05.762175"><ele>3.2</ele><time>2021-02-17T16:33:28Z</time><name>PT15677</name></trkpt>
<trkpt lat="53.451160" lon="05.762181"><ele>2.8</ele><time>2021-02-17T16:33:29Z</time><name>PT15678</name></trkpt>
<trkpt lat="53.451152" lon="05.762194"><ele>2.9</ele><time>2021-02-17T16:33:30Z</time><name>PT15679</name></trkpt>
<trkpt lat="53.451143" lon="05.762216"><ele>2.8</ele><time>2021-02-17T16:33:31Z</time><name>PT15680</name></trkpt>
<trkpt lat="53.451132" lon="05.762231"><ele>3</ele><time>2021-02-17T16:33:32Z</time><name>PT15681</name></trkpt>
<trkpt lat="53.451124" lon="05.762243"><ele>3.2</ele><time>2021-02-17T16:33:33Z</time><name>PT15682</name></trkpt>
<trkpt lat="53.451119" lon="05.762247"><ele>3.2</ele><time>2021-02-17T16:33:34Z</time><name>PT15683</name></trkpt>
<trkpt lat="53.451113" lon="05.762251"><ele>3.2</ele><time>2021-02-17T16:33:35Z</time><name>PT15684</name></trkpt>
<trkpt lat="53.451093" lon="05.762278"><ele>3.2</ele><time>2021-02-17T16:33:36Z</time><name>PT15685</name></trkpt>
<trkpt lat="53.451084" lon="05.762287"><ele>3.2</ele><time>2021-02-17T16:33:37Z</time><name>PT15686</name></trkpt>
<trkpt lat="53.451078" lon="05.762299"><ele>3.3</ele><time>2021-02-17T16:33:38Z</time><name>PT15687</name></trkpt>
<trkpt lat="53.451075" lon="05.762317"><ele>3.2</ele><time>2021-02-17T16:33:39Z</time><name>PT15688</name></trkpt>
<trkpt lat="53.451063" lon="05.762331"><ele>3.2</ele><time>2021-02-17T16:33:40Z</time><name>PT15689</name></trkpt>
<trkpt lat="53.451059" lon="05.762340"><ele>3.3</ele><time>2021-02-17T16:33:41Z</time><name>PT15690</name></trkpt>
<trkpt lat="53.451054" lon="05.762351"><ele>3.2</ele><time>2021-02-17T16:33:42Z</time><name>PT15691</name></trkpt>
<trkpt lat="53.451048" lon="05.762357"><ele>3.2</ele><time>2021-02-17T16:33:43Z</time><name>PT15692</name></trkpt>
<trkpt lat="53.451039" lon="05.762371"><ele>3</ele><time>2021-02-17T16:33:44Z</time><name>PT15693</name></trkpt>
<trkpt lat="53.451024" lon="05.762372"><ele>2.8</ele><time>2021-02-17T16:33:45Z</time><name>PT15694</name></trkpt>
<trkpt lat="53.451020" lon="05.762391"><ele>2.8</ele><time>2021-02-17T16:33:46Z</time><name>PT15695</name></trkpt>
<trkpt lat="53.451015" lon="05.762413"><ele>2.7</ele><time>2021-02-17T16:33:47Z</time><name>PT15696</name></trkpt>
<trkpt lat="53.451009" lon="05.762426"><ele>2.7</ele><time>2021-02-17T16:33:48Z</time><name>PT15697</name></trkpt>
<trkpt lat="53.451003" lon="05.762438"><ele>2.6</ele><time>2021-02-17T16:33:49Z</time><name>PT15698</name></trkpt>
<trkpt lat="53.451000" lon="05.762452"><ele>2.7</ele><time>2021-02-17T16:33:50Z</time><name>PT15699</name></trkpt>
<trkpt lat="53.450997" lon="05.762466"><ele>2.6</ele><time>2021-02-17T16:33:51Z</time><name>PT15700</name></trkpt>
<trkpt lat="53.450991" lon="05.762469"><ele>2.6</ele><time>2021-02-17T16:33:52Z</time><name>PT15701</name></trkpt>
<trkpt lat="53.450967" lon="05.762483"><ele>2.7</ele><time>2021-02-17T16:33:53Z</time><name>PT15702</name></trkpt>
<trkpt lat="53.450957" lon="05.762497"><ele>2.6</ele><time>2021-02-17T16:33:54Z</time><name>PT15703</name></trkpt>
<trkpt lat="53.450946" lon="05.762504"><ele>2.5</ele><time>2021-02-17T16:33:55Z</time><name>PT15704</name></trkpt>
<trkpt lat="53.450938" lon="05.762518"><ele>2.6</ele><time>2021-02-17T16:33:56Z</time><name>PT15705</name></trkpt>
<trkpt lat="53.450932" lon="05.762538"><ele>2.6</ele><time>2021-02-17T16:33:57Z</time><name>PT15706</name></trkpt>
<trkpt lat="53.450921" lon="05.762560"><ele>2.6</ele><time>2021-02-17T16:33:58Z</time><name>PT15707</name></trkpt>
<trkpt lat="53.450918" lon="05.762573"><ele>2.7</ele><time>2021-02-17T16:33:59Z</time><name>PT15708</name></trkpt>
<trkpt lat="53.450909" lon="05.762594"><ele>2.5</ele><time>2021-02-17T16:34:00Z</time><name>PT15709</name></trkpt>
<trkpt lat="53.450901" lon="05.762609"><ele>2.6</ele><time>2021-02-17T16:34:01Z</time><name>PT15710</name></trkpt>
<trkpt lat="53.450895" lon="05.762625"><ele>2.6</ele><time>2021-02-17T16:34:02Z</time><name>PT15711</name></trkpt>
<trkpt lat="53.450888" lon="05.762634"><ele>2.5</ele><time>2021-02-17T16:34:03Z</time><name>PT15712</name></trkpt>
<trkpt lat="53.450882" lon="05.762635"><ele>2.3</ele><time>2021-02-17T16:34:04Z</time><name>PT15713</name></trkpt>
<trkpt lat="53.450875" lon="05.762638"><ele>2.3</ele><time>2021-02-17T16:34:05Z</time><name>PT15714</name></trkpt>
<trkpt lat="53.450862" lon="05.762645"><ele>2.4</ele><time>2021-02-17T16:34:06Z</time><name>PT15715</name></trkpt>
<trkpt lat="53.450854" lon="05.762662"><ele>2.3</ele><time>2021-02-17T16:34:07Z</time><name>PT15716</name></trkpt>
<trkpt lat="53.450846" lon="05.762683"><ele>2.3</ele><time>2021-02-17T16:34:08Z</time><name>PT15717</name></trkpt>
<trkpt lat="53.450840" lon="05.762698"><ele>2.3</ele><time>2021-02-17T16:34:09Z</time><name>PT15718</name></trkpt>
<trkpt lat="53.450836" lon="05.762703"><ele>2.3</ele><time>2021-02-17T16:34:10Z</time><name>PT15719</name></trkpt>
<trkpt lat="53.450825" lon="05.762719"><ele>2.3</ele><time>2021-02-17T16:34:11Z</time><name>PT15720</name></trkpt>
<trkpt lat="53.450818" lon="05.762736"><ele>2.2</ele><time>2021-02-17T16:34:12Z</time><name>PT15721</name></trkpt>
<trkpt lat="53.450810" lon="05.762751"><ele>2.2</ele><time>2021-02-17T16:34:13Z</time><name>PT15722</name></trkpt>
<trkpt lat="53.450806" lon="05.762762"><ele>2</ele><time>2021-02-17T16:34:14Z</time><name>PT15723</name></trkpt>
<trkpt lat="53.450803" lon="05.762770"><ele>2</ele><time>2021-02-17T16:34:15Z</time><name>PT15724</name></trkpt>
<trkpt lat="53.450800" lon="05.762784"><ele>2</ele><time>2021-02-17T16:34:16Z</time><name>PT15725</name></trkpt>
<trkpt lat="53.450796" lon="05.762794"><ele>2</ele><time>2021-02-17T16:34:17Z</time><name>PT15726</name></trkpt>
<trkpt lat="53.450792" lon="05.762804"><ele>2</ele><time>2021-02-17T16:34:18Z</time><name>PT15727</name></trkpt>
<trkpt lat="53.450787" lon="05.762811"><ele>1.9</ele><time>2021-02-17T16:34:19Z</time><name>PT15728</name></trkpt>
<trkpt lat="53.450779" lon="05.762822"><ele>1.9</ele><time>2021-02-17T16:34:20Z</time><name>PT15729</name></trkpt>
<trkpt lat="53.450770" lon="05.762838"><ele>1.9</ele><time>2021-02-17T16:34:21Z</time><name>PT15730</name></trkpt>
<trkpt lat="53.450762" lon="05.762854"><ele>1.8</ele><time>2021-02-17T16:34:22Z</time><name>PT15731</name></trkpt>
<trkpt lat="53.450756" lon="05.762871"><ele>1.8</ele><time>2021-02-17T16:34:23Z</time><name>PT15732</name></trkpt>
<trkpt lat="53.450751" lon="05.762890"><ele>1.8</ele><time>2021-02-17T16:34:24Z</time><name>PT15733</name></trkpt>
<trkpt lat="53.450744" lon="05.762903"><ele>1.9</ele><time>2021-02-17T16:34:25Z</time><name>PT15734</name></trkpt>
<trkpt lat="53.450736" lon="05.762916"><ele>1.8</ele><time>2021-02-17T16:34:26Z</time><name>PT15735</name></trkpt>
<trkpt lat="53.450729" lon="05.762932"><ele>1.8</ele><time>2021-02-17T16:34:27Z</time><name>PT15736</name></trkpt>
<trkpt lat="53.450720" lon="05.762941"><ele>1.8</ele><time>2021-02-17T16:34:28Z</time><name>PT15737</name></trkpt>
<trkpt lat="53.450711" lon="05.762952"><ele>2.2</ele><time>2021-02-17T16:34:29Z</time><name>PT15738</name></trkpt>
<trkpt lat="53.450708" lon="05.762959"><ele>2.3</ele><time>2021-02-17T16:34:30Z</time><name>PT15739</name></trkpt>
<trkpt lat="53.450706" lon="05.762966"><ele>2.7</ele><time>2021-02-17T16:34:31Z</time><name>PT15740</name></trkpt>
<trkpt lat="53.450706" lon="05.762975"><ele>2.3</ele><time>2021-02-17T16:34:32Z</time><name>PT15741</name></trkpt>
<trkpt lat="53.450703" lon="05.762981"><ele>1.8</ele><time>2021-02-17T16:34:33Z</time><name>PT15742</name></trkpt>
<trkpt lat="53.450696" lon="05.762996"><ele>1.6</ele><time>2021-02-17T16:34:34Z</time><name>PT15743</name></trkpt>
<trkpt lat="53.450685" lon="05.763017"><ele>1.6</ele><time>2021-02-17T16:34:35Z</time><name>PT15744</name></trkpt>
<trkpt lat="53.450674" lon="05.763034"><ele>1.7</ele><time>2021-02-17T16:34:36Z</time><name>PT15745</name></trkpt>
<trkpt lat="53.450665" lon="05.763050"><ele>1.8</ele><time>2021-02-17T16:34:37Z</time><name>PT15746</name></trkpt>
<trkpt lat="53.450655" lon="05.763066"><ele>1.8</ele><time>2021-02-17T16:34:38Z</time><name>PT15747</name></trkpt>
<trkpt lat="53.450646" lon="05.763080"><ele>1.7</ele><time>2021-02-17T16:34:39Z</time><name>PT15748</name></trkpt>
<trkpt lat="53.450639" lon="05.763093"><ele>1.8</ele><time>2021-02-17T16:34:40Z</time><name>PT15749</name></trkpt>
<trkpt lat="53.450637" lon="05.763103"><ele>1.6</ele><time>2021-02-17T16:34:41Z</time><name>PT15750</name></trkpt>
<trkpt lat="53.450636" lon="05.763109"><ele>1.6</ele><time>2021-02-17T16:34:42Z</time><name>PT15751</name></trkpt>
<trkpt lat="53.450632" lon="05.763117"><ele>1.8</ele><time>2021-02-17T16:34:43Z</time><name>PT15752</name></trkpt>
<trkpt lat="53.450626" lon="05.763125"><ele>1.8</ele><time>2021-02-17T16:34:44Z</time><name>PT15753</name></trkpt>
<trkpt lat="53.450620" lon="05.763135"><ele>1.6</ele><time>2021-02-17T16:34:45Z</time><name>PT15754</name></trkpt>
<trkpt lat="53.450610" lon="05.763151"><ele>1.7</ele><time>2021-02-17T16:34:46Z</time><name>PT15755</name></trkpt>
<trkpt lat="53.450600" lon="05.763170"><ele>1.6</ele><time>2021-02-17T16:34:47Z</time><name>PT15756</name></trkpt>
<trkpt lat="53.450593" lon="05.763184"><ele>1.5</ele><time>2021-02-17T16:34:48Z</time><name>PT15757</name></trkpt>
<trkpt lat="53.450586" lon="05.763198"><ele>1.7</ele><time>2021-02-17T16:34:49Z</time><name>PT15758</name></trkpt>
<trkpt lat="53.450580" lon="05.763207"><ele>1.6</ele><time>2021-02-17T16:34:50Z</time><name>PT15759</name></trkpt>
<trkpt lat="53.450575" lon="05.763214"><ele>1.5</ele><time>2021-02-17T16:34:51Z</time><name>PT15760</name></trkpt>
<trkpt lat="53.450573" lon="05.763218"><ele>1.4</ele><time>2021-02-17T16:34:52Z</time><name>PT15761</name></trkpt>
<trkpt lat="53.450569" lon="05.763228"><ele>1.3</ele><time>2021-02-17T16:34:53Z</time><name>PT15762</name></trkpt>
<trkpt lat="53.450564" lon="05.763238"><ele>1.4</ele><time>2021-02-17T16:34:54Z</time><name>PT15763</name></trkpt>
<trkpt lat="53.450553" lon="05.763253"><ele>1.5</ele><time>2021-02-17T16:34:55Z</time><name>PT15764</name></trkpt>
<trkpt lat="53.450543" lon="05.763269"><ele>1.8</ele><time>2021-02-17T16:34:56Z</time><name>PT15765</name></trkpt>
<trkpt lat="53.450537" lon="05.763288"><ele>1.8</ele><time>2021-02-17T16:34:57Z</time><name>PT15766</name></trkpt>
<trkpt lat="53.450529" lon="05.763303"><ele>1.6</ele><time>2021-02-17T16:34:58Z</time><name>PT15767</name></trkpt>
<trkpt lat="53.450525" lon="05.763315"><ele>1.3</ele><time>2021-02-17T16:34:59Z</time><name>PT15768</name></trkpt>
<trkpt lat="53.450521" lon="05.763325"><ele>1.3</ele><time>2021-02-17T16:35:00Z</time><name>PT15769</name></trkpt>
<trkpt lat="53.450515" lon="05.763340"><ele>1.3</ele><time>2021-02-17T16:35:01Z</time><name>PT15770</name></trkpt>
<trkpt lat="53.450508" lon="05.763356"><ele>1.5</ele><time>2021-02-17T16:35:02Z</time><name>PT15771</name></trkpt>
<trkpt lat="53.450500" lon="05.763368"><ele>1.7</ele><time>2021-02-17T16:35:03Z</time><name>PT15772</name></trkpt>
<trkpt lat="53.450492" lon="05.763380"><ele>1.7</ele><time>2021-02-17T16:35:04Z</time><name>PT15773</name></trkpt>
<trkpt lat="53.450484" lon="05.763392"><ele>1.5</ele><time>2021-02-17T16:35:05Z</time><name>PT15774</name></trkpt>
<trkpt lat="53.450473" lon="05.763403"><ele>1.5</ele><time>2021-02-17T16:35:06Z</time><name>PT15775</name></trkpt>
<trkpt lat="53.450462" lon="05.763414"><ele>1.5</ele><time>2021-02-17T16:35:07Z</time><name>PT15776</name></trkpt>
<trkpt lat="53.450452" lon="05.763423"><ele>1.6</ele><time>2021-02-17T16:35:08Z</time><name>PT15777</name></trkpt>
<trkpt lat="53.450447" lon="05.763433"><ele>1.7</ele><time>2021-02-17T16:35:09Z</time><name>PT15778</name></trkpt>
<trkpt lat="53.450443" lon="05.763443"><ele>1.7</ele><time>2021-02-17T16:35:10Z</time><name>PT15779</name></trkpt>
<trkpt lat="53.450436" lon="05.763459"><ele>1.8</ele><time>2021-02-17T16:35:11Z</time><name>PT15780</name></trkpt>
<trkpt lat="53.450431" lon="05.763471"><ele>1.6</ele><time>2021-02-17T16:35:12Z</time><name>PT15781</name></trkpt>
<trkpt lat="53.450422" lon="05.763485"><ele>1.5</ele><time>2021-02-17T16:35:13Z</time><name>PT15782</name></trkpt>
<trkpt lat="53.450413" lon="05.763499"><ele>1.5</ele><time>2021-02-17T16:35:14Z</time><name>PT15783</name></trkpt>
<trkpt lat="53.450403" lon="05.763515"><ele>1.4</ele><time>2021-02-17T16:35:15Z</time><name>PT15784</name></trkpt>
<trkpt lat="53.450393" lon="05.763524"><ele>1.4</ele><time>2021-02-17T16:35:16Z</time><name>PT15785</name></trkpt>
<trkpt lat="53.450384" lon="05.763530"><ele>1.3</ele><time>2021-02-17T16:35:17Z</time><name>PT15786</name></trkpt>
<trkpt lat="53.450376" lon="05.763535"><ele>1.4</ele><time>2021-02-17T16:35:18Z</time><name>PT15787</name></trkpt>
<trkpt lat="53.450367" lon="05.763547"><ele>1.3</ele><time>2021-02-17T16:35:19Z</time><name>PT15788</name></trkpt>
<trkpt lat="53.450358" lon="05.763555"><ele>1.3</ele><time>2021-02-17T16:35:20Z</time><name>PT15789</name></trkpt>
<trkpt lat="53.450347" lon="05.763569"><ele>1.4</ele><time>2021-02-17T16:35:21Z</time><name>PT15790</name></trkpt>
<trkpt lat="53.450336" lon="05.763584"><ele>1.3</ele><time>2021-02-17T16:35:22Z</time><name>PT15791</name></trkpt>
<trkpt lat="53.450329" lon="05.763596"><ele>1.4</ele><time>2021-02-17T16:35:23Z</time><name>PT15792</name></trkpt>
<trkpt lat="53.450322" lon="05.763607"><ele>1.4</ele><time>2021-02-17T16:35:24Z</time><name>PT15793</name></trkpt>
<trkpt lat="53.450316" lon="05.763613"><ele>1.4</ele><time>2021-02-17T16:35:25Z</time><name>PT15794</name></trkpt>
<trkpt lat="53.450306" lon="05.763619"><ele>1.6</ele><time>2021-02-17T16:35:26Z</time><name>PT15795</name></trkpt>
<trkpt lat="53.450298" lon="05.763630"><ele>1.6</ele><time>2021-02-17T16:35:27Z</time><name>PT15796</name></trkpt>
<trkpt lat="53.450288" lon="05.763645"><ele>1.5</ele><time>2021-02-17T16:35:28Z</time><name>PT15797</name></trkpt>
<trkpt lat="53.450278" lon="05.763661"><ele>1.4</ele><time>2021-02-17T16:35:29Z</time><name>PT15798</name></trkpt>
<trkpt lat="53.450273" lon="05.763673"><ele>1.5</ele><time>2021-02-17T16:35:30Z</time><name>PT15799</name></trkpt>
<trkpt lat="53.450269" lon="05.763681"><ele>1.5</ele><time>2021-02-17T16:35:31Z</time><name>PT15800</name></trkpt>
<trkpt lat="53.450262" lon="05.763690"><ele>1.5</ele><time>2021-02-17T16:35:32Z</time><name>PT15801</name></trkpt>
<trkpt lat="53.450254" lon="05.763697"><ele>1.6</ele><time>2021-02-17T16:35:33Z</time><name>PT15802</name></trkpt>
<trkpt lat="53.450244" lon="05.763706"><ele>1.6</ele><time>2021-02-17T16:35:34Z</time><name>PT15803</name></trkpt>
<trkpt lat="53.450235" lon="05.763718"><ele>1.5</ele><time>2021-02-17T16:35:35Z</time><name>PT15804</name></trkpt>
<trkpt lat="53.450227" lon="05.763731"><ele>1.7</ele><time>2021-02-17T16:35:36Z</time><name>PT15805</name></trkpt>
<trkpt lat="53.450222" lon="05.763743"><ele>1.7</ele><time>2021-02-17T16:35:37Z</time><name>PT15806</name></trkpt>
<trkpt lat="53.450218" lon="05.763757"><ele>1.6</ele><time>2021-02-17T16:35:38Z</time><name>PT15807</name></trkpt>
<trkpt lat="53.450213" lon="05.763765"><ele>1.7</ele><time>2021-02-17T16:35:39Z</time><name>PT15808</name></trkpt>
<trkpt lat="53.450206" lon="05.763775"><ele>1.7</ele><time>2021-02-17T16:35:40Z</time><name>PT15809</name></trkpt>
<trkpt lat="53.450197" lon="05.763784"><ele>1.8</ele><time>2021-02-17T16:35:41Z</time><name>PT15810</name></trkpt>
<trkpt lat="53.450187" lon="05.763798"><ele>1.8</ele><time>2021-02-17T16:35:42Z</time><name>PT15811</name></trkpt>
<trkpt lat="53.450179" lon="05.763810"><ele>1.8</ele><time>2021-02-17T16:35:43Z</time><name>PT15812</name></trkpt>
<trkpt lat="53.450174" lon="05.763824"><ele>1.8</ele><time>2021-02-17T16:35:44Z</time><name>PT15813</name></trkpt>
<trkpt lat="53.450171" lon="05.763832"><ele>1.6</ele><time>2021-02-17T16:35:45Z</time><name>PT15814</name></trkpt>
<trkpt lat="53.450166" lon="05.763837"><ele>1.8</ele><time>2021-02-17T16:35:46Z</time><name>PT15815</name></trkpt>
<trkpt lat="53.450157" lon="05.763843"><ele>1.8</ele><time>2021-02-17T16:35:47Z</time><name>PT15816</name></trkpt>
<trkpt lat="53.450149" lon="05.763852"><ele>2.1</ele><time>2021-02-17T16:35:48Z</time><name>PT15817</name></trkpt>
<trkpt lat="53.450142" lon="05.763863"><ele>2.2</ele><time>2021-02-17T16:35:49Z</time><name>PT15818</name></trkpt>
<trkpt lat="53.450134" lon="05.763875"><ele>2.1</ele><time>2021-02-17T16:35:50Z</time><name>PT15819</name></trkpt>
<trkpt lat="53.450127" lon="05.763885"><ele>2.1</ele><time>2021-02-17T16:35:51Z</time><name>PT15820</name></trkpt>
<trkpt lat="53.450120" lon="05.763889"><ele>2</ele><time>2021-02-17T16:35:52Z</time><name>PT15821</name></trkpt>
<trkpt lat="53.450114" lon="05.763898"><ele>2</ele><time>2021-02-17T16:35:53Z</time><name>PT15822</name></trkpt>
<trkpt lat="53.450105" lon="05.763908"><ele>1.9</ele><time>2021-02-17T16:35:54Z</time><name>PT15823</name></trkpt>
<trkpt lat="53.450097" lon="05.763919"><ele>1.9</ele><time>2021-02-17T16:35:55Z</time><name>PT15824</name></trkpt>
<trkpt lat="53.450086" lon="05.763930"><ele>1.8</ele><time>2021-02-17T16:35:56Z</time><name>PT15825</name></trkpt>
<trkpt lat="53.450082" lon="05.763938"><ele>1.8</ele><time>2021-02-17T16:35:57Z</time><name>PT15826</name></trkpt>
<trkpt lat="53.450077" lon="05.763945"><ele>1.6</ele><time>2021-02-17T16:35:58Z</time><name>PT15827</name></trkpt>
<trkpt lat="53.450073" lon="05.763950"><ele>1.5</ele><time>2021-02-17T16:35:59Z</time><name>PT15828</name></trkpt>
<trkpt lat="53.450068" lon="05.763955"><ele>1.4</ele><time>2021-02-17T16:36:00Z</time><name>PT15829</name></trkpt>
<trkpt lat="53.450060" lon="05.763960"><ele>1.4</ele><time>2021-02-17T16:36:01Z</time><name>PT15830</name></trkpt>
<trkpt lat="53.450049" lon="05.763971"><ele>1.6</ele><time>2021-02-17T16:36:02Z</time><name>PT15831</name></trkpt>
<trkpt lat="53.450038" lon="05.763990"><ele>1.7</ele><time>2021-02-17T16:36:03Z</time><name>PT15832</name></trkpt>
<trkpt lat="53.450026" lon="05.764006"><ele>1.5</ele><time>2021-02-17T16:36:04Z</time><name>PT15833</name></trkpt>
<trkpt lat="53.450017" lon="05.764020"><ele>1.6</ele><time>2021-02-17T16:36:05Z</time><name>PT15834</name></trkpt>
<trkpt lat="53.450006" lon="05.764035"><ele>1.3</ele><time>2021-02-17T16:36:06Z</time><name>PT15835</name></trkpt>
<trkpt lat="53.449997" lon="05.764041"><ele>1.2</ele><time>2021-02-17T16:36:07Z</time><name>PT15836</name></trkpt>
<trkpt lat="53.449989" lon="05.764044"><ele>1.1</ele><time>2021-02-17T16:36:08Z</time><name>PT15837</name></trkpt>
<trkpt lat="53.449983" lon="05.764051"><ele>1.1</ele><time>2021-02-17T16:36:09Z</time><name>PT15838</name></trkpt>
<trkpt lat="53.449978" lon="05.764057"><ele>1.1</ele><time>2021-02-17T16:36:10Z</time><name>PT15839</name></trkpt>
<trkpt lat="53.449971" lon="05.764061"><ele>1.1</ele><time>2021-02-17T16:36:11Z</time><name>PT15840</name></trkpt>
<trkpt lat="53.449958" lon="05.764060"><ele>1.1</ele><time>2021-02-17T16:36:12Z</time><name>PT15841</name></trkpt>
<trkpt lat="53.449947" lon="05.764062"><ele>1.2</ele><time>2021-02-17T16:36:13Z</time><name>PT15842</name></trkpt>
<trkpt lat="53.449941" lon="05.764065"><ele>1.4</ele><time>2021-02-17T16:36:14Z</time><name>PT15843</name></trkpt>
<trkpt lat="53.449937" lon="05.764069"><ele>1.5</ele><time>2021-02-17T16:36:15Z</time><name>PT15844</name></trkpt>
<trkpt lat="53.449929" lon="05.764075"><ele>1.7</ele><time>2021-02-17T16:36:16Z</time><name>PT15845</name></trkpt>
<trkpt lat="53.449921" lon="05.764081"><ele>1.5</ele><time>2021-02-17T16:36:17Z</time><name>PT15846</name></trkpt>
<trkpt lat="53.449918" lon="05.764089"><ele>1.5</ele><time>2021-02-17T16:36:18Z</time><name>PT15847</name></trkpt>
<trkpt lat="53.449913" lon="05.764094"><ele>1.4</ele><time>2021-02-17T16:36:19Z</time><name>PT15848</name></trkpt>
<trkpt lat="53.449907" lon="05.764105"><ele>1.4</ele><time>2021-02-17T16:36:20Z</time><name>PT15849</name></trkpt>
<trkpt lat="53.449900" lon="05.764119"><ele>1.3</ele><time>2021-02-17T16:36:21Z</time><name>PT15850</name></trkpt>
<trkpt lat="53.449896" lon="05.764128"><ele>1.3</ele><time>2021-02-17T16:36:22Z</time><name>PT15851</name></trkpt>
<trkpt lat="53.449895" lon="05.764134"><ele>1.3</ele><time>2021-02-17T16:36:23Z</time><name>PT15852</name></trkpt>
<trkpt lat="53.449890" lon="05.764142"><ele>1.3</ele><time>2021-02-17T16:36:24Z</time><name>PT15853</name></trkpt>
<trkpt lat="53.449882" lon="05.764148"><ele>1.3</ele><time>2021-02-17T16:36:25Z</time><name>PT15854</name></trkpt>
<trkpt lat="53.449877" lon="05.764155"><ele>1.3</ele><time>2021-02-17T16:36:26Z</time><name>PT15855</name></trkpt>
<trkpt lat="53.449874" lon="05.764160"><ele>1.3</ele><time>2021-02-17T16:36:27Z</time><name>PT15856</name></trkpt>
<trkpt lat="53.449872" lon="05.764164"><ele>1.3</ele><time>2021-02-17T16:36:28Z</time><name>PT15857</name></trkpt>
<trkpt lat="53.449870" lon="05.764171"><ele>1.3</ele><time>2021-02-17T16:36:29Z</time><name>PT15858</name></trkpt>
<trkpt lat="53.449870" lon="05.764195"><ele>1.3</ele><time>2021-02-17T16:36:30Z</time><name>PT15859</name></trkpt>
<trkpt lat="53.449867" lon="05.764221"><ele>1.3</ele><time>2021-02-17T16:36:31Z</time><name>PT15860</name></trkpt>
<trkpt lat="53.449859" lon="05.764240"><ele>1.4</ele><time>2021-02-17T16:36:32Z</time><name>PT15861</name></trkpt>
<trkpt lat="53.449853" lon="05.764249"><ele>1.5</ele><time>2021-02-17T16:36:33Z</time><name>PT15862</name></trkpt>
<trkpt lat="53.449852" lon="05.764257"><ele>1.4</ele><time>2021-02-17T16:36:34Z</time><name>PT15863</name></trkpt>
<trkpt lat="53.449845" lon="05.764265"><ele>1.5</ele><time>2021-02-17T16:36:35Z</time><name>PT15864</name></trkpt>
<trkpt lat="53.449834" lon="05.764276"><ele>1.6</ele><time>2021-02-17T16:36:36Z</time><name>PT15865</name></trkpt>
<trkpt lat="53.449825" lon="05.764285"><ele>1.8</ele><time>2021-02-17T16:36:37Z</time><name>PT15866</name></trkpt>
<trkpt lat="53.449818" lon="05.764293"><ele>1.8</ele><time>2021-02-17T16:36:38Z</time><name>PT15867</name></trkpt>
<trkpt lat="53.449811" lon="05.764303"><ele>2</ele><time>2021-02-17T16:36:39Z</time><name>PT15868</name></trkpt>
<trkpt lat="53.449808" lon="05.764305"><ele>2.2</ele><time>2021-02-17T16:36:40Z</time><name>PT15869</name></trkpt>
<trkpt lat="53.449801" lon="05.764312"><ele>2.3</ele><time>2021-02-17T16:36:41Z</time><name>PT15870</name></trkpt>
<trkpt lat="53.449790" lon="05.764324"><ele>2.3</ele><time>2021-02-17T16:36:42Z</time><name>PT15871</name></trkpt>
<trkpt lat="53.449780" lon="05.764336"><ele>2.1</ele><time>2021-02-17T16:36:43Z</time><name>PT15872</name></trkpt>
<trkpt lat="53.449774" lon="05.764349"><ele>2</ele><time>2021-02-17T16:36:44Z</time><name>PT15873</name></trkpt>
<trkpt lat="53.449768" lon="05.764359"><ele>1.9</ele><time>2021-02-17T16:36:45Z</time><name>PT15874</name></trkpt>
<trkpt lat="53.449762" lon="05.764368"><ele>1.7</ele><time>2021-02-17T16:36:46Z</time><name>PT15875</name></trkpt>
<trkpt lat="53.449756" lon="05.764377"><ele>1.7</ele><time>2021-02-17T16:36:47Z</time><name>PT15876</name></trkpt>
<trkpt lat="53.449748" lon="05.764389"><ele>1.4</ele><time>2021-02-17T16:36:48Z</time><name>PT15877</name></trkpt>
<trkpt lat="53.449740" lon="05.764406"><ele>1.4</ele><time>2021-02-17T16:36:49Z</time><name>PT15878</name></trkpt>
<trkpt lat="53.449732" lon="05.764426"><ele>1.3</ele><time>2021-02-17T16:36:50Z</time><name>PT15879</name></trkpt>
<trkpt lat="53.449728" lon="05.764439"><ele>1.3</ele><time>2021-02-17T16:36:51Z</time><name>PT15880</name></trkpt>
<trkpt lat="53.449721" lon="05.764451"><ele>1.3</ele><time>2021-02-17T16:36:52Z</time><name>PT15881</name></trkpt>
<trkpt lat="53.449715" lon="05.764462"><ele>1.2</ele><time>2021-02-17T16:36:53Z</time><name>PT15882</name></trkpt>
<trkpt lat="53.449709" lon="05.764473"><ele>1.3</ele><time>2021-02-17T16:36:54Z</time><name>PT15883</name></trkpt>
<trkpt lat="53.449703" lon="05.764484"><ele>1.2</ele><time>2021-02-17T16:36:55Z</time><name>PT15884</name></trkpt>
<trkpt lat="53.449696" lon="05.764497"><ele>1.3</ele><time>2021-02-17T16:36:56Z</time><name>PT15885</name></trkpt>
<trkpt lat="53.449687" lon="05.764510"><ele>1.3</ele><time>2021-02-17T16:36:57Z</time><name>PT15886</name></trkpt>
<trkpt lat="53.449677" lon="05.764523"><ele>1.4</ele><time>2021-02-17T16:36:58Z</time><name>PT15887</name></trkpt>
<trkpt lat="53.449671" lon="05.764536"><ele>1.4</ele><time>2021-02-17T16:36:59Z</time><name>PT15888</name></trkpt>
<trkpt lat="53.449669" lon="05.764546"><ele>1.4</ele><time>2021-02-17T16:37:00Z</time><name>PT15889</name></trkpt>
<trkpt lat="53.449666" lon="05.764559"><ele>1.3</ele><time>2021-02-17T16:37:01Z</time><name>PT15890</name></trkpt>
<trkpt lat="53.449659" lon="05.764571"><ele>1.3</ele><time>2021-02-17T16:37:02Z</time><name>PT15891</name></trkpt>
<trkpt lat="53.449653" lon="05.764581"><ele>1.3</ele><time>2021-02-17T16:37:03Z</time><name>PT15892</name></trkpt>
<trkpt lat="53.449645" lon="05.764590"><ele>1.5</ele><time>2021-02-17T16:37:04Z</time><name>PT15893</name></trkpt>
<trkpt lat="53.449637" lon="05.764605"><ele>1.3</ele><time>2021-02-17T16:37:05Z</time><name>PT15894</name></trkpt>
<trkpt lat="53.449631" lon="05.764619"><ele>1.3</ele><time>2021-02-17T16:37:06Z</time><name>PT15895</name></trkpt>
<trkpt lat="53.449628" lon="05.764630"><ele>1.2</ele><time>2021-02-17T16:37:07Z</time><name>PT15896</name></trkpt>
<trkpt lat="53.449627" lon="05.764640"><ele>1</ele><time>2021-02-17T16:37:08Z</time><name>PT15897</name></trkpt>
<trkpt lat="53.449624" lon="05.764647"><ele>1.2</ele><time>2021-02-17T16:37:09Z</time><name>PT15898</name></trkpt>
<trkpt lat="53.449618" lon="05.764655"><ele>1.1</ele><time>2021-02-17T16:37:10Z</time><name>PT15899</name></trkpt>
<trkpt lat="53.449609" lon="05.764662"><ele>1.2</ele><time>2021-02-17T16:37:11Z</time><name>PT15900</name></trkpt>
<trkpt lat="53.449602" lon="05.764672"><ele>1.2</ele><time>2021-02-17T16:37:12Z</time><name>PT15901</name></trkpt>
<trkpt lat="53.449598" lon="05.764681"><ele>1.2</ele><time>2021-02-17T16:37:13Z</time><name>PT15902</name></trkpt>
<trkpt lat="53.449594" lon="05.764689"><ele>1.2</ele><time>2021-02-17T16:37:14Z</time><name>PT15903</name></trkpt>
<trkpt lat="53.449589" lon="05.764686"><ele>1.2</ele><time>2021-02-17T16:37:15Z</time><name>PT15904</name></trkpt>
<trkpt lat="53.449585" lon="05.764693"><ele>1.2</ele><time>2021-02-17T16:37:16Z</time><name>PT15905</name></trkpt>
<trkpt lat="53.449578" lon="05.764703"><ele>1.3</ele><time>2021-02-17T16:37:17Z</time><name>PT15906</name></trkpt>
<trkpt lat="53.449568" lon="05.764722"><ele>1.5</ele><time>2021-02-17T16:37:18Z</time><name>PT15907</name></trkpt>
<trkpt lat="53.449562" lon="05.764739"><ele>1.7</ele><time>2021-02-17T16:37:19Z</time><name>PT15908</name></trkpt>
<trkpt lat="53.449555" lon="05.764754"><ele>2</ele><time>2021-02-17T16:37:20Z</time><name>PT15909</name></trkpt>
<trkpt lat="53.449549" lon="05.764763"><ele>2</ele><time>2021-02-17T16:37:21Z</time><name>PT15910</name></trkpt>
<trkpt lat="53.449544" lon="05.764774"><ele>1.9</ele><time>2021-02-17T16:37:22Z</time><name>PT15911</name></trkpt>
<trkpt lat="53.449539" lon="05.764785"><ele>1.8</ele><time>2021-02-17T16:37:23Z</time><name>PT15912</name></trkpt>
<trkpt lat="53.449534" lon="05.764795"><ele>1.7</ele><time>2021-02-17T16:37:24Z</time><name>PT15913</name></trkpt>
<trkpt lat="53.449528" lon="05.764801"><ele>1.7</ele><time>2021-02-17T16:37:25Z</time><name>PT15914</name></trkpt>
<trkpt lat="53.449523" lon="05.764813"><ele>1.7</ele><time>2021-02-17T16:37:26Z</time><name>PT15915</name></trkpt>
<trkpt lat="53.449518" lon="05.764824"><ele>1.7</ele><time>2021-02-17T16:37:27Z</time><name>PT15916</name></trkpt>
<trkpt lat="53.449514" lon="05.764833"><ele>1.7</ele><time>2021-02-17T16:37:28Z</time><name>PT15917</name></trkpt>
<trkpt lat="53.449508" lon="05.764842"><ele>1.9</ele><time>2021-02-17T16:37:29Z</time><name>PT15918</name></trkpt>
<trkpt lat="53.449501" lon="05.764852"><ele>2.1</ele><time>2021-02-17T16:37:30Z</time><name>PT15919</name></trkpt>
<trkpt lat="53.449491" lon="05.764867"><ele>2</ele><time>2021-02-17T16:37:31Z</time><name>PT15920</name></trkpt>
<trkpt lat="53.449479" lon="05.764879"><ele>2.1</ele><time>2021-02-17T16:37:32Z</time><name>PT15921</name></trkpt>
<trkpt lat="53.449469" lon="05.764887"><ele>2.3</ele><time>2021-02-17T16:37:33Z</time><name>PT15922</name></trkpt>
<trkpt lat="53.449460" lon="05.764891"><ele>2.1</ele><time>2021-02-17T16:37:34Z</time><name>PT15923</name></trkpt>
<trkpt lat="53.449455" lon="05.764891"><ele>2.1</ele><time>2021-02-17T16:37:35Z</time><name>PT15924</name></trkpt>
<trkpt lat="53.449450" lon="05.764894"><ele>2</ele><time>2021-02-17T16:37:36Z</time><name>PT15925</name></trkpt>
<trkpt lat="53.449442" lon="05.764902"><ele>1.8</ele><time>2021-02-17T16:37:37Z</time><name>PT15926</name></trkpt>
<trkpt lat="53.449432" lon="05.764912"><ele>1.6</ele><time>2021-02-17T16:37:38Z</time><name>PT15927</name></trkpt>
<trkpt lat="53.449421" lon="05.764929"><ele>1.6</ele><time>2021-02-17T16:37:39Z</time><name>PT15928</name></trkpt>
<trkpt lat="53.449409" lon="05.764946"><ele>1.8</ele><time>2021-02-17T16:37:40Z</time><name>PT15929</name></trkpt>
<trkpt lat="53.449402" lon="05.764958"><ele>1.8</ele><time>2021-02-17T16:37:41Z</time><name>PT15930</name></trkpt>
<trkpt lat="53.449399" lon="05.764966"><ele>2</ele><time>2021-02-17T16:37:42Z</time><name>PT15931</name></trkpt>
<trkpt lat="53.449395" lon="05.764975"><ele>2.3</ele><time>2021-02-17T16:37:43Z</time><name>PT15932</name></trkpt>
<trkpt lat="53.449391" lon="05.764983"><ele>2.1</ele><time>2021-02-17T16:37:44Z</time><name>PT15933</name></trkpt>
<trkpt lat="53.449384" lon="05.764995"><ele>2</ele><time>2021-02-17T16:37:45Z</time><name>PT15934</name></trkpt>
<trkpt lat="53.449374" lon="05.765009"><ele>2.1</ele><time>2021-02-17T16:37:46Z</time><name>PT15935</name></trkpt>
<trkpt lat="53.449366" lon="05.765025"><ele>1.8</ele><time>2021-02-17T16:37:47Z</time><name>PT15936</name></trkpt>
<trkpt lat="53.449362" lon="05.765039"><ele>1.8</ele><time>2021-02-17T16:37:48Z</time><name>PT15937</name></trkpt>
<trkpt lat="53.449358" lon="05.765049"><ele>2</ele><time>2021-02-17T16:37:49Z</time><name>PT15938</name></trkpt>
<trkpt lat="53.449354" lon="05.765054"><ele>1.9</ele><time>2021-02-17T16:37:50Z</time><name>PT15939</name></trkpt>
<trkpt lat="53.449349" lon="05.765061"><ele>1.8</ele><time>2021-02-17T16:37:51Z</time><name>PT15940</name></trkpt>
<trkpt lat="53.449344" lon="05.765071"><ele>1.8</ele><time>2021-02-17T16:37:52Z</time><name>PT15941</name></trkpt>
<trkpt lat="53.449337" lon="05.765085"><ele>1.8</ele><time>2021-02-17T16:37:53Z</time><name>PT15942</name></trkpt>
<trkpt lat="53.449331" lon="05.765102"><ele>1.6</ele><time>2021-02-17T16:37:54Z</time><name>PT15943</name></trkpt>
<trkpt lat="53.449327" lon="05.765117"><ele>1.8</ele><time>2021-02-17T16:37:55Z</time><name>PT15944</name></trkpt>
<trkpt lat="53.449325" lon="05.765123"><ele>1.6</ele><time>2021-02-17T16:37:56Z</time><name>PT15945</name></trkpt>
<trkpt lat="53.449325" lon="05.765131"><ele>1.7</ele><time>2021-02-17T16:37:57Z</time><name>PT15946</name></trkpt>
<trkpt lat="53.449323" lon="05.765145"><ele>1.8</ele><time>2021-02-17T16:37:58Z</time><name>PT15947</name></trkpt>
<trkpt lat="53.449321" lon="05.765166"><ele>1.8</ele><time>2021-02-17T16:37:59Z</time><name>PT15948</name></trkpt>
<trkpt lat="53.449319" lon="05.765182"><ele>1.8</ele><time>2021-02-17T16:38:00Z</time><name>PT15949</name></trkpt>
<trkpt lat="53.449319" lon="05.765192"><ele>2</ele><time>2021-02-17T16:38:01Z</time><name>PT15950</name></trkpt>
<trkpt lat="53.449317" lon="05.765202"><ele>2.1</ele><time>2021-02-17T16:38:02Z</time><name>PT15951</name></trkpt>
<trkpt lat="53.449314" lon="05.765216"><ele>2</ele><time>2021-02-17T16:38:03Z</time><name>PT15952</name></trkpt>
<trkpt lat="53.449307" lon="05.765231"><ele>1.8</ele><time>2021-02-17T16:38:04Z</time><name>PT15953</name></trkpt>
<trkpt lat="53.449297" lon="05.765247"><ele>1.6</ele><time>2021-02-17T16:38:05Z</time><name>PT15954</name></trkpt>
<trkpt lat="53.449289" lon="05.765262"><ele>1.4</ele><time>2021-02-17T16:38:06Z</time><name>PT15955</name></trkpt>
<trkpt lat="53.449284" lon="05.765272"><ele>1.4</ele><time>2021-02-17T16:38:07Z</time><name>PT15956</name></trkpt>
<trkpt lat="53.449283" lon="05.765278"><ele>1.4</ele><time>2021-02-17T16:38:08Z</time><name>PT15957</name></trkpt>
<trkpt lat="53.449282" lon="05.765284"><ele>1.4</ele><time>2021-02-17T16:38:09Z</time><name>PT15958</name></trkpt>
<trkpt lat="53.449276" lon="05.765300"><ele>1.5</ele><time>2021-02-17T16:38:10Z</time><name>PT15959</name></trkpt>
<trkpt lat="53.449269" lon="05.765320"><ele>1.3</ele><time>2021-02-17T16:38:11Z</time><name>PT15960</name></trkpt>
<trkpt lat="53.449261" lon="05.765339"><ele>1.2</ele><time>2021-02-17T16:38:12Z</time><name>PT15961</name></trkpt>
<trkpt lat="53.449253" lon="05.765358"><ele>1.3</ele><time>2021-02-17T16:38:13Z</time><name>PT15962</name></trkpt>
<trkpt lat="53.449248" lon="05.765373"><ele>1.5</ele><time>2021-02-17T16:38:14Z</time><name>PT15963</name></trkpt>
<trkpt lat="53.449244" lon="05.765383"><ele>1.6</ele><time>2021-02-17T16:38:15Z</time><name>PT15964</name></trkpt>
<trkpt lat="53.449241" lon="05.765388"><ele>1.7</ele><time>2021-02-17T16:38:16Z</time><name>PT15965</name></trkpt>
<trkpt lat="53.449233" lon="05.765396"><ele>1.5</ele><time>2021-02-17T16:38:17Z</time><name>PT15966</name></trkpt>
<trkpt lat="53.449220" lon="05.765409"><ele>1.5</ele><time>2021-02-17T16:38:18Z</time><name>PT15967</name></trkpt>
<trkpt lat="53.449208" lon="05.765423"><ele>1.5</ele><time>2021-02-17T16:38:19Z</time><name>PT15968</name></trkpt>
<trkpt lat="53.449197" lon="05.765436"><ele>1.5</ele><time>2021-02-17T16:38:20Z</time><name>PT15969</name></trkpt>
<trkpt lat="53.449189" lon="05.765449"><ele>1.4</ele><time>2021-02-17T16:38:21Z</time><name>PT15970</name></trkpt>
<trkpt lat="53.449185" lon="05.765458"><ele>1.6</ele><time>2021-02-17T16:38:22Z</time><name>PT15971</name></trkpt>
<trkpt lat="53.449184" lon="05.765467"><ele>1.6</ele><time>2021-02-17T16:38:23Z</time><name>PT15972</name></trkpt>
<trkpt lat="53.449181" lon="05.765477"><ele>1.4</ele><time>2021-02-17T16:38:24Z</time><name>PT15973</name></trkpt>
<trkpt lat="53.449176" lon="05.765490"><ele>1.4</ele><time>2021-02-17T16:38:25Z</time><name>PT15974</name></trkpt>
<trkpt lat="53.449168" lon="05.765504"><ele>1.4</ele><time>2021-02-17T16:38:26Z</time><name>PT15975</name></trkpt>
<trkpt lat="53.449159" lon="05.765514"><ele>1.3</ele><time>2021-02-17T16:38:27Z</time><name>PT15976</name></trkpt>
<trkpt lat="53.449151" lon="05.765522"><ele>1.5</ele><time>2021-02-17T16:38:28Z</time><name>PT15977</name></trkpt>
<trkpt lat="53.449146" lon="05.765529"><ele>1.5</ele><time>2021-02-17T16:38:29Z</time><name>PT15978</name></trkpt>
<trkpt lat="53.449143" lon="05.765535"><ele>1.3</ele><time>2021-02-17T16:38:30Z</time><name>PT15979</name></trkpt>
<trkpt lat="53.449136" lon="05.765539"><ele>1.3</ele><time>2021-02-17T16:38:31Z</time><name>PT15980</name></trkpt>
<trkpt lat="53.449128" lon="05.765543"><ele>1.2</ele><time>2021-02-17T16:38:32Z</time><name>PT15981</name></trkpt>
<trkpt lat="53.449116" lon="05.765544"><ele>1.3</ele><time>2021-02-17T16:38:33Z</time><name>PT15982</name></trkpt>
<trkpt lat="53.449109" lon="05.765549"><ele>1.4</ele><time>2021-02-17T16:38:34Z</time><name>PT15983</name></trkpt>
<trkpt lat="53.449104" lon="05.765555"><ele>1.4</ele><time>2021-02-17T16:38:35Z</time><name>PT15984</name></trkpt>
<trkpt lat="53.449100" lon="05.765561"><ele>1.5</ele><time>2021-02-17T16:38:36Z</time><name>PT15985</name></trkpt>
<trkpt lat="53.449098" lon="05.765568"><ele>1.3</ele><time>2021-02-17T16:38:37Z</time><name>PT15986</name></trkpt>
<trkpt lat="53.449092" lon="05.765584"><ele>1.2</ele><time>2021-02-17T16:38:38Z</time><name>PT15987</name></trkpt>
<trkpt lat="53.449084" lon="05.765598"><ele>1.1</ele><time>2021-02-17T16:38:39Z</time><name>PT15988</name></trkpt>
<trkpt lat="53.449072" lon="05.765610"><ele>1.2</ele><time>2021-02-17T16:38:40Z</time><name>PT15989</name></trkpt>
<trkpt lat="53.449059" lon="05.765627"><ele>1.2</ele><time>2021-02-17T16:38:41Z</time><name>PT15990</name></trkpt>
<trkpt lat="53.449048" lon="05.765643"><ele>1.3</ele><time>2021-02-17T16:38:42Z</time><name>PT15991</name></trkpt>
<trkpt lat="53.449041" lon="05.765655"><ele>1.4</ele><time>2021-02-17T16:38:43Z</time><name>PT15992</name></trkpt>
<trkpt lat="53.449035" lon="05.765663"><ele>1.4</ele><time>2021-02-17T16:38:44Z</time><name>PT15993</name></trkpt>
<trkpt lat="53.449031" lon="05.765671"><ele>1.6</ele><time>2021-02-17T16:38:45Z</time><name>PT15994</name></trkpt>
<trkpt lat="53.449027" lon="05.765679"><ele>1.6</ele><time>2021-02-17T16:38:46Z</time><name>PT15995</name></trkpt>
<trkpt lat="53.449020" lon="05.765682"><ele>1.6</ele><time>2021-02-17T16:38:47Z</time><name>PT15996</name></trkpt>
<trkpt lat="53.449011" lon="05.765686"><ele>1.7</ele><time>2021-02-17T16:38:48Z</time><name>PT15997</name></trkpt>
<trkpt lat="53.448997" lon="05.765690"><ele>1.3</ele><time>2021-02-17T16:38:49Z</time><name>PT15998</name></trkpt>
<trkpt lat="53.448983" lon="05.765697"><ele>1.4</ele><time>2021-02-17T16:38:50Z</time><name>PT15999</name></trkpt>
<trkpt lat="53.448974" lon="05.765709"><ele>1.4</ele><time>2021-02-17T16:38:51Z</time><name>PT16000</name></trkpt>
<trkpt lat="53.448964" lon="05.765718"><ele>1.3</ele><time>2021-02-17T16:38:52Z</time><name>PT16001</name></trkpt>
<trkpt lat="53.448955" lon="05.765726"><ele>1.5</ele><time>2021-02-17T16:38:53Z</time><name>PT16002</name></trkpt>
<trkpt lat="53.448950" lon="05.765732"><ele>1.7</ele><time>2021-02-17T16:38:54Z</time><name>PT16003</name></trkpt>
<trkpt lat="53.448946" lon="05.765736"><ele>1.6</ele><time>2021-02-17T16:38:55Z</time><name>PT16004</name></trkpt>
<trkpt lat="53.448941" lon="05.765740"><ele>1.7</ele><time>2021-02-17T16:38:56Z</time><name>PT16005</name></trkpt>
<trkpt lat="53.448943" lon="05.765745"><ele>1.8</ele><time>2021-02-17T16:38:58Z</time><name>PT16006</name></trkpt>
<trkpt lat="53.448928" lon="05.765756"><ele>1.8</ele><time>2021-02-17T16:38:59Z</time><name>PT16007</name></trkpt>
<trkpt lat="53.448913" lon="05.765769"><ele>1.8</ele><time>2021-02-17T16:39:00Z</time><name>PT16008</name></trkpt>
<trkpt lat="53.448901" lon="05.765777"><ele>1.7</ele><time>2021-02-17T16:39:01Z</time><name>PT16009</name></trkpt>
<trkpt lat="53.448893" lon="05.765784"><ele>1.4</ele><time>2021-02-17T16:39:02Z</time><name>PT16010</name></trkpt>
<trkpt lat="53.448888" lon="05.765791"><ele>1.4</ele><time>2021-02-17T16:39:03Z</time><name>PT16011</name></trkpt>
<trkpt lat="53.448883" lon="05.765795"><ele>1.3</ele><time>2021-02-17T16:39:04Z</time><name>PT16012</name></trkpt>
<trkpt lat="53.448874" lon="05.765800"><ele>1.4</ele><time>2021-02-17T16:39:05Z</time><name>PT16013</name></trkpt>
<trkpt lat="53.448864" lon="05.765807"><ele>1.4</ele><time>2021-02-17T16:39:06Z</time><name>PT16014</name></trkpt>
<trkpt lat="53.448853" lon="05.765813"><ele>1.6</ele><time>2021-02-17T16:39:07Z</time><name>PT16015</name></trkpt>
<trkpt lat="53.448840" lon="05.765823"><ele>1.7</ele><time>2021-02-17T16:39:08Z</time><name>PT16016</name></trkpt>
<trkpt lat="53.448828" lon="05.765831"><ele>1.8</ele><time>2021-02-17T16:39:09Z</time><name>PT16017</name></trkpt>
<trkpt lat="53.448818" lon="05.765838"><ele>1.6</ele><time>2021-02-17T16:39:10Z</time><name>PT16018</name></trkpt>
<trkpt lat="53.448810" lon="05.765845"><ele>1.7</ele><time>2021-02-17T16:39:11Z</time><name>PT16019</name></trkpt>
<trkpt lat="53.448803" lon="05.765851"><ele>1.7</ele><time>2021-02-17T16:39:12Z</time><name>PT16020</name></trkpt>
<trkpt lat="53.448797" lon="05.765856"><ele>1.5</ele><time>2021-02-17T16:39:13Z</time><name>PT16021</name></trkpt>
<trkpt lat="53.448790" lon="05.765859"><ele>1.6</ele><time>2021-02-17T16:39:14Z</time><name>PT16022</name></trkpt>
<trkpt lat="53.448781" lon="05.765860"><ele>1.6</ele><time>2021-02-17T16:39:15Z</time><name>PT16023</name></trkpt>
<trkpt lat="53.448769" lon="05.765863"><ele>1.4</ele><time>2021-02-17T16:39:16Z</time><name>PT16024</name></trkpt>
<trkpt lat="53.448758" lon="05.765866"><ele>1.3</ele><time>2021-02-17T16:39:17Z</time><name>PT16025</name></trkpt>
<trkpt lat="53.448750" lon="05.765873"><ele>1.3</ele><time>2021-02-17T16:39:18Z</time><name>PT16026</name></trkpt>
<trkpt lat="53.448744" lon="05.765877"><ele>1.4</ele><time>2021-02-17T16:39:19Z</time><name>PT16027</name></trkpt>
<trkpt lat="53.448740" lon="05.765880"><ele>1.6</ele><time>2021-02-17T16:39:20Z</time><name>PT16028</name></trkpt>
<trkpt lat="53.448736" lon="05.765887"><ele>1.8</ele><time>2021-02-17T16:39:21Z</time><name>PT16029</name></trkpt>
<trkpt lat="53.448726" lon="05.765903"><ele>1.8</ele><time>2021-02-17T16:39:22Z</time><name>PT16030</name></trkpt>
<trkpt lat="53.448718" lon="05.765919"><ele>1.8</ele><time>2021-02-17T16:39:23Z</time><name>PT16031</name></trkpt>
<trkpt lat="53.448716" lon="05.765921"><ele>1.8</ele><time>2021-02-17T16:39:24Z</time><name>PT16032</name></trkpt>
<trkpt lat="53.448716" lon="05.765924"><ele>1.8</ele><time>2021-02-17T16:39:25Z</time><name>PT16033</name></trkpt>
<trkpt lat="53.448715" lon="05.765929"><ele>1.6</ele><time>2021-02-17T16:39:26Z</time><name>PT16034</name></trkpt>
<trkpt lat="53.448711" lon="05.765938"><ele>1.6</ele><time>2021-02-17T16:39:27Z</time><name>PT16035</name></trkpt>
<trkpt lat="53.448707" lon="05.765954"><ele>1.7</ele><time>2021-02-17T16:39:28Z</time><name>PT16036</name></trkpt>
<trkpt lat="53.448706" lon="05.765969"><ele>1.7</ele><time>2021-02-17T16:39:29Z</time><name>PT16037</name></trkpt>
<trkpt lat="53.448706" lon="05.765979"><ele>1.8</ele><time>2021-02-17T16:39:30Z</time><name>PT16038</name></trkpt>
<trkpt lat="53.448706" lon="05.765990"><ele>1.9</ele><time>2021-02-17T16:39:31Z</time><name>PT16039</name></trkpt>
<trkpt lat="53.448705" lon="05.766003"><ele>2.1</ele><time>2021-02-17T16:39:32Z</time><name>PT16040</name></trkpt>
<trkpt lat="53.448701" lon="05.766019"><ele>2.3</ele><time>2021-02-17T16:39:33Z</time><name>PT16041</name></trkpt>
<trkpt lat="53.448701" lon="05.766032"><ele>2.3</ele><time>2021-02-17T16:39:34Z</time><name>PT16042</name></trkpt>
<trkpt lat="53.448704" lon="05.766042"><ele>2.7</ele><time>2021-02-17T16:39:35Z</time><name>PT16043</name></trkpt>
<trkpt lat="53.448709" lon="05.766055"><ele>2.7</ele><time>2021-02-17T16:39:36Z</time><name>PT16044</name></trkpt>
<trkpt lat="53.448712" lon="05.766060"><ele>2.5</ele><time>2021-02-17T16:39:37Z</time><name>PT16045</name></trkpt>
<trkpt lat="53.448714" lon="05.766072"><ele>2.7</ele><time>2021-02-17T16:39:38Z</time><name>PT16046</name></trkpt>
<trkpt lat="53.448714" lon="05.766089"><ele>2.6</ele><time>2021-02-17T16:39:39Z</time><name>PT16047</name></trkpt>
<trkpt lat="53.448714" lon="05.766110"><ele>2.8</ele><time>2021-02-17T16:39:40Z</time><name>PT16048</name></trkpt>
<trkpt lat="53.448715" lon="05.766125"><ele>2.8</ele><time>2021-02-17T16:39:41Z</time><name>PT16049</name></trkpt>
<trkpt lat="53.448716" lon="05.766137"><ele>2.8</ele><time>2021-02-17T16:39:42Z</time><name>PT16050</name></trkpt>
<trkpt lat="53.448716" lon="05.766151"><ele>3</ele><time>2021-02-17T16:39:43Z</time><name>PT16051</name></trkpt>
<trkpt lat="53.448713" lon="05.766165"><ele>3.2</ele><time>2021-02-17T16:39:44Z</time><name>PT16052</name></trkpt>
<trkpt lat="53.448708" lon="05.766185"><ele>3.2</ele><time>2021-02-17T16:39:45Z</time><name>PT16053</name></trkpt>
<trkpt lat="53.448704" lon="05.766205"><ele>3.4</ele><time>2021-02-17T16:39:46Z</time><name>PT16054</name></trkpt>
<trkpt lat="53.448700" lon="05.766219"><ele>3.3</ele><time>2021-02-17T16:39:47Z</time><name>PT16055</name></trkpt>
<trkpt lat="53.448700" lon="05.766229"><ele>3.3</ele><time>2021-02-17T16:39:48Z</time><name>PT16056</name></trkpt>
<trkpt lat="53.448699" lon="05.766238"><ele>3.5</ele><time>2021-02-17T16:39:49Z</time><name>PT16057</name></trkpt>
<trkpt lat="53.448697" lon="05.766248"><ele>3.8</ele><time>2021-02-17T16:39:50Z</time><name>PT16058</name></trkpt>
<trkpt lat="53.448694" lon="05.766261"><ele>4.1</ele><time>2021-02-17T16:39:51Z</time><name>PT16059</name></trkpt>
<trkpt lat="53.448689" lon="05.766277"><ele>4.2</ele><time>2021-02-17T16:39:52Z</time><name>PT16060</name></trkpt>
<trkpt lat="53.448685" lon="05.766295"><ele>4.3</ele><time>2021-02-17T16:39:53Z</time><name>PT16061</name></trkpt>
<trkpt lat="53.448683" lon="05.766309"><ele>4.3</ele><time>2021-02-17T16:39:54Z</time><name>PT16062</name></trkpt>
<trkpt lat="53.448680" lon="05.766325"><ele>4.5</ele><time>2021-02-17T16:39:55Z</time><name>PT16063</name></trkpt>
<trkpt lat="53.448679" lon="05.766337"><ele>4.6</ele><time>2021-02-17T16:39:56Z</time><name>PT16064</name></trkpt>
<trkpt lat="53.448678" lon="05.766346"><ele>4.7</ele><time>2021-02-17T16:39:57Z</time><name>PT16065</name></trkpt>
<trkpt lat="53.448675" lon="05.766355"><ele>4.7</ele><time>2021-02-17T16:39:58Z</time><name>PT16066</name></trkpt>
<trkpt lat="53.448670" lon="05.766364"><ele>4.7</ele><time>2021-02-17T16:39:59Z</time><name>PT16067</name></trkpt>
<trkpt lat="53.448662" lon="05.766379"><ele>4.8</ele><time>2021-02-17T16:40:00Z</time><name>PT16068</name></trkpt>
<trkpt lat="53.448653" lon="05.766398"><ele>4.9</ele><time>2021-02-17T16:40:01Z</time><name>PT16069</name></trkpt>
<trkpt lat="53.448646" lon="05.766412"><ele>4.9</ele><time>2021-02-17T16:40:02Z</time><name>PT16070</name></trkpt>
<trkpt lat="53.448643" lon="05.766425"><ele>5</ele><time>2021-02-17T16:40:03Z</time><name>PT16071</name></trkpt>
<trkpt lat="53.448640" lon="05.766434"><ele>5.1</ele><time>2021-02-17T16:40:04Z</time><name>PT16072</name></trkpt>
<trkpt lat="53.448636" lon="05.766441"><ele>5.1</ele><time>2021-02-17T16:40:05Z</time><name>PT16073</name></trkpt>
<trkpt lat="53.448631" lon="05.766456"><ele>5.1</ele><time>2021-02-17T16:40:06Z</time><name>PT16074</name></trkpt>
<trkpt lat="53.448626" lon="05.766473"><ele>5.2</ele><time>2021-02-17T16:40:07Z</time><name>PT16075</name></trkpt>
<trkpt lat="53.448621" lon="05.766493"><ele>5.2</ele><time>2021-02-17T16:40:08Z</time><name>PT16076</name></trkpt>
<trkpt lat="53.448614" lon="05.766514"><ele>5.2</ele><time>2021-02-17T16:40:09Z</time><name>PT16077</name></trkpt>
<trkpt lat="53.448610" lon="05.766532"><ele>5.2</ele><time>2021-02-17T16:40:10Z</time><name>PT16078</name></trkpt>
<trkpt lat="53.448607" lon="05.766545"><ele>5.2</ele><time>2021-02-17T16:40:11Z</time><name>PT16079</name></trkpt>
<trkpt lat="53.448606" lon="05.766558"><ele>5.4</ele><time>2021-02-17T16:40:12Z</time><name>PT16080</name></trkpt>
<trkpt lat="53.448604" lon="05.766569"><ele>5.6</ele><time>2021-02-17T16:40:13Z</time><name>PT16081</name></trkpt>
<trkpt lat="53.448600" lon="05.766580"><ele>5.7</ele><time>2021-02-17T16:40:14Z</time><name>PT16082</name></trkpt>
<trkpt lat="53.448596" lon="05.766596"><ele>5.7</ele><time>2021-02-17T16:40:15Z</time><name>PT16083</name></trkpt>
<trkpt lat="53.448589" lon="05.766615"><ele>5.7</ele><time>2021-02-17T16:40:16Z</time><name>PT16084</name></trkpt>
<trkpt lat="53.448581" lon="05.766635"><ele>5.7</ele><time>2021-02-17T16:40:17Z</time><name>PT16085</name></trkpt>
<trkpt lat="53.448576" lon="05.766654"><ele>5.6</ele><time>2021-02-17T16:40:18Z</time><name>PT16086</name></trkpt>
<trkpt lat="53.448573" lon="05.766670"><ele>5.5</ele><time>2021-02-17T16:40:19Z</time><name>PT16087</name></trkpt>
<trkpt lat="53.448570" lon="05.766685"><ele>5.5</ele><time>2021-02-17T16:40:20Z</time><name>PT16088</name></trkpt>
<trkpt lat="53.448567" lon="05.766698"><ele>5.4</ele><time>2021-02-17T16:40:21Z</time><name>PT16089</name></trkpt>
<trkpt lat="53.448563" lon="05.766709"><ele>5.2</ele><time>2021-02-17T16:40:22Z</time><name>PT16090</name></trkpt>
<trkpt lat="53.448558" lon="05.766724"><ele>5.3</ele><time>2021-02-17T16:40:23Z</time><name>PT16091</name></trkpt>
<trkpt lat="53.448553" lon="05.766740"><ele>5.3</ele><time>2021-02-17T16:40:24Z</time><name>PT16092</name></trkpt>
<trkpt lat="53.448550" lon="05.766756"><ele>5.2</ele><time>2021-02-17T16:40:25Z</time><name>PT16093</name></trkpt>
<trkpt lat="53.448547" lon="05.766771"><ele>5.4</ele><time>2021-02-17T16:40:26Z</time><name>PT16094</name></trkpt>
<trkpt lat="53.448543" lon="05.766782"><ele>5.4</ele><time>2021-02-17T16:40:27Z</time><name>PT16095</name></trkpt>
<trkpt lat="53.448539" lon="05.766794"><ele>5.2</ele><time>2021-02-17T16:40:28Z</time><name>PT16096</name></trkpt>
<trkpt lat="53.448537" lon="05.766805"><ele>5.1</ele><time>2021-02-17T16:40:29Z</time><name>PT16097</name></trkpt>
<trkpt lat="53.448533" lon="05.766819"><ele>4.9</ele><time>2021-02-17T16:40:30Z</time><name>PT16098</name></trkpt>
<trkpt lat="53.448530" lon="05.766836"><ele>4.7</ele><time>2021-02-17T16:40:31Z</time><name>PT16099</name></trkpt>
<trkpt lat="53.448529" lon="05.766851"><ele>4.8</ele><time>2021-02-17T16:40:32Z</time><name>PT16100</name></trkpt>
<trkpt lat="53.448526" lon="05.766863"><ele>4.7</ele><time>2021-02-17T16:40:33Z</time><name>PT16101</name></trkpt>
<trkpt lat="53.448523" lon="05.766875"><ele>5</ele><time>2021-02-17T16:40:34Z</time><name>PT16102</name></trkpt>
<trkpt lat="53.448522" lon="05.766885"><ele>5.1</ele><time>2021-02-17T16:40:35Z</time><name>PT16103</name></trkpt>
<trkpt lat="53.448517" lon="05.766897"><ele>5.1</ele><time>2021-02-17T16:40:36Z</time><name>PT16104</name></trkpt>
<trkpt lat="53.448513" lon="05.766910"><ele>5.1</ele><time>2021-02-17T16:40:37Z</time><name>PT16105</name></trkpt>
<trkpt lat="53.448509" lon="05.766922"><ele>4.9</ele><time>2021-02-17T16:40:38Z</time><name>PT16106</name></trkpt>
<trkpt lat="53.448507" lon="05.766933"><ele>4.9</ele><time>2021-02-17T16:40:39Z</time><name>PT16107</name></trkpt>
<trkpt lat="53.448505" lon="05.766943"><ele>4.9</ele><time>2021-02-17T16:40:40Z</time><name>PT16108</name></trkpt>
<trkpt lat="53.448501" lon="05.766954"><ele>4.7</ele><time>2021-02-17T16:40:41Z</time><name>PT16109</name></trkpt>
<trkpt lat="53.448496" lon="05.766968"><ele>4.8</ele><time>2021-02-17T16:40:42Z</time><name>PT16110</name></trkpt>
<trkpt lat="53.448489" lon="05.766983"><ele>4.8</ele><time>2021-02-17T16:40:43Z</time><name>PT16111</name></trkpt>
<trkpt lat="53.448483" lon="05.766998"><ele>4.9</ele><time>2021-02-17T16:40:44Z</time><name>PT16112</name></trkpt>
<trkpt lat="53.448479" lon="05.767013"><ele>4.7</ele><time>2021-02-17T16:40:45Z</time><name>PT16113</name></trkpt>
<trkpt lat="53.448475" lon="05.767028"><ele>4.6</ele><time>2021-02-17T16:40:46Z</time><name>PT16114</name></trkpt>
<trkpt lat="53.448470" lon="05.767039"><ele>4.6</ele><time>2021-02-17T16:40:47Z</time><name>PT16115</name></trkpt>
<trkpt lat="53.448465" lon="05.767050"><ele>4.4</ele><time>2021-02-17T16:40:48Z</time><name>PT16116</name></trkpt>
<trkpt lat="53.448457" lon="05.767064"><ele>4.3</ele><time>2021-02-17T16:40:49Z</time><name>PT16117</name></trkpt>
<trkpt lat="53.448450" lon="05.767078"><ele>4.2</ele><time>2021-02-17T16:40:50Z</time><name>PT16118</name></trkpt>
<trkpt lat="53.448445" lon="05.767092"><ele>4</ele><time>2021-02-17T16:40:51Z</time><name>PT16119</name></trkpt>
<trkpt lat="53.448439" lon="05.767104"><ele>3.8</ele><time>2021-02-17T16:40:52Z</time><name>PT16120</name></trkpt>
<trkpt lat="53.448438" lon="05.767115"><ele>3.7</ele><time>2021-02-17T16:40:53Z</time><name>PT16121</name></trkpt>
<trkpt lat="53.448436" lon="05.767130"><ele>3.5</ele><time>2021-02-17T16:40:54Z</time><name>PT16122</name></trkpt>
<trkpt lat="53.448433" lon="05.767139"><ele>3.3</ele><time>2021-02-17T16:40:55Z</time><name>PT16123</name></trkpt>
<trkpt lat="53.448433" lon="05.767144"><ele>3.2</ele><time>2021-02-17T16:40:56Z</time><name>PT16124</name></trkpt>
<trkpt lat="53.448431" lon="05.767153"><ele>3.1</ele><time>2021-02-17T16:40:57Z</time><name>PT16125</name></trkpt>
<trkpt lat="53.448426" lon="05.767161"><ele>3.1</ele><time>2021-02-17T16:40:58Z</time><name>PT16126</name></trkpt>
<trkpt lat="53.448427" lon="05.767167"><ele>3</ele><time>2021-02-17T16:40:59Z</time><name>PT16127</name></trkpt>
<trkpt lat="53.448426" lon="05.767175"><ele>3</ele><time>2021-02-17T16:41:00Z</time><name>PT16128</name></trkpt>
<trkpt lat="53.448426" lon="05.767177"><ele>3.2</ele><time>2021-02-17T16:41:01Z</time><name>PT16129</name></trkpt>
<trkpt lat="53.448426" lon="05.767178"><ele>3.1</ele><time>2021-02-17T16:41:02Z</time><name>PT16130</name></trkpt>
<trkpt lat="53.448425" lon="05.767179"><ele>3.2</ele><time>2021-02-17T16:41:03Z</time><name>PT16131</name></trkpt>
<trkpt lat="53.448425" lon="05.767177"><ele>3.2</ele><time>2021-02-17T16:41:04Z</time><name>PT16132</name></trkpt>
<trkpt lat="53.448425" lon="05.767180"><ele>3.3</ele><time>2021-02-17T16:41:05Z</time><name>PT16133</name></trkpt>
<trkpt lat="53.448427" lon="05.767183"><ele>3.6</ele><time>2021-02-17T16:41:06Z</time><name>PT16134</name></trkpt>
<trkpt lat="53.448428" lon="05.767184"><ele>3.3</ele><time>2021-02-17T16:41:20Z</time><name>PT16135</name></trkpt>
<trkpt lat="53.448427" lon="05.767182"><ele>3.3</ele><time>2021-02-17T16:41:21Z</time><name>PT16136</name></trkpt>
<trkpt lat="53.448424" lon="05.767180"><ele>3.4</ele><time>2021-02-17T16:41:22Z</time><name>PT16137</name></trkpt>
<trkpt lat="53.448424" lon="05.767181"><ele>3.5</ele><time>2021-02-17T16:41:23Z</time><name>PT16138</name></trkpt>
<trkpt lat="53.448423" lon="05.767185"><ele>3.5</ele><time>2021-02-17T16:41:49Z</time><name>PT16139</name></trkpt>
<trkpt lat="53.448420" lon="05.767192"><ele>3.3</ele><time>2021-02-17T16:41:50Z</time><name>PT16140</name></trkpt>
<trkpt lat="53.448416" lon="05.767200"><ele>3.2</ele><time>2021-02-17T16:41:51Z</time><name>PT16141</name></trkpt>
<trkpt lat="53.448412" lon="05.767205"><ele>3.2</ele><time>2021-02-17T16:41:52Z</time><name>PT16142</name></trkpt>
<trkpt lat="53.448407" lon="05.767207"><ele>3.2</ele><time>2021-02-17T16:41:57Z</time><name>PT16143</name></trkpt>
<trkpt lat="53.448398" lon="05.767214"><ele>3.2</ele><time>2021-02-17T16:41:58Z</time><name>PT16144</name></trkpt>
<trkpt lat="53.448389" lon="05.767217"><ele>3.4</ele><time>2021-02-17T16:41:59Z</time><name>PT16145</name></trkpt>
<trkpt lat="53.448381" lon="05.767222"><ele>3.4</ele><time>2021-02-17T16:42:00Z</time><name>PT16146</name></trkpt>
<trkpt lat="53.448372" lon="05.767226"><ele>3.4</ele><time>2021-02-17T16:42:01Z</time><name>PT16147</name></trkpt>
<trkpt lat="53.448361" lon="05.767232"><ele>3.2</ele><time>2021-02-17T16:42:02Z</time><name>PT16148</name></trkpt>
<trkpt lat="53.448352" lon="05.767235"><ele>3</ele><time>2021-02-17T16:42:03Z</time><name>PT16149</name></trkpt>
<trkpt lat="53.448345" lon="05.767240"><ele>3</ele><time>2021-02-17T16:42:04Z</time><name>PT16150</name></trkpt>
<trkpt lat="53.448338" lon="05.767250"><ele>2.8</ele><time>2021-02-17T16:42:05Z</time><name>PT16151</name></trkpt>
<trkpt lat="53.448330" lon="05.767255"><ele>2.8</ele><time>2021-02-17T16:42:06Z</time><name>PT16152</name></trkpt>
<trkpt lat="53.448322" lon="05.767260"><ele>2.8</ele><time>2021-02-17T16:42:07Z</time><name>PT16153</name></trkpt>
<trkpt lat="53.448314" lon="05.767268"><ele>3</ele><time>2021-02-17T16:42:08Z</time><name>PT16154</name></trkpt>
<trkpt lat="53.448306" lon="05.767278"><ele>3.1</ele><time>2021-02-17T16:42:09Z</time><name>PT16155</name></trkpt>
<trkpt lat="53.448298" lon="05.767288"><ele>3.2</ele><time>2021-02-17T16:42:10Z</time><name>PT16156</name></trkpt>
<trkpt lat="53.448289" lon="05.767292"><ele>3.1</ele><time>2021-02-17T16:42:11Z</time><name>PT16157</name></trkpt>
<trkpt lat="53.448281" lon="05.767297"><ele>3.1</ele><time>2021-02-17T16:42:12Z</time><name>PT16158</name></trkpt>
<trkpt lat="53.448272" lon="05.767305"><ele>3.1</ele><time>2021-02-17T16:42:13Z</time><name>PT16159</name></trkpt>
<trkpt lat="53.448262" lon="05.767314"><ele>3.2</ele><time>2021-02-17T16:42:14Z</time><name>PT16160</name></trkpt>
<trkpt lat="53.448252" lon="05.767322"><ele>3.2</ele><time>2021-02-17T16:42:15Z</time><name>PT16161</name></trkpt>
<trkpt lat="53.448242" lon="05.767327"><ele>3</ele><time>2021-02-17T16:42:16Z</time><name>PT16162</name></trkpt>
<trkpt lat="53.448233" lon="05.767335"><ele>2.8</ele><time>2021-02-17T16:42:17Z</time><name>PT16163</name></trkpt>
<trkpt lat="53.448228" lon="05.767340"><ele>2.7</ele><time>2021-02-17T16:42:18Z</time><name>PT16164</name></trkpt>
<trkpt lat="53.448222" lon="05.767342"><ele>2.8</ele><time>2021-02-17T16:42:19Z</time><name>PT16165</name></trkpt>
<trkpt lat="53.448212" lon="05.767348"><ele>3</ele><time>2021-02-17T16:42:20Z</time><name>PT16166</name></trkpt>
<trkpt lat="53.448202" lon="05.767352"><ele>2.9</ele><time>2021-02-17T16:42:21Z</time><name>PT16167</name></trkpt>
<trkpt lat="53.448193" lon="05.767360"><ele>3.2</ele><time>2021-02-17T16:42:22Z</time><name>PT16168</name></trkpt>
<trkpt lat="53.448184" lon="05.767368"><ele>3.2</ele><time>2021-02-17T16:42:23Z</time><name>PT16169</name></trkpt>
<trkpt lat="53.448173" lon="05.767381"><ele>3.4</ele><time>2021-02-17T16:42:24Z</time><name>PT16170</name></trkpt>
<trkpt lat="53.448163" lon="05.767391"><ele>3.7</ele><time>2021-02-17T16:42:25Z</time><name>PT16171</name></trkpt>
<trkpt lat="53.448151" lon="05.767396"><ele>3.7</ele><time>2021-02-17T16:42:26Z</time><name>PT16172</name></trkpt>
<trkpt lat="53.448143" lon="05.767405"><ele>3.7</ele><time>2021-02-17T16:42:27Z</time><name>PT16173</name></trkpt>
<trkpt lat="53.448135" lon="05.767416"><ele>3.7</ele><time>2021-02-17T16:42:28Z</time><name>PT16174</name></trkpt>
<trkpt lat="53.448126" lon="05.767427"><ele>3.5</ele><time>2021-02-17T16:42:29Z</time><name>PT16175</name></trkpt>
<trkpt lat="53.448116" lon="05.767432"><ele>3.4</ele><time>2021-02-17T16:42:30Z</time><name>PT16176</name></trkpt>
<trkpt lat="53.448107" lon="05.767437"><ele>3.3</ele><time>2021-02-17T16:42:31Z</time><name>PT16177</name></trkpt>
<trkpt lat="53.448098" lon="05.767444"><ele>3.3</ele><time>2021-02-17T16:42:32Z</time><name>PT16178</name></trkpt>
<trkpt lat="53.448085" lon="05.767451"><ele>3.3</ele><time>2021-02-17T16:42:33Z</time><name>PT16179</name></trkpt>
<trkpt lat="53.448076" lon="05.767461"><ele>3.2</ele><time>2021-02-17T16:42:34Z</time><name>PT16180</name></trkpt>
<trkpt lat="53.448065" lon="05.767467"><ele>3.2</ele><time>2021-02-17T16:42:35Z</time><name>PT16181</name></trkpt>
<trkpt lat="53.448057" lon="05.767474"><ele>3.3</ele><time>2021-02-17T16:42:36Z</time><name>PT16182</name></trkpt>
<trkpt lat="53.448049" lon="05.767482"><ele>3.4</ele><time>2021-02-17T16:42:37Z</time><name>PT16183</name></trkpt>
<trkpt lat="53.448040" lon="05.767490"><ele>3.4</ele><time>2021-02-17T16:42:38Z</time><name>PT16184</name></trkpt>
<trkpt lat="53.448032" lon="05.767498"><ele>3.5</ele><time>2021-02-17T16:42:39Z</time><name>PT16185</name></trkpt>
<trkpt lat="53.448023" lon="05.767510"><ele>3.4</ele><time>2021-02-17T16:42:40Z</time><name>PT16186</name></trkpt>
<trkpt lat="53.448017" lon="05.767524"><ele>3.6</ele><time>2021-02-17T16:42:41Z</time><name>PT16187</name></trkpt>
<trkpt lat="53.448009" lon="05.767535"><ele>3.5</ele><time>2021-02-17T16:42:42Z</time><name>PT16188</name></trkpt>
<trkpt lat="53.448001" lon="05.767543"><ele>3.7</ele><time>2021-02-17T16:42:43Z</time><name>PT16189</name></trkpt>
<trkpt lat="53.447991" lon="05.767553"><ele>3.7</ele><time>2021-02-17T16:42:44Z</time><name>PT16190</name></trkpt>
<trkpt lat="53.447980" lon="05.767562"><ele>3.5</ele><time>2021-02-17T16:42:45Z</time><name>PT16191</name></trkpt>
<trkpt lat="53.447969" lon="05.767572"><ele>3.3</ele><time>2021-02-17T16:42:46Z</time><name>PT16192</name></trkpt>
<trkpt lat="53.447957" lon="05.767587"><ele>3.2</ele><time>2021-02-17T16:42:47Z</time><name>PT16193</name></trkpt>
<trkpt lat="53.447949" lon="05.767601"><ele>3.2</ele><time>2021-02-17T16:42:48Z</time><name>PT16194</name></trkpt>
<trkpt lat="53.447944" lon="05.767613"><ele>3.2</ele><time>2021-02-17T16:42:49Z</time><name>PT16195</name></trkpt>
<trkpt lat="53.447940" lon="05.767624"><ele>3.2</ele><time>2021-02-17T16:42:50Z</time><name>PT16196</name></trkpt>
<trkpt lat="53.447935" lon="05.767637"><ele>3.2</ele><time>2021-02-17T16:42:51Z</time><name>PT16197</name></trkpt>
<trkpt lat="53.447927" lon="05.767650"><ele>3.1</ele><time>2021-02-17T16:42:52Z</time><name>PT16198</name></trkpt>
<trkpt lat="53.447913" lon="05.767661"><ele>3.2</ele><time>2021-02-17T16:42:53Z</time><name>PT16199</name></trkpt>
<trkpt lat="53.447899" lon="05.767671"><ele>3.4</ele><time>2021-02-17T16:42:54Z</time><name>PT16200</name></trkpt>
<trkpt lat="53.447891" lon="05.767682"><ele>3.7</ele><time>2021-02-17T16:42:55Z</time><name>PT16201</name></trkpt>
<trkpt lat="53.447885" lon="05.767693"><ele>3.8</ele><time>2021-02-17T16:42:56Z</time><name>PT16202</name></trkpt>
<trkpt lat="53.447880" lon="05.767702"><ele>3.7</ele><time>2021-02-17T16:42:57Z</time><name>PT16203</name></trkpt>
<trkpt lat="53.447874" lon="05.767713"><ele>3.7</ele><time>2021-02-17T16:42:58Z</time><name>PT16204</name></trkpt>
<trkpt lat="53.447863" lon="05.767726"><ele>3.5</ele><time>2021-02-17T16:42:59Z</time><name>PT16205</name></trkpt>
<trkpt lat="53.447851" lon="05.767740"><ele>3.5</ele><time>2021-02-17T16:43:00Z</time><name>PT16206</name></trkpt>
<trkpt lat="53.447843" lon="05.767753"><ele>3.4</ele><time>2021-02-17T16:43:01Z</time><name>PT16207</name></trkpt>
<trkpt lat="53.447839" lon="05.767762"><ele>3.2</ele><time>2021-02-17T16:43:02Z</time><name>PT16208</name></trkpt>
<trkpt lat="53.447836" lon="05.767768"><ele>3.1</ele><time>2021-02-17T16:43:03Z</time><name>PT16209</name></trkpt>
<trkpt lat="53.447832" lon="05.767777"><ele>3.1</ele><time>2021-02-17T16:43:04Z</time><name>PT16210</name></trkpt>
<trkpt lat="53.447826" lon="05.767791"><ele>3.1</ele><time>2021-02-17T16:43:05Z</time><name>PT16211</name></trkpt>
<trkpt lat="53.447814" lon="05.767807"><ele>3.1</ele><time>2021-02-17T16:43:06Z</time><name>PT16212</name></trkpt>
<trkpt lat="53.447802" lon="05.767820"><ele>3.2</ele><time>2021-02-17T16:43:07Z</time><name>PT16213</name></trkpt>
<trkpt lat="53.447797" lon="05.767832"><ele>3.2</ele><time>2021-02-17T16:43:08Z</time><name>PT16214</name></trkpt>
<trkpt lat="53.447792" lon="05.767841"><ele>3.4</ele><time>2021-02-17T16:43:09Z</time><name>PT16215</name></trkpt>
<trkpt lat="53.447788" lon="05.767852"><ele>3.3</ele><time>2021-02-17T16:43:10Z</time><name>PT16216</name></trkpt>
<trkpt lat="53.447779" lon="05.767867"><ele>3.5</ele><time>2021-02-17T16:43:11Z</time><name>PT16217</name></trkpt>
<trkpt lat="53.447765" lon="05.767879"><ele>3.6</ele><time>2021-02-17T16:43:12Z</time><name>PT16218</name></trkpt>
<trkpt lat="53.447755" lon="05.767890"><ele>3.5</ele><time>2021-02-17T16:43:13Z</time><name>PT16219</name></trkpt>
<trkpt lat="53.447750" lon="05.767900"><ele>3.6</ele><time>2021-02-17T16:43:14Z</time><name>PT16220</name></trkpt>
<trkpt lat="53.447746" lon="05.767910"><ele>3.7</ele><time>2021-02-17T16:43:15Z</time><name>PT16221</name></trkpt>
<trkpt lat="53.447742" lon="05.767918"><ele>3.7</ele><time>2021-02-17T16:43:16Z</time><name>PT16222</name></trkpt>
<trkpt lat="53.447736" lon="05.767929"><ele>3.7</ele><time>2021-02-17T16:43:17Z</time><name>PT16223</name></trkpt>
<trkpt lat="53.447726" lon="05.767941"><ele>3.7</ele><time>2021-02-17T16:43:18Z</time><name>PT16224</name></trkpt>
<trkpt lat="53.447716" lon="05.767953"><ele>3.7</ele><time>2021-02-17T16:43:19Z</time><name>PT16225</name></trkpt>
<trkpt lat="53.447706" lon="05.767970"><ele>3.5</ele><time>2021-02-17T16:43:20Z</time><name>PT16226</name></trkpt>
<trkpt lat="53.447697" lon="05.767987"><ele>3.5</ele><time>2021-02-17T16:43:21Z</time><name>PT16227</name></trkpt>
<trkpt lat="53.447693" lon="05.767998"><ele>3.4</ele><time>2021-02-17T16:43:22Z</time><name>PT16228</name></trkpt>
<trkpt lat="53.447687" lon="05.768007"><ele>3.5</ele><time>2021-02-17T16:43:23Z</time><name>PT16229</name></trkpt>
<trkpt lat="53.447682" lon="05.768016"><ele>3.7</ele><time>2021-02-17T16:43:24Z</time><name>PT16230</name></trkpt>
<trkpt lat="53.447673" lon="05.768028"><ele>3.7</ele><time>2021-02-17T16:43:25Z</time><name>PT16231</name></trkpt>
<trkpt lat="53.447663" lon="05.768043"><ele>3.5</ele><time>2021-02-17T16:43:26Z</time><name>PT16232</name></trkpt>
<trkpt lat="53.447655" lon="05.768052"><ele>3.3</ele><time>2021-02-17T16:43:27Z</time><name>PT16233</name></trkpt>
<trkpt lat="53.447648" lon="05.768060"><ele>3.5</ele><time>2021-02-17T16:43:28Z</time><name>PT16234</name></trkpt>
<trkpt lat="53.447641" lon="05.768071"><ele>3.5</ele><time>2021-02-17T16:43:29Z</time><name>PT16235</name></trkpt>
<trkpt lat="53.447633" lon="05.768083"><ele>3.6</ele><time>2021-02-17T16:43:30Z</time><name>PT16236</name></trkpt>
<trkpt lat="53.447623" lon="05.768094"><ele>3.7</ele><time>2021-02-17T16:43:31Z</time><name>PT16237</name></trkpt>
<trkpt lat="53.447616" lon="05.768106"><ele>3.2</ele><time>2021-02-17T16:43:32Z</time><name>PT16238</name></trkpt>
<trkpt lat="53.447610" lon="05.768117"><ele>3.1</ele><time>2021-02-17T16:43:33Z</time><name>PT16239</name></trkpt>
<trkpt lat="53.447605" lon="05.768129"><ele>3</ele><time>2021-02-17T16:43:34Z</time><name>PT16240</name></trkpt>
<trkpt lat="53.447599" lon="05.768136"><ele>3</ele><time>2021-02-17T16:43:35Z</time><name>PT16241</name></trkpt>
<trkpt lat="53.447591" lon="05.768146"><ele>3.2</ele><time>2021-02-17T16:43:36Z</time><name>PT16242</name></trkpt>
<trkpt lat="53.447581" lon="05.768159"><ele>3.4</ele><time>2021-02-17T16:43:37Z</time><name>PT16243</name></trkpt>
<trkpt lat="53.447569" lon="05.768173"><ele>3.5</ele><time>2021-02-17T16:43:38Z</time><name>PT16244</name></trkpt>
<trkpt lat="53.447563" lon="05.768186"><ele>3.6</ele><time>2021-02-17T16:43:39Z</time><name>PT16245</name></trkpt>
<trkpt lat="53.447559" lon="05.768195"><ele>3.6</ele><time>2021-02-17T16:43:40Z</time><name>PT16246</name></trkpt>
<trkpt lat="53.447556" lon="05.768204"><ele>3.7</ele><time>2021-02-17T16:43:41Z</time><name>PT16247</name></trkpt>
<trkpt lat="53.447552" lon="05.768216"><ele>3.6</ele><time>2021-02-17T16:43:42Z</time><name>PT16248</name></trkpt>
<trkpt lat="53.447545" lon="05.768232"><ele>3.5</ele><time>2021-02-17T16:43:43Z</time><name>PT16249</name></trkpt>
<trkpt lat="53.447535" lon="05.768255"><ele>3.6</ele><time>2021-02-17T16:43:44Z</time><name>PT16250</name></trkpt>
<trkpt lat="53.447526" lon="05.768274"><ele>3.6</ele><time>2021-02-17T16:43:45Z</time><name>PT16251</name></trkpt>
<trkpt lat="53.447519" lon="05.768288"><ele>3.6</ele><time>2021-02-17T16:43:46Z</time><name>PT16252</name></trkpt>
<trkpt lat="53.447514" lon="05.768302"><ele>3.7</ele><time>2021-02-17T16:43:47Z</time><name>PT16253</name></trkpt>
<trkpt lat="53.447509" lon="05.768314"><ele>3.7</ele><time>2021-02-17T16:43:48Z</time><name>PT16254</name></trkpt>
<trkpt lat="53.447504" lon="05.768322"><ele>3.6</ele><time>2021-02-17T16:43:49Z</time><name>PT16255</name></trkpt>
<trkpt lat="53.447498" lon="05.768333"><ele>3.5</ele><time>2021-02-17T16:43:50Z</time><name>PT16256</name></trkpt>
<trkpt lat="53.447490" lon="05.768349"><ele>3.5</ele><time>2021-02-17T16:43:51Z</time><name>PT16257</name></trkpt>
<trkpt lat="53.447478" lon="05.768367"><ele>3.3</ele><time>2021-02-17T16:43:52Z</time><name>PT16258</name></trkpt>
<trkpt lat="53.447471" lon="05.768383"><ele>3.2</ele><time>2021-02-17T16:43:53Z</time><name>PT16259</name></trkpt>
<trkpt lat="53.447466" lon="05.768395"><ele>3.5</ele><time>2021-02-17T16:43:54Z</time><name>PT16260</name></trkpt>
<trkpt lat="53.447463" lon="05.768402"><ele>3.4</ele><time>2021-02-17T16:43:55Z</time><name>PT16261</name></trkpt>
<trkpt lat="53.447459" lon="05.768407"><ele>3.3</ele><time>2021-02-17T16:43:56Z</time><name>PT16262</name></trkpt>
<trkpt lat="53.447453" lon="05.768419"><ele>3.4</ele><time>2021-02-17T16:43:57Z</time><name>PT16263</name></trkpt>
<trkpt lat="53.447444" lon="05.768430"><ele>3.2</ele><time>2021-02-17T16:43:58Z</time><name>PT16264</name></trkpt>
<trkpt lat="53.447432" lon="05.768442"><ele>3.2</ele><time>2021-02-17T16:43:59Z</time><name>PT16265</name></trkpt>
<trkpt lat="53.447423" lon="05.768457"><ele>3.3</ele><time>2021-02-17T16:44:00Z</time><name>PT16266</name></trkpt>
<trkpt lat="53.447417" lon="05.768470"><ele>3.2</ele><time>2021-02-17T16:44:01Z</time><name>PT16267</name></trkpt>
<trkpt lat="53.447413" lon="05.768478"><ele>3.4</ele><time>2021-02-17T16:44:02Z</time><name>PT16268</name></trkpt>
<trkpt lat="53.447410" lon="05.768490"><ele>3.2</ele><time>2021-02-17T16:44:03Z</time><name>PT16269</name></trkpt>
<trkpt lat="53.447410" lon="05.768496"><ele>3.4</ele><time>2021-02-17T16:44:04Z</time><name>PT16270</name></trkpt>
<trkpt lat="53.447407" lon="05.768503"><ele>3.4</ele><time>2021-02-17T16:44:05Z</time><name>PT16271</name></trkpt>
<trkpt lat="53.447400" lon="05.768516"><ele>3.2</ele><time>2021-02-17T16:44:06Z</time><name>PT16272</name></trkpt>
<trkpt lat="53.447393" lon="05.768534"><ele>3.2</ele><time>2021-02-17T16:44:07Z</time><name>PT16273</name></trkpt>
<trkpt lat="53.447383" lon="05.768552"><ele>3.2</ele><time>2021-02-17T16:44:08Z</time><name>PT16274</name></trkpt>
<trkpt lat="53.447377" lon="05.768563"><ele>3.2</ele><time>2021-02-17T16:44:09Z</time><name>PT16275</name></trkpt>
<trkpt lat="53.447375" lon="05.768572"><ele>3.2</ele><time>2021-02-17T16:44:10Z</time><name>PT16276</name></trkpt>
<trkpt lat="53.447370" lon="05.768581"><ele>3.1</ele><time>2021-02-17T16:44:11Z</time><name>PT16277</name></trkpt>
<trkpt lat="53.447365" lon="05.768590"><ele>3.2</ele><time>2021-02-17T16:44:12Z</time><name>PT16278</name></trkpt>
<trkpt lat="53.447359" lon="05.768608"><ele>3.1</ele><time>2021-02-17T16:44:13Z</time><name>PT16279</name></trkpt>
<trkpt lat="53.447349" lon="05.768630"><ele>3.1</ele><time>2021-02-17T16:44:14Z</time><name>PT16280</name></trkpt>
<trkpt lat="53.447339" lon="05.768655"><ele>3.2</ele><time>2021-02-17T16:44:15Z</time><name>PT16281</name></trkpt>
<trkpt lat="53.447330" lon="05.768674"><ele>3.1</ele><time>2021-02-17T16:44:16Z</time><name>PT16282</name></trkpt>
<trkpt lat="53.447323" lon="05.768682"><ele>3.2</ele><time>2021-02-17T16:44:17Z</time><name>PT16283</name></trkpt>
<trkpt lat="53.447321" lon="05.768677"><ele>3.3</ele><time>2021-02-17T16:44:18Z</time><name>PT16284</name></trkpt>
<trkpt lat="53.447322" lon="05.768675"><ele>3.2</ele><time>2021-02-17T16:44:19Z</time><name>PT16285</name></trkpt>
<trkpt lat="53.447321" lon="05.768677"><ele>3.2</ele><time>2021-02-17T16:44:20Z</time><name>PT16286</name></trkpt>
<trkpt lat="53.447319" lon="05.768684"><ele>3.2</ele><time>2021-02-17T16:44:21Z</time><name>PT16287</name></trkpt>
<trkpt lat="53.447314" lon="05.768699"><ele>3.1</ele><time>2021-02-17T16:44:22Z</time><name>PT16288</name></trkpt>
<trkpt lat="53.447308" lon="05.768717"><ele>3.1</ele><time>2021-02-17T16:44:23Z</time><name>PT16289</name></trkpt>
<trkpt lat="53.447304" lon="05.768730"><ele>3.1</ele><time>2021-02-17T16:44:24Z</time><name>PT16290</name></trkpt>
<trkpt lat="53.447302" lon="05.768740"><ele>3.2</ele><time>2021-02-17T16:44:25Z</time><name>PT16291</name></trkpt>
<trkpt lat="53.447296" lon="05.768748"><ele>3.2</ele><time>2021-02-17T16:44:26Z</time><name>PT16292</name></trkpt>
<trkpt lat="53.447288" lon="05.768755"><ele>3.2</ele><time>2021-02-17T16:44:27Z</time><name>PT16293</name></trkpt>
<trkpt lat="53.447281" lon="05.768756"><ele>3.3</ele><time>2021-02-17T16:44:28Z</time><name>PT16294</name></trkpt>
<trkpt lat="53.447273" lon="05.768750"><ele>3.2</ele><time>2021-02-17T16:44:29Z</time><name>PT16295</name></trkpt>
<trkpt lat="53.447269" lon="05.768749"><ele>3.2</ele><time>2021-02-17T16:44:30Z</time><name>PT16296</name></trkpt>
<trkpt lat="53.447265" lon="05.768749"><ele>3.2</ele><time>2021-02-17T16:44:31Z</time><name>PT16297</name></trkpt>
<trkpt lat="53.447265" lon="05.768751"><ele>3.1</ele><time>2021-02-17T16:44:32Z</time><name>PT16298</name></trkpt>
<trkpt lat="53.447267" lon="05.768754"><ele>3.2</ele><time>2021-02-17T16:44:33Z</time><name>PT16299</name></trkpt>
<trkpt lat="53.447267" lon="05.768760"><ele>3.2</ele><time>2021-02-17T16:44:34Z</time><name>PT16300</name></trkpt>
<trkpt lat="53.447265" lon="05.768768"><ele>3.2</ele><time>2021-02-17T16:44:35Z</time><name>PT16301</name></trkpt>
<trkpt lat="53.447265" lon="05.768782"><ele>3.2</ele><time>2021-02-17T16:44:36Z</time><name>PT16302</name></trkpt>
<trkpt lat="53.447259" lon="05.768803"><ele>3.2</ele><time>2021-02-17T16:44:37Z</time><name>PT16303</name></trkpt>
<trkpt lat="53.447251" lon="05.768825"><ele>3.2</ele><time>2021-02-17T16:44:38Z</time><name>PT16304</name></trkpt>
<trkpt lat="53.447247" lon="05.768845"><ele>3.2</ele><time>2021-02-17T16:44:39Z</time><name>PT16305</name></trkpt>
<trkpt lat="53.447244" lon="05.768857"><ele>3.2</ele><time>2021-02-17T16:44:40Z</time><name>PT16306</name></trkpt>
<trkpt lat="53.447242" lon="05.768868"><ele>3.2</ele><time>2021-02-17T16:44:41Z</time><name>PT16307</name></trkpt>
<trkpt lat="53.447239" lon="05.768881"><ele>3.2</ele><time>2021-02-17T16:44:42Z</time><name>PT16308</name></trkpt>
<trkpt lat="53.447236" lon="05.768894"><ele>3.2</ele><time>2021-02-17T16:44:43Z</time><name>PT16309</name></trkpt>
<trkpt lat="53.447232" lon="05.768911"><ele>3.2</ele><time>2021-02-17T16:44:44Z</time><name>PT16310</name></trkpt>
<trkpt lat="53.447227" lon="05.768930"><ele>3.3</ele><time>2021-02-17T16:44:45Z</time><name>PT16311</name></trkpt>
<trkpt lat="53.447222" lon="05.768944"><ele>3.3</ele><time>2021-02-17T16:44:46Z</time><name>PT16312</name></trkpt>
<trkpt lat="53.447216" lon="05.768956"><ele>3.4</ele><time>2021-02-17T16:44:47Z</time><name>PT16313</name></trkpt>
<trkpt lat="53.447212" lon="05.768963"><ele>3.7</ele><time>2021-02-17T16:44:48Z</time><name>PT16314</name></trkpt>
<trkpt lat="53.447206" lon="05.768973"><ele>3.6</ele><time>2021-02-17T16:44:49Z</time><name>PT16315</name></trkpt>
<trkpt lat="53.447197" lon="05.768989"><ele>3.6</ele><time>2021-02-17T16:44:50Z</time><name>PT16316</name></trkpt>
<trkpt lat="53.447191" lon="05.769006"><ele>3.4</ele><time>2021-02-17T16:44:51Z</time><name>PT16317</name></trkpt>
<trkpt lat="53.447185" lon="05.769021"><ele>3.2</ele><time>2021-02-17T16:44:52Z</time><name>PT16318</name></trkpt>
<trkpt lat="53.447182" lon="05.769031"><ele>3.2</ele><time>2021-02-17T16:44:53Z</time><name>PT16319</name></trkpt>
<trkpt lat="53.447179" lon="05.769042"><ele>3</ele><time>2021-02-17T16:44:54Z</time><name>PT16320</name></trkpt>
<trkpt lat="53.447177" lon="05.769056"><ele>2.9</ele><time>2021-02-17T16:44:55Z</time><name>PT16321</name></trkpt>
<trkpt lat="53.447171" lon="05.769075"><ele>3.1</ele><time>2021-02-17T16:44:56Z</time><name>PT16322</name></trkpt>
<trkpt lat="53.447162" lon="05.769093"><ele>2.8</ele><time>2021-02-17T16:44:57Z</time><name>PT16323</name></trkpt>
<trkpt lat="53.447158" lon="05.769107"><ele>2.8</ele><time>2021-02-17T16:44:58Z</time><name>PT16324</name></trkpt>
<trkpt lat="53.447154" lon="05.769116"><ele>2.8</ele><time>2021-02-17T16:44:59Z</time><name>PT16325</name></trkpt>
<trkpt lat="53.447148" lon="05.769122"><ele>2.8</ele><time>2021-02-17T16:45:00Z</time><name>PT16326</name></trkpt>
<trkpt lat="53.447143" lon="05.769131"><ele>2.8</ele><time>2021-02-17T16:45:01Z</time><name>PT16327</name></trkpt>
<trkpt lat="53.447136" lon="05.769148"><ele>2.9</ele><time>2021-02-17T16:45:02Z</time><name>PT16328</name></trkpt>
<trkpt lat="53.447130" lon="05.769165"><ele>3</ele><time>2021-02-17T16:45:03Z</time><name>PT16329</name></trkpt>
<trkpt lat="53.447129" lon="05.769180"><ele>2.9</ele><time>2021-02-17T16:45:04Z</time><name>PT16330</name></trkpt>
<trkpt lat="53.447126" lon="05.769194"><ele>2.9</ele><time>2021-02-17T16:45:05Z</time><name>PT16331</name></trkpt>
<trkpt lat="53.447119" lon="05.769205"><ele>2.8</ele><time>2021-02-17T16:45:06Z</time><name>PT16332</name></trkpt>
<trkpt lat="53.447110" lon="05.769217"><ele>2.8</ele><time>2021-02-17T16:45:07Z</time><name>PT16333</name></trkpt>
<trkpt lat="53.447102" lon="05.769233"><ele>2.8</ele><time>2021-02-17T16:45:08Z</time><name>PT16334</name></trkpt>
<trkpt lat="53.447095" lon="05.769247"><ele>2.9</ele><time>2021-02-17T16:45:09Z</time><name>PT16335</name></trkpt>
<trkpt lat="53.447091" lon="05.769258"><ele>3</ele><time>2021-02-17T16:45:10Z</time><name>PT16336</name></trkpt>
<trkpt lat="53.447088" lon="05.769268"><ele>3.2</ele><time>2021-02-17T16:45:11Z</time><name>PT16337</name></trkpt>
<trkpt lat="53.447078" lon="05.769280"><ele>3</ele><time>2021-02-17T16:45:12Z</time><name>PT16338</name></trkpt>
<trkpt lat="53.447068" lon="05.769297"><ele>3</ele><time>2021-02-17T16:45:13Z</time><name>PT16339</name></trkpt>
<trkpt lat="53.447062" lon="05.769315"><ele>2.8</ele><time>2021-02-17T16:45:14Z</time><name>PT16340</name></trkpt>
<trkpt lat="53.447058" lon="05.769329"><ele>2.9</ele><time>2021-02-17T16:45:15Z</time><name>PT16341</name></trkpt>
<trkpt lat="53.447053" lon="05.769341"><ele>2.9</ele><time>2021-02-17T16:45:16Z</time><name>PT16342</name></trkpt>
<trkpt lat="53.447049" lon="05.769351"><ele>3.2</ele><time>2021-02-17T16:45:17Z</time><name>PT16343</name></trkpt>
<trkpt lat="53.447045" lon="05.769365"><ele>3.2</ele><time>2021-02-17T16:45:18Z</time><name>PT16344</name></trkpt>
<trkpt lat="53.447038" lon="05.769387"><ele>3.2</ele><time>2021-02-17T16:45:19Z</time><name>PT16345</name></trkpt>
<trkpt lat="53.447033" lon="05.769404"><ele>3.2</ele><time>2021-02-17T16:45:20Z</time><name>PT16346</name></trkpt>
<trkpt lat="53.447031" lon="05.769418"><ele>3.2</ele><time>2021-02-17T16:45:21Z</time><name>PT16347</name></trkpt>
<trkpt lat="53.447028" lon="05.769427"><ele>3.2</ele><time>2021-02-17T16:45:22Z</time><name>PT16348</name></trkpt>
<trkpt lat="53.447024" lon="05.769442"><ele>3.2</ele><time>2021-02-17T16:45:23Z</time><name>PT16349</name></trkpt>
<trkpt lat="53.447022" lon="05.769455"><ele>3.4</ele><time>2021-02-17T16:45:24Z</time><name>PT16350</name></trkpt>
<trkpt lat="53.447017" lon="05.769467"><ele>3.6</ele><time>2021-02-17T16:45:25Z</time><name>PT16351</name></trkpt>
<trkpt lat="53.447012" lon="05.769476"><ele>3.7</ele><time>2021-02-17T16:45:26Z</time><name>PT16352</name></trkpt>
<trkpt lat="53.447008" lon="05.769488"><ele>3.6</ele><time>2021-02-17T16:45:27Z</time><name>PT16353</name></trkpt>
<trkpt lat="53.447003" lon="05.769499"><ele>3.6</ele><time>2021-02-17T16:45:28Z</time><name>PT16354</name></trkpt>
<trkpt lat="53.446996" lon="05.769511"><ele>3.7</ele><time>2021-02-17T16:45:29Z</time><name>PT16355</name></trkpt>
<trkpt lat="53.446984" lon="05.769521"><ele>3.7</ele><time>2021-02-17T16:45:30Z</time><name>PT16356</name></trkpt>
<trkpt lat="53.446972" lon="05.769532"><ele>3.7</ele><time>2021-02-17T16:45:31Z</time><name>PT16357</name></trkpt>
<trkpt lat="53.446962" lon="05.769543"><ele>3.7</ele><time>2021-02-17T16:45:32Z</time><name>PT16358</name></trkpt>
<trkpt lat="53.446953" lon="05.769549"><ele>3.7</ele><time>2021-02-17T16:45:33Z</time><name>PT16359</name></trkpt>
<trkpt lat="53.446949" lon="05.769561"><ele>3.7</ele><time>2021-02-17T16:45:34Z</time><name>PT16360</name></trkpt>
<trkpt lat="53.446943" lon="05.769564"><ele>3.6</ele><time>2021-02-17T16:45:35Z</time><name>PT16361</name></trkpt>
<trkpt lat="53.446936" lon="05.769565"><ele>3.7</ele><time>2021-02-17T16:45:36Z</time><name>PT16362</name></trkpt>
<trkpt lat="53.446926" lon="05.769565"><ele>3.7</ele><time>2021-02-17T16:45:37Z</time><name>PT16363</name></trkpt>
<trkpt lat="53.446913" lon="05.769566"><ele>3.5</ele><time>2021-02-17T16:45:38Z</time><name>PT16364</name></trkpt>
<trkpt lat="53.446901" lon="05.769572"><ele>3.4</ele><time>2021-02-17T16:45:39Z</time><name>PT16365</name></trkpt>
<trkpt lat="53.446890" lon="05.769579"><ele>3.4</ele><time>2021-02-17T16:45:40Z</time><name>PT16366</name></trkpt>
<trkpt lat="53.446883" lon="05.769583"><ele>3.3</ele><time>2021-02-17T16:45:41Z</time><name>PT16367</name></trkpt>
<trkpt lat="53.446877" lon="05.769585"><ele>3.3</ele><time>2021-02-17T16:45:42Z</time><name>PT16368</name></trkpt>
<trkpt lat="53.446869" lon="05.769587"><ele>3.3</ele><time>2021-02-17T16:45:43Z</time><name>PT16369</name></trkpt>
<trkpt lat="53.446858" lon="05.769589"><ele>3.2</ele><time>2021-02-17T16:45:44Z</time><name>PT16370</name></trkpt>
<trkpt lat="53.446847" lon="05.769592"><ele>3.2</ele><time>2021-02-17T16:45:45Z</time><name>PT16371</name></trkpt>
<trkpt lat="53.446840" lon="05.769594"><ele>3.2</ele><time>2021-02-17T16:45:46Z</time><name>PT16372</name></trkpt>
<trkpt lat="53.446835" lon="05.769597"><ele>3.2</ele><time>2021-02-17T16:45:47Z</time><name>PT16373</name></trkpt>
<trkpt lat="53.446829" lon="05.769600"><ele>3.2</ele><time>2021-02-17T16:45:48Z</time><name>PT16374</name></trkpt>
<trkpt lat="53.446823" lon="05.769603"><ele>3.2</ele><time>2021-02-17T16:45:49Z</time><name>PT16375</name></trkpt>
<trkpt lat="53.446819" lon="05.769600"><ele>3.6</ele><time>2021-02-17T16:45:50Z</time><name>PT16376</name></trkpt>
<trkpt lat="53.446814" lon="05.769599"><ele>3.8</ele><time>2021-02-17T16:45:51Z</time><name>PT16377</name></trkpt>
<trkpt lat="53.446812" lon="05.769601"><ele>3.8</ele><time>2021-02-17T16:45:52Z</time><name>PT16378</name></trkpt>
<trkpt lat="53.446812" lon="05.769603"><ele>3.7</ele><time>2021-02-17T16:45:53Z</time><name>PT16379</name></trkpt>
<trkpt lat="53.446812" lon="05.769605"><ele>3.6</ele><time>2021-02-17T16:45:54Z</time><name>PT16380</name></trkpt>
<trkpt lat="53.446813" lon="05.769603"><ele>3.3</ele><time>2021-02-17T16:45:56Z</time><name>PT16381</name></trkpt>
<trkpt lat="53.446810" lon="05.769598"><ele>3.3</ele><time>2021-02-17T16:45:57Z</time><name>PT16382</name></trkpt>
<trkpt lat="53.446809" lon="05.769595"><ele>3.2</ele><time>2021-02-17T16:45:58Z</time><name>PT16383</name></trkpt>
<trkpt lat="53.446809" lon="05.769599"><ele>3.2</ele><time>2021-02-17T16:45:59Z</time><name>PT16384</name></trkpt>
<trkpt lat="53.446809" lon="05.769604"><ele>3.3</ele><time>2021-02-17T16:46:03Z</time><name>PT16385</name></trkpt>
<trkpt lat="53.446801" lon="05.769602"><ele>3.2</ele><time>2021-02-17T16:46:04Z</time><name>PT16386</name></trkpt>
<trkpt lat="53.446796" lon="05.769594"><ele>3.2</ele><time>2021-02-17T16:46:05Z</time><name>PT16387</name></trkpt>
<trkpt lat="53.446792" lon="05.769589"><ele>3.2</ele><time>2021-02-17T16:46:06Z</time><name>PT16388</name></trkpt>
<trkpt lat="53.446792" lon="05.769586"><ele>3.2</ele><time>2021-02-17T16:46:07Z</time><name>PT16389</name></trkpt>
<trkpt lat="53.446790" lon="05.769591"><ele>3.3</ele><time>2021-02-17T16:46:08Z</time><name>PT16390</name></trkpt>
<trkpt lat="53.446785" lon="05.769591"><ele>3.2</ele><time>2021-02-17T16:46:09Z</time><name>PT16391</name></trkpt>
<trkpt lat="53.446781" lon="05.769588"><ele>3.2</ele><time>2021-02-17T16:46:10Z</time><name>PT16392</name></trkpt>
<trkpt lat="53.446773" lon="05.769590"><ele>3.2</ele><time>2021-02-17T16:46:11Z</time><name>PT16393</name></trkpt>
<trkpt lat="53.446764" lon="05.769601"><ele>3.4</ele><time>2021-02-17T16:46:12Z</time><name>PT16394</name></trkpt>
<trkpt lat="53.446756" lon="05.769609"><ele>3.4</ele><time>2021-02-17T16:46:13Z</time><name>PT16395</name></trkpt>
<trkpt lat="53.446748" lon="05.769619"><ele>3.5</ele><time>2021-02-17T16:46:14Z</time><name>PT16396</name></trkpt>
<trkpt lat="53.446740" lon="05.769627"><ele>3.5</ele><time>2021-02-17T16:46:15Z</time><name>PT16397</name></trkpt>
<trkpt lat="53.446731" lon="05.769630"><ele>3.5</ele><time>2021-02-17T16:46:16Z</time><name>PT16398</name></trkpt>
<trkpt lat="53.446719" lon="05.769630"><ele>3.6</ele><time>2021-02-17T16:46:17Z</time><name>PT16399</name></trkpt>
<trkpt lat="53.446705" lon="05.769633"><ele>3.7</ele><time>2021-02-17T16:46:18Z</time><name>PT16400</name></trkpt>
<trkpt lat="53.446692" lon="05.769637"><ele>3.8</ele><time>2021-02-17T16:46:19Z</time><name>PT16401</name></trkpt>
<trkpt lat="53.446682" lon="05.769643"><ele>3.8</ele><time>2021-02-17T16:46:20Z</time><name>PT16402</name></trkpt>
<trkpt lat="53.446676" lon="05.769643"><ele>3.7</ele><time>2021-02-17T16:46:21Z</time><name>PT16403</name></trkpt>
<trkpt lat="53.446668" lon="05.769646"><ele>3.9</ele><time>2021-02-17T16:46:22Z</time><name>PT16404</name></trkpt>
<trkpt lat="53.446660" lon="05.769648"><ele>3.8</ele><time>2021-02-17T16:46:23Z</time><name>PT16405</name></trkpt>
<trkpt lat="53.446649" lon="05.769654"><ele>3.8</ele><time>2021-02-17T16:46:24Z</time><name>PT16406</name></trkpt>
<trkpt lat="53.446638" lon="05.769658"><ele>3.8</ele><time>2021-02-17T16:46:25Z</time><name>PT16407</name></trkpt>
<trkpt lat="53.446630" lon="05.769663"><ele>3.6</ele><time>2021-02-17T16:46:26Z</time><name>PT16408</name></trkpt>
<trkpt lat="53.446622" lon="05.769665"><ele>3.6</ele><time>2021-02-17T16:46:27Z</time><name>PT16409</name></trkpt>
<trkpt lat="53.446613" lon="05.769667"><ele>3.6</ele><time>2021-02-17T16:46:28Z</time><name>PT16410</name></trkpt>
<trkpt lat="53.446601" lon="05.769668"><ele>3.5</ele><time>2021-02-17T16:46:29Z</time><name>PT16411</name></trkpt>
<trkpt lat="53.446588" lon="05.769669"><ele>3.6</ele><time>2021-02-17T16:46:30Z</time><name>PT16412</name></trkpt>
<trkpt lat="53.446578" lon="05.769673"><ele>3.5</ele><time>2021-02-17T16:46:31Z</time><name>PT16413</name></trkpt>
<trkpt lat="53.446572" lon="05.769678"><ele>3.6</ele><time>2021-02-17T16:46:32Z</time><name>PT16414</name></trkpt>
<trkpt lat="53.446566" lon="05.769680"><ele>3.4</ele><time>2021-02-17T16:46:33Z</time><name>PT16415</name></trkpt>
<trkpt lat="53.446559" lon="05.769683"><ele>3.3</ele><time>2021-02-17T16:46:34Z</time><name>PT16416</name></trkpt>
<trkpt lat="53.446550" lon="05.769687"><ele>3.6</ele><time>2021-02-17T16:46:35Z</time><name>PT16417</name></trkpt>
<trkpt lat="53.446539" lon="05.769689"><ele>3.7</ele><time>2021-02-17T16:46:36Z</time><name>PT16418</name></trkpt>
<trkpt lat="53.446529" lon="05.769696"><ele>3.8</ele><time>2021-02-17T16:46:37Z</time><name>PT16419</name></trkpt>
<trkpt lat="53.446523" lon="05.769695"><ele>3.7</ele><time>2021-02-17T16:46:38Z</time><name>PT16420</name></trkpt>
<trkpt lat="53.446517" lon="05.769694"><ele>3.7</ele><time>2021-02-17T16:46:39Z</time><name>PT16421</name></trkpt>
<trkpt lat="53.446510" lon="05.769694"><ele>3.7</ele><time>2021-02-17T16:46:40Z</time><name>PT16422</name></trkpt>
<trkpt lat="53.446504" lon="05.769696"><ele>3.6</ele><time>2021-02-17T16:46:41Z</time><name>PT16423</name></trkpt>
<trkpt lat="53.446498" lon="05.769695"><ele>3.7</ele><time>2021-02-17T16:46:42Z</time><name>PT16424</name></trkpt>
<trkpt lat="53.446491" lon="05.769693"><ele>3.8</ele><time>2021-02-17T16:46:43Z</time><name>PT16425</name></trkpt>
<trkpt lat="53.446483" lon="05.769693"><ele>3.7</ele><time>2021-02-17T16:46:44Z</time><name>PT16426</name></trkpt>
<trkpt lat="53.446479" lon="05.769694"><ele>3.6</ele><time>2021-02-17T16:46:45Z</time><name>PT16427</name></trkpt>
<trkpt lat="53.446475" lon="05.769696"><ele>3.5</ele><time>2021-02-17T16:46:46Z</time><name>PT16428</name></trkpt>
<trkpt lat="53.446465" lon="05.769694"><ele>3.5</ele><time>2021-02-17T16:46:47Z</time><name>PT16429</name></trkpt>
<trkpt lat="53.446460" lon="05.769696"><ele>3.5</ele><time>2021-02-17T16:46:48Z</time><name>PT16430</name></trkpt>
<trkpt lat="53.446457" lon="05.769697"><ele>3.5</ele><time>2021-02-17T16:46:49Z</time><name>PT16431</name></trkpt>
<trkpt lat="53.446452" lon="05.769695"><ele>3.5</ele><time>2021-02-17T16:46:50Z</time><name>PT16432</name></trkpt>
<trkpt lat="53.446443" lon="05.769691"><ele>3.4</ele><time>2021-02-17T16:46:51Z</time><name>PT16433</name></trkpt>
<trkpt lat="53.446430" lon="05.769690"><ele>3.4</ele><time>2021-02-17T16:46:52Z</time><name>PT16434</name></trkpt>
<trkpt lat="53.446420" lon="05.769692"><ele>3.4</ele><time>2021-02-17T16:46:53Z</time><name>PT16435</name></trkpt>
<trkpt lat="53.446413" lon="05.769690"><ele>3.5</ele><time>2021-02-17T16:46:54Z</time><name>PT16436</name></trkpt>
<trkpt lat="53.446408" lon="05.769683"><ele>3.6</ele><time>2021-02-17T16:46:55Z</time><name>PT16437</name></trkpt>
<trkpt lat="53.446405" lon="05.769671"><ele>3.7</ele><time>2021-02-17T16:46:56Z</time><name>PT16438</name></trkpt>
<trkpt lat="53.446397" lon="05.769664"><ele>3.7</ele><time>2021-02-17T16:46:57Z</time><name>PT16439</name></trkpt>
<trkpt lat="53.446390" lon="05.769663"><ele>3.7</ele><time>2021-02-17T16:46:58Z</time><name>PT16440</name></trkpt>
<trkpt lat="53.446385" lon="05.769662"><ele>3.5</ele><time>2021-02-17T16:46:59Z</time><name>PT16441</name></trkpt>
<trkpt lat="53.446378" lon="05.769659"><ele>3.7</ele><time>2021-02-17T16:47:00Z</time><name>PT16442</name></trkpt>
<trkpt lat="53.446371" lon="05.769658"><ele>3.8</ele><time>2021-02-17T16:47:01Z</time><name>PT16443</name></trkpt>
<trkpt lat="53.446363" lon="05.769655"><ele>4</ele><time>2021-02-17T16:47:02Z</time><name>PT16444</name></trkpt>
<trkpt lat="53.446362" lon="05.769647"><ele>4</ele><time>2021-02-17T16:47:03Z</time><name>PT16445</name></trkpt>
<trkpt lat="53.446360" lon="05.769647"><ele>4</ele><time>2021-02-17T16:47:04Z</time><name>PT16446</name></trkpt>
<trkpt lat="53.446363" lon="05.769647"><ele>4</ele><time>2021-02-17T16:47:05Z</time><name>PT16447</name></trkpt>
<trkpt lat="53.446362" lon="05.769649"><ele>3.9</ele><time>2021-02-17T16:47:06Z</time><name>PT16448</name></trkpt>
<trkpt lat="53.446360" lon="05.769648"><ele>4.1</ele><time>2021-02-17T16:47:07Z</time><name>PT16449</name></trkpt>
<trkpt lat="53.446362" lon="05.769643"><ele>4</ele><time>2021-02-17T16:47:09Z</time><name>PT16450</name></trkpt>
<trkpt lat="53.446362" lon="05.769636"><ele>4</ele><time>2021-02-17T16:47:10Z</time><name>PT16451</name></trkpt>
<trkpt lat="53.446365" lon="05.769629"><ele>3.7</ele><time>2021-02-17T16:47:11Z</time><name>PT16452</name></trkpt>
<trkpt lat="53.446363" lon="05.769630"><ele>3.7</ele><time>2021-02-17T16:47:12Z</time><name>PT16453</name></trkpt>
<trkpt lat="53.446361" lon="05.769631"><ele>3.6</ele><time>2021-02-17T16:47:13Z</time><name>PT16454</name></trkpt>
<trkpt lat="53.446360" lon="05.769632"><ele>3.7</ele><time>2021-02-17T16:47:14Z</time><name>PT16455</name></trkpt>
<trkpt lat="53.446360" lon="05.769634"><ele>3.7</ele><time>2021-02-17T16:47:15Z</time><name>PT16456</name></trkpt>
<trkpt lat="53.446361" lon="05.769633"><ele>4</ele><time>2021-02-17T16:47:16Z</time><name>PT16457</name></trkpt>
<trkpt lat="53.446360" lon="05.769634"><ele>4</ele><time>2021-02-17T16:47:17Z</time><name>PT16458</name></trkpt>
<trkpt lat="53.446358" lon="05.769632"><ele>4</ele><time>2021-02-17T16:47:18Z</time><name>PT16459</name></trkpt>
<trkpt lat="53.446358" lon="05.769633"><ele>3.9</ele><time>2021-02-17T16:47:21Z</time><name>PT16460</name></trkpt>
<trkpt lat="53.446358" lon="05.769628"><ele>3.8</ele><time>2021-02-17T16:47:22Z</time><name>PT16461</name></trkpt>
<trkpt lat="53.446360" lon="05.769625"><ele>3.8</ele><time>2021-02-17T16:47:23Z</time><name>PT16462</name></trkpt>
<trkpt lat="53.446360" lon="05.769624"><ele>3.7</ele><time>2021-02-17T16:47:24Z</time><name>PT16463</name></trkpt>
<trkpt lat="53.446365" lon="05.769621"><ele>3.7</ele><time>2021-02-17T16:47:25Z</time><name>PT16464</name></trkpt>
<trkpt lat="53.446367" lon="05.769619"><ele>3.7</ele><time>2021-02-17T16:47:26Z</time><name>PT16465</name></trkpt>
<trkpt lat="53.446369" lon="05.769614"><ele>3.7</ele><time>2021-02-17T16:47:27Z</time><name>PT16466</name></trkpt>
<trkpt lat="53.446369" lon="05.769612"><ele>3.7</ele><time>2021-02-17T16:47:28Z</time><name>PT16467</name></trkpt>
<trkpt lat="53.446369" lon="05.769611"><ele>3.7</ele><time>2021-02-17T16:47:29Z</time><name>PT16468</name></trkpt>
<trkpt lat="53.446369" lon="05.769611"><ele>3.7</ele><time>2021-02-17T16:47:30Z</time><name>PT16469</name></trkpt>
<trkpt lat="53.446369" lon="05.769610"><ele>4</ele><time>2021-02-17T16:47:44Z</time><name>PT16470</name></trkpt>
<trkpt lat="53.446368" lon="05.769610"><ele>4</ele><time>2021-02-17T16:47:45Z</time><name>PT16471</name></trkpt>
<trkpt lat="53.446369" lon="05.769610"><ele>3.8</ele><time>2021-02-17T16:47:48Z</time><name>PT16472</name></trkpt>
<trkpt lat="53.446371" lon="05.769614"><ele>3.8</ele><time>2021-02-17T16:47:49Z</time><name>PT16473</name></trkpt>
<trkpt lat="53.446372" lon="05.769615"><ele>3.8</ele><time>2021-02-17T16:47:50Z</time><name>PT16474</name></trkpt>
<trkpt lat="53.446374" lon="05.769608"><ele>3.8</ele><time>2021-02-17T16:47:51Z</time><name>PT16475</name></trkpt>
<trkpt lat="53.446375" lon="05.769601"><ele>3.9</ele><time>2021-02-17T16:47:52Z</time><name>PT16476</name></trkpt>
<trkpt lat="53.446375" lon="05.769595"><ele>3.7</ele><time>2021-02-17T16:47:53Z</time><name>PT16477</name></trkpt>
<trkpt lat="53.446374" lon="05.769590"><ele>3.6</ele><time>2021-02-17T16:47:54Z</time><name>PT16478</name></trkpt>
<trkpt lat="53.446374" lon="05.769597"><ele>4.1</ele><time>2021-02-17T16:48:00Z</time><name>PT16479</name></trkpt>
<trkpt lat="53.446374" lon="05.769601"><ele>4.1</ele><time>2021-02-17T16:48:01Z</time><name>PT16480</name></trkpt>
<trkpt lat="53.446375" lon="05.769612"><ele>3.9</ele><time>2021-02-17T16:48:02Z</time><name>PT16481</name></trkpt>
<trkpt lat="53.446375" lon="05.769614"><ele>3.9</ele><time>2021-02-17T16:48:03Z</time><name>PT16482</name></trkpt>
<trkpt lat="53.446377" lon="05.769614"><ele>3.9</ele><time>2021-02-17T16:48:05Z</time><name>PT16483</name></trkpt>
<trkpt lat="53.446374" lon="05.769620"><ele>3.9</ele><time>2021-02-17T16:48:06Z</time><name>PT16484</name></trkpt>
<trkpt lat="53.446372" lon="05.769623"><ele>3.8</ele><time>2021-02-17T16:48:07Z</time><name>PT16485</name></trkpt>
<trkpt lat="53.446366" lon="05.769626"><ele>3.8</ele><time>2021-02-17T16:48:08Z</time><name>PT16486</name></trkpt>
<trkpt lat="53.446361" lon="05.769634"><ele>4</ele><time>2021-02-17T16:48:09Z</time><name>PT16487</name></trkpt>
<trkpt lat="53.446355" lon="05.769642"><ele>4</ele><time>2021-02-17T16:48:10Z</time><name>PT16488</name></trkpt>
<trkpt lat="53.446345" lon="05.769652"><ele>3.7</ele><time>2021-02-17T16:48:11Z</time><name>PT16489</name></trkpt>
<trkpt lat="53.446334" lon="05.769657"><ele>3.6</ele><time>2021-02-17T16:48:12Z</time><name>PT16490</name></trkpt>
<trkpt lat="53.446326" lon="05.769667"><ele>3.5</ele><time>2021-02-17T16:48:13Z</time><name>PT16491</name></trkpt>
<trkpt lat="53.446320" lon="05.769675"><ele>3.2</ele><time>2021-02-17T16:48:14Z</time><name>PT16492</name></trkpt>
<trkpt lat="53.446311" lon="05.769683"><ele>3.2</ele><time>2021-02-17T16:48:15Z</time><name>PT16493</name></trkpt>
<trkpt lat="53.446302" lon="05.769693"><ele>3.3</ele><time>2021-02-17T16:48:16Z</time><name>PT16494</name></trkpt>
<trkpt lat="53.446294" lon="05.769704"><ele>3.4</ele><time>2021-02-17T16:48:17Z</time><name>PT16495</name></trkpt>
<trkpt lat="53.446285" lon="05.769715"><ele>3.6</ele><time>2021-02-17T16:48:18Z</time><name>PT16496</name></trkpt>
<trkpt lat="53.446279" lon="05.769722"><ele>3.7</ele><time>2021-02-17T16:48:19Z</time><name>PT16497</name></trkpt>
<trkpt lat="53.446278" lon="05.769727"><ele>3.9</ele><time>2021-02-17T16:48:20Z</time><name>PT16498</name></trkpt>
<trkpt lat="53.446277" lon="05.769728"><ele>3.8</ele><time>2021-02-17T16:48:21Z</time><name>PT16499</name></trkpt>
<trkpt lat="53.446275" lon="05.769727"><ele>3.8</ele><time>2021-02-17T16:48:22Z</time><name>PT16500</name></trkpt>
<trkpt lat="53.446271" lon="05.769734"><ele>3.9</ele><time>2021-02-17T16:48:41Z</time><name>PT16501</name></trkpt>
<trkpt lat="53.446269" lon="05.769737"><ele>4</ele><time>2021-02-17T16:48:42Z</time><name>PT16502</name></trkpt>
<trkpt lat="53.446266" lon="05.769739"><ele>4</ele><time>2021-02-17T16:48:43Z</time><name>PT16503</name></trkpt>
<trkpt lat="53.446265" lon="05.769743"><ele>4</ele><time>2021-02-17T16:48:44Z</time><name>PT16504</name></trkpt>
<trkpt lat="53.446263" lon="05.769750"><ele>4.2</ele><time>2021-02-17T16:48:45Z</time><name>PT16505</name></trkpt>
<trkpt lat="53.446258" lon="05.769762"><ele>3.9</ele><time>2021-02-17T16:48:46Z</time><name>PT16506</name></trkpt>
<trkpt lat="53.446251" lon="05.769772"><ele>3.9</ele><time>2021-02-17T16:48:47Z</time><name>PT16507</name></trkpt>
<trkpt lat="53.446246" lon="05.769784"><ele>3.9</ele><time>2021-02-17T16:48:48Z</time><name>PT16508</name></trkpt>
<trkpt lat="53.446239" lon="05.769796"><ele>3.9</ele><time>2021-02-17T16:48:49Z</time><name>PT16509</name></trkpt>
<trkpt lat="53.446233" lon="05.769807"><ele>4.1</ele><time>2021-02-17T16:48:50Z</time><name>PT16510</name></trkpt>
<trkpt lat="53.446224" lon="05.769815"><ele>4</ele><time>2021-02-17T16:48:51Z</time><name>PT16511</name></trkpt>
<trkpt lat="53.446216" lon="05.769825"><ele>4.2</ele><time>2021-02-17T16:48:52Z</time><name>PT16512</name></trkpt>
<trkpt lat="53.446208" lon="05.769838"><ele>4.3</ele><time>2021-02-17T16:48:53Z</time><name>PT16513</name></trkpt>
<trkpt lat="53.446200" lon="05.769851"><ele>4.2</ele><time>2021-02-17T16:48:54Z</time><name>PT16514</name></trkpt>
<trkpt lat="53.446192" lon="05.769865"><ele>4.1</ele><time>2021-02-17T16:48:55Z</time><name>PT16515</name></trkpt>
<trkpt lat="53.446183" lon="05.769877"><ele>4.2</ele><time>2021-02-17T16:48:56Z</time><name>PT16516</name></trkpt>
<trkpt lat="53.446174" lon="05.769887"><ele>3.9</ele><time>2021-02-17T16:48:57Z</time><name>PT16517</name></trkpt>
<trkpt lat="53.446166" lon="05.769899"><ele>3.7</ele><time>2021-02-17T16:48:58Z</time><name>PT16518</name></trkpt>
<trkpt lat="53.446159" lon="05.769912"><ele>3.7</ele><time>2021-02-17T16:48:59Z</time><name>PT16519</name></trkpt>
<trkpt lat="53.446151" lon="05.769923"><ele>4</ele><time>2021-02-17T16:49:00Z</time><name>PT16520</name></trkpt>
<trkpt lat="53.446144" lon="05.769933"><ele>3.9</ele><time>2021-02-17T16:49:01Z</time><name>PT16521</name></trkpt>
<trkpt lat="53.446135" lon="05.769943"><ele>4</ele><time>2021-02-17T16:49:02Z</time><name>PT16522</name></trkpt>
<trkpt lat="53.446127" lon="05.769952"><ele>3.9</ele><time>2021-02-17T16:49:03Z</time><name>PT16523</name></trkpt>
<trkpt lat="53.446119" lon="05.769960"><ele>3.8</ele><time>2021-02-17T16:49:04Z</time><name>PT16524</name></trkpt>
<trkpt lat="53.446109" lon="05.769967"><ele>3.6</ele><time>2021-02-17T16:49:05Z</time><name>PT16525</name></trkpt>
<trkpt lat="53.446101" lon="05.769974"><ele>3.6</ele><time>2021-02-17T16:49:06Z</time><name>PT16526</name></trkpt>
<trkpt lat="53.446094" lon="05.769984"><ele>3.5</ele><time>2021-02-17T16:49:07Z</time><name>PT16527</name></trkpt>
<trkpt lat="53.446088" lon="05.769995"><ele>3.2</ele><time>2021-02-17T16:49:08Z</time><name>PT16528</name></trkpt>
<trkpt lat="53.446082" lon="05.770005"><ele>3.2</ele><time>2021-02-17T16:49:09Z</time><name>PT16529</name></trkpt>
<trkpt lat="53.446075" lon="05.770012"><ele>3.4</ele><time>2021-02-17T16:49:10Z</time><name>PT16530</name></trkpt>
<trkpt lat="53.446069" lon="05.770019"><ele>3.6</ele><time>2021-02-17T16:49:11Z</time><name>PT16531</name></trkpt>
<trkpt lat="53.446061" lon="05.770026"><ele>3.7</ele><time>2021-02-17T16:49:12Z</time><name>PT16532</name></trkpt>
<trkpt lat="53.446056" lon="05.770034"><ele>3.7</ele><time>2021-02-17T16:49:13Z</time><name>PT16533</name></trkpt>
<trkpt lat="53.446050" lon="05.770043"><ele>3.7</ele><time>2021-02-17T16:49:14Z</time><name>PT16534</name></trkpt>
<trkpt lat="53.446042" lon="05.770052"><ele>3.7</ele><time>2021-02-17T16:49:15Z</time><name>PT16535</name></trkpt>
<trkpt lat="53.446033" lon="05.770063"><ele>3.6</ele><time>2021-02-17T16:49:16Z</time><name>PT16536</name></trkpt>
<trkpt lat="53.446023" lon="05.770071"><ele>3.7</ele><time>2021-02-17T16:49:17Z</time><name>PT16537</name></trkpt>
<trkpt lat="53.446014" lon="05.770081"><ele>3.7</ele><time>2021-02-17T16:49:18Z</time><name>PT16538</name></trkpt>
<trkpt lat="53.446006" lon="05.770089"><ele>3.8</ele><time>2021-02-17T16:49:19Z</time><name>PT16539</name></trkpt>
<trkpt lat="53.446000" lon="05.770099"><ele>3.8</ele><time>2021-02-17T16:49:20Z</time><name>PT16540</name></trkpt>
<trkpt lat="53.445996" lon="05.770111"><ele>3.8</ele><time>2021-02-17T16:49:21Z</time><name>PT16541</name></trkpt>
<trkpt lat="53.445992" lon="05.770123"><ele>3.7</ele><time>2021-02-17T16:49:22Z</time><name>PT16542</name></trkpt>
<trkpt lat="53.445988" lon="05.770137"><ele>3.4</ele><time>2021-02-17T16:49:23Z</time><name>PT16543</name></trkpt>
<trkpt lat="53.445981" lon="05.770148"><ele>3.5</ele><time>2021-02-17T16:49:24Z</time><name>PT16544</name></trkpt>
<trkpt lat="53.445971" lon="05.770158"><ele>3.6</ele><time>2021-02-17T16:49:25Z</time><name>PT16545</name></trkpt>
<trkpt lat="53.445966" lon="05.770174"><ele>3.7</ele><time>2021-02-17T16:49:26Z</time><name>PT16546</name></trkpt>
<trkpt lat="53.445959" lon="05.770185"><ele>3.7</ele><time>2021-02-17T16:49:27Z</time><name>PT16547</name></trkpt>
<trkpt lat="53.445951" lon="05.770198"><ele>3.7</ele><time>2021-02-17T16:49:28Z</time><name>PT16548</name></trkpt>
<trkpt lat="53.445943" lon="05.770208"><ele>3.4</ele><time>2021-02-17T16:49:29Z</time><name>PT16549</name></trkpt>
<trkpt lat="53.445934" lon="05.770221"><ele>3.3</ele><time>2021-02-17T16:49:30Z</time><name>PT16550</name></trkpt>
<trkpt lat="53.445922" lon="05.770237"><ele>3.2</ele><time>2021-02-17T16:49:31Z</time><name>PT16551</name></trkpt>
<trkpt lat="53.445913" lon="05.770249"><ele>3.1</ele><time>2021-02-17T16:49:32Z</time><name>PT16552</name></trkpt>
<trkpt lat="53.445905" lon="05.770257"><ele>3.2</ele><time>2021-02-17T16:49:33Z</time><name>PT16553</name></trkpt>
<trkpt lat="53.445897" lon="05.770266"><ele>3.3</ele><time>2021-02-17T16:49:34Z</time><name>PT16554</name></trkpt>
<trkpt lat="53.445886" lon="05.770276"><ele>3.3</ele><time>2021-02-17T16:49:35Z</time><name>PT16555</name></trkpt>
<trkpt lat="53.445876" lon="05.770286"><ele>3.3</ele><time>2021-02-17T16:49:36Z</time><name>PT16556</name></trkpt>
<trkpt lat="53.445867" lon="05.770299"><ele>3.2</ele><time>2021-02-17T16:49:37Z</time><name>PT16557</name></trkpt>
<trkpt lat="53.445859" lon="05.770311"><ele>3.2</ele><time>2021-02-17T16:49:38Z</time><name>PT16558</name></trkpt>
<trkpt lat="53.445850" lon="05.770320"><ele>3</ele><time>2021-02-17T16:49:39Z</time><name>PT16559</name></trkpt>
<trkpt lat="53.445846" lon="05.770329"><ele>3.2</ele><time>2021-02-17T16:49:40Z</time><name>PT16560</name></trkpt>
<trkpt lat="53.445841" lon="05.770339"><ele>3.2</ele><time>2021-02-17T16:49:41Z</time><name>PT16561</name></trkpt>
<trkpt lat="53.445833" lon="05.770348"><ele>3.2</ele><time>2021-02-17T16:49:42Z</time><name>PT16562</name></trkpt>
<trkpt lat="53.445825" lon="05.770358"><ele>3.5</ele><time>2021-02-17T16:49:43Z</time><name>PT16563</name></trkpt>
<trkpt lat="53.445817" lon="05.770368"><ele>3.7</ele><time>2021-02-17T16:49:44Z</time><name>PT16564</name></trkpt>
<trkpt lat="53.445810" lon="05.770379"><ele>3.7</ele><time>2021-02-17T16:49:45Z</time><name>PT16565</name></trkpt>
<trkpt lat="53.445803" lon="05.770391"><ele>3.7</ele><time>2021-02-17T16:49:46Z</time><name>PT16566</name></trkpt>
<trkpt lat="53.445796" lon="05.770401"><ele>3.5</ele><time>2021-02-17T16:49:47Z</time><name>PT16567</name></trkpt>
<trkpt lat="53.445789" lon="05.770410"><ele>3.4</ele><time>2021-02-17T16:49:48Z</time><name>PT16568</name></trkpt>
<trkpt lat="53.445782" lon="05.770419"><ele>3.2</ele><time>2021-02-17T16:49:49Z</time><name>PT16569</name></trkpt>
<trkpt lat="53.445775" lon="05.770426"><ele>3.2</ele><time>2021-02-17T16:49:50Z</time><name>PT16570</name></trkpt>
<trkpt lat="53.445768" lon="05.770435"><ele>3.3</ele><time>2021-02-17T16:49:51Z</time><name>PT16571</name></trkpt>
<trkpt lat="53.445759" lon="05.770446"><ele>3.3</ele><time>2021-02-17T16:49:52Z</time><name>PT16572</name></trkpt>
<trkpt lat="53.445749" lon="05.770460"><ele>3.4</ele><time>2021-02-17T16:49:53Z</time><name>PT16573</name></trkpt>
<trkpt lat="53.445741" lon="05.770473"><ele>3.3</ele><time>2021-02-17T16:49:54Z</time><name>PT16574</name></trkpt>
<trkpt lat="53.445735" lon="05.770486"><ele>3.4</ele><time>2021-02-17T16:49:55Z</time><name>PT16575</name></trkpt>
<trkpt lat="53.445727" lon="05.770496"><ele>3.2</ele><time>2021-02-17T16:49:56Z</time><name>PT16576</name></trkpt>
<trkpt lat="53.445718" lon="05.770505"><ele>3.2</ele><time>2021-02-17T16:49:57Z</time><name>PT16577</name></trkpt>
<trkpt lat="53.445709" lon="05.770512"><ele>3.3</ele><time>2021-02-17T16:49:58Z</time><name>PT16578</name></trkpt>
<trkpt lat="53.445701" lon="05.770523"><ele>3.2</ele><time>2021-02-17T16:49:59Z</time><name>PT16579</name></trkpt>
<trkpt lat="53.445691" lon="05.770538"><ele>3.2</ele><time>2021-02-17T16:50:00Z</time><name>PT16580</name></trkpt>
<trkpt lat="53.445688" lon="05.770552"><ele>3.2</ele><time>2021-02-17T16:50:01Z</time><name>PT16581</name></trkpt>
<trkpt lat="53.445682" lon="05.770567"><ele>3.3</ele><time>2021-02-17T16:50:02Z</time><name>PT16582</name></trkpt>
<trkpt lat="53.445674" lon="05.770580"><ele>3.3</ele><time>2021-02-17T16:50:03Z</time><name>PT16583</name></trkpt>
<trkpt lat="53.445664" lon="05.770592"><ele>3.2</ele><time>2021-02-17T16:50:04Z</time><name>PT16584</name></trkpt>
<trkpt lat="53.445655" lon="05.770605"><ele>3.4</ele><time>2021-02-17T16:50:05Z</time><name>PT16585</name></trkpt>
<trkpt lat="53.445647" lon="05.770623"><ele>3.4</ele><time>2021-02-17T16:50:06Z</time><name>PT16586</name></trkpt>
<trkpt lat="53.445637" lon="05.770636"><ele>3.2</ele><time>2021-02-17T16:50:07Z</time><name>PT16587</name></trkpt>
<trkpt lat="53.445629" lon="05.770649"><ele>3.2</ele><time>2021-02-17T16:50:08Z</time><name>PT16588</name></trkpt>
<trkpt lat="53.445622" lon="05.770662"><ele>3.2</ele><time>2021-02-17T16:50:09Z</time><name>PT16589</name></trkpt>
<trkpt lat="53.445616" lon="05.770673"><ele>3.2</ele><time>2021-02-17T16:50:10Z</time><name>PT16590</name></trkpt>
<trkpt lat="53.445611" lon="05.770684"><ele>3.2</ele><time>2021-02-17T16:50:11Z</time><name>PT16591</name></trkpt>
<trkpt lat="53.445603" lon="05.770697"><ele>3.2</ele><time>2021-02-17T16:50:12Z</time><name>PT16592</name></trkpt>
<trkpt lat="53.445594" lon="05.770709"><ele>3.2</ele><time>2021-02-17T16:50:13Z</time><name>PT16593</name></trkpt>
<trkpt lat="53.445586" lon="05.770721"><ele>2.9</ele><time>2021-02-17T16:50:14Z</time><name>PT16594</name></trkpt>
<trkpt lat="53.445579" lon="05.770732"><ele>2.9</ele><time>2021-02-17T16:50:15Z</time><name>PT16595</name></trkpt>
<trkpt lat="53.445572" lon="05.770743"><ele>2.8</ele><time>2021-02-17T16:50:16Z</time><name>PT16596</name></trkpt>
<trkpt lat="53.445570" lon="05.770752"><ele>2.8</ele><time>2021-02-17T16:50:17Z</time><name>PT16597</name></trkpt>
<trkpt lat="53.445565" lon="05.770759"><ele>3</ele><time>2021-02-17T16:50:18Z</time><name>PT16598</name></trkpt>
<trkpt lat="53.445557" lon="05.770766"><ele>3</ele><time>2021-02-17T16:50:19Z</time><name>PT16599</name></trkpt>
<trkpt lat="53.445547" lon="05.770777"><ele>3.3</ele><time>2021-02-17T16:50:20Z</time><name>PT16600</name></trkpt>
<trkpt lat="53.445535" lon="05.770787"><ele>3.2</ele><time>2021-02-17T16:50:21Z</time><name>PT16601</name></trkpt>
<trkpt lat="53.445527" lon="05.770803"><ele>3.2</ele><time>2021-02-17T16:50:22Z</time><name>PT16602</name></trkpt>
<trkpt lat="53.445520" lon="05.770818"><ele>3.1</ele><time>2021-02-17T16:50:23Z</time><name>PT16603</name></trkpt>
<trkpt lat="53.445515" lon="05.770828"><ele>2.9</ele><time>2021-02-17T16:50:24Z</time><name>PT16604</name></trkpt>
<trkpt lat="53.445511" lon="05.770832"><ele>2.8</ele><time>2021-02-17T16:50:25Z</time><name>PT16605</name></trkpt>
<trkpt lat="53.445503" lon="05.770842"><ele>2.9</ele><time>2021-02-17T16:50:26Z</time><name>PT16606</name></trkpt>
<trkpt lat="53.445494" lon="05.770856"><ele>3</ele><time>2021-02-17T16:50:27Z</time><name>PT16607</name></trkpt>
<trkpt lat="53.445483" lon="05.770872"><ele>3</ele><time>2021-02-17T16:50:28Z</time><name>PT16608</name></trkpt>
<trkpt lat="53.445472" lon="05.770887"><ele>3.2</ele><time>2021-02-17T16:50:29Z</time><name>PT16609</name></trkpt>
<trkpt lat="53.445463" lon="05.770901"><ele>3.2</ele><time>2021-02-17T16:50:30Z</time><name>PT16610</name></trkpt>
<trkpt lat="53.445455" lon="05.770914"><ele>3.2</ele><time>2021-02-17T16:50:31Z</time><name>PT16611</name></trkpt>
<trkpt lat="53.445450" lon="05.770922"><ele>3.1</ele><time>2021-02-17T16:50:32Z</time><name>PT16612</name></trkpt>
<trkpt lat="53.445444" lon="05.770933"><ele>3</ele><time>2021-02-17T16:50:33Z</time><name>PT16613</name></trkpt>
<trkpt lat="53.445436" lon="05.770940"><ele>2.8</ele><time>2021-02-17T16:50:34Z</time><name>PT16614</name></trkpt>
<trkpt lat="53.445427" lon="05.770950"><ele>2.8</ele><time>2021-02-17T16:50:35Z</time><name>PT16615</name></trkpt>
<trkpt lat="53.445417" lon="05.770966"><ele>2.8</ele><time>2021-02-17T16:50:36Z</time><name>PT16616</name></trkpt>
<trkpt lat="53.445407" lon="05.770979"><ele>2.8</ele><time>2021-02-17T16:50:37Z</time><name>PT16617</name></trkpt>
<trkpt lat="53.445402" lon="05.770992"><ele>2.8</ele><time>2021-02-17T16:50:38Z</time><name>PT16618</name></trkpt>
<trkpt lat="53.445394" lon="05.771003"><ele>2.8</ele><time>2021-02-17T16:50:39Z</time><name>PT16619</name></trkpt>
<trkpt lat="53.445388" lon="05.771012"><ele>2.6</ele><time>2021-02-17T16:50:40Z</time><name>PT16620</name></trkpt>
<trkpt lat="53.445382" lon="05.771020"><ele>2.4</ele><time>2021-02-17T16:50:41Z</time><name>PT16621</name></trkpt>
<trkpt lat="53.445375" lon="05.771028"><ele>2.5</ele><time>2021-02-17T16:50:42Z</time><name>PT16622</name></trkpt>
<trkpt lat="53.445365" lon="05.771040"><ele>2.4</ele><time>2021-02-17T16:50:43Z</time><name>PT16623</name></trkpt>
<trkpt lat="53.445355" lon="05.771052"><ele>2.3</ele><time>2021-02-17T16:50:44Z</time><name>PT16624</name></trkpt>
<trkpt lat="53.445346" lon="05.771061"><ele>2.4</ele><time>2021-02-17T16:50:45Z</time><name>PT16625</name></trkpt>
<trkpt lat="53.445340" lon="05.771068"><ele>2.5</ele><time>2021-02-17T16:50:46Z</time><name>PT16626</name></trkpt>
<trkpt lat="53.445333" lon="05.771076"><ele>2.6</ele><time>2021-02-17T16:50:47Z</time><name>PT16627</name></trkpt>
<trkpt lat="53.445325" lon="05.771090"><ele>2.6</ele><time>2021-02-17T16:50:48Z</time><name>PT16628</name></trkpt>
<trkpt lat="53.445316" lon="05.771101"><ele>2.6</ele><time>2021-02-17T16:50:49Z</time><name>PT16629</name></trkpt>
<trkpt lat="53.445304" lon="05.771112"><ele>2.7</ele><time>2021-02-17T16:50:50Z</time><name>PT16630</name></trkpt>
<trkpt lat="53.445293" lon="05.771129"><ele>2.6</ele><time>2021-02-17T16:50:51Z</time><name>PT16631</name></trkpt>
<trkpt lat="53.445289" lon="05.771141"><ele>2.6</ele><time>2021-02-17T16:50:52Z</time><name>PT16632</name></trkpt>
<trkpt lat="53.445287" lon="05.771144"><ele>2.4</ele><time>2021-02-17T16:50:53Z</time><name>PT16633</name></trkpt>
<trkpt lat="53.445284" lon="05.771136"><ele>2.3</ele><time>2021-02-17T16:50:54Z</time><name>PT16634</name></trkpt>
<trkpt lat="53.445280" lon="05.771122"><ele>2.3</ele><time>2021-02-17T16:50:55Z</time><name>PT16635</name></trkpt>
<trkpt lat="53.445281" lon="05.771119"><ele>2.3</ele><time>2021-02-17T16:50:56Z</time><name>PT16636</name></trkpt>
<trkpt lat="53.445281" lon="05.771119"><ele>2.4</ele><time>2021-02-17T16:50:57Z</time><name>PT16637</name></trkpt>
<trkpt lat="53.445276" lon="05.771124"><ele>2.5</ele><time>2021-02-17T16:50:58Z</time><name>PT16638</name></trkpt>
<trkpt lat="53.445274" lon="05.771124"><ele>2.4</ele><time>2021-02-17T16:50:59Z</time><name>PT16639</name></trkpt>
<trkpt lat="53.445273" lon="05.771124"><ele>2.3</ele><time>2021-02-17T16:51:00Z</time><name>PT16640</name></trkpt>
<trkpt lat="53.445274" lon="05.771125"><ele>2.4</ele><time>2021-02-17T16:51:01Z</time><name>PT16641</name></trkpt>
<trkpt lat="53.445274" lon="05.771129"><ele>2.5</ele><time>2021-02-17T16:51:02Z</time><name>PT16642</name></trkpt>
<trkpt lat="53.445274" lon="05.771132"><ele>2.4</ele><time>2021-02-17T16:51:03Z</time><name>PT16643</name></trkpt>
<trkpt lat="53.445274" lon="05.771132"><ele>2.7</ele><time>2021-02-17T16:51:04Z</time><name>PT16644</name></trkpt>
<trkpt lat="53.445272" lon="05.771142"><ele>2.4</ele><time>2021-02-17T16:51:08Z</time><name>PT16645</name></trkpt>
<trkpt lat="53.445265" lon="05.771151"><ele>2.5</ele><time>2021-02-17T16:51:09Z</time><name>PT16646</name></trkpt>
<trkpt lat="53.445255" lon="05.771157"><ele>2.3</ele><time>2021-02-17T16:51:10Z</time><name>PT16647</name></trkpt>
<trkpt lat="53.445244" lon="05.771161"><ele>2.4</ele><time>2021-02-17T16:51:11Z</time><name>PT16648</name></trkpt>
<trkpt lat="53.445241" lon="05.771168"><ele>2.7</ele><time>2021-02-17T16:51:12Z</time><name>PT16649</name></trkpt>
<trkpt lat="53.445232" lon="05.771175"><ele>2.5</ele><time>2021-02-17T16:51:13Z</time><name>PT16650</name></trkpt>
<trkpt lat="53.445226" lon="05.771185"><ele>2.7</ele><time>2021-02-17T16:51:14Z</time><name>PT16651</name></trkpt>
<trkpt lat="53.445219" lon="05.771194"><ele>2.7</ele><time>2021-02-17T16:51:15Z</time><name>PT16652</name></trkpt>
<trkpt lat="53.445213" lon="05.771205"><ele>2.7</ele><time>2021-02-17T16:51:16Z</time><name>PT16653</name></trkpt>
<trkpt lat="53.445203" lon="05.771214"><ele>2.8</ele><time>2021-02-17T16:51:17Z</time><name>PT16654</name></trkpt>
<trkpt lat="53.445194" lon="05.771221"><ele>2.8</ele><time>2021-02-17T16:51:18Z</time><name>PT16655</name></trkpt>
<trkpt lat="53.445184" lon="05.771231"><ele>2.9</ele><time>2021-02-17T16:51:19Z</time><name>PT16656</name></trkpt>
<trkpt lat="53.445172" lon="05.771243"><ele>2.9</ele><time>2021-02-17T16:51:20Z</time><name>PT16657</name></trkpt>
<trkpt lat="53.445159" lon="05.771249"><ele>2.9</ele><time>2021-02-17T16:51:21Z</time><name>PT16658</name></trkpt>
<trkpt lat="53.445155" lon="05.771257"><ele>2.9</ele><time>2021-02-17T16:51:22Z</time><name>PT16659</name></trkpt>
<trkpt lat="53.445147" lon="05.771256"><ele>2.8</ele><time>2021-02-17T16:51:23Z</time><name>PT16660</name></trkpt>
<trkpt lat="53.445144" lon="05.771265"><ele>2.8</ele><time>2021-02-17T16:51:24Z</time><name>PT16661</name></trkpt>
<trkpt lat="53.445138" lon="05.771276"><ele>2.8</ele><time>2021-02-17T16:51:25Z</time><name>PT16662</name></trkpt>
<trkpt lat="53.445134" lon="05.771281"><ele>2.6</ele><time>2021-02-17T16:51:26Z</time><name>PT16663</name></trkpt>
<trkpt lat="53.445128" lon="05.771287"><ele>2.7</ele><time>2021-02-17T16:51:27Z</time><name>PT16664</name></trkpt>
<trkpt lat="53.445124" lon="05.771290"><ele>2.8</ele><time>2021-02-17T16:51:28Z</time><name>PT16665</name></trkpt>
<trkpt lat="53.445121" lon="05.771298"><ele>2.7</ele><time>2021-02-17T16:51:29Z</time><name>PT16666</name></trkpt>
<trkpt lat="53.445116" lon="05.771303"><ele>2.7</ele><time>2021-02-17T16:51:30Z</time><name>PT16667</name></trkpt>
<trkpt lat="53.445113" lon="05.771301"><ele>2.7</ele><time>2021-02-17T16:51:31Z</time><name>PT16668</name></trkpt>
<trkpt lat="53.445114" lon="05.771294"><ele>2.6</ele><time>2021-02-17T16:51:32Z</time><name>PT16669</name></trkpt>
<trkpt lat="53.445115" lon="05.771296"><ele>2.8</ele><time>2021-02-17T16:51:33Z</time><name>PT16670</name></trkpt>
<trkpt lat="53.445115" lon="05.771296"><ele>2.8</ele><time>2021-02-17T16:51:34Z</time><name>PT16671</name></trkpt>
<trkpt lat="53.445116" lon="05.771299"><ele>2.8</ele><time>2021-02-17T16:51:35Z</time><name>PT16672</name></trkpt>
<trkpt lat="53.445119" lon="05.771300"><ele>2.8</ele><time>2021-02-17T16:51:36Z</time><name>PT16673</name></trkpt>
<trkpt lat="53.445119" lon="05.771305"><ele>2.5</ele><time>2021-02-17T16:51:37Z</time><name>PT16674</name></trkpt>
<trkpt lat="53.445118" lon="05.771306"><ele>2.6</ele><time>2021-02-17T16:51:38Z</time><name>PT16675</name></trkpt>
<trkpt lat="53.445118" lon="05.771307"><ele>2.4</ele><time>2021-02-17T16:51:39Z</time><name>PT16676</name></trkpt>
<trkpt lat="53.445117" lon="05.771310"><ele>2.4</ele><time>2021-02-17T16:51:40Z</time><name>PT16677</name></trkpt>
<trkpt lat="53.445113" lon="05.771315"><ele>2.3</ele><time>2021-02-17T16:51:42Z</time><name>PT16678</name></trkpt>
<trkpt lat="53.445119" lon="05.771306"><ele>2.6</ele><time>2021-02-17T16:51:43Z</time><name>PT16679</name></trkpt>
<trkpt lat="53.445120" lon="05.771305"><ele>2.6</ele><time>2021-02-17T16:51:44Z</time><name>PT16680</name></trkpt>
<trkpt lat="53.445122" lon="05.771305"><ele>2.7</ele><time>2021-02-17T16:51:45Z</time><name>PT16681</name></trkpt>
<trkpt lat="53.445123" lon="05.771308"><ele>2.8</ele><time>2021-02-17T16:51:46Z</time><name>PT16682</name></trkpt>
<trkpt lat="53.445125" lon="05.771295"><ele>2.8</ele><time>2021-02-17T16:51:57Z</time><name>PT16683</name></trkpt>
<trkpt lat="53.445125" lon="05.771297"><ele>3.2</ele><time>2021-02-17T16:51:58Z</time><name>PT16684</name></trkpt>
<trkpt lat="53.445127" lon="05.771306"><ele>3.2</ele><time>2021-02-17T16:53:14Z</time><name>PT16685</name></trkpt>
<trkpt lat="53.445129" lon="05.771311"><ele>3.1</ele><time>2021-02-17T16:53:15Z</time><name>PT16686</name></trkpt>
<trkpt lat="53.445133" lon="05.771310"><ele>3.2</ele><time>2021-02-17T16:53:16Z</time><name>PT16687</name></trkpt>
<trkpt lat="53.445137" lon="05.771316"><ele>3.1</ele><time>2021-02-17T16:53:17Z</time><name>PT16688</name></trkpt>
<trkpt lat="53.445138" lon="05.771317"><ele>3</ele><time>2021-02-17T16:53:18Z</time><name>PT16689</name></trkpt>
<trkpt lat="53.445137" lon="05.771319"><ele>2.8</ele><time>2021-02-17T16:53:19Z</time><name>PT16690</name></trkpt>
<trkpt lat="53.445138" lon="05.771323"><ele>2.9</ele><time>2021-02-17T16:53:20Z</time><name>PT16691</name></trkpt>
<trkpt lat="53.445136" lon="05.771325"><ele>2.5</ele><time>2021-02-17T16:53:58Z</time><name>PT16692</name></trkpt>
<trkpt lat="53.445124" lon="05.771324"><ele>2.8</ele><time>2021-02-17T16:53:59Z</time><name>PT16693</name></trkpt>
<trkpt lat="53.445120" lon="05.771332"><ele>3</ele><time>2021-02-17T16:54:00Z</time><name>PT16694</name></trkpt>
<trkpt lat="53.445121" lon="05.771339"><ele>3.1</ele><time>2021-02-17T16:54:01Z</time><name>PT16695</name></trkpt>
<trkpt lat="53.445123" lon="05.771336"><ele>2.9</ele><time>2021-02-17T16:54:02Z</time><name>PT16696</name></trkpt>
<trkpt lat="53.445121" lon="05.771333"><ele>2.9</ele><time>2021-02-17T16:54:03Z</time><name>PT16697</name></trkpt>
<trkpt lat="53.445120" lon="05.771333"><ele>2.8</ele><time>2021-02-17T16:54:04Z</time><name>PT16698</name></trkpt>
<trkpt lat="53.445120" lon="05.771335"><ele>2.7</ele><time>2021-02-17T16:54:05Z</time><name>PT16699</name></trkpt>
<trkpt lat="53.445120" lon="05.771338"><ele>2.7</ele><time>2021-02-17T16:54:06Z</time><name>PT16700</name></trkpt>
<trkpt lat="53.445117" lon="05.771342"><ele>2.9</ele><time>2021-02-17T16:54:21Z</time><name>PT16701</name></trkpt>
<trkpt lat="53.445114" lon="05.771343"><ele>2.8</ele><time>2021-02-17T16:54:22Z</time><name>PT16702</name></trkpt>
<trkpt lat="53.445111" lon="05.771344"><ele>3.5</ele><time>2021-02-17T16:54:36Z</time><name>PT16703</name></trkpt>
<trkpt lat="53.445110" lon="05.771348"><ele>3.3</ele><time>2021-02-17T16:54:37Z</time><name>PT16704</name></trkpt>
<trkpt lat="53.445110" lon="05.771350"><ele>3.2</ele><time>2021-02-17T16:54:38Z</time><name>PT16705</name></trkpt>
<trkpt lat="53.445110" lon="05.771352"><ele>3.2</ele><time>2021-02-17T16:54:39Z</time><name>PT16706</name></trkpt></trkseg></trk></gpx>